<?xml version="1.0" encoding="UTF-8"?>
<gpx version="1.1" creator="https://www.youtrack.es" xsi:schemaLocation="http://www.topografix.com/GPX/1/1 http://www.topografix.com/GPX/1/1/gpx.xsd http://www.garmin.com/xmlschemas/GpxExtensions/v3 http://www.garmin.com/xmlschemas/GpxExtensionsv3.xsd http://www.garmin.com/xmlschemas/TrackPointExtension/v1 http://www.garmin.com/xmlschemas/TrackPointExtensionv1.xsd" xmlns:gpxtpx="http://www.garmin.com/xmlschemas/TrackPointExtension/v1" xmlns:gpxx="http://www.garmin.com/xmlschemas/GpxExtensions/v3" xmlns:xsi="http://www.w3.org/2001/XMLSchema-instance">
  <metadata>
    <link href="https://www.youtrack.es">
      <text>YouTrack.es</text>
    </link>
    <time>2026-05-07T21:02:03Z</time>
  </metadata>
  <trk>
    <src>https://www.youtrack.es</src>
    <link href="https://www.youtrack.es/ruta/15805-7-etapas-v-2">
      <text>YouTrack.es</text>
    </link>
    <trkseg>
      <trkpt lat="42.431277" lon="-8.647333">
        <ele>18.251</ele>
        <time>2020-08-24T07:00:00Z</time>
      </trkpt>
      <trkpt lat="42.431512" lon="-8.647009">
        <ele>18.101</ele>
        <time>2020-08-24T07:00:08Z</time>
      </trkpt>
      <trkpt lat="42.431742" lon="-8.647295">
        <ele>18.411</ele>
        <time>2020-08-24T07:00:17Z</time>
      </trkpt>
      <trkpt lat="42.431502" lon="-8.647677">
        <ele>19.108</ele>
        <time>2020-08-24T07:00:27Z</time>
      </trkpt>
      <trkpt lat="42.432018" lon="-8.648308">
        <ele>19.980</ele>
        <time>2020-08-24T07:00:45Z</time>
      </trkpt>
      <trkpt lat="42.432509" lon="-8.649851">
        <ele>17.140</ele>
        <time>2020-08-24T07:01:18Z</time>
      </trkpt>
      <trkpt lat="42.432792" lon="-8.649955">
        <ele>15.334</ele>
        <time>2020-08-24T07:01:28Z</time>
      </trkpt>
      <trkpt lat="42.433031" lon="-8.651858">
        <ele>4.681</ele>
        <time>2020-08-24T07:02:07Z</time>
      </trkpt>
      <trkpt lat="42.435890" lon="-8.647893">
        <ele>2.320</ele>
        <time>2020-08-24T07:03:58Z</time>
      </trkpt>
      <trkpt lat="42.437057" lon="-8.648418">
        <ele>2.174</ele>
        <time>2020-08-24T07:04:32Z</time>
      </trkpt>
      <trkpt lat="42.437214" lon="-8.648308">
        <ele>3.414</ele>
        <time>2020-08-24T07:04:36Z</time>
      </trkpt>
      <trkpt lat="42.437140" lon="-8.646280">
        <ele>2.352</ele>
        <time>2020-08-24T07:05:17Z</time>
      </trkpt>
      <trkpt lat="42.436784" lon="-8.644672">
        <ele>2.556</ele>
        <time>2020-08-24T07:05:50Z</time>
      </trkpt>
      <trkpt lat="42.436997" lon="-8.644417">
        <ele>3.059</ele>
        <time>2020-08-24T07:05:58Z</time>
      </trkpt>
      <trkpt lat="42.437937" lon="-8.645185">
        <ele>3.114</ele>
        <time>2020-08-24T07:06:28Z</time>
      </trkpt>
      <trkpt lat="42.440282" lon="-8.645423">
        <ele>3.608</ele>
        <time>2020-08-24T07:07:31Z</time>
      </trkpt>
      <trkpt lat="42.441338" lon="-8.644823">
        <ele>2.730</ele>
        <time>2020-08-24T07:08:02Z</time>
      </trkpt>
      <trkpt lat="42.444055" lon="-8.644097">
        <ele>3.220</ele>
        <time>2020-08-24T07:09:16Z</time>
      </trkpt>
      <trkpt lat="42.444058" lon="-8.643580">
        <ele>4.714</ele>
        <time>2020-08-24T07:09:27Z</time>
      </trkpt>
      <trkpt lat="42.446272" lon="-8.642692">
        <ele>12.581</ele>
        <time>2020-08-24T07:10:29Z</time>
      </trkpt>
      <trkpt lat="42.447853" lon="-8.642852">
        <ele>14.050</ele>
        <time>2020-08-24T07:11:12Z</time>
      </trkpt>
      <trkpt lat="42.448983" lon="-8.642167">
        <ele>4.074</ele>
        <time>2020-08-24T07:11:45Z</time>
      </trkpt>
      <trkpt lat="42.451652" lon="-8.641482">
        <ele>3.414</ele>
        <time>2020-08-24T07:12:58Z</time>
      </trkpt>
      <trkpt lat="42.452875" lon="-8.641942">
        <ele>6.622</ele>
        <time>2020-08-24T07:13:32Z</time>
      </trkpt>
      <trkpt lat="42.456800" lon="-8.644452">
        <ele>5.226</ele>
        <time>2020-08-24T07:15:28Z</time>
      </trkpt>
      <trkpt lat="42.456908" lon="-8.645378">
        <ele>5.547</ele>
        <time>2020-08-24T07:15:47Z</time>
      </trkpt>
      <trkpt lat="42.457942" lon="-8.646665">
        <ele>10.211</ele>
        <time>2020-08-24T07:16:25Z</time>
      </trkpt>
      <trkpt lat="42.458405" lon="-8.646957">
        <ele>10.808</ele>
        <time>2020-08-24T07:16:39Z</time>
      </trkpt>
      <trkpt lat="42.458935" lon="-8.647918">
        <ele>19.027</ele>
        <time>2020-08-24T07:17:03Z</time>
      </trkpt>
      <trkpt lat="42.458750" lon="-8.648935">
        <ele>30.567</ele>
        <time>2020-08-24T07:17:24Z</time>
      </trkpt>
      <trkpt lat="42.457957" lon="-8.649653">
        <ele>37.681</ele>
        <time>2020-08-24T07:17:49Z</time>
      </trkpt>
      <trkpt lat="42.457670" lon="-8.650422">
        <ele>36.478</ele>
        <time>2020-08-24T07:18:07Z</time>
      </trkpt>
      <trkpt lat="42.456972" lon="-8.651348">
        <ele>46.047</ele>
        <time>2020-08-24T07:18:33Z</time>
      </trkpt>
      <trkpt lat="42.456835" lon="-8.652287">
        <ele>52.911</ele>
        <time>2020-08-24T07:18:53Z</time>
      </trkpt>
      <trkpt lat="42.457422" lon="-8.652882">
        <ele>57.011</ele>
        <time>2020-08-24T07:19:12Z</time>
      </trkpt>
      <trkpt lat="42.457722" lon="-8.653568">
        <ele>62.559</ele>
        <time>2020-08-24T07:19:28Z</time>
      </trkpt>
      <trkpt lat="42.458940" lon="-8.655077">
        <ele>64.934</ele>
        <time>2020-08-24T07:20:12Z</time>
      </trkpt>
      <trkpt lat="42.460307" lon="-8.655460">
        <ele>46.355</ele>
        <time>2020-08-24T07:20:51Z</time>
      </trkpt>
      <trkpt lat="42.460847" lon="-8.657782">
        <ele>44.710</ele>
        <time>2020-08-24T07:21:39Z</time>
      </trkpt>
      <trkpt lat="42.461388" lon="-8.657948">
        <ele>43.908</ele>
        <time>2020-08-24T07:21:54Z</time>
      </trkpt>
      <trkpt lat="42.461653" lon="-8.658443">
        <ele>45.148</ele>
        <time>2020-08-24T07:22:07Z</time>
      </trkpt>
      <trkpt lat="42.461422" lon="-8.660003">
        <ele>53.518</ele>
        <time>2020-08-24T07:22:39Z</time>
      </trkpt>
      <trkpt lat="42.461703" lon="-8.660585">
        <ele>59.222</ele>
        <time>2020-08-24T07:22:52Z</time>
      </trkpt>
      <trkpt lat="42.462605" lon="-8.661125">
        <ele>68.339</ele>
        <time>2020-08-24T07:23:19Z</time>
      </trkpt>
      <trkpt lat="42.463383" lon="-8.661275">
        <ele>74.598</ele>
        <time>2020-08-24T07:23:40Z</time>
      </trkpt>
      <trkpt lat="42.463593" lon="-8.661045">
        <ele>73.012</ele>
        <time>2020-08-24T07:23:48Z</time>
      </trkpt>
      <trkpt lat="42.463642" lon="-8.660318">
        <ele>71.292</ele>
        <time>2020-08-24T07:24:02Z</time>
      </trkpt>
      <trkpt lat="42.463918" lon="-8.660127">
        <ele>74.580</ele>
        <time>2020-08-24T07:24:11Z</time>
      </trkpt>
      <trkpt lat="42.464357" lon="-8.660650">
        <ele>80.936</ele>
        <time>2020-08-24T07:24:27Z</time>
      </trkpt>
      <trkpt lat="42.464577" lon="-8.661322">
        <ele>84.117</ele>
        <time>2020-08-24T07:24:42Z</time>
      </trkpt>
      <trkpt lat="42.465032" lon="-8.661382">
        <ele>84.318</ele>
        <time>2020-08-24T07:24:54Z</time>
      </trkpt>
      <trkpt lat="42.467025" lon="-8.663695">
        <ele>83.908</ele>
        <time>2020-08-24T07:26:05Z</time>
      </trkpt>
      <trkpt lat="42.468013" lon="-8.663075">
        <ele>76.158</ele>
        <time>2020-08-24T07:26:35Z</time>
      </trkpt>
      <trkpt lat="42.467830" lon="-8.665060">
        <ele>72.728</ele>
        <time>2020-08-24T07:27:15Z</time>
      </trkpt>
      <trkpt lat="42.468090" lon="-8.665912">
        <ele>79.512</ele>
        <time>2020-08-24T07:27:34Z</time>
      </trkpt>
      <trkpt lat="42.468912" lon="-8.666730">
        <ele>84.639</ele>
        <time>2020-08-24T07:28:01Z</time>
      </trkpt>
      <trkpt lat="42.469798" lon="-8.667043">
        <ele>90.398</ele>
        <time>2020-08-24T07:28:26Z</time>
      </trkpt>
      <trkpt lat="42.470707" lon="-8.668283">
        <ele>100.812</ele>
        <time>2020-08-24T07:29:00Z</time>
      </trkpt>
      <trkpt lat="42.471502" lon="-8.670268">
        <ele>104.422</ele>
        <time>2020-08-24T07:29:45Z</time>
      </trkpt>
      <trkpt lat="42.472363" lon="-8.670485">
        <ele>110.110</ele>
        <time>2020-08-24T07:30:09Z</time>
      </trkpt>
      <trkpt lat="42.472508" lon="-8.672295">
        <ele>125.694</ele>
        <time>2020-08-24T07:30:45Z</time>
      </trkpt>
      <trkpt lat="42.473248" lon="-8.670973">
        <ele>136.757</ele>
        <time>2020-08-24T07:31:20Z</time>
      </trkpt>
      <trkpt lat="42.473530" lon="-8.670900">
        <ele>139.722</ele>
        <time>2020-08-24T07:31:27Z</time>
      </trkpt>
      <trkpt lat="42.475365" lon="-8.672138">
        <ele>168.808</ele>
        <time>2020-08-24T07:32:23Z</time>
      </trkpt>
      <trkpt lat="42.474733" lon="-8.672650">
        <ele>181.144</ele>
        <time>2020-08-24T07:32:44Z</time>
      </trkpt>
      <trkpt lat="42.475258" lon="-8.673028">
        <ele>190.384</ele>
        <time>2020-08-24T07:33:01Z</time>
      </trkpt>
      <trkpt lat="42.475028" lon="-8.673873">
        <ele>201.378</ele>
        <time>2020-08-24T07:33:20Z</time>
      </trkpt>
      <trkpt lat="42.475112" lon="-8.674387">
        <ele>206.455</ele>
        <time>2020-08-24T07:33:30Z</time>
      </trkpt>
      <trkpt lat="42.475980" lon="-8.674263">
        <ele>216.664</ele>
        <time>2020-08-24T07:33:55Z</time>
      </trkpt>
      <trkpt lat="42.477285" lon="-8.675623">
        <ele>240.678</ele>
        <time>2020-08-24T07:34:39Z</time>
      </trkpt>
      <trkpt lat="42.476733" lon="-8.676773">
        <ele>254.838</ele>
        <time>2020-08-24T07:35:07Z</time>
      </trkpt>
      <trkpt lat="42.476640" lon="-8.677460">
        <ele>259.636</ele>
        <time>2020-08-24T07:35:21Z</time>
      </trkpt>
      <trkpt lat="42.477010" lon="-8.678860">
        <ele>270.427</ele>
        <time>2020-08-24T07:35:50Z</time>
      </trkpt>
      <trkpt lat="42.477642" lon="-8.679807">
        <ele>281.368</ele>
        <time>2020-08-24T07:36:16Z</time>
      </trkpt>
      <trkpt lat="42.477857" lon="-8.680753">
        <ele>291.414</ele>
        <time>2020-08-24T07:36:35Z</time>
      </trkpt>
      <trkpt lat="42.477228" lon="-8.680820">
        <ele>288.908</ele>
        <time>2020-08-24T07:36:54Z</time>
      </trkpt>
      <trkpt lat="42.476612" lon="-8.681583">
        <ele>291.397</ele>
        <time>2020-08-24T07:37:17Z</time>
      </trkpt>
      <trkpt lat="42.476390" lon="-8.682548">
        <ele>301.047</ele>
        <time>2020-08-24T07:37:37Z</time>
      </trkpt>
      <trkpt lat="42.475002" lon="-8.681687">
        <ele>303.811</ele>
        <time>2020-08-24T07:38:20Z</time>
      </trkpt>
      <trkpt lat="42.474480" lon="-8.680968">
        <ele>305.488</ele>
        <time>2020-08-24T07:38:39Z</time>
      </trkpt>
      <trkpt lat="42.473437" lon="-8.680203">
        <ele>309.657</ele>
        <time>2020-08-24T07:39:11Z</time>
      </trkpt>
      <trkpt lat="42.472867" lon="-8.680302">
        <ele>314.161</ele>
        <time>2020-08-24T07:39:27Z</time>
      </trkpt>
      <trkpt lat="42.472068" lon="-8.680990">
        <ele>322.761</ele>
        <time>2020-08-24T07:39:52Z</time>
      </trkpt>
      <trkpt lat="42.470583" lon="-8.681202">
        <ele>325.769</ele>
        <time>2020-08-24T07:40:33Z</time>
      </trkpt>
      <trkpt lat="42.472053" lon="-8.681640">
        <ele>342.584</ele>
        <time>2020-08-24T07:41:15Z</time>
      </trkpt>
      <trkpt lat="42.472867" lon="-8.681450">
        <ele>348.307</ele>
        <time>2020-08-24T07:41:37Z</time>
      </trkpt>
      <trkpt lat="42.473650" lon="-8.681898">
        <ele>355.317</ele>
        <time>2020-08-24T07:42:00Z</time>
      </trkpt>
      <trkpt lat="42.476257" lon="-8.685725">
        <ele>394.308</ele>
        <time>2020-08-24T07:43:45Z</time>
      </trkpt>
      <trkpt lat="42.475578" lon="-8.685548">
        <ele>403.073</ele>
        <time>2020-08-24T07:44:04Z</time>
      </trkpt>
      <trkpt lat="42.473732" lon="-8.683728">
        <ele>409.473</ele>
        <time>2020-08-24T07:45:06Z</time>
      </trkpt>
      <trkpt lat="42.472465" lon="-8.683638">
        <ele>414.847</ele>
        <time>2020-08-24T07:45:40Z</time>
      </trkpt>
      <trkpt lat="42.472083" lon="-8.684013">
        <ele>419.814</ele>
        <time>2020-08-24T07:45:53Z</time>
      </trkpt>
      <trkpt lat="42.472168" lon="-8.684630">
        <ele>421.153</ele>
        <time>2020-08-24T07:46:06Z</time>
      </trkpt>
      <trkpt lat="42.473257" lon="-8.685645">
        <ele>426.627</ele>
        <time>2020-08-24T07:46:42Z</time>
      </trkpt>
      <trkpt lat="42.473740" lon="-8.685758">
        <ele>433.127</ele>
        <time>2020-08-24T07:46:55Z</time>
      </trkpt>
      <trkpt lat="42.476268" lon="-8.687700">
        <ele>443.795</ele>
        <time>2020-08-24T07:48:12Z</time>
      </trkpt>
      <trkpt lat="42.478718" lon="-8.687213">
        <ele>458.467</ele>
        <time>2020-08-24T07:49:19Z</time>
      </trkpt>
      <trkpt lat="42.480408" lon="-8.687388">
        <ele>470.381</ele>
        <time>2020-08-24T07:50:04Z</time>
      </trkpt>
      <trkpt lat="42.481250" lon="-8.687800">
        <ele>475.119</ele>
        <time>2020-08-24T07:50:28Z</time>
      </trkpt>
      <trkpt lat="42.481975" lon="-8.688723">
        <ele>479.508</ele>
        <time>2020-08-24T07:50:55Z</time>
      </trkpt>
      <trkpt lat="42.483082" lon="-8.689542">
        <ele>479.811</ele>
        <time>2020-08-24T07:51:28Z</time>
      </trkpt>
      <trkpt lat="42.483432" lon="-8.690095">
        <ele>479.811</ele>
        <time>2020-08-24T07:51:43Z</time>
      </trkpt>
      <trkpt lat="42.483383" lon="-8.694177">
        <ele>478.515</ele>
        <time>2020-08-24T07:53:04Z</time>
      </trkpt>
      <trkpt lat="42.483618" lon="-8.695718">
        <ele>477.722</ele>
        <time>2020-08-24T07:53:35Z</time>
      </trkpt>
      <trkpt lat="42.483297" lon="-8.697282">
        <ele>478.691</ele>
        <time>2020-08-24T07:54:08Z</time>
      </trkpt>
      <trkpt lat="42.485117" lon="-8.698950">
        <ele>478.535</ele>
        <time>2020-08-24T07:55:07Z</time>
      </trkpt>
      <trkpt lat="42.486912" lon="-8.699315">
        <ele>476.255</ele>
        <time>2020-08-24T07:55:56Z</time>
      </trkpt>
      <trkpt lat="42.487442" lon="-8.700187">
        <ele>477.123</ele>
        <time>2020-08-24T07:56:19Z</time>
      </trkpt>
      <trkpt lat="42.487565" lon="-8.700913">
        <ele>476.846</ele>
        <time>2020-08-24T07:56:33Z</time>
      </trkpt>
      <trkpt lat="42.487265" lon="-8.701572">
        <ele>476.988</ele>
        <time>2020-08-24T07:56:49Z</time>
      </trkpt>
      <trkpt lat="42.486917" lon="-8.701598">
        <ele>481.016</ele>
        <time>2020-08-24T07:56:58Z</time>
      </trkpt>
      <trkpt lat="42.485517" lon="-8.703317">
        <ele>502.308</ele>
        <time>2020-08-24T07:57:49Z</time>
      </trkpt>
      <trkpt lat="42.484193" lon="-8.704428">
        <ele>521.119</ele>
        <time>2020-08-24T07:58:32Z</time>
      </trkpt>
      <trkpt lat="42.482747" lon="-8.705150">
        <ele>539.449</ele>
        <time>2020-08-24T07:59:13Z</time>
      </trkpt>
      <trkpt lat="42.483382" lon="-8.703900">
        <ele>550.413</ele>
        <time>2020-08-24T07:59:46Z</time>
      </trkpt>
      <trkpt lat="42.483983" lon="-8.702010">
        <ele>560.470</ele>
        <time>2020-08-24T08:00:26Z</time>
      </trkpt>
      <trkpt lat="42.483945" lon="-8.701483">
        <ele>564.829</ele>
        <time>2020-08-24T08:00:37Z</time>
      </trkpt>
      <trkpt lat="42.483757" lon="-8.701440">
        <ele>569.833</ele>
        <time>2020-08-24T08:00:43Z</time>
      </trkpt>
      <trkpt lat="42.482890" lon="-8.703290">
        <ele>579.273</ele>
        <time>2020-08-24T08:01:27Z</time>
      </trkpt>
      <trkpt lat="42.481947" lon="-8.704007">
        <ele>589.061</ele>
        <time>2020-08-24T08:01:57Z</time>
      </trkpt>
      <trkpt lat="42.482378" lon="-8.702855">
        <ele>597.076</ele>
        <time>2020-08-24T08:02:23Z</time>
      </trkpt>
      <trkpt lat="42.482337" lon="-8.702305">
        <ele>597.690</ele>
        <time>2020-08-24T08:02:34Z</time>
      </trkpt>
      <trkpt lat="42.481602" lon="-8.701212">
        <ele>594.019</ele>
        <time>2020-08-24T08:03:04Z</time>
      </trkpt>
      <trkpt lat="42.480782" lon="-8.698517">
        <ele>588.908</ele>
        <time>2020-08-24T08:04:02Z</time>
      </trkpt>
      <trkpt lat="42.480137" lon="-8.697755">
        <ele>585.352</ele>
        <time>2020-08-24T08:04:25Z</time>
      </trkpt>
      <trkpt lat="42.479240" lon="-8.697190">
        <ele>587.832</ele>
        <time>2020-08-24T08:04:52Z</time>
      </trkpt>
      <trkpt lat="42.479112" lon="-8.695538">
        <ele>593.866</ele>
        <time>2020-08-24T08:05:25Z</time>
      </trkpt>
      <trkpt lat="42.477228" lon="-8.693868">
        <ele>590.343</ele>
        <time>2020-08-24T08:06:26Z</time>
      </trkpt>
      <trkpt lat="42.476642" lon="-8.693730">
        <ele>589.552</ele>
        <time>2020-08-24T08:06:42Z</time>
      </trkpt>
      <trkpt lat="42.475785" lon="-8.694057">
        <ele>591.936</ele>
        <time>2020-08-24T08:07:06Z</time>
      </trkpt>
      <trkpt lat="42.474268" lon="-8.693190">
        <ele>577.456</ele>
        <time>2020-08-24T08:07:51Z</time>
      </trkpt>
      <trkpt lat="42.473687" lon="-8.693805">
        <ele>570.444</ele>
        <time>2020-08-24T08:08:11Z</time>
      </trkpt>
      <trkpt lat="42.473695" lon="-8.694513">
        <ele>570.475</ele>
        <time>2020-08-24T08:08:25Z</time>
      </trkpt>
      <trkpt lat="42.474325" lon="-8.696310">
        <ele>561.228</ele>
        <time>2020-08-24T08:09:04Z</time>
      </trkpt>
      <trkpt lat="42.475220" lon="-8.697788">
        <ele>546.620</ele>
        <time>2020-08-24T08:09:43Z</time>
      </trkpt>
      <trkpt lat="42.475013" lon="-8.698152">
        <ele>545.008</ele>
        <time>2020-08-24T08:09:52Z</time>
      </trkpt>
      <trkpt lat="42.473232" lon="-8.697173">
        <ele>527.252</ele>
        <time>2020-08-24T08:10:45Z</time>
      </trkpt>
      <trkpt lat="42.473690" lon="-8.698148">
        <ele>527.092</ele>
        <time>2020-08-24T08:11:08Z</time>
      </trkpt>
      <trkpt lat="42.472853" lon="-8.699393">
        <ele>518.766</ele>
        <time>2020-08-24T08:11:42Z</time>
      </trkpt>
      <trkpt lat="42.472495" lon="-8.700507">
        <ele>513.923</ele>
        <time>2020-08-24T08:12:06Z</time>
      </trkpt>
      <trkpt lat="42.473235" lon="-8.702252">
        <ele>509.722</ele>
        <time>2020-08-24T08:12:46Z</time>
      </trkpt>
      <trkpt lat="42.472932" lon="-8.703490">
        <ele>503.166</ele>
        <time>2020-08-24T08:13:13Z</time>
      </trkpt>
      <trkpt lat="42.473278" lon="-8.705445">
        <ele>497.536</ele>
        <time>2020-08-24T08:13:53Z</time>
      </trkpt>
      <trkpt lat="42.473735" lon="-8.705942">
        <ele>494.164</ele>
        <time>2020-08-24T08:14:08Z</time>
      </trkpt>
      <trkpt lat="42.474575" lon="-8.705900">
        <ele>489.532</ele>
        <time>2020-08-24T08:14:31Z</time>
      </trkpt>
      <trkpt lat="42.475518" lon="-8.706643">
        <ele>482.692</ele>
        <time>2020-08-24T08:15:01Z</time>
      </trkpt>
      <trkpt lat="42.477222" lon="-8.707387">
        <ele>467.511</ele>
        <time>2020-08-24T08:15:49Z</time>
      </trkpt>
      <trkpt lat="42.479343" lon="-8.707108">
        <ele>471.808</ele>
        <time>2020-08-24T08:16:46Z</time>
      </trkpt>
      <trkpt lat="42.480523" lon="-8.708013">
        <ele>470.788</ele>
        <time>2020-08-24T08:17:23Z</time>
      </trkpt>
      <trkpt lat="42.481388" lon="-8.707892">
        <ele>472.158</ele>
        <time>2020-08-24T08:17:46Z</time>
      </trkpt>
      <trkpt lat="42.482128" lon="-8.707488">
        <ele>473.562</ele>
        <time>2020-08-24T08:18:07Z</time>
      </trkpt>
      <trkpt lat="42.487007" lon="-8.707114">
        <ele>411.399</ele>
        <time>2020-08-24T08:20:20Z</time>
      </trkpt>
      <trkpt lat="42.488572" lon="-8.706205">
        <ele>395.158</ele>
        <time>2020-08-24T08:21:05Z</time>
      </trkpt>
      <trkpt lat="42.488981" lon="-8.705507">
        <ele>391.372</ele>
        <time>2020-08-24T08:21:23Z</time>
      </trkpt>
      <trkpt lat="42.488903" lon="-8.704487">
        <ele>391.792</ele>
        <time>2020-08-24T08:21:44Z</time>
      </trkpt>
      <trkpt lat="42.489605" lon="-8.704283">
        <ele>389.190</ele>
        <time>2020-08-24T08:22:03Z</time>
      </trkpt>
      <trkpt lat="42.490340" lon="-8.703334">
        <ele>384.845</ele>
        <time>2020-08-24T08:22:30Z</time>
      </trkpt>
      <trkpt lat="42.490689" lon="-8.702390">
        <ele>379.447</ele>
        <time>2020-08-24T08:22:51Z</time>
      </trkpt>
      <trkpt lat="42.491013" lon="-8.699891">
        <ele>370.411</ele>
        <time>2020-08-24T08:23:41Z</time>
      </trkpt>
      <trkpt lat="42.490908" lon="-8.699477">
        <ele>367.608</ele>
        <time>2020-08-24T08:23:50Z</time>
      </trkpt>
      <trkpt lat="42.490393" lon="-8.698921">
        <ele>367.729</ele>
        <time>2020-08-24T08:24:08Z</time>
      </trkpt>
      <trkpt lat="42.490001" lon="-8.697590">
        <ele>360.489</ele>
        <time>2020-08-24T08:24:36Z</time>
      </trkpt>
      <trkpt lat="42.489455" lon="-8.696565">
        <ele>359.683</ele>
        <time>2020-08-24T08:25:01Z</time>
      </trkpt>
      <trkpt lat="42.490193" lon="-8.695183">
        <ele>355.240</ele>
        <time>2020-08-24T08:25:35Z</time>
      </trkpt>
      <trkpt lat="42.490568" lon="-8.693650">
        <ele>350.369</ele>
        <time>2020-08-24T08:26:08Z</time>
      </trkpt>
      <trkpt lat="42.490321" lon="-8.693109">
        <ele>349.233</ele>
        <time>2020-08-24T08:26:20Z</time>
      </trkpt>
      <trkpt lat="42.489674" lon="-8.692695">
        <ele>345.683</ele>
        <time>2020-08-24T08:26:40Z</time>
      </trkpt>
      <trkpt lat="42.489288" lon="-8.693015">
        <ele>349.111</ele>
        <time>2020-08-24T08:26:52Z</time>
      </trkpt>
      <trkpt lat="42.489152" lon="-8.692754">
        <ele>348.469</ele>
        <time>2020-08-24T08:26:59Z</time>
      </trkpt>
      <trkpt lat="42.489414" lon="-8.691740">
        <ele>344.304</ele>
        <time>2020-08-24T08:27:20Z</time>
      </trkpt>
      <trkpt lat="42.490933" lon="-8.689955">
        <ele>332.324</ele>
        <time>2020-08-24T08:28:14Z</time>
      </trkpt>
      <trkpt lat="42.491024" lon="-8.689582">
        <ele>329.208</ele>
        <time>2020-08-24T08:28:23Z</time>
      </trkpt>
      <trkpt lat="42.490360" lon="-8.688578">
        <ele>327.181</ele>
        <time>2020-08-24T08:28:49Z</time>
      </trkpt>
      <trkpt lat="42.489091" lon="-8.688040">
        <ele>327.051</ele>
        <time>2020-08-24T08:29:25Z</time>
      </trkpt>
      <trkpt lat="42.488983" lon="-8.687661">
        <ele>322.345</ele>
        <time>2020-08-24T08:29:33Z</time>
      </trkpt>
      <trkpt lat="42.488490" lon="-8.687259">
        <ele>325.142</ele>
        <time>2020-08-24T08:29:50Z</time>
      </trkpt>
      <trkpt lat="42.489868" lon="-8.686479">
        <ele>321.941</ele>
        <time>2020-08-24T08:30:31Z</time>
      </trkpt>
      <trkpt lat="42.490593" lon="-8.686448">
        <ele>317.075</ele>
        <time>2020-08-24T08:30:50Z</time>
      </trkpt>
      <trkpt lat="42.491073" lon="-8.685918">
        <ele>315.755</ele>
        <time>2020-08-24T08:31:07Z</time>
      </trkpt>
      <trkpt lat="42.491593" lon="-8.686310">
        <ele>313.773</ele>
        <time>2020-08-24T08:31:24Z</time>
      </trkpt>
      <trkpt lat="42.495129" lon="-8.685760">
        <ele>293.333</ele>
        <time>2020-08-24T08:33:00Z</time>
      </trkpt>
      <trkpt lat="42.495430" lon="-8.685239">
        <ele>291.423</ele>
        <time>2020-08-24T08:33:13Z</time>
      </trkpt>
      <trkpt lat="42.496406" lon="-8.684725">
        <ele>287.515</ele>
        <time>2020-08-24T08:33:41Z</time>
      </trkpt>
      <trkpt lat="42.497320" lon="-8.682070">
        <ele>278.808</ele>
        <time>2020-08-24T08:34:40Z</time>
      </trkpt>
      <trkpt lat="42.497351" lon="-8.681381">
        <ele>280.848</ele>
        <time>2020-08-24T08:34:54Z</time>
      </trkpt>
      <trkpt lat="42.497862" lon="-8.681455">
        <ele>277.688</ele>
        <time>2020-08-24T08:35:09Z</time>
      </trkpt>
      <trkpt lat="42.498841" lon="-8.680785">
        <ele>269.472</ele>
        <time>2020-08-24T08:35:38Z</time>
      </trkpt>
      <trkpt lat="42.499891" lon="-8.678633">
        <ele>255.829</ele>
        <time>2020-08-24T08:36:29Z</time>
      </trkpt>
      <trkpt lat="42.500229" lon="-8.676875">
        <ele>248.088</ele>
        <time>2020-08-24T08:37:05Z</time>
      </trkpt>
      <trkpt lat="42.502457" lon="-8.674938">
        <ele>234.642</ele>
        <time>2020-08-24T08:38:17Z</time>
      </trkpt>
      <trkpt lat="42.503039" lon="-8.672322">
        <ele>220.742</ele>
        <time>2020-08-24T08:39:10Z</time>
      </trkpt>
      <trkpt lat="42.502885" lon="-8.670357">
        <ele>209.160</ele>
        <time>2020-08-24T08:39:49Z</time>
      </trkpt>
      <trkpt lat="42.502519" lon="-8.671024">
        <ele>211.288</ele>
        <time>2020-08-24T08:40:06Z</time>
      </trkpt>
      <trkpt lat="42.502031" lon="-8.673115">
        <ele>222.124</ele>
        <time>2020-08-24T08:40:49Z</time>
      </trkpt>
      <trkpt lat="42.501371" lon="-8.673454">
        <ele>224.726</ele>
        <time>2020-08-24T08:41:08Z</time>
      </trkpt>
      <trkpt lat="42.500460" lon="-8.674476">
        <ele>225.508</ele>
        <time>2020-08-24T08:41:39Z</time>
      </trkpt>
      <trkpt lat="42.499851" lon="-8.674755">
        <ele>223.293</ele>
        <time>2020-08-24T08:41:56Z</time>
      </trkpt>
      <trkpt lat="42.499514" lon="-8.673982">
        <ele>220.713</ele>
        <time>2020-08-24T08:42:15Z</time>
      </trkpt>
      <trkpt lat="42.497313" lon="-8.673926">
        <ele>221.767</ele>
        <time>2020-08-24T08:43:14Z</time>
      </trkpt>
      <trkpt lat="42.497112" lon="-8.673129">
        <ele>220.494</ele>
        <time>2020-08-24T08:43:30Z</time>
      </trkpt>
      <trkpt lat="42.496496" lon="-8.672982">
        <ele>223.693</ele>
        <time>2020-08-24T08:43:47Z</time>
      </trkpt>
      <trkpt lat="42.496024" lon="-8.673253">
        <ele>228.067</ele>
        <time>2020-08-24T08:44:01Z</time>
      </trkpt>
      <trkpt lat="42.495282" lon="-8.673090">
        <ele>225.877</ele>
        <time>2020-08-24T08:44:21Z</time>
      </trkpt>
      <trkpt lat="42.494484" lon="-8.673454">
        <ele>235.545</ele>
        <time>2020-08-24T08:44:44Z</time>
      </trkpt>
      <trkpt lat="42.494182" lon="-8.674283">
        <ele>248.393</ele>
        <time>2020-08-24T08:45:02Z</time>
      </trkpt>
      <trkpt lat="42.493396" lon="-8.675344">
        <ele>250.065</ele>
        <time>2020-08-24T08:45:31Z</time>
      </trkpt>
      <trkpt lat="42.493029" lon="-8.675384">
        <ele>247.621</ele>
        <time>2020-08-24T08:45:41Z</time>
      </trkpt>
      <trkpt lat="42.492574" lon="-8.673519">
        <ele>241.508</ele>
        <time>2020-08-24T08:46:21Z</time>
      </trkpt>
      <trkpt lat="42.492178" lon="-8.673280">
        <ele>242.044</ele>
        <time>2020-08-24T08:46:33Z</time>
      </trkpt>
      <trkpt lat="42.492046" lon="-8.671649">
        <ele>234.814</ele>
        <time>2020-08-24T08:47:07Z</time>
      </trkpt>
      <trkpt lat="42.492342" lon="-8.671223">
        <ele>236.118</ele>
        <time>2020-08-24T08:47:19Z</time>
      </trkpt>
      <trkpt lat="42.492362" lon="-8.670679">
        <ele>236.945</ele>
        <time>2020-08-24T08:47:30Z</time>
      </trkpt>
      <trkpt lat="42.491925" lon="-8.669723">
        <ele>240.784</ele>
        <time>2020-08-24T08:47:52Z</time>
      </trkpt>
      <trkpt lat="42.491427" lon="-8.667451">
        <ele>248.988</ele>
        <time>2020-08-24T08:48:39Z</time>
      </trkpt>
      <trkpt lat="42.491611" lon="-8.666059">
        <ele>252.268</ele>
        <time>2020-08-24T08:49:08Z</time>
      </trkpt>
      <trkpt lat="42.491125" lon="-8.665345">
        <ele>245.396</ele>
        <time>2020-08-24T08:49:28Z</time>
      </trkpt>
      <trkpt lat="42.492865" lon="-8.663318">
        <ele>225.036</ele>
        <time>2020-08-24T08:50:30Z</time>
      </trkpt>
      <trkpt lat="42.494547" lon="-8.662033">
        <ele>211.317</ele>
        <time>2020-08-24T08:51:22Z</time>
      </trkpt>
      <trkpt lat="42.494905" lon="-8.661269">
        <ele>203.018</ele>
        <time>2020-08-24T08:51:40Z</time>
      </trkpt>
      <trkpt lat="42.494044" lon="-8.660255">
        <ele>192.208</ele>
        <time>2020-08-24T08:52:11Z</time>
      </trkpt>
      <trkpt lat="42.493136" lon="-8.660350">
        <ele>193.498</ele>
        <time>2020-08-24T08:52:36Z</time>
      </trkpt>
      <trkpt lat="42.492948" lon="-8.660560">
        <ele>194.478</ele>
        <time>2020-08-24T08:52:43Z</time>
      </trkpt>
      <trkpt lat="42.492937" lon="-8.661308">
        <ele>193.552</ele>
        <time>2020-08-24T08:52:58Z</time>
      </trkpt>
      <trkpt lat="42.491486" lon="-8.662405">
        <ele>188.029</ele>
        <time>2020-08-24T08:53:43Z</time>
      </trkpt>
      <trkpt lat="42.490521" lon="-8.662058">
        <ele>170.118</ele>
        <time>2020-08-24T08:54:10Z</time>
      </trkpt>
      <trkpt lat="42.489797" lon="-8.662439">
        <ele>168.222</ele>
        <time>2020-08-24T08:54:31Z</time>
      </trkpt>
      <trkpt lat="42.488703" lon="-8.663803">
        <ele>167.962</ele>
        <time>2020-08-24T08:55:11Z</time>
      </trkpt>
      <trkpt lat="42.487335" lon="-8.664893">
        <ele>176.240</ele>
        <time>2020-08-24T08:55:54Z</time>
      </trkpt>
      <trkpt lat="42.486869" lon="-8.665919">
        <ele>173.624</ele>
        <time>2020-08-24T08:56:18Z</time>
      </trkpt>
      <trkpt lat="42.485377" lon="-8.665730">
        <ele>165.604</ele>
        <time>2020-08-24T08:56:59Z</time>
      </trkpt>
      <trkpt lat="42.484994" lon="-8.665419">
        <ele>164.314</ele>
        <time>2020-08-24T08:57:11Z</time>
      </trkpt>
      <trkpt lat="42.484847" lon="-8.663994">
        <ele>151.408</ele>
        <time>2020-08-24T08:57:39Z</time>
      </trkpt>
      <trkpt lat="42.484253" lon="-8.661512">
        <ele>132.797</ele>
        <time>2020-08-24T08:58:32Z</time>
      </trkpt>
      <trkpt lat="42.483372" lon="-8.661420">
        <ele>129.567</ele>
        <time>2020-08-24T08:58:56Z</time>
      </trkpt>
      <trkpt lat="42.483226" lon="-8.660571">
        <ele>126.361</ele>
        <time>2020-08-24T08:59:13Z</time>
      </trkpt>
      <trkpt lat="42.482679" lon="-8.659549">
        <ele>117.498</ele>
        <time>2020-08-24T08:59:38Z</time>
      </trkpt>
      <trkpt lat="42.482821" lon="-8.658597">
        <ele>109.927</ele>
        <time>2020-08-24T08:59:59Z</time>
      </trkpt>
      <trkpt lat="42.482256" lon="-8.658146">
        <ele>102.361</ele>
        <time>2020-08-24T09:00:17Z</time>
      </trkpt>
      <trkpt lat="42.481227" lon="-8.658461">
        <ele>89.871</ele>
        <time>2020-08-24T09:00:45Z</time>
      </trkpt>
      <trkpt lat="42.479217" lon="-8.655042">
        <ele>64.079</ele>
        <time>2020-08-24T09:02:12Z</time>
      </trkpt>
      <trkpt lat="42.478743" lon="-8.653906">
        <ele>53.426</ele>
        <time>2020-08-24T09:02:38Z</time>
      </trkpt>
      <trkpt lat="42.477139" lon="-8.652277">
        <ele>42.847</ele>
        <time>2020-08-24T09:03:31Z</time>
      </trkpt>
      <trkpt lat="42.474985" lon="-8.651347">
        <ele>38.011</ele>
        <time>2020-08-24T09:04:32Z</time>
      </trkpt>
      <trkpt lat="42.473045" lon="-8.651409">
        <ele>28.608</ele>
        <time>2020-08-24T09:05:24Z</time>
      </trkpt>
      <trkpt lat="42.471222" lon="-8.650362">
        <ele>21.247</ele>
        <time>2020-08-24T09:06:17Z</time>
      </trkpt>
      <trkpt lat="42.470288" lon="-8.650199">
        <ele>18.377</ele>
        <time>2020-08-24T09:06:42Z</time>
      </trkpt>
      <trkpt lat="42.469548" lon="-8.648919">
        <ele>15.391</ele>
        <time>2020-08-24T09:07:14Z</time>
      </trkpt>
      <trkpt lat="42.469527" lon="-8.648461">
        <ele>16.948</ele>
        <time>2020-08-24T09:07:24Z</time>
      </trkpt>
      <trkpt lat="42.471383" lon="-8.648345">
        <ele>29.377</ele>
        <time>2020-08-24T09:08:14Z</time>
      </trkpt>
      <trkpt lat="42.472468" lon="-8.648797">
        <ele>32.341</ele>
        <time>2020-08-24T09:08:45Z</time>
      </trkpt>
      <trkpt lat="42.472557" lon="-8.648472">
        <ele>36.421</ele>
        <time>2020-08-24T09:08:52Z</time>
      </trkpt>
      <trkpt lat="42.472190" lon="-8.647643">
        <ele>45.879</ele>
        <time>2020-08-24T09:09:12Z</time>
      </trkpt>
      <trkpt lat="42.472220" lon="-8.646883">
        <ele>50.048</ele>
        <time>2020-08-24T09:09:27Z</time>
      </trkpt>
      <trkpt lat="42.472468" lon="-8.646347">
        <ele>49.461</ele>
        <time>2020-08-24T09:09:39Z</time>
      </trkpt>
      <trkpt lat="42.473498" lon="-8.646477">
        <ele>55.917</ele>
        <time>2020-08-24T09:10:08Z</time>
      </trkpt>
      <trkpt lat="42.474091" lon="-8.645333">
        <ele>59.908</ele>
        <time>2020-08-24T09:10:36Z</time>
      </trkpt>
      <trkpt lat="42.474768" lon="-8.645311">
        <ele>69.779</ele>
        <time>2020-08-24T09:10:55Z</time>
      </trkpt>
      <trkpt lat="42.475143" lon="-8.644586">
        <ele>75.159</ele>
        <time>2020-08-24T09:11:13Z</time>
      </trkpt>
      <trkpt lat="42.475719" lon="-8.644224">
        <ele>78.023</ele>
        <time>2020-08-24T09:11:31Z</time>
      </trkpt>
      <trkpt lat="42.476391" lon="-8.644395">
        <ele>83.520</ele>
        <time>2020-08-24T09:11:50Z</time>
      </trkpt>
      <trkpt lat="42.476393" lon="-8.644164">
        <ele>85.429</ele>
        <time>2020-08-24T09:11:55Z</time>
      </trkpt>
      <trkpt lat="42.475257" lon="-8.644164">
        <ele>78.973</ele>
        <time>2020-08-24T09:12:26Z</time>
      </trkpt>
      <trkpt lat="42.475085" lon="-8.643095">
        <ele>89.773</ele>
        <time>2020-08-24T09:12:48Z</time>
      </trkpt>
      <trkpt lat="42.475586" lon="-8.642013">
        <ele>100.041</ele>
        <time>2020-08-24T09:13:13Z</time>
      </trkpt>
      <trkpt lat="42.476321" lon="-8.642215">
        <ele>105.961</ele>
        <time>2020-08-24T09:13:34Z</time>
      </trkpt>
      <trkpt lat="42.476156" lon="-8.640913">
        <ele>111.821</ele>
        <time>2020-08-24T09:14:00Z</time>
      </trkpt>
      <trkpt lat="42.476608" lon="-8.639860">
        <ele>100.413</ele>
        <time>2020-08-24T09:14:25Z</time>
      </trkpt>
      <trkpt lat="42.477443" lon="-8.639318">
        <ele>106.208</ele>
        <time>2020-08-24T09:14:50Z</time>
      </trkpt>
      <trkpt lat="42.477575" lon="-8.638980">
        <ele>101.321</ele>
        <time>2020-08-24T09:14:57Z</time>
      </trkpt>
      <trkpt lat="42.478412" lon="-8.638487">
        <ele>93.641</ele>
        <time>2020-08-24T09:15:22Z</time>
      </trkpt>
      <trkpt lat="42.477718" lon="-8.637875">
        <ele>74.555</ele>
        <time>2020-08-24T09:15:45Z</time>
      </trkpt>
      <trkpt lat="42.476682" lon="-8.638277">
        <ele>72.352</ele>
        <time>2020-08-24T09:16:14Z</time>
      </trkpt>
      <trkpt lat="42.475958" lon="-8.638178">
        <ele>69.361</ele>
        <time>2020-08-24T09:16:34Z</time>
      </trkpt>
      <trkpt lat="42.476420" lon="-8.637468">
        <ele>62.825</ele>
        <time>2020-08-24T09:16:52Z</time>
      </trkpt>
      <trkpt lat="42.477551" lon="-8.637150">
        <ele>59.615</ele>
        <time>2020-08-24T09:17:24Z</time>
      </trkpt>
      <trkpt lat="42.478876" lon="-8.636082">
        <ele>58.483</ele>
        <time>2020-08-24T09:18:05Z</time>
      </trkpt>
      <trkpt lat="42.479621" lon="-8.635796">
        <ele>61.184</ele>
        <time>2020-08-24T09:18:26Z</time>
      </trkpt>
      <trkpt lat="42.481203" lon="-8.636095">
        <ele>65.607</ele>
        <time>2020-08-24T09:19:09Z</time>
      </trkpt>
      <trkpt lat="42.481945" lon="-8.635761">
        <ele>69.017</ele>
        <time>2020-08-24T09:19:30Z</time>
      </trkpt>
      <trkpt lat="42.482370" lon="-8.635211">
        <ele>72.708</ele>
        <time>2020-08-24T09:19:46Z</time>
      </trkpt>
      <trkpt lat="42.482512" lon="-8.635929">
        <ele>78.293</ele>
        <time>2020-08-24T09:20:01Z</time>
      </trkpt>
      <trkpt lat="42.482817" lon="-8.636167">
        <ele>86.573</ele>
        <time>2020-08-24T09:20:11Z</time>
      </trkpt>
      <trkpt lat="42.482746" lon="-8.635786">
        <ele>83.187</ele>
        <time>2020-08-24T09:20:18Z</time>
      </trkpt>
      <trkpt lat="42.482949" lon="-8.635462">
        <ele>85.574</ele>
        <time>2020-08-24T09:20:27Z</time>
      </trkpt>
      <trkpt lat="42.484332" lon="-8.635348">
        <ele>101.413</ele>
        <time>2020-08-24T09:21:06Z</time>
      </trkpt>
      <trkpt lat="42.483862" lon="-8.635848">
        <ele>106.187</ele>
        <time>2020-08-24T09:21:23Z</time>
      </trkpt>
      <trkpt lat="42.484011" lon="-8.637017">
        <ele>111.417</ele>
        <time>2020-08-24T09:21:46Z</time>
      </trkpt>
      <trkpt lat="42.483534" lon="-8.637377">
        <ele>115.575</ele>
        <time>2020-08-24T09:22:01Z</time>
      </trkpt>
      <trkpt lat="42.483476" lon="-8.637656">
        <ele>117.836</ele>
        <time>2020-08-24T09:22:07Z</time>
      </trkpt>
      <trkpt lat="42.484108" lon="-8.637915">
        <ele>122.617</ele>
        <time>2020-08-24T09:22:26Z</time>
      </trkpt>
      <trkpt lat="42.484416" lon="-8.637783">
        <ele>120.818</ele>
        <time>2020-08-24T09:22:34Z</time>
      </trkpt>
      <trkpt lat="42.485310" lon="-8.638097">
        <ele>123.808</ele>
        <time>2020-08-24T09:22:59Z</time>
      </trkpt>
      <trkpt lat="42.485891" lon="-8.636964">
        <ele>122.568</ele>
        <time>2020-08-24T09:23:28Z</time>
      </trkpt>
      <trkpt lat="42.486806" lon="-8.635670">
        <ele>127.538</ele>
        <time>2020-08-24T09:24:05Z</time>
      </trkpt>
      <trkpt lat="42.487242" lon="-8.635619">
        <ele>133.952</ele>
        <time>2020-08-24T09:24:17Z</time>
      </trkpt>
      <trkpt lat="42.488494" lon="-8.634630">
        <ele>144.619</ele>
        <time>2020-08-24T09:24:56Z</time>
      </trkpt>
      <trkpt lat="42.491639" lon="-8.634150">
        <ele>170.058</ele>
        <time>2020-08-24T09:26:22Z</time>
      </trkpt>
      <trkpt lat="42.492128" lon="-8.633228">
        <ele>182.632</ele>
        <time>2020-08-24T09:26:45Z</time>
      </trkpt>
      <trkpt lat="42.492574" lon="-8.633094">
        <ele>184.032</ele>
        <time>2020-08-24T09:26:57Z</time>
      </trkpt>
      <trkpt lat="42.492695" lon="-8.632719">
        <ele>184.180</ele>
        <time>2020-08-24T09:27:05Z</time>
      </trkpt>
      <trkpt lat="42.493671" lon="-8.631931">
        <ele>182.675</ele>
        <time>2020-08-24T09:27:36Z</time>
      </trkpt>
      <trkpt lat="42.493757" lon="-8.633294">
        <ele>191.128</ele>
        <time>2020-08-24T09:28:05Z</time>
      </trkpt>
      <trkpt lat="42.494260" lon="-8.633440">
        <ele>195.520</ele>
        <time>2020-08-24T09:28:19Z</time>
      </trkpt>
      <trkpt lat="42.495221" lon="-8.633259">
        <ele>198.808</ele>
        <time>2020-08-24T09:28:45Z</time>
      </trkpt>
      <trkpt lat="42.497188" lon="-8.631894">
        <ele>219.222</ele>
        <time>2020-08-24T09:29:44Z</time>
      </trkpt>
      <trkpt lat="42.498134" lon="-8.631878">
        <ele>225.242</ele>
        <time>2020-08-24T09:30:09Z</time>
      </trkpt>
      <trkpt lat="42.501014" lon="-8.633578">
        <ele>227.056</ele>
        <time>2020-08-24T09:31:34Z</time>
      </trkpt>
      <trkpt lat="42.501735" lon="-8.635023">
        <ele>238.263</ele>
        <time>2020-08-24T09:32:08Z</time>
      </trkpt>
      <trkpt lat="42.502813" lon="-8.635727">
        <ele>249.622</ele>
        <time>2020-08-24T09:32:40Z</time>
      </trkpt>
      <trkpt lat="42.503515" lon="-8.635820">
        <ele>258.146</ele>
        <time>2020-08-24T09:32:59Z</time>
      </trkpt>
      <trkpt lat="42.504264" lon="-8.636986">
        <ele>267.966</ele>
        <time>2020-08-24T09:33:30Z</time>
      </trkpt>
      <trkpt lat="42.505214" lon="-8.637871">
        <ele>277.274</ele>
        <time>2020-08-24T09:34:01Z</time>
      </trkpt>
      <trkpt lat="42.506761" lon="-8.637430">
        <ele>286.468</ele>
        <time>2020-08-24T09:34:44Z</time>
      </trkpt>
      <trkpt lat="42.507736" lon="-8.637577">
        <ele>290.742</ele>
        <time>2020-08-24T09:35:10Z</time>
      </trkpt>
      <trkpt lat="42.508304" lon="-8.637407">
        <ele>289.426</ele>
        <time>2020-08-24T09:35:26Z</time>
      </trkpt>
      <trkpt lat="42.510914" lon="-8.633838">
        <ele>288.708</ele>
        <time>2020-08-24T09:37:05Z</time>
      </trkpt>
      <trkpt lat="42.510828" lon="-8.633166">
        <ele>288.911</ele>
        <time>2020-08-24T09:37:18Z</time>
      </trkpt>
      <trkpt lat="42.511298" lon="-8.632392">
        <ele>272.511</ele>
        <time>2020-08-24T09:37:39Z</time>
      </trkpt>
      <trkpt lat="42.511607" lon="-8.630773">
        <ele>278.865</ele>
        <time>2020-08-24T09:38:12Z</time>
      </trkpt>
      <trkpt lat="42.512947" lon="-8.629114">
        <ele>286.612</ele>
        <time>2020-08-24T09:39:01Z</time>
      </trkpt>
      <trkpt lat="42.514690" lon="-8.627940">
        <ele>283.311</ele>
        <time>2020-08-24T09:39:53Z</time>
      </trkpt>
      <trkpt lat="42.514864" lon="-8.627198">
        <ele>283.815</ele>
        <time>2020-08-24T09:40:08Z</time>
      </trkpt>
      <trkpt lat="42.515684" lon="-8.626163">
        <ele>272.525</ele>
        <time>2020-08-24T09:40:38Z</time>
      </trkpt>
      <trkpt lat="42.515525" lon="-8.624892">
        <ele>284.133</ele>
        <time>2020-08-24T09:41:05Z</time>
      </trkpt>
      <trkpt lat="42.514629" lon="-8.623637">
        <ele>299.167</ele>
        <time>2020-08-24T09:41:40Z</time>
      </trkpt>
      <trkpt lat="42.514803" lon="-8.621491">
        <ele>289.481</ele>
        <time>2020-08-24T09:42:23Z</time>
      </trkpt>
      <trkpt lat="42.515021" lon="-8.620825">
        <ele>289.519</ele>
        <time>2020-08-24T09:42:37Z</time>
      </trkpt>
      <trkpt lat="42.515376" lon="-8.620500">
        <ele>289.608</ele>
        <time>2020-08-24T09:42:49Z</time>
      </trkpt>
      <trkpt lat="42.516923" lon="-8.620256">
        <ele>289.861</ele>
        <time>2020-08-24T09:43:31Z</time>
      </trkpt>
      <trkpt lat="42.518363" lon="-8.619660">
        <ele>291.411</ele>
        <time>2020-08-24T09:44:11Z</time>
      </trkpt>
      <trkpt lat="42.519166" lon="-8.618701">
        <ele>298.335</ele>
        <time>2020-08-24T09:44:39Z</time>
      </trkpt>
      <trkpt lat="42.519940" lon="-8.618187">
        <ele>305.352</ele>
        <time>2020-08-24T09:45:03Z</time>
      </trkpt>
      <trkpt lat="42.520381" lon="-8.617481">
        <ele>313.381</ele>
        <time>2020-08-24T09:45:21Z</time>
      </trkpt>
      <trkpt lat="42.520591" lon="-8.616485">
        <ele>322.695</ele>
        <time>2020-08-24T09:45:41Z</time>
      </trkpt>
      <trkpt lat="42.521483" lon="-8.614335">
        <ele>334.915</ele>
        <time>2020-08-24T09:46:30Z</time>
      </trkpt>
      <trkpt lat="42.523270" lon="-8.613219">
        <ele>343.033</ele>
        <time>2020-08-24T09:47:24Z</time>
      </trkpt>
      <trkpt lat="42.523450" lon="-8.611940">
        <ele>351.357</ele>
        <time>2020-08-24T09:47:50Z</time>
      </trkpt>
      <trkpt lat="42.524489" lon="-8.613939">
        <ele>335.000</ele>
        <time>2020-08-24T09:48:39Z</time>
      </trkpt>
      <trkpt lat="42.525253" lon="-8.613897">
        <ele>351.720</ele>
        <time>2020-08-24T09:49:01Z</time>
      </trkpt>
      <trkpt lat="42.525927" lon="-8.614845">
        <ele>363.408</ele>
        <time>2020-08-24T09:49:31Z</time>
      </trkpt>
      <trkpt lat="42.526411" lon="-8.614674">
        <ele>370.780</ele>
        <time>2020-08-24T09:49:44Z</time>
      </trkpt>
      <trkpt lat="42.527279" lon="-8.613424">
        <ele>381.890</ele>
        <time>2020-08-24T09:50:18Z</time>
      </trkpt>
      <trkpt lat="42.528419" lon="-8.612326">
        <ele>386.844</ele>
        <time>2020-08-24T09:50:56Z</time>
      </trkpt>
      <trkpt lat="42.528846" lon="-8.611190">
        <ele>400.661</ele>
        <time>2020-08-24T09:51:21Z</time>
      </trkpt>
      <trkpt lat="42.528948" lon="-8.610064">
        <ele>418.510</ele>
        <time>2020-08-24T09:51:43Z</time>
      </trkpt>
      <trkpt lat="42.529597" lon="-8.608326">
        <ele>443.124</ele>
        <time>2020-08-24T09:52:22Z</time>
      </trkpt>
      <trkpt lat="42.530487" lon="-8.607370">
        <ele>450.264</ele>
        <time>2020-08-24T09:52:54Z</time>
      </trkpt>
      <trkpt lat="42.528314" lon="-8.607864">
        <ele>481.392</ele>
        <time>2020-08-24T09:53:53Z</time>
      </trkpt>
      <trkpt lat="42.527142" lon="-8.607465">
        <ele>499.099</ele>
        <time>2020-08-24T09:54:26Z</time>
      </trkpt>
      <trkpt lat="42.526737" lon="-8.607004">
        <ele>503.407</ele>
        <time>2020-08-24T09:54:40Z</time>
      </trkpt>
      <trkpt lat="42.526475" lon="-8.606133">
        <ele>510.127</ele>
        <time>2020-08-24T09:54:58Z</time>
      </trkpt>
      <trkpt lat="42.526043" lon="-8.605660">
        <ele>513.908</ele>
        <time>2020-08-24T09:55:13Z</time>
      </trkpt>
      <trkpt lat="42.525085" lon="-8.603290">
        <ele>531.564</ele>
        <time>2020-08-24T09:56:07Z</time>
      </trkpt>
      <trkpt lat="42.524758" lon="-8.602920">
        <ele>536.524</ele>
        <time>2020-08-24T09:56:18Z</time>
      </trkpt>
      <trkpt lat="42.522552" lon="-8.604078">
        <ele>552.958</ele>
        <time>2020-08-24T09:57:22Z</time>
      </trkpt>
      <trkpt lat="42.521790" lon="-8.604148">
        <ele>557.125</ele>
        <time>2020-08-24T09:57:42Z</time>
      </trkpt>
      <trkpt lat="42.520690" lon="-8.603739">
        <ele>550.084</ele>
        <time>2020-08-24T09:58:13Z</time>
      </trkpt>
      <trkpt lat="42.519702" lon="-8.602410">
        <ele>528.538</ele>
        <time>2020-08-24T09:58:50Z</time>
      </trkpt>
      <trkpt lat="42.518909" lon="-8.598411">
        <ele>506.278</ele>
        <time>2020-08-24T10:00:12Z</time>
      </trkpt>
      <trkpt lat="42.517930" lon="-8.596555">
        <ele>486.556</ele>
        <time>2020-08-24T10:00:57Z</time>
      </trkpt>
      <trkpt lat="42.517647" lon="-8.598615">
        <ele>483.632</ele>
        <time>2020-08-24T10:01:39Z</time>
      </trkpt>
      <trkpt lat="42.517354" lon="-8.599166">
        <ele>481.392</ele>
        <time>2020-08-24T10:01:52Z</time>
      </trkpt>
      <trkpt lat="42.515688" lon="-8.599568">
        <ele>475.711</ele>
        <time>2020-08-24T10:02:38Z</time>
      </trkpt>
      <trkpt lat="42.515243" lon="-8.599456">
        <ele>474.808</ele>
        <time>2020-08-24T10:02:50Z</time>
      </trkpt>
      <trkpt lat="42.515125" lon="-8.599751">
        <ele>474.818</ele>
        <time>2020-08-24T10:02:58Z</time>
      </trkpt>
      <trkpt lat="42.514111" lon="-8.599736">
        <ele>472.448</ele>
        <time>2020-08-24T10:03:25Z</time>
      </trkpt>
      <trkpt lat="42.513296" lon="-8.600563">
        <ele>469.232</ele>
        <time>2020-08-24T10:03:53Z</time>
      </trkpt>
      <trkpt lat="42.512933" lon="-8.601810">
        <ele>468.239</ele>
        <time>2020-08-24T10:04:19Z</time>
      </trkpt>
      <trkpt lat="42.511794" lon="-8.602003">
        <ele>465.218</ele>
        <time>2020-08-24T10:04:51Z</time>
      </trkpt>
      <trkpt lat="42.510749" lon="-8.601401">
        <ele>465.092</ele>
        <time>2020-08-24T10:05:21Z</time>
      </trkpt>
      <trkpt lat="42.509335" lon="-8.601808">
        <ele>454.832</ele>
        <time>2020-08-24T10:06:00Z</time>
      </trkpt>
      <trkpt lat="42.508164" lon="-8.601409">
        <ele>446.540</ele>
        <time>2020-08-24T10:06:33Z</time>
      </trkpt>
      <trkpt lat="42.505601" lon="-8.603490">
        <ele>400.324</ele>
        <time>2020-08-24T10:07:53Z</time>
      </trkpt>
      <trkpt lat="42.504128" lon="-8.603956">
        <ele>383.504</ele>
        <time>2020-08-24T10:08:34Z</time>
      </trkpt>
      <trkpt lat="42.500482" lon="-8.603863">
        <ele>351.014</ele>
        <time>2020-08-24T10:10:12Z</time>
      </trkpt>
      <trkpt lat="42.499825" lon="-8.604668">
        <ele>345.208</ele>
        <time>2020-08-24T10:10:36Z</time>
      </trkpt>
      <trkpt lat="42.499251" lon="-8.604847">
        <ele>341.857</ele>
        <time>2020-08-24T10:10:51Z</time>
      </trkpt>
      <trkpt lat="42.498933" lon="-8.606171">
        <ele>330.047</ele>
        <time>2020-08-24T10:11:20Z</time>
      </trkpt>
      <trkpt lat="42.498298" lon="-8.607022">
        <ele>326.831</ele>
        <time>2020-08-24T10:11:44Z</time>
      </trkpt>
      <trkpt lat="42.496698" lon="-8.608179">
        <ele>307.598</ele>
        <time>2020-08-24T10:12:33Z</time>
      </trkpt>
      <trkpt lat="42.497422" lon="-8.609331">
        <ele>294.167</ele>
        <time>2020-08-24T10:13:04Z</time>
      </trkpt>
      <trkpt lat="42.499499" lon="-8.609941">
        <ele>277.621</ele>
        <time>2020-08-24T10:14:02Z</time>
      </trkpt>
      <trkpt lat="42.499476" lon="-8.610411">
        <ele>273.341</ele>
        <time>2020-08-24T10:14:11Z</time>
      </trkpt>
      <trkpt lat="42.498311" lon="-8.612548">
        <ele>245.579</ele>
        <time>2020-08-24T10:15:05Z</time>
      </trkpt>
      <trkpt lat="42.499269" lon="-8.611803">
        <ele>247.095</ele>
        <time>2020-08-24T10:15:35Z</time>
      </trkpt>
      <trkpt lat="42.500513" lon="-8.611627">
        <ele>253.949</ele>
        <time>2020-08-24T10:16:09Z</time>
      </trkpt>
      <trkpt lat="42.499362" lon="-8.612319">
        <ele>233.623</ele>
        <time>2020-08-24T10:16:43Z</time>
      </trkpt>
      <trkpt lat="42.498891" lon="-8.613187">
        <ele>220.708</ele>
        <time>2020-08-24T10:17:05Z</time>
      </trkpt>
      <trkpt lat="42.498413" lon="-8.613540">
        <ele>217.364</ele>
        <time>2020-08-24T10:17:20Z</time>
      </trkpt>
      <trkpt lat="42.500327" lon="-8.613178">
        <ele>214.664</ele>
        <time>2020-08-24T10:18:12Z</time>
      </trkpt>
      <trkpt lat="42.500480" lon="-8.613497">
        <ele>214.218</ele>
        <time>2020-08-24T10:18:20Z</time>
      </trkpt>
      <trkpt lat="42.500255" lon="-8.614329">
        <ele>213.935</ele>
        <time>2020-08-24T10:18:38Z</time>
      </trkpt>
      <trkpt lat="42.500361" lon="-8.614913">
        <ele>214.444</ele>
        <time>2020-08-24T10:18:51Z</time>
      </trkpt>
      <trkpt lat="42.500817" lon="-8.614667">
        <ele>215.898</ele>
        <time>2020-08-24T10:19:05Z</time>
      </trkpt>
      <trkpt lat="42.501738" lon="-8.615424">
        <ele>214.618</ele>
        <time>2020-08-24T10:19:34Z</time>
      </trkpt>
      <trkpt lat="42.504050" lon="-8.616095">
        <ele>215.446</ele>
        <time>2020-08-24T10:20:38Z</time>
      </trkpt>
      <trkpt lat="42.504668" lon="-8.615971">
        <ele>215.398</ele>
        <time>2020-08-24T10:20:56Z</time>
      </trkpt>
      <trkpt lat="42.506090" lon="-8.616581">
        <ele>217.915</ele>
        <time>2020-08-24T10:21:35Z</time>
      </trkpt>
      <trkpt lat="42.506542" lon="-8.617379">
        <ele>219.426</ele>
        <time>2020-08-24T10:21:56Z</time>
      </trkpt>
      <trkpt lat="42.507276" lon="-8.617841">
        <ele>224.208</ele>
        <time>2020-08-24T10:22:18Z</time>
      </trkpt>
      <trkpt lat="42.505801" lon="-8.618064">
        <ele>219.394</ele>
        <time>2020-08-24T10:22:58Z</time>
      </trkpt>
      <trkpt lat="42.503090" lon="-8.617856">
        <ele>218.444</ele>
        <time>2020-08-24T10:24:11Z</time>
      </trkpt>
      <trkpt lat="42.502457" lon="-8.617508">
        <ele>215.818</ele>
        <time>2020-08-24T10:24:29Z</time>
      </trkpt>
      <trkpt lat="42.501079" lon="-8.617638">
        <ele>217.115</ele>
        <time>2020-08-24T10:25:06Z</time>
      </trkpt>
      <trkpt lat="42.499415" lon="-8.619150">
        <ele>216.524</ele>
        <time>2020-08-24T10:26:00Z</time>
      </trkpt>
      <trkpt lat="42.498059" lon="-8.618517">
        <ele>214.718</ele>
        <time>2020-08-24T10:26:38Z</time>
      </trkpt>
      <trkpt lat="42.497586" lon="-8.619003">
        <ele>213.868</ele>
        <time>2020-08-24T10:26:54Z</time>
      </trkpt>
      <trkpt lat="42.497508" lon="-8.619833">
        <ele>204.116</ele>
        <time>2020-08-24T10:27:11Z</time>
      </trkpt>
      <trkpt lat="42.497715" lon="-8.620765">
        <ele>196.753</ele>
        <time>2020-08-24T10:27:30Z</time>
      </trkpt>
      <trkpt lat="42.497147" lon="-8.621520">
        <ele>196.004</ele>
        <time>2020-08-24T10:27:52Z</time>
      </trkpt>
      <trkpt lat="42.497061" lon="-8.622569">
        <ele>178.414</ele>
        <time>2020-08-24T10:28:14Z</time>
      </trkpt>
      <trkpt lat="42.495715" lon="-8.623979">
        <ele>159.108</ele>
        <time>2020-08-24T10:29:00Z</time>
      </trkpt>
      <trkpt lat="42.495239" lon="-8.624786">
        <ele>157.860</ele>
        <time>2020-08-24T10:29:20Z</time>
      </trkpt>
      <trkpt lat="42.493979" lon="-8.625952">
        <ele>158.360</ele>
        <time>2020-08-24T10:30:01Z</time>
      </trkpt>
      <trkpt lat="42.492442" lon="-8.625795">
        <ele>150.924</ele>
        <time>2020-08-24T10:30:42Z</time>
      </trkpt>
      <trkpt lat="42.491531" lon="-8.626033">
        <ele>148.231</ele>
        <time>2020-08-24T10:31:07Z</time>
      </trkpt>
      <trkpt lat="42.489754" lon="-8.624447">
        <ele>181.740</ele>
        <time>2020-08-24T10:32:05Z</time>
      </trkpt>
      <trkpt lat="42.487840" lon="-8.623663">
        <ele>185.284</ele>
        <time>2020-08-24T10:32:59Z</time>
      </trkpt>
      <trkpt lat="42.487633" lon="-8.623758">
        <ele>183.584</ele>
        <time>2020-08-24T10:33:05Z</time>
      </trkpt>
      <trkpt lat="42.487593" lon="-8.624322">
        <ele>183.752</ele>
        <time>2020-08-24T10:33:16Z</time>
      </trkpt>
      <trkpt lat="42.486081" lon="-8.625176">
        <ele>202.787</ele>
        <time>2020-08-24T10:34:01Z</time>
      </trkpt>
      <trkpt lat="42.485134" lon="-8.625418">
        <ele>206.842</ele>
        <time>2020-08-24T10:34:27Z</time>
      </trkpt>
      <trkpt lat="42.484886" lon="-8.626155">
        <ele>213.126</ele>
        <time>2020-08-24T10:34:45Z</time>
      </trkpt>
      <trkpt lat="42.483810" lon="-8.626762">
        <ele>205.808</ele>
        <time>2020-08-24T10:35:16Z</time>
      </trkpt>
      <trkpt lat="42.481179" lon="-8.626248">
        <ele>200.493</ele>
        <time>2020-08-24T10:36:27Z</time>
      </trkpt>
      <trkpt lat="42.480096" lon="-8.626490">
        <ele>200.393</ele>
        <time>2020-08-24T10:36:57Z</time>
      </trkpt>
      <trkpt lat="42.479410" lon="-8.625834">
        <ele>203.287</ele>
        <time>2020-08-24T10:37:21Z</time>
      </trkpt>
      <trkpt lat="42.478245" lon="-8.626879">
        <ele>203.314</ele>
        <time>2020-08-24T10:37:59Z</time>
      </trkpt>
      <trkpt lat="42.476874" lon="-8.626842">
        <ele>200.433</ele>
        <time>2020-08-24T10:38:36Z</time>
      </trkpt>
      <trkpt lat="42.476178" lon="-8.625995">
        <ele>202.647</ele>
        <time>2020-08-24T10:39:02Z</time>
      </trkpt>
      <trkpt lat="42.476093" lon="-8.625341">
        <ele>201.987</ele>
        <time>2020-08-24T10:39:15Z</time>
      </trkpt>
      <trkpt lat="42.475762" lon="-8.625206">
        <ele>201.165</ele>
        <time>2020-08-24T10:39:24Z</time>
      </trkpt>
      <trkpt lat="42.472103" lon="-8.626496">
        <ele>198.281</ele>
        <time>2020-08-24T10:41:06Z</time>
      </trkpt>
      <trkpt lat="42.471354" lon="-8.626409">
        <ele>197.261</ele>
        <time>2020-08-24T10:41:26Z</time>
      </trkpt>
      <trkpt lat="42.469741" lon="-8.625624">
        <ele>197.317</ele>
        <time>2020-08-24T10:42:12Z</time>
      </trkpt>
      <trkpt lat="42.468262" lon="-8.625225">
        <ele>191.508</ele>
        <time>2020-08-24T10:42:52Z</time>
      </trkpt>
      <trkpt lat="42.467704" lon="-8.623908">
        <ele>186.543</ele>
        <time>2020-08-24T10:43:22Z</time>
      </trkpt>
      <trkpt lat="42.467318" lon="-8.623959">
        <ele>186.943</ele>
        <time>2020-08-24T10:43:33Z</time>
      </trkpt>
      <trkpt lat="42.467183" lon="-8.623318">
        <ele>184.747</ele>
        <time>2020-08-24T10:43:46Z</time>
      </trkpt>
      <trkpt lat="42.467618" lon="-8.621025">
        <ele>181.954</ele>
        <time>2020-08-24T10:44:33Z</time>
      </trkpt>
      <trkpt lat="42.466828" lon="-8.618036">
        <ele>177.853</ele>
        <time>2020-08-24T10:45:36Z</time>
      </trkpt>
      <trkpt lat="42.465945" lon="-8.616437">
        <ele>166.727</ele>
        <time>2020-08-24T10:46:16Z</time>
      </trkpt>
      <trkpt lat="42.465768" lon="-8.616875">
        <ele>163.387</ele>
        <time>2020-08-24T10:46:26Z</time>
      </trkpt>
      <trkpt lat="42.464546" lon="-8.618119">
        <ele>158.945</ele>
        <time>2020-08-24T10:47:07Z</time>
      </trkpt>
      <trkpt lat="42.463789" lon="-8.619524">
        <ele>165.869</ele>
        <time>2020-08-24T10:47:42Z</time>
      </trkpt>
      <trkpt lat="42.462956" lon="-8.618729">
        <ele>167.304</ele>
        <time>2020-08-24T10:48:10Z</time>
      </trkpt>
      <trkpt lat="42.462433" lon="-8.619410">
        <ele>178.024</ele>
        <time>2020-08-24T10:48:29Z</time>
      </trkpt>
      <trkpt lat="42.461939" lon="-8.619662">
        <ele>182.008</ele>
        <time>2020-08-24T10:48:43Z</time>
      </trkpt>
      <trkpt lat="42.461121" lon="-8.619534">
        <ele>181.441</ele>
        <time>2020-08-24T10:49:06Z</time>
      </trkpt>
      <trkpt lat="42.460496" lon="-8.618942">
        <ele>177.141</ele>
        <time>2020-08-24T10:49:27Z</time>
      </trkpt>
      <trkpt lat="42.459900" lon="-8.618773">
        <ele>171.315</ele>
        <time>2020-08-24T10:49:44Z</time>
      </trkpt>
      <trkpt lat="42.459377" lon="-8.619820">
        <ele>145.212</ele>
        <time>2020-08-24T10:50:10Z</time>
      </trkpt>
      <trkpt lat="42.459074" lon="-8.619730">
        <ele>135.031</ele>
        <time>2020-08-24T10:50:19Z</time>
      </trkpt>
      <trkpt lat="42.458562" lon="-8.620389">
        <ele>123.875</ele>
        <time>2020-08-24T10:50:39Z</time>
      </trkpt>
      <trkpt lat="42.458313" lon="-8.621289">
        <ele>119.075</ele>
        <time>2020-08-24T10:50:58Z</time>
      </trkpt>
      <trkpt lat="42.458565" lon="-8.623018">
        <ele>110.323</ele>
        <time>2020-08-24T10:51:34Z</time>
      </trkpt>
      <trkpt lat="42.458261" lon="-8.623485">
        <ele>103.423</ele>
        <time>2020-08-24T10:51:47Z</time>
      </trkpt>
      <trkpt lat="42.458424" lon="-8.624181">
        <ele>98.683</ele>
        <time>2020-08-24T10:52:02Z</time>
      </trkpt>
      <trkpt lat="42.459571" lon="-8.624456">
        <ele>100.011</ele>
        <time>2020-08-24T10:52:34Z</time>
      </trkpt>
      <trkpt lat="42.459457" lon="-8.624841">
        <ele>98.308</ele>
        <time>2020-08-24T10:52:42Z</time>
      </trkpt>
      <trkpt lat="42.457063" lon="-8.626312">
        <ele>91.457</ele>
        <time>2020-08-24T10:53:53Z</time>
      </trkpt>
      <trkpt lat="42.456843" lon="-8.626860">
        <ele>95.157</ele>
        <time>2020-08-24T10:54:05Z</time>
      </trkpt>
      <trkpt lat="42.455934" lon="-8.627910">
        <ele>88.481</ele>
        <time>2020-08-24T10:54:37Z</time>
      </trkpt>
      <trkpt lat="42.455123" lon="-8.629332">
        <ele>90.218</ele>
        <time>2020-08-24T10:55:13Z</time>
      </trkpt>
      <trkpt lat="42.454153" lon="-8.629978">
        <ele>85.177</ele>
        <time>2020-08-24T10:55:43Z</time>
      </trkpt>
      <trkpt lat="42.453266" lon="-8.631024">
        <ele>81.471</ele>
        <time>2020-08-24T10:56:14Z</time>
      </trkpt>
      <trkpt lat="42.451272" lon="-8.632471">
        <ele>54.631</ele>
        <time>2020-08-24T10:57:15Z</time>
      </trkpt>
      <trkpt lat="42.450513" lon="-8.631367">
        <ele>48.549</ele>
        <time>2020-08-24T10:57:46Z</time>
      </trkpt>
      <trkpt lat="42.450055" lon="-8.631915">
        <ele>45.084</ele>
        <time>2020-08-24T10:58:04Z</time>
      </trkpt>
      <trkpt lat="42.449941" lon="-8.630386">
        <ele>41.307</ele>
        <time>2020-08-24T10:58:34Z</time>
      </trkpt>
      <trkpt lat="42.449387" lon="-8.629062">
        <ele>45.117</ele>
        <time>2020-08-24T10:59:04Z</time>
      </trkpt>
      <trkpt lat="42.448114" lon="-8.628276">
        <ele>35.108</ele>
        <time>2020-08-24T10:59:42Z</time>
      </trkpt>
      <trkpt lat="42.448553" lon="-8.629140">
        <ele>35.323</ele>
        <time>2020-08-24T11:00:03Z</time>
      </trkpt>
      <trkpt lat="42.448406" lon="-8.630343">
        <ele>27.133</ele>
        <time>2020-08-24T11:00:28Z</time>
      </trkpt>
      <trkpt lat="42.448209" lon="-8.630646">
        <ele>22.327</ele>
        <time>2020-08-24T11:00:36Z</time>
      </trkpt>
      <trkpt lat="42.447632" lon="-8.630581">
        <ele>18.594</ele>
        <time>2020-08-24T11:00:52Z</time>
      </trkpt>
      <trkpt lat="42.447325" lon="-8.630874">
        <ele>9.993</ele>
        <time>2020-08-24T11:01:02Z</time>
      </trkpt>
      <trkpt lat="42.447283" lon="-8.632518">
        <ele>2.567</ele>
        <time>2020-08-24T11:01:35Z</time>
      </trkpt>
      <trkpt lat="42.446948" lon="-8.633267">
        <ele>4.167</ele>
        <time>2020-08-24T11:01:52Z</time>
      </trkpt>
      <trkpt lat="42.444477" lon="-8.634630">
        <ele>4.835</ele>
        <time>2020-08-24T11:03:04Z</time>
      </trkpt>
      <trkpt lat="42.443860" lon="-8.635420">
        <ele>5.797</ele>
        <time>2020-08-24T11:03:27Z</time>
      </trkpt>
      <trkpt lat="42.442889" lon="-8.636019">
        <ele>8.023</ele>
        <time>2020-08-24T11:03:55Z</time>
      </trkpt>
      <trkpt lat="42.441100" lon="-8.637991">
        <ele>11.125</ele>
        <time>2020-08-24T11:04:57Z</time>
      </trkpt>
      <trkpt lat="42.439645" lon="-8.638954">
        <ele>9.808</ele>
        <time>2020-08-24T11:05:41Z</time>
      </trkpt>
      <trkpt lat="42.439284" lon="-8.637952">
        <ele>4.264</ele>
        <time>2020-08-24T11:06:03Z</time>
      </trkpt>
      <trkpt lat="42.438845" lon="-8.638709">
        <ele>4.474</ele>
        <time>2020-08-24T11:06:22Z</time>
      </trkpt>
      <trkpt lat="42.437585" lon="-8.639974">
        <ele>4.178</ele>
        <time>2020-08-24T11:07:04Z</time>
      </trkpt>
      <trkpt lat="42.437548" lon="-8.640623">
        <ele>5.075</ele>
        <time>2020-08-24T11:07:19Z</time>
      </trkpt>
      <trkpt lat="42.436247" lon="-8.641228">
        <ele>3.344</ele>
        <time>2020-08-24T11:07:55Z</time>
      </trkpt>
      <trkpt lat="42.436500" lon="-8.643293">
        <ele>3.128</ele>
        <time>2020-08-24T11:08:38Z</time>
      </trkpt>
      <trkpt lat="42.437158" lon="-8.646111">
        <ele>2.458</ele>
        <time>2020-08-24T11:09:36Z</time>
      </trkpt>
      <trkpt lat="42.437307" lon="-8.648664">
        <ele>4.816</ele>
        <time>2020-08-24T11:10:27Z</time>
      </trkpt>
      <trkpt lat="42.435824" lon="-8.648173">
        <ele>2.338</ele>
        <time>2020-08-24T11:11:09Z</time>
      </trkpt>
      <trkpt lat="42.435758" lon="-8.646882">
        <ele>2.870</ele>
        <time>2020-08-24T11:11:35Z</time>
      </trkpt>
      <trkpt lat="42.434973" lon="-8.646827">
        <ele>7.617</ele>
        <time>2020-08-24T11:11:56Z</time>
      </trkpt>
      <trkpt lat="42.434274" lon="-8.647926">
        <ele>9.408</ele>
        <time>2020-08-24T11:12:25Z</time>
      </trkpt>
      <trkpt lat="42.433232" lon="-8.648047">
        <ele>15.288</ele>
        <time>2020-08-24T11:12:54Z</time>
      </trkpt>
      <trkpt lat="42.432371" lon="-8.647608">
        <ele>18.018</ele>
        <time>2020-08-24T11:13:19Z</time>
      </trkpt>
      <trkpt lat="42.431814" lon="-8.646825">
        <ele>17.822</ele>
        <time>2020-08-24T11:13:41Z</time>
      </trkpt>
      <trkpt lat="42.431249" lon="-8.647313">
        <ele>18.149</ele>
        <time>2020-08-24T11:14:00Z</time>
      </trkpt>
      <trkpt lat="42.431374" lon="-8.647247">
        <ele>18.388</ele>
        <time>2020-08-14T07:00:00Z</time>
      </trkpt>
      <trkpt lat="42.431696" lon="-8.647041">
        <ele>18.024</ele>
        <time>2020-08-14T07:00:10Z</time>
      </trkpt>
      <trkpt lat="42.432324" lon="-8.647716">
        <ele>18.226</ele>
        <time>2020-08-14T07:00:32Z</time>
      </trkpt>
      <trkpt lat="42.432020" lon="-8.648343">
        <ele>19.908</ele>
        <time>2020-08-14T07:00:46Z</time>
      </trkpt>
      <trkpt lat="42.432547" lon="-8.649942">
        <ele>16.753</ele>
        <time>2020-08-14T07:01:21Z</time>
      </trkpt>
      <trkpt lat="42.432678" lon="-8.649847">
        <ele>16.343</ele>
        <time>2020-08-14T07:01:25Z</time>
      </trkpt>
      <trkpt lat="42.432772" lon="-8.649941">
        <ele>15.517</ele>
        <time>2020-08-14T07:01:28Z</time>
      </trkpt>
      <trkpt lat="42.433046" lon="-8.651841">
        <ele>4.594</ele>
        <time>2020-08-14T07:02:07Z</time>
      </trkpt>
      <trkpt lat="42.435617" lon="-8.648410">
        <ele>2.553</ele>
        <time>2020-08-14T07:03:44Z</time>
      </trkpt>
      <trkpt lat="42.435822" lon="-8.647915">
        <ele>2.583</ele>
        <time>2020-08-14T07:03:56Z</time>
      </trkpt>
      <trkpt lat="42.436959" lon="-8.648344">
        <ele>1.397</ele>
        <time>2020-08-14T07:04:29Z</time>
      </trkpt>
      <trkpt lat="42.437194" lon="-8.648239">
        <ele>3.065</ele>
        <time>2020-08-14T07:04:36Z</time>
      </trkpt>
      <trkpt lat="42.437142" lon="-8.646402">
        <ele>2.378</ele>
        <time>2020-08-14T07:05:12Z</time>
      </trkpt>
      <trkpt lat="42.436481" lon="-8.643418">
        <ele>3.333</ele>
        <time>2020-08-14T07:06:13Z</time>
      </trkpt>
      <trkpt lat="42.436353" lon="-8.642237">
        <ele>3.426</ele>
        <time>2020-08-14T07:06:37Z</time>
      </trkpt>
      <trkpt lat="42.435958" lon="-8.641203">
        <ele>3.108</ele>
        <time>2020-08-14T07:07:00Z</time>
      </trkpt>
      <trkpt lat="42.437385" lon="-8.640331">
        <ele>4.592</ele>
        <time>2020-08-14T07:07:44Z</time>
      </trkpt>
      <trkpt lat="42.435582" lon="-8.636987">
        <ele>3.672</ele>
        <time>2020-08-14T07:09:06Z</time>
      </trkpt>
      <trkpt lat="42.435198" lon="-8.636855">
        <ele>2.466</ele>
        <time>2020-08-14T07:09:17Z</time>
      </trkpt>
      <trkpt lat="42.435156" lon="-8.636567">
        <ele>2.523</ele>
        <time>2020-08-14T07:09:22Z</time>
      </trkpt>
      <trkpt lat="42.435941" lon="-8.635259">
        <ele>2.222</ele>
        <time>2020-08-14T07:09:56Z</time>
      </trkpt>
      <trkpt lat="42.437465" lon="-8.633508">
        <ele>2.622</ele>
        <time>2020-08-14T07:10:50Z</time>
      </trkpt>
      <trkpt lat="42.437120" lon="-8.632072">
        <ele>4.026</ele>
        <time>2020-08-14T07:11:21Z</time>
      </trkpt>
      <trkpt lat="42.438383" lon="-8.631451">
        <ele>4.414</ele>
        <time>2020-08-14T07:11:57Z</time>
      </trkpt>
      <trkpt lat="42.440374" lon="-8.632091">
        <ele>5.416</ele>
        <time>2020-08-14T07:12:51Z</time>
      </trkpt>
      <trkpt lat="42.441496" lon="-8.632213">
        <ele>8.376</ele>
        <time>2020-08-14T07:13:21Z</time>
      </trkpt>
      <trkpt lat="42.442363" lon="-8.632484">
        <ele>7.913</ele>
        <time>2020-08-14T07:13:45Z</time>
      </trkpt>
      <trkpt lat="42.444829" lon="-8.632484">
        <ele>8.208</ele>
        <time>2020-08-14T07:14:51Z</time>
      </trkpt>
      <trkpt lat="42.445734" lon="-8.631944">
        <ele>11.176</ele>
        <time>2020-08-14T07:15:18Z</time>
      </trkpt>
      <trkpt lat="42.445998" lon="-8.631581">
        <ele>12.366</ele>
        <time>2020-08-14T07:15:28Z</time>
      </trkpt>
      <trkpt lat="42.446145" lon="-8.631032">
        <ele>14.550</ele>
        <time>2020-08-14T07:15:39Z</time>
      </trkpt>
      <trkpt lat="42.446134" lon="-8.629390">
        <ele>20.877</ele>
        <time>2020-08-14T07:16:12Z</time>
      </trkpt>
      <trkpt lat="42.445865" lon="-8.626930">
        <ele>29.886</ele>
        <time>2020-08-14T07:17:02Z</time>
      </trkpt>
      <trkpt lat="42.446182" lon="-8.626981">
        <ele>25.446</ele>
        <time>2020-08-14T07:17:11Z</time>
      </trkpt>
      <trkpt lat="42.447720" lon="-8.625834">
        <ele>18.880</ele>
        <time>2020-08-14T07:17:58Z</time>
      </trkpt>
      <trkpt lat="42.448309" lon="-8.625065">
        <ele>13.998</ele>
        <time>2020-08-14T07:18:20Z</time>
      </trkpt>
      <trkpt lat="42.449092" lon="-8.623302">
        <ele>13.153</ele>
        <time>2020-08-14T07:19:01Z</time>
      </trkpt>
      <trkpt lat="42.450226" lon="-8.622273">
        <ele>10.304</ele>
        <time>2020-08-14T07:19:37Z</time>
      </trkpt>
      <trkpt lat="42.451984" lon="-8.621151">
        <ele>13.514</ele>
        <time>2020-08-14T07:20:29Z</time>
      </trkpt>
      <trkpt lat="42.452313" lon="-8.620726">
        <ele>13.508</ele>
        <time>2020-08-14T07:20:42Z</time>
      </trkpt>
      <trkpt lat="42.452210" lon="-8.620130">
        <ele>14.870</ele>
        <time>2020-08-14T07:20:54Z</time>
      </trkpt>
      <trkpt lat="42.451704" lon="-8.619036">
        <ele>13.790</ele>
        <time>2020-08-14T07:21:19Z</time>
      </trkpt>
      <trkpt lat="42.451374" lon="-8.616881">
        <ele>14.684</ele>
        <time>2020-08-14T07:22:03Z</time>
      </trkpt>
      <trkpt lat="42.451786" lon="-8.616080">
        <ele>13.151</ele>
        <time>2020-08-14T07:22:23Z</time>
      </trkpt>
      <trkpt lat="42.451825" lon="-8.615385">
        <ele>12.860</ele>
        <time>2020-08-14T07:22:37Z</time>
      </trkpt>
      <trkpt lat="42.451632" lon="-8.614846">
        <ele>15.430</ele>
        <time>2020-08-14T07:22:48Z</time>
      </trkpt>
      <trkpt lat="42.451629" lon="-8.614087">
        <ele>13.084</ele>
        <time>2020-08-14T07:23:03Z</time>
      </trkpt>
      <trkpt lat="42.451289" lon="-8.613393">
        <ele>16.092</ele>
        <time>2020-08-14T07:23:20Z</time>
      </trkpt>
      <trkpt lat="42.451941" lon="-8.612733">
        <ele>14.833</ele>
        <time>2020-08-14T07:23:43Z</time>
      </trkpt>
      <trkpt lat="42.452123" lon="-8.611824">
        <ele>12.623</ele>
        <time>2020-08-14T07:24:01Z</time>
      </trkpt>
      <trkpt lat="42.451923" lon="-8.609840">
        <ele>16.015</ele>
        <time>2020-08-14T07:24:41Z</time>
      </trkpt>
      <trkpt lat="42.451981" lon="-8.608436">
        <ele>14.408</ele>
        <time>2020-08-14T07:25:09Z</time>
      </trkpt>
      <trkpt lat="42.451483" lon="-8.607145">
        <ele>16.928</ele>
        <time>2020-08-14T07:25:38Z</time>
      </trkpt>
      <trkpt lat="42.451191" lon="-8.605804">
        <ele>17.628</ele>
        <time>2020-08-14T07:26:05Z</time>
      </trkpt>
      <trkpt lat="42.451498" lon="-8.604661">
        <ele>14.142</ele>
        <time>2020-08-14T07:26:30Z</time>
      </trkpt>
      <trkpt lat="42.451545" lon="-8.603780">
        <ele>14.879</ele>
        <time>2020-08-14T07:26:47Z</time>
      </trkpt>
      <trkpt lat="42.452178" lon="-8.602588">
        <ele>14.448</ele>
        <time>2020-08-14T07:27:16Z</time>
      </trkpt>
      <trkpt lat="42.452291" lon="-8.602085">
        <ele>13.928</ele>
        <time>2020-08-14T07:27:26Z</time>
      </trkpt>
      <trkpt lat="42.451541" lon="-8.600963">
        <ele>16.722</ele>
        <time>2020-08-14T07:27:57Z</time>
      </trkpt>
      <trkpt lat="42.451718" lon="-8.600014">
        <ele>15.220</ele>
        <time>2020-08-14T07:28:17Z</time>
      </trkpt>
      <trkpt lat="42.451514" lon="-8.599088">
        <ele>15.287</ele>
        <time>2020-08-14T07:28:36Z</time>
      </trkpt>
      <trkpt lat="42.451459" lon="-8.596575">
        <ele>15.442</ele>
        <time>2020-08-14T07:29:26Z</time>
      </trkpt>
      <trkpt lat="42.451151" lon="-8.595904">
        <ele>17.326</ele>
        <time>2020-08-14T07:29:41Z</time>
      </trkpt>
      <trkpt lat="42.450961" lon="-8.594883">
        <ele>23.308</ele>
        <time>2020-08-14T07:30:02Z</time>
      </trkpt>
      <trkpt lat="42.450856" lon="-8.594802">
        <ele>27.523</ele>
        <time>2020-08-14T07:30:06Z</time>
      </trkpt>
      <trkpt lat="42.450355" lon="-8.595721">
        <ele>40.043</ele>
        <time>2020-08-14T07:30:29Z</time>
      </trkpt>
      <trkpt lat="42.449817" lon="-8.596047">
        <ele>41.997</ele>
        <time>2020-08-14T07:30:44Z</time>
      </trkpt>
      <trkpt lat="42.449352" lon="-8.596086">
        <ele>46.164</ele>
        <time>2020-08-14T07:30:57Z</time>
      </trkpt>
      <trkpt lat="42.448899" lon="-8.597184">
        <ele>52.343</ele>
        <time>2020-08-14T07:31:23Z</time>
      </trkpt>
      <trkpt lat="42.448525" lon="-8.597503">
        <ele>53.793</ele>
        <time>2020-08-14T07:31:35Z</time>
      </trkpt>
      <trkpt lat="42.448482" lon="-8.598166">
        <ele>57.947</ele>
        <time>2020-08-14T07:31:48Z</time>
      </trkpt>
      <trkpt lat="42.447880" lon="-8.599080">
        <ele>58.465</ele>
        <time>2020-08-14T07:32:13Z</time>
      </trkpt>
      <trkpt lat="42.447899" lon="-8.599649">
        <ele>57.592</ele>
        <time>2020-08-14T07:32:25Z</time>
      </trkpt>
      <trkpt lat="42.448214" lon="-8.600492">
        <ele>60.173</ele>
        <time>2020-08-14T07:32:43Z</time>
      </trkpt>
      <trkpt lat="42.447373" lon="-8.600958">
        <ele>71.720</ele>
        <time>2020-08-14T07:33:09Z</time>
      </trkpt>
      <trkpt lat="42.447167" lon="-8.601708">
        <ele>77.708</ele>
        <time>2020-08-14T07:33:25Z</time>
      </trkpt>
      <trkpt lat="42.446502" lon="-8.602664">
        <ele>81.864</ele>
        <time>2020-08-14T07:33:50Z</time>
      </trkpt>
      <trkpt lat="42.445046" lon="-8.602226">
        <ele>81.084</ele>
        <time>2020-08-14T07:34:31Z</time>
      </trkpt>
      <trkpt lat="42.444902" lon="-8.602558">
        <ele>81.878</ele>
        <time>2020-08-14T07:34:38Z</time>
      </trkpt>
      <trkpt lat="42.444592" lon="-8.602484">
        <ele>82.535</ele>
        <time>2020-08-14T07:34:47Z</time>
      </trkpt>
      <trkpt lat="42.444301" lon="-8.602079">
        <ele>80.214</ele>
        <time>2020-08-14T07:34:58Z</time>
      </trkpt>
      <trkpt lat="42.443565" lon="-8.601736">
        <ele>77.644</ele>
        <time>2020-08-14T07:35:19Z</time>
      </trkpt>
      <trkpt lat="42.443348" lon="-8.601472">
        <ele>77.588</ele>
        <time>2020-08-14T07:35:27Z</time>
      </trkpt>
      <trkpt lat="42.443228" lon="-8.601452">
        <ele>78.476</ele>
        <time>2020-08-14T07:35:30Z</time>
      </trkpt>
      <trkpt lat="42.443070" lon="-8.601839">
        <ele>81.248</ele>
        <time>2020-08-14T07:35:39Z</time>
      </trkpt>
      <trkpt lat="42.442731" lon="-8.601602">
        <ele>85.861</ele>
        <time>2020-08-14T07:35:49Z</time>
      </trkpt>
      <trkpt lat="42.442642" lon="-8.601335">
        <ele>86.817</ele>
        <time>2020-08-14T07:35:56Z</time>
      </trkpt>
      <trkpt lat="42.442582" lon="-8.601751">
        <ele>90.208</ele>
        <time>2020-08-14T07:36:04Z</time>
      </trkpt>
      <trkpt lat="42.442476" lon="-8.601737">
        <ele>94.439</ele>
        <time>2020-08-14T07:36:07Z</time>
      </trkpt>
      <trkpt lat="42.442391" lon="-8.601159">
        <ele>94.439</ele>
        <time>2020-08-14T07:36:19Z</time>
      </trkpt>
      <trkpt lat="42.442016" lon="-8.600661">
        <ele>100.263</ele>
        <time>2020-08-14T07:36:33Z</time>
      </trkpt>
      <trkpt lat="42.441521" lon="-8.600575">
        <ele>105.410</ele>
        <time>2020-08-14T07:36:46Z</time>
      </trkpt>
      <trkpt lat="42.441027" lon="-8.600077">
        <ele>105.159</ele>
        <time>2020-08-14T07:37:03Z</time>
      </trkpt>
      <trkpt lat="42.440239" lon="-8.599935">
        <ele>107.919</ele>
        <time>2020-08-14T07:37:24Z</time>
      </trkpt>
      <trkpt lat="42.439821" lon="-8.599581">
        <ele>106.943</ele>
        <time>2020-08-14T07:37:37Z</time>
      </trkpt>
      <trkpt lat="42.439351" lon="-8.597777">
        <ele>110.821</ele>
        <time>2020-08-14T07:38:15Z</time>
      </trkpt>
      <trkpt lat="42.438548" lon="-8.597695">
        <ele>114.572</ele>
        <time>2020-08-14T07:38:37Z</time>
      </trkpt>
      <trkpt lat="42.438107" lon="-8.597896">
        <ele>114.913</ele>
        <time>2020-08-14T07:38:50Z</time>
      </trkpt>
      <trkpt lat="42.437508" lon="-8.597366">
        <ele>116.814</ele>
        <time>2020-08-14T07:39:09Z</time>
      </trkpt>
      <trkpt lat="42.437339" lon="-8.597624">
        <ele>119.308</ele>
        <time>2020-08-14T07:39:16Z</time>
      </trkpt>
      <trkpt lat="42.437097" lon="-8.597657">
        <ele>122.572</ele>
        <time>2020-08-14T07:39:23Z</time>
      </trkpt>
      <trkpt lat="42.436911" lon="-8.597498">
        <ele>126.282</ele>
        <time>2020-08-14T07:39:29Z</time>
      </trkpt>
      <trkpt lat="42.436435" lon="-8.597569">
        <ele>131.266</ele>
        <time>2020-08-14T07:39:41Z</time>
      </trkpt>
      <trkpt lat="42.436128" lon="-8.597808">
        <ele>135.953</ele>
        <time>2020-08-14T07:39:51Z</time>
      </trkpt>
      <trkpt lat="42.436105" lon="-8.598626">
        <ele>134.582</ele>
        <time>2020-08-14T07:40:07Z</time>
      </trkpt>
      <trkpt lat="42.436350" lon="-8.599292">
        <ele>135.052</ele>
        <time>2020-08-14T07:40:22Z</time>
      </trkpt>
      <trkpt lat="42.436299" lon="-8.599862">
        <ele>141.536</ele>
        <time>2020-08-14T07:40:34Z</time>
      </trkpt>
      <trkpt lat="42.436579" lon="-8.600735">
        <ele>150.664</ele>
        <time>2020-08-14T07:40:54Z</time>
      </trkpt>
      <trkpt lat="42.435210" lon="-8.599985">
        <ele>164.918</ele>
        <time>2020-08-14T07:41:34Z</time>
      </trkpt>
      <trkpt lat="42.434208" lon="-8.599797">
        <ele>179.298</ele>
        <time>2020-08-14T07:42:01Z</time>
      </trkpt>
      <trkpt lat="42.433905" lon="-8.598699">
        <ele>182.117</ele>
        <time>2020-08-14T07:42:25Z</time>
      </trkpt>
      <trkpt lat="42.433363" lon="-8.598610">
        <ele>184.908</ele>
        <time>2020-08-14T07:42:39Z</time>
      </trkpt>
      <trkpt lat="42.432876" lon="-8.598270">
        <ele>178.146</ele>
        <time>2020-08-14T07:42:54Z</time>
      </trkpt>
      <trkpt lat="42.432595" lon="-8.598551">
        <ele>187.126</ele>
        <time>2020-08-14T07:43:03Z</time>
      </trkpt>
      <trkpt lat="42.432109" lon="-8.599575">
        <ele>196.170</ele>
        <time>2020-08-14T07:43:27Z</time>
      </trkpt>
      <trkpt lat="42.431965" lon="-8.600751">
        <ele>208.787</ele>
        <time>2020-08-14T07:43:52Z</time>
      </trkpt>
      <trkpt lat="42.429697" lon="-8.600378">
        <ele>220.136</ele>
        <time>2020-08-14T07:44:53Z</time>
      </trkpt>
      <trkpt lat="42.428246" lon="-8.599633">
        <ele>220.146</ele>
        <time>2020-08-14T07:45:34Z</time>
      </trkpt>
      <trkpt lat="42.428027" lon="-8.599895">
        <ele>220.780</ele>
        <time>2020-08-14T07:45:42Z</time>
      </trkpt>
      <trkpt lat="42.427706" lon="-8.601085">
        <ele>218.368</ele>
        <time>2020-08-14T07:46:08Z</time>
      </trkpt>
      <trkpt lat="42.427030" lon="-8.601835">
        <ele>213.683</ele>
        <time>2020-08-14T07:46:31Z</time>
      </trkpt>
      <trkpt lat="42.425955" lon="-8.601717">
        <ele>203.225</ele>
        <time>2020-08-14T07:47:00Z</time>
      </trkpt>
      <trkpt lat="42.424799" lon="-8.601989">
        <ele>192.717</ele>
        <time>2020-08-14T07:47:31Z</time>
      </trkpt>
      <trkpt lat="42.423381" lon="-8.602950">
        <ele>179.608</ele>
        <time>2020-08-14T07:48:14Z</time>
      </trkpt>
      <trkpt lat="42.423162" lon="-8.602311">
        <ele>175.743</ele>
        <time>2020-08-14T07:48:28Z</time>
      </trkpt>
      <trkpt lat="42.423135" lon="-8.601711">
        <ele>171.263</ele>
        <time>2020-08-14T07:48:41Z</time>
      </trkpt>
      <trkpt lat="42.422746" lon="-8.601431">
        <ele>165.587</ele>
        <time>2020-08-14T07:48:53Z</time>
      </trkpt>
      <trkpt lat="42.422581" lon="-8.601528">
        <ele>164.824</ele>
        <time>2020-08-14T07:48:58Z</time>
      </trkpt>
      <trkpt lat="42.421686" lon="-8.600777">
        <ele>159.043</ele>
        <time>2020-08-14T07:49:26Z</time>
      </trkpt>
      <trkpt lat="42.420340" lon="-8.601180">
        <ele>159.153</ele>
        <time>2020-08-14T07:50:03Z</time>
      </trkpt>
      <trkpt lat="42.419892" lon="-8.599773">
        <ele>162.417</ele>
        <time>2020-08-14T07:50:33Z</time>
      </trkpt>
      <trkpt lat="42.418563" lon="-8.598418">
        <ele>164.915</ele>
        <time>2020-08-14T07:51:18Z</time>
      </trkpt>
      <trkpt lat="42.417392" lon="-8.596488">
        <ele>173.942</ele>
        <time>2020-08-14T07:52:08Z</time>
      </trkpt>
      <trkpt lat="42.417417" lon="-8.595414">
        <ele>179.222</ele>
        <time>2020-08-14T07:52:29Z</time>
      </trkpt>
      <trkpt lat="42.418628" lon="-8.593022">
        <ele>193.214</ele>
        <time>2020-08-14T07:53:26Z</time>
      </trkpt>
      <trkpt lat="42.418559" lon="-8.592680">
        <ele>196.808</ele>
        <time>2020-08-14T07:53:33Z</time>
      </trkpt>
      <trkpt lat="42.419152" lon="-8.591662">
        <ele>208.219</ele>
        <time>2020-08-14T07:53:59Z</time>
      </trkpt>
      <trkpt lat="42.419195" lon="-8.591251">
        <ele>211.219</ele>
        <time>2020-08-14T07:54:07Z</time>
      </trkpt>
      <trkpt lat="42.418752" lon="-8.591134">
        <ele>221.353</ele>
        <time>2020-08-14T07:54:20Z</time>
      </trkpt>
      <trkpt lat="42.418055" lon="-8.590408">
        <ele>232.770</ele>
        <time>2020-08-14T07:54:43Z</time>
      </trkpt>
      <trkpt lat="42.418304" lon="-8.589176">
        <ele>251.679</ele>
        <time>2020-08-14T07:55:09Z</time>
      </trkpt>
      <trkpt lat="42.419534" lon="-8.587937">
        <ele>249.189</ele>
        <time>2020-08-14T07:55:50Z</time>
      </trkpt>
      <trkpt lat="42.419850" lon="-8.587185">
        <ele>249.253</ele>
        <time>2020-08-14T07:56:07Z</time>
      </trkpt>
      <trkpt lat="42.419788" lon="-8.585633">
        <ele>254.421</ele>
        <time>2020-08-14T07:56:38Z</time>
      </trkpt>
      <trkpt lat="42.419589" lon="-8.584894">
        <ele>254.483</ele>
        <time>2020-08-14T07:56:54Z</time>
      </trkpt>
      <trkpt lat="42.419369" lon="-8.584633">
        <ele>255.825</ele>
        <time>2020-08-14T07:57:01Z</time>
      </trkpt>
      <trkpt lat="42.418937" lon="-8.584508">
        <ele>258.517</ele>
        <time>2020-08-14T07:57:13Z</time>
      </trkpt>
      <trkpt lat="42.418700" lon="-8.584769">
        <ele>264.108</ele>
        <time>2020-08-14T07:57:22Z</time>
      </trkpt>
      <trkpt lat="42.418348" lon="-8.584183">
        <ele>263.093</ele>
        <time>2020-08-14T07:57:38Z</time>
      </trkpt>
      <trkpt lat="42.417462" lon="-8.584217">
        <ele>268.763</ele>
        <time>2020-08-14T07:58:01Z</time>
      </trkpt>
      <trkpt lat="42.416710" lon="-8.583972">
        <ele>269.087</ele>
        <time>2020-08-14T07:58:22Z</time>
      </trkpt>
      <trkpt lat="42.416021" lon="-8.584216">
        <ele>274.194</ele>
        <time>2020-08-14T07:58:41Z</time>
      </trkpt>
      <trkpt lat="42.415513" lon="-8.584062">
        <ele>272.233</ele>
        <time>2020-08-14T07:58:55Z</time>
      </trkpt>
      <trkpt lat="42.415412" lon="-8.584631">
        <ele>276.783</ele>
        <time>2020-08-14T07:59:07Z</time>
      </trkpt>
      <trkpt lat="42.415513" lon="-8.585082">
        <ele>279.137</ele>
        <time>2020-08-14T07:59:16Z</time>
      </trkpt>
      <trkpt lat="42.416043" lon="-8.585835">
        <ele>285.395</ele>
        <time>2020-08-14T07:59:37Z</time>
      </trkpt>
      <trkpt lat="42.414784" lon="-8.586307">
        <ele>284.651</ele>
        <time>2020-08-14T08:00:12Z</time>
      </trkpt>
      <trkpt lat="42.413625" lon="-8.587914">
        <ele>291.501</ele>
        <time>2020-08-14T08:00:57Z</time>
      </trkpt>
      <trkpt lat="42.413141" lon="-8.587638">
        <ele>292.511</ele>
        <time>2020-08-14T08:01:11Z</time>
      </trkpt>
      <trkpt lat="42.412593" lon="-8.586687">
        <ele>294.108</ele>
        <time>2020-08-14T08:01:35Z</time>
      </trkpt>
      <trkpt lat="42.411892" lon="-8.584286">
        <ele>308.080</ele>
        <time>2020-08-14T08:02:27Z</time>
      </trkpt>
      <trkpt lat="42.411050" lon="-8.583647">
        <ele>321.740</ele>
        <time>2020-08-14T08:02:52Z</time>
      </trkpt>
      <trkpt lat="42.410682" lon="-8.583082">
        <ele>323.554</ele>
        <time>2020-08-14T08:03:07Z</time>
      </trkpt>
      <trkpt lat="42.410240" lon="-8.583322">
        <ele>330.541</ele>
        <time>2020-08-14T08:03:20Z</time>
      </trkpt>
      <trkpt lat="42.409202" lon="-8.583013">
        <ele>331.310</ele>
        <time>2020-08-14T08:03:49Z</time>
      </trkpt>
      <trkpt lat="42.407156" lon="-8.583354">
        <ele>337.340</ele>
        <time>2020-08-14T08:04:44Z</time>
      </trkpt>
      <trkpt lat="42.406741" lon="-8.583507">
        <ele>337.884</ele>
        <time>2020-08-14T08:04:55Z</time>
      </trkpt>
      <trkpt lat="42.406814" lon="-8.584046">
        <ele>341.342</ele>
        <time>2020-08-14T08:05:06Z</time>
      </trkpt>
      <trkpt lat="42.406418" lon="-8.584634">
        <ele>343.053</ele>
        <time>2020-08-14T08:05:22Z</time>
      </trkpt>
      <trkpt lat="42.403800" lon="-8.585647">
        <ele>333.704</ele>
        <time>2020-08-14T08:06:35Z</time>
      </trkpt>
      <trkpt lat="42.403700" lon="-8.586709">
        <ele>329.714</ele>
        <time>2020-08-14T08:06:57Z</time>
      </trkpt>
      <trkpt lat="42.403370" lon="-8.585943">
        <ele>334.008</ele>
        <time>2020-08-14T08:07:17Z</time>
      </trkpt>
      <trkpt lat="42.402359" lon="-8.586342">
        <ele>335.630</ele>
        <time>2020-08-14T08:07:45Z</time>
      </trkpt>
      <trkpt lat="42.400819" lon="-8.586477">
        <ele>336.810</ele>
        <time>2020-08-14T08:08:26Z</time>
      </trkpt>
      <trkpt lat="42.399739" lon="-8.587858">
        <ele>346.684</ele>
        <time>2020-08-14T08:09:06Z</time>
      </trkpt>
      <trkpt lat="42.399623" lon="-8.588677">
        <ele>359.691</ele>
        <time>2020-08-14T08:09:23Z</time>
      </trkpt>
      <trkpt lat="42.399440" lon="-8.588790">
        <ele>363.360</ele>
        <time>2020-08-14T08:09:29Z</time>
      </trkpt>
      <trkpt lat="42.398279" lon="-8.588033">
        <ele>373.490</ele>
        <time>2020-08-14T08:10:04Z</time>
      </trkpt>
      <trkpt lat="42.398050" lon="-8.586924">
        <ele>368.514</ele>
        <time>2020-08-14T08:10:27Z</time>
      </trkpt>
      <trkpt lat="42.397686" lon="-8.586028">
        <ele>363.332</ele>
        <time>2020-08-14T08:10:47Z</time>
      </trkpt>
      <trkpt lat="42.396612" lon="-8.585151">
        <ele>366.299</ele>
        <time>2020-08-14T08:11:21Z</time>
      </trkpt>
      <trkpt lat="42.396258" lon="-8.584325">
        <ele>367.907</ele>
        <time>2020-08-14T08:11:40Z</time>
      </trkpt>
      <trkpt lat="42.395574" lon="-8.583611">
        <ele>375.227</ele>
        <time>2020-08-14T08:12:03Z</time>
      </trkpt>
      <trkpt lat="42.395589" lon="-8.583317">
        <ele>377.208</ele>
        <time>2020-08-14T08:12:09Z</time>
      </trkpt>
      <trkpt lat="42.396305" lon="-8.582736">
        <ele>380.734</ele>
        <time>2020-08-14T08:12:31Z</time>
      </trkpt>
      <trkpt lat="42.396501" lon="-8.582362">
        <ele>381.694</ele>
        <time>2020-08-14T08:12:40Z</time>
      </trkpt>
      <trkpt lat="42.396663" lon="-8.581025">
        <ele>381.088</ele>
        <time>2020-08-14T08:13:07Z</time>
      </trkpt>
      <trkpt lat="42.395798" lon="-8.579622">
        <ele>390.355</ele>
        <time>2020-08-14T08:13:44Z</time>
      </trkpt>
      <trkpt lat="42.395474" lon="-8.579333">
        <ele>392.924</ele>
        <time>2020-08-14T08:13:54Z</time>
      </trkpt>
      <trkpt lat="42.395624" lon="-8.578572">
        <ele>393.154</ele>
        <time>2020-08-14T08:14:10Z</time>
      </trkpt>
      <trkpt lat="42.394993" lon="-8.577762">
        <ele>397.928</ele>
        <time>2020-08-14T08:14:34Z</time>
      </trkpt>
      <trkpt lat="42.394903" lon="-8.576911">
        <ele>388.576</ele>
        <time>2020-08-14T08:14:51Z</time>
      </trkpt>
      <trkpt lat="42.395951" lon="-8.576367">
        <ele>381.013</ele>
        <time>2020-08-14T08:15:22Z</time>
      </trkpt>
      <trkpt lat="42.396359" lon="-8.575344">
        <ele>382.143</ele>
        <time>2020-08-14T08:15:46Z</time>
      </trkpt>
      <trkpt lat="42.397484" lon="-8.574328">
        <ele>376.207</ele>
        <time>2020-08-14T08:16:22Z</time>
      </trkpt>
      <trkpt lat="42.398070" lon="-8.574205">
        <ele>372.608</ele>
        <time>2020-08-14T08:16:38Z</time>
      </trkpt>
      <trkpt lat="42.399490" lon="-8.574662">
        <ele>366.546</ele>
        <time>2020-08-14T08:17:17Z</time>
      </trkpt>
      <trkpt lat="42.399837" lon="-8.574611">
        <ele>363.166</ele>
        <time>2020-08-14T08:17:26Z</time>
      </trkpt>
      <trkpt lat="42.399903" lon="-8.574459">
        <ele>360.520</ele>
        <time>2020-08-14T08:17:29Z</time>
      </trkpt>
      <trkpt lat="42.399365" lon="-8.573554">
        <ele>353.517</ele>
        <time>2020-08-14T08:17:52Z</time>
      </trkpt>
      <trkpt lat="42.399380" lon="-8.573270">
        <ele>350.646</ele>
        <time>2020-08-14T08:17:58Z</time>
      </trkpt>
      <trkpt lat="42.400115" lon="-8.571016">
        <ele>346.946</ele>
        <time>2020-08-14T08:18:47Z</time>
      </trkpt>
      <trkpt lat="42.400484" lon="-8.570462">
        <ele>348.610</ele>
        <time>2020-08-14T08:19:02Z</time>
      </trkpt>
      <trkpt lat="42.400703" lon="-8.570358">
        <ele>349.768</ele>
        <time>2020-08-14T08:19:08Z</time>
      </trkpt>
      <trkpt lat="42.401488" lon="-8.570570">
        <ele>351.196</ele>
        <time>2020-08-14T08:19:29Z</time>
      </trkpt>
      <trkpt lat="42.402057" lon="-8.570237">
        <ele>353.831</ele>
        <time>2020-08-14T08:19:46Z</time>
      </trkpt>
      <trkpt lat="42.403721" lon="-8.569765">
        <ele>351.824</ele>
        <time>2020-08-14T08:20:31Z</time>
      </trkpt>
      <trkpt lat="42.405913" lon="-8.569448">
        <ele>354.108</ele>
        <time>2020-08-14T08:21:31Z</time>
      </trkpt>
      <trkpt lat="42.406188" lon="-8.569193">
        <ele>352.834</ele>
        <time>2020-08-14T08:21:40Z</time>
      </trkpt>
      <trkpt lat="42.406941" lon="-8.567838">
        <ele>352.674</ele>
        <time>2020-08-14T08:22:13Z</time>
      </trkpt>
      <trkpt lat="42.407312" lon="-8.566843">
        <ele>350.658</ele>
        <time>2020-08-14T08:22:35Z</time>
      </trkpt>
      <trkpt lat="42.407334" lon="-8.565219">
        <ele>334.955</ele>
        <time>2020-08-14T08:23:07Z</time>
      </trkpt>
      <trkpt lat="42.407750" lon="-8.564299">
        <ele>327.544</ele>
        <time>2020-08-14T08:23:29Z</time>
      </trkpt>
      <trkpt lat="42.408363" lon="-8.564032">
        <ele>323.114</ele>
        <time>2020-08-14T08:23:46Z</time>
      </trkpt>
      <trkpt lat="42.409251" lon="-8.562467">
        <ele>318.198</ele>
        <time>2020-08-14T08:24:25Z</time>
      </trkpt>
      <trkpt lat="42.409991" lon="-8.562371">
        <ele>318.686</ele>
        <time>2020-08-14T08:24:46Z</time>
      </trkpt>
      <trkpt lat="42.410232" lon="-8.562197">
        <ele>319.476</ele>
        <time>2020-08-14T08:24:53Z</time>
      </trkpt>
      <trkpt lat="42.410643" lon="-8.562240">
        <ele>320.990</ele>
        <time>2020-08-14T08:25:04Z</time>
      </trkpt>
      <trkpt lat="42.410921" lon="-8.562049">
        <ele>319.219</ele>
        <time>2020-08-14T08:25:13Z</time>
      </trkpt>
      <trkpt lat="42.411099" lon="-8.561493">
        <ele>317.808</ele>
        <time>2020-08-14T08:25:25Z</time>
      </trkpt>
      <trkpt lat="42.411371" lon="-8.561207">
        <ele>317.982</ele>
        <time>2020-08-14T08:25:34Z</time>
      </trkpt>
      <trkpt lat="42.411900" lon="-8.561272">
        <ele>319.112</ele>
        <time>2020-08-14T08:25:49Z</time>
      </trkpt>
      <trkpt lat="42.412262" lon="-8.560736">
        <ele>316.516</ele>
        <time>2020-08-14T08:26:03Z</time>
      </trkpt>
      <trkpt lat="42.412294" lon="-8.560564">
        <ele>316.653</ele>
        <time>2020-08-14T08:26:07Z</time>
      </trkpt>
      <trkpt lat="42.411709" lon="-8.559429">
        <ele>313.482</ele>
        <time>2020-08-14T08:26:35Z</time>
      </trkpt>
      <trkpt lat="42.411825" lon="-8.559162">
        <ele>315.882</ele>
        <time>2020-08-14T08:26:41Z</time>
      </trkpt>
      <trkpt lat="42.411762" lon="-8.558235">
        <ele>325.126</ele>
        <time>2020-08-14T08:27:00Z</time>
      </trkpt>
      <trkpt lat="42.411565" lon="-8.557637">
        <ele>329.664</ele>
        <time>2020-08-14T08:27:13Z</time>
      </trkpt>
      <trkpt lat="42.411770" lon="-8.557087">
        <ele>331.551</ele>
        <time>2020-08-14T08:27:26Z</time>
      </trkpt>
      <trkpt lat="42.411867" lon="-8.555787">
        <ele>329.701</ele>
        <time>2020-08-14T08:27:52Z</time>
      </trkpt>
      <trkpt lat="42.412965" lon="-8.553263">
        <ele>334.011</ele>
        <time>2020-08-14T08:28:50Z</time>
      </trkpt>
      <trkpt lat="42.413003" lon="-8.552437">
        <ele>335.608</ele>
        <time>2020-08-14T08:29:07Z</time>
      </trkpt>
      <trkpt lat="42.413238" lon="-8.551745">
        <ele>337.370</ele>
        <time>2020-08-14T08:29:22Z</time>
      </trkpt>
      <trkpt lat="42.413559" lon="-8.549723">
        <ele>333.770</ele>
        <time>2020-08-14T08:30:03Z</time>
      </trkpt>
      <trkpt lat="42.413866" lon="-8.549056">
        <ele>331.374</ele>
        <time>2020-08-14T08:30:18Z</time>
      </trkpt>
      <trkpt lat="42.414175" lon="-8.547668">
        <ele>335.931</ele>
        <time>2020-08-14T08:30:48Z</time>
      </trkpt>
      <trkpt lat="42.414204" lon="-8.546417">
        <ele>343.210</ele>
        <time>2020-08-14T08:31:12Z</time>
      </trkpt>
      <trkpt lat="42.413875" lon="-8.544875">
        <ele>356.220</ele>
        <time>2020-08-14T08:31:44Z</time>
      </trkpt>
      <trkpt lat="42.414220" lon="-8.544523">
        <ele>359.984</ele>
        <time>2020-08-14T08:31:56Z</time>
      </trkpt>
      <trkpt lat="42.414584" lon="-8.543436">
        <ele>370.982</ele>
        <time>2020-08-14T08:32:20Z</time>
      </trkpt>
      <trkpt lat="42.415265" lon="-8.542826">
        <ele>376.377</ele>
        <time>2020-08-14T08:32:42Z</time>
      </trkpt>
      <trkpt lat="42.415344" lon="-8.542601">
        <ele>378.261</ele>
        <time>2020-08-14T08:32:47Z</time>
      </trkpt>
      <trkpt lat="42.415899" lon="-8.539046">
        <ele>391.327</ele>
        <time>2020-08-14T08:33:59Z</time>
      </trkpt>
      <trkpt lat="42.417616" lon="-8.538137">
        <ele>381.008</ele>
        <time>2020-08-14T08:34:48Z</time>
      </trkpt>
      <trkpt lat="42.418445" lon="-8.537464">
        <ele>375.912</ele>
        <time>2020-08-14T08:35:14Z</time>
      </trkpt>
      <trkpt lat="42.418500" lon="-8.536656">
        <ele>374.362</ele>
        <time>2020-08-14T08:35:30Z</time>
      </trkpt>
      <trkpt lat="42.420710" lon="-8.535346">
        <ele>377.196</ele>
        <time>2020-08-14T08:36:35Z</time>
      </trkpt>
      <trkpt lat="42.421592" lon="-8.535766">
        <ele>382.193</ele>
        <time>2020-08-14T08:37:00Z</time>
      </trkpt>
      <trkpt lat="42.422289" lon="-8.535527">
        <ele>384.262</ele>
        <time>2020-08-14T08:37:19Z</time>
      </trkpt>
      <trkpt lat="42.422956" lon="-8.535820">
        <ele>386.172</ele>
        <time>2020-08-14T08:37:38Z</time>
      </trkpt>
      <trkpt lat="42.424715" lon="-8.535147">
        <ele>402.666</ele>
        <time>2020-08-14T08:38:27Z</time>
      </trkpt>
      <trkpt lat="42.425512" lon="-8.535173">
        <ele>406.814</ele>
        <time>2020-08-14T08:38:48Z</time>
      </trkpt>
      <trkpt lat="42.426051" lon="-8.534808">
        <ele>414.364</ele>
        <time>2020-08-14T08:39:04Z</time>
      </trkpt>
      <trkpt lat="42.426209" lon="-8.534503">
        <ele>413.806</ele>
        <time>2020-08-14T08:39:12Z</time>
      </trkpt>
      <trkpt lat="42.426513" lon="-8.533619">
        <ele>410.616</ele>
        <time>2020-08-14T08:39:32Z</time>
      </trkpt>
      <trkpt lat="42.426145" lon="-8.533132">
        <ele>411.408</ele>
        <time>2020-08-14T08:39:45Z</time>
      </trkpt>
      <trkpt lat="42.425904" lon="-8.531860">
        <ele>414.671</ele>
        <time>2020-08-14T08:40:11Z</time>
      </trkpt>
      <trkpt lat="42.425318" lon="-8.530919">
        <ele>417.261</ele>
        <time>2020-08-14T08:40:36Z</time>
      </trkpt>
      <trkpt lat="42.425197" lon="-8.530340">
        <ele>417.355</ele>
        <time>2020-08-14T08:40:48Z</time>
      </trkpt>
      <trkpt lat="42.425344" lon="-8.530075">
        <ele>417.562</ele>
        <time>2020-08-14T08:40:54Z</time>
      </trkpt>
      <trkpt lat="42.426439" lon="-8.529944">
        <ele>416.651</ele>
        <time>2020-08-14T08:41:24Z</time>
      </trkpt>
      <trkpt lat="42.426545" lon="-8.529830">
        <ele>417.021</ele>
        <time>2020-08-14T08:41:27Z</time>
      </trkpt>
      <trkpt lat="42.426596" lon="-8.529540">
        <ele>415.855</ele>
        <time>2020-08-14T08:41:33Z</time>
      </trkpt>
      <trkpt lat="42.426325" lon="-8.528329">
        <ele>415.413</ele>
        <time>2020-08-14T08:41:58Z</time>
      </trkpt>
      <trkpt lat="42.426634" lon="-8.527993">
        <ele>415.797</ele>
        <time>2020-08-14T08:42:09Z</time>
      </trkpt>
      <trkpt lat="42.426650" lon="-8.527187">
        <ele>416.923</ele>
        <time>2020-08-14T08:42:25Z</time>
      </trkpt>
      <trkpt lat="42.425613" lon="-8.525298">
        <ele>427.125</ele>
        <time>2020-08-14T08:43:12Z</time>
      </trkpt>
      <trkpt lat="42.425396" lon="-8.524473">
        <ele>432.908</ele>
        <time>2020-08-14T08:43:29Z</time>
      </trkpt>
      <trkpt lat="42.423651" lon="-8.522907">
        <ele>451.164</ele>
        <time>2020-08-14T08:44:25Z</time>
      </trkpt>
      <trkpt lat="42.422986" lon="-8.521636">
        <ele>465.584</ele>
        <time>2020-08-14T08:44:56Z</time>
      </trkpt>
      <trkpt lat="42.423131" lon="-8.521317">
        <ele>466.748</ele>
        <time>2020-08-14T08:45:04Z</time>
      </trkpt>
      <trkpt lat="42.423671" lon="-8.520850">
        <ele>466.935</ele>
        <time>2020-08-14T08:45:21Z</time>
      </trkpt>
      <trkpt lat="42.424772" lon="-8.521219">
        <ele>470.944</ele>
        <time>2020-08-14T08:45:51Z</time>
      </trkpt>
      <trkpt lat="42.425391" lon="-8.521010">
        <ele>471.424</ele>
        <time>2020-08-14T08:46:08Z</time>
      </trkpt>
      <trkpt lat="42.425559" lon="-8.520876">
        <ele>470.188</ele>
        <time>2020-08-14T08:46:14Z</time>
      </trkpt>
      <trkpt lat="42.425929" lon="-8.519729">
        <ele>477.166</ele>
        <time>2020-08-14T08:46:38Z</time>
      </trkpt>
      <trkpt lat="42.425869" lon="-8.519223">
        <ele>480.357</ele>
        <time>2020-08-14T08:46:49Z</time>
      </trkpt>
      <trkpt lat="42.425525" lon="-8.518591">
        <ele>485.200</ele>
        <time>2020-08-14T08:47:04Z</time>
      </trkpt>
      <trkpt lat="42.424792" lon="-8.517830">
        <ele>492.220</ele>
        <time>2020-08-14T08:47:30Z</time>
      </trkpt>
      <trkpt lat="42.425381" lon="-8.517066">
        <ele>492.808</ele>
        <time>2020-08-14T08:47:52Z</time>
      </trkpt>
      <trkpt lat="42.425537" lon="-8.516587">
        <ele>495.850</ele>
        <time>2020-08-14T08:48:02Z</time>
      </trkpt>
      <trkpt lat="42.425401" lon="-8.515388">
        <ele>497.680</ele>
        <time>2020-08-14T08:48:26Z</time>
      </trkpt>
      <trkpt lat="42.425949" lon="-8.512741">
        <ele>503.924</ele>
        <time>2020-08-14T08:49:21Z</time>
      </trkpt>
      <trkpt lat="42.425829" lon="-8.509545">
        <ele>503.071</ele>
        <time>2020-08-14T08:50:24Z</time>
      </trkpt>
      <trkpt lat="42.425458" lon="-8.509188">
        <ele>502.290</ele>
        <time>2020-08-14T08:50:37Z</time>
      </trkpt>
      <trkpt lat="42.424245" lon="-8.509299">
        <ele>498.390</ele>
        <time>2020-08-14T08:51:10Z</time>
      </trkpt>
      <trkpt lat="42.423612" lon="-8.508599">
        <ele>492.014</ele>
        <time>2020-08-14T08:51:32Z</time>
      </trkpt>
      <trkpt lat="42.422617" lon="-8.508393">
        <ele>487.632</ele>
        <time>2020-08-14T08:52:00Z</time>
      </trkpt>
      <trkpt lat="42.423063" lon="-8.508140">
        <ele>485.166</ele>
        <time>2020-08-14T08:52:13Z</time>
      </trkpt>
      <trkpt lat="42.423961" lon="-8.508034">
        <ele>478.129</ele>
        <time>2020-08-14T08:52:37Z</time>
      </trkpt>
      <trkpt lat="42.424322" lon="-8.508397">
        <ele>475.621</ele>
        <time>2020-08-14T08:52:49Z</time>
      </trkpt>
      <trkpt lat="42.424539" lon="-8.508442">
        <ele>474.208</ele>
        <time>2020-08-14T08:52:55Z</time>
      </trkpt>
      <trkpt lat="42.424761" lon="-8.508206">
        <ele>471.331</ele>
        <time>2020-08-14T08:53:03Z</time>
      </trkpt>
      <trkpt lat="42.424780" lon="-8.507899">
        <ele>469.741</ele>
        <time>2020-08-14T08:53:09Z</time>
      </trkpt>
      <trkpt lat="42.424481" lon="-8.507244">
        <ele>461.725</ele>
        <time>2020-08-14T08:53:24Z</time>
      </trkpt>
      <trkpt lat="42.425300" lon="-8.504598">
        <ele>444.122</ele>
        <time>2020-08-14T08:54:22Z</time>
      </trkpt>
      <trkpt lat="42.425362" lon="-8.503580">
        <ele>438.841</ele>
        <time>2020-08-14T08:54:42Z</time>
      </trkpt>
      <trkpt lat="42.424919" lon="-8.501678">
        <ele>435.181</ele>
        <time>2020-08-14T08:55:21Z</time>
      </trkpt>
      <trkpt lat="42.424396" lon="-8.501001">
        <ele>436.185</ele>
        <time>2020-08-14T08:55:41Z</time>
      </trkpt>
      <trkpt lat="42.426105" lon="-8.500713">
        <ele>430.283</ele>
        <time>2020-08-14T08:56:27Z</time>
      </trkpt>
      <trkpt lat="42.426868" lon="-8.499921">
        <ele>426.242</ele>
        <time>2020-08-14T08:56:52Z</time>
      </trkpt>
      <trkpt lat="42.428445" lon="-8.498897">
        <ele>413.422</ele>
        <time>2020-08-14T08:57:39Z</time>
      </trkpt>
      <trkpt lat="42.429005" lon="-8.499004">
        <ele>409.514</ele>
        <time>2020-08-14T08:57:54Z</time>
      </trkpt>
      <trkpt lat="42.429335" lon="-8.499415">
        <ele>410.508</ele>
        <time>2020-08-14T08:58:06Z</time>
      </trkpt>
      <trkpt lat="42.429330" lon="-8.498940">
        <ele>410.269</ele>
        <time>2020-08-14T08:58:16Z</time>
      </trkpt>
      <trkpt lat="42.428895" lon="-8.498422">
        <ele>409.689</ele>
        <time>2020-08-14T08:58:31Z</time>
      </trkpt>
      <trkpt lat="42.428865" lon="-8.498064">
        <ele>409.923</ele>
        <time>2020-08-14T08:58:39Z</time>
      </trkpt>
      <trkpt lat="42.429912" lon="-8.496645">
        <ele>412.420</ele>
        <time>2020-08-14T08:59:18Z</time>
      </trkpt>
      <trkpt lat="42.430580" lon="-8.496166">
        <ele>413.249</ele>
        <time>2020-08-14T08:59:38Z</time>
      </trkpt>
      <trkpt lat="42.431336" lon="-8.495117">
        <ele>415.599</ele>
        <time>2020-08-14T09:00:07Z</time>
      </trkpt>
      <trkpt lat="42.432091" lon="-8.494716">
        <ele>416.733</ele>
        <time>2020-08-14T09:00:29Z</time>
      </trkpt>
      <trkpt lat="42.433053" lon="-8.493390">
        <ele>419.151</ele>
        <time>2020-08-14T09:01:06Z</time>
      </trkpt>
      <trkpt lat="42.433800" lon="-8.492988">
        <ele>420.095</ele>
        <time>2020-08-14T09:01:27Z</time>
      </trkpt>
      <trkpt lat="42.434491" lon="-8.492887">
        <ele>422.349</ele>
        <time>2020-08-14T09:01:46Z</time>
      </trkpt>
      <trkpt lat="42.435099" lon="-8.491917">
        <ele>428.423</ele>
        <time>2020-08-14T09:02:11Z</time>
      </trkpt>
      <trkpt lat="42.435156" lon="-8.491243">
        <ele>430.208</ele>
        <time>2020-08-14T09:02:24Z</time>
      </trkpt>
      <trkpt lat="42.436742" lon="-8.489998">
        <ele>441.924</ele>
        <time>2020-08-14T09:03:13Z</time>
      </trkpt>
      <trkpt lat="42.437350" lon="-8.489872">
        <ele>449.774</ele>
        <time>2020-08-14T09:03:30Z</time>
      </trkpt>
      <trkpt lat="42.437621" lon="-8.489603">
        <ele>449.938</ele>
        <time>2020-08-14T09:03:39Z</time>
      </trkpt>
      <trkpt lat="42.438631" lon="-8.489135">
        <ele>459.985</ele>
        <time>2020-08-14T09:04:08Z</time>
      </trkpt>
      <trkpt lat="42.438982" lon="-8.489254">
        <ele>464.034</ele>
        <time>2020-08-14T09:04:17Z</time>
      </trkpt>
      <trkpt lat="42.439319" lon="-8.489123">
        <ele>464.574</ele>
        <time>2020-08-14T09:04:27Z</time>
      </trkpt>
      <trkpt lat="42.439812" lon="-8.488326">
        <ele>469.018</ele>
        <time>2020-08-14T09:04:47Z</time>
      </trkpt>
      <trkpt lat="42.440405" lon="-8.488383">
        <ele>472.216</ele>
        <time>2020-08-14T09:05:04Z</time>
      </trkpt>
      <trkpt lat="42.440747" lon="-8.487157">
        <ele>472.197</ele>
        <time>2020-08-14T09:05:30Z</time>
      </trkpt>
      <trkpt lat="42.440841" lon="-8.487003">
        <ele>473.323</ele>
        <time>2020-08-14T09:05:34Z</time>
      </trkpt>
      <trkpt lat="42.441373" lon="-8.486877">
        <ele>482.225</ele>
        <time>2020-08-14T09:05:49Z</time>
      </trkpt>
      <trkpt lat="42.441986" lon="-8.485937">
        <ele>489.008</ele>
        <time>2020-08-14T09:06:14Z</time>
      </trkpt>
      <trkpt lat="42.442057" lon="-8.485494">
        <ele>485.454</ele>
        <time>2020-08-14T09:06:23Z</time>
      </trkpt>
      <trkpt lat="42.442728" lon="-8.485024">
        <ele>493.984</ele>
        <time>2020-08-14T09:06:43Z</time>
      </trkpt>
      <trkpt lat="42.443316" lon="-8.484883">
        <ele>504.758</ele>
        <time>2020-08-14T09:06:59Z</time>
      </trkpt>
      <trkpt lat="42.444000" lon="-8.484475">
        <ele>514.215</ele>
        <time>2020-08-14T09:07:19Z</time>
      </trkpt>
      <trkpt lat="42.444630" lon="-8.484541">
        <ele>520.134</ele>
        <time>2020-08-14T09:07:36Z</time>
      </trkpt>
      <trkpt lat="42.445061" lon="-8.484344">
        <ele>520.244</ele>
        <time>2020-08-14T09:07:48Z</time>
      </trkpt>
      <trkpt lat="42.445141" lon="-8.484056">
        <ele>520.658</ele>
        <time>2020-08-14T09:07:55Z</time>
      </trkpt>
      <trkpt lat="42.444942" lon="-8.483318">
        <ele>517.156</ele>
        <time>2020-08-14T09:08:11Z</time>
      </trkpt>
      <trkpt lat="42.445199" lon="-8.482795">
        <ele>517.015</ele>
        <time>2020-08-14T09:08:24Z</time>
      </trkpt>
      <trkpt lat="42.446025" lon="-8.482816">
        <ele>526.365</ele>
        <time>2020-08-14T09:08:46Z</time>
      </trkpt>
      <trkpt lat="42.446225" lon="-8.482034">
        <ele>529.711</ele>
        <time>2020-08-14T09:09:03Z</time>
      </trkpt>
      <trkpt lat="42.446395" lon="-8.482002">
        <ele>533.308</ele>
        <time>2020-08-14T09:09:08Z</time>
      </trkpt>
      <trkpt lat="42.446723" lon="-8.482373">
        <ele>539.596</ele>
        <time>2020-08-14T09:09:19Z</time>
      </trkpt>
      <trkpt lat="42.446442" lon="-8.481276">
        <ele>541.716</ele>
        <time>2020-08-14T09:09:42Z</time>
      </trkpt>
      <trkpt lat="42.447090" lon="-8.480459">
        <ele>543.740</ele>
        <time>2020-08-14T09:10:06Z</time>
      </trkpt>
      <trkpt lat="42.447635" lon="-8.479336">
        <ele>549.167</ele>
        <time>2020-08-14T09:10:33Z</time>
      </trkpt>
      <trkpt lat="42.448257" lon="-8.478693">
        <ele>550.576</ele>
        <time>2020-08-14T09:10:53Z</time>
      </trkpt>
      <trkpt lat="42.448279" lon="-8.478483">
        <ele>550.036</ele>
        <time>2020-08-14T09:10:58Z</time>
      </trkpt>
      <trkpt lat="42.447842" lon="-8.477406">
        <ele>552.150</ele>
        <time>2020-08-14T09:11:22Z</time>
      </trkpt>
      <trkpt lat="42.447711" lon="-8.475042">
        <ele>556.198</ele>
        <time>2020-08-14T09:12:10Z</time>
      </trkpt>
      <trkpt lat="42.446938" lon="-8.473107">
        <ele>552.154</ele>
        <time>2020-08-14T09:12:53Z</time>
      </trkpt>
      <trkpt lat="42.446725" lon="-8.471781">
        <ele>545.056</ele>
        <time>2020-08-14T09:13:20Z</time>
      </trkpt>
      <trkpt lat="42.446186" lon="-8.471611">
        <ele>541.211</ele>
        <time>2020-08-14T09:13:35Z</time>
      </trkpt>
      <trkpt lat="42.445515" lon="-8.470855">
        <ele>536.308</ele>
        <time>2020-08-14T09:13:59Z</time>
      </trkpt>
      <trkpt lat="42.445084" lon="-8.471474">
        <ele>531.560</ele>
        <time>2020-08-14T09:14:16Z</time>
      </trkpt>
      <trkpt lat="42.444604" lon="-8.471676">
        <ele>527.820</ele>
        <time>2020-08-14T09:14:29Z</time>
      </trkpt>
      <trkpt lat="42.443761" lon="-8.470633">
        <ele>520.014</ele>
        <time>2020-08-14T09:15:00Z</time>
      </trkpt>
      <trkpt lat="42.443519" lon="-8.470640">
        <ele>517.341</ele>
        <time>2020-08-14T09:15:07Z</time>
      </trkpt>
      <trkpt lat="42.442781" lon="-8.471147">
        <ele>508.060</ele>
        <time>2020-08-14T09:15:29Z</time>
      </trkpt>
      <trkpt lat="42.442015" lon="-8.471055">
        <ele>502.320</ele>
        <time>2020-08-14T09:15:50Z</time>
      </trkpt>
      <trkpt lat="42.440263" lon="-8.471283">
        <ele>503.894</ele>
        <time>2020-08-14T09:16:37Z</time>
      </trkpt>
      <trkpt lat="42.439908" lon="-8.471156">
        <ele>506.422</ele>
        <time>2020-08-14T09:16:47Z</time>
      </trkpt>
      <trkpt lat="42.438465" lon="-8.469475">
        <ele>498.579</ele>
        <time>2020-08-14T09:17:37Z</time>
      </trkpt>
      <trkpt lat="42.436946" lon="-8.469069">
        <ele>478.305</ele>
        <time>2020-08-14T09:18:19Z</time>
      </trkpt>
      <trkpt lat="42.436540" lon="-8.468692">
        <ele>472.625</ele>
        <time>2020-08-14T09:18:32Z</time>
      </trkpt>
      <trkpt lat="42.435753" lon="-8.468700">
        <ele>466.008</ele>
        <time>2020-08-14T09:18:53Z</time>
      </trkpt>
      <trkpt lat="42.435015" lon="-8.468224">
        <ele>456.712</ele>
        <time>2020-08-14T09:19:15Z</time>
      </trkpt>
      <trkpt lat="42.434194" lon="-8.467383">
        <ele>443.022</ele>
        <time>2020-08-14T09:19:43Z</time>
      </trkpt>
      <trkpt lat="42.433394" lon="-8.467340">
        <ele>447.336</ele>
        <time>2020-08-14T09:20:04Z</time>
      </trkpt>
      <trkpt lat="42.432937" lon="-8.467631">
        <ele>451.873</ele>
        <time>2020-08-14T09:20:18Z</time>
      </trkpt>
      <trkpt lat="42.432613" lon="-8.469162">
        <ele>472.222</ele>
        <time>2020-08-14T09:20:50Z</time>
      </trkpt>
      <trkpt lat="42.432291" lon="-8.469802">
        <ele>469.742</ele>
        <time>2020-08-14T09:21:05Z</time>
      </trkpt>
      <trkpt lat="42.431689" lon="-8.470504">
        <ele>466.726</ele>
        <time>2020-08-14T09:21:27Z</time>
      </trkpt>
      <trkpt lat="42.431423" lon="-8.470504">
        <ele>463.574</ele>
        <time>2020-08-14T09:21:34Z</time>
      </trkpt>
      <trkpt lat="42.431158" lon="-8.470784">
        <ele>466.493</ele>
        <time>2020-08-14T09:21:43Z</time>
      </trkpt>
      <trkpt lat="42.430701" lon="-8.470248">
        <ele>462.865</ele>
        <time>2020-08-14T09:22:00Z</time>
      </trkpt>
      <trkpt lat="42.430421" lon="-8.470377">
        <ele>466.621</ele>
        <time>2020-08-14T09:22:08Z</time>
      </trkpt>
      <trkpt lat="42.430030" lon="-8.469906">
        <ele>468.808</ele>
        <time>2020-08-14T09:22:23Z</time>
      </trkpt>
      <trkpt lat="42.429934" lon="-8.469971">
        <ele>471.824</ele>
        <time>2020-08-14T09:22:25Z</time>
      </trkpt>
      <trkpt lat="42.429978" lon="-8.470473">
        <ele>475.154</ele>
        <time>2020-08-14T09:22:35Z</time>
      </trkpt>
      <trkpt lat="42.429617" lon="-8.471540">
        <ele>480.118</ele>
        <time>2020-08-14T09:22:59Z</time>
      </trkpt>
      <trkpt lat="42.429597" lon="-8.472389">
        <ele>483.775</ele>
        <time>2020-08-14T09:23:16Z</time>
      </trkpt>
      <trkpt lat="42.428696" lon="-8.472885">
        <ele>486.154</ele>
        <time>2020-08-14T09:23:42Z</time>
      </trkpt>
      <trkpt lat="42.428095" lon="-8.472921">
        <ele>480.024</ele>
        <time>2020-08-14T09:23:58Z</time>
      </trkpt>
      <trkpt lat="42.426493" lon="-8.472206">
        <ele>474.078</ele>
        <time>2020-08-14T09:24:43Z</time>
      </trkpt>
      <trkpt lat="42.425905" lon="-8.472401">
        <ele>464.696</ele>
        <time>2020-08-14T09:25:00Z</time>
      </trkpt>
      <trkpt lat="42.425673" lon="-8.472254">
        <ele>456.762</ele>
        <time>2020-08-14T09:25:07Z</time>
      </trkpt>
      <trkpt lat="42.425552" lon="-8.472490">
        <ele>455.683</ele>
        <time>2020-08-14T09:25:12Z</time>
      </trkpt>
      <trkpt lat="42.424718" lon="-8.472659">
        <ele>440.711</ele>
        <time>2020-08-14T09:25:35Z</time>
      </trkpt>
      <trkpt lat="42.424101" lon="-8.473645">
        <ele>442.808</ele>
        <time>2020-08-14T09:26:01Z</time>
      </trkpt>
      <trkpt lat="42.422993" lon="-8.473881">
        <ele>432.471</ele>
        <time>2020-08-14T09:26:31Z</time>
      </trkpt>
      <trkpt lat="42.422668" lon="-8.473441">
        <ele>431.141</ele>
        <time>2020-08-14T09:26:44Z</time>
      </trkpt>
      <trkpt lat="42.422353" lon="-8.473353">
        <ele>431.915</ele>
        <time>2020-08-14T09:26:53Z</time>
      </trkpt>
      <trkpt lat="42.422293" lon="-8.472083">
        <ele>421.882</ele>
        <time>2020-08-14T09:27:19Z</time>
      </trkpt>
      <trkpt lat="42.421983" lon="-8.472325">
        <ele>422.081</ele>
        <time>2020-08-14T09:27:29Z</time>
      </trkpt>
      <trkpt lat="42.421638" lon="-8.471668">
        <ele>414.531</ele>
        <time>2020-08-14T09:27:45Z</time>
      </trkpt>
      <trkpt lat="42.421568" lon="-8.470868">
        <ele>409.035</ele>
        <time>2020-08-14T09:28:02Z</time>
      </trkpt>
      <trkpt lat="42.421337" lon="-8.470535">
        <ele>408.193</ele>
        <time>2020-08-14T09:28:11Z</time>
      </trkpt>
      <trkpt lat="42.420782" lon="-8.470278">
        <ele>406.273</ele>
        <time>2020-08-14T09:28:27Z</time>
      </trkpt>
      <trkpt lat="42.420317" lon="-8.470525">
        <ele>406.085</ele>
        <time>2020-08-14T09:28:41Z</time>
      </trkpt>
      <trkpt lat="42.419369" lon="-8.470393">
        <ele>399.813</ele>
        <time>2020-08-14T09:29:06Z</time>
      </trkpt>
      <trkpt lat="42.418682" lon="-8.469810">
        <ele>402.108</ele>
        <time>2020-08-14T09:29:28Z</time>
      </trkpt>
      <trkpt lat="42.417773" lon="-8.469560">
        <ele>391.892</ele>
        <time>2020-08-14T09:29:53Z</time>
      </trkpt>
      <trkpt lat="42.417587" lon="-8.469354">
        <ele>389.412</ele>
        <time>2020-08-14T09:29:59Z</time>
      </trkpt>
      <trkpt lat="42.418123" lon="-8.469343">
        <ele>392.866</ele>
        <time>2020-08-14T09:30:14Z</time>
      </trkpt>
      <trkpt lat="42.418371" lon="-8.469189">
        <ele>393.593</ele>
        <time>2020-08-14T09:30:21Z</time>
      </trkpt>
      <trkpt lat="42.418827" lon="-8.468462">
        <ele>395.152</ele>
        <time>2020-08-14T09:30:40Z</time>
      </trkpt>
      <trkpt lat="42.418603" lon="-8.468036">
        <ele>393.392</ele>
        <time>2020-08-14T09:30:51Z</time>
      </trkpt>
      <trkpt lat="42.418611" lon="-8.467467">
        <ele>394.996</ele>
        <time>2020-08-14T09:31:02Z</time>
      </trkpt>
      <trkpt lat="42.419130" lon="-8.466153">
        <ele>399.864</ele>
        <time>2020-08-14T09:31:32Z</time>
      </trkpt>
      <trkpt lat="42.419122" lon="-8.464809">
        <ele>402.462</ele>
        <time>2020-08-14T09:31:59Z</time>
      </trkpt>
      <trkpt lat="42.417995" lon="-8.464904">
        <ele>398.183</ele>
        <time>2020-08-14T09:32:29Z</time>
      </trkpt>
      <trkpt lat="42.417817" lon="-8.465121">
        <ele>397.011</ele>
        <time>2020-08-14T09:32:35Z</time>
      </trkpt>
      <trkpt lat="42.417567" lon="-8.466141">
        <ele>394.108</ele>
        <time>2020-08-14T09:32:57Z</time>
      </trkpt>
      <trkpt lat="42.417122" lon="-8.466454">
        <ele>386.041</ele>
        <time>2020-08-14T09:33:10Z</time>
      </trkpt>
      <trkpt lat="42.416896" lon="-8.466435">
        <ele>381.111</ele>
        <time>2020-08-14T09:33:16Z</time>
      </trkpt>
      <trkpt lat="42.416632" lon="-8.466244">
        <ele>381.185</ele>
        <time>2020-08-14T09:33:25Z</time>
      </trkpt>
      <trkpt lat="42.416473" lon="-8.465848">
        <ele>380.592</ele>
        <time>2020-08-14T09:33:34Z</time>
      </trkpt>
      <trkpt lat="42.415547" lon="-8.465274">
        <ele>376.761</ele>
        <time>2020-08-14T09:34:02Z</time>
      </trkpt>
      <trkpt lat="42.415000" lon="-8.465219">
        <ele>375.771</ele>
        <time>2020-08-14T09:34:16Z</time>
      </trkpt>
      <trkpt lat="42.414879" lon="-8.465068">
        <ele>372.785</ele>
        <time>2020-08-14T09:34:21Z</time>
      </trkpt>
      <trkpt lat="42.414394" lon="-8.465384">
        <ele>368.973</ele>
        <time>2020-08-14T09:34:35Z</time>
      </trkpt>
      <trkpt lat="42.413747" lon="-8.465501">
        <ele>364.431</ele>
        <time>2020-08-14T09:34:53Z</time>
      </trkpt>
      <trkpt lat="42.413267" lon="-8.465373">
        <ele>363.761</ele>
        <time>2020-08-14T09:35:06Z</time>
      </trkpt>
      <trkpt lat="42.412410" lon="-8.464411">
        <ele>370.307</ele>
        <time>2020-08-14T09:35:36Z</time>
      </trkpt>
      <trkpt lat="42.412277" lon="-8.463897">
        <ele>367.508</ele>
        <time>2020-08-14T09:35:47Z</time>
      </trkpt>
      <trkpt lat="42.411900" lon="-8.463970">
        <ele>368.288</ele>
        <time>2020-08-14T09:35:57Z</time>
      </trkpt>
      <trkpt lat="42.411694" lon="-8.464430">
        <ele>373.218</ele>
        <time>2020-08-14T09:36:08Z</time>
      </trkpt>
      <trkpt lat="42.411986" lon="-8.464822">
        <ele>381.612</ele>
        <time>2020-08-14T09:36:20Z</time>
      </trkpt>
      <trkpt lat="42.412172" lon="-8.466684">
        <ele>393.369</ele>
        <time>2020-08-14T09:36:57Z</time>
      </trkpt>
      <trkpt lat="42.412473" lon="-8.467765">
        <ele>404.758</ele>
        <time>2020-08-14T09:37:20Z</time>
      </trkpt>
      <trkpt lat="42.411276" lon="-8.468620">
        <ele>406.658</ele>
        <time>2020-08-14T09:37:56Z</time>
      </trkpt>
      <trkpt lat="42.407605" lon="-8.468984">
        <ele>417.012</ele>
        <time>2020-08-14T09:39:34Z</time>
      </trkpt>
      <trkpt lat="42.407756" lon="-8.470595">
        <ele>429.550</ele>
        <time>2020-08-14T09:40:06Z</time>
      </trkpt>
      <trkpt lat="42.406680" lon="-8.471123">
        <ele>436.817</ele>
        <time>2020-08-14T09:40:37Z</time>
      </trkpt>
      <trkpt lat="42.406132" lon="-8.471123">
        <ele>440.787</ele>
        <time>2020-08-14T09:40:52Z</time>
      </trkpt>
      <trkpt lat="42.406079" lon="-8.471258">
        <ele>441.315</ele>
        <time>2020-08-14T09:40:55Z</time>
      </trkpt>
      <trkpt lat="42.406357" lon="-8.472469">
        <ele>441.508</ele>
        <time>2020-08-14T09:41:20Z</time>
      </trkpt>
      <trkpt lat="42.406088" lon="-8.473449">
        <ele>427.516</ele>
        <time>2020-08-14T09:41:41Z</time>
      </trkpt>
      <trkpt lat="42.406600" lon="-8.474281">
        <ele>424.256</ele>
        <time>2020-08-14T09:42:02Z</time>
      </trkpt>
      <trkpt lat="42.407382" lon="-8.474746">
        <ele>428.550</ele>
        <time>2020-08-14T09:42:26Z</time>
      </trkpt>
      <trkpt lat="42.407265" lon="-8.475162">
        <ele>429.467</ele>
        <time>2020-08-14T09:42:34Z</time>
      </trkpt>
      <trkpt lat="42.406367" lon="-8.475077">
        <ele>423.726</ele>
        <time>2020-08-14T09:42:58Z</time>
      </trkpt>
      <trkpt lat="42.405909" lon="-8.475505">
        <ele>421.816</ele>
        <time>2020-08-14T09:43:13Z</time>
      </trkpt>
      <trkpt lat="42.405370" lon="-8.477023">
        <ele>428.740</ele>
        <time>2020-08-14T09:43:47Z</time>
      </trkpt>
      <trkpt lat="42.405353" lon="-8.478247">
        <ele>438.338</ele>
        <time>2020-08-14T09:44:11Z</time>
      </trkpt>
      <trkpt lat="42.405488" lon="-8.478651">
        <ele>441.156</ele>
        <time>2020-08-14T09:44:20Z</time>
      </trkpt>
      <trkpt lat="42.406018" lon="-8.479226">
        <ele>451.659</ele>
        <time>2020-08-14T09:44:38Z</time>
      </trkpt>
      <trkpt lat="42.405982" lon="-8.479447">
        <ele>453.114</ele>
        <time>2020-08-14T09:44:42Z</time>
      </trkpt>
      <trkpt lat="42.405685" lon="-8.479728">
        <ele>454.508</ele>
        <time>2020-08-14T09:44:52Z</time>
      </trkpt>
      <trkpt lat="42.405775" lon="-8.479936">
        <ele>457.320</ele>
        <time>2020-08-14T09:44:57Z</time>
      </trkpt>
      <trkpt lat="42.405505" lon="-8.481003">
        <ele>450.030</ele>
        <time>2020-08-14T09:45:19Z</time>
      </trkpt>
      <trkpt lat="42.405667" lon="-8.482031">
        <ele>455.854</ele>
        <time>2020-08-14T09:45:40Z</time>
      </trkpt>
      <trkpt lat="42.405335" lon="-8.482337">
        <ele>447.331</ele>
        <time>2020-08-14T09:45:51Z</time>
      </trkpt>
      <trkpt lat="42.405281" lon="-8.483341">
        <ele>440.970</ele>
        <time>2020-08-14T09:46:11Z</time>
      </trkpt>
      <trkpt lat="42.404572" lon="-8.483403">
        <ele>432.940</ele>
        <time>2020-08-14T09:46:30Z</time>
      </trkpt>
      <trkpt lat="42.404041" lon="-8.483036">
        <ele>424.824</ele>
        <time>2020-08-14T09:46:46Z</time>
      </trkpt>
      <trkpt lat="42.403017" lon="-8.482840">
        <ele>414.922</ele>
        <time>2020-08-14T09:47:14Z</time>
      </trkpt>
      <trkpt lat="42.402667" lon="-8.482436">
        <ele>410.034</ele>
        <time>2020-08-14T09:47:27Z</time>
      </trkpt>
      <trkpt lat="42.402424" lon="-8.482461">
        <ele>405.655</ele>
        <time>2020-08-14T09:47:34Z</time>
      </trkpt>
      <trkpt lat="42.402200" lon="-8.482229">
        <ele>401.310</ele>
        <time>2020-08-14T09:47:42Z</time>
      </trkpt>
      <trkpt lat="42.401769" lon="-8.482584">
        <ele>396.608</ele>
        <time>2020-08-14T09:47:56Z</time>
      </trkpt>
      <trkpt lat="42.401095" lon="-8.482425">
        <ele>393.588</ele>
        <time>2020-08-14T09:48:14Z</time>
      </trkpt>
      <trkpt lat="42.400745" lon="-8.482658">
        <ele>392.298</ele>
        <time>2020-08-14T09:48:24Z</time>
      </trkpt>
      <trkpt lat="42.400700" lon="-8.482841">
        <ele>392.512</ele>
        <time>2020-08-14T09:48:28Z</time>
      </trkpt>
      <trkpt lat="42.400340" lon="-8.483037">
        <ele>390.579</ele>
        <time>2020-08-14T09:48:39Z</time>
      </trkpt>
      <trkpt lat="42.400071" lon="-8.483698">
        <ele>388.868</ele>
        <time>2020-08-14T09:48:54Z</time>
      </trkpt>
      <trkpt lat="42.399074" lon="-8.483405">
        <ele>381.698</ele>
        <time>2020-08-14T09:49:21Z</time>
      </trkpt>
      <trkpt lat="42.398310" lon="-8.483923">
        <ele>380.862</ele>
        <time>2020-08-14T09:49:45Z</time>
      </trkpt>
      <trkpt lat="42.397600" lon="-8.483899">
        <ele>383.780</ele>
        <time>2020-08-14T09:50:04Z</time>
      </trkpt>
      <trkpt lat="42.397232" lon="-8.483764">
        <ele>384.186</ele>
        <time>2020-08-14T09:50:14Z</time>
      </trkpt>
      <trkpt lat="42.396989" lon="-8.483128">
        <ele>380.360</ele>
        <time>2020-08-14T09:50:28Z</time>
      </trkpt>
      <trkpt lat="42.396441" lon="-8.482565">
        <ele>374.726</ele>
        <time>2020-08-14T09:50:46Z</time>
      </trkpt>
      <trkpt lat="42.395902" lon="-8.482259">
        <ele>371.508</ele>
        <time>2020-08-14T09:51:02Z</time>
      </trkpt>
      <trkpt lat="42.395264" lon="-8.481562">
        <ele>370.483</ele>
        <time>2020-08-14T09:51:24Z</time>
      </trkpt>
      <trkpt lat="42.394485" lon="-8.481119">
        <ele>363.393</ele>
        <time>2020-08-14T09:51:47Z</time>
      </trkpt>
      <trkpt lat="42.394063" lon="-8.481274">
        <ele>359.487</ele>
        <time>2020-08-14T09:51:59Z</time>
      </trkpt>
      <trkpt lat="42.393793" lon="-8.481959">
        <ele>355.024</ele>
        <time>2020-08-14T09:52:14Z</time>
      </trkpt>
      <trkpt lat="42.393611" lon="-8.482054">
        <ele>352.223</ele>
        <time>2020-08-14T09:52:20Z</time>
      </trkpt>
      <trkpt lat="42.392850" lon="-8.481814">
        <ele>345.233</ele>
        <time>2020-08-14T09:52:40Z</time>
      </trkpt>
      <trkpt lat="42.392215" lon="-8.482311">
        <ele>331.237</ele>
        <time>2020-08-14T09:53:00Z</time>
      </trkpt>
      <trkpt lat="42.392007" lon="-8.482217">
        <ele>328.615</ele>
        <time>2020-08-14T09:53:06Z</time>
      </trkpt>
      <trkpt lat="42.391757" lon="-8.482328">
        <ele>327.945</ele>
        <time>2020-08-14T09:53:13Z</time>
      </trkpt>
      <trkpt lat="42.390871" lon="-8.483263">
        <ele>328.247</ele>
        <time>2020-08-14T09:53:44Z</time>
      </trkpt>
      <trkpt lat="42.390852" lon="-8.483383">
        <ele>326.911</ele>
        <time>2020-08-14T09:53:46Z</time>
      </trkpt>
      <trkpt lat="42.391236" lon="-8.483614">
        <ele>321.208</ele>
        <time>2020-08-14T09:53:57Z</time>
      </trkpt>
      <trkpt lat="42.391349" lon="-8.483982">
        <ele>316.349</ele>
        <time>2020-08-14T09:54:05Z</time>
      </trkpt>
      <trkpt lat="42.390733" lon="-8.485259">
        <ele>298.129</ele>
        <time>2020-08-14T09:54:35Z</time>
      </trkpt>
      <trkpt lat="42.390595" lon="-8.486056">
        <ele>284.673</ele>
        <time>2020-08-14T09:54:52Z</time>
      </trkpt>
      <trkpt lat="42.391084" lon="-8.486772">
        <ele>281.780</ele>
        <time>2020-08-14T09:55:11Z</time>
      </trkpt>
      <trkpt lat="42.391436" lon="-8.487740">
        <ele>280.659</ele>
        <time>2020-08-14T09:55:33Z</time>
      </trkpt>
      <trkpt lat="42.391161" lon="-8.492518">
        <ele>278.379</ele>
        <time>2020-08-14T09:57:07Z</time>
      </trkpt>
      <trkpt lat="42.391248" lon="-8.490894">
        <ele>280.048</ele>
        <time>2020-09-01T05:00:00Z</time>
      </trkpt>
      <trkpt lat="42.391174" lon="-8.492595">
        <ele>278.461</ele>
        <time>2020-09-01T05:00:33Z</time>
      </trkpt>
      <trkpt lat="42.391295" lon="-8.493082">
        <ele>278.117</ele>
        <time>2020-09-01T05:00:43Z</time>
      </trkpt>
      <trkpt lat="42.391814" lon="-8.493978">
        <ele>278.008</ele>
        <time>2020-09-01T05:01:06Z</time>
      </trkpt>
      <trkpt lat="42.392329" lon="-8.494465">
        <ele>279.619</ele>
        <time>2020-09-01T05:01:23Z</time>
      </trkpt>
      <trkpt lat="42.392517" lon="-8.495117">
        <ele>278.319</ele>
        <time>2020-09-01T05:01:37Z</time>
      </trkpt>
      <trkpt lat="42.391946" lon="-8.498177">
        <ele>278.963</ele>
        <time>2020-09-01T05:02:39Z</time>
      </trkpt>
      <trkpt lat="42.390911" lon="-8.500227">
        <ele>278.140</ele>
        <time>2020-09-01T05:03:28Z</time>
      </trkpt>
      <trkpt lat="42.390500" lon="-8.500422">
        <ele>278.869</ele>
        <time>2020-09-01T05:03:40Z</time>
      </trkpt>
      <trkpt lat="42.390113" lon="-8.500361">
        <ele>278.941</ele>
        <time>2020-09-01T05:03:50Z</time>
      </trkpt>
      <trkpt lat="42.390090" lon="-8.499193">
        <ele>285.165</ele>
        <time>2020-09-01T05:04:14Z</time>
      </trkpt>
      <trkpt lat="42.389613" lon="-8.498366">
        <ele>291.239</ele>
        <time>2020-09-01T05:04:35Z</time>
      </trkpt>
      <trkpt lat="42.388417" lon="-8.497241">
        <ele>299.736</ele>
        <time>2020-09-01T05:05:14Z</time>
      </trkpt>
      <trkpt lat="42.388056" lon="-8.496029">
        <ele>304.617</ele>
        <time>2020-09-01T05:05:40Z</time>
      </trkpt>
      <trkpt lat="42.387689" lon="-8.496089">
        <ele>305.218</ele>
        <time>2020-09-01T05:05:50Z</time>
      </trkpt>
      <trkpt lat="42.386814" lon="-8.496698">
        <ele>311.708</ele>
        <time>2020-09-01T05:06:16Z</time>
      </trkpt>
      <trkpt lat="42.385736" lon="-8.496569">
        <ele>309.268</ele>
        <time>2020-09-01T05:06:45Z</time>
      </trkpt>
      <trkpt lat="42.385093" lon="-8.496805">
        <ele>305.318</ele>
        <time>2020-09-01T05:07:03Z</time>
      </trkpt>
      <trkpt lat="42.383337" lon="-8.498595">
        <ele>309.962</ele>
        <time>2020-09-01T05:08:02Z</time>
      </trkpt>
      <trkpt lat="42.382729" lon="-8.499707">
        <ele>314.739</ele>
        <time>2020-09-01T05:08:29Z</time>
      </trkpt>
      <trkpt lat="42.382211" lon="-8.499397">
        <ele>321.548</ele>
        <time>2020-09-01T05:08:44Z</time>
      </trkpt>
      <trkpt lat="42.382091" lon="-8.499158">
        <ele>325.380</ele>
        <time>2020-09-01T05:08:50Z</time>
      </trkpt>
      <trkpt lat="42.382365" lon="-8.498241">
        <ele>329.874</ele>
        <time>2020-09-01T05:09:10Z</time>
      </trkpt>
      <trkpt lat="42.382353" lon="-8.497023">
        <ele>335.038</ele>
        <time>2020-09-01T05:09:34Z</time>
      </trkpt>
      <trkpt lat="42.381527" lon="-8.496359">
        <ele>343.297</ele>
        <time>2020-09-01T05:10:00Z</time>
      </trkpt>
      <trkpt lat="42.381103" lon="-8.495791">
        <ele>351.523</ele>
        <time>2020-09-01T05:10:17Z</time>
      </trkpt>
      <trkpt lat="42.381212" lon="-8.495356">
        <ele>356.125</ele>
        <time>2020-09-01T05:10:26Z</time>
      </trkpt>
      <trkpt lat="42.381973" lon="-8.494597">
        <ele>368.208</ele>
        <time>2020-09-01T05:10:51Z</time>
      </trkpt>
      <trkpt lat="42.382063" lon="-8.494283">
        <ele>372.534</ele>
        <time>2020-09-01T05:10:58Z</time>
      </trkpt>
      <trkpt lat="42.381253" lon="-8.494341">
        <ele>377.514</ele>
        <time>2020-09-01T05:11:21Z</time>
      </trkpt>
      <trkpt lat="42.380733" lon="-8.493529">
        <ele>382.388</ele>
        <time>2020-09-01T05:11:42Z</time>
      </trkpt>
      <trkpt lat="42.380316" lon="-8.493148">
        <ele>378.935</ele>
        <time>2020-09-01T05:11:56Z</time>
      </trkpt>
      <trkpt lat="42.379934" lon="-8.492426">
        <ele>380.834</ele>
        <time>2020-09-01T05:12:13Z</time>
      </trkpt>
      <trkpt lat="42.379864" lon="-8.490593">
        <ele>385.676</ele>
        <time>2020-09-01T05:12:50Z</time>
      </trkpt>
      <trkpt lat="42.380296" lon="-8.490154">
        <ele>391.370</ele>
        <time>2020-09-01T05:13:06Z</time>
      </trkpt>
      <trkpt lat="42.379701" lon="-8.488218">
        <ele>397.264</ele>
        <time>2020-09-01T05:13:47Z</time>
      </trkpt>
      <trkpt lat="42.379607" lon="-8.487089">
        <ele>404.845</ele>
        <time>2020-09-01T05:14:10Z</time>
      </trkpt>
      <trkpt lat="42.379182" lon="-8.485601">
        <ele>423.347</ele>
        <time>2020-09-01T05:14:42Z</time>
      </trkpt>
      <trkpt lat="42.377860" lon="-8.485467">
        <ele>431.911</ele>
        <time>2020-09-01T05:15:18Z</time>
      </trkpt>
      <trkpt lat="42.376900" lon="-8.487458">
        <ele>439.708</ele>
        <time>2020-09-01T05:16:05Z</time>
      </trkpt>
      <trkpt lat="42.375810" lon="-8.488431">
        <ele>452.939</ele>
        <time>2020-09-01T05:16:40Z</time>
      </trkpt>
      <trkpt lat="42.374328" lon="-8.489148">
        <ele>468.749</ele>
        <time>2020-09-01T05:17:23Z</time>
      </trkpt>
      <trkpt lat="42.373426" lon="-8.490283">
        <ele>470.323</ele>
        <time>2020-09-01T05:17:56Z</time>
      </trkpt>
      <trkpt lat="42.373043" lon="-8.490222">
        <ele>471.160</ele>
        <time>2020-09-01T05:18:06Z</time>
      </trkpt>
      <trkpt lat="42.372505" lon="-8.490375">
        <ele>476.599</ele>
        <time>2020-09-01T05:18:21Z</time>
      </trkpt>
      <trkpt lat="42.371562" lon="-8.489518">
        <ele>499.611</ele>
        <time>2020-09-01T05:18:52Z</time>
      </trkpt>
      <trkpt lat="42.370832" lon="-8.489197">
        <ele>496.545</ele>
        <time>2020-09-01T05:19:13Z</time>
      </trkpt>
      <trkpt lat="42.370472" lon="-8.487783">
        <ele>508.659</ele>
        <time>2020-09-01T05:19:43Z</time>
      </trkpt>
      <trkpt lat="42.370286" lon="-8.487583">
        <ele>504.626</ele>
        <time>2020-09-01T05:19:49Z</time>
      </trkpt>
      <trkpt lat="42.369894" lon="-8.487514">
        <ele>507.247</ele>
        <time>2020-09-01T05:20:00Z</time>
      </trkpt>
      <trkpt lat="42.369632" lon="-8.488310">
        <ele>507.411</ele>
        <time>2020-09-01T05:20:18Z</time>
      </trkpt>
      <trkpt lat="42.369674" lon="-8.489414">
        <ele>501.908</ele>
        <time>2020-09-01T05:20:39Z</time>
      </trkpt>
      <trkpt lat="42.369397" lon="-8.490582">
        <ele>498.167</ele>
        <time>2020-09-01T05:21:04Z</time>
      </trkpt>
      <trkpt lat="42.369525" lon="-8.491749">
        <ele>487.967</ele>
        <time>2020-09-01T05:21:27Z</time>
      </trkpt>
      <trkpt lat="42.369323" lon="-8.491858">
        <ele>485.021</ele>
        <time>2020-09-01T05:21:33Z</time>
      </trkpt>
      <trkpt lat="42.368903" lon="-8.491620">
        <ele>480.838</ele>
        <time>2020-09-01T05:21:46Z</time>
      </trkpt>
      <trkpt lat="42.368364" lon="-8.491615">
        <ele>475.997</ele>
        <time>2020-09-01T05:22:00Z</time>
      </trkpt>
      <trkpt lat="42.368408" lon="-8.492672">
        <ele>471.389</ele>
        <time>2020-09-01T05:22:21Z</time>
      </trkpt>
      <trkpt lat="42.368197" lon="-8.494721">
        <ele>468.443</ele>
        <time>2020-09-01T05:23:02Z</time>
      </trkpt>
      <trkpt lat="42.367415" lon="-8.496574">
        <ele>463.267</ele>
        <time>2020-09-01T05:23:49Z</time>
      </trkpt>
      <trkpt lat="42.367750" lon="-8.500984">
        <ele>462.343</ele>
        <time>2020-09-01T05:25:18Z</time>
      </trkpt>
      <trkpt lat="42.368791" lon="-8.503757">
        <ele>459.464</ele>
        <time>2020-09-01T05:26:21Z</time>
      </trkpt>
      <trkpt lat="42.368894" lon="-8.504744">
        <ele>456.710</ele>
        <time>2020-09-01T05:26:40Z</time>
      </trkpt>
      <trkpt lat="42.368844" lon="-8.505652">
        <ele>451.908</ele>
        <time>2020-09-01T05:26:58Z</time>
      </trkpt>
      <trkpt lat="42.368482" lon="-8.507253">
        <ele>441.749</ele>
        <time>2020-09-01T05:27:32Z</time>
      </trkpt>
      <trkpt lat="42.367846" lon="-8.507967">
        <ele>428.589</ele>
        <time>2020-09-01T05:27:54Z</time>
      </trkpt>
      <trkpt lat="42.367134" lon="-8.507794">
        <ele>418.413</ele>
        <time>2020-09-01T05:28:14Z</time>
      </trkpt>
      <trkpt lat="42.366729" lon="-8.507127">
        <ele>418.690</ele>
        <time>2020-09-01T05:28:31Z</time>
      </trkpt>
      <trkpt lat="42.366350" lon="-8.506956">
        <ele>416.439</ele>
        <time>2020-09-01T05:28:42Z</time>
      </trkpt>
      <trkpt lat="42.366154" lon="-8.506423">
        <ele>414.071</ele>
        <time>2020-09-01T05:28:55Z</time>
      </trkpt>
      <trkpt lat="42.365691" lon="-8.506065">
        <ele>417.655</ele>
        <time>2020-09-01T05:29:10Z</time>
      </trkpt>
      <trkpt lat="42.365371" lon="-8.506312">
        <ele>419.319</ele>
        <time>2020-09-01T05:29:20Z</time>
      </trkpt>
      <trkpt lat="42.364926" lon="-8.506353">
        <ele>424.049</ele>
        <time>2020-09-01T05:29:32Z</time>
      </trkpt>
      <trkpt lat="42.364422" lon="-8.506787">
        <ele>425.102</ele>
        <time>2020-09-01T05:29:49Z</time>
      </trkpt>
      <trkpt lat="42.363791" lon="-8.506590">
        <ele>432.022</ele>
        <time>2020-09-01T05:30:07Z</time>
      </trkpt>
      <trkpt lat="42.363383" lon="-8.506189">
        <ele>441.608</ele>
        <time>2020-09-01T05:30:21Z</time>
      </trkpt>
      <trkpt lat="42.362869" lon="-8.506119">
        <ele>448.969</ele>
        <time>2020-09-01T05:30:35Z</time>
      </trkpt>
      <trkpt lat="42.362624" lon="-8.505927">
        <ele>454.489</ele>
        <time>2020-09-01T05:30:43Z</time>
      </trkpt>
      <trkpt lat="42.362515" lon="-8.505277">
        <ele>455.023</ele>
        <time>2020-09-01T05:30:56Z</time>
      </trkpt>
      <trkpt lat="42.362889" lon="-8.505055">
        <ele>454.250</ele>
        <time>2020-09-01T05:31:08Z</time>
      </trkpt>
      <trkpt lat="42.362942" lon="-8.504847">
        <ele>453.529</ele>
        <time>2020-09-01T05:31:12Z</time>
      </trkpt>
      <trkpt lat="42.362409" lon="-8.504596">
        <ele>443.851</ele>
        <time>2020-09-01T05:31:28Z</time>
      </trkpt>
      <trkpt lat="42.362182" lon="-8.503784">
        <ele>437.925</ele>
        <time>2020-09-01T05:31:45Z</time>
      </trkpt>
      <trkpt lat="42.361890" lon="-8.503361">
        <ele>432.699</ele>
        <time>2020-09-01T05:31:57Z</time>
      </trkpt>
      <trkpt lat="42.361414" lon="-8.502995">
        <ele>428.281</ele>
        <time>2020-09-01T05:32:11Z</time>
      </trkpt>
      <trkpt lat="42.360894" lon="-8.503077">
        <ele>429.161</ele>
        <time>2020-09-01T05:32:26Z</time>
      </trkpt>
      <trkpt lat="42.360652" lon="-8.503319">
        <ele>429.017</ele>
        <time>2020-09-01T05:32:34Z</time>
      </trkpt>
      <trkpt lat="42.360582" lon="-8.503960">
        <ele>428.008</ele>
        <time>2020-09-01T05:32:48Z</time>
      </trkpt>
      <trkpt lat="42.359366" lon="-8.502390">
        <ele>406.953</ele>
        <time>2020-09-01T05:33:34Z</time>
      </trkpt>
      <trkpt lat="42.358947" lon="-8.502018">
        <ele>403.373</ele>
        <time>2020-09-01T05:33:47Z</time>
      </trkpt>
      <trkpt lat="42.358526" lon="-8.501867">
        <ele>398.637</ele>
        <time>2020-09-01T05:33:59Z</time>
      </trkpt>
      <trkpt lat="42.358973" lon="-8.501573">
        <ele>396.614</ele>
        <time>2020-09-01T05:34:13Z</time>
      </trkpt>
      <trkpt lat="42.358836" lon="-8.500917">
        <ele>398.273</ele>
        <time>2020-09-01T05:34:27Z</time>
      </trkpt>
      <trkpt lat="42.359444" lon="-8.498851">
        <ele>398.675</ele>
        <time>2020-09-01T05:35:12Z</time>
      </trkpt>
      <trkpt lat="42.360080" lon="-8.498436">
        <ele>397.789</ele>
        <time>2020-09-01T05:35:32Z</time>
      </trkpt>
      <trkpt lat="42.360397" lon="-8.496558">
        <ele>387.533</ele>
        <time>2020-09-01T05:36:10Z</time>
      </trkpt>
      <trkpt lat="42.360219" lon="-8.495771">
        <ele>378.887</ele>
        <time>2020-09-01T05:36:27Z</time>
      </trkpt>
      <trkpt lat="42.359870" lon="-8.495294">
        <ele>370.142</ele>
        <time>2020-09-01T05:36:40Z</time>
      </trkpt>
      <trkpt lat="42.359072" lon="-8.495521">
        <ele>356.826</ele>
        <time>2020-09-01T05:37:02Z</time>
      </trkpt>
      <trkpt lat="42.358811" lon="-8.495727">
        <ele>351.808</ele>
        <time>2020-09-01T05:37:10Z</time>
      </trkpt>
      <trkpt lat="42.358854" lon="-8.494472">
        <ele>345.933</ele>
        <time>2020-09-01T05:37:36Z</time>
      </trkpt>
      <trkpt lat="42.358436" lon="-8.493715">
        <ele>330.073</ele>
        <time>2020-09-01T05:37:55Z</time>
      </trkpt>
      <trkpt lat="42.358879" lon="-8.492829">
        <ele>318.977</ele>
        <time>2020-09-01T05:38:17Z</time>
      </trkpt>
      <trkpt lat="42.358687" lon="-8.492239">
        <ele>317.644</ele>
        <time>2020-09-01T05:38:31Z</time>
      </trkpt>
      <trkpt lat="42.358262" lon="-8.491998">
        <ele>321.743</ele>
        <time>2020-09-01T05:38:43Z</time>
      </trkpt>
      <trkpt lat="42.357956" lon="-8.490411">
        <ele>330.015</ele>
        <time>2020-09-01T05:39:16Z</time>
      </trkpt>
      <trkpt lat="42.357418" lon="-8.490838">
        <ele>328.499</ele>
        <time>2020-09-01T05:39:33Z</time>
      </trkpt>
      <trkpt lat="42.356984" lon="-8.490682">
        <ele>324.113</ele>
        <time>2020-09-01T05:39:45Z</time>
      </trkpt>
      <trkpt lat="42.356682" lon="-8.490729">
        <ele>322.073</ele>
        <time>2020-09-01T05:39:53Z</time>
      </trkpt>
      <trkpt lat="42.356184" lon="-8.491090">
        <ele>319.185</ele>
        <time>2020-09-01T05:40:08Z</time>
      </trkpt>
      <trkpt lat="42.355224" lon="-8.491440">
        <ele>316.513</ele>
        <time>2020-09-01T05:40:35Z</time>
      </trkpt>
      <trkpt lat="42.354774" lon="-8.491930">
        <ele>313.308</ele>
        <time>2020-09-01T05:40:51Z</time>
      </trkpt>
      <trkpt lat="42.354545" lon="-8.492001">
        <ele>315.942</ele>
        <time>2020-09-01T05:40:57Z</time>
      </trkpt>
      <trkpt lat="42.354039" lon="-8.491774">
        <ele>314.352</ele>
        <time>2020-09-01T05:41:11Z</time>
      </trkpt>
      <trkpt lat="42.352625" lon="-8.490582">
        <ele>293.686</ele>
        <time>2020-09-01T05:41:56Z</time>
      </trkpt>
      <trkpt lat="42.351497" lon="-8.489961">
        <ele>278.863</ele>
        <time>2020-09-01T05:42:28Z</time>
      </trkpt>
      <trkpt lat="42.349605" lon="-8.489407">
        <ele>256.062</ele>
        <time>2020-09-01T05:43:20Z</time>
      </trkpt>
      <trkpt lat="42.348968" lon="-8.488805">
        <ele>246.644</ele>
        <time>2020-09-01T05:43:41Z</time>
      </trkpt>
      <trkpt lat="42.347811" lon="-8.489112">
        <ele>244.128</ele>
        <time>2020-09-01T05:44:13Z</time>
      </trkpt>
      <trkpt lat="42.347093" lon="-8.489601">
        <ele>233.962</ele>
        <time>2020-09-01T05:44:34Z</time>
      </trkpt>
      <trkpt lat="42.346587" lon="-8.489646">
        <ele>205.466</ele>
        <time>2020-09-01T05:44:48Z</time>
      </trkpt>
      <trkpt lat="42.346062" lon="-8.490581">
        <ele>244.029</ele>
        <time>2020-09-01T05:45:12Z</time>
      </trkpt>
      <trkpt lat="42.346485" lon="-8.491788">
        <ele>231.221</ele>
        <time>2020-09-01T05:45:39Z</time>
      </trkpt>
      <trkpt lat="42.345691" lon="-8.495777">
        <ele>209.408</ele>
        <time>2020-09-01T05:47:01Z</time>
      </trkpt>
      <trkpt lat="42.345987" lon="-8.496376">
        <ele>209.221</ele>
        <time>2020-09-01T05:47:16Z</time>
      </trkpt>
      <trkpt lat="42.346745" lon="-8.496776">
        <ele>201.331</ele>
        <time>2020-09-01T05:47:38Z</time>
      </trkpt>
      <trkpt lat="42.346986" lon="-8.497223">
        <ele>201.445</ele>
        <time>2020-09-01T05:47:49Z</time>
      </trkpt>
      <trkpt lat="42.346643" lon="-8.497700">
        <ele>201.262</ele>
        <time>2020-09-01T05:48:03Z</time>
      </trkpt>
      <trkpt lat="42.346089" lon="-8.497753">
        <ele>203.811</ele>
        <time>2020-09-01T05:48:18Z</time>
      </trkpt>
      <trkpt lat="42.345257" lon="-8.498728">
        <ele>206.353</ele>
        <time>2020-09-01T05:48:47Z</time>
      </trkpt>
      <trkpt lat="42.345470" lon="-8.499531">
        <ele>201.537</ele>
        <time>2020-09-01T05:49:04Z</time>
      </trkpt>
      <trkpt lat="42.345590" lon="-8.501315">
        <ele>200.551</ele>
        <time>2020-09-01T05:49:40Z</time>
      </trkpt>
      <trkpt lat="42.345345" lon="-8.502303">
        <ele>202.654</ele>
        <time>2020-09-01T05:50:01Z</time>
      </trkpt>
      <trkpt lat="42.345389" lon="-8.502922">
        <ele>202.856</ele>
        <time>2020-09-01T05:50:13Z</time>
      </trkpt>
      <trkpt lat="42.345782" lon="-8.504146">
        <ele>201.611</ele>
        <time>2020-09-01T05:50:39Z</time>
      </trkpt>
      <trkpt lat="42.346512" lon="-8.504725">
        <ele>198.508</ele>
        <time>2020-09-01T05:51:02Z</time>
      </trkpt>
      <trkpt lat="42.346628" lon="-8.505001">
        <ele>200.290</ele>
        <time>2020-09-01T05:51:09Z</time>
      </trkpt>
      <trkpt lat="42.346423" lon="-8.508238">
        <ele>200.530</ele>
        <time>2020-09-01T05:52:14Z</time>
      </trkpt>
      <trkpt lat="42.343902" lon="-8.512425">
        <ele>200.034</ele>
        <time>2020-09-01T05:54:02Z</time>
      </trkpt>
      <trkpt lat="42.343414" lon="-8.513745">
        <ele>200.571</ele>
        <time>2020-09-01T05:54:31Z</time>
      </trkpt>
      <trkpt lat="42.343234" lon="-8.513795">
        <ele>200.010</ele>
        <time>2020-09-01T05:54:36Z</time>
      </trkpt>
      <trkpt lat="42.342399" lon="-8.513368">
        <ele>200.142</ele>
        <time>2020-09-01T05:55:00Z</time>
      </trkpt>
      <trkpt lat="42.341617" lon="-8.512644">
        <ele>202.076</ele>
        <time>2020-09-01T05:55:26Z</time>
      </trkpt>
      <trkpt lat="42.341462" lon="-8.512679">
        <ele>204.090</ele>
        <time>2020-09-01T05:55:30Z</time>
      </trkpt>
      <trkpt lat="42.341508" lon="-8.513259">
        <ele>203.023</ele>
        <time>2020-09-01T05:55:42Z</time>
      </trkpt>
      <trkpt lat="42.341990" lon="-8.514810">
        <ele>199.783</ele>
        <time>2020-09-01T05:56:16Z</time>
      </trkpt>
      <trkpt lat="42.341680" lon="-8.516597">
        <ele>200.111</ele>
        <time>2020-09-01T05:56:52Z</time>
      </trkpt>
      <trkpt lat="42.342085" lon="-8.517788">
        <ele>202.408</ele>
        <time>2020-09-01T05:57:19Z</time>
      </trkpt>
      <trkpt lat="42.342499" lon="-8.518036">
        <ele>201.957</ele>
        <time>2020-09-01T05:57:31Z</time>
      </trkpt>
      <trkpt lat="42.342602" lon="-8.518493">
        <ele>198.797</ele>
        <time>2020-09-01T05:57:41Z</time>
      </trkpt>
      <trkpt lat="42.342333" lon="-8.518819">
        <ele>198.361</ele>
        <time>2020-09-01T05:57:51Z</time>
      </trkpt>
      <trkpt lat="42.341595" lon="-8.518976">
        <ele>198.358</ele>
        <time>2020-09-01T05:58:11Z</time>
      </trkpt>
      <trkpt lat="42.341046" lon="-8.518640">
        <ele>200.897</ele>
        <time>2020-09-01T05:58:28Z</time>
      </trkpt>
      <trkpt lat="42.340881" lon="-8.518678">
        <ele>203.289</ele>
        <time>2020-09-01T05:58:32Z</time>
      </trkpt>
      <trkpt lat="42.341026" lon="-8.519735">
        <ele>201.763</ele>
        <time>2020-09-01T05:58:55Z</time>
      </trkpt>
      <trkpt lat="42.340958" lon="-8.520744">
        <ele>197.167</ele>
        <time>2020-09-01T05:59:15Z</time>
      </trkpt>
      <trkpt lat="42.340606" lon="-8.520915">
        <ele>199.434</ele>
        <time>2020-09-01T05:59:25Z</time>
      </trkpt>
      <trkpt lat="42.340211" lon="-8.521356">
        <ele>200.255</ele>
        <time>2020-09-01T05:59:39Z</time>
      </trkpt>
      <trkpt lat="42.339764" lon="-8.522207">
        <ele>198.010</ele>
        <time>2020-09-01T06:00:00Z</time>
      </trkpt>
      <trkpt lat="42.339216" lon="-8.522303">
        <ele>199.608</ele>
        <time>2020-09-01T06:00:15Z</time>
      </trkpt>
      <trkpt lat="42.338771" lon="-8.522592">
        <ele>198.048</ele>
        <time>2020-09-01T06:00:28Z</time>
      </trkpt>
      <trkpt lat="42.338048" lon="-8.522705">
        <ele>201.488</ele>
        <time>2020-09-01T06:00:47Z</time>
      </trkpt>
      <trkpt lat="42.337397" lon="-8.523704">
        <ele>201.792</ele>
        <time>2020-09-01T06:01:14Z</time>
      </trkpt>
      <trkpt lat="42.337135" lon="-8.524348">
        <ele>203.019</ele>
        <time>2020-09-01T06:01:29Z</time>
      </trkpt>
      <trkpt lat="42.337051" lon="-8.525254">
        <ele>197.598</ele>
        <time>2020-09-01T06:01:47Z</time>
      </trkpt>
      <trkpt lat="42.336687" lon="-8.525537">
        <ele>198.370</ele>
        <time>2020-09-01T06:01:58Z</time>
      </trkpt>
      <trkpt lat="42.336527" lon="-8.525961">
        <ele>198.584</ele>
        <time>2020-09-01T06:02:08Z</time>
      </trkpt>
      <trkpt lat="42.336177" lon="-8.526319">
        <ele>199.818</ele>
        <time>2020-09-01T06:02:20Z</time>
      </trkpt>
      <trkpt lat="42.335925" lon="-8.527217">
        <ele>199.271</ele>
        <time>2020-09-01T06:02:39Z</time>
      </trkpt>
      <trkpt lat="42.336056" lon="-8.528127">
        <ele>198.741</ele>
        <time>2020-09-01T06:02:57Z</time>
      </trkpt>
      <trkpt lat="42.335214" lon="-8.530663">
        <ele>199.115</ele>
        <time>2020-09-01T06:03:53Z</time>
      </trkpt>
      <trkpt lat="42.335393" lon="-8.531310">
        <ele>195.808</ele>
        <time>2020-09-01T06:04:07Z</time>
      </trkpt>
      <trkpt lat="42.335238" lon="-8.532583">
        <ele>198.762</ele>
        <time>2020-09-01T06:04:33Z</time>
      </trkpt>
      <trkpt lat="42.335398" lon="-8.533643">
        <ele>196.292</ele>
        <time>2020-09-01T06:04:54Z</time>
      </trkpt>
      <trkpt lat="42.334856" lon="-8.534437">
        <ele>195.386</ele>
        <time>2020-09-01T06:05:16Z</time>
      </trkpt>
      <trkpt lat="42.334549" lon="-8.534562">
        <ele>195.573</ele>
        <time>2020-09-01T06:05:25Z</time>
      </trkpt>
      <trkpt lat="42.333895" lon="-8.534506">
        <ele>195.352</ele>
        <time>2020-09-01T06:05:42Z</time>
      </trkpt>
      <trkpt lat="42.332697" lon="-8.533552">
        <ele>198.594</ele>
        <time>2020-09-01T06:06:20Z</time>
      </trkpt>
      <trkpt lat="42.332433" lon="-8.533647">
        <ele>198.178</ele>
        <time>2020-09-01T06:06:27Z</time>
      </trkpt>
      <trkpt lat="42.331579" lon="-8.534566">
        <ele>196.412</ele>
        <time>2020-09-01T06:06:57Z</time>
      </trkpt>
      <trkpt lat="42.330949" lon="-8.535017">
        <ele>196.269</ele>
        <time>2020-09-01T06:07:16Z</time>
      </trkpt>
      <trkpt lat="42.330144" lon="-8.534867">
        <ele>198.504</ele>
        <time>2020-09-01T06:07:38Z</time>
      </trkpt>
      <trkpt lat="42.328804" lon="-8.535025">
        <ele>195.924</ele>
        <time>2020-09-01T06:08:14Z</time>
      </trkpt>
      <trkpt lat="42.328405" lon="-8.534862">
        <ele>196.008</ele>
        <time>2020-09-01T06:08:25Z</time>
      </trkpt>
      <trkpt lat="42.327640" lon="-8.534012">
        <ele>197.821</ele>
        <time>2020-09-01T06:08:52Z</time>
      </trkpt>
      <trkpt lat="42.327123" lon="-8.533937">
        <ele>194.891</ele>
        <time>2020-09-01T06:09:06Z</time>
      </trkpt>
      <trkpt lat="42.326690" lon="-8.533517">
        <ele>197.645</ele>
        <time>2020-09-01T06:09:20Z</time>
      </trkpt>
      <trkpt lat="42.326382" lon="-8.533908">
        <ele>196.552</ele>
        <time>2020-09-01T06:09:32Z</time>
      </trkpt>
      <trkpt lat="42.325587" lon="-8.534408">
        <ele>195.051</ele>
        <time>2020-09-01T06:09:55Z</time>
      </trkpt>
      <trkpt lat="42.325134" lon="-8.534564">
        <ele>195.393</ele>
        <time>2020-09-01T06:10:08Z</time>
      </trkpt>
      <trkpt lat="42.324528" lon="-8.534467">
        <ele>196.867</ele>
        <time>2020-09-01T06:10:24Z</time>
      </trkpt>
      <trkpt lat="42.322510" lon="-8.535822">
        <ele>194.081</ele>
        <time>2020-09-01T06:11:25Z</time>
      </trkpt>
      <trkpt lat="42.321717" lon="-8.536069">
        <ele>194.626</ele>
        <time>2020-09-01T06:11:47Z</time>
      </trkpt>
      <trkpt lat="42.321191" lon="-8.535793">
        <ele>196.647</ele>
        <time>2020-09-01T06:12:02Z</time>
      </trkpt>
      <trkpt lat="42.319098" lon="-8.536211">
        <ele>192.711</ele>
        <time>2020-09-01T06:12:59Z</time>
      </trkpt>
      <trkpt lat="42.318954" lon="-8.536070">
        <ele>191.908</ele>
        <time>2020-09-01T06:13:04Z</time>
      </trkpt>
      <trkpt lat="42.318923" lon="-8.535537">
        <ele>193.937</ele>
        <time>2020-09-01T06:13:15Z</time>
      </trkpt>
      <trkpt lat="42.318724" lon="-8.535387">
        <ele>195.857</ele>
        <time>2020-09-01T06:13:21Z</time>
      </trkpt>
      <trkpt lat="42.317829" lon="-8.535914">
        <ele>193.071</ele>
        <time>2020-09-01T06:13:48Z</time>
      </trkpt>
      <trkpt lat="42.316793" lon="-8.535425">
        <ele>196.898</ele>
        <time>2020-09-01T06:14:18Z</time>
      </trkpt>
      <trkpt lat="42.316110" lon="-8.536012">
        <ele>193.867</ele>
        <time>2020-09-01T06:14:40Z</time>
      </trkpt>
      <trkpt lat="42.315833" lon="-8.535533">
        <ele>193.829</ele>
        <time>2020-09-01T06:14:52Z</time>
      </trkpt>
      <trkpt lat="42.315150" lon="-8.535137">
        <ele>197.233</ele>
        <time>2020-09-01T06:15:12Z</time>
      </trkpt>
      <trkpt lat="42.314246" lon="-8.536259">
        <ele>194.197</ele>
        <time>2020-09-01T06:15:45Z</time>
      </trkpt>
      <trkpt lat="42.314036" lon="-8.536811">
        <ele>192.215</ele>
        <time>2020-09-01T06:15:58Z</time>
      </trkpt>
      <trkpt lat="42.313768" lon="-8.536938">
        <ele>192.265</ele>
        <time>2020-09-01T06:16:06Z</time>
      </trkpt>
      <trkpt lat="42.312882" lon="-8.536615">
        <ele>193.611</ele>
        <time>2020-09-01T06:16:30Z</time>
      </trkpt>
      <trkpt lat="42.311941" lon="-8.535685">
        <ele>193.208</ele>
        <time>2020-09-01T06:17:01Z</time>
      </trkpt>
      <trkpt lat="42.311604" lon="-8.535765">
        <ele>194.486</ele>
        <time>2020-09-01T06:17:11Z</time>
      </trkpt>
      <trkpt lat="42.311458" lon="-8.536264">
        <ele>191.886</ele>
        <time>2020-09-01T06:17:22Z</time>
      </trkpt>
      <trkpt lat="42.311060" lon="-8.536104">
        <ele>191.870</ele>
        <time>2020-09-01T06:17:33Z</time>
      </trkpt>
      <trkpt lat="42.310514" lon="-8.534972">
        <ele>194.397</ele>
        <time>2020-09-01T06:18:01Z</time>
      </trkpt>
      <trkpt lat="42.309703" lon="-8.535207">
        <ele>193.076</ele>
        <time>2020-09-01T06:18:23Z</time>
      </trkpt>
      <trkpt lat="42.308703" lon="-8.534943">
        <ele>192.758</ele>
        <time>2020-09-01T06:18:51Z</time>
      </trkpt>
      <trkpt lat="42.308292" lon="-8.534614">
        <ele>192.662</ele>
        <time>2020-09-01T06:19:03Z</time>
      </trkpt>
      <trkpt lat="42.308021" lon="-8.533840">
        <ele>193.426</ele>
        <time>2020-09-01T06:19:21Z</time>
      </trkpt>
      <trkpt lat="42.307611" lon="-8.534248">
        <ele>193.239</ele>
        <time>2020-09-01T06:19:35Z</time>
      </trkpt>
      <trkpt lat="42.307300" lon="-8.535113">
        <ele>192.301</ele>
        <time>2020-09-01T06:19:54Z</time>
      </trkpt>
      <trkpt lat="42.306977" lon="-8.535284">
        <ele>191.921</ele>
        <time>2020-09-01T06:20:03Z</time>
      </trkpt>
      <trkpt lat="42.306660" lon="-8.535145">
        <ele>191.808</ele>
        <time>2020-09-01T06:20:13Z</time>
      </trkpt>
      <trkpt lat="42.306814" lon="-8.534482">
        <ele>194.238</ele>
        <time>2020-09-01T06:20:27Z</time>
      </trkpt>
      <trkpt lat="42.306564" lon="-8.533984">
        <ele>193.528</ele>
        <time>2020-09-01T06:20:39Z</time>
      </trkpt>
      <trkpt lat="42.306293" lon="-8.534067">
        <ele>192.772</ele>
        <time>2020-09-01T06:20:47Z</time>
      </trkpt>
      <trkpt lat="42.305613" lon="-8.534792">
        <ele>191.149</ele>
        <time>2020-09-01T06:21:10Z</time>
      </trkpt>
      <trkpt lat="42.304788" lon="-8.534386">
        <ele>192.728</ele>
        <time>2020-09-01T06:21:34Z</time>
      </trkpt>
      <trkpt lat="42.304282" lon="-8.533507">
        <ele>192.050</ele>
        <time>2020-09-01T06:21:57Z</time>
      </trkpt>
      <trkpt lat="42.304480" lon="-8.532481">
        <ele>192.044</ele>
        <time>2020-09-01T06:22:18Z</time>
      </trkpt>
      <trkpt lat="42.305299" lon="-8.532094">
        <ele>191.838</ele>
        <time>2020-09-01T06:22:42Z</time>
      </trkpt>
      <trkpt lat="42.305839" lon="-8.531642">
        <ele>190.647</ele>
        <time>2020-09-01T06:22:59Z</time>
      </trkpt>
      <trkpt lat="42.306082" lon="-8.531167">
        <ele>190.129</ele>
        <time>2020-09-01T06:23:10Z</time>
      </trkpt>
      <trkpt lat="42.306637" lon="-8.530947">
        <ele>192.121</ele>
        <time>2020-09-01T06:23:26Z</time>
      </trkpt>
      <trkpt lat="42.306871" lon="-8.530624">
        <ele>190.908</ele>
        <time>2020-09-01T06:23:35Z</time>
      </trkpt>
      <trkpt lat="42.306738" lon="-8.530391">
        <ele>189.559</ele>
        <time>2020-09-01T06:23:41Z</time>
      </trkpt>
      <trkpt lat="42.305839" lon="-8.530002">
        <ele>191.029</ele>
        <time>2020-09-01T06:24:06Z</time>
      </trkpt>
      <trkpt lat="42.305160" lon="-8.531142">
        <ele>190.033</ele>
        <time>2020-09-01T06:24:35Z</time>
      </trkpt>
      <trkpt lat="42.304921" lon="-8.531290">
        <ele>189.870</ele>
        <time>2020-09-01T06:24:43Z</time>
      </trkpt>
      <trkpt lat="42.304537" lon="-8.531260">
        <ele>189.949</ele>
        <time>2020-09-01T06:24:53Z</time>
      </trkpt>
      <trkpt lat="42.304297" lon="-8.530281">
        <ele>192.811</ele>
        <time>2020-09-01T06:25:14Z</time>
      </trkpt>
      <trkpt lat="42.303991" lon="-8.530437">
        <ele>192.855</ele>
        <time>2020-09-01T06:25:23Z</time>
      </trkpt>
      <trkpt lat="42.303455" lon="-8.531543">
        <ele>191.779</ele>
        <time>2020-09-01T06:25:50Z</time>
      </trkpt>
      <trkpt lat="42.303239" lon="-8.532670">
        <ele>190.474</ele>
        <time>2020-09-01T06:26:13Z</time>
      </trkpt>
      <trkpt lat="42.302524" lon="-8.533428">
        <ele>189.456</ele>
        <time>2020-09-01T06:26:38Z</time>
      </trkpt>
      <trkpt lat="42.301910" lon="-8.533324">
        <ele>193.521</ele>
        <time>2020-09-01T06:26:55Z</time>
      </trkpt>
      <trkpt lat="42.301607" lon="-8.533834">
        <ele>190.908</ele>
        <time>2020-09-01T06:27:08Z</time>
      </trkpt>
      <trkpt lat="42.301225" lon="-8.533941">
        <ele>191.052</ele>
        <time>2020-09-01T06:27:18Z</time>
      </trkpt>
      <trkpt lat="42.300837" lon="-8.534422">
        <ele>189.352</ele>
        <time>2020-09-01T06:27:33Z</time>
      </trkpt>
      <trkpt lat="42.299734" lon="-8.534281">
        <ele>190.916</ele>
        <time>2020-09-01T06:28:04Z</time>
      </trkpt>
      <trkpt lat="42.299406" lon="-8.533727">
        <ele>197.363</ele>
        <time>2020-09-01T06:28:18Z</time>
      </trkpt>
      <trkpt lat="42.299645" lon="-8.533178">
        <ele>208.432</ele>
        <time>2020-09-01T06:28:31Z</time>
      </trkpt>
      <trkpt lat="42.300491" lon="-8.533022">
        <ele>220.514</ele>
        <time>2020-09-01T06:28:55Z</time>
      </trkpt>
      <trkpt lat="42.300763" lon="-8.532481">
        <ele>231.028</ele>
        <time>2020-09-01T06:29:08Z</time>
      </trkpt>
      <trkpt lat="42.300120" lon="-8.532216">
        <ele>234.942</ele>
        <time>2020-09-01T06:29:27Z</time>
      </trkpt>
      <trkpt lat="42.299529" lon="-8.531465">
        <ele>234.553</ele>
        <time>2020-09-01T06:29:48Z</time>
      </trkpt>
      <trkpt lat="42.298897" lon="-8.531425">
        <ele>236.104</ele>
        <time>2020-09-01T06:30:05Z</time>
      </trkpt>
      <trkpt lat="42.298153" lon="-8.530871">
        <ele>234.314</ele>
        <time>2020-09-01T06:30:28Z</time>
      </trkpt>
      <trkpt lat="42.297570" lon="-8.530970">
        <ele>235.508</ele>
        <time>2020-09-01T06:30:44Z</time>
      </trkpt>
      <trkpt lat="42.296429" lon="-8.530645">
        <ele>234.830</ele>
        <time>2020-09-01T06:31:15Z</time>
      </trkpt>
      <trkpt lat="42.294980" lon="-8.531510">
        <ele>236.710</ele>
        <time>2020-09-01T06:31:58Z</time>
      </trkpt>
      <trkpt lat="42.294426" lon="-8.531607">
        <ele>236.324</ele>
        <time>2020-09-01T06:32:13Z</time>
      </trkpt>
      <trkpt lat="42.293792" lon="-8.532273">
        <ele>238.581</ele>
        <time>2020-09-01T06:32:34Z</time>
      </trkpt>
      <trkpt lat="42.293177" lon="-8.534717">
        <ele>244.490</ele>
        <time>2020-09-01T06:33:26Z</time>
      </trkpt>
      <trkpt lat="42.292975" lon="-8.534960">
        <ele>247.632</ele>
        <time>2020-09-01T06:33:33Z</time>
      </trkpt>
      <trkpt lat="42.292051" lon="-8.535456">
        <ele>248.826</ele>
        <time>2020-09-01T06:34:00Z</time>
      </trkpt>
      <trkpt lat="42.291790" lon="-8.535884">
        <ele>248.770</ele>
        <time>2020-09-01T06:34:11Z</time>
      </trkpt>
      <trkpt lat="42.291625" lon="-8.535806">
        <ele>250.584</ele>
        <time>2020-09-01T06:34:16Z</time>
      </trkpt>
      <trkpt lat="42.291365" lon="-8.535228">
        <ele>247.507</ele>
        <time>2020-09-01T06:34:29Z</time>
      </trkpt>
      <trkpt lat="42.290855" lon="-8.534962">
        <ele>243.617</ele>
        <time>2020-09-01T06:34:44Z</time>
      </trkpt>
      <trkpt lat="42.290445" lon="-8.534051">
        <ele>239.708</ele>
        <time>2020-09-01T06:35:06Z</time>
      </trkpt>
      <trkpt lat="42.290001" lon="-8.534036">
        <ele>237.693</ele>
        <time>2020-09-01T06:35:18Z</time>
      </trkpt>
      <trkpt lat="42.289532" lon="-8.534799">
        <ele>246.783</ele>
        <time>2020-09-01T06:35:38Z</time>
      </trkpt>
      <trkpt lat="42.289307" lon="-8.535495">
        <ele>254.687</ele>
        <time>2020-09-01T06:35:53Z</time>
      </trkpt>
      <trkpt lat="42.288881" lon="-8.535939">
        <ele>259.644</ele>
        <time>2020-09-01T06:36:07Z</time>
      </trkpt>
      <trkpt lat="42.288975" lon="-8.537249">
        <ele>271.593</ele>
        <time>2020-09-01T06:36:34Z</time>
      </trkpt>
      <trkpt lat="42.288883" lon="-8.537908">
        <ele>277.095</ele>
        <time>2020-09-01T06:36:47Z</time>
      </trkpt>
      <trkpt lat="42.287655" lon="-8.539329">
        <ele>302.339</ele>
        <time>2020-09-01T06:37:30Z</time>
      </trkpt>
      <trkpt lat="42.286217" lon="-8.540167">
        <ele>313.253</ele>
        <time>2020-09-01T06:38:12Z</time>
      </trkpt>
      <trkpt lat="42.285860" lon="-8.540242">
        <ele>315.894</ele>
        <time>2020-09-01T06:38:22Z</time>
      </trkpt>
      <trkpt lat="42.285727" lon="-8.540811">
        <ele>316.157</ele>
        <time>2020-09-01T06:38:34Z</time>
      </trkpt>
      <trkpt lat="42.285243" lon="-8.541636">
        <ele>315.422</ele>
        <time>2020-09-01T06:38:55Z</time>
      </trkpt>
      <trkpt lat="42.284467" lon="-8.541622">
        <ele>317.508</ele>
        <time>2020-09-01T06:39:16Z</time>
      </trkpt>
      <trkpt lat="42.283738" lon="-8.541847">
        <ele>328.684</ele>
        <time>2020-09-01T06:39:36Z</time>
      </trkpt>
      <trkpt lat="42.283352" lon="-8.542175">
        <ele>338.964</ele>
        <time>2020-09-01T06:39:49Z</time>
      </trkpt>
      <trkpt lat="42.283341" lon="-8.541737">
        <ele>340.848</ele>
        <time>2020-09-01T06:39:58Z</time>
      </trkpt>
      <trkpt lat="42.282954" lon="-8.541236">
        <ele>342.115</ele>
        <time>2020-09-01T06:40:12Z</time>
      </trkpt>
      <trkpt lat="42.281650" lon="-8.540658">
        <ele>340.744</ele>
        <time>2020-09-01T06:40:49Z</time>
      </trkpt>
      <trkpt lat="42.280888" lon="-8.540410">
        <ele>332.596</ele>
        <time>2020-09-01T06:41:10Z</time>
      </trkpt>
      <trkpt lat="42.280686" lon="-8.540787">
        <ele>331.210</ele>
        <time>2020-09-01T06:41:20Z</time>
      </trkpt>
      <trkpt lat="42.279816" lon="-8.540880">
        <ele>329.494</ele>
        <time>2020-09-01T06:41:44Z</time>
      </trkpt>
      <trkpt lat="42.279571" lon="-8.540638">
        <ele>322.194</ele>
        <time>2020-09-01T06:41:52Z</time>
      </trkpt>
      <trkpt lat="42.279413" lon="-8.540114">
        <ele>315.157</ele>
        <time>2020-09-01T06:42:04Z</time>
      </trkpt>
      <trkpt lat="42.279263" lon="-8.540023">
        <ele>311.222</ele>
        <time>2020-09-01T06:42:08Z</time>
      </trkpt>
      <trkpt lat="42.278942" lon="-8.540176">
        <ele>310.708</ele>
        <time>2020-09-01T06:42:18Z</time>
      </trkpt>
      <trkpt lat="42.277922" lon="-8.539322">
        <ele>305.654</ele>
        <time>2020-09-01T06:42:50Z</time>
      </trkpt>
      <trkpt lat="42.277562" lon="-8.538259">
        <ele>302.334</ele>
        <time>2020-09-01T06:43:14Z</time>
      </trkpt>
      <trkpt lat="42.276291" lon="-8.539745">
        <ele>331.848</ele>
        <time>2020-09-01T06:44:00Z</time>
      </trkpt>
      <trkpt lat="42.276134" lon="-8.540944">
        <ele>347.355</ele>
        <time>2020-09-01T06:44:24Z</time>
      </trkpt>
      <trkpt lat="42.276252" lon="-8.540995">
        <ele>350.774</ele>
        <time>2020-09-01T06:44:28Z</time>
      </trkpt>
      <trkpt lat="42.276492" lon="-8.540722">
        <ele>351.926</ele>
        <time>2020-09-01T06:44:36Z</time>
      </trkpt>
      <trkpt lat="42.276732" lon="-8.540808">
        <ele>354.850</ele>
        <time>2020-09-01T06:44:43Z</time>
      </trkpt>
      <trkpt lat="42.277623" lon="-8.542153">
        <ele>367.834</ele>
        <time>2020-09-01T06:45:19Z</time>
      </trkpt>
      <trkpt lat="42.277763" lon="-8.542743">
        <ele>372.151</ele>
        <time>2020-09-01T06:45:31Z</time>
      </trkpt>
      <trkpt lat="42.277639" lon="-8.543991">
        <ele>380.301</ele>
        <time>2020-09-01T06:45:56Z</time>
      </trkpt>
      <trkpt lat="42.277865" lon="-8.544435">
        <ele>383.511</ele>
        <time>2020-09-01T06:46:07Z</time>
      </trkpt>
      <trkpt lat="42.278363" lon="-8.544505">
        <ele>389.208</ele>
        <time>2020-09-01T06:46:21Z</time>
      </trkpt>
      <trkpt lat="42.278899" lon="-8.545014">
        <ele>396.950</ele>
        <time>2020-09-01T06:46:39Z</time>
      </trkpt>
      <trkpt lat="42.278872" lon="-8.546312">
        <ele>409.010</ele>
        <time>2020-09-01T06:47:06Z</time>
      </trkpt>
      <trkpt lat="42.279104" lon="-8.546477">
        <ele>412.144</ele>
        <time>2020-09-01T06:47:13Z</time>
      </trkpt>
      <trkpt lat="42.279942" lon="-8.546447">
        <ele>414.371</ele>
        <time>2020-09-01T06:47:35Z</time>
      </trkpt>
      <trkpt lat="42.282951" lon="-8.545137">
        <ele>417.150</ele>
        <time>2020-09-01T06:49:00Z</time>
      </trkpt>
      <trkpt lat="42.283255" lon="-8.545123">
        <ele>415.212</ele>
        <time>2020-09-01T06:49:08Z</time>
      </trkpt>
      <trkpt lat="42.283676" lon="-8.545581">
        <ele>412.286</ele>
        <time>2020-09-01T06:49:23Z</time>
      </trkpt>
      <trkpt lat="42.284007" lon="-8.546880">
        <ele>407.750</ele>
        <time>2020-09-01T06:49:50Z</time>
      </trkpt>
      <trkpt lat="42.283962" lon="-8.547275">
        <ele>408.581</ele>
        <time>2020-09-01T06:49:58Z</time>
      </trkpt>
      <trkpt lat="42.283581" lon="-8.547875">
        <ele>412.361</ele>
        <time>2020-09-01T06:50:14Z</time>
      </trkpt>
      <trkpt lat="42.282683" lon="-8.548473">
        <ele>422.717</ele>
        <time>2020-09-01T06:50:40Z</time>
      </trkpt>
      <trkpt lat="42.282220" lon="-8.549106">
        <ele>426.908</ele>
        <time>2020-09-01T06:50:58Z</time>
      </trkpt>
      <trkpt lat="42.281652" lon="-8.549511">
        <ele>431.843</ele>
        <time>2020-09-01T06:51:15Z</time>
      </trkpt>
      <trkpt lat="42.281338" lon="-8.549648">
        <ele>433.143</ele>
        <time>2020-09-01T06:51:24Z</time>
      </trkpt>
      <trkpt lat="42.280623" lon="-8.549539">
        <ele>442.867</ele>
        <time>2020-09-01T06:51:44Z</time>
      </trkpt>
      <trkpt lat="42.279903" lon="-8.550845">
        <ele>451.594</ele>
        <time>2020-09-01T06:52:16Z</time>
      </trkpt>
      <trkpt lat="42.279489" lon="-8.551222">
        <ele>454.743</ele>
        <time>2020-09-01T06:52:29Z</time>
      </trkpt>
      <trkpt lat="42.279119" lon="-8.551353">
        <ele>458.275</ele>
        <time>2020-09-01T06:52:40Z</time>
      </trkpt>
      <trkpt lat="42.278569" lon="-8.551303">
        <ele>463.529</ele>
        <time>2020-09-01T06:52:55Z</time>
      </trkpt>
      <trkpt lat="42.277734" lon="-8.551764">
        <ele>469.563</ele>
        <time>2020-09-01T06:53:19Z</time>
      </trkpt>
      <trkpt lat="42.276677" lon="-8.552009">
        <ele>476.594</ele>
        <time>2020-09-01T06:53:47Z</time>
      </trkpt>
      <trkpt lat="42.276072" lon="-8.551865">
        <ele>481.957</ele>
        <time>2020-09-01T06:54:04Z</time>
      </trkpt>
      <trkpt lat="42.275197" lon="-8.551114">
        <ele>488.622</ele>
        <time>2020-09-01T06:54:32Z</time>
      </trkpt>
      <trkpt lat="42.274479" lon="-8.549646">
        <ele>494.208</ele>
        <time>2020-09-01T06:55:07Z</time>
      </trkpt>
      <trkpt lat="42.274279" lon="-8.549492">
        <ele>495.464</ele>
        <time>2020-09-01T06:55:13Z</time>
      </trkpt>
      <trkpt lat="42.274001" lon="-8.549521">
        <ele>497.014</ele>
        <time>2020-09-01T06:55:21Z</time>
      </trkpt>
      <trkpt lat="42.273117" lon="-8.550507">
        <ele>505.288</ele>
        <time>2020-09-01T06:55:51Z</time>
      </trkpt>
      <trkpt lat="42.271810" lon="-8.553567">
        <ele>513.575</ele>
        <time>2020-09-01T06:57:01Z</time>
      </trkpt>
      <trkpt lat="42.271446" lon="-8.554021">
        <ele>517.184</ele>
        <time>2020-09-01T06:57:15Z</time>
      </trkpt>
      <trkpt lat="42.270468" lon="-8.554067">
        <ele>523.246</ele>
        <time>2020-09-01T06:57:41Z</time>
      </trkpt>
      <trkpt lat="42.270202" lon="-8.553943">
        <ele>527.570</ele>
        <time>2020-09-01T06:57:49Z</time>
      </trkpt>
      <trkpt lat="42.269465" lon="-8.552759">
        <ele>535.624</ele>
        <time>2020-09-01T06:58:19Z</time>
      </trkpt>
      <trkpt lat="42.268605" lon="-8.551742">
        <ele>541.353</ele>
        <time>2020-09-01T06:58:50Z</time>
      </trkpt>
      <trkpt lat="42.268268" lon="-8.551808">
        <ele>541.404</ele>
        <time>2020-09-01T06:58:59Z</time>
      </trkpt>
      <trkpt lat="42.266662" lon="-8.552702">
        <ele>535.714</ele>
        <time>2020-09-01T06:59:46Z</time>
      </trkpt>
      <trkpt lat="42.265898" lon="-8.553502">
        <ele>530.108</ele>
        <time>2020-09-01T07:00:12Z</time>
      </trkpt>
      <trkpt lat="42.263610" lon="-8.558894">
        <ele>492.040</ele>
        <time>2020-09-01T07:02:14Z</time>
      </trkpt>
      <trkpt lat="42.263337" lon="-8.559156">
        <ele>488.110</ele>
        <time>2020-09-01T07:02:24Z</time>
      </trkpt>
      <trkpt lat="42.262557" lon="-8.558664">
        <ele>480.064</ele>
        <time>2020-09-01T07:02:47Z</time>
      </trkpt>
      <trkpt lat="42.262151" lon="-8.558736">
        <ele>475.041</ele>
        <time>2020-09-01T07:02:58Z</time>
      </trkpt>
      <trkpt lat="42.262596" lon="-8.558147">
        <ele>476.650</ele>
        <time>2020-09-01T07:03:15Z</time>
      </trkpt>
      <trkpt lat="42.263025" lon="-8.556849">
        <ele>479.582</ele>
        <time>2020-09-01T07:03:44Z</time>
      </trkpt>
      <trkpt lat="42.262901" lon="-8.556481">
        <ele>479.426</ele>
        <time>2020-09-01T07:03:52Z</time>
      </trkpt>
      <trkpt lat="42.260574" lon="-8.557865">
        <ele>460.120</ele>
        <time>2020-09-01T07:05:00Z</time>
      </trkpt>
      <trkpt lat="42.259267" lon="-8.556456">
        <ele>469.792</ele>
        <time>2020-09-01T07:05:45Z</time>
      </trkpt>
      <trkpt lat="42.257656" lon="-8.555642">
        <ele>478.773</ele>
        <time>2020-09-01T07:06:31Z</time>
      </trkpt>
      <trkpt lat="42.255697" lon="-8.554236">
        <ele>478.620</ele>
        <time>2020-09-01T07:07:31Z</time>
      </trkpt>
      <trkpt lat="42.255281" lon="-8.554171">
        <ele>477.008</ele>
        <time>2020-09-01T07:07:42Z</time>
      </trkpt>
      <trkpt lat="42.253942" lon="-8.554444">
        <ele>470.474</ele>
        <time>2020-09-01T07:08:18Z</time>
      </trkpt>
      <trkpt lat="42.253247" lon="-8.554153">
        <ele>468.184</ele>
        <time>2020-09-01T07:08:38Z</time>
      </trkpt>
      <trkpt lat="42.251802" lon="-8.553106">
        <ele>462.988</ele>
        <time>2020-09-01T07:09:21Z</time>
      </trkpt>
      <trkpt lat="42.251147" lon="-8.552976">
        <ele>465.465</ele>
        <time>2020-09-01T07:09:39Z</time>
      </trkpt>
      <trkpt lat="42.250704" lon="-8.553099">
        <ele>468.234</ele>
        <time>2020-09-01T07:09:51Z</time>
      </trkpt>
      <trkpt lat="42.250460" lon="-8.553508">
        <ele>470.266</ele>
        <time>2020-09-01T07:10:02Z</time>
      </trkpt>
      <trkpt lat="42.250341" lon="-8.554874">
        <ele>473.920</ele>
        <time>2020-09-01T07:10:31Z</time>
      </trkpt>
      <trkpt lat="42.249760" lon="-8.555131">
        <ele>480.324</ele>
        <time>2020-09-01T07:10:48Z</time>
      </trkpt>
      <trkpt lat="42.249188" lon="-8.554662">
        <ele>489.026</ele>
        <time>2020-09-01T07:11:06Z</time>
      </trkpt>
      <trkpt lat="42.248882" lon="-8.555735">
        <ele>492.947</ele>
        <time>2020-09-01T07:11:29Z</time>
      </trkpt>
      <trkpt lat="42.248918" lon="-8.556025">
        <ele>497.011</ele>
        <time>2020-09-01T07:11:35Z</time>
      </trkpt>
      <trkpt lat="42.249358" lon="-8.556560">
        <ele>500.808</ele>
        <time>2020-09-01T07:11:51Z</time>
      </trkpt>
      <trkpt lat="42.249681" lon="-8.557537">
        <ele>507.847</ele>
        <time>2020-09-01T07:12:13Z</time>
      </trkpt>
      <trkpt lat="42.249613" lon="-8.559270">
        <ele>515.897</ele>
        <time>2020-09-01T07:12:47Z</time>
      </trkpt>
      <trkpt lat="42.249298" lon="-8.560905">
        <ele>524.351</ele>
        <time>2020-09-01T07:13:21Z</time>
      </trkpt>
      <trkpt lat="42.248849" lon="-8.561899">
        <ele>529.638</ele>
        <time>2020-09-01T07:13:44Z</time>
      </trkpt>
      <trkpt lat="42.248887" lon="-8.563028">
        <ele>530.197</ele>
        <time>2020-09-01T07:14:07Z</time>
      </trkpt>
      <trkpt lat="42.249578" lon="-8.564778">
        <ele>530.179</ele>
        <time>2020-09-01T07:14:46Z</time>
      </trkpt>
      <trkpt lat="42.249727" lon="-8.565778">
        <ele>528.953</ele>
        <time>2020-09-01T07:15:06Z</time>
      </trkpt>
      <trkpt lat="42.249712" lon="-8.566740">
        <ele>529.137</ele>
        <time>2020-09-01T07:15:25Z</time>
      </trkpt>
      <trkpt lat="42.249218" lon="-8.569033">
        <ele>538.584</ele>
        <time>2020-09-01T07:16:13Z</time>
      </trkpt>
      <trkpt lat="42.248861" lon="-8.569535">
        <ele>539.707</ele>
        <time>2020-09-01T07:16:27Z</time>
      </trkpt>
      <trkpt lat="42.248219" lon="-8.568941">
        <ele>548.917</ele>
        <time>2020-09-01T07:16:48Z</time>
      </trkpt>
      <trkpt lat="42.247617" lon="-8.568817">
        <ele>557.708</ele>
        <time>2020-09-01T07:17:05Z</time>
      </trkpt>
      <trkpt lat="42.247737" lon="-8.571146">
        <ele>548.873</ele>
        <time>2020-09-01T07:17:52Z</time>
      </trkpt>
      <trkpt lat="42.247619" lon="-8.571507">
        <ele>547.373</ele>
        <time>2020-09-01T07:18:01Z</time>
      </trkpt>
      <trkpt lat="42.246817" lon="-8.571949">
        <ele>549.267</ele>
        <time>2020-09-01T07:18:24Z</time>
      </trkpt>
      <trkpt lat="42.245849" lon="-8.571868">
        <ele>557.944</ele>
        <time>2020-09-01T07:18:50Z</time>
      </trkpt>
      <trkpt lat="42.245532" lon="-8.572741">
        <ele>557.523</ele>
        <time>2020-09-01T07:19:10Z</time>
      </trkpt>
      <trkpt lat="42.245015" lon="-8.573060">
        <ele>556.875</ele>
        <time>2020-09-01T07:19:25Z</time>
      </trkpt>
      <trkpt lat="42.244238" lon="-8.574300">
        <ele>552.579</ele>
        <time>2020-09-01T07:19:57Z</time>
      </trkpt>
      <trkpt lat="42.243087" lon="-8.574995">
        <ele>553.423</ele>
        <time>2020-09-01T07:20:31Z</time>
      </trkpt>
      <trkpt lat="42.241424" lon="-8.576925">
        <ele>554.653</ele>
        <time>2020-09-01T07:21:30Z</time>
      </trkpt>
      <trkpt lat="42.239986" lon="-8.577458">
        <ele>561.404</ele>
        <time>2020-09-01T07:22:10Z</time>
      </trkpt>
      <trkpt lat="42.239538" lon="-8.577500">
        <ele>564.314</ele>
        <time>2020-09-01T07:22:22Z</time>
      </trkpt>
      <trkpt lat="42.238316" lon="-8.576360">
        <ele>577.408</ele>
        <time>2020-09-01T07:23:02Z</time>
      </trkpt>
      <trkpt lat="42.238005" lon="-8.575900">
        <ele>577.520</ele>
        <time>2020-09-01T07:23:14Z</time>
      </trkpt>
      <trkpt lat="42.237750" lon="-8.575831">
        <ele>576.190</ele>
        <time>2020-09-01T07:23:21Z</time>
      </trkpt>
      <trkpt lat="42.235947" lon="-8.576398">
        <ele>570.974</ele>
        <time>2020-09-01T07:24:11Z</time>
      </trkpt>
      <trkpt lat="42.234465" lon="-8.577456">
        <ele>565.661</ele>
        <time>2020-09-01T07:24:56Z</time>
      </trkpt>
      <trkpt lat="42.234315" lon="-8.577918">
        <ele>561.980</ele>
        <time>2020-09-01T07:25:06Z</time>
      </trkpt>
      <trkpt lat="42.234468" lon="-8.579859">
        <ele>542.442</ele>
        <time>2020-09-01T07:25:45Z</time>
      </trkpt>
      <trkpt lat="42.233960" lon="-8.580382">
        <ele>530.916</ele>
        <time>2020-09-01T07:26:02Z</time>
      </trkpt>
      <trkpt lat="42.233461" lon="-8.580409">
        <ele>523.060</ele>
        <time>2020-09-01T07:26:16Z</time>
      </trkpt>
      <trkpt lat="42.232517" lon="-8.580020">
        <ele>514.655</ele>
        <time>2020-09-01T07:26:42Z</time>
      </trkpt>
      <trkpt lat="42.230974" lon="-8.579665">
        <ele>497.107</ele>
        <time>2020-09-01T07:27:24Z</time>
      </trkpt>
      <trkpt lat="42.230341" lon="-8.579243">
        <ele>493.417</ele>
        <time>2020-09-01T07:27:43Z</time>
      </trkpt>
      <trkpt lat="42.229414" lon="-8.578965">
        <ele>491.308</ele>
        <time>2020-09-01T07:28:08Z</time>
      </trkpt>
      <trkpt lat="42.228520" lon="-8.577872">
        <ele>484.060</ele>
        <time>2020-09-01T07:28:41Z</time>
      </trkpt>
      <trkpt lat="42.227739" lon="-8.575016">
        <ele>461.410</ele>
        <time>2020-09-01T07:29:41Z</time>
      </trkpt>
      <trkpt lat="42.227715" lon="-8.574344">
        <ele>456.044</ele>
        <time>2020-09-01T07:29:55Z</time>
      </trkpt>
      <trkpt lat="42.227933" lon="-8.573997">
        <ele>458.331</ele>
        <time>2020-09-01T07:30:05Z</time>
      </trkpt>
      <trkpt lat="42.227433" lon="-8.573589">
        <ele>454.520</ele>
        <time>2020-09-01T07:30:21Z</time>
      </trkpt>
      <trkpt lat="42.226284" lon="-8.571798">
        <ele>456.622</ele>
        <time>2020-09-01T07:31:08Z</time>
      </trkpt>
      <trkpt lat="42.226027" lon="-8.571110">
        <ele>459.266</ele>
        <time>2020-09-01T07:31:23Z</time>
      </trkpt>
      <trkpt lat="42.226121" lon="-8.570739">
        <ele>460.730</ele>
        <time>2020-09-01T07:31:32Z</time>
      </trkpt>
      <trkpt lat="42.225567" lon="-8.570596">
        <ele>462.336</ele>
        <time>2020-09-01T07:31:47Z</time>
      </trkpt>
      <trkpt lat="42.225070" lon="-8.570069">
        <ele>459.317</ele>
        <time>2020-09-01T07:32:04Z</time>
      </trkpt>
      <trkpt lat="42.224463" lon="-8.569958">
        <ele>452.318</ele>
        <time>2020-09-01T07:32:20Z</time>
      </trkpt>
      <trkpt lat="42.223969" lon="-8.569545">
        <ele>448.208</ele>
        <time>2020-09-01T07:32:36Z</time>
      </trkpt>
      <trkpt lat="42.222578" lon="-8.569291">
        <ele>434.918</ele>
        <time>2020-09-01T07:33:14Z</time>
      </trkpt>
      <trkpt lat="42.221996" lon="-8.569541">
        <ele>433.328</ele>
        <time>2020-09-01T07:33:30Z</time>
      </trkpt>
      <trkpt lat="42.221912" lon="-8.569777">
        <ele>432.172</ele>
        <time>2020-09-01T07:33:35Z</time>
      </trkpt>
      <trkpt lat="42.222195" lon="-8.573416">
        <ele>425.069</ele>
        <time>2020-09-01T07:34:48Z</time>
      </trkpt>
      <trkpt lat="42.221956" lon="-8.573806">
        <ele>426.258</ele>
        <time>2020-09-01T07:34:58Z</time>
      </trkpt>
      <trkpt lat="42.221150" lon="-8.574189">
        <ele>432.120</ele>
        <time>2020-09-01T07:35:21Z</time>
      </trkpt>
      <trkpt lat="42.220340" lon="-8.574941">
        <ele>439.284</ele>
        <time>2020-09-01T07:35:48Z</time>
      </trkpt>
      <trkpt lat="42.221011" lon="-8.576586">
        <ele>432.548</ele>
        <time>2020-09-01T07:36:26Z</time>
      </trkpt>
      <trkpt lat="42.221273" lon="-8.578705">
        <ele>419.283</ele>
        <time>2020-09-01T07:37:08Z</time>
      </trkpt>
      <trkpt lat="42.220858" lon="-8.581187">
        <ele>401.425</ele>
        <time>2020-09-01T07:37:59Z</time>
      </trkpt>
      <trkpt lat="42.220997" lon="-8.583582">
        <ele>383.717</ele>
        <time>2020-09-01T07:38:47Z</time>
      </trkpt>
      <trkpt lat="42.221212" lon="-8.584746">
        <ele>377.108</ele>
        <time>2020-09-01T07:39:11Z</time>
      </trkpt>
      <trkpt lat="42.221093" lon="-8.585002">
        <ele>377.293</ele>
        <time>2020-09-01T07:39:17Z</time>
      </trkpt>
      <trkpt lat="42.219501" lon="-8.585334">
        <ele>381.153</ele>
        <time>2020-09-01T07:40:00Z</time>
      </trkpt>
      <trkpt lat="42.218333" lon="-8.585408">
        <ele>374.857</ele>
        <time>2020-09-01T07:40:32Z</time>
      </trkpt>
      <trkpt lat="42.217592" lon="-8.585348">
        <ele>369.154</ele>
        <time>2020-09-01T07:40:51Z</time>
      </trkpt>
      <trkpt lat="42.216787" lon="-8.584903">
        <ele>361.883</ele>
        <time>2020-09-01T07:41:15Z</time>
      </trkpt>
      <trkpt lat="42.215756" lon="-8.583497">
        <ele>350.525</ele>
        <time>2020-09-01T07:41:54Z</time>
      </trkpt>
      <trkpt lat="42.213780" lon="-8.579916">
        <ele>352.199</ele>
        <time>2020-09-01T07:43:23Z</time>
      </trkpt>
      <trkpt lat="42.212633" lon="-8.579048">
        <ele>350.893</ele>
        <time>2020-09-01T07:43:58Z</time>
      </trkpt>
      <trkpt lat="42.211771" lon="-8.577738">
        <ele>363.345</ele>
        <time>2020-09-01T07:44:34Z</time>
      </trkpt>
      <trkpt lat="42.211582" lon="-8.577687">
        <ele>362.947</ele>
        <time>2020-09-01T07:44:39Z</time>
      </trkpt>
      <trkpt lat="42.211263" lon="-8.578011">
        <ele>360.611</ele>
        <time>2020-09-01T07:44:50Z</time>
      </trkpt>
      <trkpt lat="42.210817" lon="-8.578018">
        <ele>360.108</ele>
        <time>2020-09-01T07:45:02Z</time>
      </trkpt>
      <trkpt lat="42.210937" lon="-8.579422">
        <ele>362.329</ele>
        <time>2020-09-01T07:45:31Z</time>
      </trkpt>
      <trkpt lat="42.210600" lon="-8.579875">
        <ele>364.669</ele>
        <time>2020-09-01T07:45:44Z</time>
      </trkpt>
      <trkpt lat="42.209733" lon="-8.580332">
        <ele>373.123</ele>
        <time>2020-09-01T07:46:09Z</time>
      </trkpt>
      <trkpt lat="42.209246" lon="-8.581350">
        <ele>379.960</ele>
        <time>2020-09-01T07:46:33Z</time>
      </trkpt>
      <trkpt lat="42.208963" lon="-8.583608">
        <ele>384.079</ele>
        <time>2020-09-01T07:47:19Z</time>
      </trkpt>
      <trkpt lat="42.209461" lon="-8.584199">
        <ele>376.351</ele>
        <time>2020-09-01T07:47:37Z</time>
      </trkpt>
      <trkpt lat="42.209626" lon="-8.585352">
        <ele>363.395</ele>
        <time>2020-09-01T07:48:01Z</time>
      </trkpt>
      <trkpt lat="42.209369" lon="-8.585725">
        <ele>358.599</ele>
        <time>2020-09-01T07:48:11Z</time>
      </trkpt>
      <trkpt lat="42.208954" lon="-8.585853">
        <ele>354.022</ele>
        <time>2020-09-01T07:48:22Z</time>
      </trkpt>
      <trkpt lat="42.208577" lon="-8.586483">
        <ele>344.462</ele>
        <time>2020-09-01T07:48:38Z</time>
      </trkpt>
      <trkpt lat="42.208156" lon="-8.586703">
        <ele>337.008</ele>
        <time>2020-09-01T07:48:51Z</time>
      </trkpt>
      <trkpt lat="42.207852" lon="-8.587307">
        <ele>330.108</ele>
        <time>2020-09-01T07:49:05Z</time>
      </trkpt>
      <trkpt lat="42.208500" lon="-8.587702">
        <ele>323.477</ele>
        <time>2020-09-01T07:49:25Z</time>
      </trkpt>
      <trkpt lat="42.209402" lon="-8.588882">
        <ele>311.037</ele>
        <time>2020-09-01T07:49:58Z</time>
      </trkpt>
      <trkpt lat="42.209483" lon="-8.589166">
        <ele>309.181</ele>
        <time>2020-09-01T07:50:05Z</time>
      </trkpt>
      <trkpt lat="42.207887" lon="-8.589437">
        <ele>290.318</ele>
        <time>2020-09-01T07:50:48Z</time>
      </trkpt>
      <trkpt lat="42.207538" lon="-8.589199">
        <ele>285.617</ele>
        <time>2020-09-01T07:50:59Z</time>
      </trkpt>
      <trkpt lat="42.206049" lon="-8.588739">
        <ele>266.929</ele>
        <time>2020-09-01T07:51:40Z</time>
      </trkpt>
      <trkpt lat="42.205887" lon="-8.589060">
        <ele>260.673</ele>
        <time>2020-09-01T07:51:48Z</time>
      </trkpt>
      <trkpt lat="42.205825" lon="-8.589802">
        <ele>250.797</ele>
        <time>2020-09-01T07:52:03Z</time>
      </trkpt>
      <trkpt lat="42.205446" lon="-8.589713">
        <ele>248.826</ele>
        <time>2020-09-01T07:52:14Z</time>
      </trkpt>
      <trkpt lat="42.204919" lon="-8.590604">
        <ele>241.547</ele>
        <time>2020-09-01T07:52:36Z</time>
      </trkpt>
      <trkpt lat="42.204877" lon="-8.591934">
        <ele>226.311</ele>
        <time>2020-09-01T07:53:03Z</time>
      </trkpt>
      <trkpt lat="42.203645" lon="-8.592052">
        <ele>236.508</ele>
        <time>2020-09-01T07:53:37Z</time>
      </trkpt>
      <trkpt lat="42.202682" lon="-8.593434">
        <ele>219.797</ele>
        <time>2020-09-01T07:54:16Z</time>
      </trkpt>
      <trkpt lat="42.202348" lon="-8.594422">
        <ele>200.147</ele>
        <time>2020-09-01T07:54:38Z</time>
      </trkpt>
      <trkpt lat="42.202380" lon="-8.594657">
        <ele>196.841</ele>
        <time>2020-09-01T07:54:43Z</time>
      </trkpt>
      <trkpt lat="42.202806" lon="-8.594956">
        <ele>191.638</ele>
        <time>2020-09-01T07:54:56Z</time>
      </trkpt>
      <trkpt lat="42.202285" lon="-8.595437">
        <ele>181.777</ele>
        <time>2020-09-01T07:55:14Z</time>
      </trkpt>
      <trkpt lat="42.202581" lon="-8.595846">
        <ele>169.719</ele>
        <time>2020-09-01T07:55:26Z</time>
      </trkpt>
      <trkpt lat="42.201875" lon="-8.596779">
        <ele>156.433</ele>
        <time>2020-09-01T07:55:53Z</time>
      </trkpt>
      <trkpt lat="42.201563" lon="-8.598038">
        <ele>136.757</ele>
        <time>2020-09-01T07:56:20Z</time>
      </trkpt>
      <trkpt lat="42.202449" lon="-8.597881">
        <ele>140.922</ele>
        <time>2020-09-01T07:56:44Z</time>
      </trkpt>
      <trkpt lat="42.203024" lon="-8.597436">
        <ele>140.962</ele>
        <time>2020-09-01T07:57:02Z</time>
      </trkpt>
      <trkpt lat="42.203539" lon="-8.597277">
        <ele>134.508</ele>
        <time>2020-09-01T07:57:16Z</time>
      </trkpt>
      <trkpt lat="42.203422" lon="-8.597778">
        <ele>129.708</ele>
        <time>2020-09-01T07:57:27Z</time>
      </trkpt>
      <trkpt lat="42.203217" lon="-8.597960">
        <ele>127.887</ele>
        <time>2020-09-01T07:57:34Z</time>
      </trkpt>
      <trkpt lat="42.203277" lon="-8.598827">
        <ele>115.737</ele>
        <time>2020-09-01T07:57:53Z</time>
      </trkpt>
      <trkpt lat="42.203431" lon="-8.598892">
        <ele>112.671</ele>
        <time>2020-09-01T07:57:58Z</time>
      </trkpt>
      <trkpt lat="42.203701" lon="-8.598550">
        <ele>105.878</ele>
        <time>2020-09-01T07:58:08Z</time>
      </trkpt>
      <trkpt lat="42.203948" lon="-8.598540">
        <ele>100.957</ele>
        <time>2020-09-01T07:58:15Z</time>
      </trkpt>
      <trkpt lat="42.204166" lon="-8.598735">
        <ele>94.769</ele>
        <time>2020-09-01T07:58:22Z</time>
      </trkpt>
      <trkpt lat="42.204447" lon="-8.599434">
        <ele>87.253</ele>
        <time>2020-09-01T07:58:38Z</time>
      </trkpt>
      <trkpt lat="42.205262" lon="-8.599648">
        <ele>73.177</ele>
        <time>2020-09-01T07:59:00Z</time>
      </trkpt>
      <trkpt lat="42.205614" lon="-8.601274">
        <ele>63.514</ele>
        <time>2020-09-01T07:59:34Z</time>
      </trkpt>
      <trkpt lat="42.205525" lon="-8.601458">
        <ele>63.254</ele>
        <time>2020-09-01T07:59:39Z</time>
      </trkpt>
      <trkpt lat="42.203632" lon="-8.602449">
        <ele>64.209</ele>
        <time>2020-09-01T08:00:33Z</time>
      </trkpt>
      <trkpt lat="42.204556" lon="-8.604519">
        <ele>70.308</ele>
        <time>2020-09-01T08:01:22Z</time>
      </trkpt>
      <trkpt lat="42.204390" lon="-8.604814">
        <ele>73.776</ele>
        <time>2020-09-01T08:01:30Z</time>
      </trkpt>
      <trkpt lat="42.203556" lon="-8.605427">
        <ele>78.526</ele>
        <time>2020-09-01T08:01:55Z</time>
      </trkpt>
      <trkpt lat="42.203116" lon="-8.606066">
        <ele>80.150</ele>
        <time>2020-09-01T08:02:13Z</time>
      </trkpt>
      <trkpt lat="42.203865" lon="-8.605716">
        <ele>83.057</ele>
        <time>2020-09-01T08:02:34Z</time>
      </trkpt>
      <trkpt lat="42.203952" lon="-8.605840">
        <ele>83.542</ele>
        <time>2020-08-14T07:00:00Z</time>
      </trkpt>
      <trkpt lat="42.204797" lon="-8.606259">
        <ele>97.322</ele>
        <time>2020-08-14T07:00:24Z</time>
      </trkpt>
      <trkpt lat="42.205899" lon="-8.606322">
        <ele>110.914</ele>
        <time>2020-08-14T07:00:53Z</time>
      </trkpt>
      <trkpt lat="42.206986" lon="-8.607094">
        <ele>124.608</ele>
        <time>2020-08-14T07:01:26Z</time>
      </trkpt>
      <trkpt lat="42.207464" lon="-8.607661">
        <ele>132.399</ele>
        <time>2020-08-14T07:01:43Z</time>
      </trkpt>
      <trkpt lat="42.209073" lon="-8.609016">
        <ele>152.939</ele>
        <time>2020-08-14T07:02:34Z</time>
      </trkpt>
      <trkpt lat="42.210215" lon="-8.609041">
        <ele>151.253</ele>
        <time>2020-08-14T07:03:05Z</time>
      </trkpt>
      <trkpt lat="42.212389" lon="-8.609475">
        <ele>148.870</ele>
        <time>2020-08-14T07:04:03Z</time>
      </trkpt>
      <trkpt lat="42.213965" lon="-8.609294">
        <ele>144.150</ele>
        <time>2020-08-14T07:04:46Z</time>
      </trkpt>
      <trkpt lat="42.214743" lon="-8.608867">
        <ele>141.235</ele>
        <time>2020-08-14T07:05:08Z</time>
      </trkpt>
      <trkpt lat="42.215598" lon="-8.608077">
        <ele>149.214</ele>
        <time>2020-08-14T07:05:36Z</time>
      </trkpt>
      <trkpt lat="42.217328" lon="-8.607516">
        <ele>141.551</ele>
        <time>2020-08-14T07:06:24Z</time>
      </trkpt>
      <trkpt lat="42.220411" lon="-8.607684">
        <ele>166.368</ele>
        <time>2020-08-14T07:07:46Z</time>
      </trkpt>
      <trkpt lat="42.221369" lon="-8.608074">
        <ele>176.642</ele>
        <time>2020-08-14T07:08:13Z</time>
      </trkpt>
      <trkpt lat="42.222329" lon="-8.608082">
        <ele>191.326</ele>
        <time>2020-08-14T07:08:39Z</time>
      </trkpt>
      <trkpt lat="42.222829" lon="-8.607883">
        <ele>196.208</ele>
        <time>2020-08-14T07:08:53Z</time>
      </trkpt>
      <trkpt lat="42.223206" lon="-8.607433">
        <ele>197.851</ele>
        <time>2020-08-14T07:09:06Z</time>
      </trkpt>
      <trkpt lat="42.225271" lon="-8.606099">
        <ele>210.741</ele>
        <time>2020-08-14T07:10:08Z</time>
      </trkpt>
      <trkpt lat="42.225853" lon="-8.605973">
        <ele>206.795</ele>
        <time>2020-08-14T07:10:23Z</time>
      </trkpt>
      <trkpt lat="42.226666" lon="-8.606672">
        <ele>204.022</ele>
        <time>2020-08-14T07:10:49Z</time>
      </trkpt>
      <trkpt lat="42.227370" lon="-8.607067">
        <ele>213.322</ele>
        <time>2020-08-14T07:11:10Z</time>
      </trkpt>
      <trkpt lat="42.228114" lon="-8.609238">
        <ele>228.597</ele>
        <time>2020-08-14T07:11:57Z</time>
      </trkpt>
      <trkpt lat="42.228672" lon="-8.610087">
        <ele>232.426</ele>
        <time>2020-08-14T07:12:20Z</time>
      </trkpt>
      <trkpt lat="42.229802" lon="-8.610805">
        <ele>227.863</ele>
        <time>2020-08-14T07:12:53Z</time>
      </trkpt>
      <trkpt lat="42.230119" lon="-8.610798">
        <ele>227.572</ele>
        <time>2020-08-14T07:13:02Z</time>
      </trkpt>
      <trkpt lat="42.229845" lon="-8.610953">
        <ele>228.713</ele>
        <time>2020-08-14T07:13:12Z</time>
      </trkpt>
      <trkpt lat="42.230255" lon="-8.611488">
        <ele>226.214</ele>
        <time>2020-08-14T07:13:27Z</time>
      </trkpt>
      <trkpt lat="42.230763" lon="-8.611766">
        <ele>225.208</ele>
        <time>2020-08-14T07:13:42Z</time>
      </trkpt>
      <trkpt lat="42.231520" lon="-8.612514">
        <ele>222.182</ele>
        <time>2020-08-14T07:14:07Z</time>
      </trkpt>
      <trkpt lat="42.231904" lon="-8.612368">
        <ele>219.412</ele>
        <time>2020-08-14T07:14:18Z</time>
      </trkpt>
      <trkpt lat="42.233269" lon="-8.612716">
        <ele>211.696</ele>
        <time>2020-08-14T07:14:55Z</time>
      </trkpt>
      <trkpt lat="42.234067" lon="-8.609356">
        <ele>203.833</ele>
        <time>2020-08-14T07:16:07Z</time>
      </trkpt>
      <trkpt lat="42.237109" lon="-8.607541">
        <ele>177.513</ele>
        <time>2020-08-14T07:17:36Z</time>
      </trkpt>
      <trkpt lat="42.237507" lon="-8.607172">
        <ele>177.728</ele>
        <time>2020-08-14T07:17:49Z</time>
      </trkpt>
      <trkpt lat="42.239144" lon="-8.602112">
        <ele>160.587</ele>
        <time>2020-08-14T07:19:39Z</time>
      </trkpt>
      <trkpt lat="42.239865" lon="-8.599290">
        <ele>171.324</ele>
        <time>2020-08-14T07:20:38Z</time>
      </trkpt>
      <trkpt lat="42.240974" lon="-8.597346">
        <ele>156.995</ele>
        <time>2020-08-14T07:21:27Z</time>
      </trkpt>
      <trkpt lat="42.241228" lon="-8.597149">
        <ele>154.349</ele>
        <time>2020-08-14T07:21:35Z</time>
      </trkpt>
      <trkpt lat="42.242653" lon="-8.596822">
        <ele>157.523</ele>
        <time>2020-08-14T07:22:14Z</time>
      </trkpt>
      <trkpt lat="42.243448" lon="-8.596894">
        <ele>151.608</ele>
        <time>2020-08-14T07:22:35Z</time>
      </trkpt>
      <trkpt lat="42.243724" lon="-8.596382">
        <ele>157.354</ele>
        <time>2020-08-14T07:22:48Z</time>
      </trkpt>
      <trkpt lat="42.244462" lon="-8.596186">
        <ele>157.774</ele>
        <time>2020-08-14T07:23:08Z</time>
      </trkpt>
      <trkpt lat="42.245774" lon="-8.596218">
        <ele>165.178</ele>
        <time>2020-08-14T07:23:43Z</time>
      </trkpt>
      <trkpt lat="42.246260" lon="-8.596519">
        <ele>167.885</ele>
        <time>2020-08-14T07:23:57Z</time>
      </trkpt>
      <trkpt lat="42.246631" lon="-8.596420">
        <ele>177.335</ele>
        <time>2020-08-14T07:24:08Z</time>
      </trkpt>
      <trkpt lat="42.248759" lon="-8.597620">
        <ele>181.280</ele>
        <time>2020-08-14T07:25:09Z</time>
      </trkpt>
      <trkpt lat="42.250250" lon="-8.598023">
        <ele>186.739</ele>
        <time>2020-08-14T07:25:50Z</time>
      </trkpt>
      <trkpt lat="42.251956" lon="-8.599198">
        <ele>181.996</ele>
        <time>2020-08-14T07:26:42Z</time>
      </trkpt>
      <trkpt lat="42.252956" lon="-8.599475">
        <ele>190.894</ele>
        <time>2020-08-14T07:27:09Z</time>
      </trkpt>
      <trkpt lat="42.253559" lon="-8.599203">
        <ele>193.557</ele>
        <time>2020-08-14T07:27:26Z</time>
      </trkpt>
      <trkpt lat="42.254170" lon="-8.599855">
        <ele>172.922</ele>
        <time>2020-08-14T07:27:47Z</time>
      </trkpt>
      <trkpt lat="42.255059" lon="-8.600017">
        <ele>180.008</ele>
        <time>2020-08-14T07:28:11Z</time>
      </trkpt>
      <trkpt lat="42.255858" lon="-8.600546">
        <ele>176.044</ele>
        <time>2020-08-14T07:28:35Z</time>
      </trkpt>
      <trkpt lat="42.257529" lon="-8.600780">
        <ele>182.874</ele>
        <time>2020-08-14T07:29:20Z</time>
      </trkpt>
      <trkpt lat="42.257872" lon="-8.600666">
        <ele>183.278</ele>
        <time>2020-08-14T07:29:30Z</time>
      </trkpt>
      <trkpt lat="42.258067" lon="-8.600358">
        <ele>180.685</ele>
        <time>2020-08-14T07:29:38Z</time>
      </trkpt>
      <trkpt lat="42.258283" lon="-8.597958">
        <ele>204.735</ele>
        <time>2020-08-14T07:30:26Z</time>
      </trkpt>
      <trkpt lat="42.259190" lon="-8.597457">
        <ele>188.690</ele>
        <time>2020-08-14T07:30:53Z</time>
      </trkpt>
      <trkpt lat="42.260024" lon="-8.596105">
        <ele>197.929</ele>
        <time>2020-08-14T07:31:28Z</time>
      </trkpt>
      <trkpt lat="42.260206" lon="-8.596551">
        <ele>193.026</ele>
        <time>2020-08-14T07:31:38Z</time>
      </trkpt>
      <trkpt lat="42.260968" lon="-8.597424">
        <ele>180.348</ele>
        <time>2020-08-14T07:32:05Z</time>
      </trkpt>
      <trkpt lat="42.261960" lon="-8.597377">
        <ele>175.761</ele>
        <time>2020-08-14T07:32:32Z</time>
      </trkpt>
      <trkpt lat="42.262546" lon="-8.597713">
        <ele>179.517</ele>
        <time>2020-08-14T07:32:49Z</time>
      </trkpt>
      <trkpt lat="42.262964" lon="-8.597404">
        <ele>187.208</ele>
        <time>2020-08-14T07:33:02Z</time>
      </trkpt>
      <trkpt lat="42.263606" lon="-8.597354">
        <ele>187.619</ele>
        <time>2020-08-14T07:33:20Z</time>
      </trkpt>
      <trkpt lat="42.263934" lon="-8.596684">
        <ele>187.689</ele>
        <time>2020-08-14T07:33:36Z</time>
      </trkpt>
      <trkpt lat="42.264655" lon="-8.596396">
        <ele>179.453</ele>
        <time>2020-08-14T07:33:57Z</time>
      </trkpt>
      <trkpt lat="42.266910" lon="-8.598214">
        <ele>190.390</ele>
        <time>2020-08-14T07:35:07Z</time>
      </trkpt>
      <trkpt lat="42.268017" lon="-8.598587">
        <ele>180.020</ele>
        <time>2020-08-14T07:35:38Z</time>
      </trkpt>
      <trkpt lat="42.268848" lon="-8.598455">
        <ele>179.825</ele>
        <time>2020-08-14T07:36:00Z</time>
      </trkpt>
      <trkpt lat="42.269217" lon="-8.598032">
        <ele>180.714</ele>
        <time>2020-08-14T07:36:14Z</time>
      </trkpt>
      <trkpt lat="42.269282" lon="-8.597583">
        <ele>185.131</ele>
        <time>2020-08-14T07:36:23Z</time>
      </trkpt>
      <trkpt lat="42.268327" lon="-8.594589">
        <ele>189.786</ele>
        <time>2020-08-14T07:37:28Z</time>
      </trkpt>
      <trkpt lat="42.268350" lon="-8.594087">
        <ele>182.860</ele>
        <time>2020-08-14T07:37:38Z</time>
      </trkpt>
      <trkpt lat="42.268683" lon="-8.593903">
        <ele>182.226</ele>
        <time>2020-08-14T07:37:48Z</time>
      </trkpt>
      <trkpt lat="42.269389" lon="-8.594421">
        <ele>177.908</ele>
        <time>2020-08-14T07:38:10Z</time>
      </trkpt>
      <trkpt lat="42.270369" lon="-8.594538">
        <ele>179.243</ele>
        <time>2020-08-14T07:38:36Z</time>
      </trkpt>
      <trkpt lat="42.270861" lon="-8.594361">
        <ele>182.443</ele>
        <time>2020-08-14T07:38:50Z</time>
      </trkpt>
      <trkpt lat="42.271283" lon="-8.593595">
        <ele>192.097</ele>
        <time>2020-08-14T07:39:09Z</time>
      </trkpt>
      <trkpt lat="42.271455" lon="-8.592731">
        <ele>195.774</ele>
        <time>2020-08-14T07:39:27Z</time>
      </trkpt>
      <trkpt lat="42.272227" lon="-8.592189">
        <ele>181.654</ele>
        <time>2020-08-14T07:39:50Z</time>
      </trkpt>
      <trkpt lat="42.272533" lon="-8.591528">
        <ele>183.579</ele>
        <time>2020-08-14T07:40:06Z</time>
      </trkpt>
      <trkpt lat="42.272705" lon="-8.589777">
        <ele>190.918</ele>
        <time>2020-08-14T07:40:41Z</time>
      </trkpt>
      <trkpt lat="42.272567" lon="-8.589278">
        <ele>191.765</ele>
        <time>2020-08-14T07:40:52Z</time>
      </trkpt>
      <trkpt lat="42.273185" lon="-8.588866">
        <ele>180.553</ele>
        <time>2020-08-14T07:41:11Z</time>
      </trkpt>
      <trkpt lat="42.273489" lon="-8.588109">
        <ele>189.404</ele>
        <time>2020-08-14T07:41:28Z</time>
      </trkpt>
      <trkpt lat="42.273728" lon="-8.588062">
        <ele>190.214</ele>
        <time>2020-08-14T07:41:35Z</time>
      </trkpt>
      <trkpt lat="42.274001" lon="-8.588279">
        <ele>187.808</ele>
        <time>2020-08-14T07:41:43Z</time>
      </trkpt>
      <trkpt lat="42.274714" lon="-8.589629">
        <ele>178.280</ele>
        <time>2020-08-14T07:42:16Z</time>
      </trkpt>
      <trkpt lat="42.275201" lon="-8.589738">
        <ele>179.830</ele>
        <time>2020-08-14T07:42:29Z</time>
      </trkpt>
      <trkpt lat="42.275845" lon="-8.589460">
        <ele>187.834</ele>
        <time>2020-08-14T07:42:48Z</time>
      </trkpt>
      <trkpt lat="42.276172" lon="-8.589800">
        <ele>184.981</ele>
        <time>2020-08-14T07:42:59Z</time>
      </trkpt>
      <trkpt lat="42.276638" lon="-8.589860">
        <ele>188.771</ele>
        <time>2020-08-14T07:43:11Z</time>
      </trkpt>
      <trkpt lat="42.277514" lon="-8.590367">
        <ele>177.846</ele>
        <time>2020-08-14T07:43:37Z</time>
      </trkpt>
      <trkpt lat="42.278071" lon="-8.590388">
        <ele>180.275</ele>
        <time>2020-08-14T07:43:52Z</time>
      </trkpt>
      <trkpt lat="42.278567" lon="-8.589109">
        <ele>182.782</ele>
        <time>2020-08-14T07:44:21Z</time>
      </trkpt>
      <trkpt lat="42.278488" lon="-8.587711">
        <ele>182.519</ele>
        <time>2020-08-14T07:44:50Z</time>
      </trkpt>
      <trkpt lat="42.279194" lon="-8.587105">
        <ele>185.509</ele>
        <time>2020-08-14T07:45:12Z</time>
      </trkpt>
      <trkpt lat="42.279805" lon="-8.586174">
        <ele>190.319</ele>
        <time>2020-08-14T07:45:37Z</time>
      </trkpt>
      <trkpt lat="42.280739" lon="-8.585528">
        <ele>192.408</ele>
        <time>2020-08-14T07:46:05Z</time>
      </trkpt>
      <trkpt lat="42.281190" lon="-8.584514">
        <ele>191.116</ele>
        <time>2020-08-14T07:46:28Z</time>
      </trkpt>
      <trkpt lat="42.281553" lon="-8.584344">
        <ele>194.986</ele>
        <time>2020-08-14T07:46:39Z</time>
      </trkpt>
      <trkpt lat="42.282171" lon="-8.584515">
        <ele>193.430</ele>
        <time>2020-08-14T07:46:56Z</time>
      </trkpt>
      <trkpt lat="42.284342" lon="-8.583201">
        <ele>202.617</ele>
        <time>2020-08-14T07:48:00Z</time>
      </trkpt>
      <trkpt lat="42.284837" lon="-8.583106">
        <ele>198.757</ele>
        <time>2020-08-14T07:48:13Z</time>
      </trkpt>
      <trkpt lat="42.285652" lon="-8.582442">
        <ele>193.022</ele>
        <time>2020-08-14T07:48:39Z</time>
      </trkpt>
      <trkpt lat="42.285965" lon="-8.580902">
        <ele>203.611</ele>
        <time>2020-08-14T07:49:11Z</time>
      </trkpt>
      <trkpt lat="42.285401" lon="-8.581900">
        <ele>207.588</ele>
        <time>2020-08-14T07:49:37Z</time>
      </trkpt>
      <trkpt lat="42.285013" lon="-8.582159">
        <ele>209.337</ele>
        <time>2020-08-14T07:49:48Z</time>
      </trkpt>
      <trkpt lat="42.283988" lon="-8.581989">
        <ele>222.449</ele>
        <time>2020-08-14T07:50:16Z</time>
      </trkpt>
      <trkpt lat="42.283549" lon="-8.581575">
        <ele>230.913</ele>
        <time>2020-08-14T07:50:31Z</time>
      </trkpt>
      <trkpt lat="42.284136" lon="-8.580812">
        <ele>240.208</ele>
        <time>2020-08-14T07:50:53Z</time>
      </trkpt>
      <trkpt lat="42.284303" lon="-8.580127">
        <ele>241.468</ele>
        <time>2020-08-14T07:51:08Z</time>
      </trkpt>
      <trkpt lat="42.284706" lon="-8.579401">
        <ele>240.848</ele>
        <time>2020-08-14T07:51:26Z</time>
      </trkpt>
      <trkpt lat="42.284607" lon="-8.578735">
        <ele>248.822</ele>
        <time>2020-08-14T07:51:39Z</time>
      </trkpt>
      <trkpt lat="42.284407" lon="-8.578428">
        <ele>256.339</ele>
        <time>2020-08-14T07:51:48Z</time>
      </trkpt>
      <trkpt lat="42.284245" lon="-8.578699">
        <ele>260.119</ele>
        <time>2020-08-14T07:51:55Z</time>
      </trkpt>
      <trkpt lat="42.282845" lon="-8.579320">
        <ele>281.664</ele>
        <time>2020-08-14T07:52:34Z</time>
      </trkpt>
      <trkpt lat="42.281459" lon="-8.579311">
        <ele>295.463</ele>
        <time>2020-08-14T07:53:11Z</time>
      </trkpt>
      <trkpt lat="42.280643" lon="-8.579544">
        <ele>295.110</ele>
        <time>2020-08-14T07:53:34Z</time>
      </trkpt>
      <trkpt lat="42.280295" lon="-8.579473">
        <ele>295.725</ele>
        <time>2020-08-14T07:53:43Z</time>
      </trkpt>
      <trkpt lat="42.280085" lon="-8.579235">
        <ele>302.326</ele>
        <time>2020-08-14T07:53:50Z</time>
      </trkpt>
      <trkpt lat="42.280070" lon="-8.578767">
        <ele>311.508</ele>
        <time>2020-08-14T07:54:00Z</time>
      </trkpt>
      <trkpt lat="42.280481" lon="-8.577017">
        <ele>321.208</ele>
        <time>2020-08-14T07:54:36Z</time>
      </trkpt>
      <trkpt lat="42.281572" lon="-8.573000">
        <ele>336.577</ele>
        <time>2020-08-14T07:56:01Z</time>
      </trkpt>
      <trkpt lat="42.281533" lon="-8.571758">
        <ele>338.767</ele>
        <time>2020-08-14T07:56:26Z</time>
      </trkpt>
      <trkpt lat="42.281799" lon="-8.570592">
        <ele>343.351</ele>
        <time>2020-08-14T07:56:50Z</time>
      </trkpt>
      <trkpt lat="42.281619" lon="-8.568977">
        <ele>347.778</ele>
        <time>2020-08-14T07:57:22Z</time>
      </trkpt>
      <trkpt lat="42.283062" lon="-8.567928">
        <ele>348.858</ele>
        <time>2020-08-14T07:58:06Z</time>
      </trkpt>
      <trkpt lat="42.284159" lon="-8.566841">
        <ele>346.453</ele>
        <time>2020-08-14T07:58:43Z</time>
      </trkpt>
      <trkpt lat="42.285141" lon="-8.565553">
        <ele>344.572</ele>
        <time>2020-08-14T07:59:19Z</time>
      </trkpt>
      <trkpt lat="42.285429" lon="-8.565044">
        <ele>347.549</ele>
        <time>2020-08-14T07:59:32Z</time>
      </trkpt>
      <trkpt lat="42.285570" lon="-8.564399">
        <ele>355.262</ele>
        <time>2020-08-14T07:59:45Z</time>
      </trkpt>
      <trkpt lat="42.285453" lon="-8.564125">
        <ele>358.283</ele>
        <time>2020-08-14T07:59:52Z</time>
      </trkpt>
      <trkpt lat="42.285003" lon="-8.563917">
        <ele>364.911</ele>
        <time>2020-08-14T08:00:05Z</time>
      </trkpt>
      <trkpt lat="42.285011" lon="-8.563445">
        <ele>367.108</ele>
        <time>2020-08-14T08:00:14Z</time>
      </trkpt>
      <trkpt lat="42.285097" lon="-8.563011">
        <ele>368.061</ele>
        <time>2020-08-14T08:00:24Z</time>
      </trkpt>
      <trkpt lat="42.285468" lon="-8.562477">
        <ele>363.531</ele>
        <time>2020-08-14T08:00:38Z</time>
      </trkpt>
      <trkpt lat="42.286270" lon="-8.561720">
        <ele>347.455</ele>
        <time>2020-08-14T08:01:04Z</time>
      </trkpt>
      <trkpt lat="42.287910" lon="-8.561763">
        <ele>328.932</ele>
        <time>2020-08-14T08:01:49Z</time>
      </trkpt>
      <trkpt lat="42.288815" lon="-8.561168">
        <ele>326.362</ele>
        <time>2020-08-14T08:02:16Z</time>
      </trkpt>
      <trkpt lat="42.289474" lon="-8.559893">
        <ele>319.847</ele>
        <time>2020-08-14T08:02:47Z</time>
      </trkpt>
      <trkpt lat="42.289651" lon="-8.558164">
        <ele>313.876</ele>
        <time>2020-08-14T08:03:21Z</time>
      </trkpt>
      <trkpt lat="42.289953" lon="-8.557035">
        <ele>313.053</ele>
        <time>2020-08-14T08:03:45Z</time>
      </trkpt>
      <trkpt lat="42.290306" lon="-8.556386">
        <ele>308.166</ele>
        <time>2020-08-14T08:04:01Z</time>
      </trkpt>
      <trkpt lat="42.291777" lon="-8.554588">
        <ele>300.229</ele>
        <time>2020-08-14T08:04:54Z</time>
      </trkpt>
      <trkpt lat="42.293022" lon="-8.553701">
        <ele>293.121</ele>
        <time>2020-08-14T08:05:32Z</time>
      </trkpt>
      <trkpt lat="42.293858" lon="-8.553324">
        <ele>289.008</ele>
        <time>2020-08-14T08:05:55Z</time>
      </trkpt>
      <trkpt lat="42.294581" lon="-8.554497">
        <ele>286.141</ele>
        <time>2020-08-14T08:06:26Z</time>
      </trkpt>
      <trkpt lat="42.294800" lon="-8.554561">
        <ele>286.371</ele>
        <time>2020-08-14T08:06:32Z</time>
      </trkpt>
      <trkpt lat="42.295262" lon="-8.554389">
        <ele>287.685</ele>
        <time>2020-08-14T08:06:45Z</time>
      </trkpt>
      <trkpt lat="42.295494" lon="-8.554549">
        <ele>288.612</ele>
        <time>2020-08-14T08:06:52Z</time>
      </trkpt>
      <trkpt lat="42.295596" lon="-8.555196">
        <ele>284.092</ele>
        <time>2020-08-14T08:07:05Z</time>
      </trkpt>
      <trkpt lat="42.296006" lon="-8.555878">
        <ele>284.937</ele>
        <time>2020-08-14T08:07:23Z</time>
      </trkpt>
      <trkpt lat="42.296092" lon="-8.557495">
        <ele>290.686</ele>
        <time>2020-08-14T08:07:55Z</time>
      </trkpt>
      <trkpt lat="42.296378" lon="-8.557732">
        <ele>294.883</ele>
        <time>2020-08-14T08:08:04Z</time>
      </trkpt>
      <trkpt lat="42.296689" lon="-8.557636">
        <ele>301.264</ele>
        <time>2020-08-14T08:08:13Z</time>
      </trkpt>
      <trkpt lat="42.296952" lon="-8.556940">
        <ele>306.006</ele>
        <time>2020-08-14T08:08:29Z</time>
      </trkpt>
      <trkpt lat="42.297300" lon="-8.556791">
        <ele>306.316</ele>
        <time>2020-08-14T08:08:39Z</time>
      </trkpt>
      <trkpt lat="42.298367" lon="-8.557114">
        <ele>316.408</ele>
        <time>2020-08-14T08:09:08Z</time>
      </trkpt>
      <trkpt lat="42.299139" lon="-8.556654">
        <ele>322.431</ele>
        <time>2020-08-14T08:09:31Z</time>
      </trkpt>
      <trkpt lat="42.299903" lon="-8.557115">
        <ele>329.091</ele>
        <time>2020-08-14T08:09:53Z</time>
      </trkpt>
      <trkpt lat="42.301061" lon="-8.557159">
        <ele>334.345</ele>
        <time>2020-08-14T08:10:24Z</time>
      </trkpt>
      <trkpt lat="42.302475" lon="-8.555710">
        <ele>339.952</ele>
        <time>2020-08-14T08:11:12Z</time>
      </trkpt>
      <trkpt lat="42.303942" lon="-8.555330">
        <ele>346.422</ele>
        <time>2020-08-14T08:11:52Z</time>
      </trkpt>
      <trkpt lat="42.304285" lon="-8.556150">
        <ele>355.867</ele>
        <time>2020-08-14T08:12:12Z</time>
      </trkpt>
      <trkpt lat="42.303633" lon="-8.557791">
        <ele>364.346</ele>
        <time>2020-08-14T08:12:49Z</time>
      </trkpt>
      <trkpt lat="42.303994" lon="-8.558465">
        <ele>370.843</ele>
        <time>2020-08-14T08:13:06Z</time>
      </trkpt>
      <trkpt lat="42.304988" lon="-8.558888">
        <ele>383.896</ele>
        <time>2020-08-14T08:13:34Z</time>
      </trkpt>
      <trkpt lat="42.305532" lon="-8.558885">
        <ele>394.431</ele>
        <time>2020-08-14T08:13:48Z</time>
      </trkpt>
      <trkpt lat="42.305807" lon="-8.559707">
        <ele>394.824</ele>
        <time>2020-08-14T08:14:07Z</time>
      </trkpt>
      <trkpt lat="42.306303" lon="-8.560199">
        <ele>395.608</ele>
        <time>2020-08-14T08:14:23Z</time>
      </trkpt>
      <trkpt lat="42.307949" lon="-8.560453">
        <ele>407.244</ele>
        <time>2020-08-14T08:15:08Z</time>
      </trkpt>
      <trkpt lat="42.308535" lon="-8.561056">
        <ele>410.164</ele>
        <time>2020-08-14T08:15:28Z</time>
      </trkpt>
      <trkpt lat="42.309507" lon="-8.561007">
        <ele>420.278</ele>
        <time>2020-08-14T08:15:54Z</time>
      </trkpt>
      <trkpt lat="42.310774" lon="-8.562770">
        <ele>423.085</ele>
        <time>2020-08-14T08:16:43Z</time>
      </trkpt>
      <trkpt lat="42.311833" lon="-8.562943">
        <ele>418.995</ele>
        <time>2020-08-14T08:17:12Z</time>
      </trkpt>
      <trkpt lat="42.313293" lon="-8.563706">
        <ele>412.420</ele>
        <time>2020-08-14T08:17:54Z</time>
      </trkpt>
      <trkpt lat="42.314209" lon="-8.565536">
        <ele>413.249</ele>
        <time>2020-08-14T08:18:37Z</time>
      </trkpt>
      <trkpt lat="42.314905" lon="-8.566232">
        <ele>415.876</ele>
        <time>2020-08-14T08:19:01Z</time>
      </trkpt>
      <trkpt lat="42.315300" lon="-8.567100">
        <ele>415.485</ele>
        <time>2020-08-14T08:19:21Z</time>
      </trkpt>
      <trkpt lat="42.315413" lon="-8.568493">
        <ele>417.889</ele>
        <time>2020-08-14T08:19:49Z</time>
      </trkpt>
      <trkpt lat="42.314804" lon="-8.569190">
        <ele>418.717</ele>
        <time>2020-08-14T08:20:11Z</time>
      </trkpt>
      <trkpt lat="42.314508" lon="-8.570471">
        <ele>417.808</ele>
        <time>2020-08-14T08:20:37Z</time>
      </trkpt>
      <trkpt lat="42.313909" lon="-8.571367">
        <ele>416.953</ele>
        <time>2020-08-14T08:21:01Z</time>
      </trkpt>
      <trkpt lat="42.314056" lon="-8.572277">
        <ele>415.473</ele>
        <time>2020-08-14T08:21:20Z</time>
      </trkpt>
      <trkpt lat="42.315243" lon="-8.576366">
        <ele>400.827</ele>
        <time>2020-08-14T08:22:47Z</time>
      </trkpt>
      <trkpt lat="42.314432" lon="-8.577480">
        <ele>378.274</ele>
        <time>2020-08-14T08:23:18Z</time>
      </trkpt>
      <trkpt lat="42.313169" lon="-8.578735">
        <ele>353.724</ele>
        <time>2020-08-14T08:24:00Z</time>
      </trkpt>
      <trkpt lat="42.312274" lon="-8.578916">
        <ele>347.089</ele>
        <time>2020-08-14T08:24:25Z</time>
      </trkpt>
      <trkpt lat="42.312189" lon="-8.579052">
        <ele>344.738</ele>
        <time>2020-08-14T08:24:29Z</time>
      </trkpt>
      <trkpt lat="42.312642" lon="-8.579395">
        <ele>342.275</ele>
        <time>2020-08-14T08:24:43Z</time>
      </trkpt>
      <trkpt lat="42.313132" lon="-8.580296">
        <ele>333.353</ele>
        <time>2020-08-14T08:25:05Z</time>
      </trkpt>
      <trkpt lat="42.314154" lon="-8.580233">
        <ele>333.904</ele>
        <time>2020-08-14T08:25:33Z</time>
      </trkpt>
      <trkpt lat="42.314959" lon="-8.579642">
        <ele>334.714</ele>
        <time>2020-08-14T08:25:57Z</time>
      </trkpt>
      <trkpt lat="42.315834" lon="-8.581293">
        <ele>319.708</ele>
        <time>2020-08-14T08:26:39Z</time>
      </trkpt>
      <trkpt lat="42.316202" lon="-8.581476">
        <ele>313.250</ele>
        <time>2020-08-14T08:26:49Z</time>
      </trkpt>
      <trkpt lat="42.316538" lon="-8.581452">
        <ele>312.820</ele>
        <time>2020-08-14T08:26:58Z</time>
      </trkpt>
      <trkpt lat="42.316588" lon="-8.582693">
        <ele>313.324</ele>
        <time>2020-08-14T08:27:24Z</time>
      </trkpt>
      <trkpt lat="42.316290" lon="-8.583466">
        <ele>310.021</ele>
        <time>2020-08-14T08:27:41Z</time>
      </trkpt>
      <trkpt lat="42.316255" lon="-8.584380">
        <ele>301.351</ele>
        <time>2020-08-14T08:28:00Z</time>
      </trkpt>
      <trkpt lat="42.316378" lon="-8.584825">
        <ele>296.666</ele>
        <time>2020-08-14T08:28:09Z</time>
      </trkpt>
      <trkpt lat="42.316967" lon="-8.585623">
        <ele>290.345</ele>
        <time>2020-08-14T08:28:31Z</time>
      </trkpt>
      <trkpt lat="42.317096" lon="-8.586436">
        <ele>275.462</ele>
        <time>2020-08-14T08:28:48Z</time>
      </trkpt>
      <trkpt lat="42.317408" lon="-8.586804">
        <ele>267.774</ele>
        <time>2020-08-14T08:28:59Z</time>
      </trkpt>
      <trkpt lat="42.317842" lon="-8.587032">
        <ele>268.156</ele>
        <time>2020-08-14T08:29:12Z</time>
      </trkpt>
      <trkpt lat="42.318732" lon="-8.587098">
        <ele>257.321</ele>
        <time>2020-08-14T08:29:36Z</time>
      </trkpt>
      <trkpt lat="42.319351" lon="-8.586762">
        <ele>256.208</ele>
        <time>2020-08-14T08:29:54Z</time>
      </trkpt>
      <trkpt lat="42.319965" lon="-8.587284">
        <ele>241.862</ele>
        <time>2020-08-14T08:30:13Z</time>
      </trkpt>
      <trkpt lat="42.321115" lon="-8.587827">
        <ele>223.472</ele>
        <time>2020-08-14T08:30:46Z</time>
      </trkpt>
      <trkpt lat="42.321662" lon="-8.587740">
        <ele>211.226</ele>
        <time>2020-08-14T08:31:01Z</time>
      </trkpt>
      <trkpt lat="42.322732" lon="-8.589209">
        <ele>201.833</ele>
        <time>2020-08-14T08:31:43Z</time>
      </trkpt>
      <trkpt lat="42.322587" lon="-8.591010">
        <ele>208.463</ele>
        <time>2020-08-14T08:32:20Z</time>
      </trkpt>
      <trkpt lat="42.323106" lon="-8.592267">
        <ele>210.428</ele>
        <time>2020-08-14T08:32:49Z</time>
      </trkpt>
      <trkpt lat="42.323855" lon="-8.592085">
        <ele>219.277</ele>
        <time>2020-08-14T08:33:10Z</time>
      </trkpt>
      <trkpt lat="42.324427" lon="-8.592371">
        <ele>216.294</ele>
        <time>2020-08-14T08:33:26Z</time>
      </trkpt>
      <trkpt lat="42.324772" lon="-8.592329">
        <ele>218.217</ele>
        <time>2020-08-14T08:33:35Z</time>
      </trkpt>
      <trkpt lat="42.325643" lon="-8.592582">
        <ele>216.187</ele>
        <time>2020-08-14T08:33:59Z</time>
      </trkpt>
      <trkpt lat="42.325994" lon="-8.592867">
        <ele>211.215</ele>
        <time>2020-08-14T08:34:10Z</time>
      </trkpt>
      <trkpt lat="42.327822" lon="-8.593384">
        <ele>205.408</ele>
        <time>2020-08-14T08:35:00Z</time>
      </trkpt>
      <trkpt lat="42.328568" lon="-8.593408">
        <ele>197.756</ele>
        <time>2020-08-14T08:35:20Z</time>
      </trkpt>
      <trkpt lat="42.328986" lon="-8.593232">
        <ele>204.566</ele>
        <time>2020-08-14T08:35:32Z</time>
      </trkpt>
      <trkpt lat="42.329881" lon="-8.592585">
        <ele>203.780</ele>
        <time>2020-08-14T08:35:59Z</time>
      </trkpt>
      <trkpt lat="42.330253" lon="-8.592133">
        <ele>202.177</ele>
        <time>2020-08-14T08:36:13Z</time>
      </trkpt>
      <trkpt lat="42.330734" lon="-8.590927">
        <ele>186.317</ele>
        <time>2020-08-14T08:36:40Z</time>
      </trkpt>
      <trkpt lat="42.331060" lon="-8.588709">
        <ele>168.162</ele>
        <time>2020-08-14T08:37:25Z</time>
      </trkpt>
      <trkpt lat="42.331610" lon="-8.587791">
        <ele>157.541</ele>
        <time>2020-08-14T08:37:48Z</time>
      </trkpt>
      <trkpt lat="42.332493" lon="-8.587189">
        <ele>137.158</ele>
        <time>2020-08-14T08:38:15Z</time>
      </trkpt>
      <trkpt lat="42.332874" lon="-8.587882">
        <ele>129.523</ele>
        <time>2020-08-14T08:38:32Z</time>
      </trkpt>
      <trkpt lat="42.333184" lon="-8.588162">
        <ele>122.783</ele>
        <time>2020-08-14T08:38:43Z</time>
      </trkpt>
      <trkpt lat="42.334082" lon="-8.587246">
        <ele>116.711</ele>
        <time>2020-08-14T08:39:13Z</time>
      </trkpt>
      <trkpt lat="42.334285" lon="-8.587211">
        <ele>117.308</ele>
        <time>2020-08-14T08:39:18Z</time>
      </trkpt>
      <trkpt lat="42.335447" lon="-8.588125">
        <ele>118.367</ele>
        <time>2020-08-14T08:39:55Z</time>
      </trkpt>
      <trkpt lat="42.335550" lon="-8.588822">
        <ele>116.187</ele>
        <time>2020-08-14T08:40:09Z</time>
      </trkpt>
      <trkpt lat="42.336475" lon="-8.589402">
        <ele>108.821</ele>
        <time>2020-08-14T08:40:37Z</time>
      </trkpt>
      <trkpt lat="42.337354" lon="-8.589699">
        <ele>102.128</ele>
        <time>2020-08-14T08:41:01Z</time>
      </trkpt>
      <trkpt lat="42.337699" lon="-8.590303">
        <ele>96.598</ele>
        <time>2020-08-14T08:41:17Z</time>
      </trkpt>
      <trkpt lat="42.337707" lon="-8.592639">
        <ele>96.023</ele>
        <time>2020-08-14T08:42:03Z</time>
      </trkpt>
      <trkpt lat="42.336887" lon="-8.592916">
        <ele>82.832</ele>
        <time>2020-08-14T08:42:28Z</time>
      </trkpt>
      <trkpt lat="42.336816" lon="-8.593932">
        <ele>70.129</ele>
        <time>2020-08-14T08:42:48Z</time>
      </trkpt>
      <trkpt lat="42.337106" lon="-8.594269">
        <ele>68.654</ele>
        <time>2020-08-14T08:42:58Z</time>
      </trkpt>
      <trkpt lat="42.337226" lon="-8.594673">
        <ele>64.056</ele>
        <time>2020-08-14T08:43:07Z</time>
      </trkpt>
      <trkpt lat="42.338274" lon="-8.595748">
        <ele>60.411</ele>
        <time>2020-08-14T08:43:42Z</time>
      </trkpt>
      <trkpt lat="42.338897" lon="-8.596040">
        <ele>52.708</ele>
        <time>2020-08-14T08:44:00Z</time>
      </trkpt>
      <trkpt lat="42.339520" lon="-8.595829">
        <ele>50.840</ele>
        <time>2020-08-14T08:44:18Z</time>
      </trkpt>
      <trkpt lat="42.339333" lon="-8.597580">
        <ele>49.410</ele>
        <time>2020-08-14T08:44:53Z</time>
      </trkpt>
      <trkpt lat="42.340090" lon="-8.599256">
        <ele>50.874</ele>
        <time>2020-08-14T08:45:32Z</time>
      </trkpt>
      <trkpt lat="42.340405" lon="-8.600954">
        <ele>43.531</ele>
        <time>2020-08-14T08:46:06Z</time>
      </trkpt>
      <trkpt lat="42.340418" lon="-8.601503">
        <ele>44.551</ele>
        <time>2020-08-14T08:46:17Z</time>
      </trkpt>
      <trkpt lat="42.339950" lon="-8.602995">
        <ele>39.476</ele>
        <time>2020-08-14T08:46:49Z</time>
      </trkpt>
      <trkpt lat="42.339853" lon="-8.605815">
        <ele>40.695</ele>
        <time>2020-08-14T08:47:46Z</time>
      </trkpt>
      <trkpt lat="42.343705" lon="-8.607344">
        <ele>24.512</ele>
        <time>2020-08-14T08:49:33Z</time>
      </trkpt>
      <trkpt lat="42.344657" lon="-8.607496">
        <ele>17.058</ele>
        <time>2020-08-14T08:49:59Z</time>
      </trkpt>
      <trkpt lat="42.345032" lon="-8.607355">
        <ele>0.052</ele>
        <time>2020-08-14T08:50:09Z</time>
      </trkpt>
      <trkpt lat="42.345421" lon="-8.606929">
        <ele>0.017</ele>
        <time>2020-08-14T08:50:23Z</time>
      </trkpt>
      <trkpt lat="42.346617" lon="-8.606735">
        <ele>7.508</ele>
        <time>2020-08-14T08:50:55Z</time>
      </trkpt>
      <trkpt lat="42.347055" lon="-8.607156">
        <ele>13.130</ele>
        <time>2020-08-14T08:51:09Z</time>
      </trkpt>
      <trkpt lat="42.347569" lon="-8.606972">
        <ele>17.520</ele>
        <time>2020-08-14T08:51:24Z</time>
      </trkpt>
      <trkpt lat="42.348354" lon="-8.607379">
        <ele>18.924</ele>
        <time>2020-08-14T08:51:46Z</time>
      </trkpt>
      <trkpt lat="42.350174" lon="-8.607345">
        <ele>15.821</ele>
        <time>2020-08-14T08:52:35Z</time>
      </trkpt>
      <trkpt lat="42.350644" lon="-8.608108">
        <ele>12.081</ele>
        <time>2020-08-14T08:52:55Z</time>
      </trkpt>
      <trkpt lat="42.350751" lon="-8.608742">
        <ele>19.786</ele>
        <time>2020-08-14T08:53:08Z</time>
      </trkpt>
      <trkpt lat="42.351800" lon="-8.610072">
        <ele>27.235</ele>
        <time>2020-08-14T08:53:46Z</time>
      </trkpt>
      <trkpt lat="42.351846" lon="-8.610462">
        <ele>25.752</ele>
        <time>2020-08-14T08:53:54Z</time>
      </trkpt>
      <trkpt lat="42.351294" lon="-8.611637">
        <ele>17.625</ele>
        <time>2020-08-14T08:54:22Z</time>
      </trkpt>
      <trkpt lat="42.351459" lon="-8.612080">
        <ele>11.226</ele>
        <time>2020-08-14T08:54:32Z</time>
      </trkpt>
      <trkpt lat="42.351908" lon="-8.612012">
        <ele>8.808</ele>
        <time>2020-08-14T08:54:44Z</time>
      </trkpt>
      <trkpt lat="42.352359" lon="-8.611682">
        <ele>9.408</ele>
        <time>2020-08-14T08:54:58Z</time>
      </trkpt>
      <trkpt lat="42.353057" lon="-8.612377">
        <ele>11.697</ele>
        <time>2020-08-14T08:55:22Z</time>
      </trkpt>
      <trkpt lat="42.353011" lon="-8.612796">
        <ele>12.037</ele>
        <time>2020-08-14T08:55:31Z</time>
      </trkpt>
      <trkpt lat="42.353145" lon="-8.613132">
        <ele>11.711</ele>
        <time>2020-08-14T08:55:39Z</time>
      </trkpt>
      <trkpt lat="42.354091" lon="-8.613812">
        <ele>13.598</ele>
        <time>2020-08-14T08:56:08Z</time>
      </trkpt>
      <trkpt lat="42.355240" lon="-8.613657">
        <ele>37.178</ele>
        <time>2020-08-14T08:56:39Z</time>
      </trkpt>
      <trkpt lat="42.355491" lon="-8.613892">
        <ele>34.933</ele>
        <time>2020-08-14T08:56:48Z</time>
      </trkpt>
      <trkpt lat="42.356293" lon="-8.613963">
        <ele>39.012</ele>
        <time>2020-08-14T08:57:09Z</time>
      </trkpt>
      <trkpt lat="42.357052" lon="-8.613780">
        <ele>41.569</ele>
        <time>2020-08-14T08:57:30Z</time>
      </trkpt>
      <trkpt lat="42.358523" lon="-8.613180">
        <ele>59.741</ele>
        <time>2020-08-14T08:58:11Z</time>
      </trkpt>
      <trkpt lat="42.359300" lon="-8.612579">
        <ele>70.781</ele>
        <time>2020-08-14T08:58:35Z</time>
      </trkpt>
      <trkpt lat="42.360383" lon="-8.612611">
        <ele>75.809</ele>
        <time>2020-08-14T08:59:04Z</time>
      </trkpt>
      <trkpt lat="42.361140" lon="-8.612167">
        <ele>83.508</ele>
        <time>2020-08-14T08:59:26Z</time>
      </trkpt>
      <trkpt lat="42.361526" lon="-8.612267">
        <ele>86.069</ele>
        <time>2020-08-14T08:59:37Z</time>
      </trkpt>
      <trkpt lat="42.362113" lon="-8.611689">
        <ele>100.919</ele>
        <time>2020-08-14T08:59:56Z</time>
      </trkpt>
      <trkpt lat="42.363360" lon="-8.612567">
        <ele>102.673</ele>
        <time>2020-08-14T09:00:34Z</time>
      </trkpt>
      <trkpt lat="42.363967" lon="-8.612783">
        <ele>109.780</ele>
        <time>2020-08-14T09:00:51Z</time>
      </trkpt>
      <trkpt lat="42.364686" lon="-8.612199">
        <ele>121.320</ele>
        <time>2020-08-14T09:01:14Z</time>
      </trkpt>
      <trkpt lat="42.364773" lon="-8.611863">
        <ele>126.625</ele>
        <time>2020-08-14T09:01:21Z</time>
      </trkpt>
      <trkpt lat="42.365246" lon="-8.612558">
        <ele>124.344</ele>
        <time>2020-08-14T09:01:40Z</time>
      </trkpt>
      <trkpt lat="42.365382" lon="-8.613550">
        <ele>113.821</ele>
        <time>2020-08-14T09:02:00Z</time>
      </trkpt>
      <trkpt lat="42.365793" lon="-8.613805">
        <ele>121.863</ele>
        <time>2020-08-14T09:02:12Z</time>
      </trkpt>
      <trkpt lat="42.366324" lon="-8.614615">
        <ele>120.244</ele>
        <time>2020-08-14T09:02:34Z</time>
      </trkpt>
      <trkpt lat="42.366320" lon="-8.615314">
        <ele>111.018</ele>
        <time>2020-08-14T09:02:48Z</time>
      </trkpt>
      <trkpt lat="42.365552" lon="-8.615386">
        <ele>99.708</ele>
        <time>2020-08-14T09:03:09Z</time>
      </trkpt>
      <trkpt lat="42.365325" lon="-8.615839">
        <ele>94.161</ele>
        <time>2020-08-14T09:03:20Z</time>
      </trkpt>
      <trkpt lat="42.365681" lon="-8.616745">
        <ele>98.271</ele>
        <time>2020-08-14T09:03:41Z</time>
      </trkpt>
      <trkpt lat="42.364965" lon="-8.616459">
        <ele>94.315</ele>
        <time>2020-08-14T09:04:02Z</time>
      </trkpt>
      <trkpt lat="42.365327" lon="-8.616918">
        <ele>100.672</ele>
        <time>2020-08-14T09:04:17Z</time>
      </trkpt>
      <trkpt lat="42.365122" lon="-8.617397">
        <ele>111.772</ele>
        <time>2020-08-14T09:04:28Z</time>
      </trkpt>
      <trkpt lat="42.364798" lon="-8.617787">
        <ele>115.897</ele>
        <time>2020-08-14T09:04:40Z</time>
      </trkpt>
      <trkpt lat="42.364213" lon="-8.617904">
        <ele>118.116</ele>
        <time>2020-08-14T09:04:56Z</time>
      </trkpt>
      <trkpt lat="42.364412" lon="-8.618172">
        <ele>125.693</ele>
        <time>2020-08-14T09:05:03Z</time>
      </trkpt>
      <trkpt lat="42.364950" lon="-8.618216">
        <ele>129.126</ele>
        <time>2020-08-14T09:05:18Z</time>
      </trkpt>
      <trkpt lat="42.365433" lon="-8.618489">
        <ele>132.647</ele>
        <time>2020-08-14T09:05:32Z</time>
      </trkpt>
      <trkpt lat="42.365974" lon="-8.619173">
        <ele>137.611</ele>
        <time>2020-08-14T09:05:52Z</time>
      </trkpt>
      <trkpt lat="42.366727" lon="-8.619659">
        <ele>142.008</ele>
        <time>2020-08-14T09:06:14Z</time>
      </trkpt>
      <trkpt lat="42.366676" lon="-8.620185">
        <ele>143.377</ele>
        <time>2020-08-14T09:06:25Z</time>
      </trkpt>
      <trkpt lat="42.367799" lon="-8.620695">
        <ele>140.627</ele>
        <time>2020-08-14T09:06:58Z</time>
      </trkpt>
      <trkpt lat="42.369060" lon="-8.624472">
        <ele>111.791</ele>
        <time>2020-08-14T09:08:20Z</time>
      </trkpt>
      <trkpt lat="42.369549" lon="-8.625298">
        <ele>112.688</ele>
        <time>2020-08-14T09:08:41Z</time>
      </trkpt>
      <trkpt lat="42.370756" lon="-8.626129">
        <ele>105.458</ele>
        <time>2020-08-14T09:09:18Z</time>
      </trkpt>
      <trkpt lat="42.371458" lon="-8.625865">
        <ele>105.323</ele>
        <time>2020-08-14T09:09:37Z</time>
      </trkpt>
      <trkpt lat="42.372474" lon="-8.624944">
        <ele>121.012</ele>
        <time>2020-08-14T09:10:10Z</time>
      </trkpt>
      <trkpt lat="42.372835" lon="-8.624779">
        <ele>114.279</ele>
        <time>2020-08-14T09:10:21Z</time>
      </trkpt>
      <trkpt lat="42.373771" lon="-8.625375">
        <ele>112.033</ele>
        <time>2020-08-14T09:10:48Z</time>
      </trkpt>
      <trkpt lat="42.374486" lon="-8.625401">
        <ele>113.323</ele>
        <time>2020-08-14T09:11:08Z</time>
      </trkpt>
      <trkpt lat="42.376404" lon="-8.626994">
        <ele>90.715</ele>
        <time>2020-08-14T09:12:08Z</time>
      </trkpt>
      <trkpt lat="42.377193" lon="-8.626969">
        <ele>97.308</ele>
        <time>2020-08-14T09:12:29Z</time>
      </trkpt>
      <trkpt lat="42.377515" lon="-8.627242">
        <ele>93.918</ele>
        <time>2020-08-14T09:12:39Z</time>
      </trkpt>
      <trkpt lat="42.378531" lon="-8.627356">
        <ele>105.048</ele>
        <time>2020-08-14T09:13:07Z</time>
      </trkpt>
      <trkpt lat="42.379029" lon="-8.627813">
        <ele>92.442</ele>
        <time>2020-08-14T09:13:23Z</time>
      </trkpt>
      <trkpt lat="42.379413" lon="-8.628845">
        <ele>75.289</ele>
        <time>2020-08-14T09:13:46Z</time>
      </trkpt>
      <trkpt lat="42.379772" lon="-8.629194">
        <ele>75.779</ele>
        <time>2020-08-14T09:13:58Z</time>
      </trkpt>
      <trkpt lat="42.380792" lon="-8.629580">
        <ele>72.344</ele>
        <time>2020-08-14T09:14:26Z</time>
      </trkpt>
      <trkpt lat="42.381672" lon="-8.629486">
        <ele>75.373</ele>
        <time>2020-08-14T09:14:50Z</time>
      </trkpt>
      <trkpt lat="42.382766" lon="-8.629651">
        <ele>68.730</ele>
        <time>2020-08-14T09:15:19Z</time>
      </trkpt>
      <trkpt lat="42.383588" lon="-8.630104">
        <ele>54.663</ele>
        <time>2020-08-14T09:15:44Z</time>
      </trkpt>
      <trkpt lat="42.383922" lon="-8.629959">
        <ele>53.544</ele>
        <time>2020-08-14T09:15:53Z</time>
      </trkpt>
      <trkpt lat="42.384693" lon="-8.630607">
        <ele>40.018</ele>
        <time>2020-08-14T09:16:18Z</time>
      </trkpt>
      <trkpt lat="42.386398" lon="-8.630373">
        <ele>40.308</ele>
        <time>2020-08-14T09:17:04Z</time>
      </trkpt>
      <trkpt lat="42.387851" lon="-8.629455">
        <ele>41.181</ele>
        <time>2020-08-14T09:17:47Z</time>
      </trkpt>
      <trkpt lat="42.389716" lon="-8.630058">
        <ele>39.561</ele>
        <time>2020-08-14T09:18:38Z</time>
      </trkpt>
      <trkpt lat="42.390887" lon="-8.629683">
        <ele>37.455</ele>
        <time>2020-08-14T09:19:10Z</time>
      </trkpt>
      <trkpt lat="42.392097" lon="-8.629892">
        <ele>34.632</ele>
        <time>2020-08-14T09:19:43Z</time>
      </trkpt>
      <trkpt lat="42.392908" lon="-8.629643">
        <ele>31.572</ele>
        <time>2020-08-14T09:20:05Z</time>
      </trkpt>
      <trkpt lat="42.393254" lon="-8.631792">
        <ele>30.247</ele>
        <time>2020-08-14T09:20:51Z</time>
      </trkpt>
      <trkpt lat="42.393005" lon="-8.632544">
        <ele>31.596</ele>
        <time>2020-08-14T09:21:08Z</time>
      </trkpt>
      <trkpt lat="42.392585" lon="-8.633006">
        <ele>35.373</ele>
        <time>2020-08-14T09:21:22Z</time>
      </trkpt>
      <trkpt lat="42.392249" lon="-8.633899">
        <ele>38.089</ele>
        <time>2020-08-14T09:21:42Z</time>
      </trkpt>
      <trkpt lat="42.396249" lon="-8.634307">
        <ele>28.806</ele>
        <time>2020-08-14T09:23:29Z</time>
      </trkpt>
      <trkpt lat="42.397520" lon="-8.634575">
        <ele>27.926</ele>
        <time>2020-08-14T09:24:04Z</time>
      </trkpt>
      <trkpt lat="42.399471" lon="-8.635179">
        <ele>26.008</ele>
        <time>2020-08-14T09:24:57Z</time>
      </trkpt>
      <trkpt lat="42.405144" lon="-8.637448">
        <ele>22.343</ele>
        <time>2020-08-14T09:27:35Z</time>
      </trkpt>
      <trkpt lat="42.406957" lon="-8.637735">
        <ele>24.783</ele>
        <time>2020-08-14T09:28:24Z</time>
      </trkpt>
      <trkpt lat="42.406612" lon="-8.636295">
        <ele>24.957</ele>
        <time>2020-08-14T09:28:54Z</time>
      </trkpt>
      <trkpt lat="42.406706" lon="-8.637326">
        <ele>23.364</ele>
        <time>2020-08-14T09:29:15Z</time>
      </trkpt>
      <trkpt lat="42.407331" lon="-8.639871">
        <ele>29.364</ele>
        <time>2020-08-14T09:30:08Z</time>
      </trkpt>
      <trkpt lat="42.409012" lon="-8.639414">
        <ele>27.499</ele>
        <time>2020-08-14T09:30:56Z</time>
      </trkpt>
      <trkpt lat="42.408244" lon="-8.639029">
        <ele>25.848</ele>
        <time>2020-08-14T09:31:18Z</time>
      </trkpt>
      <trkpt lat="42.408102" lon="-8.639568">
        <ele>27.225</ele>
        <time>2020-08-14T09:31:30Z</time>
      </trkpt>
      <trkpt lat="42.408227" lon="-8.640515">
        <ele>27.649</ele>
        <time>2020-08-14T09:31:49Z</time>
      </trkpt>
      <trkpt lat="42.407987" lon="-8.641322">
        <ele>30.802</ele>
        <time>2020-08-14T09:32:07Z</time>
      </trkpt>
      <trkpt lat="42.407568" lon="-8.641368">
        <ele>30.922</ele>
        <time>2020-08-14T09:32:18Z</time>
      </trkpt>
      <trkpt lat="42.407648" lon="-8.642040">
        <ele>34.208</ele>
        <time>2020-08-14T09:32:32Z</time>
      </trkpt>
      <trkpt lat="42.408456" lon="-8.642253">
        <ele>39.739</ele>
        <time>2020-08-14T09:32:54Z</time>
      </trkpt>
      <trkpt lat="42.408878" lon="-8.642999">
        <ele>46.489</ele>
        <time>2020-08-14T09:33:13Z</time>
      </trkpt>
      <trkpt lat="42.408945" lon="-8.643397">
        <ele>54.213</ele>
        <time>2020-08-14T09:33:21Z</time>
      </trkpt>
      <trkpt lat="42.408481" lon="-8.643678">
        <ele>55.670</ele>
        <time>2020-08-14T09:33:35Z</time>
      </trkpt>
      <trkpt lat="42.407836" lon="-8.644375">
        <ele>62.060</ele>
        <time>2020-08-14T09:33:57Z</time>
      </trkpt>
      <trkpt lat="42.407902" lon="-8.646082">
        <ele>68.115</ele>
        <time>2020-08-14T09:34:31Z</time>
      </trkpt>
      <trkpt lat="42.407438" lon="-8.646460">
        <ele>62.354</ele>
        <time>2020-08-14T09:34:45Z</time>
      </trkpt>
      <trkpt lat="42.407158" lon="-8.646995">
        <ele>68.091</ele>
        <time>2020-08-14T09:34:58Z</time>
      </trkpt>
      <trkpt lat="42.406949" lon="-8.648298">
        <ele>73.034</ele>
        <time>2020-08-14T09:35:25Z</time>
      </trkpt>
      <trkpt lat="42.405727" lon="-8.649076">
        <ele>70.655</ele>
        <time>2020-08-14T09:36:01Z</time>
      </trkpt>
      <trkpt lat="42.405072" lon="-8.650122">
        <ele>70.710</ele>
        <time>2020-08-14T09:36:28Z</time>
      </trkpt>
      <trkpt lat="42.405336" lon="-8.650150">
        <ele>69.208</ele>
        <time>2020-08-14T09:36:35Z</time>
      </trkpt>
      <trkpt lat="42.404891" lon="-8.651800">
        <ele>63.438</ele>
        <time>2020-08-14T09:37:10Z</time>
      </trkpt>
      <trkpt lat="42.405107" lon="-8.651593">
        <ele>63.968</ele>
        <time>2020-08-14T09:37:18Z</time>
      </trkpt>
      <trkpt lat="42.406168" lon="-8.652680">
        <ele>56.192</ele>
        <time>2020-08-14T09:37:54Z</time>
      </trkpt>
      <trkpt lat="42.408590" lon="-8.653928">
        <ele>47.719</ele>
        <time>2020-08-14T09:39:03Z</time>
      </trkpt>
      <trkpt lat="42.409621" lon="-8.654254">
        <ele>46.429</ele>
        <time>2020-08-14T09:39:32Z</time>
      </trkpt>
      <trkpt lat="42.410129" lon="-8.654175">
        <ele>50.044</ele>
        <time>2020-08-14T09:39:45Z</time>
      </trkpt>
      <trkpt lat="42.411829" lon="-8.654528">
        <ele>47.633</ele>
        <time>2020-08-14T09:40:32Z</time>
      </trkpt>
      <trkpt lat="42.412053" lon="-8.655439">
        <ele>43.720</ele>
        <time>2020-08-14T09:40:51Z</time>
      </trkpt>
      <trkpt lat="42.411791" lon="-8.655722">
        <ele>41.096</ele>
        <time>2020-08-14T09:41:00Z</time>
      </trkpt>
      <trkpt lat="42.411470" lon="-8.656952">
        <ele>30.531</ele>
        <time>2020-08-14T09:41:26Z</time>
      </trkpt>
      <trkpt lat="42.411041" lon="-8.657187">
        <ele>27.024</ele>
        <time>2020-08-14T09:41:38Z</time>
      </trkpt>
      <trkpt lat="42.411687" lon="-8.658121">
        <ele>25.508</ele>
        <time>2020-08-14T09:42:04Z</time>
      </trkpt>
      <trkpt lat="42.411923" lon="-8.658010">
        <ele>26.294</ele>
        <time>2020-08-14T09:42:10Z</time>
      </trkpt>
      <trkpt lat="42.412585" lon="-8.658248">
        <ele>25.414</ele>
        <time>2020-08-14T09:42:29Z</time>
      </trkpt>
      <trkpt lat="42.413053" lon="-8.658713">
        <ele>26.488</ele>
        <time>2020-08-14T09:42:44Z</time>
      </trkpt>
      <trkpt lat="42.413071" lon="-8.659061">
        <ele>26.995</ele>
        <time>2020-08-14T09:42:51Z</time>
      </trkpt>
      <trkpt lat="42.413649" lon="-8.658604">
        <ele>26.325</ele>
        <time>2020-08-14T09:43:09Z</time>
      </trkpt>
      <trkpt lat="42.413625" lon="-8.658189">
        <ele>30.320</ele>
        <time>2020-08-14T09:43:17Z</time>
      </trkpt>
      <trkpt lat="42.414434" lon="-8.658657">
        <ele>33.239</ele>
        <time>2020-08-14T09:43:41Z</time>
      </trkpt>
      <trkpt lat="42.414896" lon="-8.658600">
        <ele>41.646</ele>
        <time>2020-08-14T09:43:54Z</time>
      </trkpt>
      <trkpt lat="42.415201" lon="-8.658315">
        <ele>44.488</ele>
        <time>2020-08-14T09:44:03Z</time>
      </trkpt>
      <trkpt lat="42.416352" lon="-8.658264">
        <ele>29.924</ele>
        <time>2020-08-14T09:44:34Z</time>
      </trkpt>
      <trkpt lat="42.416947" lon="-8.658366">
        <ele>28.626</ele>
        <time>2020-08-14T09:44:50Z</time>
      </trkpt>
      <trkpt lat="42.417242" lon="-8.658641">
        <ele>27.608</ele>
        <time>2020-08-14T09:45:00Z</time>
      </trkpt>
      <trkpt lat="42.418228" lon="-8.658655">
        <ele>29.683</ele>
        <time>2020-08-14T09:45:27Z</time>
      </trkpt>
      <trkpt lat="42.419541" lon="-8.656426">
        <ele>23.673</ele>
        <time>2020-08-14T09:46:24Z</time>
      </trkpt>
      <trkpt lat="42.421519" lon="-8.654917">
        <ele>11.837</ele>
        <time>2020-08-14T09:47:25Z</time>
      </trkpt>
      <trkpt lat="42.422298" lon="-8.654619">
        <ele>14.994</ele>
        <time>2020-08-14T09:47:46Z</time>
      </trkpt>
      <trkpt lat="42.422808" lon="-8.654723">
        <ele>10.834</ele>
        <time>2020-08-14T09:48:00Z</time>
      </trkpt>
      <trkpt lat="42.423431" lon="-8.654342">
        <ele>9.669</ele>
        <time>2020-08-14T09:48:19Z</time>
      </trkpt>
      <trkpt lat="42.426162" lon="-8.650521">
        <ele>19.018</ele>
        <time>2020-08-14T09:50:03Z</time>
      </trkpt>
      <trkpt lat="42.426171" lon="-8.650279">
        <ele>20.145</ele>
        <time>2020-08-14T09:50:08Z</time>
      </trkpt>
      <trkpt lat="42.426372" lon="-8.650328">
        <ele>23.583</ele>
        <time>2020-08-14T09:50:14Z</time>
      </trkpt>
      <trkpt lat="42.426961" lon="-8.652206">
        <ele>6.025</ele>
        <time>2020-08-14T09:50:56Z</time>
      </trkpt>
      <trkpt lat="42.427844" lon="-8.651704">
        <ele>7.817</ele>
        <time>2020-08-14T09:51:22Z</time>
      </trkpt>
      <trkpt lat="42.428886" lon="-8.651889">
        <ele>4.008</ele>
        <time>2020-08-14T09:51:50Z</time>
      </trkpt>
      <trkpt lat="42.429127" lon="-8.651742">
        <ele>4.013</ele>
        <time>2020-08-14T09:51:57Z</time>
      </trkpt>
      <trkpt lat="42.429643" lon="-8.651168">
        <ele>10.023</ele>
        <time>2020-08-14T09:52:15Z</time>
      </trkpt>
      <trkpt lat="42.429928" lon="-8.650567">
        <ele>17.997</ele>
        <time>2020-08-14T09:52:29Z</time>
      </trkpt>
      <trkpt lat="42.429876" lon="-8.650277">
        <ele>19.394</ele>
        <time>2020-08-14T09:52:35Z</time>
      </trkpt>
      <trkpt lat="42.430100" lon="-8.650253">
        <ele>22.954</ele>
        <time>2020-08-14T09:52:42Z</time>
      </trkpt>
      <trkpt lat="42.431974" lon="-8.647418">
        <ele>23.719</ele>
        <time>2020-08-14T09:53:57Z</time>
      </trkpt>
      <trkpt lat="42.431685" lon="-8.647027">
        <ele>22.078</ele>
        <time>2020-08-14T09:54:08Z</time>
      </trkpt>
      <trkpt lat="42.431320" lon="-8.647322">
        <ele>20.955</ele>
        <time>2020-08-14T09:54:20Z</time>
      </trkpt>
      <trkpt lat="42.431369" lon="-8.647262">
        <ele>18.394</ele>
        <time>2020-08-14T07:00:00Z</time>
      </trkpt>
      <trkpt lat="42.431669" lon="-8.646998">
        <ele>18.057</ele>
        <time>2020-08-14T07:00:09Z</time>
      </trkpt>
      <trkpt lat="42.432338" lon="-8.647725">
        <ele>18.222</ele>
        <time>2020-08-14T07:00:32Z</time>
      </trkpt>
      <trkpt lat="42.431996" lon="-8.648320">
        <ele>20.008</ele>
        <time>2020-08-14T07:00:47Z</time>
      </trkpt>
      <trkpt lat="42.432550" lon="-8.649954">
        <ele>16.764</ele>
        <time>2020-08-14T07:01:23Z</time>
      </trkpt>
      <trkpt lat="42.432646" lon="-8.649851">
        <ele>16.584</ele>
        <time>2020-08-14T07:01:26Z</time>
      </trkpt>
      <trkpt lat="42.432793" lon="-8.649971">
        <ele>15.288</ele>
        <time>2020-08-14T07:01:31Z</time>
      </trkpt>
      <trkpt lat="42.432952" lon="-8.651745">
        <ele>5.615</ele>
        <time>2020-08-14T07:02:06Z</time>
      </trkpt>
      <trkpt lat="42.433091" lon="-8.651832">
        <ele>4.155</ele>
        <time>2020-08-14T07:02:11Z</time>
      </trkpt>
      <trkpt lat="42.435637" lon="-8.648386">
        <ele>2.590</ele>
        <time>2020-08-14T07:03:47Z</time>
      </trkpt>
      <trkpt lat="42.435818" lon="-8.647914">
        <ele>2.585</ele>
        <time>2020-08-14T07:03:58Z</time>
      </trkpt>
      <trkpt lat="42.437092" lon="-8.648374">
        <ele>2.329</ele>
        <time>2020-08-14T07:04:34Z</time>
      </trkpt>
      <trkpt lat="42.437236" lon="-8.648305">
        <ele>3.613</ele>
        <time>2020-08-14T07:04:38Z</time>
      </trkpt>
      <trkpt lat="42.437228" lon="-8.646937">
        <ele>2.243</ele>
        <time>2020-08-14T07:05:05Z</time>
      </trkpt>
      <trkpt lat="42.437479" lon="-8.646806">
        <ele>2.607</ele>
        <time>2020-08-14T07:05:12Z</time>
      </trkpt>
      <trkpt lat="42.438641" lon="-8.646722">
        <ele>2.108</ele>
        <time>2020-08-14T07:05:44Z</time>
      </trkpt>
      <trkpt lat="42.439644" lon="-8.646942">
        <ele>1.876</ele>
        <time>2020-08-14T07:06:11Z</time>
      </trkpt>
      <trkpt lat="42.444332" lon="-8.646534">
        <ele>2.446</ele>
        <time>2020-08-14T07:08:17Z</time>
      </trkpt>
      <trkpt lat="42.445606" lon="-8.646204">
        <ele>2.170</ele>
        <time>2020-08-14T07:08:52Z</time>
      </trkpt>
      <trkpt lat="42.445803" lon="-8.645550">
        <ele>3.017</ele>
        <time>2020-08-14T07:09:07Z</time>
      </trkpt>
      <trkpt lat="42.446103" lon="-8.645282">
        <ele>3.167</ele>
        <time>2020-08-14T07:09:17Z</time>
      </trkpt>
      <trkpt lat="42.447442" lon="-8.644932">
        <ele>4.432</ele>
        <time>2020-08-14T07:09:53Z</time>
      </trkpt>
      <trkpt lat="42.448439" lon="-8.644923">
        <ele>3.457</ele>
        <time>2020-08-14T07:10:20Z</time>
      </trkpt>
      <trkpt lat="42.448809" lon="-8.644724">
        <ele>3.111</ele>
        <time>2020-08-14T07:10:30Z</time>
      </trkpt>
      <trkpt lat="42.449422" lon="-8.643924">
        <ele>2.656</ele>
        <time>2020-08-14T07:10:53Z</time>
      </trkpt>
      <trkpt lat="42.449804" lon="-8.641986">
        <ele>2.959</ele>
        <time>2020-08-14T07:11:33Z</time>
      </trkpt>
      <trkpt lat="42.451049" lon="-8.641557">
        <ele>3.014</ele>
        <time>2020-08-14T07:12:08Z</time>
      </trkpt>
      <trkpt lat="42.451667" lon="-8.641489">
        <ele>3.408</ele>
        <time>2020-08-14T07:12:24Z</time>
      </trkpt>
      <trkpt lat="42.453158" lon="-8.642103">
        <ele>7.070</ele>
        <time>2020-08-14T07:13:06Z</time>
      </trkpt>
      <trkpt lat="42.455318" lon="-8.643616">
        <ele>6.080</ele>
        <time>2020-08-14T07:14:11Z</time>
      </trkpt>
      <trkpt lat="42.456789" lon="-8.644413">
        <ele>5.534</ele>
        <time>2020-08-14T07:14:53Z</time>
      </trkpt>
      <trkpt lat="42.457121" lon="-8.644224">
        <ele>7.911</ele>
        <time>2020-08-14T07:15:03Z</time>
      </trkpt>
      <trkpt lat="42.457661" lon="-8.644179">
        <ele>12.021</ele>
        <time>2020-08-14T07:15:18Z</time>
      </trkpt>
      <trkpt lat="42.458950" lon="-8.644341">
        <ele>18.596</ele>
        <time>2020-08-14T07:15:52Z</time>
      </trkpt>
      <trkpt lat="42.460134" lon="-8.644728">
        <ele>14.821</ele>
        <time>2020-08-14T07:16:25Z</time>
      </trkpt>
      <trkpt lat="42.460689" lon="-8.644709">
        <ele>14.135</ele>
        <time>2020-08-14T07:16:40Z</time>
      </trkpt>
      <trkpt lat="42.461654" lon="-8.644046">
        <ele>16.786</ele>
        <time>2020-08-14T07:17:09Z</time>
      </trkpt>
      <trkpt lat="42.462410" lon="-8.644361">
        <ele>23.460</ele>
        <time>2020-08-14T07:17:30Z</time>
      </trkpt>
      <trkpt lat="42.463603" lon="-8.644337">
        <ele>34.626</ele>
        <time>2020-08-14T07:18:02Z</time>
      </trkpt>
      <trkpt lat="42.463985" lon="-8.644669">
        <ele>36.408</ele>
        <time>2020-08-14T07:18:14Z</time>
      </trkpt>
      <trkpt lat="42.464347" lon="-8.645868">
        <ele>23.123</ele>
        <time>2020-08-14T07:18:40Z</time>
      </trkpt>
      <trkpt lat="42.464883" lon="-8.646177">
        <ele>19.963</ele>
        <time>2020-08-14T07:18:56Z</time>
      </trkpt>
      <trkpt lat="42.465308" lon="-8.647256">
        <ele>15.697</ele>
        <time>2020-08-14T07:19:21Z</time>
      </trkpt>
      <trkpt lat="42.466118" lon="-8.647953">
        <ele>15.554</ele>
        <time>2020-08-14T07:19:46Z</time>
      </trkpt>
      <trkpt lat="42.466935" lon="-8.648333">
        <ele>16.694</ele>
        <time>2020-08-14T07:20:09Z</time>
      </trkpt>
      <trkpt lat="42.467930" lon="-8.648214">
        <ele>14.519</ele>
        <time>2020-08-14T07:20:36Z</time>
      </trkpt>
      <trkpt lat="42.470347" lon="-8.648465">
        <ele>20.574</ele>
        <time>2020-08-14T07:21:41Z</time>
      </trkpt>
      <trkpt lat="42.471359" lon="-8.648382">
        <ele>28.768</ele>
        <time>2020-08-14T07:22:08Z</time>
      </trkpt>
      <trkpt lat="42.471962" lon="-8.648875">
        <ele>29.255</ele>
        <time>2020-08-14T07:22:27Z</time>
      </trkpt>
      <trkpt lat="42.473586" lon="-8.649631">
        <ele>27.807</ele>
        <time>2020-08-14T07:23:13Z</time>
      </trkpt>
      <trkpt lat="42.474282" lon="-8.649583">
        <ele>30.917</ele>
        <time>2020-08-14T07:23:32Z</time>
      </trkpt>
      <trkpt lat="42.475382" lon="-8.650052">
        <ele>29.208</ele>
        <time>2020-08-14T07:24:03Z</time>
      </trkpt>
      <trkpt lat="42.476271" lon="-8.650155">
        <ele>30.340</ele>
        <time>2020-08-14T07:24:27Z</time>
      </trkpt>
      <trkpt lat="42.477078" lon="-8.650575">
        <ele>30.380</ele>
        <time>2020-08-14T07:24:50Z</time>
      </trkpt>
      <trkpt lat="42.478828" lon="-8.650861">
        <ele>34.694</ele>
        <time>2020-08-14T07:25:37Z</time>
      </trkpt>
      <trkpt lat="42.479857" lon="-8.651193">
        <ele>34.181</ele>
        <time>2020-08-14T07:26:06Z</time>
      </trkpt>
      <trkpt lat="42.480936" lon="-8.650763">
        <ele>33.281</ele>
        <time>2020-08-14T07:26:36Z</time>
      </trkpt>
      <trkpt lat="42.482096" lon="-8.651006">
        <ele>37.916</ele>
        <time>2020-08-14T07:27:07Z</time>
      </trkpt>
      <trkpt lat="42.486079" lon="-8.650650">
        <ele>45.591</ele>
        <time>2020-08-14T07:28:54Z</time>
      </trkpt>
      <trkpt lat="42.487346" lon="-8.650054">
        <ele>50.035</ele>
        <time>2020-08-14T07:29:30Z</time>
      </trkpt>
      <trkpt lat="42.488627" lon="-8.650006">
        <ele>51.467</ele>
        <time>2020-08-14T07:30:05Z</time>
      </trkpt>
      <trkpt lat="42.489453" lon="-8.649553">
        <ele>56.081</ele>
        <time>2020-08-14T07:30:29Z</time>
      </trkpt>
      <trkpt lat="42.490691" lon="-8.649260">
        <ele>58.719</ele>
        <time>2020-08-14T07:31:03Z</time>
      </trkpt>
      <trkpt lat="42.492317" lon="-8.648520">
        <ele>71.608</ele>
        <time>2020-08-14T07:31:49Z</time>
      </trkpt>
      <trkpt lat="42.493189" lon="-8.648553">
        <ele>71.981</ele>
        <time>2020-08-14T07:32:13Z</time>
      </trkpt>
      <trkpt lat="42.494083" lon="-8.648359">
        <ele>72.671</ele>
        <time>2020-08-14T07:32:37Z</time>
      </trkpt>
      <trkpt lat="42.496408" lon="-8.649144">
        <ele>70.655</ele>
        <time>2020-08-14T07:33:41Z</time>
      </trkpt>
      <trkpt lat="42.496704" lon="-8.649185">
        <ele>73.412</ele>
        <time>2020-08-14T07:33:49Z</time>
      </trkpt>
      <trkpt lat="42.497419" lon="-8.648946">
        <ele>81.232</ele>
        <time>2020-08-14T07:34:10Z</time>
      </trkpt>
      <trkpt lat="42.499357" lon="-8.649641">
        <ele>89.647</ele>
        <time>2020-08-14T07:35:04Z</time>
      </trkpt>
      <trkpt lat="42.500019" lon="-8.649455">
        <ele>102.572</ele>
        <time>2020-08-14T07:35:23Z</time>
      </trkpt>
      <trkpt lat="42.500651" lon="-8.649845">
        <ele>104.356</ele>
        <time>2020-08-14T07:35:43Z</time>
      </trkpt>
      <trkpt lat="42.501080" lon="-8.649799">
        <ele>107.455</ele>
        <time>2020-08-14T07:35:56Z</time>
      </trkpt>
      <trkpt lat="42.500337" lon="-8.649010">
        <ele>116.307</ele>
        <time>2020-08-14T07:36:21Z</time>
      </trkpt>
      <trkpt lat="42.499292" lon="-8.648538">
        <ele>116.817</ele>
        <time>2020-08-14T07:36:52Z</time>
      </trkpt>
      <trkpt lat="42.498909" lon="-8.648084">
        <ele>122.308</ele>
        <time>2020-08-14T07:37:05Z</time>
      </trkpt>
      <trkpt lat="42.498966" lon="-8.647993">
        <ele>122.760</ele>
        <time>2020-08-14T07:37:08Z</time>
      </trkpt>
      <trkpt lat="42.499826" lon="-8.647590">
        <ele>133.850</ele>
        <time>2020-08-14T07:37:33Z</time>
      </trkpt>
      <trkpt lat="42.500409" lon="-8.646808">
        <ele>143.414</ele>
        <time>2020-08-14T07:37:55Z</time>
      </trkpt>
      <trkpt lat="42.500620" lon="-8.646711">
        <ele>144.851</ele>
        <time>2020-08-14T07:38:01Z</time>
      </trkpt>
      <trkpt lat="42.501615" lon="-8.647260">
        <ele>153.541</ele>
        <time>2020-08-14T07:38:30Z</time>
      </trkpt>
      <trkpt lat="42.502086" lon="-8.647208">
        <ele>153.176</ele>
        <time>2020-08-14T07:38:43Z</time>
      </trkpt>
      <trkpt lat="42.502391" lon="-8.647440">
        <ele>154.011</ele>
        <time>2020-08-14T07:38:52Z</time>
      </trkpt>
      <trkpt lat="42.502667" lon="-8.647430">
        <ele>153.715</ele>
        <time>2020-08-14T07:39:00Z</time>
      </trkpt>
      <trkpt lat="42.502894" lon="-8.647174">
        <ele>154.464</ele>
        <time>2020-08-14T07:39:08Z</time>
      </trkpt>
      <trkpt lat="42.502987" lon="-8.646395">
        <ele>155.106</ele>
        <time>2020-08-14T07:39:24Z</time>
      </trkpt>
      <trkpt lat="42.503254" lon="-8.646103">
        <ele>154.816</ele>
        <time>2020-08-14T07:39:33Z</time>
      </trkpt>
      <trkpt lat="42.503433" lon="-8.646043">
        <ele>155.508</ele>
        <time>2020-08-14T07:39:38Z</time>
      </trkpt>
      <trkpt lat="42.503739" lon="-8.646320">
        <ele>157.021</ele>
        <time>2020-08-14T07:39:48Z</time>
      </trkpt>
      <trkpt lat="42.504047" lon="-8.646251">
        <ele>156.781</ele>
        <time>2020-08-14T07:39:56Z</time>
      </trkpt>
      <trkpt lat="42.505011" lon="-8.645386">
        <ele>157.815</ele>
        <time>2020-08-14T07:40:27Z</time>
      </trkpt>
      <trkpt lat="42.506535" lon="-8.644806">
        <ele>159.752</ele>
        <time>2020-08-14T07:41:10Z</time>
      </trkpt>
      <trkpt lat="42.507149" lon="-8.644192">
        <ele>163.532</ele>
        <time>2020-08-14T07:41:30Z</time>
      </trkpt>
      <trkpt lat="42.507244" lon="-8.643859">
        <ele>164.727</ele>
        <time>2020-08-14T07:41:38Z</time>
      </trkpt>
      <trkpt lat="42.507702" lon="-8.643863">
        <ele>168.252</ele>
        <time>2020-08-14T07:41:50Z</time>
      </trkpt>
      <trkpt lat="42.508492" lon="-8.643232">
        <ele>167.866</ele>
        <time>2020-08-14T07:42:15Z</time>
      </trkpt>
      <trkpt lat="42.508605" lon="-8.642317">
        <ele>171.114</ele>
        <time>2020-08-14T07:42:34Z</time>
      </trkpt>
      <trkpt lat="42.509928" lon="-8.640541">
        <ele>179.154</ele>
        <time>2020-08-14T07:43:24Z</time>
      </trkpt>
      <trkpt lat="42.510355" lon="-8.639689">
        <ele>184.709</ele>
        <time>2020-08-14T07:43:45Z</time>
      </trkpt>
      <trkpt lat="42.510462" lon="-8.639573">
        <ele>184.908</ele>
        <time>2020-08-14T07:43:48Z</time>
      </trkpt>
      <trkpt lat="42.511011" lon="-8.639556">
        <ele>181.746</ele>
        <time>2020-08-14T07:44:03Z</time>
      </trkpt>
      <trkpt lat="42.511617" lon="-8.638706">
        <ele>184.196</ele>
        <time>2020-08-14T07:44:27Z</time>
      </trkpt>
      <trkpt lat="42.511942" lon="-8.638516">
        <ele>184.110</ele>
        <time>2020-08-14T07:44:36Z</time>
      </trkpt>
      <trkpt lat="42.512313" lon="-8.638636">
        <ele>185.757</ele>
        <time>2020-08-14T07:44:47Z</time>
      </trkpt>
      <trkpt lat="42.512693" lon="-8.638108">
        <ele>190.777</ele>
        <time>2020-08-14T07:45:02Z</time>
      </trkpt>
      <trkpt lat="42.513068" lon="-8.636436">
        <ele>215.082</ele>
        <time>2020-08-14T07:45:38Z</time>
      </trkpt>
      <trkpt lat="42.512893" lon="-8.636012">
        <ele>219.987</ele>
        <time>2020-08-14T07:45:47Z</time>
      </trkpt>
      <trkpt lat="42.512861" lon="-8.635184">
        <ele>228.271</ele>
        <time>2020-08-14T07:46:04Z</time>
      </trkpt>
      <trkpt lat="42.513325" lon="-8.633844">
        <ele>230.459</ele>
        <time>2020-08-14T07:46:34Z</time>
      </trkpt>
      <trkpt lat="42.513063" lon="-8.632777">
        <ele>235.803</ele>
        <time>2020-08-14T07:46:57Z</time>
      </trkpt>
      <trkpt lat="42.513600" lon="-8.631750">
        <ele>242.723</ele>
        <time>2020-08-14T07:47:22Z</time>
      </trkpt>
      <trkpt lat="42.513700" lon="-8.630926">
        <ele>251.208</ele>
        <time>2020-08-14T07:47:39Z</time>
      </trkpt>
      <trkpt lat="42.513450" lon="-8.630386">
        <ele>255.920</ele>
        <time>2020-08-14T07:47:52Z</time>
      </trkpt>
      <trkpt lat="42.513693" lon="-8.629755">
        <ele>260.680</ele>
        <time>2020-08-14T07:48:07Z</time>
      </trkpt>
      <trkpt lat="42.512043" lon="-8.630396">
        <ele>278.874</ele>
        <time>2020-08-14T07:48:54Z</time>
      </trkpt>
      <trkpt lat="42.512259" lon="-8.629935">
        <ele>284.041</ele>
        <time>2020-08-14T07:49:05Z</time>
      </trkpt>
      <trkpt lat="42.513030" lon="-8.629069">
        <ele>285.721</ele>
        <time>2020-08-14T07:49:32Z</time>
      </trkpt>
      <trkpt lat="42.513766" lon="-8.628699">
        <ele>283.066</ele>
        <time>2020-08-14T07:49:53Z</time>
      </trkpt>
      <trkpt lat="42.514450" lon="-8.628022">
        <ele>284.051</ele>
        <time>2020-08-14T07:50:16Z</time>
      </trkpt>
      <trkpt lat="42.514861" lon="-8.627902">
        <ele>282.545</ele>
        <time>2020-08-14T07:50:28Z</time>
      </trkpt>
      <trkpt lat="42.515040" lon="-8.626915">
        <ele>281.187</ele>
        <time>2020-08-14T07:50:50Z</time>
      </trkpt>
      <trkpt lat="42.516373" lon="-8.625566">
        <ele>267.042</ele>
        <time>2020-08-14T07:51:35Z</time>
      </trkpt>
      <trkpt lat="42.516951" lon="-8.624659">
        <ele>261.826</ele>
        <time>2020-08-14T07:51:58Z</time>
      </trkpt>
      <trkpt lat="42.516549" lon="-8.623820">
        <ele>270.908</ele>
        <time>2020-08-14T07:52:19Z</time>
      </trkpt>
      <trkpt lat="42.514917" lon="-8.621700">
        <ele>289.783</ele>
        <time>2020-08-14T07:53:20Z</time>
      </trkpt>
      <trkpt lat="42.514882" lon="-8.621150">
        <ele>288.773</ele>
        <time>2020-08-14T07:53:31Z</time>
      </trkpt>
      <trkpt lat="42.515189" lon="-8.620631">
        <ele>289.487</ele>
        <time>2020-08-14T07:53:45Z</time>
      </trkpt>
      <trkpt lat="42.515440" lon="-8.620471">
        <ele>289.814</ele>
        <time>2020-08-14T07:53:52Z</time>
      </trkpt>
      <trkpt lat="42.517370" lon="-8.620616">
        <ele>274.654</ele>
        <time>2020-08-14T07:54:44Z</time>
      </trkpt>
      <trkpt lat="42.518534" lon="-8.620278">
        <ele>270.079</ele>
        <time>2020-08-14T07:55:16Z</time>
      </trkpt>
      <trkpt lat="42.520206" lon="-8.619541">
        <ele>259.594</ele>
        <time>2020-08-14T07:56:03Z</time>
      </trkpt>
      <trkpt lat="42.521770" lon="-8.619122">
        <ele>250.278</ele>
        <time>2020-08-14T07:56:46Z</time>
      </trkpt>
      <trkpt lat="42.522386" lon="-8.618654">
        <ele>249.158</ele>
        <time>2020-08-14T07:57:05Z</time>
      </trkpt>
      <trkpt lat="42.523282" lon="-8.618675">
        <ele>248.052</ele>
        <time>2020-08-14T07:57:29Z</time>
      </trkpt>
      <trkpt lat="42.524058" lon="-8.618960">
        <ele>232.417</ele>
        <time>2020-08-14T07:57:51Z</time>
      </trkpt>
      <trkpt lat="42.524647" lon="-8.618176">
        <ele>235.608</ele>
        <time>2020-08-14T07:58:13Z</time>
      </trkpt>
      <trkpt lat="42.524835" lon="-8.618717">
        <ele>234.640</ele>
        <time>2020-08-14T07:58:26Z</time>
      </trkpt>
      <trkpt lat="42.524914" lon="-8.621382">
        <ele>211.860</ele>
        <time>2020-08-14T07:59:19Z</time>
      </trkpt>
      <trkpt lat="42.525033" lon="-8.621513">
        <ele>209.594</ele>
        <time>2020-08-14T07:59:23Z</time>
      </trkpt>
      <trkpt lat="42.525346" lon="-8.621435">
        <ele>206.411</ele>
        <time>2020-08-14T07:59:31Z</time>
      </trkpt>
      <trkpt lat="42.525905" lon="-8.620984">
        <ele>203.621</ele>
        <time>2020-08-14T07:59:49Z</time>
      </trkpt>
      <trkpt lat="42.526709" lon="-8.621021">
        <ele>197.846</ele>
        <time>2020-08-14T08:00:11Z</time>
      </trkpt>
      <trkpt lat="42.527387" lon="-8.621677">
        <ele>195.211</ele>
        <time>2020-08-14T08:00:33Z</time>
      </trkpt>
      <trkpt lat="42.527772" lon="-8.621637">
        <ele>193.945</ele>
        <time>2020-08-14T08:00:43Z</time>
      </trkpt>
      <trkpt lat="42.528121" lon="-8.621366">
        <ele>195.742</ele>
        <time>2020-08-14T08:00:54Z</time>
      </trkpt>
      <trkpt lat="42.528701" lon="-8.621344">
        <ele>199.422</ele>
        <time>2020-08-14T08:01:10Z</time>
      </trkpt>
      <trkpt lat="42.529927" lon="-8.622389">
        <ele>184.514</ele>
        <time>2020-08-14T08:01:49Z</time>
      </trkpt>
      <trkpt lat="42.531488" lon="-8.622468">
        <ele>177.308</ele>
        <time>2020-08-14T08:02:30Z</time>
      </trkpt>
      <trkpt lat="42.532648" lon="-8.622896">
        <ele>167.549</ele>
        <time>2020-08-14T08:03:03Z</time>
      </trkpt>
      <trkpt lat="42.533376" lon="-8.622788">
        <ele>160.089</ele>
        <time>2020-08-14T08:03:22Z</time>
      </trkpt>
      <trkpt lat="42.533707" lon="-8.623646">
        <ele>159.383</ele>
        <time>2020-08-14T08:03:41Z</time>
      </trkpt>
      <trkpt lat="42.533860" lon="-8.623634">
        <ele>161.570</ele>
        <time>2020-08-14T08:03:45Z</time>
      </trkpt>
      <trkpt lat="42.534274" lon="-8.622815">
        <ele>172.710</ele>
        <time>2020-08-14T08:04:05Z</time>
      </trkpt>
      <trkpt lat="42.534589" lon="-8.622498">
        <ele>173.965</ele>
        <time>2020-08-14T08:04:16Z</time>
      </trkpt>
      <trkpt lat="42.534778" lon="-8.622462">
        <ele>174.120</ele>
        <time>2020-08-14T08:04:21Z</time>
      </trkpt>
      <trkpt lat="42.535146" lon="-8.622891">
        <ele>167.044</ele>
        <time>2020-08-14T08:04:34Z</time>
      </trkpt>
      <trkpt lat="42.535603" lon="-8.623115">
        <ele>161.537</ele>
        <time>2020-08-14T08:04:47Z</time>
      </trkpt>
      <trkpt lat="42.536288" lon="-8.621106">
        <ele>167.249</ele>
        <time>2020-08-14T08:05:31Z</time>
      </trkpt>
      <trkpt lat="42.536092" lon="-8.619204">
        <ele>171.213</ele>
        <time>2020-08-14T08:06:10Z</time>
      </trkpt>
      <trkpt lat="42.536739" lon="-8.618571">
        <ele>173.208</ele>
        <time>2020-08-14T08:06:32Z</time>
      </trkpt>
      <trkpt lat="42.536953" lon="-8.617813">
        <ele>185.058</ele>
        <time>2020-08-14T08:06:48Z</time>
      </trkpt>
      <trkpt lat="42.537288" lon="-8.617350">
        <ele>191.058</ele>
        <time>2020-08-14T08:07:01Z</time>
      </trkpt>
      <trkpt lat="42.537414" lon="-8.615564">
        <ele>204.622</ele>
        <time>2020-08-14T08:07:38Z</time>
      </trkpt>
      <trkpt lat="42.538149" lon="-8.614865">
        <ele>202.439</ele>
        <time>2020-08-14T08:08:02Z</time>
      </trkpt>
      <trkpt lat="42.538735" lon="-8.614864">
        <ele>203.719</ele>
        <time>2020-08-14T08:08:18Z</time>
      </trkpt>
      <trkpt lat="42.539122" lon="-8.614662">
        <ele>207.344</ele>
        <time>2020-08-14T08:08:30Z</time>
      </trkpt>
      <trkpt lat="42.539793" lon="-8.613658">
        <ele>218.989</ele>
        <time>2020-08-14T08:08:57Z</time>
      </trkpt>
      <trkpt lat="42.539991" lon="-8.612892">
        <ele>226.313</ele>
        <time>2020-08-14T08:09:13Z</time>
      </trkpt>
      <trkpt lat="42.539952" lon="-8.612053">
        <ele>230.646</ele>
        <time>2020-08-14T08:09:30Z</time>
      </trkpt>
      <trkpt lat="42.542342" lon="-8.609733">
        <ele>245.788</ele>
        <time>2020-08-14T08:10:50Z</time>
      </trkpt>
      <trkpt lat="42.543319" lon="-8.606067">
        <ele>250.916</ele>
        <time>2020-08-14T08:12:08Z</time>
      </trkpt>
      <trkpt lat="42.544516" lon="-8.605230">
        <ele>255.108</ele>
        <time>2020-08-14T08:12:45Z</time>
      </trkpt>
      <trkpt lat="42.545034" lon="-8.604301">
        <ele>256.279</ele>
        <time>2020-08-14T08:13:08Z</time>
      </trkpt>
      <trkpt lat="42.545971" lon="-8.603575">
        <ele>258.849</ele>
        <time>2020-08-14T08:13:37Z</time>
      </trkpt>
      <trkpt lat="42.546385" lon="-8.602777">
        <ele>260.983</ele>
        <time>2020-08-14T08:13:57Z</time>
      </trkpt>
      <trkpt lat="42.547231" lon="-8.601923">
        <ele>259.970</ele>
        <time>2020-08-14T08:14:25Z</time>
      </trkpt>
      <trkpt lat="42.547355" lon="-8.601223">
        <ele>259.180</ele>
        <time>2020-08-14T08:14:40Z</time>
      </trkpt>
      <trkpt lat="42.547008" lon="-8.600437">
        <ele>260.715</ele>
        <time>2020-08-14T08:14:58Z</time>
      </trkpt>
      <trkpt lat="42.547382" lon="-8.600273">
        <ele>256.060</ele>
        <time>2020-08-14T08:15:09Z</time>
      </trkpt>
      <trkpt lat="42.547649" lon="-8.600661">
        <ele>255.464</ele>
        <time>2020-08-14T08:15:20Z</time>
      </trkpt>
      <trkpt lat="42.547770" lon="-8.602492">
        <ele>248.229</ele>
        <time>2020-08-14T08:15:56Z</time>
      </trkpt>
      <trkpt lat="42.547265" lon="-8.603362">
        <ele>241.500</ele>
        <time>2020-08-14T08:16:18Z</time>
      </trkpt>
      <trkpt lat="42.546802" lon="-8.605355">
        <ele>214.720</ele>
        <time>2020-08-14T08:17:02Z</time>
      </trkpt>
      <trkpt lat="42.547178" lon="-8.605000">
        <ele>213.708</ele>
        <time>2020-08-14T08:17:14Z</time>
      </trkpt>
      <trkpt lat="42.549152" lon="-8.604530">
        <ele>196.347</ele>
        <time>2020-08-14T08:18:08Z</time>
      </trkpt>
      <trkpt lat="42.551680" lon="-8.604627">
        <ele>169.647</ele>
        <time>2020-08-14T08:19:16Z</time>
      </trkpt>
      <trkpt lat="42.553394" lon="-8.603638">
        <ele>154.221</ele>
        <time>2020-08-14T08:20:06Z</time>
      </trkpt>
      <trkpt lat="42.553726" lon="-8.602792">
        <ele>156.388</ele>
        <time>2020-08-14T08:20:25Z</time>
      </trkpt>
      <trkpt lat="42.554090" lon="-8.602322">
        <ele>158.278</ele>
        <time>2020-08-14T08:20:39Z</time>
      </trkpt>
      <trkpt lat="42.554414" lon="-8.602411">
        <ele>159.713</ele>
        <time>2020-08-14T08:20:48Z</time>
      </trkpt>
      <trkpt lat="42.554952" lon="-8.602974">
        <ele>154.018</ele>
        <time>2020-08-14T08:21:06Z</time>
      </trkpt>
      <trkpt lat="42.555376" lon="-8.602786">
        <ele>149.762</ele>
        <time>2020-08-14T08:21:18Z</time>
      </trkpt>
      <trkpt lat="42.556031" lon="-8.602881">
        <ele>151.298</ele>
        <time>2020-08-14T08:21:36Z</time>
      </trkpt>
      <trkpt lat="42.556368" lon="-8.602315">
        <ele>159.115</ele>
        <time>2020-08-14T08:21:51Z</time>
      </trkpt>
      <trkpt lat="42.556846" lon="-8.602171">
        <ele>163.126</ele>
        <time>2020-08-14T08:22:04Z</time>
      </trkpt>
      <trkpt lat="42.557108" lon="-8.602481">
        <ele>162.308</ele>
        <time>2020-08-14T08:22:13Z</time>
      </trkpt>
      <trkpt lat="42.558542" lon="-8.603293">
        <ele>167.114</ele>
        <time>2020-08-14T08:22:55Z</time>
      </trkpt>
      <trkpt lat="42.558532" lon="-8.603534">
        <ele>165.774</ele>
        <time>2020-08-14T08:23:01Z</time>
      </trkpt>
      <trkpt lat="42.559341" lon="-8.603666">
        <ele>163.128</ele>
        <time>2020-08-14T08:23:22Z</time>
      </trkpt>
      <trkpt lat="42.559561" lon="-8.603982">
        <ele>161.025</ele>
        <time>2020-08-14T08:23:32Z</time>
      </trkpt>
      <trkpt lat="42.560013" lon="-8.603883">
        <ele>166.185</ele>
        <time>2020-08-14T08:23:44Z</time>
      </trkpt>
      <trkpt lat="42.559931" lon="-8.604412">
        <ele>165.650</ele>
        <time>2020-08-14T08:23:55Z</time>
      </trkpt>
      <trkpt lat="42.560118" lon="-8.604963">
        <ele>162.545</ele>
        <time>2020-08-14T08:24:07Z</time>
      </trkpt>
      <trkpt lat="42.560820" lon="-8.605195">
        <ele>151.319</ele>
        <time>2020-08-14T08:24:26Z</time>
      </trkpt>
      <trkpt lat="42.561833" lon="-8.605954">
        <ele>160.989</ele>
        <time>2020-08-14T08:24:58Z</time>
      </trkpt>
      <trkpt lat="42.561143" lon="-8.606489">
        <ele>141.606</ele>
        <time>2020-08-14T08:25:20Z</time>
      </trkpt>
      <trkpt lat="42.560892" lon="-8.607118">
        <ele>126.726</ele>
        <time>2020-08-14T08:25:35Z</time>
      </trkpt>
      <trkpt lat="42.561235" lon="-8.607805">
        <ele>126.008</ele>
        <time>2020-08-14T08:25:52Z</time>
      </trkpt>
      <trkpt lat="42.562602" lon="-8.607522">
        <ele>120.563</ele>
        <time>2020-08-14T08:26:29Z</time>
      </trkpt>
      <trkpt lat="42.562999" lon="-8.607569">
        <ele>118.553</ele>
        <time>2020-08-14T08:26:40Z</time>
      </trkpt>
      <trkpt lat="42.564578" lon="-8.607138">
        <ele>121.767</ele>
        <time>2020-08-14T08:27:23Z</time>
      </trkpt>
      <trkpt lat="42.564970" lon="-8.607660">
        <ele>113.754</ele>
        <time>2020-08-14T08:27:38Z</time>
      </trkpt>
      <trkpt lat="42.565206" lon="-8.607756">
        <ele>109.324</ele>
        <time>2020-08-14T08:27:45Z</time>
      </trkpt>
      <trkpt lat="42.566289" lon="-8.607916">
        <ele>102.719</ele>
        <time>2020-08-14T08:28:14Z</time>
      </trkpt>
      <trkpt lat="42.566930" lon="-8.608380">
        <ele>101.714</ele>
        <time>2020-08-14T08:28:34Z</time>
      </trkpt>
      <trkpt lat="42.567388" lon="-8.608214">
        <ele>101.328</ele>
        <time>2020-08-14T08:28:47Z</time>
      </trkpt>
      <trkpt lat="42.568113" lon="-8.608963">
        <ele>101.582</ele>
        <time>2020-08-14T08:29:13Z</time>
      </trkpt>
      <trkpt lat="42.568313" lon="-8.608778">
        <ele>100.943</ele>
        <time>2020-08-14T08:29:19Z</time>
      </trkpt>
      <trkpt lat="42.568578" lon="-8.608824">
        <ele>100.917</ele>
        <time>2020-08-14T08:29:27Z</time>
      </trkpt>
      <trkpt lat="42.568874" lon="-8.608331">
        <ele>102.508</ele>
        <time>2020-08-14T08:29:40Z</time>
      </trkpt>
      <trkpt lat="42.569171" lon="-8.608362">
        <ele>102.423</ele>
        <time>2020-08-14T08:29:48Z</time>
      </trkpt>
      <trkpt lat="42.569269" lon="-8.608529">
        <ele>102.133</ele>
        <time>2020-08-14T08:29:53Z</time>
      </trkpt>
      <trkpt lat="42.569426" lon="-8.608358">
        <ele>102.167</ele>
        <time>2020-08-14T08:29:58Z</time>
      </trkpt>
      <trkpt lat="42.570026" lon="-8.608600">
        <ele>102.184</ele>
        <time>2020-08-14T08:30:15Z</time>
      </trkpt>
      <trkpt lat="42.570515" lon="-8.608137">
        <ele>102.194</ele>
        <time>2020-08-14T08:30:31Z</time>
      </trkpt>
      <trkpt lat="42.571388" lon="-8.607734">
        <ele>103.079</ele>
        <time>2020-08-14T08:30:56Z</time>
      </trkpt>
      <trkpt lat="42.571530" lon="-8.607480">
        <ele>103.024</ele>
        <time>2020-08-14T08:31:03Z</time>
      </trkpt>
      <trkpt lat="42.571758" lon="-8.607496">
        <ele>103.068</ele>
        <time>2020-08-14T08:31:09Z</time>
      </trkpt>
      <trkpt lat="42.571845" lon="-8.607695">
        <ele>103.147</ele>
        <time>2020-08-14T08:31:14Z</time>
      </trkpt>
      <trkpt lat="42.572278" lon="-8.607149">
        <ele>103.029</ele>
        <time>2020-08-14T08:31:30Z</time>
      </trkpt>
      <trkpt lat="42.572465" lon="-8.607124">
        <ele>103.021</ele>
        <time>2020-08-14T08:31:35Z</time>
      </trkpt>
      <trkpt lat="42.572287" lon="-8.606564">
        <ele>103.608</ele>
        <time>2020-08-14T08:31:48Z</time>
      </trkpt>
      <trkpt lat="42.572726" lon="-8.606204">
        <ele>103.999</ele>
        <time>2020-08-14T08:32:02Z</time>
      </trkpt>
      <trkpt lat="42.572811" lon="-8.605950">
        <ele>103.959</ele>
        <time>2020-08-14T08:32:08Z</time>
      </trkpt>
      <trkpt lat="42.573110" lon="-8.605806">
        <ele>103.933</ele>
        <time>2020-08-14T08:32:17Z</time>
      </trkpt>
      <trkpt lat="42.573622" lon="-8.606217">
        <ele>104.670</ele>
        <time>2020-08-14T08:32:34Z</time>
      </trkpt>
      <trkpt lat="42.573965" lon="-8.606282">
        <ele>105.670</ele>
        <time>2020-08-14T08:32:43Z</time>
      </trkpt>
      <trkpt lat="42.574369" lon="-8.605478">
        <ele>105.625</ele>
        <time>2020-08-14T08:33:03Z</time>
      </trkpt>
      <trkpt lat="42.574913" lon="-8.605321">
        <ele>106.750</ele>
        <time>2020-08-14T08:33:18Z</time>
      </trkpt>
      <trkpt lat="42.575297" lon="-8.604976">
        <ele>106.954</ele>
        <time>2020-08-14T08:33:30Z</time>
      </trkpt>
      <trkpt lat="42.575667" lon="-8.605492">
        <ele>109.215</ele>
        <time>2020-08-14T08:33:45Z</time>
      </trkpt>
      <trkpt lat="42.575573" lon="-8.606223">
        <ele>115.465</ele>
        <time>2020-08-14T08:34:00Z</time>
      </trkpt>
      <trkpt lat="42.575880" lon="-8.606194">
        <ele>118.911</ele>
        <time>2020-08-14T08:34:09Z</time>
      </trkpt>
      <trkpt lat="42.576205" lon="-8.606823">
        <ele>127.408</ele>
        <time>2020-08-14T08:34:24Z</time>
      </trkpt>
      <trkpt lat="42.576136" lon="-8.607731">
        <ele>137.066</ele>
        <time>2020-08-14T08:34:42Z</time>
      </trkpt>
      <trkpt lat="42.575529" lon="-8.609064">
        <ele>150.186</ele>
        <time>2020-08-14T08:35:14Z</time>
      </trkpt>
      <trkpt lat="42.575513" lon="-8.609668">
        <ele>152.740</ele>
        <time>2020-08-14T08:35:26Z</time>
      </trkpt>
      <trkpt lat="42.575838" lon="-8.610155">
        <ele>156.147</ele>
        <time>2020-08-14T08:35:39Z</time>
      </trkpt>
      <trkpt lat="42.577205" lon="-8.610759">
        <ele>170.427</ele>
        <time>2020-08-14T08:36:18Z</time>
      </trkpt>
      <trkpt lat="42.577644" lon="-8.610820">
        <ele>172.622</ele>
        <time>2020-08-14T08:36:30Z</time>
      </trkpt>
      <trkpt lat="42.578125" lon="-8.610752">
        <ele>176.397</ele>
        <time>2020-08-14T08:36:43Z</time>
      </trkpt>
      <trkpt lat="42.579058" lon="-8.610335">
        <ele>181.721</ele>
        <time>2020-08-14T08:37:10Z</time>
      </trkpt>
      <trkpt lat="42.580379" lon="-8.610107">
        <ele>191.531</ele>
        <time>2020-08-14T08:37:45Z</time>
      </trkpt>
      <trkpt lat="42.580402" lon="-8.611514">
        <ele>195.061</ele>
        <time>2020-08-14T08:38:13Z</time>
      </trkpt>
      <trkpt lat="42.580905" lon="-8.612990">
        <ele>192.807</ele>
        <time>2020-08-14T08:38:45Z</time>
      </trkpt>
      <trkpt lat="42.580857" lon="-8.614015">
        <ele>194.508</ele>
        <time>2020-08-14T08:39:06Z</time>
      </trkpt>
      <trkpt lat="42.581146" lon="-8.615226">
        <ele>203.378</ele>
        <time>2020-08-14T08:39:32Z</time>
      </trkpt>
      <trkpt lat="42.580998" lon="-8.615526">
        <ele>204.128</ele>
        <time>2020-08-14T08:39:39Z</time>
      </trkpt>
      <trkpt lat="42.579170" lon="-8.616487">
        <ele>207.832</ele>
        <time>2020-08-14T08:40:32Z</time>
      </trkpt>
      <trkpt lat="42.573672" lon="-8.618758">
        <ele>201.889</ele>
        <time>2020-08-14T08:43:06Z</time>
      </trkpt>
      <trkpt lat="42.573223" lon="-8.618810">
        <ele>200.899</ele>
        <time>2020-08-14T08:43:18Z</time>
      </trkpt>
      <trkpt lat="42.571618" lon="-8.619436">
        <ele>195.214</ele>
        <time>2020-08-14T08:44:02Z</time>
      </trkpt>
      <trkpt lat="42.571420" lon="-8.619877">
        <ele>190.369</ele>
        <time>2020-08-14T08:44:13Z</time>
      </trkpt>
      <trkpt lat="42.571736" lon="-8.621007">
        <ele>186.423</ele>
        <time>2020-08-14T08:44:37Z</time>
      </trkpt>
      <trkpt lat="42.571537" lon="-8.621898">
        <ele>188.519</ele>
        <time>2020-08-14T08:44:56Z</time>
      </trkpt>
      <trkpt lat="42.570894" lon="-8.622363">
        <ele>193.209</ele>
        <time>2020-08-14T08:45:15Z</time>
      </trkpt>
      <trkpt lat="42.570219" lon="-8.622565">
        <ele>196.719</ele>
        <time>2020-08-14T08:45:34Z</time>
      </trkpt>
      <trkpt lat="42.569350" lon="-8.623642">
        <ele>195.808</ele>
        <time>2020-08-14T08:46:05Z</time>
      </trkpt>
      <trkpt lat="42.567323" lon="-8.624723">
        <ele>190.916</ele>
        <time>2020-08-14T08:47:04Z</time>
      </trkpt>
      <trkpt lat="42.565498" lon="-8.626642">
        <ele>182.846</ele>
        <time>2020-08-14T08:48:06Z</time>
      </trkpt>
      <trkpt lat="42.564783" lon="-8.627756">
        <ele>171.210</ele>
        <time>2020-08-14T08:48:35Z</time>
      </trkpt>
      <trkpt lat="42.564562" lon="-8.627793">
        <ele>169.617</ele>
        <time>2020-08-14T08:48:41Z</time>
      </trkpt>
      <trkpt lat="42.564435" lon="-8.627643">
        <ele>168.347</ele>
        <time>2020-08-14T08:48:46Z</time>
      </trkpt>
      <trkpt lat="42.564127" lon="-8.626190">
        <ele>154.362</ele>
        <time>2020-08-14T08:49:17Z</time>
      </trkpt>
      <trkpt lat="42.562824" lon="-8.626935">
        <ele>135.297</ele>
        <time>2020-08-14T08:49:55Z</time>
      </trkpt>
      <trkpt lat="42.562502" lon="-8.628599">
        <ele>126.161</ele>
        <time>2020-08-14T08:50:30Z</time>
      </trkpt>
      <trkpt lat="42.562393" lon="-8.628552">
        <ele>124.357</ele>
        <time>2020-08-14T08:50:34Z</time>
      </trkpt>
      <trkpt lat="42.562201" lon="-8.629073">
        <ele>121.500</ele>
        <time>2020-08-14T08:50:45Z</time>
      </trkpt>
      <trkpt lat="42.561619" lon="-8.631520">
        <ele>109.120</ele>
        <time>2020-08-14T08:51:36Z</time>
      </trkpt>
      <trkpt lat="42.561384" lon="-8.631826">
        <ele>104.408</ele>
        <time>2020-08-14T08:51:45Z</time>
      </trkpt>
      <trkpt lat="42.561135" lon="-8.631868">
        <ele>102.920</ele>
        <time>2020-08-14T08:51:52Z</time>
      </trkpt>
      <trkpt lat="42.560645" lon="-8.631576">
        <ele>103.680</ele>
        <time>2020-08-14T08:52:06Z</time>
      </trkpt>
      <trkpt lat="42.559873" lon="-8.629921">
        <ele>102.634</ele>
        <time>2020-08-14T08:52:45Z</time>
      </trkpt>
      <trkpt lat="42.559153" lon="-8.629777">
        <ele>108.061</ele>
        <time>2020-08-14T08:53:05Z</time>
      </trkpt>
      <trkpt lat="42.558279" lon="-8.630463">
        <ele>96.011</ele>
        <time>2020-08-14T08:53:32Z</time>
      </trkpt>
      <trkpt lat="42.558010" lon="-8.630521">
        <ele>93.136</ele>
        <time>2020-08-14T08:53:39Z</time>
      </trkpt>
      <trkpt lat="42.557710" lon="-8.630174">
        <ele>91.841</ele>
        <time>2020-08-14T08:53:50Z</time>
      </trkpt>
      <trkpt lat="42.557442" lon="-8.629366">
        <ele>89.515</ele>
        <time>2020-08-14T08:54:10Z</time>
      </trkpt>
      <trkpt lat="42.556894" lon="-8.630319">
        <ele>75.229</ele>
        <time>2020-08-14T08:54:34Z</time>
      </trkpt>
      <trkpt lat="42.557038" lon="-8.631333">
        <ele>67.900</ele>
        <time>2020-08-14T08:54:55Z</time>
      </trkpt>
      <trkpt lat="42.557538" lon="-8.632236">
        <ele>59.320</ele>
        <time>2020-08-14T08:55:18Z</time>
      </trkpt>
      <trkpt lat="42.556771" lon="-8.633125">
        <ele>40.408</ele>
        <time>2020-08-14T08:55:45Z</time>
      </trkpt>
      <trkpt lat="42.556943" lon="-8.634456">
        <ele>33.667</ele>
        <time>2020-08-14T08:56:13Z</time>
      </trkpt>
      <trkpt lat="42.556245" lon="-8.634154">
        <ele>29.647</ele>
        <time>2020-08-14T08:56:33Z</time>
      </trkpt>
      <trkpt lat="42.555670" lon="-8.633489">
        <ele>28.161</ele>
        <time>2020-08-14T08:56:53Z</time>
      </trkpt>
      <trkpt lat="42.555048" lon="-8.633220">
        <ele>28.978</ele>
        <time>2020-08-14T08:57:11Z</time>
      </trkpt>
      <trkpt lat="42.554770" lon="-8.633431">
        <ele>32.228</ele>
        <time>2020-08-14T08:57:20Z</time>
      </trkpt>
      <trkpt lat="42.554872" lon="-8.634136">
        <ele>29.273</ele>
        <time>2020-08-14T08:57:34Z</time>
      </trkpt>
      <trkpt lat="42.554784" lon="-8.634842">
        <ele>30.968</ele>
        <time>2020-08-14T08:57:48Z</time>
      </trkpt>
      <trkpt lat="42.555040" lon="-8.635522">
        <ele>28.632</ele>
        <time>2020-08-14T08:58:03Z</time>
      </trkpt>
      <trkpt lat="42.555163" lon="-8.636836">
        <ele>27.919</ele>
        <time>2020-08-14T08:58:30Z</time>
      </trkpt>
      <trkpt lat="42.554861" lon="-8.637276">
        <ele>28.509</ele>
        <time>2020-08-14T08:58:43Z</time>
      </trkpt>
      <trkpt lat="42.555230" lon="-8.641754">
        <ele>28.719</ele>
        <time>2020-08-14T09:00:13Z</time>
      </trkpt>
      <trkpt lat="42.557744" lon="-8.642077">
        <ele>27.008</ele>
        <time>2020-08-14T09:01:21Z</time>
      </trkpt>
      <trkpt lat="42.558153" lon="-8.641645">
        <ele>27.116</ele>
        <time>2020-08-14T09:01:36Z</time>
      </trkpt>
      <trkpt lat="42.559097" lon="-8.642172">
        <ele>26.946</ele>
        <time>2020-08-14T09:02:03Z</time>
      </trkpt>
      <trkpt lat="42.559723" lon="-8.643012">
        <ele>26.660</ele>
        <time>2020-08-14T09:02:27Z</time>
      </trkpt>
      <trkpt lat="42.560157" lon="-8.643247">
        <ele>26.177</ele>
        <time>2020-08-14T09:02:40Z</time>
      </trkpt>
      <trkpt lat="42.561681" lon="-8.643500">
        <ele>25.567</ele>
        <time>2020-08-14T09:03:21Z</time>
      </trkpt>
      <trkpt lat="42.563574" lon="-8.643362">
        <ele>24.842</ele>
        <time>2020-08-14T09:04:11Z</time>
      </trkpt>
      <trkpt lat="42.563332" lon="-8.644313">
        <ele>24.867</ele>
        <time>2020-08-14T09:04:32Z</time>
      </trkpt>
      <trkpt lat="42.562716" lon="-8.645260">
        <ele>27.171</ele>
        <time>2020-08-14T09:04:57Z</time>
      </trkpt>
      <trkpt lat="42.563081" lon="-8.647685">
        <ele>38.937</ele>
        <time>2020-08-14T09:05:46Z</time>
      </trkpt>
      <trkpt lat="42.564110" lon="-8.647900">
        <ele>40.449</ele>
        <time>2020-08-14T09:06:14Z</time>
      </trkpt>
      <trkpt lat="42.565038" lon="-8.648298">
        <ele>38.613</ele>
        <time>2020-08-14T09:06:40Z</time>
      </trkpt>
      <trkpt lat="42.565668" lon="-8.648750">
        <ele>37.008</ele>
        <time>2020-08-14T09:06:59Z</time>
      </trkpt>
      <trkpt lat="42.566628" lon="-8.649838">
        <ele>40.248</ele>
        <time>2020-08-14T09:07:33Z</time>
      </trkpt>
      <trkpt lat="42.568056" lon="-8.649025">
        <ele>39.768</ele>
        <time>2020-08-14T09:08:15Z</time>
      </trkpt>
      <trkpt lat="42.570191" lon="-8.648666">
        <ele>30.962</ele>
        <time>2020-08-14T09:09:13Z</time>
      </trkpt>
      <trkpt lat="42.570663" lon="-8.648064">
        <ele>29.699</ele>
        <time>2020-08-14T09:09:31Z</time>
      </trkpt>
      <trkpt lat="42.570560" lon="-8.647310">
        <ele>27.159</ele>
        <time>2020-08-14T09:09:47Z</time>
      </trkpt>
      <trkpt lat="42.571531" lon="-8.646920">
        <ele>28.024</ele>
        <time>2020-08-14T09:10:14Z</time>
      </trkpt>
      <trkpt lat="42.572081" lon="-8.646539">
        <ele>25.819</ele>
        <time>2020-08-14T09:10:31Z</time>
      </trkpt>
      <trkpt lat="42.573039" lon="-8.646922">
        <ele>23.593</ele>
        <time>2020-08-14T09:10:57Z</time>
      </trkpt>
      <trkpt lat="42.573859" lon="-8.647712">
        <ele>30.378</ele>
        <time>2020-08-14T09:11:25Z</time>
      </trkpt>
      <trkpt lat="42.574535" lon="-8.647823">
        <ele>35.633</ele>
        <time>2020-08-14T09:11:43Z</time>
      </trkpt>
      <trkpt lat="42.574352" lon="-8.649854">
        <ele>33.126</ele>
        <time>2020-08-14T09:12:24Z</time>
      </trkpt>
      <trkpt lat="42.574017" lon="-8.651579">
        <ele>34.508</ele>
        <time>2020-08-14T09:12:59Z</time>
      </trkpt>
      <trkpt lat="42.574231" lon="-8.651971">
        <ele>37.092</ele>
        <time>2020-08-14T09:13:09Z</time>
      </trkpt>
      <trkpt lat="42.576832" lon="-8.651087">
        <ele>44.612</ele>
        <time>2020-08-14T09:14:21Z</time>
      </trkpt>
      <trkpt lat="42.577743" lon="-8.651261">
        <ele>44.866</ele>
        <time>2020-08-14T09:14:46Z</time>
      </trkpt>
      <trkpt lat="42.578235" lon="-8.651145">
        <ele>44.093</ele>
        <time>2020-08-14T09:14:59Z</time>
      </trkpt>
      <trkpt lat="42.579022" lon="-8.650635">
        <ele>46.923</ele>
        <time>2020-08-14T09:15:23Z</time>
      </trkpt>
      <trkpt lat="42.579762" lon="-8.650586">
        <ele>46.668</ele>
        <time>2020-08-14T09:15:43Z</time>
      </trkpt>
      <trkpt lat="42.580485" lon="-8.650237">
        <ele>48.683</ele>
        <time>2020-08-14T09:16:04Z</time>
      </trkpt>
      <trkpt lat="42.580764" lon="-8.650344">
        <ele>48.577</ele>
        <time>2020-08-14T09:16:12Z</time>
      </trkpt>
      <trkpt lat="42.581171" lon="-8.650886">
        <ele>46.578</ele>
        <time>2020-08-14T09:16:28Z</time>
      </trkpt>
      <trkpt lat="42.581712" lon="-8.650757">
        <ele>48.233</ele>
        <time>2020-08-14T09:16:43Z</time>
      </trkpt>
      <trkpt lat="42.582184" lon="-8.650888">
        <ele>47.826</ele>
        <time>2020-08-14T09:16:56Z</time>
      </trkpt>
      <trkpt lat="42.582706" lon="-8.650685">
        <ele>49.308</ele>
        <time>2020-08-14T09:17:10Z</time>
      </trkpt>
      <trkpt lat="42.583010" lon="-8.650870">
        <ele>48.142</ele>
        <time>2020-08-14T09:17:19Z</time>
      </trkpt>
      <trkpt lat="42.583523" lon="-8.650679">
        <ele>47.862</ele>
        <time>2020-08-14T09:17:34Z</time>
      </trkpt>
      <trkpt lat="42.583743" lon="-8.650872">
        <ele>45.666</ele>
        <time>2020-08-14T09:17:41Z</time>
      </trkpt>
      <trkpt lat="42.584108" lon="-8.650782">
        <ele>43.293</ele>
        <time>2020-08-14T09:17:52Z</time>
      </trkpt>
      <trkpt lat="42.584668" lon="-8.651306">
        <ele>41.183</ele>
        <time>2020-08-14T09:18:11Z</time>
      </trkpt>
      <trkpt lat="42.584930" lon="-8.651913">
        <ele>38.868</ele>
        <time>2020-08-14T09:18:25Z</time>
      </trkpt>
      <trkpt lat="42.586446" lon="-8.657470">
        <ele>25.733</ele>
        <time>2020-08-14T09:20:21Z</time>
      </trkpt>
      <trkpt lat="42.590321" lon="-8.655213">
        <ele>22.347</ele>
        <time>2020-08-14T09:22:14Z</time>
      </trkpt>
      <trkpt lat="42.590209" lon="-8.655187">
        <ele>22.2</ele>
        <time>2020-09-10T07:00:00Z</time>
      </trkpt>
      <trkpt lat="42.590243" lon="-8.655180">
        <ele>22.2</ele>
        <time>2020-09-10T07:00:00Z</time>
      </trkpt>
      <trkpt lat="42.590279" lon="-8.655171">
        <ele>22.2</ele>
        <time>2020-09-10T07:00:01Z</time>
      </trkpt>
      <trkpt lat="42.590318" lon="-8.655157">
        <ele>22.2</ele>
        <time>2020-09-10T07:00:02Z</time>
      </trkpt>
      <trkpt lat="42.590361" lon="-8.655139">
        <ele>22.2</ele>
        <time>2020-09-10T07:00:04Z</time>
      </trkpt>
      <trkpt lat="42.590407" lon="-8.655116">
        <ele>22.1</ele>
        <time>2020-09-10T07:00:05Z</time>
      </trkpt>
      <trkpt lat="42.590457" lon="-8.655090">
        <ele>22.1</ele>
        <time>2020-09-10T07:00:06Z</time>
      </trkpt>
      <trkpt lat="42.590508" lon="-8.655063">
        <ele>22.1</ele>
        <time>2020-09-10T07:00:08Z</time>
      </trkpt>
      <trkpt lat="42.590555" lon="-8.655036">
        <ele>22.1</ele>
        <time>2020-09-10T07:00:09Z</time>
      </trkpt>
      <trkpt lat="42.590604" lon="-8.655009">
        <ele>22.0</ele>
        <time>2020-09-10T07:00:11Z</time>
      </trkpt>
      <trkpt lat="42.590655" lon="-8.654981">
        <ele>22.0</ele>
        <time>2020-09-10T07:00:12Z</time>
      </trkpt>
      <trkpt lat="42.590703" lon="-8.654953">
        <ele>22.0</ele>
        <time>2020-09-10T07:00:13Z</time>
      </trkpt>
      <trkpt lat="42.590749" lon="-8.654927">
        <ele>22.0</ele>
        <time>2020-09-10T07:00:15Z</time>
      </trkpt>
      <trkpt lat="42.590797" lon="-8.654898">
        <ele>22.0</ele>
        <time>2020-09-10T07:00:16Z</time>
      </trkpt>
      <trkpt lat="42.590849" lon="-8.654867">
        <ele>21.9</ele>
        <time>2020-09-10T07:00:18Z</time>
      </trkpt>
      <trkpt lat="42.590901" lon="-8.654836">
        <ele>21.9</ele>
        <time>2020-09-10T07:00:19Z</time>
      </trkpt>
      <trkpt lat="42.590952" lon="-8.654801">
        <ele>21.8</ele>
        <time>2020-09-10T07:00:21Z</time>
      </trkpt>
      <trkpt lat="42.591002" lon="-8.654766">
        <ele>21.7</ele>
        <time>2020-09-10T07:00:22Z</time>
      </trkpt>
      <trkpt lat="42.591056" lon="-8.654732">
        <ele>21.6</ele>
        <time>2020-09-10T07:00:24Z</time>
      </trkpt>
      <trkpt lat="42.591117" lon="-8.654701">
        <ele>21.5</ele>
        <time>2020-09-10T07:00:26Z</time>
      </trkpt>
      <trkpt lat="42.591175" lon="-8.654667">
        <ele>21.5</ele>
        <time>2020-09-10T07:00:27Z</time>
      </trkpt>
      <trkpt lat="42.591234" lon="-8.654634">
        <ele>21.4</ele>
        <time>2020-09-10T07:00:29Z</time>
      </trkpt>
      <trkpt lat="42.591292" lon="-8.654600">
        <ele>21.3</ele>
        <time>2020-09-10T07:00:31Z</time>
      </trkpt>
      <trkpt lat="42.591354" lon="-8.654563">
        <ele>21.2</ele>
        <time>2020-09-10T07:00:32Z</time>
      </trkpt>
      <trkpt lat="42.591419" lon="-8.654525">
        <ele>21.0</ele>
        <time>2020-09-10T07:00:34Z</time>
      </trkpt>
      <trkpt lat="42.591486" lon="-8.654491">
        <ele>20.9</ele>
        <time>2020-09-10T07:00:36Z</time>
      </trkpt>
      <trkpt lat="42.591553" lon="-8.654455">
        <ele>20.7</ele>
        <time>2020-09-10T07:00:38Z</time>
      </trkpt>
      <trkpt lat="42.591617" lon="-8.654417">
        <ele>20.5</ele>
        <time>2020-09-10T07:00:40Z</time>
      </trkpt>
      <trkpt lat="42.591683" lon="-8.654381">
        <ele>20.4</ele>
        <time>2020-09-10T07:00:42Z</time>
      </trkpt>
      <trkpt lat="42.591749" lon="-8.654343">
        <ele>20.3</ele>
        <time>2020-09-10T07:00:44Z</time>
      </trkpt>
      <trkpt lat="42.591814" lon="-8.654302">
        <ele>20.2</ele>
        <time>2020-09-10T07:00:46Z</time>
      </trkpt>
      <trkpt lat="42.591880" lon="-8.654260">
        <ele>20.1</ele>
        <time>2020-09-10T07:00:48Z</time>
      </trkpt>
      <trkpt lat="42.591944" lon="-8.654220">
        <ele>20.1</ele>
        <time>2020-09-10T07:00:50Z</time>
      </trkpt>
      <trkpt lat="42.592006" lon="-8.654184">
        <ele>20.1</ele>
        <time>2020-09-10T07:00:51Z</time>
      </trkpt>
      <trkpt lat="42.592063" lon="-8.654155">
        <ele>20.1</ele>
        <time>2020-09-10T07:00:53Z</time>
      </trkpt>
      <trkpt lat="42.592116" lon="-8.654140">
        <ele>19.9</ele>
        <time>2020-09-10T07:00:54Z</time>
      </trkpt>
      <trkpt lat="42.592165" lon="-8.654150">
        <ele>19.8</ele>
        <time>2020-09-10T07:00:56Z</time>
      </trkpt>
      <trkpt lat="42.592212" lon="-8.654189">
        <ele>19.8</ele>
        <time>2020-09-10T07:00:57Z</time>
      </trkpt>
      <trkpt lat="42.592248" lon="-8.654245">
        <ele>19.8</ele>
        <time>2020-09-10T07:00:59Z</time>
      </trkpt>
      <trkpt lat="42.592270" lon="-8.654310">
        <ele>19.8</ele>
        <time>2020-09-10T07:01:00Z</time>
      </trkpt>
      <trkpt lat="42.592289" lon="-8.654375">
        <ele>19.8</ele>
        <time>2020-09-10T07:01:02Z</time>
      </trkpt>
      <trkpt lat="42.592307" lon="-8.654439">
        <ele>19.7</ele>
        <time>2020-09-10T07:01:03Z</time>
      </trkpt>
      <trkpt lat="42.592323" lon="-8.654503">
        <ele>19.7</ele>
        <time>2020-09-10T07:01:04Z</time>
      </trkpt>
      <trkpt lat="42.592336" lon="-8.654571">
        <ele>19.8</ele>
        <time>2020-09-10T07:01:06Z</time>
      </trkpt>
      <trkpt lat="42.592348" lon="-8.654643">
        <ele>19.9</ele>
        <time>2020-09-10T07:01:07Z</time>
      </trkpt>
      <trkpt lat="42.592356" lon="-8.654717">
        <ele>20.1</ele>
        <time>2020-09-10T07:01:08Z</time>
      </trkpt>
      <trkpt lat="42.592363" lon="-8.654788">
        <ele>20.4</ele>
        <time>2020-09-10T07:01:10Z</time>
      </trkpt>
      <trkpt lat="42.592372" lon="-8.654859">
        <ele>20.7</ele>
        <time>2020-09-10T07:01:11Z</time>
      </trkpt>
      <trkpt lat="42.592383" lon="-8.654927">
        <ele>20.9</ele>
        <time>2020-09-10T07:01:13Z</time>
      </trkpt>
      <trkpt lat="42.592398" lon="-8.654996">
        <ele>21.2</ele>
        <time>2020-09-10T07:01:14Z</time>
      </trkpt>
      <trkpt lat="42.592419" lon="-8.655066">
        <ele>21.3</ele>
        <time>2020-09-10T07:01:16Z</time>
      </trkpt>
      <trkpt lat="42.592439" lon="-8.655135">
        <ele>21.4</ele>
        <time>2020-09-10T07:01:17Z</time>
      </trkpt>
      <trkpt lat="42.592460" lon="-8.655203">
        <ele>21.5</ele>
        <time>2020-09-10T07:01:18Z</time>
      </trkpt>
      <trkpt lat="42.592481" lon="-8.655270">
        <ele>21.6</ele>
        <time>2020-09-10T07:01:20Z</time>
      </trkpt>
      <trkpt lat="42.592503" lon="-8.655336">
        <ele>21.7</ele>
        <time>2020-09-10T07:01:21Z</time>
      </trkpt>
      <trkpt lat="42.592524" lon="-8.655401">
        <ele>21.8</ele>
        <time>2020-09-10T07:01:23Z</time>
      </trkpt>
      <trkpt lat="42.592545" lon="-8.655467">
        <ele>21.9</ele>
        <time>2020-09-10T07:01:24Z</time>
      </trkpt>
      <trkpt lat="42.592570" lon="-8.655534">
        <ele>21.8</ele>
        <time>2020-09-10T07:01:26Z</time>
      </trkpt>
      <trkpt lat="42.592595" lon="-8.655599">
        <ele>21.8</ele>
        <time>2020-09-10T07:01:27Z</time>
      </trkpt>
      <trkpt lat="42.592617" lon="-8.655666">
        <ele>21.8</ele>
        <time>2020-09-10T07:01:28Z</time>
      </trkpt>
      <trkpt lat="42.592642" lon="-8.655732">
        <ele>21.8</ele>
        <time>2020-09-10T07:01:30Z</time>
      </trkpt>
      <trkpt lat="42.592670" lon="-8.655799">
        <ele>21.9</ele>
        <time>2020-09-10T07:01:31Z</time>
      </trkpt>
      <trkpt lat="42.592695" lon="-8.655866">
        <ele>21.9</ele>
        <time>2020-09-10T07:01:33Z</time>
      </trkpt>
      <trkpt lat="42.592721" lon="-8.655931">
        <ele>22.1</ele>
        <time>2020-09-10T07:01:34Z</time>
      </trkpt>
      <trkpt lat="42.592752" lon="-8.655994">
        <ele>22.5</ele>
        <time>2020-09-10T07:01:36Z</time>
      </trkpt>
      <trkpt lat="42.592786" lon="-8.656052">
        <ele>22.7</ele>
        <time>2020-09-10T07:01:37Z</time>
      </trkpt>
      <trkpt lat="42.592823" lon="-8.656108">
        <ele>22.9</ele>
        <time>2020-09-10T07:01:39Z</time>
      </trkpt>
      <trkpt lat="42.592862" lon="-8.656162">
        <ele>23.1</ele>
        <time>2020-09-10T07:01:40Z</time>
      </trkpt>
      <trkpt lat="42.592904" lon="-8.656213">
        <ele>23.3</ele>
        <time>2020-09-10T07:01:42Z</time>
      </trkpt>
      <trkpt lat="42.592945" lon="-8.656262">
        <ele>23.4</ele>
        <time>2020-09-10T07:01:43Z</time>
      </trkpt>
      <trkpt lat="42.592985" lon="-8.656310">
        <ele>23.5</ele>
        <time>2020-09-10T07:01:45Z</time>
      </trkpt>
      <trkpt lat="42.593026" lon="-8.656356">
        <ele>23.7</ele>
        <time>2020-09-10T07:01:46Z</time>
      </trkpt>
      <trkpt lat="42.593066" lon="-8.656400">
        <ele>23.8</ele>
        <time>2020-09-10T07:01:47Z</time>
      </trkpt>
      <trkpt lat="42.593103" lon="-8.656448">
        <ele>23.9</ele>
        <time>2020-09-10T07:01:49Z</time>
      </trkpt>
      <trkpt lat="42.593137" lon="-8.656504">
        <ele>24.1</ele>
        <time>2020-09-10T07:01:50Z</time>
      </trkpt>
      <trkpt lat="42.593167" lon="-8.656563">
        <ele>24.2</ele>
        <time>2020-09-10T07:01:52Z</time>
      </trkpt>
      <trkpt lat="42.593193" lon="-8.656623">
        <ele>24.3</ele>
        <time>2020-09-10T07:01:53Z</time>
      </trkpt>
      <trkpt lat="42.593214" lon="-8.656684">
        <ele>24.5</ele>
        <time>2020-09-10T07:01:54Z</time>
      </trkpt>
      <trkpt lat="42.593230" lon="-8.656750">
        <ele>24.6</ele>
        <time>2020-09-10T07:01:56Z</time>
      </trkpt>
      <trkpt lat="42.593240" lon="-8.656818">
        <ele>24.8</ele>
        <time>2020-09-10T07:01:57Z</time>
      </trkpt>
      <trkpt lat="42.593251" lon="-8.656887">
        <ele>24.9</ele>
        <time>2020-09-10T07:01:58Z</time>
      </trkpt>
      <trkpt lat="42.593260" lon="-8.656955">
        <ele>25.0</ele>
        <time>2020-09-10T07:02:00Z</time>
      </trkpt>
      <trkpt lat="42.593268" lon="-8.657024">
        <ele>25.1</ele>
        <time>2020-09-10T07:02:01Z</time>
      </trkpt>
      <trkpt lat="42.593275" lon="-8.657092">
        <ele>25.3</ele>
        <time>2020-09-10T07:02:03Z</time>
      </trkpt>
      <trkpt lat="42.593282" lon="-8.657162">
        <ele>25.5</ele>
        <time>2020-09-10T07:02:04Z</time>
      </trkpt>
      <trkpt lat="42.593289" lon="-8.657232">
        <ele>25.6</ele>
        <time>2020-09-10T07:02:05Z</time>
      </trkpt>
      <trkpt lat="42.593297" lon="-8.657299">
        <ele>25.8</ele>
        <time>2020-09-10T07:02:07Z</time>
      </trkpt>
      <trkpt lat="42.593305" lon="-8.657367">
        <ele>25.8</ele>
        <time>2020-09-10T07:02:08Z</time>
      </trkpt>
      <trkpt lat="42.593311" lon="-8.657434">
        <ele>25.8</ele>
        <time>2020-09-10T07:02:09Z</time>
      </trkpt>
      <trkpt lat="42.593316" lon="-8.657502">
        <ele>25.8</ele>
        <time>2020-09-10T07:02:11Z</time>
      </trkpt>
      <trkpt lat="42.593317" lon="-8.657571">
        <ele>25.9</ele>
        <time>2020-09-10T07:02:12Z</time>
      </trkpt>
      <trkpt lat="42.593315" lon="-8.657640">
        <ele>26.0</ele>
        <time>2020-09-10T07:02:13Z</time>
      </trkpt>
      <trkpt lat="42.593303" lon="-8.657706">
        <ele>26.2</ele>
        <time>2020-09-10T07:02:15Z</time>
      </trkpt>
      <trkpt lat="42.593278" lon="-8.657769">
        <ele>26.4</ele>
        <time>2020-09-10T07:02:16Z</time>
      </trkpt>
      <trkpt lat="42.593247" lon="-8.657829">
        <ele>26.6</ele>
        <time>2020-09-10T07:02:18Z</time>
      </trkpt>
      <trkpt lat="42.593212" lon="-8.657885">
        <ele>26.8</ele>
        <time>2020-09-10T07:02:19Z</time>
      </trkpt>
      <trkpt lat="42.593176" lon="-8.657939">
        <ele>27.3</ele>
        <time>2020-09-10T07:02:20Z</time>
      </trkpt>
      <trkpt lat="42.593142" lon="-8.657996">
        <ele>27.8</ele>
        <time>2020-09-10T07:02:22Z</time>
      </trkpt>
      <trkpt lat="42.593110" lon="-8.658052">
        <ele>28.1</ele>
        <time>2020-09-10T07:02:23Z</time>
      </trkpt>
      <trkpt lat="42.593080" lon="-8.658108">
        <ele>28.3</ele>
        <time>2020-09-10T07:02:25Z</time>
      </trkpt>
      <trkpt lat="42.593050" lon="-8.658164">
        <ele>28.3</ele>
        <time>2020-09-10T07:02:26Z</time>
      </trkpt>
      <trkpt lat="42.593022" lon="-8.658214">
        <ele>28.4</ele>
        <time>2020-09-10T07:02:27Z</time>
      </trkpt>
      <trkpt lat="42.592995" lon="-8.658261">
        <ele>28.4</ele>
        <time>2020-09-10T07:02:28Z</time>
      </trkpt>
      <trkpt lat="42.592968" lon="-8.658304">
        <ele>28.5</ele>
        <time>2020-09-10T07:02:29Z</time>
      </trkpt>
      <trkpt lat="42.592944" lon="-8.658343">
        <ele>28.8</ele>
        <time>2020-09-10T07:02:30Z</time>
      </trkpt>
      <trkpt lat="42.592925" lon="-8.658379">
        <ele>29.0</ele>
        <time>2020-09-10T07:02:31Z</time>
      </trkpt>
      <trkpt lat="42.592909" lon="-8.658414">
        <ele>29.2</ele>
        <time>2020-09-10T07:02:32Z</time>
      </trkpt>
      <trkpt lat="42.592895" lon="-8.658448">
        <ele>29.5</ele>
        <time>2020-09-10T07:02:33Z</time>
      </trkpt>
      <trkpt lat="42.592881" lon="-8.658479">
        <ele>29.8</ele>
        <time>2020-09-10T07:02:34Z</time>
      </trkpt>
      <trkpt lat="42.592868" lon="-8.658511">
        <ele>30.1</ele>
        <time>2020-09-10T07:02:34Z</time>
      </trkpt>
      <trkpt lat="42.592856" lon="-8.658545">
        <ele>30.5</ele>
        <time>2020-09-10T07:02:35Z</time>
      </trkpt>
      <trkpt lat="42.592849" lon="-8.658577">
        <ele>30.8</ele>
        <time>2020-09-10T07:02:36Z</time>
      </trkpt>
      <trkpt lat="42.592842" lon="-8.658609">
        <ele>31.0</ele>
        <time>2020-09-10T07:02:36Z</time>
      </trkpt>
      <trkpt lat="42.592838" lon="-8.658640">
        <ele>31.2</ele>
        <time>2020-09-10T07:02:37Z</time>
      </trkpt>
      <trkpt lat="42.592842" lon="-8.658673">
        <ele>31.3</ele>
        <time>2020-09-10T07:02:38Z</time>
      </trkpt>
      <trkpt lat="42.592850" lon="-8.658705">
        <ele>31.5</ele>
        <time>2020-09-10T07:02:38Z</time>
      </trkpt>
      <trkpt lat="42.592862" lon="-8.658740">
        <ele>31.5</ele>
        <time>2020-09-10T07:02:39Z</time>
      </trkpt>
      <trkpt lat="42.592875" lon="-8.658780">
        <ele>31.6</ele>
        <time>2020-09-10T07:02:40Z</time>
      </trkpt>
      <trkpt lat="42.592889" lon="-8.658821">
        <ele>31.7</ele>
        <time>2020-09-10T07:02:41Z</time>
      </trkpt>
      <trkpt lat="42.592905" lon="-8.658861">
        <ele>31.7</ele>
        <time>2020-09-10T07:02:42Z</time>
      </trkpt>
      <trkpt lat="42.592920" lon="-8.658900">
        <ele>31.8</ele>
        <time>2020-09-10T07:02:43Z</time>
      </trkpt>
      <trkpt lat="42.592942" lon="-8.658945">
        <ele>31.9</ele>
        <time>2020-09-10T07:02:44Z</time>
      </trkpt>
      <trkpt lat="42.592967" lon="-8.658997">
        <ele>32.0</ele>
        <time>2020-09-10T07:02:45Z</time>
      </trkpt>
      <trkpt lat="42.592989" lon="-8.659057">
        <ele>32.4</ele>
        <time>2020-09-10T07:02:46Z</time>
      </trkpt>
      <trkpt lat="42.593012" lon="-8.659117">
        <ele>33.0</ele>
        <time>2020-09-10T07:02:48Z</time>
      </trkpt>
      <trkpt lat="42.593038" lon="-8.659176">
        <ele>33.5</ele>
        <time>2020-09-10T07:02:49Z</time>
      </trkpt>
      <trkpt lat="42.593064" lon="-8.659235">
        <ele>33.9</ele>
        <time>2020-09-10T07:02:50Z</time>
      </trkpt>
      <trkpt lat="42.593086" lon="-8.659293">
        <ele>34.3</ele>
        <time>2020-09-10T07:02:52Z</time>
      </trkpt>
      <trkpt lat="42.593109" lon="-8.659352">
        <ele>34.6</ele>
        <time>2020-09-10T07:02:53Z</time>
      </trkpt>
      <trkpt lat="42.593131" lon="-8.659412">
        <ele>34.7</ele>
        <time>2020-09-10T07:02:54Z</time>
      </trkpt>
      <trkpt lat="42.593156" lon="-8.659474">
        <ele>34.7</ele>
        <time>2020-09-10T07:02:56Z</time>
      </trkpt>
      <trkpt lat="42.593175" lon="-8.659533">
        <ele>34.7</ele>
        <time>2020-09-10T07:02:57Z</time>
      </trkpt>
      <trkpt lat="42.593187" lon="-8.659593">
        <ele>34.8</ele>
        <time>2020-09-10T07:02:58Z</time>
      </trkpt>
      <trkpt lat="42.593197" lon="-8.659652">
        <ele>35.2</ele>
        <time>2020-09-10T07:02:59Z</time>
      </trkpt>
      <trkpt lat="42.593209" lon="-8.659711">
        <ele>35.5</ele>
        <time>2020-09-10T07:03:00Z</time>
      </trkpt>
      <trkpt lat="42.593226" lon="-8.659768">
        <ele>36.1</ele>
        <time>2020-09-10T07:03:02Z</time>
      </trkpt>
      <trkpt lat="42.593239" lon="-8.659820">
        <ele>36.7</ele>
        <time>2020-09-10T07:03:03Z</time>
      </trkpt>
      <trkpt lat="42.593255" lon="-8.659870">
        <ele>37.3</ele>
        <time>2020-09-10T07:03:04Z</time>
      </trkpt>
      <trkpt lat="42.593268" lon="-8.659923">
        <ele>37.8</ele>
        <time>2020-09-10T07:03:05Z</time>
      </trkpt>
      <trkpt lat="42.593283" lon="-8.659967">
        <ele>38.3</ele>
        <time>2020-09-10T07:03:06Z</time>
      </trkpt>
      <trkpt lat="42.593292" lon="-8.660013">
        <ele>38.7</ele>
        <time>2020-09-10T07:03:07Z</time>
      </trkpt>
      <trkpt lat="42.593298" lon="-8.660059">
        <ele>39.0</ele>
        <time>2020-09-10T07:03:08Z</time>
      </trkpt>
      <trkpt lat="42.593301" lon="-8.660101">
        <ele>39.4</ele>
        <time>2020-09-10T07:03:09Z</time>
      </trkpt>
      <trkpt lat="42.593306" lon="-8.660142">
        <ele>39.8</ele>
        <time>2020-09-10T07:03:09Z</time>
      </trkpt>
      <trkpt lat="42.593312" lon="-8.660182">
        <ele>40.2</ele>
        <time>2020-09-10T07:03:10Z</time>
      </trkpt>
      <trkpt lat="42.593316" lon="-8.660223">
        <ele>40.5</ele>
        <time>2020-09-10T07:03:11Z</time>
      </trkpt>
      <trkpt lat="42.593323" lon="-8.660260">
        <ele>40.9</ele>
        <time>2020-09-10T07:03:12Z</time>
      </trkpt>
      <trkpt lat="42.593327" lon="-8.660300">
        <ele>41.2</ele>
        <time>2020-09-10T07:03:12Z</time>
      </trkpt>
      <trkpt lat="42.593330" lon="-8.660335">
        <ele>41.4</ele>
        <time>2020-09-10T07:03:13Z</time>
      </trkpt>
      <trkpt lat="42.593330" lon="-8.660367">
        <ele>41.6</ele>
        <time>2020-09-10T07:03:14Z</time>
      </trkpt>
      <trkpt lat="42.593332" lon="-8.660401">
        <ele>41.9</ele>
        <time>2020-09-10T07:03:14Z</time>
      </trkpt>
      <trkpt lat="42.593336" lon="-8.660434">
        <ele>42.1</ele>
        <time>2020-09-10T07:03:15Z</time>
      </trkpt>
      <trkpt lat="42.593344" lon="-8.660468">
        <ele>42.4</ele>
        <time>2020-09-10T07:03:16Z</time>
      </trkpt>
      <trkpt lat="42.593352" lon="-8.660503">
        <ele>42.8</ele>
        <time>2020-09-10T07:03:17Z</time>
      </trkpt>
      <trkpt lat="42.593358" lon="-8.660536">
        <ele>43.0</ele>
        <time>2020-09-10T07:03:17Z</time>
      </trkpt>
      <trkpt lat="42.593362" lon="-8.660565">
        <ele>43.2</ele>
        <time>2020-09-10T07:03:18Z</time>
      </trkpt>
      <trkpt lat="42.593358" lon="-8.660592">
        <ele>43.3</ele>
        <time>2020-09-10T07:03:18Z</time>
      </trkpt>
      <trkpt lat="42.593343" lon="-8.660616">
        <ele>43.3</ele>
        <time>2020-09-10T07:03:19Z</time>
      </trkpt>
      <trkpt lat="42.593325" lon="-8.660645">
        <ele>43.2</ele>
        <time>2020-09-10T07:03:20Z</time>
      </trkpt>
      <trkpt lat="42.593307" lon="-8.660676">
        <ele>43.2</ele>
        <time>2020-09-10T07:03:20Z</time>
      </trkpt>
      <trkpt lat="42.593298" lon="-8.660712">
        <ele>43.3</ele>
        <time>2020-09-10T07:03:21Z</time>
      </trkpt>
      <trkpt lat="42.593297" lon="-8.660755">
        <ele>43.5</ele>
        <time>2020-09-10T07:03:22Z</time>
      </trkpt>
      <trkpt lat="42.593298" lon="-8.660801">
        <ele>43.8</ele>
        <time>2020-09-10T07:03:23Z</time>
      </trkpt>
      <trkpt lat="42.593299" lon="-8.660849">
        <ele>44.1</ele>
        <time>2020-09-10T07:03:24Z</time>
      </trkpt>
      <trkpt lat="42.593299" lon="-8.660901">
        <ele>44.4</ele>
        <time>2020-09-10T07:03:25Z</time>
      </trkpt>
      <trkpt lat="42.593302" lon="-8.660953">
        <ele>44.7</ele>
        <time>2020-09-10T07:03:26Z</time>
      </trkpt>
      <trkpt lat="42.593305" lon="-8.661007">
        <ele>45.1</ele>
        <time>2020-09-10T07:03:27Z</time>
      </trkpt>
      <trkpt lat="42.593305" lon="-8.661065">
        <ele>45.4</ele>
        <time>2020-09-10T07:03:28Z</time>
      </trkpt>
      <trkpt lat="42.593306" lon="-8.661125">
        <ele>45.7</ele>
        <time>2020-09-10T07:03:29Z</time>
      </trkpt>
      <trkpt lat="42.593305" lon="-8.661186">
        <ele>46.0</ele>
        <time>2020-09-10T07:03:31Z</time>
      </trkpt>
      <trkpt lat="42.593303" lon="-8.661246">
        <ele>46.3</ele>
        <time>2020-09-10T07:03:32Z</time>
      </trkpt>
      <trkpt lat="42.593298" lon="-8.661307">
        <ele>46.4</ele>
        <time>2020-09-10T07:03:33Z</time>
      </trkpt>
      <trkpt lat="42.593295" lon="-8.661370">
        <ele>46.7</ele>
        <time>2020-09-10T07:03:34Z</time>
      </trkpt>
      <trkpt lat="42.593291" lon="-8.661435">
        <ele>46.9</ele>
        <time>2020-09-10T07:03:35Z</time>
      </trkpt>
      <trkpt lat="42.593285" lon="-8.661499">
        <ele>47.0</ele>
        <time>2020-09-10T07:03:37Z</time>
      </trkpt>
      <trkpt lat="42.593278" lon="-8.661562">
        <ele>47.1</ele>
        <time>2020-09-10T07:03:38Z</time>
      </trkpt>
      <trkpt lat="42.593273" lon="-8.661626">
        <ele>47.1</ele>
        <time>2020-09-10T07:03:39Z</time>
      </trkpt>
      <trkpt lat="42.593267" lon="-8.661689">
        <ele>47.2</ele>
        <time>2020-09-10T07:03:40Z</time>
      </trkpt>
      <trkpt lat="42.593261" lon="-8.661751">
        <ele>47.3</ele>
        <time>2020-09-10T07:03:42Z</time>
      </trkpt>
      <trkpt lat="42.593254" lon="-8.661813">
        <ele>47.3</ele>
        <time>2020-09-10T07:03:43Z</time>
      </trkpt>
      <trkpt lat="42.593246" lon="-8.661874">
        <ele>47.2</ele>
        <time>2020-09-10T07:03:44Z</time>
      </trkpt>
      <trkpt lat="42.593235" lon="-8.661935">
        <ele>47.1</ele>
        <time>2020-09-10T07:03:45Z</time>
      </trkpt>
      <trkpt lat="42.593224" lon="-8.661996">
        <ele>47.0</ele>
        <time>2020-09-10T07:03:47Z</time>
      </trkpt>
      <trkpt lat="42.593221" lon="-8.662061">
        <ele>47.1</ele>
        <time>2020-09-10T07:03:48Z</time>
      </trkpt>
      <trkpt lat="42.593215" lon="-8.662132">
        <ele>47.1</ele>
        <time>2020-09-10T07:03:49Z</time>
      </trkpt>
      <trkpt lat="42.593206" lon="-8.662206">
        <ele>47.5</ele>
        <time>2020-09-10T07:03:51Z</time>
      </trkpt>
      <trkpt lat="42.593194" lon="-8.662281">
        <ele>48.2</ele>
        <time>2020-09-10T07:03:52Z</time>
      </trkpt>
      <trkpt lat="42.593182" lon="-8.662359">
        <ele>48.8</ele>
        <time>2020-09-10T07:03:54Z</time>
      </trkpt>
      <trkpt lat="42.593175" lon="-8.662436">
        <ele>49.7</ele>
        <time>2020-09-10T07:03:55Z</time>
      </trkpt>
      <trkpt lat="42.593166" lon="-8.662515">
        <ele>50.5</ele>
        <time>2020-09-10T07:03:57Z</time>
      </trkpt>
      <trkpt lat="42.593155" lon="-8.662594">
        <ele>51.2</ele>
        <time>2020-09-10T07:03:59Z</time>
      </trkpt>
      <trkpt lat="42.593142" lon="-8.662675">
        <ele>51.7</ele>
        <time>2020-09-10T07:04:00Z</time>
      </trkpt>
      <trkpt lat="42.593130" lon="-8.662757">
        <ele>52.1</ele>
        <time>2020-09-10T07:04:02Z</time>
      </trkpt>
      <trkpt lat="42.593131" lon="-8.662844">
        <ele>52.4</ele>
        <time>2020-09-10T07:04:03Z</time>
      </trkpt>
      <trkpt lat="42.593121" lon="-8.662925">
        <ele>52.6</ele>
        <time>2020-09-10T07:04:05Z</time>
      </trkpt>
      <trkpt lat="42.593109" lon="-8.663003">
        <ele>52.7</ele>
        <time>2020-09-10T07:04:07Z</time>
      </trkpt>
      <trkpt lat="42.593100" lon="-8.663080">
        <ele>52.6</ele>
        <time>2020-09-10T07:04:08Z</time>
      </trkpt>
      <trkpt lat="42.593094" lon="-8.663166">
        <ele>52.5</ele>
        <time>2020-09-10T07:04:10Z</time>
      </trkpt>
      <trkpt lat="42.593084" lon="-8.663252">
        <ele>52.1</ele>
        <time>2020-09-10T07:04:12Z</time>
      </trkpt>
      <trkpt lat="42.593073" lon="-8.663337">
        <ele>51.6</ele>
        <time>2020-09-10T07:04:13Z</time>
      </trkpt>
      <trkpt lat="42.593051" lon="-8.663433">
        <ele>50.7</ele>
        <time>2020-09-10T07:04:15Z</time>
      </trkpt>
      <trkpt lat="42.593040" lon="-8.663532">
        <ele>50.0</ele>
        <time>2020-09-10T07:04:17Z</time>
      </trkpt>
      <trkpt lat="42.593031" lon="-8.663627">
        <ele>49.4</ele>
        <time>2020-09-10T07:04:19Z</time>
      </trkpt>
      <trkpt lat="42.593009" lon="-8.663721">
        <ele>48.3</ele>
        <time>2020-09-10T07:04:21Z</time>
      </trkpt>
      <trkpt lat="42.592989" lon="-8.663817">
        <ele>47.4</ele>
        <time>2020-09-10T07:04:23Z</time>
      </trkpt>
      <trkpt lat="42.592967" lon="-8.663916">
        <ele>47.3</ele>
        <time>2020-09-10T07:04:25Z</time>
      </trkpt>
      <trkpt lat="42.592959" lon="-8.664012">
        <ele>47.3</ele>
        <time>2020-09-10T07:04:27Z</time>
      </trkpt>
      <trkpt lat="42.592962" lon="-8.664111">
        <ele>47.2</ele>
        <time>2020-09-10T07:04:29Z</time>
      </trkpt>
      <trkpt lat="42.592953" lon="-8.664216">
        <ele>47.2</ele>
        <time>2020-09-10T07:04:31Z</time>
      </trkpt>
      <trkpt lat="42.592950" lon="-8.664317">
        <ele>46.7</ele>
        <time>2020-09-10T07:04:33Z</time>
      </trkpt>
      <trkpt lat="42.592943" lon="-8.664422">
        <ele>46.3</ele>
        <time>2020-09-10T07:04:35Z</time>
      </trkpt>
      <trkpt lat="42.592932" lon="-8.664524">
        <ele>45.4</ele>
        <time>2020-09-10T07:04:37Z</time>
      </trkpt>
      <trkpt lat="42.592912" lon="-8.664615">
        <ele>44.6</ele>
        <time>2020-09-10T07:04:39Z</time>
      </trkpt>
      <trkpt lat="42.592896" lon="-8.664710">
        <ele>43.6</ele>
        <time>2020-09-10T07:04:41Z</time>
      </trkpt>
      <trkpt lat="42.592885" lon="-8.664804">
        <ele>42.4</ele>
        <time>2020-09-10T07:04:43Z</time>
      </trkpt>
      <trkpt lat="42.592878" lon="-8.664900">
        <ele>41.3</ele>
        <time>2020-09-10T07:04:45Z</time>
      </trkpt>
      <trkpt lat="42.592880" lon="-8.664997">
        <ele>40.7</ele>
        <time>2020-09-10T07:04:46Z</time>
      </trkpt>
      <trkpt lat="42.592878" lon="-8.665088">
        <ele>40.2</ele>
        <time>2020-09-10T07:04:48Z</time>
      </trkpt>
      <trkpt lat="42.592874" lon="-8.665184">
        <ele>39.6</ele>
        <time>2020-09-10T07:04:50Z</time>
      </trkpt>
      <trkpt lat="42.592864" lon="-8.665283">
        <ele>39.2</ele>
        <time>2020-09-10T07:04:52Z</time>
      </trkpt>
      <trkpt lat="42.592860" lon="-8.665385">
        <ele>38.9</ele>
        <time>2020-09-10T07:04:54Z</time>
      </trkpt>
      <trkpt lat="42.592856" lon="-8.665491">
        <ele>38.8</ele>
        <time>2020-09-10T07:04:56Z</time>
      </trkpt>
      <trkpt lat="42.592850" lon="-8.665596">
        <ele>38.9</ele>
        <time>2020-09-10T07:04:58Z</time>
      </trkpt>
      <trkpt lat="42.592832" lon="-8.665700">
        <ele>39.6</ele>
        <time>2020-09-10T07:05:00Z</time>
      </trkpt>
      <trkpt lat="42.592813" lon="-8.665801">
        <ele>40.3</ele>
        <time>2020-09-10T07:05:02Z</time>
      </trkpt>
      <trkpt lat="42.592798" lon="-8.665899">
        <ele>40.9</ele>
        <time>2020-09-10T07:05:04Z</time>
      </trkpt>
      <trkpt lat="42.592787" lon="-8.665983">
        <ele>41.3</ele>
        <time>2020-09-10T07:05:06Z</time>
      </trkpt>
      <trkpt lat="42.592775" lon="-8.666121">
        <ele>41.5</ele>
        <time>2020-09-10T07:05:09Z</time>
      </trkpt>
      <trkpt lat="42.592774" lon="-8.666240">
        <ele>41.4</ele>
        <time>2020-09-10T07:05:11Z</time>
      </trkpt>
      <trkpt lat="42.592769" lon="-8.666349">
        <ele>40.8</ele>
        <time>2020-09-10T07:05:13Z</time>
      </trkpt>
      <trkpt lat="42.592768" lon="-8.666477">
        <ele>39.8</ele>
        <time>2020-09-10T07:05:16Z</time>
      </trkpt>
      <trkpt lat="42.592767" lon="-8.666611">
        <ele>39.1</ele>
        <time>2020-09-10T07:05:18Z</time>
      </trkpt>
      <trkpt lat="42.592767" lon="-8.666745">
        <ele>38.5</ele>
        <time>2020-09-10T07:05:21Z</time>
      </trkpt>
      <trkpt lat="42.592774" lon="-8.666876">
        <ele>37.2</ele>
        <time>2020-09-10T07:05:24Z</time>
      </trkpt>
      <trkpt lat="42.592780" lon="-8.667013">
        <ele>36.0</ele>
        <time>2020-09-10T07:05:26Z</time>
      </trkpt>
      <trkpt lat="42.592780" lon="-8.667148">
        <ele>34.9</ele>
        <time>2020-09-10T07:05:29Z</time>
      </trkpt>
      <trkpt lat="42.592781" lon="-8.667249">
        <ele>34.2</ele>
        <time>2020-09-10T07:05:31Z</time>
      </trkpt>
      <trkpt lat="42.592777" lon="-8.667398">
        <ele>33.3</ele>
        <time>2020-09-10T07:05:34Z</time>
      </trkpt>
      <trkpt lat="42.592771" lon="-8.667519">
        <ele>32.9</ele>
        <time>2020-09-10T07:05:36Z</time>
      </trkpt>
      <trkpt lat="42.592759" lon="-8.667644">
        <ele>32.5</ele>
        <time>2020-09-10T07:05:39Z</time>
      </trkpt>
      <trkpt lat="42.592757" lon="-8.667744">
        <ele>32.2</ele>
        <time>2020-09-10T07:05:41Z</time>
      </trkpt>
      <trkpt lat="42.592748" lon="-8.667886">
        <ele>32.0</ele>
        <time>2020-09-10T07:05:44Z</time>
      </trkpt>
      <trkpt lat="42.592741" lon="-8.668007">
        <ele>32.2</ele>
        <time>2020-09-10T07:05:46Z</time>
      </trkpt>
      <trkpt lat="42.592743" lon="-8.668130">
        <ele>32.1</ele>
        <time>2020-09-10T07:05:48Z</time>
      </trkpt>
      <trkpt lat="42.592745" lon="-8.668259">
        <ele>31.7</ele>
        <time>2020-09-10T07:05:51Z</time>
      </trkpt>
      <trkpt lat="42.592752" lon="-8.668369">
        <ele>31.2</ele>
        <time>2020-09-10T07:05:53Z</time>
      </trkpt>
      <trkpt lat="42.592753" lon="-8.668515">
        <ele>31.0</ele>
        <time>2020-09-10T07:05:56Z</time>
      </trkpt>
      <trkpt lat="42.592744" lon="-8.668636">
        <ele>31.2</ele>
        <time>2020-09-10T07:05:58Z</time>
      </trkpt>
      <trkpt lat="42.592736" lon="-8.668761">
        <ele>31.4</ele>
        <time>2020-09-10T07:06:01Z</time>
      </trkpt>
      <trkpt lat="42.592741" lon="-8.668854">
        <ele>31.3</ele>
        <time>2020-09-10T07:06:03Z</time>
      </trkpt>
      <trkpt lat="42.592753" lon="-8.669001">
        <ele>30.9</ele>
        <time>2020-09-10T07:06:06Z</time>
      </trkpt>
      <trkpt lat="42.592747" lon="-8.669123">
        <ele>31.4</ele>
        <time>2020-09-10T07:06:08Z</time>
      </trkpt>
      <trkpt lat="42.592728" lon="-8.669242">
        <ele>32.2</ele>
        <time>2020-09-10T07:06:10Z</time>
      </trkpt>
      <trkpt lat="42.592719" lon="-8.669352">
        <ele>32.6</ele>
        <time>2020-09-10T07:06:12Z</time>
      </trkpt>
      <trkpt lat="42.592710" lon="-8.669435">
        <ele>32.9</ele>
        <time>2020-09-10T07:06:14Z</time>
      </trkpt>
      <trkpt lat="42.592699" lon="-8.669556">
        <ele>33.0</ele>
        <time>2020-09-10T07:06:17Z</time>
      </trkpt>
      <trkpt lat="42.592691" lon="-8.669643">
        <ele>32.9</ele>
        <time>2020-09-10T07:06:18Z</time>
      </trkpt>
      <trkpt lat="42.592679" lon="-8.669715">
        <ele>33.0</ele>
        <time>2020-09-10T07:06:20Z</time>
      </trkpt>
      <trkpt lat="42.592670" lon="-8.669767">
        <ele>32.9</ele>
        <time>2020-09-10T07:06:21Z</time>
      </trkpt>
      <trkpt lat="42.592665" lon="-8.669795">
        <ele>32.8</ele>
        <time>2020-09-10T07:06:21Z</time>
      </trkpt>
      <trkpt lat="42.592657" lon="-8.669827">
        <ele>32.8</ele>
        <time>2020-09-10T07:06:22Z</time>
      </trkpt>
      <trkpt lat="42.592654" lon="-8.669835">
        <ele>32.8</ele>
        <time>2020-09-10T07:06:22Z</time>
      </trkpt>
      <trkpt lat="42.592590" lon="-8.669935">
        <ele>33.8</ele>
        <time>2020-09-10T07:06:25Z</time>
      </trkpt>
      <trkpt lat="42.592586" lon="-8.670009">
        <ele>33.3</ele>
        <time>2020-09-10T07:06:26Z</time>
      </trkpt>
      <trkpt lat="42.592589" lon="-8.670082">
        <ele>32.6</ele>
        <time>2020-09-10T07:06:28Z</time>
      </trkpt>
      <trkpt lat="42.592592" lon="-8.670153">
        <ele>31.9</ele>
        <time>2020-09-10T07:06:29Z</time>
      </trkpt>
      <trkpt lat="42.592600" lon="-8.670236">
        <ele>30.8</ele>
        <time>2020-09-10T07:06:31Z</time>
      </trkpt>
      <trkpt lat="42.592618" lon="-8.670335">
        <ele>29.3</ele>
        <time>2020-09-10T07:06:33Z</time>
      </trkpt>
      <trkpt lat="42.592609" lon="-8.670433">
        <ele>28.6</ele>
        <time>2020-09-10T07:06:35Z</time>
      </trkpt>
      <trkpt lat="42.592586" lon="-8.670538">
        <ele>28.0</ele>
        <time>2020-09-10T07:06:37Z</time>
      </trkpt>
      <trkpt lat="42.592563" lon="-8.670645">
        <ele>27.6</ele>
        <time>2020-09-10T07:06:39Z</time>
      </trkpt>
      <trkpt lat="42.592536" lon="-8.670752">
        <ele>27.4</ele>
        <time>2020-09-10T07:06:41Z</time>
      </trkpt>
      <trkpt lat="42.592505" lon="-8.670858">
        <ele>27.2</ele>
        <time>2020-09-10T07:06:43Z</time>
      </trkpt>
      <trkpt lat="42.592471" lon="-8.670958">
        <ele>27.3</ele>
        <time>2020-09-10T07:06:46Z</time>
      </trkpt>
      <trkpt lat="42.592438" lon="-8.671060">
        <ele>27.5</ele>
        <time>2020-09-10T07:06:48Z</time>
      </trkpt>
      <trkpt lat="42.592405" lon="-8.671163">
        <ele>28.1</ele>
        <time>2020-09-10T07:06:50Z</time>
      </trkpt>
      <trkpt lat="42.592371" lon="-8.671263">
        <ele>29.0</ele>
        <time>2020-09-10T07:06:52Z</time>
      </trkpt>
      <trkpt lat="42.592338" lon="-8.671363">
        <ele>30.0</ele>
        <time>2020-09-10T07:06:54Z</time>
      </trkpt>
      <trkpt lat="42.592303" lon="-8.671463">
        <ele>31.2</ele>
        <time>2020-09-10T07:06:56Z</time>
      </trkpt>
      <trkpt lat="42.592267" lon="-8.671551">
        <ele>32.4</ele>
        <time>2020-09-10T07:06:58Z</time>
      </trkpt>
      <trkpt lat="42.592232" lon="-8.671638">
        <ele>33.3</ele>
        <time>2020-09-10T07:07:00Z</time>
      </trkpt>
      <trkpt lat="42.592206" lon="-8.671725">
        <ele>33.6</ele>
        <time>2020-09-10T07:07:02Z</time>
      </trkpt>
      <trkpt lat="42.592161" lon="-8.671816">
        <ele>34.0</ele>
        <time>2020-09-10T07:07:04Z</time>
      </trkpt>
      <trkpt lat="42.592111" lon="-8.671905">
        <ele>34.0</ele>
        <time>2020-09-10T07:07:07Z</time>
      </trkpt>
      <trkpt lat="42.592064" lon="-8.671991">
        <ele>33.9</ele>
        <time>2020-09-10T07:07:09Z</time>
      </trkpt>
      <trkpt lat="42.592016" lon="-8.672073">
        <ele>33.8</ele>
        <time>2020-09-10T07:07:11Z</time>
      </trkpt>
      <trkpt lat="42.591972" lon="-8.672153">
        <ele>33.4</ele>
        <time>2020-09-10T07:07:13Z</time>
      </trkpt>
      <trkpt lat="42.591924" lon="-8.672232">
        <ele>32.9</ele>
        <time>2020-09-10T07:07:15Z</time>
      </trkpt>
      <trkpt lat="42.591880" lon="-8.672305">
        <ele>32.2</ele>
        <time>2020-09-10T07:07:17Z</time>
      </trkpt>
      <trkpt lat="42.591834" lon="-8.672374">
        <ele>31.6</ele>
        <time>2020-09-10T07:07:18Z</time>
      </trkpt>
      <trkpt lat="42.591790" lon="-8.672441">
        <ele>30.9</ele>
        <time>2020-09-10T07:07:20Z</time>
      </trkpt>
      <trkpt lat="42.591742" lon="-8.672505">
        <ele>30.0</ele>
        <time>2020-09-10T07:07:22Z</time>
      </trkpt>
      <trkpt lat="42.591689" lon="-8.672572">
        <ele>29.0</ele>
        <time>2020-09-10T07:07:24Z</time>
      </trkpt>
      <trkpt lat="42.591642" lon="-8.672640">
        <ele>27.8</ele>
        <time>2020-09-10T07:07:26Z</time>
      </trkpt>
      <trkpt lat="42.591598" lon="-8.672709">
        <ele>26.6</ele>
        <time>2020-09-10T07:07:28Z</time>
      </trkpt>
      <trkpt lat="42.591547" lon="-8.672723">
        <ele>26.3</ele>
        <time>2020-09-10T07:07:29Z</time>
      </trkpt>
      <trkpt lat="42.591547" lon="-8.672723">
        <ele>26.3</ele>
        <time>2020-09-10T07:07:29Z</time>
      </trkpt>
      <trkpt lat="42.591488" lon="-8.672708">
        <ele>26.4</ele>
        <time>2020-09-10T07:07:30Z</time>
      </trkpt>
      <trkpt lat="42.591454" lon="-8.672708">
        <ele>26.4</ele>
        <time>2020-09-10T07:07:31Z</time>
      </trkpt>
      <trkpt lat="42.591416" lon="-8.672706">
        <ele>26.4</ele>
        <time>2020-09-10T07:07:32Z</time>
      </trkpt>
      <trkpt lat="42.591380" lon="-8.672699">
        <ele>26.4</ele>
        <time>2020-09-10T07:07:33Z</time>
      </trkpt>
      <trkpt lat="42.591353" lon="-8.672692">
        <ele>26.5</ele>
        <time>2020-09-10T07:07:34Z</time>
      </trkpt>
      <trkpt lat="42.591322" lon="-8.672685">
        <ele>26.6</ele>
        <time>2020-09-10T07:07:35Z</time>
      </trkpt>
      <trkpt lat="42.591287" lon="-8.672682">
        <ele>26.6</ele>
        <time>2020-09-10T07:07:36Z</time>
      </trkpt>
      <trkpt lat="42.591255" lon="-8.672679">
        <ele>26.6</ele>
        <time>2020-09-10T07:07:37Z</time>
      </trkpt>
      <trkpt lat="42.591233" lon="-8.672669">
        <ele>26.7</ele>
        <time>2020-09-10T07:07:37Z</time>
      </trkpt>
      <trkpt lat="42.591216" lon="-8.672653">
        <ele>26.9</ele>
        <time>2020-09-10T07:07:38Z</time>
      </trkpt>
      <trkpt lat="42.591197" lon="-8.672634">
        <ele>27.2</ele>
        <time>2020-09-10T07:07:39Z</time>
      </trkpt>
      <trkpt lat="42.591170" lon="-8.672615">
        <ele>27.5</ele>
        <time>2020-09-10T07:07:39Z</time>
      </trkpt>
      <trkpt lat="42.591143" lon="-8.672600">
        <ele>27.7</ele>
        <time>2020-09-10T07:07:40Z</time>
      </trkpt>
      <trkpt lat="42.591109" lon="-8.672582">
        <ele>27.7</ele>
        <time>2020-09-10T07:07:41Z</time>
      </trkpt>
      <trkpt lat="42.591072" lon="-8.672559">
        <ele>27.7</ele>
        <time>2020-09-10T07:07:42Z</time>
      </trkpt>
      <trkpt lat="42.591035" lon="-8.672537">
        <ele>27.8</ele>
        <time>2020-09-10T07:07:43Z</time>
      </trkpt>
      <trkpt lat="42.590999" lon="-8.672516">
        <ele>27.8</ele>
        <time>2020-09-10T07:07:44Z</time>
      </trkpt>
      <trkpt lat="42.590955" lon="-8.672487">
        <ele>27.8</ele>
        <time>2020-09-10T07:07:46Z</time>
      </trkpt>
      <trkpt lat="42.590910" lon="-8.672459">
        <ele>27.9</ele>
        <time>2020-09-10T07:07:47Z</time>
      </trkpt>
      <trkpt lat="42.590870" lon="-8.672440">
        <ele>27.9</ele>
        <time>2020-09-10T07:07:48Z</time>
      </trkpt>
      <trkpt lat="42.590826" lon="-8.672422">
        <ele>27.8</ele>
        <time>2020-09-10T07:07:49Z</time>
      </trkpt>
      <trkpt lat="42.590762" lon="-8.672393">
        <ele>27.5</ele>
        <time>2020-09-10T07:07:51Z</time>
      </trkpt>
      <trkpt lat="42.590707" lon="-8.672356">
        <ele>27.4</ele>
        <time>2020-09-10T07:07:53Z</time>
      </trkpt>
      <trkpt lat="42.590655" lon="-8.672323">
        <ele>27.2</ele>
        <time>2020-09-10T07:07:54Z</time>
      </trkpt>
      <trkpt lat="42.590602" lon="-8.672292">
        <ele>27.1</ele>
        <time>2020-09-10T07:07:56Z</time>
      </trkpt>
      <trkpt lat="42.590543" lon="-8.672272">
        <ele>26.8</ele>
        <time>2020-09-10T07:07:57Z</time>
      </trkpt>
      <trkpt lat="42.590489" lon="-8.672248">
        <ele>26.6</ele>
        <time>2020-09-10T07:07:59Z</time>
      </trkpt>
      <trkpt lat="42.590429" lon="-8.672225">
        <ele>26.4</ele>
        <time>2020-09-10T07:08:01Z</time>
      </trkpt>
      <trkpt lat="42.590376" lon="-8.672217">
        <ele>26.6</ele>
        <time>2020-09-10T07:08:02Z</time>
      </trkpt>
      <trkpt lat="42.590322" lon="-8.672216">
        <ele>26.7</ele>
        <time>2020-09-10T07:08:03Z</time>
      </trkpt>
      <trkpt lat="42.590251" lon="-8.672219">
        <ele>26.8</ele>
        <time>2020-09-10T07:08:05Z</time>
      </trkpt>
      <trkpt lat="42.590184" lon="-8.672224">
        <ele>26.8</ele>
        <time>2020-09-10T07:08:07Z</time>
      </trkpt>
      <trkpt lat="42.590112" lon="-8.672219">
        <ele>27.0</ele>
        <time>2020-09-10T07:08:09Z</time>
      </trkpt>
      <trkpt lat="42.590039" lon="-8.672210">
        <ele>27.2</ele>
        <time>2020-09-10T07:08:11Z</time>
      </trkpt>
      <trkpt lat="42.589960" lon="-8.672224">
        <ele>26.9</ele>
        <time>2020-09-10T07:08:13Z</time>
      </trkpt>
      <trkpt lat="42.589894" lon="-8.672229">
        <ele>26.4</ele>
        <time>2020-09-10T07:08:15Z</time>
      </trkpt>
      <trkpt lat="42.589826" lon="-8.672214">
        <ele>26.3</ele>
        <time>2020-09-10T07:08:17Z</time>
      </trkpt>
      <trkpt lat="42.589762" lon="-8.672194">
        <ele>26.2</ele>
        <time>2020-09-10T07:08:19Z</time>
      </trkpt>
      <trkpt lat="42.589697" lon="-8.672143">
        <ele>26.5</ele>
        <time>2020-09-10T07:08:21Z</time>
      </trkpt>
      <trkpt lat="42.589648" lon="-8.672086">
        <ele>26.8</ele>
        <time>2020-09-10T07:08:22Z</time>
      </trkpt>
      <trkpt lat="42.589607" lon="-8.672025">
        <ele>27.2</ele>
        <time>2020-09-10T07:08:24Z</time>
      </trkpt>
      <trkpt lat="42.589568" lon="-8.671959">
        <ele>27.6</ele>
        <time>2020-09-10T07:08:26Z</time>
      </trkpt>
      <trkpt lat="42.589538" lon="-8.671906">
        <ele>27.9</ele>
        <time>2020-09-10T07:08:27Z</time>
      </trkpt>
      <trkpt lat="42.589509" lon="-8.671846">
        <ele>28.3</ele>
        <time>2020-09-10T07:08:28Z</time>
      </trkpt>
      <trkpt lat="42.589486" lon="-8.671783">
        <ele>28.7</ele>
        <time>2020-09-10T07:08:30Z</time>
      </trkpt>
      <trkpt lat="42.589465" lon="-8.671717">
        <ele>28.8</ele>
        <time>2020-09-10T07:08:31Z</time>
      </trkpt>
      <trkpt lat="42.589443" lon="-8.671653">
        <ele>29.0</ele>
        <time>2020-09-10T07:08:32Z</time>
      </trkpt>
      <trkpt lat="42.589422" lon="-8.671588">
        <ele>29.2</ele>
        <time>2020-09-10T07:08:34Z</time>
      </trkpt>
      <trkpt lat="42.589401" lon="-8.671522">
        <ele>29.4</ele>
        <time>2020-09-10T07:08:35Z</time>
      </trkpt>
      <trkpt lat="42.589379" lon="-8.671459">
        <ele>29.6</ele>
        <time>2020-09-10T07:08:37Z</time>
      </trkpt>
      <trkpt lat="42.589354" lon="-8.671402">
        <ele>29.8</ele>
        <time>2020-09-10T07:08:38Z</time>
      </trkpt>
      <trkpt lat="42.589326" lon="-8.671354">
        <ele>29.8</ele>
        <time>2020-09-10T07:08:39Z</time>
      </trkpt>
      <trkpt lat="42.589290" lon="-8.671323">
        <ele>29.8</ele>
        <time>2020-09-10T07:08:40Z</time>
      </trkpt>
      <trkpt lat="42.589245" lon="-8.671311">
        <ele>30.2</ele>
        <time>2020-09-10T07:08:41Z</time>
      </trkpt>
      <trkpt lat="42.589200" lon="-8.671319">
        <ele>30.4</ele>
        <time>2020-09-10T07:08:43Z</time>
      </trkpt>
      <trkpt lat="42.589159" lon="-8.671332">
        <ele>30.4</ele>
        <time>2020-09-10T07:08:44Z</time>
      </trkpt>
      <trkpt lat="42.589123" lon="-8.671341">
        <ele>30.5</ele>
        <time>2020-09-10T07:08:45Z</time>
      </trkpt>
      <trkpt lat="42.589088" lon="-8.671347">
        <ele>30.6</ele>
        <time>2020-09-10T07:08:46Z</time>
      </trkpt>
      <trkpt lat="42.588971" lon="-8.671378">
        <ele>31.6</ele>
        <time>2020-09-10T07:08:49Z</time>
      </trkpt>
      <trkpt lat="42.588877" lon="-8.671359">
        <ele>33.0</ele>
        <time>2020-09-10T07:08:51Z</time>
      </trkpt>
      <trkpt lat="42.588826" lon="-8.671392">
        <ele>33.2</ele>
        <time>2020-09-10T07:08:53Z</time>
      </trkpt>
      <trkpt lat="42.588810" lon="-8.671441">
        <ele>32.6</ele>
        <time>2020-09-10T07:08:54Z</time>
      </trkpt>
      <trkpt lat="42.588797" lon="-8.671468">
        <ele>32.4</ele>
        <time>2020-09-10T07:08:55Z</time>
      </trkpt>
      <trkpt lat="42.588780" lon="-8.671493">
        <ele>32.2</ele>
        <time>2020-09-10T07:08:55Z</time>
      </trkpt>
      <trkpt lat="42.588759" lon="-8.671514">
        <ele>32.1</ele>
        <time>2020-09-10T07:08:56Z</time>
      </trkpt>
      <trkpt lat="42.588734" lon="-8.671528">
        <ele>32.1</ele>
        <time>2020-09-10T07:08:57Z</time>
      </trkpt>
      <trkpt lat="42.588708" lon="-8.671536">
        <ele>32.2</ele>
        <time>2020-09-10T07:08:57Z</time>
      </trkpt>
      <trkpt lat="42.588682" lon="-8.671543">
        <ele>32.3</ele>
        <time>2020-09-10T07:08:58Z</time>
      </trkpt>
      <trkpt lat="42.588656" lon="-8.671549">
        <ele>32.5</ele>
        <time>2020-09-10T07:08:59Z</time>
      </trkpt>
      <trkpt lat="42.588628" lon="-8.671554">
        <ele>32.7</ele>
        <time>2020-09-10T07:09:00Z</time>
      </trkpt>
      <trkpt lat="42.588599" lon="-8.671561">
        <ele>32.8</ele>
        <time>2020-09-10T07:09:00Z</time>
      </trkpt>
      <trkpt lat="42.588569" lon="-8.671569">
        <ele>32.8</ele>
        <time>2020-09-10T07:09:01Z</time>
      </trkpt>
      <trkpt lat="42.588538" lon="-8.671575">
        <ele>32.7</ele>
        <time>2020-09-10T07:09:02Z</time>
      </trkpt>
      <trkpt lat="42.588507" lon="-8.671579">
        <ele>32.7</ele>
        <time>2020-09-10T07:09:03Z</time>
      </trkpt>
      <trkpt lat="42.588477" lon="-8.671583">
        <ele>32.7</ele>
        <time>2020-09-10T07:09:04Z</time>
      </trkpt>
      <trkpt lat="42.588447" lon="-8.671585">
        <ele>32.7</ele>
        <time>2020-09-10T07:09:04Z</time>
      </trkpt>
      <trkpt lat="42.588417" lon="-8.671583">
        <ele>32.8</ele>
        <time>2020-09-10T07:09:05Z</time>
      </trkpt>
      <trkpt lat="42.588390" lon="-8.671574">
        <ele>32.9</ele>
        <time>2020-09-10T07:09:06Z</time>
      </trkpt>
      <trkpt lat="42.588364" lon="-8.671555">
        <ele>33.3</ele>
        <time>2020-09-10T07:09:07Z</time>
      </trkpt>
      <trkpt lat="42.588339" lon="-8.671528">
        <ele>33.6</ele>
        <time>2020-09-10T07:09:08Z</time>
      </trkpt>
      <trkpt lat="42.588317" lon="-8.671495">
        <ele>34.0</ele>
        <time>2020-09-10T07:09:09Z</time>
      </trkpt>
      <trkpt lat="42.588298" lon="-8.671459">
        <ele>34.4</ele>
        <time>2020-09-10T07:09:09Z</time>
      </trkpt>
      <trkpt lat="42.588282" lon="-8.671424">
        <ele>34.9</ele>
        <time>2020-09-10T07:09:10Z</time>
      </trkpt>
      <trkpt lat="42.588265" lon="-8.671391">
        <ele>35.2</ele>
        <time>2020-09-10T07:09:11Z</time>
      </trkpt>
      <trkpt lat="42.588244" lon="-8.671360">
        <ele>35.5</ele>
        <time>2020-09-10T07:09:12Z</time>
      </trkpt>
      <trkpt lat="42.588225" lon="-8.671326">
        <ele>35.9</ele>
        <time>2020-09-10T07:09:13Z</time>
      </trkpt>
      <trkpt lat="42.588207" lon="-8.671295">
        <ele>36.2</ele>
        <time>2020-09-10T07:09:13Z</time>
      </trkpt>
      <trkpt lat="42.588188" lon="-8.671267">
        <ele>36.5</ele>
        <time>2020-09-10T07:09:14Z</time>
      </trkpt>
      <trkpt lat="42.588174" lon="-8.671242">
        <ele>36.8</ele>
        <time>2020-09-10T07:09:15Z</time>
      </trkpt>
      <trkpt lat="42.588159" lon="-8.671215">
        <ele>37.1</ele>
        <time>2020-09-10T07:09:15Z</time>
      </trkpt>
      <trkpt lat="42.588149" lon="-8.671187">
        <ele>37.4</ele>
        <time>2020-09-10T07:09:16Z</time>
      </trkpt>
      <trkpt lat="42.588145" lon="-8.671162">
        <ele>37.8</ele>
        <time>2020-09-10T07:09:17Z</time>
      </trkpt>
      <trkpt lat="42.588145" lon="-8.671139">
        <ele>38.1</ele>
        <time>2020-09-10T07:09:17Z</time>
      </trkpt>
      <trkpt lat="42.588134" lon="-8.671110">
        <ele>38.4</ele>
        <time>2020-09-10T07:09:18Z</time>
      </trkpt>
      <trkpt lat="42.588053" lon="-8.671072">
        <ele>37.8</ele>
        <time>2020-09-10T07:09:20Z</time>
      </trkpt>
      <trkpt lat="42.588031" lon="-8.671068">
        <ele>37.6</ele>
        <time>2020-09-10T07:09:21Z</time>
      </trkpt>
      <trkpt lat="42.588005" lon="-8.671062">
        <ele>37.3</ele>
        <time>2020-09-10T07:09:21Z</time>
      </trkpt>
      <trkpt lat="42.587977" lon="-8.671053">
        <ele>37.0</ele>
        <time>2020-09-10T07:09:22Z</time>
      </trkpt>
      <trkpt lat="42.587946" lon="-8.671040">
        <ele>36.8</ele>
        <time>2020-09-10T07:09:23Z</time>
      </trkpt>
      <trkpt lat="42.587915" lon="-8.671023">
        <ele>36.6</ele>
        <time>2020-09-10T07:09:24Z</time>
      </trkpt>
      <trkpt lat="42.587886" lon="-8.671007">
        <ele>36.6</ele>
        <time>2020-09-10T07:09:25Z</time>
      </trkpt>
      <trkpt lat="42.587861" lon="-8.670993">
        <ele>36.6</ele>
        <time>2020-09-10T07:09:25Z</time>
      </trkpt>
      <trkpt lat="42.587839" lon="-8.670981">
        <ele>36.6</ele>
        <time>2020-09-10T07:09:26Z</time>
      </trkpt>
      <trkpt lat="42.587814" lon="-8.670963">
        <ele>36.7</ele>
        <time>2020-09-10T07:09:27Z</time>
      </trkpt>
      <trkpt lat="42.587786" lon="-8.670945">
        <ele>36.7</ele>
        <time>2020-09-10T07:09:28Z</time>
      </trkpt>
      <trkpt lat="42.587751" lon="-8.670925">
        <ele>36.7</ele>
        <time>2020-09-10T07:09:29Z</time>
      </trkpt>
      <trkpt lat="42.587715" lon="-8.670904">
        <ele>36.7</ele>
        <time>2020-09-10T07:09:30Z</time>
      </trkpt>
      <trkpt lat="42.587680" lon="-8.670889">
        <ele>36.6</ele>
        <time>2020-09-10T07:09:31Z</time>
      </trkpt>
      <trkpt lat="42.587644" lon="-8.670880">
        <ele>36.8</ele>
        <time>2020-09-10T07:09:32Z</time>
      </trkpt>
      <trkpt lat="42.587607" lon="-8.670881">
        <ele>36.9</ele>
        <time>2020-09-10T07:09:33Z</time>
      </trkpt>
      <trkpt lat="42.587570" lon="-8.670894">
        <ele>36.9</ele>
        <time>2020-09-10T07:09:34Z</time>
      </trkpt>
      <trkpt lat="42.587537" lon="-8.670917">
        <ele>36.6</ele>
        <time>2020-09-10T07:09:35Z</time>
      </trkpt>
      <trkpt lat="42.587504" lon="-8.670947">
        <ele>36.3</ele>
        <time>2020-09-10T07:09:36Z</time>
      </trkpt>
      <trkpt lat="42.587470" lon="-8.670979">
        <ele>36.0</ele>
        <time>2020-09-10T07:09:37Z</time>
      </trkpt>
      <trkpt lat="42.587437" lon="-8.671008">
        <ele>35.8</ele>
        <time>2020-09-10T07:09:38Z</time>
      </trkpt>
      <trkpt lat="42.587404" lon="-8.671038">
        <ele>36.1</ele>
        <time>2020-09-10T07:09:39Z</time>
      </trkpt>
      <trkpt lat="42.587373" lon="-8.671066">
        <ele>36.3</ele>
        <time>2020-09-10T07:09:40Z</time>
      </trkpt>
      <trkpt lat="42.587347" lon="-8.671085">
        <ele>36.6</ele>
        <time>2020-09-10T07:09:41Z</time>
      </trkpt>
      <trkpt lat="42.587324" lon="-8.671103">
        <ele>36.9</ele>
        <time>2020-09-10T07:09:41Z</time>
      </trkpt>
      <trkpt lat="42.587299" lon="-8.671122">
        <ele>37.1</ele>
        <time>2020-09-10T07:09:42Z</time>
      </trkpt>
      <trkpt lat="42.587273" lon="-8.671141">
        <ele>37.4</ele>
        <time>2020-09-10T07:09:43Z</time>
      </trkpt>
      <trkpt lat="42.587244" lon="-8.671157">
        <ele>37.8</ele>
        <time>2020-09-10T07:09:44Z</time>
      </trkpt>
      <trkpt lat="42.587220" lon="-8.671177">
        <ele>38.0</ele>
        <time>2020-09-10T07:09:44Z</time>
      </trkpt>
      <trkpt lat="42.587199" lon="-8.671203">
        <ele>38.2</ele>
        <time>2020-09-10T07:09:45Z</time>
      </trkpt>
      <trkpt lat="42.587179" lon="-8.671223">
        <ele>38.7</ele>
        <time>2020-09-10T07:09:46Z</time>
      </trkpt>
      <trkpt lat="42.587161" lon="-8.671249">
        <ele>39.0</ele>
        <time>2020-09-10T07:09:47Z</time>
      </trkpt>
      <trkpt lat="42.587152" lon="-8.671284">
        <ele>38.8</ele>
        <time>2020-09-10T07:09:47Z</time>
      </trkpt>
      <trkpt lat="42.587150" lon="-8.671332">
        <ele>38.2</ele>
        <time>2020-09-10T07:09:48Z</time>
      </trkpt>
      <trkpt lat="42.587144" lon="-8.671398">
        <ele>37.6</ele>
        <time>2020-09-10T07:09:50Z</time>
      </trkpt>
      <trkpt lat="42.587130" lon="-8.671475">
        <ele>37.2</ele>
        <time>2020-09-10T07:09:51Z</time>
      </trkpt>
      <trkpt lat="42.587116" lon="-8.671560">
        <ele>36.7</ele>
        <time>2020-09-10T07:09:53Z</time>
      </trkpt>
      <trkpt lat="42.587101" lon="-8.671649">
        <ele>36.3</ele>
        <time>2020-09-10T07:09:55Z</time>
      </trkpt>
      <trkpt lat="42.587089" lon="-8.671724">
        <ele>35.8</ele>
        <time>2020-09-10T07:09:56Z</time>
      </trkpt>
      <trkpt lat="42.587069" lon="-8.671822">
        <ele>35.4</ele>
        <time>2020-09-10T07:09:58Z</time>
      </trkpt>
      <trkpt lat="42.587045" lon="-8.671939">
        <ele>35.2</ele>
        <time>2020-09-10T07:10:00Z</time>
      </trkpt>
      <trkpt lat="42.587028" lon="-8.672016">
        <ele>35.0</ele>
        <time>2020-09-10T07:10:02Z</time>
      </trkpt>
      <trkpt lat="42.587010" lon="-8.672144">
        <ele>34.6</ele>
        <time>2020-09-10T07:10:05Z</time>
      </trkpt>
      <trkpt lat="42.586997" lon="-8.672254">
        <ele>34.2</ele>
        <time>2020-09-10T07:10:07Z</time>
      </trkpt>
      <trkpt lat="42.587000" lon="-8.672352">
        <ele>34.3</ele>
        <time>2020-09-10T07:10:09Z</time>
      </trkpt>
      <trkpt lat="42.586996" lon="-8.672464">
        <ele>34.7</ele>
        <time>2020-09-10T07:10:11Z</time>
      </trkpt>
      <trkpt lat="42.587005" lon="-8.672575">
        <ele>35.7</ele>
        <time>2020-09-10T07:10:13Z</time>
      </trkpt>
      <trkpt lat="42.587040" lon="-8.672659">
        <ele>36.0</ele>
        <time>2020-09-10T07:10:15Z</time>
      </trkpt>
      <trkpt lat="42.587097" lon="-8.672721">
        <ele>35.4</ele>
        <time>2020-09-10T07:10:17Z</time>
      </trkpt>
      <trkpt lat="42.587143" lon="-8.672768">
        <ele>35.3</ele>
        <time>2020-09-10T07:10:19Z</time>
      </trkpt>
      <trkpt lat="42.587201" lon="-8.672823">
        <ele>35.1</ele>
        <time>2020-09-10T07:10:20Z</time>
      </trkpt>
      <trkpt lat="42.587268" lon="-8.672888">
        <ele>34.4</ele>
        <time>2020-09-10T07:10:23Z</time>
      </trkpt>
      <trkpt lat="42.587327" lon="-8.672948">
        <ele>33.5</ele>
        <time>2020-09-10T07:10:25Z</time>
      </trkpt>
      <trkpt lat="42.587379" lon="-8.673010">
        <ele>32.9</ele>
        <time>2020-09-10T07:10:26Z</time>
      </trkpt>
      <trkpt lat="42.587423" lon="-8.673067">
        <ele>32.4</ele>
        <time>2020-09-10T07:10:28Z</time>
      </trkpt>
      <trkpt lat="42.587457" lon="-8.673137">
        <ele>32.4</ele>
        <time>2020-09-10T07:10:30Z</time>
      </trkpt>
      <trkpt lat="42.587485" lon="-8.673237">
        <ele>32.7</ele>
        <time>2020-09-10T07:10:32Z</time>
      </trkpt>
      <trkpt lat="42.587493" lon="-8.673303">
        <ele>33.1</ele>
        <time>2020-09-10T07:10:33Z</time>
      </trkpt>
      <trkpt lat="42.587509" lon="-8.673413">
        <ele>33.5</ele>
        <time>2020-09-10T07:10:35Z</time>
      </trkpt>
      <trkpt lat="42.587502" lon="-8.673498">
        <ele>33.9</ele>
        <time>2020-09-10T07:10:37Z</time>
      </trkpt>
      <trkpt lat="42.587484" lon="-8.673579">
        <ele>34.8</ele>
        <time>2020-09-10T07:10:39Z</time>
      </trkpt>
      <trkpt lat="42.587470" lon="-8.673660">
        <ele>35.4</ele>
        <time>2020-09-10T07:10:40Z</time>
      </trkpt>
      <trkpt lat="42.587453" lon="-8.673743">
        <ele>35.6</ele>
        <time>2020-09-10T07:10:42Z</time>
      </trkpt>
      <trkpt lat="42.587438" lon="-8.673821">
        <ele>35.6</ele>
        <time>2020-09-10T07:10:44Z</time>
      </trkpt>
      <trkpt lat="42.587419" lon="-8.673898">
        <ele>35.9</ele>
        <time>2020-09-10T07:10:45Z</time>
      </trkpt>
      <trkpt lat="42.587397" lon="-8.673963">
        <ele>36.0</ele>
        <time>2020-09-10T07:10:47Z</time>
      </trkpt>
      <trkpt lat="42.587371" lon="-8.674020">
        <ele>36.4</ele>
        <time>2020-09-10T07:10:48Z</time>
      </trkpt>
      <trkpt lat="42.587341" lon="-8.674080">
        <ele>36.9</ele>
        <time>2020-09-10T07:10:49Z</time>
      </trkpt>
      <trkpt lat="42.587305" lon="-8.674141">
        <ele>37.3</ele>
        <time>2020-09-10T07:10:51Z</time>
      </trkpt>
      <trkpt lat="42.587265" lon="-8.674201">
        <ele>37.7</ele>
        <time>2020-09-10T07:10:52Z</time>
      </trkpt>
      <trkpt lat="42.587225" lon="-8.674266">
        <ele>37.7</ele>
        <time>2020-09-10T07:10:54Z</time>
      </trkpt>
      <trkpt lat="42.587194" lon="-8.674316">
        <ele>37.6</ele>
        <time>2020-09-10T07:10:55Z</time>
      </trkpt>
      <trkpt lat="42.587146" lon="-8.674395">
        <ele>36.9</ele>
        <time>2020-09-10T07:10:57Z</time>
      </trkpt>
      <trkpt lat="42.587105" lon="-8.674469">
        <ele>35.8</ele>
        <time>2020-09-10T07:10:59Z</time>
      </trkpt>
      <trkpt lat="42.587069" lon="-8.674541">
        <ele>34.7</ele>
        <time>2020-09-10T07:11:01Z</time>
      </trkpt>
      <trkpt lat="42.587016" lon="-8.674631">
        <ele>33.6</ele>
        <time>2020-09-10T07:11:03Z</time>
      </trkpt>
      <trkpt lat="42.586934" lon="-8.674760">
        <ele>31.8</ele>
        <time>2020-09-10T07:11:07Z</time>
      </trkpt>
      <trkpt lat="42.586844" lon="-8.674878">
        <ele>30.5</ele>
        <time>2020-09-10T07:11:10Z</time>
      </trkpt>
      <trkpt lat="42.586763" lon="-8.674974">
        <ele>29.7</ele>
        <time>2020-09-10T07:11:13Z</time>
      </trkpt>
      <trkpt lat="42.586681" lon="-8.675074">
        <ele>28.4</ele>
        <time>2020-09-10T07:11:16Z</time>
      </trkpt>
      <trkpt lat="42.586597" lon="-8.675174">
        <ele>27.5</ele>
        <time>2020-09-10T07:11:19Z</time>
      </trkpt>
      <trkpt lat="42.586503" lon="-8.675280">
        <ele>26.5</ele>
        <time>2020-09-10T07:11:22Z</time>
      </trkpt>
      <trkpt lat="42.586403" lon="-8.675380">
        <ele>25.7</ele>
        <time>2020-09-10T07:11:25Z</time>
      </trkpt>
      <trkpt lat="42.586303" lon="-8.675478">
        <ele>24.7</ele>
        <time>2020-09-10T07:11:29Z</time>
      </trkpt>
      <trkpt lat="42.586200" lon="-8.675567">
        <ele>24.6</ele>
        <time>2020-09-10T07:11:32Z</time>
      </trkpt>
      <trkpt lat="42.586104" lon="-8.675645">
        <ele>24.5</ele>
        <time>2020-09-10T07:11:35Z</time>
      </trkpt>
      <trkpt lat="42.586007" lon="-8.675713">
        <ele>24.5</ele>
        <time>2020-09-10T07:11:38Z</time>
      </trkpt>
      <trkpt lat="42.585918" lon="-8.675777">
        <ele>24.4</ele>
        <time>2020-09-10T07:11:40Z</time>
      </trkpt>
      <trkpt lat="42.585840" lon="-8.675840">
        <ele>23.9</ele>
        <time>2020-09-10T07:11:43Z</time>
      </trkpt>
      <trkpt lat="42.585763" lon="-8.675892">
        <ele>23.7</ele>
        <time>2020-09-10T07:11:45Z</time>
      </trkpt>
      <trkpt lat="42.585700" lon="-8.675937">
        <ele>23.4</ele>
        <time>2020-09-10T07:11:47Z</time>
      </trkpt>
      <trkpt lat="42.585647" lon="-8.675990">
        <ele>23.0</ele>
        <time>2020-09-10T07:11:49Z</time>
      </trkpt>
      <trkpt lat="42.585587" lon="-8.676039">
        <ele>23.0</ele>
        <time>2020-09-10T07:11:51Z</time>
      </trkpt>
      <trkpt lat="42.585520" lon="-8.676083">
        <ele>23.0</ele>
        <time>2020-09-10T07:11:53Z</time>
      </trkpt>
      <trkpt lat="42.585454" lon="-8.676120">
        <ele>23.0</ele>
        <time>2020-09-10T07:11:54Z</time>
      </trkpt>
      <trkpt lat="42.585401" lon="-8.676119">
        <ele>23.7</ele>
        <time>2020-09-10T07:11:56Z</time>
      </trkpt>
      <trkpt lat="42.585347" lon="-8.676134">
        <ele>24.2</ele>
        <time>2020-09-10T07:11:57Z</time>
      </trkpt>
      <trkpt lat="42.585294" lon="-8.676171">
        <ele>24.4</ele>
        <time>2020-09-10T07:11:59Z</time>
      </trkpt>
      <trkpt lat="42.585231" lon="-8.676225">
        <ele>24.3</ele>
        <time>2020-09-10T07:12:01Z</time>
      </trkpt>
      <trkpt lat="42.585166" lon="-8.676279">
        <ele>24.0</ele>
        <time>2020-09-10T07:12:03Z</time>
      </trkpt>
      <trkpt lat="42.585095" lon="-8.676319">
        <ele>24.2</ele>
        <time>2020-09-10T07:12:05Z</time>
      </trkpt>
      <trkpt lat="42.585027" lon="-8.676360">
        <ele>24.2</ele>
        <time>2020-09-10T07:12:07Z</time>
      </trkpt>
      <trkpt lat="42.584962" lon="-8.676398">
        <ele>24.2</ele>
        <time>2020-09-10T07:12:09Z</time>
      </trkpt>
      <trkpt lat="42.584898" lon="-8.676432">
        <ele>24.2</ele>
        <time>2020-09-10T07:12:11Z</time>
      </trkpt>
      <trkpt lat="42.584833" lon="-8.676464">
        <ele>24.5</ele>
        <time>2020-09-10T07:12:13Z</time>
      </trkpt>
      <trkpt lat="42.584768" lon="-8.676498">
        <ele>24.6</ele>
        <time>2020-09-10T07:12:14Z</time>
      </trkpt>
      <trkpt lat="42.584706" lon="-8.676525">
        <ele>24.7</ele>
        <time>2020-09-10T07:12:16Z</time>
      </trkpt>
      <trkpt lat="42.584646" lon="-8.676550">
        <ele>24.9</ele>
        <time>2020-09-10T07:12:18Z</time>
      </trkpt>
      <trkpt lat="42.584585" lon="-8.676578">
        <ele>25.0</ele>
        <time>2020-09-10T07:12:20Z</time>
      </trkpt>
      <trkpt lat="42.584525" lon="-8.676607">
        <ele>25.0</ele>
        <time>2020-09-10T07:12:21Z</time>
      </trkpt>
      <trkpt lat="42.584467" lon="-8.676631">
        <ele>25.0</ele>
        <time>2020-09-10T07:12:23Z</time>
      </trkpt>
      <trkpt lat="42.584410" lon="-8.676656">
        <ele>25.0</ele>
        <time>2020-09-10T07:12:24Z</time>
      </trkpt>
      <trkpt lat="42.584353" lon="-8.676681">
        <ele>25.1</ele>
        <time>2020-09-10T07:12:26Z</time>
      </trkpt>
      <trkpt lat="42.584293" lon="-8.676704">
        <ele>25.2</ele>
        <time>2020-09-10T07:12:28Z</time>
      </trkpt>
      <trkpt lat="42.584231" lon="-8.676732">
        <ele>25.2</ele>
        <time>2020-09-10T07:12:29Z</time>
      </trkpt>
      <trkpt lat="42.584170" lon="-8.676753">
        <ele>25.2</ele>
        <time>2020-09-10T07:12:31Z</time>
      </trkpt>
      <trkpt lat="42.584109" lon="-8.676773">
        <ele>25.2</ele>
        <time>2020-09-10T07:12:33Z</time>
      </trkpt>
      <trkpt lat="42.584047" lon="-8.676793">
        <ele>25.3</ele>
        <time>2020-09-10T07:12:35Z</time>
      </trkpt>
      <trkpt lat="42.583983" lon="-8.676811">
        <ele>25.4</ele>
        <time>2020-09-10T07:12:36Z</time>
      </trkpt>
      <trkpt lat="42.583914" lon="-8.676831">
        <ele>25.2</ele>
        <time>2020-09-10T07:12:38Z</time>
      </trkpt>
      <trkpt lat="42.583849" lon="-8.676857">
        <ele>24.8</ele>
        <time>2020-09-10T07:12:40Z</time>
      </trkpt>
      <trkpt lat="42.583783" lon="-8.676895">
        <ele>24.3</ele>
        <time>2020-09-10T07:12:42Z</time>
      </trkpt>
      <trkpt lat="42.583725" lon="-8.676950">
        <ele>23.8</ele>
        <time>2020-09-10T07:12:44Z</time>
      </trkpt>
      <trkpt lat="42.583685" lon="-8.677028">
        <ele>23.1</ele>
        <time>2020-09-10T07:12:46Z</time>
      </trkpt>
      <trkpt lat="42.583650" lon="-8.677126">
        <ele>22.3</ele>
        <time>2020-09-10T07:12:48Z</time>
      </trkpt>
      <trkpt lat="42.583613" lon="-8.677231">
        <ele>21.6</ele>
        <time>2020-09-10T07:12:50Z</time>
      </trkpt>
      <trkpt lat="42.583580" lon="-8.677342">
        <ele>20.6</ele>
        <time>2020-09-10T07:12:52Z</time>
      </trkpt>
      <trkpt lat="42.583546" lon="-8.677460">
        <ele>19.7</ele>
        <time>2020-09-10T07:12:55Z</time>
      </trkpt>
      <trkpt lat="42.583511" lon="-8.677582">
        <ele>19.1</ele>
        <time>2020-09-10T07:12:57Z</time>
      </trkpt>
      <trkpt lat="42.583479" lon="-8.677704">
        <ele>18.4</ele>
        <time>2020-09-10T07:13:00Z</time>
      </trkpt>
      <trkpt lat="42.583440" lon="-8.677837">
        <ele>17.9</ele>
        <time>2020-09-10T07:13:03Z</time>
      </trkpt>
      <trkpt lat="42.583397" lon="-8.677957">
        <ele>17.8</ele>
        <time>2020-09-10T07:13:05Z</time>
      </trkpt>
      <trkpt lat="42.583353" lon="-8.678076">
        <ele>17.6</ele>
        <time>2020-09-10T07:13:08Z</time>
      </trkpt>
      <trkpt lat="42.583304" lon="-8.678198">
        <ele>17.3</ele>
        <time>2020-09-10T07:13:11Z</time>
      </trkpt>
      <trkpt lat="42.583258" lon="-8.678321">
        <ele>17.6</ele>
        <time>2020-09-10T07:13:14Z</time>
      </trkpt>
      <trkpt lat="42.583208" lon="-8.678440">
        <ele>18.0</ele>
        <time>2020-09-10T07:13:16Z</time>
      </trkpt>
      <trkpt lat="42.583162" lon="-8.678552">
        <ele>17.8</ele>
        <time>2020-09-10T07:13:19Z</time>
      </trkpt>
      <trkpt lat="42.583112" lon="-8.678663">
        <ele>17.2</ele>
        <time>2020-09-10T07:13:21Z</time>
      </trkpt>
      <trkpt lat="42.583064" lon="-8.678769">
        <ele>16.4</ele>
        <time>2020-09-10T07:13:24Z</time>
      </trkpt>
      <trkpt lat="42.583016" lon="-8.678874">
        <ele>16.5</ele>
        <time>2020-09-10T07:13:26Z</time>
      </trkpt>
      <trkpt lat="42.582968" lon="-8.678974">
        <ele>16.2</ele>
        <time>2020-09-10T07:13:29Z</time>
      </trkpt>
      <trkpt lat="42.582918" lon="-8.679074">
        <ele>16.2</ele>
        <time>2020-09-10T07:13:31Z</time>
      </trkpt>
      <trkpt lat="42.582874" lon="-8.679168">
        <ele>15.9</ele>
        <time>2020-09-10T07:13:33Z</time>
      </trkpt>
      <trkpt lat="42.582830" lon="-8.679268">
        <ele>15.7</ele>
        <time>2020-09-10T07:13:35Z</time>
      </trkpt>
      <trkpt lat="42.582797" lon="-8.679364">
        <ele>15.7</ele>
        <time>2020-09-10T07:13:37Z</time>
      </trkpt>
      <trkpt lat="42.582776" lon="-8.679440">
        <ele>15.8</ele>
        <time>2020-09-10T07:13:39Z</time>
      </trkpt>
      <trkpt lat="42.582742" lon="-8.679559">
        <ele>16.3</ele>
        <time>2020-09-10T07:13:42Z</time>
      </trkpt>
      <trkpt lat="42.582724" lon="-8.679655">
        <ele>16.6</ele>
        <time>2020-09-10T07:13:43Z</time>
      </trkpt>
      <trkpt lat="42.582707" lon="-8.679738">
        <ele>17.4</ele>
        <time>2020-09-10T07:13:45Z</time>
      </trkpt>
      <trkpt lat="42.582700" lon="-8.679800">
        <ele>17.9</ele>
        <time>2020-09-10T07:13:46Z</time>
      </trkpt>
      <trkpt lat="42.582689" lon="-8.679885">
        <ele>18.6</ele>
        <time>2020-09-10T07:13:48Z</time>
      </trkpt>
      <trkpt lat="42.582675" lon="-8.679991">
        <ele>19.3</ele>
        <time>2020-09-10T07:13:50Z</time>
      </trkpt>
      <trkpt lat="42.582679" lon="-8.680082">
        <ele>19.5</ele>
        <time>2020-09-10T07:13:52Z</time>
      </trkpt>
      <trkpt lat="42.582696" lon="-8.680170">
        <ele>19.2</ele>
        <time>2020-09-10T07:13:54Z</time>
      </trkpt>
      <trkpt lat="42.582709" lon="-8.680238">
        <ele>18.9</ele>
        <time>2020-09-10T07:13:55Z</time>
      </trkpt>
      <trkpt lat="42.582730" lon="-8.680324">
        <ele>18.3</ele>
        <time>2020-09-10T07:13:57Z</time>
      </trkpt>
      <trkpt lat="42.582762" lon="-8.680429">
        <ele>17.9</ele>
        <time>2020-09-10T07:13:59Z</time>
      </trkpt>
      <trkpt lat="42.582784" lon="-8.680519">
        <ele>17.8</ele>
        <time>2020-09-10T07:14:01Z</time>
      </trkpt>
      <trkpt lat="42.582803" lon="-8.680591">
        <ele>17.5</ele>
        <time>2020-09-10T07:14:03Z</time>
      </trkpt>
      <trkpt lat="42.582826" lon="-8.680684">
        <ele>17.4</ele>
        <time>2020-09-10T07:14:04Z</time>
      </trkpt>
      <trkpt lat="42.582847" lon="-8.680776">
        <ele>17.8</ele>
        <time>2020-09-10T07:14:06Z</time>
      </trkpt>
      <trkpt lat="42.582864" lon="-8.680889">
        <ele>18.3</ele>
        <time>2020-09-10T07:14:09Z</time>
      </trkpt>
      <trkpt lat="42.582870" lon="-8.680984">
        <ele>18.8</ele>
        <time>2020-09-10T07:14:11Z</time>
      </trkpt>
      <trkpt lat="42.582873" lon="-8.681077">
        <ele>19.0</ele>
        <time>2020-09-10T07:14:12Z</time>
      </trkpt>
      <trkpt lat="42.582873" lon="-8.681154">
        <ele>18.9</ele>
        <time>2020-09-10T07:14:14Z</time>
      </trkpt>
      <trkpt lat="42.582870" lon="-8.681244">
        <ele>18.9</ele>
        <time>2020-09-10T07:14:16Z</time>
      </trkpt>
      <trkpt lat="42.582858" lon="-8.681327">
        <ele>19.2</ele>
        <time>2020-09-10T07:14:17Z</time>
      </trkpt>
      <trkpt lat="42.582836" lon="-8.681418">
        <ele>19.7</ele>
        <time>2020-09-10T07:14:19Z</time>
      </trkpt>
      <trkpt lat="42.582826" lon="-8.681474">
        <ele>20.0</ele>
        <time>2020-09-10T07:14:20Z</time>
      </trkpt>
      <trkpt lat="42.582809" lon="-8.681543">
        <ele>20.3</ele>
        <time>2020-09-10T07:14:22Z</time>
      </trkpt>
      <trkpt lat="42.582792" lon="-8.681609">
        <ele>20.4</ele>
        <time>2020-09-10T07:14:23Z</time>
      </trkpt>
      <trkpt lat="42.582774" lon="-8.681686">
        <ele>20.5</ele>
        <time>2020-09-10T07:14:25Z</time>
      </trkpt>
      <trkpt lat="42.582747" lon="-8.681752">
        <ele>20.7</ele>
        <time>2020-09-10T07:14:26Z</time>
      </trkpt>
      <trkpt lat="42.582726" lon="-8.681808">
        <ele>20.9</ele>
        <time>2020-09-10T07:14:27Z</time>
      </trkpt>
      <trkpt lat="42.582706" lon="-8.681852">
        <ele>21.0</ele>
        <time>2020-09-10T07:14:28Z</time>
      </trkpt>
      <trkpt lat="42.582678" lon="-8.681906">
        <ele>21.2</ele>
        <time>2020-09-10T07:14:30Z</time>
      </trkpt>
      <trkpt lat="42.582648" lon="-8.681956">
        <ele>21.4</ele>
        <time>2020-09-10T07:14:31Z</time>
      </trkpt>
      <trkpt lat="42.582606" lon="-8.682017">
        <ele>21.9</ele>
        <time>2020-09-10T07:14:33Z</time>
      </trkpt>
      <trkpt lat="42.582571" lon="-8.682063">
        <ele>22.2</ele>
        <time>2020-09-10T07:14:34Z</time>
      </trkpt>
      <trkpt lat="42.582536" lon="-8.682109">
        <ele>22.5</ele>
        <time>2020-09-10T07:14:35Z</time>
      </trkpt>
      <trkpt lat="42.582504" lon="-8.682147">
        <ele>22.7</ele>
        <time>2020-09-10T07:14:36Z</time>
      </trkpt>
      <trkpt lat="42.582468" lon="-8.682191">
        <ele>22.9</ele>
        <time>2020-09-10T07:14:38Z</time>
      </trkpt>
      <trkpt lat="42.582422" lon="-8.682243">
        <ele>23.3</ele>
        <time>2020-09-10T07:14:39Z</time>
      </trkpt>
      <trkpt lat="42.582387" lon="-8.682279">
        <ele>23.5</ele>
        <time>2020-09-10T07:14:40Z</time>
      </trkpt>
      <trkpt lat="42.582344" lon="-8.682321">
        <ele>23.8</ele>
        <time>2020-09-10T07:14:42Z</time>
      </trkpt>
      <trkpt lat="42.582300" lon="-8.682361">
        <ele>24.1</ele>
        <time>2020-09-10T07:14:43Z</time>
      </trkpt>
      <trkpt lat="42.582258" lon="-8.682401">
        <ele>24.3</ele>
        <time>2020-09-10T07:14:45Z</time>
      </trkpt>
      <trkpt lat="42.582218" lon="-8.682436">
        <ele>24.5</ele>
        <time>2020-09-10T07:14:46Z</time>
      </trkpt>
      <trkpt lat="42.582180" lon="-8.682471">
        <ele>24.7</ele>
        <time>2020-09-10T07:14:47Z</time>
      </trkpt>
      <trkpt lat="42.582138" lon="-8.682510">
        <ele>24.9</ele>
        <time>2020-09-10T07:14:48Z</time>
      </trkpt>
      <trkpt lat="42.582112" lon="-8.682536">
        <ele>25.2</ele>
        <time>2020-09-10T07:14:49Z</time>
      </trkpt>
      <trkpt lat="42.582082" lon="-8.682574">
        <ele>25.3</ele>
        <time>2020-09-10T07:14:50Z</time>
      </trkpt>
      <trkpt lat="42.582053" lon="-8.682616">
        <ele>25.4</ele>
        <time>2020-09-10T07:14:52Z</time>
      </trkpt>
      <trkpt lat="42.582023" lon="-8.682663">
        <ele>25.4</ele>
        <time>2020-09-10T07:14:53Z</time>
      </trkpt>
      <trkpt lat="42.581990" lon="-8.682708">
        <ele>25.5</ele>
        <time>2020-09-10T07:14:54Z</time>
      </trkpt>
      <trkpt lat="42.581962" lon="-8.682754">
        <ele>25.6</ele>
        <time>2020-09-10T07:14:55Z</time>
      </trkpt>
      <trkpt lat="42.581941" lon="-8.682805">
        <ele>25.6</ele>
        <time>2020-09-10T07:14:56Z</time>
      </trkpt>
      <trkpt lat="42.581910" lon="-8.682870">
        <ele>25.6</ele>
        <time>2020-09-10T07:14:58Z</time>
      </trkpt>
      <trkpt lat="42.581889" lon="-8.682917">
        <ele>25.6</ele>
        <time>2020-09-10T07:14:59Z</time>
      </trkpt>
      <trkpt lat="42.581863" lon="-8.682975">
        <ele>25.4</ele>
        <time>2020-09-10T07:15:00Z</time>
      </trkpt>
      <trkpt lat="42.581844" lon="-8.683036">
        <ele>25.2</ele>
        <time>2020-09-10T07:15:02Z</time>
      </trkpt>
      <trkpt lat="42.581830" lon="-8.683099">
        <ele>24.9</ele>
        <time>2020-09-10T07:15:03Z</time>
      </trkpt>
      <trkpt lat="42.581818" lon="-8.683168">
        <ele>24.6</ele>
        <time>2020-09-10T07:15:04Z</time>
      </trkpt>
      <trkpt lat="42.581806" lon="-8.683244">
        <ele>24.2</ele>
        <time>2020-09-10T07:15:06Z</time>
      </trkpt>
      <trkpt lat="42.581798" lon="-8.683322">
        <ele>23.7</ele>
        <time>2020-09-10T07:15:07Z</time>
      </trkpt>
      <trkpt lat="42.581794" lon="-8.683403">
        <ele>23.3</ele>
        <time>2020-09-10T07:15:09Z</time>
      </trkpt>
      <trkpt lat="42.581795" lon="-8.683490">
        <ele>22.8</ele>
        <time>2020-09-10T07:15:11Z</time>
      </trkpt>
      <trkpt lat="42.581798" lon="-8.683601">
        <ele>22.2</ele>
        <time>2020-09-10T07:15:13Z</time>
      </trkpt>
      <trkpt lat="42.581800" lon="-8.683677">
        <ele>21.9</ele>
        <time>2020-09-10T07:15:14Z</time>
      </trkpt>
      <trkpt lat="42.581806" lon="-8.683771">
        <ele>21.4</ele>
        <time>2020-09-10T07:15:16Z</time>
      </trkpt>
      <trkpt lat="42.581814" lon="-8.683868">
        <ele>21.0</ele>
        <time>2020-09-10T07:15:18Z</time>
      </trkpt>
      <trkpt lat="42.581826" lon="-8.683963">
        <ele>20.7</ele>
        <time>2020-09-10T07:15:20Z</time>
      </trkpt>
      <trkpt lat="42.581843" lon="-8.684075">
        <ele>20.4</ele>
        <time>2020-09-10T07:15:22Z</time>
      </trkpt>
      <trkpt lat="42.581856" lon="-8.684170">
        <ele>20.5</ele>
        <time>2020-09-10T07:15:24Z</time>
      </trkpt>
      <trkpt lat="42.581867" lon="-8.684246">
        <ele>20.6</ele>
        <time>2020-09-10T07:15:26Z</time>
      </trkpt>
      <trkpt lat="42.581889" lon="-8.684333">
        <ele>21.1</ele>
        <time>2020-09-10T07:15:27Z</time>
      </trkpt>
      <trkpt lat="42.581909" lon="-8.684415">
        <ele>21.6</ele>
        <time>2020-09-10T07:15:29Z</time>
      </trkpt>
      <trkpt lat="42.581930" lon="-8.684493">
        <ele>22.2</ele>
        <time>2020-09-10T07:15:31Z</time>
      </trkpt>
      <trkpt lat="42.581959" lon="-8.684568">
        <ele>23.0</ele>
        <time>2020-09-10T07:15:32Z</time>
      </trkpt>
      <trkpt lat="42.581996" lon="-8.684633">
        <ele>23.8</ele>
        <time>2020-09-10T07:15:34Z</time>
      </trkpt>
      <trkpt lat="42.582038" lon="-8.684683">
        <ele>24.4</ele>
        <time>2020-09-10T07:15:36Z</time>
      </trkpt>
      <trkpt lat="42.582083" lon="-8.684725">
        <ele>25.0</ele>
        <time>2020-09-10T07:15:37Z</time>
      </trkpt>
      <trkpt lat="42.582127" lon="-8.684749">
        <ele>25.4</ele>
        <time>2020-09-10T07:15:38Z</time>
      </trkpt>
      <trkpt lat="42.582188" lon="-8.684763">
        <ele>25.6</ele>
        <time>2020-09-10T07:15:40Z</time>
      </trkpt>
      <trkpt lat="42.582239" lon="-8.684769">
        <ele>25.7</ele>
        <time>2020-09-10T07:15:41Z</time>
      </trkpt>
      <trkpt lat="42.582290" lon="-8.684777">
        <ele>25.8</ele>
        <time>2020-09-10T07:15:43Z</time>
      </trkpt>
      <trkpt lat="42.582333" lon="-8.684785">
        <ele>25.9</ele>
        <time>2020-09-10T07:15:44Z</time>
      </trkpt>
      <trkpt lat="42.582387" lon="-8.684801">
        <ele>26.0</ele>
        <time>2020-09-10T07:15:45Z</time>
      </trkpt>
      <trkpt lat="42.582441" lon="-8.684820">
        <ele>26.1</ele>
        <time>2020-09-10T07:15:47Z</time>
      </trkpt>
      <trkpt lat="42.582505" lon="-8.684843">
        <ele>26.2</ele>
        <time>2020-09-10T07:15:49Z</time>
      </trkpt>
      <trkpt lat="42.582547" lon="-8.684862">
        <ele>26.3</ele>
        <time>2020-09-10T07:15:50Z</time>
      </trkpt>
      <trkpt lat="42.582602" lon="-8.684889">
        <ele>26.4</ele>
        <time>2020-09-10T07:15:51Z</time>
      </trkpt>
      <trkpt lat="42.582667" lon="-8.684923">
        <ele>26.2</ele>
        <time>2020-09-10T07:15:53Z</time>
      </trkpt>
      <trkpt lat="42.582722" lon="-8.684955">
        <ele>26.1</ele>
        <time>2020-09-10T07:15:55Z</time>
      </trkpt>
      <trkpt lat="42.582778" lon="-8.684992">
        <ele>26.2</ele>
        <time>2020-09-10T07:15:56Z</time>
      </trkpt>
      <trkpt lat="42.582829" lon="-8.685031">
        <ele>26.3</ele>
        <time>2020-09-10T07:15:58Z</time>
      </trkpt>
      <trkpt lat="42.582871" lon="-8.685064">
        <ele>25.9</ele>
        <time>2020-09-10T07:15:59Z</time>
      </trkpt>
      <trkpt lat="42.582923" lon="-8.685107">
        <ele>25.5</ele>
        <time>2020-09-10T07:16:01Z</time>
      </trkpt>
      <trkpt lat="42.582982" lon="-8.685163">
        <ele>25.0</ele>
        <time>2020-09-10T07:16:03Z</time>
      </trkpt>
      <trkpt lat="42.583032" lon="-8.685216">
        <ele>24.9</ele>
        <time>2020-09-10T07:16:04Z</time>
      </trkpt>
      <trkpt lat="42.583081" lon="-8.685267">
        <ele>25.0</ele>
        <time>2020-09-10T07:16:06Z</time>
      </trkpt>
      <trkpt lat="42.583120" lon="-8.685310">
        <ele>25.0</ele>
        <time>2020-09-10T07:16:07Z</time>
      </trkpt>
      <trkpt lat="42.583179" lon="-8.685373">
        <ele>25.1</ele>
        <time>2020-09-10T07:16:09Z</time>
      </trkpt>
      <trkpt lat="42.583219" lon="-8.685417">
        <ele>25.1</ele>
        <time>2020-09-10T07:16:11Z</time>
      </trkpt>
      <trkpt lat="42.583280" lon="-8.685481">
        <ele>25.6</ele>
        <time>2020-09-10T07:16:13Z</time>
      </trkpt>
      <trkpt lat="42.583320" lon="-8.685524">
        <ele>25.9</ele>
        <time>2020-09-10T07:16:14Z</time>
      </trkpt>
      <trkpt lat="42.583368" lon="-8.685578">
        <ele>26.3</ele>
        <time>2020-09-10T07:16:16Z</time>
      </trkpt>
      <trkpt lat="42.583428" lon="-8.685642">
        <ele>26.5</ele>
        <time>2020-09-10T07:16:18Z</time>
      </trkpt>
      <trkpt lat="42.583468" lon="-8.685682">
        <ele>26.6</ele>
        <time>2020-09-10T07:16:19Z</time>
      </trkpt>
      <trkpt lat="42.583528" lon="-8.685738">
        <ele>26.8</ele>
        <time>2020-09-10T07:16:21Z</time>
      </trkpt>
      <trkpt lat="42.583579" lon="-8.685783">
        <ele>27.3</ele>
        <time>2020-09-10T07:16:23Z</time>
      </trkpt>
      <trkpt lat="42.583629" lon="-8.685823">
        <ele>27.7</ele>
        <time>2020-09-10T07:16:24Z</time>
      </trkpt>
      <trkpt lat="42.583679" lon="-8.685857">
        <ele>27.9</ele>
        <time>2020-09-10T07:16:26Z</time>
      </trkpt>
      <trkpt lat="42.583718" lon="-8.685884">
        <ele>28.0</ele>
        <time>2020-09-10T07:16:27Z</time>
      </trkpt>
      <trkpt lat="42.583775" lon="-8.685922">
        <ele>28.3</ele>
        <time>2020-09-10T07:16:29Z</time>
      </trkpt>
      <trkpt lat="42.583823" lon="-8.685958">
        <ele>28.5</ele>
        <time>2020-09-10T07:16:30Z</time>
      </trkpt>
      <trkpt lat="42.583866" lon="-8.685989">
        <ele>28.7</ele>
        <time>2020-09-10T07:16:32Z</time>
      </trkpt>
      <trkpt lat="42.583910" lon="-8.686026">
        <ele>28.9</ele>
        <time>2020-09-10T07:16:33Z</time>
      </trkpt>
      <trkpt lat="42.583950" lon="-8.686064">
        <ele>29.1</ele>
        <time>2020-09-10T07:16:34Z</time>
      </trkpt>
      <trkpt lat="42.583998" lon="-8.686113">
        <ele>29.4</ele>
        <time>2020-09-10T07:16:36Z</time>
      </trkpt>
      <trkpt lat="42.584028" lon="-8.686147">
        <ele>29.4</ele>
        <time>2020-09-10T07:16:37Z</time>
      </trkpt>
      <trkpt lat="42.584065" lon="-8.686192">
        <ele>29.6</ele>
        <time>2020-09-10T07:16:38Z</time>
      </trkpt>
      <trkpt lat="42.584100" lon="-8.686239">
        <ele>29.8</ele>
        <time>2020-09-10T07:16:39Z</time>
      </trkpt>
      <trkpt lat="42.584131" lon="-8.686290">
        <ele>30.0</ele>
        <time>2020-09-10T07:16:41Z</time>
      </trkpt>
      <trkpt lat="42.584161" lon="-8.686343">
        <ele>30.3</ele>
        <time>2020-09-10T07:16:42Z</time>
      </trkpt>
      <trkpt lat="42.584187" lon="-8.686402">
        <ele>30.3</ele>
        <time>2020-09-10T07:16:43Z</time>
      </trkpt>
      <trkpt lat="42.584210" lon="-8.686466">
        <ele>30.5</ele>
        <time>2020-09-10T07:16:45Z</time>
      </trkpt>
      <trkpt lat="42.584226" lon="-8.686534">
        <ele>30.9</ele>
        <time>2020-09-10T07:16:46Z</time>
      </trkpt>
      <trkpt lat="42.584240" lon="-8.686606">
        <ele>31.1</ele>
        <time>2020-09-10T07:16:48Z</time>
      </trkpt>
      <trkpt lat="42.584251" lon="-8.686682">
        <ele>31.1</ele>
        <time>2020-09-10T07:16:49Z</time>
      </trkpt>
      <trkpt lat="42.584257" lon="-8.686763">
        <ele>31.3</ele>
        <time>2020-09-10T07:16:51Z</time>
      </trkpt>
      <trkpt lat="42.584257" lon="-8.686850">
        <ele>31.2</ele>
        <time>2020-09-10T07:16:53Z</time>
      </trkpt>
      <trkpt lat="42.584253" lon="-8.686941">
        <ele>30.7</ele>
        <time>2020-09-10T07:16:54Z</time>
      </trkpt>
      <trkpt lat="42.584246" lon="-8.687035">
        <ele>30.3</ele>
        <time>2020-09-10T07:16:56Z</time>
      </trkpt>
      <trkpt lat="42.584231" lon="-8.687134">
        <ele>29.9</ele>
        <time>2020-09-10T07:16:58Z</time>
      </trkpt>
      <trkpt lat="42.584218" lon="-8.687233">
        <ele>29.4</ele>
        <time>2020-09-10T07:17:00Z</time>
      </trkpt>
      <trkpt lat="42.584207" lon="-8.687337">
        <ele>29.2</ele>
        <time>2020-09-10T07:17:02Z</time>
      </trkpt>
      <trkpt lat="42.584195" lon="-8.687441">
        <ele>29.0</ele>
        <time>2020-09-10T07:17:04Z</time>
      </trkpt>
      <trkpt lat="42.584183" lon="-8.687545">
        <ele>28.8</ele>
        <time>2020-09-10T07:17:06Z</time>
      </trkpt>
      <trkpt lat="42.584171" lon="-8.687653">
        <ele>28.5</ele>
        <time>2020-09-10T07:17:08Z</time>
      </trkpt>
      <trkpt lat="42.584158" lon="-8.687762">
        <ele>28.0</ele>
        <time>2020-09-10T07:17:11Z</time>
      </trkpt>
      <trkpt lat="42.584140" lon="-8.687871">
        <ele>27.4</ele>
        <time>2020-09-10T07:17:13Z</time>
      </trkpt>
      <trkpt lat="42.584112" lon="-8.687979">
        <ele>27.0</ele>
        <time>2020-09-10T07:17:15Z</time>
      </trkpt>
      <trkpt lat="42.584079" lon="-8.688084">
        <ele>27.0</ele>
        <time>2020-09-10T07:17:17Z</time>
      </trkpt>
      <trkpt lat="42.584037" lon="-8.688187">
        <ele>27.0</ele>
        <time>2020-09-10T07:17:20Z</time>
      </trkpt>
      <trkpt lat="42.583991" lon="-8.688287">
        <ele>26.4</ele>
        <time>2020-09-10T07:17:22Z</time>
      </trkpt>
      <trkpt lat="42.583941" lon="-8.688386">
        <ele>25.7</ele>
        <time>2020-09-10T07:17:24Z</time>
      </trkpt>
      <trkpt lat="42.583885" lon="-8.688477">
        <ele>25.1</ele>
        <time>2020-09-10T07:17:27Z</time>
      </trkpt>
      <trkpt lat="42.583825" lon="-8.688565">
        <ele>24.6</ele>
        <time>2020-09-10T07:17:29Z</time>
      </trkpt>
      <trkpt lat="42.583762" lon="-8.688649">
        <ele>24.2</ele>
        <time>2020-09-10T07:17:31Z</time>
      </trkpt>
      <trkpt lat="42.583697" lon="-8.688730">
        <ele>23.9</ele>
        <time>2020-09-10T07:17:34Z</time>
      </trkpt>
      <trkpt lat="42.583632" lon="-8.688809">
        <ele>23.5</ele>
        <time>2020-09-10T07:17:36Z</time>
      </trkpt>
      <trkpt lat="42.583567" lon="-8.688885">
        <ele>23.1</ele>
        <time>2020-09-10T07:17:38Z</time>
      </trkpt>
      <trkpt lat="42.583503" lon="-8.688957">
        <ele>22.6</ele>
        <time>2020-09-10T07:17:41Z</time>
      </trkpt>
      <trkpt lat="42.583440" lon="-8.689037">
        <ele>21.8</ele>
        <time>2020-09-10T07:17:43Z</time>
      </trkpt>
      <trkpt lat="42.583392" lon="-8.689129">
        <ele>20.7</ele>
        <time>2020-09-10T07:17:45Z</time>
      </trkpt>
      <trkpt lat="42.583362" lon="-8.689234">
        <ele>19.5</ele>
        <time>2020-09-10T07:17:47Z</time>
      </trkpt>
      <trkpt lat="42.583350" lon="-8.689349">
        <ele>18.0</ele>
        <time>2020-09-10T07:17:50Z</time>
      </trkpt>
      <trkpt lat="42.583361" lon="-8.689466">
        <ele>17.0</ele>
        <time>2020-09-10T07:17:52Z</time>
      </trkpt>
      <trkpt lat="42.583385" lon="-8.689567">
        <ele>16.2</ele>
        <time>2020-09-10T07:17:54Z</time>
      </trkpt>
      <trkpt lat="42.583412" lon="-8.689647">
        <ele>15.8</ele>
        <time>2020-09-10T07:17:56Z</time>
      </trkpt>
      <trkpt lat="42.583442" lon="-8.689706">
        <ele>15.6</ele>
        <time>2020-09-10T07:17:57Z</time>
      </trkpt>
      <trkpt lat="42.583474" lon="-8.689759">
        <ele>15.4</ele>
        <time>2020-09-10T07:17:58Z</time>
      </trkpt>
      <trkpt lat="42.583505" lon="-8.689813">
        <ele>15.2</ele>
        <time>2020-09-10T07:18:00Z</time>
      </trkpt>
      <trkpt lat="42.583538" lon="-8.689869">
        <ele>15.1</ele>
        <time>2020-09-10T07:18:01Z</time>
      </trkpt>
      <trkpt lat="42.583573" lon="-8.689927">
        <ele>15.0</ele>
        <time>2020-09-10T07:18:03Z</time>
      </trkpt>
      <trkpt lat="42.583612" lon="-8.689983">
        <ele>15.0</ele>
        <time>2020-09-10T07:18:04Z</time>
      </trkpt>
      <trkpt lat="42.583652" lon="-8.690043">
        <ele>14.9</ele>
        <time>2020-09-10T07:18:06Z</time>
      </trkpt>
      <trkpt lat="42.583691" lon="-8.690105">
        <ele>14.9</ele>
        <time>2020-09-10T07:18:07Z</time>
      </trkpt>
      <trkpt lat="42.583731" lon="-8.690166">
        <ele>14.9</ele>
        <time>2020-09-10T07:18:09Z</time>
      </trkpt>
      <trkpt lat="42.583773" lon="-8.690227">
        <ele>14.9</ele>
        <time>2020-09-10T07:18:11Z</time>
      </trkpt>
      <trkpt lat="42.583818" lon="-8.690286">
        <ele>14.9</ele>
        <time>2020-09-10T07:18:12Z</time>
      </trkpt>
      <trkpt lat="42.583862" lon="-8.690341">
        <ele>14.9</ele>
        <time>2020-09-10T07:18:14Z</time>
      </trkpt>
      <trkpt lat="42.583906" lon="-8.690397">
        <ele>14.9</ele>
        <time>2020-09-10T07:18:15Z</time>
      </trkpt>
      <trkpt lat="42.583951" lon="-8.690454">
        <ele>14.9</ele>
        <time>2020-09-10T07:18:17Z</time>
      </trkpt>
      <trkpt lat="42.584000" lon="-8.690510">
        <ele>14.9</ele>
        <time>2020-09-10T07:18:19Z</time>
      </trkpt>
      <trkpt lat="42.584049" lon="-8.690566">
        <ele>14.9</ele>
        <time>2020-09-10T07:18:21Z</time>
      </trkpt>
      <trkpt lat="42.584098" lon="-8.690623">
        <ele>14.9</ele>
        <time>2020-09-10T07:18:22Z</time>
      </trkpt>
      <trkpt lat="42.584149" lon="-8.690672">
        <ele>14.9</ele>
        <time>2020-09-10T07:18:24Z</time>
      </trkpt>
      <trkpt lat="42.584200" lon="-8.690719">
        <ele>14.9</ele>
        <time>2020-09-10T07:18:26Z</time>
      </trkpt>
      <trkpt lat="42.584252" lon="-8.690765">
        <ele>14.8</ele>
        <time>2020-09-10T07:18:27Z</time>
      </trkpt>
      <trkpt lat="42.584304" lon="-8.690815">
        <ele>14.7</ele>
        <time>2020-09-10T07:18:29Z</time>
      </trkpt>
      <trkpt lat="42.584353" lon="-8.690863">
        <ele>14.7</ele>
        <time>2020-09-10T07:18:31Z</time>
      </trkpt>
      <trkpt lat="42.584402" lon="-8.690914">
        <ele>14.8</ele>
        <time>2020-09-10T07:18:32Z</time>
      </trkpt>
      <trkpt lat="42.584450" lon="-8.690963">
        <ele>14.9</ele>
        <time>2020-09-10T07:18:34Z</time>
      </trkpt>
      <trkpt lat="42.584500" lon="-8.691009">
        <ele>14.9</ele>
        <time>2020-09-10T07:18:35Z</time>
      </trkpt>
      <trkpt lat="42.584549" lon="-8.691054">
        <ele>14.9</ele>
        <time>2020-09-10T07:18:37Z</time>
      </trkpt>
      <trkpt lat="42.584601" lon="-8.691102">
        <ele>14.9</ele>
        <time>2020-09-10T07:18:39Z</time>
      </trkpt>
      <trkpt lat="42.584650" lon="-8.691147">
        <ele>14.9</ele>
        <time>2020-09-10T07:18:40Z</time>
      </trkpt>
      <trkpt lat="42.584699" lon="-8.691195">
        <ele>14.8</ele>
        <time>2020-09-10T07:18:42Z</time>
      </trkpt>
      <trkpt lat="42.584747" lon="-8.691241">
        <ele>14.5</ele>
        <time>2020-09-10T07:18:43Z</time>
      </trkpt>
      <trkpt lat="42.584796" lon="-8.691288">
        <ele>14.2</ele>
        <time>2020-09-10T07:18:45Z</time>
      </trkpt>
      <trkpt lat="42.584843" lon="-8.691335">
        <ele>14.1</ele>
        <time>2020-09-10T07:18:47Z</time>
      </trkpt>
      <trkpt lat="42.584891" lon="-8.691381">
        <ele>14.0</ele>
        <time>2020-09-10T07:18:48Z</time>
      </trkpt>
      <trkpt lat="42.584940" lon="-8.691429">
        <ele>14.1</ele>
        <time>2020-09-10T07:18:50Z</time>
      </trkpt>
      <trkpt lat="42.584989" lon="-8.691477">
        <ele>14.4</ele>
        <time>2020-09-10T07:18:51Z</time>
      </trkpt>
      <trkpt lat="42.585037" lon="-8.691521">
        <ele>14.7</ele>
        <time>2020-09-10T07:18:53Z</time>
      </trkpt>
      <trkpt lat="42.585087" lon="-8.691566">
        <ele>15.2</ele>
        <time>2020-09-10T07:18:55Z</time>
      </trkpt>
      <trkpt lat="42.585137" lon="-8.691609">
        <ele>15.7</ele>
        <time>2020-09-10T07:18:56Z</time>
      </trkpt>
      <trkpt lat="42.585188" lon="-8.691656">
        <ele>15.9</ele>
        <time>2020-09-10T07:18:58Z</time>
      </trkpt>
      <trkpt lat="42.585240" lon="-8.691706">
        <ele>16.0</ele>
        <time>2020-09-10T07:18:59Z</time>
      </trkpt>
      <trkpt lat="42.585289" lon="-8.691759">
        <ele>16.3</ele>
        <time>2020-09-10T07:19:01Z</time>
      </trkpt>
      <trkpt lat="42.585336" lon="-8.691815">
        <ele>16.7</ele>
        <time>2020-09-10T07:19:03Z</time>
      </trkpt>
      <trkpt lat="42.585380" lon="-8.691875">
        <ele>17.1</ele>
        <time>2020-09-10T07:19:04Z</time>
      </trkpt>
      <trkpt lat="42.585418" lon="-8.691939">
        <ele>17.4</ele>
        <time>2020-09-10T07:19:06Z</time>
      </trkpt>
      <trkpt lat="42.585453" lon="-8.692005">
        <ele>17.7</ele>
        <time>2020-09-10T07:19:08Z</time>
      </trkpt>
      <trkpt lat="42.585488" lon="-8.692064">
        <ele>18.1</ele>
        <time>2020-09-10T07:19:09Z</time>
      </trkpt>
      <trkpt lat="42.585531" lon="-8.692118">
        <ele>18.5</ele>
        <time>2020-09-10T07:19:11Z</time>
      </trkpt>
      <trkpt lat="42.585562" lon="-8.692121">
        <ele>18.7</ele>
        <time>2020-09-10T07:19:12Z</time>
      </trkpt>
      <trkpt lat="42.585595" lon="-8.692103">
        <ele>18.9</ele>
        <time>2020-09-10T07:19:13Z</time>
      </trkpt>
      <trkpt lat="42.585617" lon="-8.692054">
        <ele>18.9</ele>
        <time>2020-09-10T07:19:14Z</time>
      </trkpt>
      <trkpt lat="42.585619" lon="-8.691978">
        <ele>18.7</ele>
        <time>2020-09-10T07:19:15Z</time>
      </trkpt>
      <trkpt lat="42.585620" lon="-8.691885">
        <ele>18.4</ele>
        <time>2020-09-10T07:19:17Z</time>
      </trkpt>
      <trkpt lat="42.585631" lon="-8.691788">
        <ele>17.9</ele>
        <time>2020-09-10T07:19:19Z</time>
      </trkpt>
      <trkpt lat="42.585652" lon="-8.691692">
        <ele>17.7</ele>
        <time>2020-09-10T07:19:21Z</time>
      </trkpt>
      <trkpt lat="42.585677" lon="-8.691597">
        <ele>17.5</ele>
        <time>2020-09-10T07:19:23Z</time>
      </trkpt>
      <trkpt lat="42.585702" lon="-8.691500">
        <ele>17.5</ele>
        <time>2020-09-10T07:19:25Z</time>
      </trkpt>
      <trkpt lat="42.585723" lon="-8.691402">
        <ele>17.3</ele>
        <time>2020-09-10T07:19:27Z</time>
      </trkpt>
      <trkpt lat="42.585741" lon="-8.691302">
        <ele>17.2</ele>
        <time>2020-09-10T07:19:29Z</time>
      </trkpt>
      <trkpt lat="42.585756" lon="-8.691199">
        <ele>17.0</ele>
        <time>2020-09-10T07:19:31Z</time>
      </trkpt>
      <trkpt lat="42.585772" lon="-8.691096">
        <ele>16.6</ele>
        <time>2020-09-10T07:19:33Z</time>
      </trkpt>
      <trkpt lat="42.585793" lon="-8.690993">
        <ele>16.1</ele>
        <time>2020-09-10T07:19:35Z</time>
      </trkpt>
      <trkpt lat="42.585819" lon="-8.690893">
        <ele>15.8</ele>
        <time>2020-09-10T07:19:37Z</time>
      </trkpt>
      <trkpt lat="42.585849" lon="-8.690795">
        <ele>15.6</ele>
        <time>2020-09-10T07:19:39Z</time>
      </trkpt>
      <trkpt lat="42.585880" lon="-8.690700">
        <ele>15.6</ele>
        <time>2020-09-10T07:19:41Z</time>
      </trkpt>
      <trkpt lat="42.585915" lon="-8.690605">
        <ele>15.6</ele>
        <time>2020-09-10T07:19:43Z</time>
      </trkpt>
      <trkpt lat="42.585951" lon="-8.690516">
        <ele>15.4</ele>
        <time>2020-09-10T07:19:45Z</time>
      </trkpt>
      <trkpt lat="42.585991" lon="-8.690431">
        <ele>15.4</ele>
        <time>2020-09-10T07:19:47Z</time>
      </trkpt>
      <trkpt lat="42.586039" lon="-8.690354">
        <ele>15.3</ele>
        <time>2020-09-10T07:19:49Z</time>
      </trkpt>
      <trkpt lat="42.586089" lon="-8.690287">
        <ele>15.3</ele>
        <time>2020-09-10T07:19:51Z</time>
      </trkpt>
      <trkpt lat="42.586146" lon="-8.690225">
        <ele>15.5</ele>
        <time>2020-09-10T07:19:53Z</time>
      </trkpt>
      <trkpt lat="42.586206" lon="-8.690168">
        <ele>15.6</ele>
        <time>2020-09-10T07:19:55Z</time>
      </trkpt>
      <trkpt lat="42.586262" lon="-8.690113">
        <ele>15.6</ele>
        <time>2020-09-10T07:19:57Z</time>
      </trkpt>
      <trkpt lat="42.586314" lon="-8.690046">
        <ele>15.6</ele>
        <time>2020-09-10T07:19:59Z</time>
      </trkpt>
      <trkpt lat="42.586360" lon="-8.689974">
        <ele>15.6</ele>
        <time>2020-09-10T07:20:01Z</time>
      </trkpt>
      <trkpt lat="42.586408" lon="-8.689906">
        <ele>15.7</ele>
        <time>2020-09-10T07:20:03Z</time>
      </trkpt>
      <trkpt lat="42.586457" lon="-8.689839">
        <ele>15.7</ele>
        <time>2020-09-10T07:20:04Z</time>
      </trkpt>
      <trkpt lat="42.586505" lon="-8.689772">
        <ele>15.6</ele>
        <time>2020-09-10T07:20:06Z</time>
      </trkpt>
      <trkpt lat="42.586555" lon="-8.689703">
        <ele>15.8</ele>
        <time>2020-09-10T07:20:08Z</time>
      </trkpt>
      <trkpt lat="42.586606" lon="-8.689639">
        <ele>15.8</ele>
        <time>2020-09-10T07:20:10Z</time>
      </trkpt>
      <trkpt lat="42.586672" lon="-8.689568">
        <ele>15.7</ele>
        <time>2020-09-10T07:20:12Z</time>
      </trkpt>
      <trkpt lat="42.586715" lon="-8.689521">
        <ele>15.8</ele>
        <time>2020-09-10T07:20:14Z</time>
      </trkpt>
      <trkpt lat="42.586771" lon="-8.689466">
        <ele>16.0</ele>
        <time>2020-09-10T07:20:16Z</time>
      </trkpt>
      <trkpt lat="42.586829" lon="-8.689415">
        <ele>16.4</ele>
        <time>2020-09-10T07:20:17Z</time>
      </trkpt>
      <trkpt lat="42.586890" lon="-8.689370">
        <ele>16.6</ele>
        <time>2020-09-10T07:20:19Z</time>
      </trkpt>
      <trkpt lat="42.586950" lon="-8.689326">
        <ele>16.8</ele>
        <time>2020-09-10T07:20:21Z</time>
      </trkpt>
      <trkpt lat="42.587008" lon="-8.689280">
        <ele>16.9</ele>
        <time>2020-09-10T07:20:23Z</time>
      </trkpt>
      <trkpt lat="42.587067" lon="-8.689236">
        <ele>16.9</ele>
        <time>2020-09-10T07:20:25Z</time>
      </trkpt>
      <trkpt lat="42.587124" lon="-8.689190">
        <ele>16.8</ele>
        <time>2020-09-10T07:20:26Z</time>
      </trkpt>
      <trkpt lat="42.587177" lon="-8.689142">
        <ele>16.6</ele>
        <time>2020-09-10T07:20:28Z</time>
      </trkpt>
      <trkpt lat="42.587228" lon="-8.689098">
        <ele>16.4</ele>
        <time>2020-09-10T07:20:30Z</time>
      </trkpt>
      <trkpt lat="42.587284" lon="-8.689068">
        <ele>16.3</ele>
        <time>2020-09-10T07:20:31Z</time>
      </trkpt>
      <trkpt lat="42.587342" lon="-8.689064">
        <ele>16.3</ele>
        <time>2020-09-10T07:20:33Z</time>
      </trkpt>
      <trkpt lat="42.587396" lon="-8.689085">
        <ele>16.4</ele>
        <time>2020-09-10T07:20:34Z</time>
      </trkpt>
      <trkpt lat="42.587438" lon="-8.689128">
        <ele>16.6</ele>
        <time>2020-09-10T07:20:36Z</time>
      </trkpt>
      <trkpt lat="42.587473" lon="-8.689189">
        <ele>16.9</ele>
        <time>2020-09-10T07:20:37Z</time>
      </trkpt>
      <trkpt lat="42.587506" lon="-8.689263">
        <ele>17.2</ele>
        <time>2020-09-10T07:20:39Z</time>
      </trkpt>
      <trkpt lat="42.587535" lon="-8.689341">
        <ele>17.5</ele>
        <time>2020-09-10T07:20:41Z</time>
      </trkpt>
      <trkpt lat="42.587568" lon="-8.689431">
        <ele>18.0</ele>
        <time>2020-09-10T07:20:43Z</time>
      </trkpt>
      <trkpt lat="42.587592" lon="-8.689489">
        <ele>18.2</ele>
        <time>2020-09-10T07:20:44Z</time>
      </trkpt>
      <trkpt lat="42.587628" lon="-8.689559">
        <ele>18.5</ele>
        <time>2020-09-10T07:20:46Z</time>
      </trkpt>
      <trkpt lat="42.587668" lon="-8.689626">
        <ele>18.8</ele>
        <time>2020-09-10T07:20:47Z</time>
      </trkpt>
      <trkpt lat="42.587712" lon="-8.689687">
        <ele>19.3</ele>
        <time>2020-09-10T07:20:49Z</time>
      </trkpt>
      <trkpt lat="42.587764" lon="-8.689733">
        <ele>19.7</ele>
        <time>2020-09-10T07:20:51Z</time>
      </trkpt>
      <trkpt lat="42.587823" lon="-8.689763">
        <ele>20.1</ele>
        <time>2020-09-10T07:20:52Z</time>
      </trkpt>
      <trkpt lat="42.587883" lon="-8.689774">
        <ele>20.4</ele>
        <time>2020-09-10T07:20:54Z</time>
      </trkpt>
      <trkpt lat="42.587942" lon="-8.689775">
        <ele>20.5</ele>
        <time>2020-09-10T07:20:56Z</time>
      </trkpt>
      <trkpt lat="42.588000" lon="-8.689775">
        <ele>20.6</ele>
        <time>2020-09-10T07:20:57Z</time>
      </trkpt>
      <trkpt lat="42.588058" lon="-8.689777">
        <ele>20.6</ele>
        <time>2020-09-10T07:20:59Z</time>
      </trkpt>
      <trkpt lat="42.588115" lon="-8.689780">
        <ele>20.7</ele>
        <time>2020-09-10T07:21:00Z</time>
      </trkpt>
      <trkpt lat="42.588170" lon="-8.689781">
        <ele>20.7</ele>
        <time>2020-09-10T07:21:02Z</time>
      </trkpt>
      <trkpt lat="42.588224" lon="-8.689784">
        <ele>20.5</ele>
        <time>2020-09-10T07:21:03Z</time>
      </trkpt>
      <trkpt lat="42.588279" lon="-8.689790">
        <ele>20.4</ele>
        <time>2020-09-10T07:21:05Z</time>
      </trkpt>
      <trkpt lat="42.588334" lon="-8.689809">
        <ele>20.4</ele>
        <time>2020-09-10T07:21:06Z</time>
      </trkpt>
      <trkpt lat="42.588383" lon="-8.689838">
        <ele>20.7</ele>
        <time>2020-09-10T07:21:08Z</time>
      </trkpt>
      <trkpt lat="42.588427" lon="-8.689876">
        <ele>21.1</ele>
        <time>2020-09-10T07:21:09Z</time>
      </trkpt>
      <trkpt lat="42.588465" lon="-8.689922">
        <ele>21.5</ele>
        <time>2020-09-10T07:21:10Z</time>
      </trkpt>
      <trkpt lat="42.588499" lon="-8.689968">
        <ele>21.7</ele>
        <time>2020-09-10T07:21:12Z</time>
      </trkpt>
      <trkpt lat="42.588535" lon="-8.690005">
        <ele>21.8</ele>
        <time>2020-09-10T07:21:13Z</time>
      </trkpt>
      <trkpt lat="42.588573" lon="-8.690022">
        <ele>21.5</ele>
        <time>2020-09-10T07:21:14Z</time>
      </trkpt>
      <trkpt lat="42.588617" lon="-8.690014">
        <ele>21.1</ele>
        <time>2020-09-10T07:21:15Z</time>
      </trkpt>
      <trkpt lat="42.588662" lon="-8.689994">
        <ele>20.8</ele>
        <time>2020-09-10T07:21:16Z</time>
      </trkpt>
      <trkpt lat="42.588704" lon="-8.689978">
        <ele>20.6</ele>
        <time>2020-09-10T07:21:17Z</time>
      </trkpt>
      <trkpt lat="42.588745" lon="-8.689972">
        <ele>20.4</ele>
        <time>2020-09-10T07:21:19Z</time>
      </trkpt>
      <trkpt lat="42.588791" lon="-8.689989">
        <ele>20.3</ele>
        <time>2020-09-10T07:21:20Z</time>
      </trkpt>
      <trkpt lat="42.588841" lon="-8.690020">
        <ele>20.1</ele>
        <time>2020-09-10T07:21:21Z</time>
      </trkpt>
      <trkpt lat="42.588893" lon="-8.690050">
        <ele>20.1</ele>
        <time>2020-09-10T07:21:23Z</time>
      </trkpt>
      <trkpt lat="42.588944" lon="-8.690080">
        <ele>20.1</ele>
        <time>2020-09-10T07:21:24Z</time>
      </trkpt>
      <trkpt lat="42.588996" lon="-8.690106">
        <ele>20.1</ele>
        <time>2020-09-10T07:21:26Z</time>
      </trkpt>
      <trkpt lat="42.589045" lon="-8.690127">
        <ele>20.1</ele>
        <time>2020-09-10T07:21:27Z</time>
      </trkpt>
      <trkpt lat="42.589097" lon="-8.690144">
        <ele>20.1</ele>
        <time>2020-09-10T07:21:29Z</time>
      </trkpt>
      <trkpt lat="42.589146" lon="-8.690144">
        <ele>20.2</ele>
        <time>2020-09-10T07:21:30Z</time>
      </trkpt>
      <trkpt lat="42.589191" lon="-8.690134">
        <ele>20.2</ele>
        <time>2020-09-10T07:21:31Z</time>
      </trkpt>
      <trkpt lat="42.589229" lon="-8.690112">
        <ele>20.1</ele>
        <time>2020-09-10T07:21:32Z</time>
      </trkpt>
      <trkpt lat="42.589271" lon="-8.690086">
        <ele>20.0</ele>
        <time>2020-09-10T07:21:33Z</time>
      </trkpt>
      <trkpt lat="42.589309" lon="-8.690055">
        <ele>19.9</ele>
        <time>2020-09-10T07:21:35Z</time>
      </trkpt>
      <trkpt lat="42.589354" lon="-8.690017">
        <ele>19.9</ele>
        <time>2020-09-10T07:21:36Z</time>
      </trkpt>
      <trkpt lat="42.589403" lon="-8.689975">
        <ele>19.9</ele>
        <time>2020-09-10T07:21:38Z</time>
      </trkpt>
      <trkpt lat="42.589456" lon="-8.689927">
        <ele>19.9</ele>
        <time>2020-09-10T07:21:39Z</time>
      </trkpt>
      <trkpt lat="42.589506" lon="-8.689875">
        <ele>19.9</ele>
        <time>2020-09-10T07:21:41Z</time>
      </trkpt>
      <trkpt lat="42.589553" lon="-8.689808">
        <ele>20.0</ele>
        <time>2020-09-10T07:21:43Z</time>
      </trkpt>
      <trkpt lat="42.589593" lon="-8.689738">
        <ele>20.1</ele>
        <time>2020-09-10T07:21:45Z</time>
      </trkpt>
      <trkpt lat="42.589627" lon="-8.689664">
        <ele>20.2</ele>
        <time>2020-09-10T07:21:46Z</time>
      </trkpt>
      <trkpt lat="42.589657" lon="-8.689587">
        <ele>20.4</ele>
        <time>2020-09-10T07:21:48Z</time>
      </trkpt>
      <trkpt lat="42.589688" lon="-8.689511">
        <ele>20.4</ele>
        <time>2020-09-10T07:21:50Z</time>
      </trkpt>
      <trkpt lat="42.589715" lon="-8.689435">
        <ele>20.3</ele>
        <time>2020-09-10T07:21:51Z</time>
      </trkpt>
      <trkpt lat="42.589740" lon="-8.689354">
        <ele>20.1</ele>
        <time>2020-09-10T07:21:53Z</time>
      </trkpt>
      <trkpt lat="42.589762" lon="-8.689272">
        <ele>20.1</ele>
        <time>2020-09-10T07:21:55Z</time>
      </trkpt>
      <trkpt lat="42.589783" lon="-8.689191">
        <ele>20.0</ele>
        <time>2020-09-10T07:21:56Z</time>
      </trkpt>
      <trkpt lat="42.589802" lon="-8.689110">
        <ele>20.0</ele>
        <time>2020-09-10T07:21:58Z</time>
      </trkpt>
      <trkpt lat="42.589822" lon="-8.689029">
        <ele>20.1</ele>
        <time>2020-09-10T07:22:00Z</time>
      </trkpt>
      <trkpt lat="42.589843" lon="-8.688943">
        <ele>20.1</ele>
        <time>2020-09-10T07:22:02Z</time>
      </trkpt>
      <trkpt lat="42.589862" lon="-8.688858">
        <ele>20.1</ele>
        <time>2020-09-10T07:22:03Z</time>
      </trkpt>
      <trkpt lat="42.589881" lon="-8.688771">
        <ele>19.9</ele>
        <time>2020-09-10T07:22:05Z</time>
      </trkpt>
      <trkpt lat="42.589901" lon="-8.688682">
        <ele>19.8</ele>
        <time>2020-09-10T07:22:07Z</time>
      </trkpt>
      <trkpt lat="42.589921" lon="-8.688593">
        <ele>19.6</ele>
        <time>2020-09-10T07:22:09Z</time>
      </trkpt>
      <trkpt lat="42.589940" lon="-8.688504">
        <ele>19.5</ele>
        <time>2020-09-10T07:22:11Z</time>
      </trkpt>
      <trkpt lat="42.589962" lon="-8.688413">
        <ele>19.4</ele>
        <time>2020-09-10T07:22:12Z</time>
      </trkpt>
      <trkpt lat="42.589988" lon="-8.688324">
        <ele>19.2</ele>
        <time>2020-09-10T07:22:14Z</time>
      </trkpt>
      <trkpt lat="42.590019" lon="-8.688237">
        <ele>19.0</ele>
        <time>2020-09-10T07:22:16Z</time>
      </trkpt>
      <trkpt lat="42.590053" lon="-8.688151">
        <ele>18.8</ele>
        <time>2020-09-10T07:22:18Z</time>
      </trkpt>
      <trkpt lat="42.590088" lon="-8.688067">
        <ele>18.6</ele>
        <time>2020-09-10T07:22:20Z</time>
      </trkpt>
      <trkpt lat="42.590120" lon="-8.687987">
        <ele>18.3</ele>
        <time>2020-09-10T07:22:22Z</time>
      </trkpt>
      <trkpt lat="42.590148" lon="-8.687907">
        <ele>18.1</ele>
        <time>2020-09-10T07:22:24Z</time>
      </trkpt>
      <trkpt lat="42.590168" lon="-8.687826">
        <ele>18.1</ele>
        <time>2020-09-10T07:22:25Z</time>
      </trkpt>
      <trkpt lat="42.590179" lon="-8.687742">
        <ele>18.0</ele>
        <time>2020-09-10T07:22:27Z</time>
      </trkpt>
      <trkpt lat="42.590175" lon="-8.687658">
        <ele>17.9</ele>
        <time>2020-09-10T07:22:29Z</time>
      </trkpt>
      <trkpt lat="42.590159" lon="-8.687577">
        <ele>18.0</ele>
        <time>2020-09-10T07:22:30Z</time>
      </trkpt>
      <trkpt lat="42.590131" lon="-8.687500">
        <ele>18.0</ele>
        <time>2020-09-10T07:22:32Z</time>
      </trkpt>
      <trkpt lat="42.590101" lon="-8.687426">
        <ele>18.1</ele>
        <time>2020-09-10T07:22:34Z</time>
      </trkpt>
      <trkpt lat="42.590069" lon="-8.687351">
        <ele>18.2</ele>
        <time>2020-09-10T07:22:35Z</time>
      </trkpt>
      <trkpt lat="42.590037" lon="-8.687277">
        <ele>18.3</ele>
        <time>2020-09-10T07:22:37Z</time>
      </trkpt>
      <trkpt lat="42.590004" lon="-8.687200">
        <ele>18.5</ele>
        <time>2020-09-10T07:22:39Z</time>
      </trkpt>
      <trkpt lat="42.589976" lon="-8.687124">
        <ele>18.8</ele>
        <time>2020-09-10T07:22:40Z</time>
      </trkpt>
      <trkpt lat="42.589947" lon="-8.687052">
        <ele>19.1</ele>
        <time>2020-09-10T07:22:42Z</time>
      </trkpt>
      <trkpt lat="42.589919" lon="-8.686985">
        <ele>19.5</ele>
        <time>2020-09-10T07:22:44Z</time>
      </trkpt>
      <trkpt lat="42.589887" lon="-8.686920">
        <ele>19.8</ele>
        <time>2020-09-10T07:22:45Z</time>
      </trkpt>
      <trkpt lat="42.589858" lon="-8.686858">
        <ele>20.2</ele>
        <time>2020-09-10T07:22:46Z</time>
      </trkpt>
      <trkpt lat="42.589829" lon="-8.686795">
        <ele>20.7</ele>
        <time>2020-09-10T07:22:48Z</time>
      </trkpt>
      <trkpt lat="42.589804" lon="-8.686738">
        <ele>21.5</ele>
        <time>2020-09-10T07:22:49Z</time>
      </trkpt>
      <trkpt lat="42.589779" lon="-8.686686">
        <ele>22.3</ele>
        <time>2020-09-10T07:22:50Z</time>
      </trkpt>
      <trkpt lat="42.589754" lon="-8.686642">
        <ele>23.0</ele>
        <time>2020-09-10T07:22:52Z</time>
      </trkpt>
      <trkpt lat="42.589726" lon="-8.686611">
        <ele>23.5</ele>
        <time>2020-09-10T07:22:53Z</time>
      </trkpt>
      <trkpt lat="42.589693" lon="-8.686593">
        <ele>23.9</ele>
        <time>2020-09-10T07:22:53Z</time>
      </trkpt>
      <trkpt lat="42.589657" lon="-8.686584">
        <ele>24.2</ele>
        <time>2020-09-10T07:22:54Z</time>
      </trkpt>
      <trkpt lat="42.589617" lon="-8.686577">
        <ele>24.5</ele>
        <time>2020-09-10T07:22:56Z</time>
      </trkpt>
      <trkpt lat="42.589579" lon="-8.686571">
        <ele>24.7</ele>
        <time>2020-09-10T07:22:57Z</time>
      </trkpt>
      <trkpt lat="42.589542" lon="-8.686565">
        <ele>25.0</ele>
        <time>2020-09-10T07:22:58Z</time>
      </trkpt>
      <trkpt lat="42.589506" lon="-8.686555">
        <ele>25.4</ele>
        <time>2020-09-10T07:22:59Z</time>
      </trkpt>
      <trkpt lat="42.589470" lon="-8.686545">
        <ele>25.6</ele>
        <time>2020-09-10T07:23:00Z</time>
      </trkpt>
      <trkpt lat="42.589435" lon="-8.686531">
        <ele>25.9</ele>
        <time>2020-09-10T07:23:00Z</time>
      </trkpt>
      <trkpt lat="42.589400" lon="-8.686517">
        <ele>26.3</ele>
        <time>2020-09-10T07:23:01Z</time>
      </trkpt>
      <trkpt lat="42.589371" lon="-8.686505">
        <ele>26.6</ele>
        <time>2020-09-10T07:23:02Z</time>
      </trkpt>
      <trkpt lat="42.589341" lon="-8.686494">
        <ele>26.8</ele>
        <time>2020-09-10T07:23:03Z</time>
      </trkpt>
      <trkpt lat="42.589310" lon="-8.686481">
        <ele>27.1</ele>
        <time>2020-09-10T07:23:04Z</time>
      </trkpt>
      <trkpt lat="42.589279" lon="-8.686471">
        <ele>27.3</ele>
        <time>2020-09-10T07:23:05Z</time>
      </trkpt>
      <trkpt lat="42.589245" lon="-8.686461">
        <ele>27.5</ele>
        <time>2020-09-10T07:23:06Z</time>
      </trkpt>
      <trkpt lat="42.589209" lon="-8.686449">
        <ele>27.7</ele>
        <time>2020-09-10T07:23:07Z</time>
      </trkpt>
      <trkpt lat="42.589171" lon="-8.686436">
        <ele>27.9</ele>
        <time>2020-09-10T07:23:08Z</time>
      </trkpt>
      <trkpt lat="42.589130" lon="-8.686424">
        <ele>28.1</ele>
        <time>2020-09-10T07:23:09Z</time>
      </trkpt>
      <trkpt lat="42.589091" lon="-8.686409">
        <ele>28.4</ele>
        <time>2020-09-10T07:23:10Z</time>
      </trkpt>
      <trkpt lat="42.589055" lon="-8.686395">
        <ele>28.6</ele>
        <time>2020-09-10T07:23:11Z</time>
      </trkpt>
      <trkpt lat="42.589017" lon="-8.686381">
        <ele>28.8</ele>
        <time>2020-09-10T07:23:12Z</time>
      </trkpt>
      <trkpt lat="42.588980" lon="-8.686365">
        <ele>29.1</ele>
        <time>2020-09-10T07:23:13Z</time>
      </trkpt>
      <trkpt lat="42.588939" lon="-8.686350">
        <ele>29.3</ele>
        <time>2020-09-10T07:23:14Z</time>
      </trkpt>
      <trkpt lat="42.588897" lon="-8.686340">
        <ele>29.4</ele>
        <time>2020-09-10T07:23:15Z</time>
      </trkpt>
      <trkpt lat="42.588852" lon="-8.686335">
        <ele>29.4</ele>
        <time>2020-09-10T07:23:17Z</time>
      </trkpt>
      <trkpt lat="42.588808" lon="-8.686332">
        <ele>29.4</ele>
        <time>2020-09-10T07:23:18Z</time>
      </trkpt>
      <trkpt lat="42.588764" lon="-8.686328">
        <ele>29.4</ele>
        <time>2020-09-10T07:23:19Z</time>
      </trkpt>
      <trkpt lat="42.588720" lon="-8.686325">
        <ele>29.5</ele>
        <time>2020-09-10T07:23:20Z</time>
      </trkpt>
      <trkpt lat="42.588677" lon="-8.686320">
        <ele>29.5</ele>
        <time>2020-09-10T07:23:21Z</time>
      </trkpt>
      <trkpt lat="42.588634" lon="-8.686315">
        <ele>29.6</ele>
        <time>2020-09-10T07:23:22Z</time>
      </trkpt>
      <trkpt lat="42.588594" lon="-8.686304">
        <ele>29.7</ele>
        <time>2020-09-10T07:23:23Z</time>
      </trkpt>
      <trkpt lat="42.588560" lon="-8.686287">
        <ele>29.7</ele>
        <time>2020-09-10T07:23:24Z</time>
      </trkpt>
      <trkpt lat="42.588530" lon="-8.686259">
        <ele>29.9</ele>
        <time>2020-09-10T07:23:25Z</time>
      </trkpt>
      <trkpt lat="42.588506" lon="-8.686224">
        <ele>30.2</ele>
        <time>2020-09-10T07:23:26Z</time>
      </trkpt>
      <trkpt lat="42.588488" lon="-8.686182">
        <ele>30.6</ele>
        <time>2020-09-10T07:23:27Z</time>
      </trkpt>
      <trkpt lat="42.588470" lon="-8.686137">
        <ele>31.0</ele>
        <time>2020-09-10T07:23:28Z</time>
      </trkpt>
      <trkpt lat="42.588456" lon="-8.686095">
        <ele>31.3</ele>
        <time>2020-09-10T07:23:29Z</time>
      </trkpt>
      <trkpt lat="42.588445" lon="-8.686054">
        <ele>31.7</ele>
        <time>2020-09-10T07:23:30Z</time>
      </trkpt>
      <trkpt lat="42.588433" lon="-8.686016">
        <ele>32.0</ele>
        <time>2020-09-10T07:23:31Z</time>
      </trkpt>
      <trkpt lat="42.588419" lon="-8.685978">
        <ele>32.2</ele>
        <time>2020-09-10T07:23:32Z</time>
      </trkpt>
      <trkpt lat="42.588405" lon="-8.685942">
        <ele>32.4</ele>
        <time>2020-09-10T07:23:32Z</time>
      </trkpt>
      <trkpt lat="42.588394" lon="-8.685908">
        <ele>32.6</ele>
        <time>2020-09-10T07:23:33Z</time>
      </trkpt>
      <trkpt lat="42.588384" lon="-8.685879">
        <ele>32.8</ele>
        <time>2020-09-10T07:23:34Z</time>
      </trkpt>
      <trkpt lat="42.588374" lon="-8.685855">
        <ele>33.0</ele>
        <time>2020-09-10T07:23:34Z</time>
      </trkpt>
      <trkpt lat="42.588365" lon="-8.685836">
        <ele>33.1</ele>
        <time>2020-09-10T07:23:35Z</time>
      </trkpt>
      <trkpt lat="42.588354" lon="-8.685816">
        <ele>33.2</ele>
        <time>2020-09-10T07:23:35Z</time>
      </trkpt>
      <trkpt lat="42.588340" lon="-8.685792">
        <ele>33.4</ele>
        <time>2020-09-10T07:23:36Z</time>
      </trkpt>
      <trkpt lat="42.588318" lon="-8.685765">
        <ele>33.5</ele>
        <time>2020-09-10T07:23:37Z</time>
      </trkpt>
      <trkpt lat="42.588284" lon="-8.685747">
        <ele>33.4</ele>
        <time>2020-09-10T07:23:38Z</time>
      </trkpt>
      <trkpt lat="42.588236" lon="-8.685740">
        <ele>33.0</ele>
        <time>2020-09-10T07:23:39Z</time>
      </trkpt>
      <trkpt lat="42.588179" lon="-8.685741">
        <ele>32.4</ele>
        <time>2020-09-10T07:23:40Z</time>
      </trkpt>
      <trkpt lat="42.588115" lon="-8.685749">
        <ele>31.8</ele>
        <time>2020-09-10T07:23:42Z</time>
      </trkpt>
      <trkpt lat="42.588045" lon="-8.685766">
        <ele>31.2</ele>
        <time>2020-09-10T07:23:44Z</time>
      </trkpt>
      <trkpt lat="42.587980" lon="-8.685794">
        <ele>30.5</ele>
        <time>2020-09-10T07:23:46Z</time>
      </trkpt>
      <trkpt lat="42.587926" lon="-8.685826">
        <ele>29.8</ele>
        <time>2020-09-10T07:23:47Z</time>
      </trkpt>
      <trkpt lat="42.587875" lon="-8.685861">
        <ele>29.0</ele>
        <time>2020-09-10T07:23:49Z</time>
      </trkpt>
      <trkpt lat="42.587822" lon="-8.685893">
        <ele>28.3</ele>
        <time>2020-09-10T07:23:51Z</time>
      </trkpt>
      <trkpt lat="42.587769" lon="-8.685922">
        <ele>27.7</ele>
        <time>2020-09-10T07:23:52Z</time>
      </trkpt>
      <trkpt lat="42.587727" lon="-8.685956">
        <ele>27.0</ele>
        <time>2020-09-10T07:23:53Z</time>
      </trkpt>
      <trkpt lat="42.587693" lon="-8.685992">
        <ele>26.3</ele>
        <time>2020-09-10T07:23:55Z</time>
      </trkpt>
      <trkpt lat="42.587650" lon="-8.686034">
        <ele>25.5</ele>
        <time>2020-09-10T07:23:56Z</time>
      </trkpt>
      <trkpt lat="42.587619" lon="-8.686052">
        <ele>25.0</ele>
        <time>2020-09-10T07:23:57Z</time>
      </trkpt>
      <trkpt lat="42.587574" lon="-8.686055">
        <ele>24.6</ele>
        <time>2020-09-10T07:23:58Z</time>
      </trkpt>
      <trkpt lat="42.587528" lon="-8.686050">
        <ele>24.3</ele>
        <time>2020-09-10T07:23:59Z</time>
      </trkpt>
      <trkpt lat="42.587483" lon="-8.686042">
        <ele>24.1</ele>
        <time>2020-09-10T07:24:00Z</time>
      </trkpt>
      <trkpt lat="42.587439" lon="-8.686034">
        <ele>23.9</ele>
        <time>2020-09-10T07:24:02Z</time>
      </trkpt>
      <trkpt lat="42.587396" lon="-8.686026">
        <ele>23.6</ele>
        <time>2020-09-10T07:24:03Z</time>
      </trkpt>
      <trkpt lat="42.587346" lon="-8.686017">
        <ele>23.2</ele>
        <time>2020-09-10T07:24:04Z</time>
      </trkpt>
      <trkpt lat="42.587291" lon="-8.686010">
        <ele>22.8</ele>
        <time>2020-09-10T07:24:06Z</time>
      </trkpt>
      <trkpt lat="42.587231" lon="-8.685998">
        <ele>22.4</ele>
        <time>2020-09-10T07:24:07Z</time>
      </trkpt>
      <trkpt lat="42.587165" lon="-8.685981">
        <ele>21.9</ele>
        <time>2020-09-10T07:24:09Z</time>
      </trkpt>
      <trkpt lat="42.587091" lon="-8.685962">
        <ele>21.4</ele>
        <time>2020-09-10T07:24:11Z</time>
      </trkpt>
      <trkpt lat="42.587029" lon="-8.685940">
        <ele>21.0</ele>
        <time>2020-09-10T07:24:13Z</time>
      </trkpt>
      <trkpt lat="42.586965" lon="-8.685909">
        <ele>20.8</ele>
        <time>2020-09-10T07:24:15Z</time>
      </trkpt>
      <trkpt lat="42.586899" lon="-8.685873">
        <ele>20.5</ele>
        <time>2020-09-10T07:24:16Z</time>
      </trkpt>
      <trkpt lat="42.586833" lon="-8.685833">
        <ele>20.4</ele>
        <time>2020-09-10T07:24:18Z</time>
      </trkpt>
      <trkpt lat="42.586771" lon="-8.685791">
        <ele>20.3</ele>
        <time>2020-09-10T07:24:20Z</time>
      </trkpt>
      <trkpt lat="42.586713" lon="-8.685746">
        <ele>20.2</ele>
        <time>2020-09-10T07:24:22Z</time>
      </trkpt>
      <trkpt lat="42.586647" lon="-8.685692">
        <ele>20.2</ele>
        <time>2020-09-10T07:24:24Z</time>
      </trkpt>
      <trkpt lat="42.586585" lon="-8.685635">
        <ele>20.1</ele>
        <time>2020-09-10T07:24:26Z</time>
      </trkpt>
      <trkpt lat="42.586527" lon="-8.685576">
        <ele>20.1</ele>
        <time>2020-09-10T07:24:28Z</time>
      </trkpt>
      <trkpt lat="42.586468" lon="-8.685519">
        <ele>20.2</ele>
        <time>2020-09-10T07:24:30Z</time>
      </trkpt>
      <trkpt lat="42.586406" lon="-8.685461">
        <ele>20.3</ele>
        <time>2020-09-10T07:24:32Z</time>
      </trkpt>
      <trkpt lat="42.586358" lon="-8.685407">
        <ele>20.3</ele>
        <time>2020-09-10T07:24:34Z</time>
      </trkpt>
      <trkpt lat="42.586300" lon="-8.685353">
        <ele>20.4</ele>
        <time>2020-09-10T07:24:36Z</time>
      </trkpt>
      <trkpt lat="42.586243" lon="-8.685299">
        <ele>20.4</ele>
        <time>2020-09-10T07:24:37Z</time>
      </trkpt>
      <trkpt lat="42.586176" lon="-8.685247">
        <ele>20.3</ele>
        <time>2020-09-10T07:24:39Z</time>
      </trkpt>
      <trkpt lat="42.586103" lon="-8.685196">
        <ele>19.9</ele>
        <time>2020-09-10T07:24:42Z</time>
      </trkpt>
      <trkpt lat="42.586027" lon="-8.685140">
        <ele>19.7</ele>
        <time>2020-09-10T07:24:44Z</time>
      </trkpt>
      <trkpt lat="42.585958" lon="-8.685108">
        <ele>19.3</ele>
        <time>2020-09-10T07:24:46Z</time>
      </trkpt>
      <trkpt lat="42.585883" lon="-8.685063">
        <ele>19.0</ele>
        <time>2020-09-10T07:24:48Z</time>
      </trkpt>
      <trkpt lat="42.585796" lon="-8.685032">
        <ele>18.6</ele>
        <time>2020-09-10T07:24:50Z</time>
      </trkpt>
      <trkpt lat="42.585715" lon="-8.685015">
        <ele>18.3</ele>
        <time>2020-09-10T07:24:53Z</time>
      </trkpt>
      <trkpt lat="42.585650" lon="-8.685023">
        <ele>17.9</ele>
        <time>2020-09-10T07:24:54Z</time>
      </trkpt>
      <trkpt lat="42.585584" lon="-8.685037">
        <ele>17.5</ele>
        <time>2020-09-10T07:24:56Z</time>
      </trkpt>
      <trkpt lat="42.585512" lon="-8.685041">
        <ele>17.2</ele>
        <time>2020-09-10T07:24:58Z</time>
      </trkpt>
      <trkpt lat="42.585441" lon="-8.685043">
        <ele>16.8</ele>
        <time>2020-09-10T07:25:00Z</time>
      </trkpt>
      <trkpt lat="42.585368" lon="-8.685036">
        <ele>16.6</ele>
        <time>2020-09-10T07:25:02Z</time>
      </trkpt>
      <trkpt lat="42.585302" lon="-8.685014">
        <ele>16.5</ele>
        <time>2020-09-10T07:25:04Z</time>
      </trkpt>
      <trkpt lat="42.585238" lon="-8.684991">
        <ele>16.4</ele>
        <time>2020-09-10T07:25:06Z</time>
      </trkpt>
      <trkpt lat="42.585167" lon="-8.684964">
        <ele>16.5</ele>
        <time>2020-09-10T07:25:07Z</time>
      </trkpt>
      <trkpt lat="42.585102" lon="-8.684937">
        <ele>16.5</ele>
        <time>2020-09-10T07:25:09Z</time>
      </trkpt>
      <trkpt lat="42.585035" lon="-8.684908">
        <ele>16.5</ele>
        <time>2020-09-10T07:25:11Z</time>
      </trkpt>
      <trkpt lat="42.584963" lon="-8.684872">
        <ele>16.6</ele>
        <time>2020-09-10T07:25:13Z</time>
      </trkpt>
      <trkpt lat="42.584888" lon="-8.684840">
        <ele>16.7</ele>
        <time>2020-09-10T07:25:15Z</time>
      </trkpt>
      <trkpt lat="42.584822" lon="-8.684816">
        <ele>16.8</ele>
        <time>2020-09-10T07:25:17Z</time>
      </trkpt>
      <trkpt lat="42.584761" lon="-8.684790">
        <ele>17.0</ele>
        <time>2020-09-10T07:25:19Z</time>
      </trkpt>
      <trkpt lat="42.584699" lon="-8.684755">
        <ele>17.2</ele>
        <time>2020-09-10T07:25:21Z</time>
      </trkpt>
      <trkpt lat="42.584631" lon="-8.684717">
        <ele>17.2</ele>
        <time>2020-09-10T07:25:23Z</time>
      </trkpt>
      <trkpt lat="42.584575" lon="-8.684684">
        <ele>17.4</ele>
        <time>2020-09-10T07:25:24Z</time>
      </trkpt>
      <trkpt lat="42.584524" lon="-8.684649">
        <ele>17.5</ele>
        <time>2020-09-10T07:25:26Z</time>
      </trkpt>
      <trkpt lat="42.584475" lon="-8.684614">
        <ele>17.7</ele>
        <time>2020-09-10T07:25:27Z</time>
      </trkpt>
      <trkpt lat="42.584420" lon="-8.684572">
        <ele>17.8</ele>
        <time>2020-09-10T07:25:29Z</time>
      </trkpt>
      <trkpt lat="42.584364" lon="-8.684530">
        <ele>17.9</ele>
        <time>2020-09-10T07:25:31Z</time>
      </trkpt>
      <trkpt lat="42.584312" lon="-8.684501">
        <ele>17.8</ele>
        <time>2020-09-10T07:25:32Z</time>
      </trkpt>
      <trkpt lat="42.584270" lon="-8.684459">
        <ele>18.0</ele>
        <time>2020-09-10T07:25:34Z</time>
      </trkpt>
      <trkpt lat="42.584233" lon="-8.684412">
        <ele>18.3</ele>
        <time>2020-09-10T07:25:35Z</time>
      </trkpt>
      <trkpt lat="42.584197" lon="-8.684363">
        <ele>18.6</ele>
        <time>2020-09-10T07:25:36Z</time>
      </trkpt>
      <trkpt lat="42.584170" lon="-8.684310">
        <ele>18.9</ele>
        <time>2020-09-10T07:25:37Z</time>
      </trkpt>
      <trkpt lat="42.584147" lon="-8.684257">
        <ele>19.2</ele>
        <time>2020-09-10T07:25:39Z</time>
      </trkpt>
      <trkpt lat="42.584126" lon="-8.684205">
        <ele>19.9</ele>
        <time>2020-09-10T07:25:40Z</time>
      </trkpt>
      <trkpt lat="42.584106" lon="-8.684157">
        <ele>20.4</ele>
        <time>2020-09-10T07:25:41Z</time>
      </trkpt>
      <trkpt lat="42.584083" lon="-8.684109">
        <ele>20.9</ele>
        <time>2020-09-10T07:25:42Z</time>
      </trkpt>
      <trkpt lat="42.584067" lon="-8.684057">
        <ele>21.4</ele>
        <time>2020-09-10T07:25:43Z</time>
      </trkpt>
      <trkpt lat="42.584054" lon="-8.684004">
        <ele>22.2</ele>
        <time>2020-09-10T07:25:44Z</time>
      </trkpt>
      <trkpt lat="42.584032" lon="-8.683947">
        <ele>22.8</ele>
        <time>2020-09-10T07:25:46Z</time>
      </trkpt>
      <trkpt lat="42.584002" lon="-8.683894">
        <ele>23.1</ele>
        <time>2020-09-10T07:25:47Z</time>
      </trkpt>
      <trkpt lat="42.583977" lon="-8.683847">
        <ele>23.4</ele>
        <time>2020-09-10T07:25:48Z</time>
      </trkpt>
      <trkpt lat="42.583946" lon="-8.683806">
        <ele>23.2</ele>
        <time>2020-09-10T07:25:49Z</time>
      </trkpt>
      <trkpt lat="42.583922" lon="-8.683769">
        <ele>23.1</ele>
        <time>2020-09-10T07:25:50Z</time>
      </trkpt>
      <trkpt lat="42.583903" lon="-8.683728">
        <ele>23.2</ele>
        <time>2020-09-10T07:25:51Z</time>
      </trkpt>
      <trkpt lat="42.583891" lon="-8.683682">
        <ele>23.5</ele>
        <time>2020-09-10T07:25:52Z</time>
      </trkpt>
      <trkpt lat="42.583877" lon="-8.683636">
        <ele>23.7</ele>
        <time>2020-09-10T07:25:53Z</time>
      </trkpt>
      <trkpt lat="42.583862" lon="-8.683586">
        <ele>23.9</ele>
        <time>2020-09-10T07:25:54Z</time>
      </trkpt>
      <trkpt lat="42.583861" lon="-8.683545">
        <ele>24.5</ele>
        <time>2020-09-10T07:25:55Z</time>
      </trkpt>
      <trkpt lat="42.583854" lon="-8.683496">
        <ele>24.9</ele>
        <time>2020-09-10T07:25:56Z</time>
      </trkpt>
      <trkpt lat="42.583849" lon="-8.683455">
        <ele>25.4</ele>
        <time>2020-09-10T07:25:57Z</time>
      </trkpt>
      <trkpt lat="42.583839" lon="-8.683408">
        <ele>25.7</ele>
        <time>2020-09-10T07:25:58Z</time>
      </trkpt>
      <trkpt lat="42.583828" lon="-8.683359">
        <ele>25.9</ele>
        <time>2020-09-10T07:25:59Z</time>
      </trkpt>
      <trkpt lat="42.583813" lon="-8.683304">
        <ele>26.1</ele>
        <time>2020-09-10T07:26:00Z</time>
      </trkpt>
      <trkpt lat="42.583790" lon="-8.683240">
        <ele>25.9</ele>
        <time>2020-09-10T07:26:01Z</time>
      </trkpt>
      <trkpt lat="42.583761" lon="-8.683169">
        <ele>25.5</ele>
        <time>2020-09-10T07:26:03Z</time>
      </trkpt>
      <trkpt lat="42.583737" lon="-8.683093">
        <ele>25.5</ele>
        <time>2020-09-10T07:26:04Z</time>
      </trkpt>
      <trkpt lat="42.583710" lon="-8.683011">
        <ele>25.3</ele>
        <time>2020-09-10T07:26:06Z</time>
      </trkpt>
      <trkpt lat="42.583682" lon="-8.682930">
        <ele>25.0</ele>
        <time>2020-09-10T07:26:08Z</time>
      </trkpt>
      <trkpt lat="42.583661" lon="-8.682854">
        <ele>24.8</ele>
        <time>2020-09-10T07:26:10Z</time>
      </trkpt>
      <trkpt lat="42.583633" lon="-8.682775">
        <ele>24.1</ele>
        <time>2020-09-10T07:26:11Z</time>
      </trkpt>
      <trkpt lat="42.583610" lon="-8.682695">
        <ele>23.5</ele>
        <time>2020-09-10T07:26:13Z</time>
      </trkpt>
      <trkpt lat="42.583586" lon="-8.682613">
        <ele>22.6</ele>
        <time>2020-09-10T07:26:15Z</time>
      </trkpt>
      <trkpt lat="42.583572" lon="-8.682530">
        <ele>22.0</ele>
        <time>2020-09-10T07:26:16Z</time>
      </trkpt>
      <trkpt lat="42.583572" lon="-8.682447">
        <ele>22.0</ele>
        <time>2020-09-10T07:26:18Z</time>
      </trkpt>
      <trkpt lat="42.583585" lon="-8.682366">
        <ele>22.4</ele>
        <time>2020-09-10T07:26:20Z</time>
      </trkpt>
      <trkpt lat="42.583601" lon="-8.682290">
        <ele>22.9</ele>
        <time>2020-09-10T07:26:21Z</time>
      </trkpt>
      <trkpt lat="42.583623" lon="-8.682220">
        <ele>23.6</ele>
        <time>2020-09-10T07:26:23Z</time>
      </trkpt>
      <trkpt lat="42.583653" lon="-8.682152">
        <ele>24.4</ele>
        <time>2020-09-10T07:26:24Z</time>
      </trkpt>
      <trkpt lat="42.583674" lon="-8.682090">
        <ele>24.8</ele>
        <time>2020-09-10T07:26:26Z</time>
      </trkpt>
      <trkpt lat="42.583685" lon="-8.682035">
        <ele>24.8</ele>
        <time>2020-09-10T07:26:27Z</time>
      </trkpt>
      <trkpt lat="42.583699" lon="-8.681990">
        <ele>25.0</ele>
        <time>2020-09-10T07:26:28Z</time>
      </trkpt>
      <trkpt lat="42.583713" lon="-8.681947">
        <ele>25.2</ele>
        <time>2020-09-10T07:26:29Z</time>
      </trkpt>
      <trkpt lat="42.583729" lon="-8.681902">
        <ele>25.4</ele>
        <time>2020-09-10T07:26:30Z</time>
      </trkpt>
      <trkpt lat="42.583746" lon="-8.681857">
        <ele>25.6</ele>
        <time>2020-09-10T07:26:31Z</time>
      </trkpt>
      <trkpt lat="42.583759" lon="-8.681811">
        <ele>25.7</ele>
        <time>2020-09-10T07:26:31Z</time>
      </trkpt>
      <trkpt lat="42.583770" lon="-8.681762">
        <ele>25.7</ele>
        <time>2020-09-10T07:26:32Z</time>
      </trkpt>
      <trkpt lat="42.583780" lon="-8.681714">
        <ele>25.7</ele>
        <time>2020-09-10T07:26:33Z</time>
      </trkpt>
      <trkpt lat="42.583795" lon="-8.681664">
        <ele>25.8</ele>
        <time>2020-09-10T07:26:35Z</time>
      </trkpt>
      <trkpt lat="42.583825" lon="-8.681625">
        <ele>26.6</ele>
        <time>2020-09-10T07:26:36Z</time>
      </trkpt>
      <trkpt lat="42.583856" lon="-8.681594">
        <ele>27.5</ele>
        <time>2020-09-10T07:26:37Z</time>
      </trkpt>
      <trkpt lat="42.583883" lon="-8.681559">
        <ele>28.0</ele>
        <time>2020-09-10T07:26:38Z</time>
      </trkpt>
      <trkpt lat="42.583902" lon="-8.681517">
        <ele>28.2</ele>
        <time>2020-09-10T07:26:39Z</time>
      </trkpt>
      <trkpt lat="42.583918" lon="-8.681469">
        <ele>28.2</ele>
        <time>2020-09-10T07:26:40Z</time>
      </trkpt>
      <trkpt lat="42.583933" lon="-8.681432">
        <ele>28.2</ele>
        <time>2020-09-10T07:26:40Z</time>
      </trkpt>
      <trkpt lat="42.583956" lon="-8.681402">
        <ele>28.5</ele>
        <time>2020-09-10T07:26:41Z</time>
      </trkpt>
      <trkpt lat="42.583978" lon="-8.681366">
        <ele>28.7</ele>
        <time>2020-09-10T07:26:42Z</time>
      </trkpt>
      <trkpt lat="42.583998" lon="-8.681321">
        <ele>28.7</ele>
        <time>2020-09-10T07:26:43Z</time>
      </trkpt>
      <trkpt lat="42.584016" lon="-8.681277">
        <ele>28.8</ele>
        <time>2020-09-10T07:26:44Z</time>
      </trkpt>
      <trkpt lat="42.584042" lon="-8.681236">
        <ele>29.2</ele>
        <time>2020-09-10T07:26:45Z</time>
      </trkpt>
      <trkpt lat="42.584066" lon="-8.681187">
        <ele>29.4</ele>
        <time>2020-09-10T07:26:46Z</time>
      </trkpt>
      <trkpt lat="42.584093" lon="-8.681146">
        <ele>29.8</ele>
        <time>2020-09-10T07:26:48Z</time>
      </trkpt>
      <trkpt lat="42.584112" lon="-8.681100">
        <ele>29.9</ele>
        <time>2020-09-10T07:26:49Z</time>
      </trkpt>
      <trkpt lat="42.584135" lon="-8.681061">
        <ele>30.1</ele>
        <time>2020-09-10T07:26:50Z</time>
      </trkpt>
      <trkpt lat="42.584158" lon="-8.681025">
        <ele>30.4</ele>
        <time>2020-09-10T07:26:51Z</time>
      </trkpt>
      <trkpt lat="42.584178" lon="-8.680995">
        <ele>30.8</ele>
        <time>2020-09-10T07:26:51Z</time>
      </trkpt>
      <trkpt lat="42.584190" lon="-8.680954">
        <ele>30.8</ele>
        <time>2020-09-10T07:26:52Z</time>
      </trkpt>
      <trkpt lat="42.584206" lon="-8.680912">
        <ele>30.9</ele>
        <time>2020-09-10T07:26:53Z</time>
      </trkpt>
      <trkpt lat="42.584227" lon="-8.680876">
        <ele>31.2</ele>
        <time>2020-09-10T07:26:54Z</time>
      </trkpt>
      <trkpt lat="42.584245" lon="-8.680837">
        <ele>31.5</ele>
        <time>2020-09-10T07:26:55Z</time>
      </trkpt>
      <trkpt lat="42.584266" lon="-8.680801">
        <ele>31.8</ele>
        <time>2020-09-10T07:26:56Z</time>
      </trkpt>
      <trkpt lat="42.584289" lon="-8.680765">
        <ele>32.2</ele>
        <time>2020-09-10T07:26:57Z</time>
      </trkpt>
      <trkpt lat="42.584317" lon="-8.680722">
        <ele>32.5</ele>
        <time>2020-09-10T07:26:58Z</time>
      </trkpt>
      <trkpt lat="42.584340" lon="-8.680667">
        <ele>32.6</ele>
        <time>2020-09-10T07:26:59Z</time>
      </trkpt>
      <trkpt lat="42.584371" lon="-8.680621">
        <ele>32.9</ele>
        <time>2020-09-10T07:27:00Z</time>
      </trkpt>
      <trkpt lat="42.584394" lon="-8.680570">
        <ele>32.9</ele>
        <time>2020-09-10T07:27:02Z</time>
      </trkpt>
      <trkpt lat="42.584422" lon="-8.680516">
        <ele>32.8</ele>
        <time>2020-09-10T07:27:03Z</time>
      </trkpt>
      <trkpt lat="42.584440" lon="-8.680479">
        <ele>32.7</ele>
        <time>2020-09-10T07:27:04Z</time>
      </trkpt>
      <trkpt lat="42.584471" lon="-8.680434">
        <ele>32.8</ele>
        <time>2020-09-10T07:27:05Z</time>
      </trkpt>
      <trkpt lat="42.584494" lon="-8.680398">
        <ele>32.8</ele>
        <time>2020-09-10T07:27:06Z</time>
      </trkpt>
      <trkpt lat="42.584517" lon="-8.680353">
        <ele>32.6</ele>
        <time>2020-09-10T07:27:07Z</time>
      </trkpt>
      <trkpt lat="42.584541" lon="-8.680319">
        <ele>32.7</ele>
        <time>2020-09-10T07:27:08Z</time>
      </trkpt>
      <trkpt lat="42.584568" lon="-8.680282">
        <ele>32.8</ele>
        <time>2020-09-10T07:27:09Z</time>
      </trkpt>
      <trkpt lat="42.584595" lon="-8.680247">
        <ele>33.1</ele>
        <time>2020-09-10T07:27:10Z</time>
      </trkpt>
      <trkpt lat="42.584619" lon="-8.680211">
        <ele>33.2</ele>
        <time>2020-09-10T07:27:11Z</time>
      </trkpt>
      <trkpt lat="42.584652" lon="-8.680165">
        <ele>33.4</ele>
        <time>2020-09-10T07:27:12Z</time>
      </trkpt>
      <trkpt lat="42.584676" lon="-8.680132">
        <ele>33.5</ele>
        <time>2020-09-10T07:27:13Z</time>
      </trkpt>
      <trkpt lat="42.584707" lon="-8.680093">
        <ele>33.5</ele>
        <time>2020-09-10T07:27:14Z</time>
      </trkpt>
      <trkpt lat="42.584744" lon="-8.680045">
        <ele>33.4</ele>
        <time>2020-09-10T07:27:15Z</time>
      </trkpt>
      <trkpt lat="42.584769" lon="-8.680008">
        <ele>33.3</ele>
        <time>2020-09-10T07:27:16Z</time>
      </trkpt>
      <trkpt lat="42.584799" lon="-8.679962">
        <ele>33.1</ele>
        <time>2020-09-10T07:27:18Z</time>
      </trkpt>
      <trkpt lat="42.584832" lon="-8.679911">
        <ele>32.8</ele>
        <time>2020-09-10T07:27:19Z</time>
      </trkpt>
      <trkpt lat="42.584875" lon="-8.679860">
        <ele>32.9</ele>
        <time>2020-09-10T07:27:21Z</time>
      </trkpt>
      <trkpt lat="42.584923" lon="-8.679808">
        <ele>33.0</ele>
        <time>2020-09-10T07:27:22Z</time>
      </trkpt>
      <trkpt lat="42.584967" lon="-8.679756">
        <ele>32.9</ele>
        <time>2020-09-10T07:27:24Z</time>
      </trkpt>
      <trkpt lat="42.585013" lon="-8.679695">
        <ele>32.6</ele>
        <time>2020-09-10T07:27:25Z</time>
      </trkpt>
      <trkpt lat="42.585076" lon="-8.679616">
        <ele>32.2</ele>
        <time>2020-09-10T07:27:28Z</time>
      </trkpt>
      <trkpt lat="42.585122" lon="-8.679557">
        <ele>31.8</ele>
        <time>2020-09-10T07:27:29Z</time>
      </trkpt>
      <trkpt lat="42.585191" lon="-8.679488">
        <ele>31.3</ele>
        <time>2020-09-10T07:27:32Z</time>
      </trkpt>
      <trkpt lat="42.585265" lon="-8.679420">
        <ele>30.7</ele>
        <time>2020-09-10T07:27:34Z</time>
      </trkpt>
      <trkpt lat="42.585344" lon="-8.679332">
        <ele>29.9</ele>
        <time>2020-09-10T07:27:37Z</time>
      </trkpt>
      <trkpt lat="42.585394" lon="-8.679269">
        <ele>29.1</ele>
        <time>2020-09-10T07:27:39Z</time>
      </trkpt>
      <trkpt lat="42.585471" lon="-8.679190">
        <ele>28.0</ele>
        <time>2020-09-10T07:27:41Z</time>
      </trkpt>
      <trkpt lat="42.585557" lon="-8.679116">
        <ele>27.5</ele>
        <time>2020-09-10T07:27:44Z</time>
      </trkpt>
      <trkpt lat="42.585662" lon="-8.679025">
        <ele>27.5</ele>
        <time>2020-09-10T07:27:47Z</time>
      </trkpt>
      <trkpt lat="42.585725" lon="-8.678970">
        <ele>27.8</ele>
        <time>2020-09-10T07:27:49Z</time>
      </trkpt>
      <trkpt lat="42.585795" lon="-8.678885">
        <ele>28.5</ele>
        <time>2020-09-10T07:27:52Z</time>
      </trkpt>
      <trkpt lat="42.585847" lon="-8.678809">
        <ele>29.3</ele>
        <time>2020-09-10T07:27:54Z</time>
      </trkpt>
      <trkpt lat="42.585880" lon="-8.678743">
        <ele>29.9</ele>
        <time>2020-09-10T07:27:55Z</time>
      </trkpt>
      <trkpt lat="42.585898" lon="-8.678688">
        <ele>30.2</ele>
        <time>2020-09-10T07:27:57Z</time>
      </trkpt>
      <trkpt lat="42.585914" lon="-8.678648">
        <ele>30.5</ele>
        <time>2020-09-10T07:27:57Z</time>
      </trkpt>
      <trkpt lat="42.585926" lon="-8.678602">
        <ele>30.7</ele>
        <time>2020-09-10T07:27:58Z</time>
      </trkpt>
      <trkpt lat="42.585940" lon="-8.678561">
        <ele>31.0</ele>
        <time>2020-09-10T07:27:59Z</time>
      </trkpt>
      <trkpt lat="42.585954" lon="-8.678520">
        <ele>31.3</ele>
        <time>2020-09-10T07:28:00Z</time>
      </trkpt>
      <trkpt lat="42.585968" lon="-8.678478">
        <ele>31.5</ele>
        <time>2020-09-10T07:28:01Z</time>
      </trkpt>
      <trkpt lat="42.585977" lon="-8.678437">
        <ele>31.3</ele>
        <time>2020-09-10T07:28:02Z</time>
      </trkpt>
      <trkpt lat="42.585984" lon="-8.678396">
        <ele>31.1</ele>
        <time>2020-09-10T07:28:03Z</time>
      </trkpt>
      <trkpt lat="42.585990" lon="-8.678351">
        <ele>30.8</ele>
        <time>2020-09-10T07:28:04Z</time>
      </trkpt>
      <trkpt lat="42.585996" lon="-8.678299">
        <ele>30.5</ele>
        <time>2020-09-10T07:28:05Z</time>
      </trkpt>
      <trkpt lat="42.586003" lon="-8.678238">
        <ele>30.0</ele>
        <time>2020-09-10T07:28:06Z</time>
      </trkpt>
      <trkpt lat="42.586014" lon="-8.678165">
        <ele>29.3</ele>
        <time>2020-09-10T07:28:07Z</time>
      </trkpt>
      <trkpt lat="42.586024" lon="-8.678084">
        <ele>28.4</ele>
        <time>2020-09-10T07:28:09Z</time>
      </trkpt>
      <trkpt lat="42.586033" lon="-8.677997">
        <ele>27.2</ele>
        <time>2020-09-10T07:28:11Z</time>
      </trkpt>
      <trkpt lat="42.586047" lon="-8.677907">
        <ele>25.8</ele>
        <time>2020-09-10T07:28:12Z</time>
      </trkpt>
      <trkpt lat="42.586070" lon="-8.677812">
        <ele>24.5</ele>
        <time>2020-09-10T07:28:14Z</time>
      </trkpt>
      <trkpt lat="42.586107" lon="-8.677716">
        <ele>23.4</ele>
        <time>2020-09-10T07:28:17Z</time>
      </trkpt>
      <trkpt lat="42.586157" lon="-8.677622">
        <ele>22.6</ele>
        <time>2020-09-10T07:28:19Z</time>
      </trkpt>
      <trkpt lat="42.586218" lon="-8.677530">
        <ele>21.9</ele>
        <time>2020-09-10T07:28:21Z</time>
      </trkpt>
      <trkpt lat="42.586286" lon="-8.677444">
        <ele>21.2</ele>
        <time>2020-09-10T07:28:24Z</time>
      </trkpt>
      <trkpt lat="42.586361" lon="-8.677361">
        <ele>20.6</ele>
        <time>2020-09-10T07:28:26Z</time>
      </trkpt>
      <trkpt lat="42.586439" lon="-8.677287">
        <ele>20.5</ele>
        <time>2020-09-10T07:28:29Z</time>
      </trkpt>
      <trkpt lat="42.586521" lon="-8.677216">
        <ele>20.3</ele>
        <time>2020-09-10T07:28:31Z</time>
      </trkpt>
      <trkpt lat="42.586602" lon="-8.677140">
        <ele>20.0</ele>
        <time>2020-09-10T07:28:34Z</time>
      </trkpt>
      <trkpt lat="42.586680" lon="-8.677062">
        <ele>19.7</ele>
        <time>2020-09-10T07:28:37Z</time>
      </trkpt>
      <trkpt lat="42.586761" lon="-8.676989">
        <ele>19.5</ele>
        <time>2020-09-10T07:28:39Z</time>
      </trkpt>
      <trkpt lat="42.586840" lon="-8.676923">
        <ele>19.7</ele>
        <time>2020-09-10T07:28:42Z</time>
      </trkpt>
      <trkpt lat="42.586916" lon="-8.676862">
        <ele>19.8</ele>
        <time>2020-09-10T07:28:44Z</time>
      </trkpt>
      <trkpt lat="42.586993" lon="-8.676801">
        <ele>20.0</ele>
        <time>2020-09-10T07:28:46Z</time>
      </trkpt>
      <trkpt lat="42.587065" lon="-8.676747">
        <ele>20.0</ele>
        <time>2020-09-10T07:28:49Z</time>
      </trkpt>
      <trkpt lat="42.587138" lon="-8.676697">
        <ele>19.8</ele>
        <time>2020-09-10T07:28:51Z</time>
      </trkpt>
      <trkpt lat="42.587209" lon="-8.676648">
        <ele>19.4</ele>
        <time>2020-09-10T07:28:53Z</time>
      </trkpt>
      <trkpt lat="42.587277" lon="-8.676604">
        <ele>19.6</ele>
        <time>2020-09-10T07:28:55Z</time>
      </trkpt>
      <trkpt lat="42.587345" lon="-8.676568">
        <ele>19.7</ele>
        <time>2020-09-10T07:28:57Z</time>
      </trkpt>
      <trkpt lat="42.587418" lon="-8.676532">
        <ele>19.7</ele>
        <time>2020-09-10T07:28:59Z</time>
      </trkpt>
      <trkpt lat="42.587494" lon="-8.676496">
        <ele>19.7</ele>
        <time>2020-09-10T07:29:01Z</time>
      </trkpt>
      <trkpt lat="42.587568" lon="-8.676462">
        <ele>19.8</ele>
        <time>2020-09-10T07:29:03Z</time>
      </trkpt>
      <trkpt lat="42.587639" lon="-8.676426">
        <ele>19.6</ele>
        <time>2020-09-10T07:29:05Z</time>
      </trkpt>
      <trkpt lat="42.587705" lon="-8.676377">
        <ele>19.7</ele>
        <time>2020-09-10T07:29:07Z</time>
      </trkpt>
      <trkpt lat="42.587771" lon="-8.676308">
        <ele>19.6</ele>
        <time>2020-09-10T07:29:09Z</time>
      </trkpt>
      <trkpt lat="42.587836" lon="-8.676239">
        <ele>19.3</ele>
        <time>2020-09-10T07:29:12Z</time>
      </trkpt>
      <trkpt lat="42.587899" lon="-8.676169">
        <ele>19.0</ele>
        <time>2020-09-10T07:29:14Z</time>
      </trkpt>
      <trkpt lat="42.587963" lon="-8.676103">
        <ele>19.0</ele>
        <time>2020-09-10T07:29:16Z</time>
      </trkpt>
      <trkpt lat="42.588025" lon="-8.676032">
        <ele>18.8</ele>
        <time>2020-09-10T07:29:18Z</time>
      </trkpt>
      <trkpt lat="42.588085" lon="-8.675968">
        <ele>18.4</ele>
        <time>2020-09-10T07:29:20Z</time>
      </trkpt>
      <trkpt lat="42.588147" lon="-8.675910">
        <ele>18.5</ele>
        <time>2020-09-10T07:29:22Z</time>
      </trkpt>
      <trkpt lat="42.588208" lon="-8.675871">
        <ele>18.8</ele>
        <time>2020-09-10T07:29:24Z</time>
      </trkpt>
      <trkpt lat="42.588263" lon="-8.675855">
        <ele>19.1</ele>
        <time>2020-09-10T07:29:26Z</time>
      </trkpt>
      <trkpt lat="42.588322" lon="-8.675845">
        <ele>19.5</ele>
        <time>2020-09-10T07:29:27Z</time>
      </trkpt>
      <trkpt lat="42.588389" lon="-8.675806">
        <ele>19.7</ele>
        <time>2020-09-10T07:29:29Z</time>
      </trkpt>
      <trkpt lat="42.588459" lon="-8.675768">
        <ele>19.9</ele>
        <time>2020-09-10T07:29:31Z</time>
      </trkpt>
      <trkpt lat="42.588520" lon="-8.675729">
        <ele>19.9</ele>
        <time>2020-09-10T07:29:33Z</time>
      </trkpt>
      <trkpt lat="42.588579" lon="-8.675683">
        <ele>19.8</ele>
        <time>2020-09-10T07:29:35Z</time>
      </trkpt>
      <trkpt lat="42.588637" lon="-8.675633">
        <ele>19.7</ele>
        <time>2020-09-10T07:29:37Z</time>
      </trkpt>
      <trkpt lat="42.588693" lon="-8.675580">
        <ele>19.6</ele>
        <time>2020-09-10T07:29:38Z</time>
      </trkpt>
      <trkpt lat="42.588752" lon="-8.675531">
        <ele>19.4</ele>
        <time>2020-09-10T07:29:40Z</time>
      </trkpt>
      <trkpt lat="42.588816" lon="-8.675489">
        <ele>19.3</ele>
        <time>2020-09-10T07:29:42Z</time>
      </trkpt>
      <trkpt lat="42.588875" lon="-8.675449">
        <ele>19.3</ele>
        <time>2020-09-10T07:29:44Z</time>
      </trkpt>
      <trkpt lat="42.588937" lon="-8.675405">
        <ele>19.2</ele>
        <time>2020-09-10T07:29:46Z</time>
      </trkpt>
      <trkpt lat="42.589006" lon="-8.675364">
        <ele>19.1</ele>
        <time>2020-09-10T07:29:48Z</time>
      </trkpt>
      <trkpt lat="42.589071" lon="-8.675322">
        <ele>18.8</ele>
        <time>2020-09-10T07:29:50Z</time>
      </trkpt>
      <trkpt lat="42.589132" lon="-8.675275">
        <ele>18.4</ele>
        <time>2020-09-10T07:29:52Z</time>
      </trkpt>
      <trkpt lat="42.589192" lon="-8.675225">
        <ele>18.1</ele>
        <time>2020-09-10T07:29:53Z</time>
      </trkpt>
      <trkpt lat="42.589257" lon="-8.675183">
        <ele>17.9</ele>
        <time>2020-09-10T07:29:55Z</time>
      </trkpt>
      <trkpt lat="42.589328" lon="-8.675159">
        <ele>17.8</ele>
        <time>2020-09-10T07:29:57Z</time>
      </trkpt>
      <trkpt lat="42.589399" lon="-8.675152">
        <ele>17.9</ele>
        <time>2020-09-10T07:29:59Z</time>
      </trkpt>
      <trkpt lat="42.589464" lon="-8.675152">
        <ele>18.0</ele>
        <time>2020-09-10T07:30:01Z</time>
      </trkpt>
      <trkpt lat="42.589526" lon="-8.675155">
        <ele>18.2</ele>
        <time>2020-09-10T07:30:03Z</time>
      </trkpt>
      <trkpt lat="42.589585" lon="-8.675141">
        <ele>18.5</ele>
        <time>2020-09-10T07:30:04Z</time>
      </trkpt>
      <trkpt lat="42.589643" lon="-8.675101">
        <ele>18.4</ele>
        <time>2020-09-10T07:30:06Z</time>
      </trkpt>
      <trkpt lat="42.589698" lon="-8.675047">
        <ele>17.9</ele>
        <time>2020-09-10T07:30:08Z</time>
      </trkpt>
      <trkpt lat="42.589753" lon="-8.674987">
        <ele>17.5</ele>
        <time>2020-09-10T07:30:10Z</time>
      </trkpt>
      <trkpt lat="42.589811" lon="-8.674925">
        <ele>17.0</ele>
        <time>2020-09-10T07:30:12Z</time>
      </trkpt>
      <trkpt lat="42.589863" lon="-8.674868">
        <ele>16.5</ele>
        <time>2020-09-10T07:30:13Z</time>
      </trkpt>
      <trkpt lat="42.589923" lon="-8.674824">
        <ele>16.2</ele>
        <time>2020-09-10T07:30:15Z</time>
      </trkpt>
      <trkpt lat="42.589997" lon="-8.674802">
        <ele>16.1</ele>
        <time>2020-09-10T07:30:17Z</time>
      </trkpt>
      <trkpt lat="42.590065" lon="-8.674807">
        <ele>16.3</ele>
        <time>2020-09-10T07:30:19Z</time>
      </trkpt>
      <trkpt lat="42.590131" lon="-8.674823">
        <ele>16.5</ele>
        <time>2020-09-10T07:30:21Z</time>
      </trkpt>
      <trkpt lat="42.590185" lon="-8.674851">
        <ele>16.8</ele>
        <time>2020-09-10T07:30:22Z</time>
      </trkpt>
      <trkpt lat="42.590239" lon="-8.674885">
        <ele>16.8</ele>
        <time>2020-09-10T07:30:24Z</time>
      </trkpt>
      <trkpt lat="42.590295" lon="-8.674909">
        <ele>16.6</ele>
        <time>2020-09-10T07:30:25Z</time>
      </trkpt>
      <trkpt lat="42.590363" lon="-8.674932">
        <ele>16.3</ele>
        <time>2020-09-10T07:30:27Z</time>
      </trkpt>
      <trkpt lat="42.590417" lon="-8.674943">
        <ele>16.0</ele>
        <time>2020-09-10T07:30:29Z</time>
      </trkpt>
      <trkpt lat="42.590474" lon="-8.674956">
        <ele>15.8</ele>
        <time>2020-09-10T07:30:30Z</time>
      </trkpt>
      <trkpt lat="42.590534" lon="-8.674984">
        <ele>15.8</ele>
        <time>2020-09-10T07:30:32Z</time>
      </trkpt>
      <trkpt lat="42.590589" lon="-8.675012">
        <ele>15.9</ele>
        <time>2020-09-10T07:30:34Z</time>
      </trkpt>
      <trkpt lat="42.590640" lon="-8.675040">
        <ele>16.0</ele>
        <time>2020-09-10T07:30:35Z</time>
      </trkpt>
      <trkpt lat="42.590682" lon="-8.675058">
        <ele>16.1</ele>
        <time>2020-09-10T07:30:36Z</time>
      </trkpt>
      <trkpt lat="42.590734" lon="-8.675068">
        <ele>16.1</ele>
        <time>2020-09-10T07:30:38Z</time>
      </trkpt>
      <trkpt lat="42.590763" lon="-8.675062">
        <ele>15.9</ele>
        <time>2020-09-10T07:30:38Z</time>
      </trkpt>
      <trkpt lat="42.590795" lon="-8.675057">
        <ele>15.8</ele>
        <time>2020-09-10T07:30:39Z</time>
      </trkpt>
      <trkpt lat="42.590842" lon="-8.675053">
        <ele>15.6</ele>
        <time>2020-09-10T07:30:41Z</time>
      </trkpt>
      <trkpt lat="42.590875" lon="-8.675051">
        <ele>15.5</ele>
        <time>2020-09-10T07:30:41Z</time>
      </trkpt>
      <trkpt lat="42.590912" lon="-8.675058">
        <ele>15.5</ele>
        <time>2020-09-10T07:30:42Z</time>
      </trkpt>
      <trkpt lat="42.590968" lon="-8.675089">
        <ele>15.7</ele>
        <time>2020-09-10T07:30:44Z</time>
      </trkpt>
      <trkpt lat="42.591027" lon="-8.675126">
        <ele>16.0</ele>
        <time>2020-09-10T07:30:46Z</time>
      </trkpt>
      <trkpt lat="42.591092" lon="-8.675147">
        <ele>16.1</ele>
        <time>2020-09-10T07:30:48Z</time>
      </trkpt>
      <trkpt lat="42.591152" lon="-8.675181">
        <ele>16.3</ele>
        <time>2020-09-10T07:30:49Z</time>
      </trkpt>
      <trkpt lat="42.591217" lon="-8.675210">
        <ele>16.5</ele>
        <time>2020-09-10T07:30:51Z</time>
      </trkpt>
      <trkpt lat="42.591284" lon="-8.675244">
        <ele>16.6</ele>
        <time>2020-09-10T07:30:53Z</time>
      </trkpt>
      <trkpt lat="42.591347" lon="-8.675285">
        <ele>16.8</ele>
        <time>2020-09-10T07:30:55Z</time>
      </trkpt>
      <trkpt lat="42.591403" lon="-8.675323">
        <ele>17.0</ele>
        <time>2020-09-10T07:30:57Z</time>
      </trkpt>
      <trkpt lat="42.591440" lon="-8.675357">
        <ele>17.0</ele>
        <time>2020-09-10T07:30:58Z</time>
      </trkpt>
      <trkpt lat="42.591479" lon="-8.675392">
        <ele>17.0</ele>
        <time>2020-09-10T07:30:59Z</time>
      </trkpt>
      <trkpt lat="42.591521" lon="-8.675432">
        <ele>16.9</ele>
        <time>2020-09-10T07:31:00Z</time>
      </trkpt>
      <trkpt lat="42.591563" lon="-8.675471">
        <ele>16.7</ele>
        <time>2020-09-10T07:31:02Z</time>
      </trkpt>
      <trkpt lat="42.591591" lon="-8.675503">
        <ele>16.6</ele>
        <time>2020-09-10T07:31:03Z</time>
      </trkpt>
      <trkpt lat="42.591627" lon="-8.675547">
        <ele>17.1</ele>
        <time>2020-09-10T07:31:04Z</time>
      </trkpt>
      <trkpt lat="42.591663" lon="-8.675597">
        <ele>17.4</ele>
        <time>2020-09-10T07:31:05Z</time>
      </trkpt>
      <trkpt lat="42.591700" lon="-8.675654">
        <ele>17.5</ele>
        <time>2020-09-10T07:31:07Z</time>
      </trkpt>
      <trkpt lat="42.591737" lon="-8.675715">
        <ele>17.5</ele>
        <time>2020-09-10T07:31:08Z</time>
      </trkpt>
      <trkpt lat="42.591773" lon="-8.675771">
        <ele>17.4</ele>
        <time>2020-09-10T07:31:10Z</time>
      </trkpt>
      <trkpt lat="42.591810" lon="-8.675829">
        <ele>17.4</ele>
        <time>2020-09-10T07:31:11Z</time>
      </trkpt>
      <trkpt lat="42.591850" lon="-8.675891">
        <ele>17.7</ele>
        <time>2020-09-10T07:31:13Z</time>
      </trkpt>
      <trkpt lat="42.591882" lon="-8.675928">
        <ele>17.8</ele>
        <time>2020-09-10T07:31:14Z</time>
      </trkpt>
      <trkpt lat="42.591931" lon="-8.675977">
        <ele>17.8</ele>
        <time>2020-09-10T07:31:16Z</time>
      </trkpt>
      <trkpt lat="42.591986" lon="-8.676024">
        <ele>17.8</ele>
        <time>2020-09-10T07:31:17Z</time>
      </trkpt>
      <trkpt lat="42.592039" lon="-8.676056">
        <ele>17.5</ele>
        <time>2020-09-10T07:31:19Z</time>
      </trkpt>
      <trkpt lat="42.592097" lon="-8.676077">
        <ele>17.4</ele>
        <time>2020-09-10T07:31:21Z</time>
      </trkpt>
      <trkpt lat="42.592167" lon="-8.676092">
        <ele>17.3</ele>
        <time>2020-09-10T07:31:23Z</time>
      </trkpt>
      <trkpt lat="42.592219" lon="-8.676096">
        <ele>17.2</ele>
        <time>2020-09-10T07:31:24Z</time>
      </trkpt>
      <trkpt lat="42.592284" lon="-8.676103">
        <ele>17.0</ele>
        <time>2020-09-10T07:31:26Z</time>
      </trkpt>
      <trkpt lat="42.592339" lon="-8.676106">
        <ele>17.2</ele>
        <time>2020-09-10T07:31:27Z</time>
      </trkpt>
      <trkpt lat="42.592387" lon="-8.676096">
        <ele>17.2</ele>
        <time>2020-09-10T07:31:28Z</time>
      </trkpt>
      <trkpt lat="42.592429" lon="-8.676074">
        <ele>17.1</ele>
        <time>2020-09-10T07:31:30Z</time>
      </trkpt>
      <trkpt lat="42.592467" lon="-8.676042">
        <ele>16.8</ele>
        <time>2020-09-10T07:31:31Z</time>
      </trkpt>
      <trkpt lat="42.592506" lon="-8.675996">
        <ele>16.5</ele>
        <time>2020-09-10T07:31:32Z</time>
      </trkpt>
      <trkpt lat="42.592551" lon="-8.675936">
        <ele>16.3</ele>
        <time>2020-09-10T07:31:34Z</time>
      </trkpt>
      <trkpt lat="42.592600" lon="-8.675851">
        <ele>16.2</ele>
        <time>2020-09-10T07:31:36Z</time>
      </trkpt>
      <trkpt lat="42.592628" lon="-8.675789">
        <ele>16.1</ele>
        <time>2020-09-10T07:31:37Z</time>
      </trkpt>
      <trkpt lat="42.592649" lon="-8.675702">
        <ele>16.1</ele>
        <time>2020-09-10T07:31:39Z</time>
      </trkpt>
      <trkpt lat="42.592665" lon="-8.675627">
        <ele>16.4</ele>
        <time>2020-09-10T07:31:41Z</time>
      </trkpt>
      <trkpt lat="42.592683" lon="-8.675543">
        <ele>16.6</ele>
        <time>2020-09-10T07:31:42Z</time>
      </trkpt>
      <trkpt lat="42.592700" lon="-8.675455">
        <ele>16.8</ele>
        <time>2020-09-10T07:31:44Z</time>
      </trkpt>
      <trkpt lat="42.592724" lon="-8.675376">
        <ele>16.8</ele>
        <time>2020-09-10T07:31:46Z</time>
      </trkpt>
      <trkpt lat="42.592747" lon="-8.675318">
        <ele>16.9</ele>
        <time>2020-09-10T07:31:47Z</time>
      </trkpt>
      <trkpt lat="42.592765" lon="-8.675258">
        <ele>17.0</ele>
        <time>2020-09-10T07:31:48Z</time>
      </trkpt>
      <trkpt lat="42.592781" lon="-8.675196">
        <ele>17.1</ele>
        <time>2020-09-10T07:31:50Z</time>
      </trkpt>
      <trkpt lat="42.592796" lon="-8.675124">
        <ele>17.1</ele>
        <time>2020-09-10T07:31:51Z</time>
      </trkpt>
      <trkpt lat="42.592810" lon="-8.675052">
        <ele>17.1</ele>
        <time>2020-09-10T07:31:53Z</time>
      </trkpt>
      <trkpt lat="42.592827" lon="-8.674977">
        <ele>17.0</ele>
        <time>2020-09-10T07:31:54Z</time>
      </trkpt>
      <trkpt lat="42.592841" lon="-8.674895">
        <ele>16.8</ele>
        <time>2020-09-10T07:31:56Z</time>
      </trkpt>
      <trkpt lat="42.592850" lon="-8.674818">
        <ele>16.5</ele>
        <time>2020-09-10T07:31:57Z</time>
      </trkpt>
      <trkpt lat="42.592856" lon="-8.674747">
        <ele>16.3</ele>
        <time>2020-09-10T07:31:59Z</time>
      </trkpt>
      <trkpt lat="42.592860" lon="-8.674678">
        <ele>16.1</ele>
        <time>2020-09-10T07:32:00Z</time>
      </trkpt>
      <trkpt lat="42.592878" lon="-8.674616">
        <ele>15.9</ele>
        <time>2020-09-10T07:32:01Z</time>
      </trkpt>
      <trkpt lat="42.592905" lon="-8.674562">
        <ele>15.8</ele>
        <time>2020-09-10T07:32:03Z</time>
      </trkpt>
      <trkpt lat="42.592942" lon="-8.674496">
        <ele>15.7</ele>
        <time>2020-09-10T07:32:04Z</time>
      </trkpt>
      <trkpt lat="42.592956" lon="-8.674428">
        <ele>15.5</ele>
        <time>2020-09-10T07:32:06Z</time>
      </trkpt>
      <trkpt lat="42.592962" lon="-8.674359">
        <ele>15.3</ele>
        <time>2020-09-10T07:32:07Z</time>
      </trkpt>
      <trkpt lat="42.592966" lon="-8.674288">
        <ele>15.2</ele>
        <time>2020-09-10T07:32:09Z</time>
      </trkpt>
      <trkpt lat="42.592974" lon="-8.674217">
        <ele>15.2</ele>
        <time>2020-09-10T07:32:10Z</time>
      </trkpt>
      <trkpt lat="42.592984" lon="-8.674137">
        <ele>15.3</ele>
        <time>2020-09-10T07:32:12Z</time>
      </trkpt>
      <trkpt lat="42.592994" lon="-8.674056">
        <ele>15.3</ele>
        <time>2020-09-10T07:32:13Z</time>
      </trkpt>
      <trkpt lat="42.592998" lon="-8.673979">
        <ele>15.3</ele>
        <time>2020-09-10T07:32:15Z</time>
      </trkpt>
      <trkpt lat="42.593000" lon="-8.673905">
        <ele>15.3</ele>
        <time>2020-09-10T07:32:16Z</time>
      </trkpt>
      <trkpt lat="42.592998" lon="-8.673828">
        <ele>15.3</ele>
        <time>2020-09-10T07:32:18Z</time>
      </trkpt>
      <trkpt lat="42.592997" lon="-8.673750">
        <ele>15.3</ele>
        <time>2020-09-10T07:32:19Z</time>
      </trkpt>
      <trkpt lat="42.593002" lon="-8.673667">
        <ele>15.3</ele>
        <time>2020-09-10T07:32:21Z</time>
      </trkpt>
      <trkpt lat="42.593006" lon="-8.673582">
        <ele>15.3</ele>
        <time>2020-09-10T07:32:22Z</time>
      </trkpt>
      <trkpt lat="42.593009" lon="-8.673496">
        <ele>15.3</ele>
        <time>2020-09-10T07:32:24Z</time>
      </trkpt>
      <trkpt lat="42.593014" lon="-8.673407">
        <ele>15.3</ele>
        <time>2020-09-10T07:32:26Z</time>
      </trkpt>
      <trkpt lat="42.593018" lon="-8.673322">
        <ele>15.3</ele>
        <time>2020-09-10T07:32:28Z</time>
      </trkpt>
      <trkpt lat="42.593022" lon="-8.673235">
        <ele>15.3</ele>
        <time>2020-09-10T07:32:29Z</time>
      </trkpt>
      <trkpt lat="42.593025" lon="-8.673151">
        <ele>15.4</ele>
        <time>2020-09-10T07:32:31Z</time>
      </trkpt>
      <trkpt lat="42.593036" lon="-8.673071">
        <ele>15.4</ele>
        <time>2020-09-10T07:32:33Z</time>
      </trkpt>
      <trkpt lat="42.593054" lon="-8.672986">
        <ele>15.4</ele>
        <time>2020-09-10T07:32:34Z</time>
      </trkpt>
      <trkpt lat="42.593070" lon="-8.672901">
        <ele>15.5</ele>
        <time>2020-09-10T07:32:36Z</time>
      </trkpt>
      <trkpt lat="42.593088" lon="-8.672820">
        <ele>15.5</ele>
        <time>2020-09-10T07:32:38Z</time>
      </trkpt>
      <trkpt lat="42.593095" lon="-8.672742">
        <ele>15.5</ele>
        <time>2020-09-10T07:32:39Z</time>
      </trkpt>
      <trkpt lat="42.593099" lon="-8.672658">
        <ele>15.6</ele>
        <time>2020-09-10T07:32:41Z</time>
      </trkpt>
      <trkpt lat="42.593102" lon="-8.672573">
        <ele>15.6</ele>
        <time>2020-09-10T07:32:43Z</time>
      </trkpt>
      <trkpt lat="42.593106" lon="-8.672489">
        <ele>15.6</ele>
        <time>2020-09-10T07:32:44Z</time>
      </trkpt>
      <trkpt lat="42.593111" lon="-8.672390">
        <ele>15.6</ele>
        <time>2020-09-10T07:32:46Z</time>
      </trkpt>
      <trkpt lat="42.593117" lon="-8.672297">
        <ele>15.6</ele>
        <time>2020-09-10T07:32:48Z</time>
      </trkpt>
      <trkpt lat="42.593117" lon="-8.672214">
        <ele>15.5</ele>
        <time>2020-09-10T07:32:50Z</time>
      </trkpt>
      <trkpt lat="42.593114" lon="-8.672134">
        <ele>15.3</ele>
        <time>2020-09-10T07:32:51Z</time>
      </trkpt>
      <trkpt lat="42.593106" lon="-8.672065">
        <ele>15.2</ele>
        <time>2020-09-10T07:32:53Z</time>
      </trkpt>
      <trkpt lat="42.593099" lon="-8.671999">
        <ele>15.2</ele>
        <time>2020-09-10T07:32:54Z</time>
      </trkpt>
      <trkpt lat="42.593100" lon="-8.671923">
        <ele>15.4</ele>
        <time>2020-09-10T07:32:55Z</time>
      </trkpt>
      <trkpt lat="42.593100" lon="-8.671847">
        <ele>15.6</ele>
        <time>2020-09-10T07:32:57Z</time>
      </trkpt>
      <trkpt lat="42.593105" lon="-8.671765">
        <ele>15.7</ele>
        <time>2020-09-10T07:32:58Z</time>
      </trkpt>
      <trkpt lat="42.593136" lon="-8.671691">
        <ele>15.9</ele>
        <time>2020-09-10T07:33:00Z</time>
      </trkpt>
      <trkpt lat="42.593171" lon="-8.671616">
        <ele>16.0</ele>
        <time>2020-09-10T07:33:02Z</time>
      </trkpt>
      <trkpt lat="42.593202" lon="-8.671550">
        <ele>16.1</ele>
        <time>2020-09-10T07:33:03Z</time>
      </trkpt>
      <trkpt lat="42.593233" lon="-8.671482">
        <ele>15.9</ele>
        <time>2020-09-10T07:33:05Z</time>
      </trkpt>
      <trkpt lat="42.593261" lon="-8.671417">
        <ele>15.8</ele>
        <time>2020-09-10T07:33:06Z</time>
      </trkpt>
      <trkpt lat="42.593278" lon="-8.671351">
        <ele>15.6</ele>
        <time>2020-09-10T07:33:08Z</time>
      </trkpt>
      <trkpt lat="42.593298" lon="-8.671267">
        <ele>15.6</ele>
        <time>2020-09-10T07:33:10Z</time>
      </trkpt>
      <trkpt lat="42.593313" lon="-8.671190">
        <ele>15.6</ele>
        <time>2020-09-10T07:33:11Z</time>
      </trkpt>
      <trkpt lat="42.593338" lon="-8.671121">
        <ele>15.6</ele>
        <time>2020-09-10T07:33:13Z</time>
      </trkpt>
      <trkpt lat="42.593373" lon="-8.671055">
        <ele>15.7</ele>
        <time>2020-09-10T07:33:14Z</time>
      </trkpt>
      <trkpt lat="42.593422" lon="-8.670974">
        <ele>15.8</ele>
        <time>2020-09-10T07:33:16Z</time>
      </trkpt>
      <trkpt lat="42.593463" lon="-8.670894">
        <ele>15.9</ele>
        <time>2020-09-10T07:33:18Z</time>
      </trkpt>
      <trkpt lat="42.593494" lon="-8.670826">
        <ele>15.7</ele>
        <time>2020-09-10T07:33:20Z</time>
      </trkpt>
      <trkpt lat="42.593526" lon="-8.670753">
        <ele>15.6</ele>
        <time>2020-09-10T07:33:21Z</time>
      </trkpt>
      <trkpt lat="42.593550" lon="-8.670676">
        <ele>15.6</ele>
        <time>2020-09-10T07:33:23Z</time>
      </trkpt>
      <trkpt lat="42.593558" lon="-8.670587">
        <ele>15.5</ele>
        <time>2020-09-10T07:33:25Z</time>
      </trkpt>
      <trkpt lat="42.593561" lon="-8.670485">
        <ele>15.4</ele>
        <time>2020-09-10T07:33:27Z</time>
      </trkpt>
      <trkpt lat="42.593577" lon="-8.670381">
        <ele>15.5</ele>
        <time>2020-09-10T07:33:29Z</time>
      </trkpt>
      <trkpt lat="42.593602" lon="-8.670279">
        <ele>15.8</ele>
        <time>2020-09-10T07:33:31Z</time>
      </trkpt>
      <trkpt lat="42.593613" lon="-8.670187">
        <ele>16.1</ele>
        <time>2020-09-10T07:33:33Z</time>
      </trkpt>
      <trkpt lat="42.593633" lon="-8.670097">
        <ele>16.2</ele>
        <time>2020-09-10T07:33:35Z</time>
      </trkpt>
      <trkpt lat="42.593639" lon="-8.670014">
        <ele>16.3</ele>
        <time>2020-09-10T07:33:36Z</time>
      </trkpt>
      <trkpt lat="42.593634" lon="-8.669929">
        <ele>16.3</ele>
        <time>2020-09-10T07:33:38Z</time>
      </trkpt>
      <trkpt lat="42.593615" lon="-8.669858">
        <ele>16.4</ele>
        <time>2020-09-10T07:33:40Z</time>
      </trkpt>
      <trkpt lat="42.593596" lon="-8.669779">
        <ele>16.4</ele>
        <time>2020-09-10T07:33:41Z</time>
      </trkpt>
      <trkpt lat="42.593576" lon="-8.669704">
        <ele>16.4</ele>
        <time>2020-09-10T07:33:43Z</time>
      </trkpt>
      <trkpt lat="42.593556" lon="-8.669630">
        <ele>16.3</ele>
        <time>2020-09-10T07:33:44Z</time>
      </trkpt>
      <trkpt lat="42.593536" lon="-8.669557">
        <ele>16.3</ele>
        <time>2020-09-10T07:33:46Z</time>
      </trkpt>
      <trkpt lat="42.593519" lon="-8.669489">
        <ele>16.3</ele>
        <time>2020-09-10T07:33:47Z</time>
      </trkpt>
      <trkpt lat="42.593507" lon="-8.669426">
        <ele>16.3</ele>
        <time>2020-09-10T07:33:49Z</time>
      </trkpt>
      <trkpt lat="42.593496" lon="-8.669362">
        <ele>16.3</ele>
        <time>2020-09-10T07:33:50Z</time>
      </trkpt>
      <trkpt lat="42.593482" lon="-8.669296">
        <ele>16.4</ele>
        <time>2020-09-10T07:33:51Z</time>
      </trkpt>
      <trkpt lat="42.593469" lon="-8.669224">
        <ele>16.3</ele>
        <time>2020-09-10T07:33:53Z</time>
      </trkpt>
      <trkpt lat="42.593460" lon="-8.669146">
        <ele>16.3</ele>
        <time>2020-09-10T07:33:54Z</time>
      </trkpt>
      <trkpt lat="42.593455" lon="-8.669068">
        <ele>16.2</ele>
        <time>2020-09-10T07:33:56Z</time>
      </trkpt>
      <trkpt lat="42.593446" lon="-8.668991">
        <ele>16.2</ele>
        <time>2020-09-10T07:33:57Z</time>
      </trkpt>
      <trkpt lat="42.593435" lon="-8.668917">
        <ele>16.1</ele>
        <time>2020-09-10T07:33:59Z</time>
      </trkpt>
      <trkpt lat="42.593428" lon="-8.668844">
        <ele>16.1</ele>
        <time>2020-09-10T07:34:00Z</time>
      </trkpt>
      <trkpt lat="42.593421" lon="-8.668768">
        <ele>16.1</ele>
        <time>2020-09-10T07:34:02Z</time>
      </trkpt>
      <trkpt lat="42.593413" lon="-8.668687">
        <ele>16.0</ele>
        <time>2020-09-10T07:34:03Z</time>
      </trkpt>
      <trkpt lat="42.593410" lon="-8.668602">
        <ele>16.0</ele>
        <time>2020-09-10T07:34:05Z</time>
      </trkpt>
      <trkpt lat="42.593417" lon="-8.668509">
        <ele>16.0</ele>
        <time>2020-09-10T07:34:07Z</time>
      </trkpt>
      <trkpt lat="42.593436" lon="-8.668419">
        <ele>15.9</ele>
        <time>2020-09-10T07:34:09Z</time>
      </trkpt>
      <trkpt lat="42.593466" lon="-8.668330">
        <ele>15.9</ele>
        <time>2020-09-10T07:34:11Z</time>
      </trkpt>
      <trkpt lat="42.593501" lon="-8.668253">
        <ele>15.9</ele>
        <time>2020-09-10T07:34:12Z</time>
      </trkpt>
      <trkpt lat="42.593538" lon="-8.668195">
        <ele>16.0</ele>
        <time>2020-09-10T07:34:14Z</time>
      </trkpt>
      <trkpt lat="42.593582" lon="-8.668140">
        <ele>16.2</ele>
        <time>2020-09-10T07:34:15Z</time>
      </trkpt>
      <trkpt lat="42.593628" lon="-8.668092">
        <ele>16.4</ele>
        <time>2020-09-10T07:34:17Z</time>
      </trkpt>
      <trkpt lat="42.593676" lon="-8.668049">
        <ele>16.4</ele>
        <time>2020-09-10T07:34:19Z</time>
      </trkpt>
      <trkpt lat="42.593726" lon="-8.667994">
        <ele>16.6</ele>
        <time>2020-09-10T07:34:20Z</time>
      </trkpt>
      <trkpt lat="42.593785" lon="-8.667939">
        <ele>16.8</ele>
        <time>2020-09-10T07:34:22Z</time>
      </trkpt>
      <trkpt lat="42.593841" lon="-8.667894">
        <ele>17.1</ele>
        <time>2020-09-10T07:34:24Z</time>
      </trkpt>
      <trkpt lat="42.593896" lon="-8.667846">
        <ele>17.3</ele>
        <time>2020-09-10T07:34:26Z</time>
      </trkpt>
      <trkpt lat="42.593948" lon="-8.667802">
        <ele>17.4</ele>
        <time>2020-09-10T07:34:27Z</time>
      </trkpt>
      <trkpt lat="42.593996" lon="-8.667764">
        <ele>17.6</ele>
        <time>2020-09-10T07:34:29Z</time>
      </trkpt>
      <trkpt lat="42.594042" lon="-8.667725">
        <ele>17.6</ele>
        <time>2020-09-10T07:34:30Z</time>
      </trkpt>
      <trkpt lat="42.594089" lon="-8.667697">
        <ele>17.8</ele>
        <time>2020-09-10T07:34:32Z</time>
      </trkpt>
      <trkpt lat="42.594137" lon="-8.667663">
        <ele>17.8</ele>
        <time>2020-09-10T07:34:33Z</time>
      </trkpt>
      <trkpt lat="42.594193" lon="-8.667630">
        <ele>18.0</ele>
        <time>2020-09-10T07:34:35Z</time>
      </trkpt>
      <trkpt lat="42.594248" lon="-8.667590">
        <ele>18.0</ele>
        <time>2020-09-10T07:34:36Z</time>
      </trkpt>
      <trkpt lat="42.594305" lon="-8.667545">
        <ele>17.9</ele>
        <time>2020-09-10T07:34:38Z</time>
      </trkpt>
      <trkpt lat="42.594356" lon="-8.667500">
        <ele>17.6</ele>
        <time>2020-09-10T07:34:40Z</time>
      </trkpt>
      <trkpt lat="42.594419" lon="-8.667460">
        <ele>17.3</ele>
        <time>2020-09-10T07:34:42Z</time>
      </trkpt>
      <trkpt lat="42.594486" lon="-8.667434">
        <ele>17.0</ele>
        <time>2020-09-10T07:34:43Z</time>
      </trkpt>
      <trkpt lat="42.594555" lon="-8.667391">
        <ele>16.8</ele>
        <time>2020-09-10T07:34:45Z</time>
      </trkpt>
      <trkpt lat="42.594619" lon="-8.667346">
        <ele>16.7</ele>
        <time>2020-09-10T07:34:47Z</time>
      </trkpt>
      <trkpt lat="42.594685" lon="-8.667301">
        <ele>16.6</ele>
        <time>2020-09-10T07:34:49Z</time>
      </trkpt>
      <trkpt lat="42.594746" lon="-8.667273">
        <ele>16.6</ele>
        <time>2020-09-10T07:34:51Z</time>
      </trkpt>
      <trkpt lat="42.594800" lon="-8.667242">
        <ele>16.5</ele>
        <time>2020-09-10T07:34:53Z</time>
      </trkpt>
      <trkpt lat="42.594856" lon="-8.667202">
        <ele>16.4</ele>
        <time>2020-09-10T07:34:54Z</time>
      </trkpt>
      <trkpt lat="42.594916" lon="-8.667162">
        <ele>16.6</ele>
        <time>2020-09-10T07:34:56Z</time>
      </trkpt>
      <trkpt lat="42.594971" lon="-8.667112">
        <ele>16.7</ele>
        <time>2020-09-10T07:34:58Z</time>
      </trkpt>
      <trkpt lat="42.595024" lon="-8.667075">
        <ele>16.8</ele>
        <time>2020-09-10T07:34:59Z</time>
      </trkpt>
      <trkpt lat="42.595067" lon="-8.667036">
        <ele>16.7</ele>
        <time>2020-09-10T07:35:01Z</time>
      </trkpt>
      <trkpt lat="42.595109" lon="-8.666996">
        <ele>16.7</ele>
        <time>2020-09-10T07:35:02Z</time>
      </trkpt>
      <trkpt lat="42.595149" lon="-8.666949">
        <ele>16.7</ele>
        <time>2020-09-10T07:35:04Z</time>
      </trkpt>
      <trkpt lat="42.595193" lon="-8.666892">
        <ele>16.8</ele>
        <time>2020-09-10T07:35:05Z</time>
      </trkpt>
      <trkpt lat="42.595240" lon="-8.666840">
        <ele>16.8</ele>
        <time>2020-09-10T07:35:07Z</time>
      </trkpt>
      <trkpt lat="42.595288" lon="-8.666800">
        <ele>16.8</ele>
        <time>2020-09-10T07:35:08Z</time>
      </trkpt>
      <trkpt lat="42.595332" lon="-8.666762">
        <ele>16.8</ele>
        <time>2020-09-10T07:35:10Z</time>
      </trkpt>
      <trkpt lat="42.595377" lon="-8.666729">
        <ele>16.8</ele>
        <time>2020-09-10T07:35:11Z</time>
      </trkpt>
      <trkpt lat="42.595422" lon="-8.666695">
        <ele>16.8</ele>
        <time>2020-09-10T07:35:12Z</time>
      </trkpt>
      <trkpt lat="42.595475" lon="-8.666663">
        <ele>16.8</ele>
        <time>2020-09-10T07:35:14Z</time>
      </trkpt>
      <trkpt lat="42.595529" lon="-8.666632">
        <ele>16.7</ele>
        <time>2020-09-10T07:35:16Z</time>
      </trkpt>
      <trkpt lat="42.595584" lon="-8.666608">
        <ele>16.7</ele>
        <time>2020-09-10T07:35:17Z</time>
      </trkpt>
      <trkpt lat="42.595643" lon="-8.666585">
        <ele>16.6</ele>
        <time>2020-09-10T07:35:19Z</time>
      </trkpt>
      <trkpt lat="42.595703" lon="-8.666562">
        <ele>16.6</ele>
        <time>2020-09-10T07:35:20Z</time>
      </trkpt>
      <trkpt lat="42.595764" lon="-8.666540">
        <ele>16.5</ele>
        <time>2020-09-10T07:35:22Z</time>
      </trkpt>
      <trkpt lat="42.595833" lon="-8.666524">
        <ele>16.7</ele>
        <time>2020-09-10T07:35:24Z</time>
      </trkpt>
      <trkpt lat="42.595900" lon="-8.666511">
        <ele>16.8</ele>
        <time>2020-09-10T07:35:26Z</time>
      </trkpt>
      <trkpt lat="42.595964" lon="-8.666496">
        <ele>16.9</ele>
        <time>2020-09-10T07:35:27Z</time>
      </trkpt>
      <trkpt lat="42.596026" lon="-8.666476">
        <ele>17.0</ele>
        <time>2020-09-10T07:35:29Z</time>
      </trkpt>
      <trkpt lat="42.596080" lon="-8.666445">
        <ele>16.9</ele>
        <time>2020-09-10T07:35:31Z</time>
      </trkpt>
      <trkpt lat="42.596134" lon="-8.666409">
        <ele>16.7</ele>
        <time>2020-09-10T07:35:32Z</time>
      </trkpt>
      <trkpt lat="42.596198" lon="-8.666366">
        <ele>16.4</ele>
        <time>2020-09-10T07:35:34Z</time>
      </trkpt>
      <trkpt lat="42.596251" lon="-8.666320">
        <ele>16.2</ele>
        <time>2020-09-10T07:35:36Z</time>
      </trkpt>
      <trkpt lat="42.596301" lon="-8.666272">
        <ele>16.1</ele>
        <time>2020-09-10T07:35:38Z</time>
      </trkpt>
      <trkpt lat="42.596339" lon="-8.666212">
        <ele>16.2</ele>
        <time>2020-09-10T07:35:39Z</time>
      </trkpt>
      <trkpt lat="42.596368" lon="-8.666144">
        <ele>16.1</ele>
        <time>2020-09-10T07:35:41Z</time>
      </trkpt>
      <trkpt lat="42.596388" lon="-8.666094">
        <ele>16.1</ele>
        <time>2020-09-10T07:35:42Z</time>
      </trkpt>
      <trkpt lat="42.596413" lon="-8.666038">
        <ele>16.0</ele>
        <time>2020-09-10T07:35:43Z</time>
      </trkpt>
      <trkpt lat="42.596440" lon="-8.665963">
        <ele>15.8</ele>
        <time>2020-09-10T07:35:45Z</time>
      </trkpt>
      <trkpt lat="42.596482" lon="-8.665872">
        <ele>15.9</ele>
        <time>2020-09-10T07:35:47Z</time>
      </trkpt>
      <trkpt lat="42.596526" lon="-8.665787">
        <ele>16.0</ele>
        <time>2020-09-10T07:35:49Z</time>
      </trkpt>
      <trkpt lat="42.596590" lon="-8.665706">
        <ele>16.3</ele>
        <time>2020-09-10T07:35:51Z</time>
      </trkpt>
      <trkpt lat="42.596631" lon="-8.665633">
        <ele>16.2</ele>
        <time>2020-09-10T07:35:53Z</time>
      </trkpt>
      <trkpt lat="42.596671" lon="-8.665555">
        <ele>16.1</ele>
        <time>2020-09-10T07:35:55Z</time>
      </trkpt>
      <trkpt lat="42.596706" lon="-8.665483">
        <ele>16.1</ele>
        <time>2020-09-10T07:35:57Z</time>
      </trkpt>
      <trkpt lat="42.596749" lon="-8.665404">
        <ele>16.0</ele>
        <time>2020-09-10T07:35:58Z</time>
      </trkpt>
      <trkpt lat="42.596790" lon="-8.665318">
        <ele>16.0</ele>
        <time>2020-09-10T07:36:00Z</time>
      </trkpt>
      <trkpt lat="42.596808" lon="-8.665243">
        <ele>16.1</ele>
        <time>2020-09-10T07:36:02Z</time>
      </trkpt>
      <trkpt lat="42.596810" lon="-8.665169">
        <ele>16.1</ele>
        <time>2020-09-10T07:36:04Z</time>
      </trkpt>
      <trkpt lat="42.596804" lon="-8.665090">
        <ele>16.1</ele>
        <time>2020-09-10T07:36:05Z</time>
      </trkpt>
      <trkpt lat="42.596793" lon="-8.665006">
        <ele>16.0</ele>
        <time>2020-09-10T07:36:07Z</time>
      </trkpt>
      <trkpt lat="42.596785" lon="-8.664923">
        <ele>16.0</ele>
        <time>2020-09-10T07:36:08Z</time>
      </trkpt>
      <trkpt lat="42.596777" lon="-8.664849">
        <ele>16.0</ele>
        <time>2020-09-10T07:36:10Z</time>
      </trkpt>
      <trkpt lat="42.596765" lon="-8.664774">
        <ele>15.9</ele>
        <time>2020-09-10T07:36:11Z</time>
      </trkpt>
      <trkpt lat="42.596752" lon="-8.664699">
        <ele>15.9</ele>
        <time>2020-09-10T07:36:13Z</time>
      </trkpt>
      <trkpt lat="42.596745" lon="-8.664622">
        <ele>15.8</ele>
        <time>2020-09-10T07:36:14Z</time>
      </trkpt>
      <trkpt lat="42.596746" lon="-8.664547">
        <ele>15.8</ele>
        <time>2020-09-10T07:36:16Z</time>
      </trkpt>
      <trkpt lat="42.596751" lon="-8.664473">
        <ele>15.9</ele>
        <time>2020-09-10T07:36:17Z</time>
      </trkpt>
      <trkpt lat="42.596760" lon="-8.664392">
        <ele>15.9</ele>
        <time>2020-09-10T07:36:19Z</time>
      </trkpt>
      <trkpt lat="42.596773" lon="-8.664312">
        <ele>16.0</ele>
        <time>2020-09-10T07:36:21Z</time>
      </trkpt>
      <trkpt lat="42.596790" lon="-8.664237">
        <ele>16.1</ele>
        <time>2020-09-10T07:36:22Z</time>
      </trkpt>
      <trkpt lat="42.596808" lon="-8.664165">
        <ele>16.2</ele>
        <time>2020-09-10T07:36:24Z</time>
      </trkpt>
      <trkpt lat="42.596823" lon="-8.664095">
        <ele>16.2</ele>
        <time>2020-09-10T07:36:25Z</time>
      </trkpt>
      <trkpt lat="42.596834" lon="-8.664023">
        <ele>16.3</ele>
        <time>2020-09-10T07:36:26Z</time>
      </trkpt>
      <trkpt lat="42.596847" lon="-8.663945">
        <ele>16.3</ele>
        <time>2020-09-10T07:36:28Z</time>
      </trkpt>
      <trkpt lat="42.596864" lon="-8.663862">
        <ele>16.2</ele>
        <time>2020-09-10T07:36:30Z</time>
      </trkpt>
      <trkpt lat="42.596882" lon="-8.663783">
        <ele>16.2</ele>
        <time>2020-09-10T07:36:31Z</time>
      </trkpt>
      <trkpt lat="42.596905" lon="-8.663710">
        <ele>16.1</ele>
        <time>2020-09-10T07:36:33Z</time>
      </trkpt>
      <trkpt lat="42.596927" lon="-8.663643">
        <ele>16.0</ele>
        <time>2020-09-10T07:36:34Z</time>
      </trkpt>
      <trkpt lat="42.596954" lon="-8.663578">
        <ele>16.0</ele>
        <time>2020-09-10T07:36:36Z</time>
      </trkpt>
      <trkpt lat="42.596989" lon="-8.663510">
        <ele>16.0</ele>
        <time>2020-09-10T07:36:37Z</time>
      </trkpt>
      <trkpt lat="42.597030" lon="-8.663444">
        <ele>16.1</ele>
        <time>2020-09-10T07:36:39Z</time>
      </trkpt>
      <trkpt lat="42.597068" lon="-8.663373">
        <ele>16.1</ele>
        <time>2020-09-10T07:36:41Z</time>
      </trkpt>
      <trkpt lat="42.597096" lon="-8.663300">
        <ele>15.9</ele>
        <time>2020-09-10T07:36:42Z</time>
      </trkpt>
      <trkpt lat="42.597122" lon="-8.663230">
        <ele>15.8</ele>
        <time>2020-09-10T07:36:44Z</time>
      </trkpt>
      <trkpt lat="42.597148" lon="-8.663149">
        <ele>15.8</ele>
        <time>2020-09-10T07:36:46Z</time>
      </trkpt>
      <trkpt lat="42.597174" lon="-8.663062">
        <ele>15.8</ele>
        <time>2020-09-10T07:36:48Z</time>
      </trkpt>
      <trkpt lat="42.597192" lon="-8.662981">
        <ele>15.9</ele>
        <time>2020-09-10T07:36:49Z</time>
      </trkpt>
      <trkpt lat="42.597209" lon="-8.662901">
        <ele>16.1</ele>
        <time>2020-09-10T07:36:51Z</time>
      </trkpt>
      <trkpt lat="42.597223" lon="-8.662832">
        <ele>16.2</ele>
        <time>2020-09-10T07:36:52Z</time>
      </trkpt>
      <trkpt lat="42.597233" lon="-8.662769">
        <ele>16.3</ele>
        <time>2020-09-10T07:36:54Z</time>
      </trkpt>
      <trkpt lat="42.597239" lon="-8.662713">
        <ele>16.3</ele>
        <time>2020-09-10T07:36:55Z</time>
      </trkpt>
      <trkpt lat="42.597248" lon="-8.662665">
        <ele>16.4</ele>
        <time>2020-09-10T07:36:56Z</time>
      </trkpt>
      <trkpt lat="42.597262" lon="-8.662611">
        <ele>16.5</ele>
        <time>2020-09-10T07:36:57Z</time>
      </trkpt>
      <trkpt lat="42.597277" lon="-8.662542">
        <ele>16.6</ele>
        <time>2020-09-10T07:36:58Z</time>
      </trkpt>
      <trkpt lat="42.597296" lon="-8.662462">
        <ele>16.6</ele>
        <time>2020-09-10T07:37:00Z</time>
      </trkpt>
      <trkpt lat="42.597319" lon="-8.662378">
        <ele>16.7</ele>
        <time>2020-09-10T07:37:02Z</time>
      </trkpt>
      <trkpt lat="42.597344" lon="-8.662286">
        <ele>16.6</ele>
        <time>2020-09-10T07:37:04Z</time>
      </trkpt>
      <trkpt lat="42.597364" lon="-8.662203">
        <ele>16.6</ele>
        <time>2020-09-10T07:37:05Z</time>
      </trkpt>
      <trkpt lat="42.597381" lon="-8.662123">
        <ele>16.6</ele>
        <time>2020-09-10T07:37:07Z</time>
      </trkpt>
      <trkpt lat="42.597397" lon="-8.662045">
        <ele>16.6</ele>
        <time>2020-09-10T07:37:08Z</time>
      </trkpt>
      <trkpt lat="42.597412" lon="-8.661966">
        <ele>16.6</ele>
        <time>2020-09-10T07:37:10Z</time>
      </trkpt>
      <trkpt lat="42.597432" lon="-8.661880">
        <ele>16.6</ele>
        <time>2020-09-10T07:37:12Z</time>
      </trkpt>
      <trkpt lat="42.597447" lon="-8.661796">
        <ele>16.5</ele>
        <time>2020-09-10T07:37:14Z</time>
      </trkpt>
      <trkpt lat="42.597464" lon="-8.661707">
        <ele>16.3</ele>
        <time>2020-09-10T07:37:15Z</time>
      </trkpt>
      <trkpt lat="42.597475" lon="-8.661622">
        <ele>16.3</ele>
        <time>2020-09-10T07:37:17Z</time>
      </trkpt>
      <trkpt lat="42.597485" lon="-8.661534">
        <ele>16.3</ele>
        <time>2020-09-10T07:37:19Z</time>
      </trkpt>
      <trkpt lat="42.597499" lon="-8.661453">
        <ele>16.3</ele>
        <time>2020-09-10T07:37:20Z</time>
      </trkpt>
      <trkpt lat="42.597512" lon="-8.661368">
        <ele>16.3</ele>
        <time>2020-09-10T07:37:22Z</time>
      </trkpt>
      <trkpt lat="42.597532" lon="-8.661284">
        <ele>16.4</ele>
        <time>2020-09-10T07:37:24Z</time>
      </trkpt>
      <trkpt lat="42.597561" lon="-8.661197">
        <ele>16.6</ele>
        <time>2020-09-10T07:37:26Z</time>
      </trkpt>
      <trkpt lat="42.597588" lon="-8.661115">
        <ele>16.6</ele>
        <time>2020-09-10T07:37:27Z</time>
      </trkpt>
      <trkpt lat="42.597612" lon="-8.661035">
        <ele>16.6</ele>
        <time>2020-09-10T07:37:29Z</time>
      </trkpt>
      <trkpt lat="42.597640" lon="-8.660959">
        <ele>16.6</ele>
        <time>2020-09-10T07:37:31Z</time>
      </trkpt>
      <trkpt lat="42.597686" lon="-8.660887">
        <ele>16.5</ele>
        <time>2020-09-10T07:37:33Z</time>
      </trkpt>
      <trkpt lat="42.597735" lon="-8.660821">
        <ele>16.6</ele>
        <time>2020-09-10T07:37:35Z</time>
      </trkpt>
      <trkpt lat="42.597783" lon="-8.660747">
        <ele>16.6</ele>
        <time>2020-09-10T07:37:37Z</time>
      </trkpt>
      <trkpt lat="42.597824" lon="-8.660675">
        <ele>16.7</ele>
        <time>2020-09-10T07:37:38Z</time>
      </trkpt>
      <trkpt lat="42.597854" lon="-8.660602">
        <ele>16.7</ele>
        <time>2020-09-10T07:37:40Z</time>
      </trkpt>
      <trkpt lat="42.597878" lon="-8.660525">
        <ele>16.7</ele>
        <time>2020-09-10T07:37:42Z</time>
      </trkpt>
      <trkpt lat="42.597890" lon="-8.660436">
        <ele>16.9</ele>
        <time>2020-09-10T07:37:43Z</time>
      </trkpt>
      <trkpt lat="42.597889" lon="-8.660350">
        <ele>17.1</ele>
        <time>2020-09-10T07:37:45Z</time>
      </trkpt>
      <trkpt lat="42.597872" lon="-8.660274">
        <ele>17.3</ele>
        <time>2020-09-10T07:37:47Z</time>
      </trkpt>
      <trkpt lat="42.597844" lon="-8.660205">
        <ele>17.1</ele>
        <time>2020-09-10T07:37:48Z</time>
      </trkpt>
      <trkpt lat="42.597815" lon="-8.660129">
        <ele>17.0</ele>
        <time>2020-09-10T07:37:50Z</time>
      </trkpt>
      <trkpt lat="42.597788" lon="-8.660045">
        <ele>16.9</ele>
        <time>2020-09-10T07:37:52Z</time>
      </trkpt>
      <trkpt lat="42.597767" lon="-8.659959">
        <ele>16.7</ele>
        <time>2020-09-10T07:37:53Z</time>
      </trkpt>
      <trkpt lat="42.597755" lon="-8.659871">
        <ele>16.5</ele>
        <time>2020-09-10T07:37:55Z</time>
      </trkpt>
      <trkpt lat="42.597754" lon="-8.659779">
        <ele>16.5</ele>
        <time>2020-09-10T07:37:57Z</time>
      </trkpt>
      <trkpt lat="42.597762" lon="-8.659685">
        <ele>16.5</ele>
        <time>2020-09-10T07:37:59Z</time>
      </trkpt>
      <trkpt lat="42.597776" lon="-8.659594">
        <ele>16.6</ele>
        <time>2020-09-10T07:38:01Z</time>
      </trkpt>
      <trkpt lat="42.597791" lon="-8.659506">
        <ele>16.5</ele>
        <time>2020-09-10T07:38:02Z</time>
      </trkpt>
      <trkpt lat="42.597807" lon="-8.659418">
        <ele>16.5</ele>
        <time>2020-09-10T07:38:04Z</time>
      </trkpt>
      <trkpt lat="42.597829" lon="-8.659333">
        <ele>16.5</ele>
        <time>2020-09-10T07:38:06Z</time>
      </trkpt>
      <trkpt lat="42.597862" lon="-8.659229">
        <ele>16.6</ele>
        <time>2020-09-10T07:38:08Z</time>
      </trkpt>
      <trkpt lat="42.597885" lon="-8.659160">
        <ele>16.7</ele>
        <time>2020-09-10T07:38:10Z</time>
      </trkpt>
      <trkpt lat="42.597907" lon="-8.659064">
        <ele>16.8</ele>
        <time>2020-09-10T07:38:12Z</time>
      </trkpt>
      <trkpt lat="42.597920" lon="-8.658965">
        <ele>16.9</ele>
        <time>2020-09-10T07:38:14Z</time>
      </trkpt>
      <trkpt lat="42.597932" lon="-8.658865">
        <ele>17.0</ele>
        <time>2020-09-10T07:38:16Z</time>
      </trkpt>
      <trkpt lat="42.597941" lon="-8.658767">
        <ele>17.1</ele>
        <time>2020-09-10T07:38:18Z</time>
      </trkpt>
      <trkpt lat="42.597944" lon="-8.658668">
        <ele>17.1</ele>
        <time>2020-09-10T07:38:20Z</time>
      </trkpt>
      <trkpt lat="42.597939" lon="-8.658570">
        <ele>17.1</ele>
        <time>2020-09-10T07:38:21Z</time>
      </trkpt>
      <trkpt lat="42.597925" lon="-8.658475">
        <ele>17.0</ele>
        <time>2020-09-10T07:38:23Z</time>
      </trkpt>
      <trkpt lat="42.597904" lon="-8.658381">
        <ele>16.9</ele>
        <time>2020-09-10T07:38:25Z</time>
      </trkpt>
      <trkpt lat="42.597883" lon="-8.658287">
        <ele>16.9</ele>
        <time>2020-09-10T07:38:27Z</time>
      </trkpt>
      <trkpt lat="42.597862" lon="-8.658197">
        <ele>16.9</ele>
        <time>2020-09-10T07:38:29Z</time>
      </trkpt>
      <trkpt lat="42.597833" lon="-8.658113">
        <ele>17.1</ele>
        <time>2020-09-10T07:38:31Z</time>
      </trkpt>
      <trkpt lat="42.597795" lon="-8.658034">
        <ele>17.3</ele>
        <time>2020-09-10T07:38:33Z</time>
      </trkpt>
      <trkpt lat="42.597744" lon="-8.657967">
        <ele>17.2</ele>
        <time>2020-09-10T07:38:35Z</time>
      </trkpt>
      <trkpt lat="42.597675" lon="-8.657910">
        <ele>17.1</ele>
        <time>2020-09-10T07:38:37Z</time>
      </trkpt>
      <trkpt lat="42.597619" lon="-8.657847">
        <ele>17.0</ele>
        <time>2020-09-10T07:38:39Z</time>
      </trkpt>
      <trkpt lat="42.597564" lon="-8.657791">
        <ele>17.1</ele>
        <time>2020-09-10T07:38:41Z</time>
      </trkpt>
      <trkpt lat="42.597513" lon="-8.657745">
        <ele>17.0</ele>
        <time>2020-09-10T07:38:42Z</time>
      </trkpt>
      <trkpt lat="42.597466" lon="-8.657708">
        <ele>17.0</ele>
        <time>2020-09-10T07:38:44Z</time>
      </trkpt>
      <trkpt lat="42.597414" lon="-8.657673">
        <ele>16.9</ele>
        <time>2020-09-10T07:38:45Z</time>
      </trkpt>
      <trkpt lat="42.597356" lon="-8.657631">
        <ele>16.9</ele>
        <time>2020-09-10T07:38:47Z</time>
      </trkpt>
      <trkpt lat="42.597293" lon="-8.657583">
        <ele>16.9</ele>
        <time>2020-09-10T07:38:49Z</time>
      </trkpt>
      <trkpt lat="42.597229" lon="-8.657536">
        <ele>16.9</ele>
        <time>2020-09-10T07:38:51Z</time>
      </trkpt>
      <trkpt lat="42.597155" lon="-8.657488">
        <ele>16.9</ele>
        <time>2020-09-10T07:38:53Z</time>
      </trkpt>
      <trkpt lat="42.597091" lon="-8.657437">
        <ele>16.9</ele>
        <time>2020-09-10T07:38:55Z</time>
      </trkpt>
      <trkpt lat="42.597029" lon="-8.657383">
        <ele>17.0</ele>
        <time>2020-09-10T07:38:57Z</time>
      </trkpt>
      <trkpt lat="42.596966" lon="-8.657330">
        <ele>17.0</ele>
        <time>2020-09-10T07:38:59Z</time>
      </trkpt>
      <trkpt lat="42.596910" lon="-8.657273">
        <ele>17.1</ele>
        <time>2020-09-10T07:39:01Z</time>
      </trkpt>
      <trkpt lat="42.596860" lon="-8.657201">
        <ele>17.3</ele>
        <time>2020-09-10T07:39:03Z</time>
      </trkpt>
      <trkpt lat="42.596817" lon="-8.657112">
        <ele>17.7</ele>
        <time>2020-09-10T07:39:05Z</time>
      </trkpt>
      <trkpt lat="42.596786" lon="-8.657016">
        <ele>18.0</ele>
        <time>2020-09-10T07:39:07Z</time>
      </trkpt>
      <trkpt lat="42.596756" lon="-8.656923">
        <ele>18.0</ele>
        <time>2020-09-10T07:39:09Z</time>
      </trkpt>
      <trkpt lat="42.596723" lon="-8.656835">
        <ele>18.0</ele>
        <time>2020-09-10T07:39:11Z</time>
      </trkpt>
      <trkpt lat="42.596691" lon="-8.656748">
        <ele>18.0</ele>
        <time>2020-09-10T07:39:13Z</time>
      </trkpt>
      <trkpt lat="42.596656" lon="-8.656660">
        <ele>17.9</ele>
        <time>2020-09-10T07:39:15Z</time>
      </trkpt>
      <trkpt lat="42.596621" lon="-8.656571">
        <ele>17.7</ele>
        <time>2020-09-10T07:39:17Z</time>
      </trkpt>
      <trkpt lat="42.596584" lon="-8.656477">
        <ele>17.3</ele>
        <time>2020-09-10T07:39:19Z</time>
      </trkpt>
      <trkpt lat="42.596564" lon="-8.656381">
        <ele>17.0</ele>
        <time>2020-09-10T07:39:21Z</time>
      </trkpt>
      <trkpt lat="42.596560" lon="-8.656282">
        <ele>16.9</ele>
        <time>2020-09-10T07:39:23Z</time>
      </trkpt>
      <trkpt lat="42.596577" lon="-8.656190">
        <ele>16.9</ele>
        <time>2020-09-10T07:39:25Z</time>
      </trkpt>
      <trkpt lat="42.596608" lon="-8.656097">
        <ele>17.0</ele>
        <time>2020-09-10T07:39:27Z</time>
      </trkpt>
      <trkpt lat="42.596644" lon="-8.656005">
        <ele>17.0</ele>
        <time>2020-09-10T07:39:29Z</time>
      </trkpt>
      <trkpt lat="42.596680" lon="-8.655922">
        <ele>16.9</ele>
        <time>2020-09-10T07:39:30Z</time>
      </trkpt>
      <trkpt lat="42.596722" lon="-8.655842">
        <ele>16.8</ele>
        <time>2020-09-10T07:39:32Z</time>
      </trkpt>
      <trkpt lat="42.596766" lon="-8.655763">
        <ele>16.8</ele>
        <time>2020-09-10T07:39:34Z</time>
      </trkpt>
      <trkpt lat="42.596814" lon="-8.655694">
        <ele>16.8</ele>
        <time>2020-09-10T07:39:36Z</time>
      </trkpt>
      <trkpt lat="42.596868" lon="-8.655633">
        <ele>16.9</ele>
        <time>2020-09-10T07:39:38Z</time>
      </trkpt>
      <trkpt lat="42.596924" lon="-8.655581">
        <ele>16.9</ele>
        <time>2020-09-10T07:39:40Z</time>
      </trkpt>
      <trkpt lat="42.596985" lon="-8.655535">
        <ele>16.9</ele>
        <time>2020-09-10T07:39:42Z</time>
      </trkpt>
      <trkpt lat="42.597050" lon="-8.655495">
        <ele>16.9</ele>
        <time>2020-09-10T07:39:44Z</time>
      </trkpt>
      <trkpt lat="42.597116" lon="-8.655456">
        <ele>16.9</ele>
        <time>2020-09-10T07:39:46Z</time>
      </trkpt>
      <trkpt lat="42.597181" lon="-8.655413">
        <ele>16.9</ele>
        <time>2020-09-10T07:39:48Z</time>
      </trkpt>
      <trkpt lat="42.597245" lon="-8.655361">
        <ele>17.0</ele>
        <time>2020-09-10T07:39:50Z</time>
      </trkpt>
      <trkpt lat="42.597311" lon="-8.655310">
        <ele>16.9</ele>
        <time>2020-09-10T07:39:52Z</time>
      </trkpt>
      <trkpt lat="42.597377" lon="-8.655262">
        <ele>16.8</ele>
        <time>2020-09-10T07:39:54Z</time>
      </trkpt>
      <trkpt lat="42.597443" lon="-8.655213">
        <ele>16.8</ele>
        <time>2020-09-10T07:39:56Z</time>
      </trkpt>
      <trkpt lat="42.597509" lon="-8.655161">
        <ele>17.0</ele>
        <time>2020-09-10T07:39:58Z</time>
      </trkpt>
      <trkpt lat="42.597574" lon="-8.655106">
        <ele>17.1</ele>
        <time>2020-09-10T07:40:00Z</time>
      </trkpt>
      <trkpt lat="42.597637" lon="-8.655047">
        <ele>17.1</ele>
        <time>2020-09-10T07:40:02Z</time>
      </trkpt>
      <trkpt lat="42.597694" lon="-8.654986">
        <ele>17.0</ele>
        <time>2020-09-10T07:40:04Z</time>
      </trkpt>
      <trkpt lat="42.597746" lon="-8.654920">
        <ele>16.9</ele>
        <time>2020-09-10T07:40:05Z</time>
      </trkpt>
      <trkpt lat="42.597796" lon="-8.654847">
        <ele>16.7</ele>
        <time>2020-09-10T07:40:07Z</time>
      </trkpt>
      <trkpt lat="42.597843" lon="-8.654769">
        <ele>16.6</ele>
        <time>2020-09-10T07:40:09Z</time>
      </trkpt>
      <trkpt lat="42.597890" lon="-8.654691">
        <ele>16.6</ele>
        <time>2020-09-10T07:40:11Z</time>
      </trkpt>
      <trkpt lat="42.597935" lon="-8.654607">
        <ele>16.6</ele>
        <time>2020-09-10T07:40:13Z</time>
      </trkpt>
      <trkpt lat="42.597976" lon="-8.654519">
        <ele>16.6</ele>
        <time>2020-09-10T07:40:16Z</time>
      </trkpt>
      <trkpt lat="42.598016" lon="-8.654429">
        <ele>16.7</ele>
        <time>2020-09-10T07:40:18Z</time>
      </trkpt>
      <trkpt lat="42.598059" lon="-8.654340">
        <ele>16.8</ele>
        <time>2020-09-10T07:40:20Z</time>
      </trkpt>
      <trkpt lat="42.598098" lon="-8.654249">
        <ele>16.9</ele>
        <time>2020-09-10T07:40:22Z</time>
      </trkpt>
      <trkpt lat="42.598138" lon="-8.654164">
        <ele>17.1</ele>
        <time>2020-09-10T07:40:24Z</time>
      </trkpt>
      <trkpt lat="42.598182" lon="-8.654088">
        <ele>17.3</ele>
        <time>2020-09-10T07:40:26Z</time>
      </trkpt>
      <trkpt lat="42.598233" lon="-8.654022">
        <ele>17.4</ele>
        <time>2020-09-10T07:40:27Z</time>
      </trkpt>
      <trkpt lat="42.598289" lon="-8.653963">
        <ele>17.5</ele>
        <time>2020-09-10T07:40:29Z</time>
      </trkpt>
      <trkpt lat="42.598346" lon="-8.653907">
        <ele>17.4</ele>
        <time>2020-09-10T07:40:31Z</time>
      </trkpt>
      <trkpt lat="42.598406" lon="-8.653857">
        <ele>17.3</ele>
        <time>2020-09-10T07:40:33Z</time>
      </trkpt>
      <trkpt lat="42.598465" lon="-8.653820">
        <ele>17.3</ele>
        <time>2020-09-10T07:40:35Z</time>
      </trkpt>
      <trkpt lat="42.598515" lon="-8.653791">
        <ele>17.3</ele>
        <time>2020-09-10T07:40:36Z</time>
      </trkpt>
      <trkpt lat="42.598566" lon="-8.653778">
        <ele>17.2</ele>
        <time>2020-09-10T07:40:38Z</time>
      </trkpt>
      <trkpt lat="42.598626" lon="-8.653786">
        <ele>17.3</ele>
        <time>2020-09-10T07:40:39Z</time>
      </trkpt>
      <trkpt lat="42.598693" lon="-8.653799">
        <ele>17.3</ele>
        <time>2020-09-10T07:40:41Z</time>
      </trkpt>
      <trkpt lat="42.598764" lon="-8.653824">
        <ele>17.3</ele>
        <time>2020-09-10T07:40:43Z</time>
      </trkpt>
      <trkpt lat="42.598834" lon="-8.653853">
        <ele>17.2</ele>
        <time>2020-09-10T07:40:45Z</time>
      </trkpt>
      <trkpt lat="42.598903" lon="-8.653885">
        <ele>17.1</ele>
        <time>2020-09-10T07:40:47Z</time>
      </trkpt>
      <trkpt lat="42.598972" lon="-8.653920">
        <ele>17.2</ele>
        <time>2020-09-10T07:40:49Z</time>
      </trkpt>
      <trkpt lat="42.599036" lon="-8.653956">
        <ele>17.2</ele>
        <time>2020-09-10T07:40:51Z</time>
      </trkpt>
      <trkpt lat="42.599103" lon="-8.653992">
        <ele>17.2</ele>
        <time>2020-09-10T07:40:53Z</time>
      </trkpt>
      <trkpt lat="42.599177" lon="-8.654025">
        <ele>17.1</ele>
        <time>2020-09-10T07:40:55Z</time>
      </trkpt>
      <trkpt lat="42.599254" lon="-8.654058">
        <ele>17.1</ele>
        <time>2020-09-10T07:40:57Z</time>
      </trkpt>
      <trkpt lat="42.599330" lon="-8.654088">
        <ele>17.2</ele>
        <time>2020-09-10T07:40:59Z</time>
      </trkpt>
      <trkpt lat="42.599404" lon="-8.654113">
        <ele>17.3</ele>
        <time>2020-09-10T07:41:01Z</time>
      </trkpt>
      <trkpt lat="42.599479" lon="-8.654129">
        <ele>17.4</ele>
        <time>2020-09-10T07:41:03Z</time>
      </trkpt>
      <trkpt lat="42.599561" lon="-8.654140">
        <ele>17.4</ele>
        <time>2020-09-10T07:41:05Z</time>
      </trkpt>
      <trkpt lat="42.599637" lon="-8.654140">
        <ele>17.4</ele>
        <time>2020-09-10T07:41:07Z</time>
      </trkpt>
      <trkpt lat="42.599714" lon="-8.654128">
        <ele>17.4</ele>
        <time>2020-09-10T07:41:09Z</time>
      </trkpt>
      <trkpt lat="42.599798" lon="-8.654106">
        <ele>17.3</ele>
        <time>2020-09-10T07:41:12Z</time>
      </trkpt>
      <trkpt lat="42.599870" lon="-8.654072">
        <ele>17.2</ele>
        <time>2020-09-10T07:41:14Z</time>
      </trkpt>
      <trkpt lat="42.599939" lon="-8.654026">
        <ele>17.3</ele>
        <time>2020-09-10T07:41:16Z</time>
      </trkpt>
      <trkpt lat="42.600002" lon="-8.653964">
        <ele>17.6</ele>
        <time>2020-09-10T07:41:18Z</time>
      </trkpt>
      <trkpt lat="42.600061" lon="-8.653900">
        <ele>17.9</ele>
        <time>2020-09-10T07:41:20Z</time>
      </trkpt>
      <trkpt lat="42.600118" lon="-8.653826">
        <ele>18.2</ele>
        <time>2020-09-10T07:41:22Z</time>
      </trkpt>
      <trkpt lat="42.600171" lon="-8.653761">
        <ele>18.3</ele>
        <time>2020-09-10T07:41:24Z</time>
      </trkpt>
      <trkpt lat="42.600227" lon="-8.653702">
        <ele>18.4</ele>
        <time>2020-09-10T07:41:26Z</time>
      </trkpt>
      <trkpt lat="42.600281" lon="-8.653635">
        <ele>18.4</ele>
        <time>2020-09-10T07:41:28Z</time>
      </trkpt>
      <trkpt lat="42.600333" lon="-8.653566">
        <ele>18.5</ele>
        <time>2020-09-10T07:41:30Z</time>
      </trkpt>
      <trkpt lat="42.600383" lon="-8.653497">
        <ele>18.3</ele>
        <time>2020-09-10T07:41:32Z</time>
      </trkpt>
      <trkpt lat="42.600433" lon="-8.653435">
        <ele>18.1</ele>
        <time>2020-09-10T07:41:33Z</time>
      </trkpt>
      <trkpt lat="42.600485" lon="-8.653373">
        <ele>18.0</ele>
        <time>2020-09-10T07:41:35Z</time>
      </trkpt>
      <trkpt lat="42.600532" lon="-8.653307">
        <ele>18.0</ele>
        <time>2020-09-10T07:41:37Z</time>
      </trkpt>
      <trkpt lat="42.600578" lon="-8.653239">
        <ele>18.1</ele>
        <time>2020-09-10T07:41:39Z</time>
      </trkpt>
      <trkpt lat="42.600625" lon="-8.653172">
        <ele>18.1</ele>
        <time>2020-09-10T07:41:41Z</time>
      </trkpt>
      <trkpt lat="42.600671" lon="-8.653105">
        <ele>18.2</ele>
        <time>2020-09-10T07:41:42Z</time>
      </trkpt>
      <trkpt lat="42.600708" lon="-8.653036">
        <ele>18.0</ele>
        <time>2020-09-10T07:41:44Z</time>
      </trkpt>
      <trkpt lat="42.600741" lon="-8.652967">
        <ele>17.8</ele>
        <time>2020-09-10T07:41:46Z</time>
      </trkpt>
      <trkpt lat="42.600773" lon="-8.652898">
        <ele>17.6</ele>
        <time>2020-09-10T07:41:47Z</time>
      </trkpt>
      <trkpt lat="42.600804" lon="-8.652824">
        <ele>17.6</ele>
        <time>2020-09-10T07:41:49Z</time>
      </trkpt>
      <trkpt lat="42.600831" lon="-8.652745">
        <ele>17.4</ele>
        <time>2020-09-10T07:41:51Z</time>
      </trkpt>
      <trkpt lat="42.600854" lon="-8.652661">
        <ele>17.1</ele>
        <time>2020-09-10T07:41:52Z</time>
      </trkpt>
      <trkpt lat="42.600879" lon="-8.652570">
        <ele>16.9</ele>
        <time>2020-09-10T07:41:54Z</time>
      </trkpt>
      <trkpt lat="42.600904" lon="-8.652477">
        <ele>16.8</ele>
        <time>2020-09-10T07:41:56Z</time>
      </trkpt>
      <trkpt lat="42.600931" lon="-8.652381">
        <ele>16.8</ele>
        <time>2020-09-10T07:41:58Z</time>
      </trkpt>
      <trkpt lat="42.600955" lon="-8.652286">
        <ele>16.9</ele>
        <time>2020-09-10T07:42:00Z</time>
      </trkpt>
      <trkpt lat="42.600976" lon="-8.652188">
        <ele>17.0</ele>
        <time>2020-09-10T07:42:02Z</time>
      </trkpt>
      <trkpt lat="42.600993" lon="-8.652091">
        <ele>17.0</ele>
        <time>2020-09-10T07:42:04Z</time>
      </trkpt>
      <trkpt lat="42.601009" lon="-8.651993">
        <ele>17.1</ele>
        <time>2020-09-10T07:42:06Z</time>
      </trkpt>
      <trkpt lat="42.601026" lon="-8.651896">
        <ele>17.1</ele>
        <time>2020-09-10T07:42:08Z</time>
      </trkpt>
      <trkpt lat="42.601042" lon="-8.651802">
        <ele>17.1</ele>
        <time>2020-09-10T07:42:10Z</time>
      </trkpt>
      <trkpt lat="42.601059" lon="-8.651714">
        <ele>17.1</ele>
        <time>2020-09-10T07:42:12Z</time>
      </trkpt>
      <trkpt lat="42.601073" lon="-8.651634">
        <ele>17.1</ele>
        <time>2020-09-10T07:42:14Z</time>
      </trkpt>
      <trkpt lat="42.601092" lon="-8.651565">
        <ele>17.2</ele>
        <time>2020-09-10T07:42:15Z</time>
      </trkpt>
      <trkpt lat="42.601123" lon="-8.651514">
        <ele>17.3</ele>
        <time>2020-09-10T07:42:16Z</time>
      </trkpt>
      <trkpt lat="42.601166" lon="-8.651485">
        <ele>17.5</ele>
        <time>2020-09-10T07:42:18Z</time>
      </trkpt>
      <trkpt lat="42.601215" lon="-8.651471">
        <ele>17.6</ele>
        <time>2020-09-10T07:42:19Z</time>
      </trkpt>
      <trkpt lat="42.601267" lon="-8.651465">
        <ele>17.8</ele>
        <time>2020-09-10T07:42:20Z</time>
      </trkpt>
      <trkpt lat="42.601325" lon="-8.651461">
        <ele>17.9</ele>
        <time>2020-09-10T07:42:22Z</time>
      </trkpt>
      <trkpt lat="42.601388" lon="-8.651460">
        <ele>18.1</ele>
        <time>2020-09-10T07:42:24Z</time>
      </trkpt>
      <trkpt lat="42.601447" lon="-8.651453">
        <ele>18.2</ele>
        <time>2020-09-10T07:42:25Z</time>
      </trkpt>
      <trkpt lat="42.601506" lon="-8.651445">
        <ele>18.3</ele>
        <time>2020-09-10T07:42:27Z</time>
      </trkpt>
      <trkpt lat="42.601567" lon="-8.651439">
        <ele>18.4</ele>
        <time>2020-09-10T07:42:28Z</time>
      </trkpt>
      <trkpt lat="42.601626" lon="-8.651431">
        <ele>18.6</ele>
        <time>2020-09-10T07:42:30Z</time>
      </trkpt>
      <trkpt lat="42.601685" lon="-8.651426">
        <ele>18.7</ele>
        <time>2020-09-10T07:42:31Z</time>
      </trkpt>
      <trkpt lat="42.601744" lon="-8.651423">
        <ele>18.9</ele>
        <time>2020-09-10T07:42:33Z</time>
      </trkpt>
      <trkpt lat="42.601803" lon="-8.651418">
        <ele>18.9</ele>
        <time>2020-09-10T07:42:35Z</time>
      </trkpt>
      <trkpt lat="42.601863" lon="-8.651410">
        <ele>18.9</ele>
        <time>2020-09-10T07:42:36Z</time>
      </trkpt>
      <trkpt lat="42.601925" lon="-8.651402">
        <ele>18.9</ele>
        <time>2020-09-10T07:42:38Z</time>
      </trkpt>
      <trkpt lat="42.601986" lon="-8.651393">
        <ele>18.9</ele>
        <time>2020-09-10T07:42:39Z</time>
      </trkpt>
      <trkpt lat="42.602049" lon="-8.651387">
        <ele>18.9</ele>
        <time>2020-09-10T07:42:41Z</time>
      </trkpt>
      <trkpt lat="42.602114" lon="-8.651383">
        <ele>18.9</ele>
        <time>2020-09-10T07:42:43Z</time>
      </trkpt>
      <trkpt lat="42.602178" lon="-8.651382">
        <ele>18.9</ele>
        <time>2020-09-10T07:42:45Z</time>
      </trkpt>
      <trkpt lat="42.602243" lon="-8.651378">
        <ele>18.9</ele>
        <time>2020-09-10T07:42:46Z</time>
      </trkpt>
      <trkpt lat="42.602306" lon="-8.651369">
        <ele>19.0</ele>
        <time>2020-09-10T07:42:48Z</time>
      </trkpt>
      <trkpt lat="42.602370" lon="-8.651358">
        <ele>19.0</ele>
        <time>2020-09-10T07:42:50Z</time>
      </trkpt>
      <trkpt lat="42.602433" lon="-8.651347">
        <ele>19.1</ele>
        <time>2020-09-10T07:42:51Z</time>
      </trkpt>
      <trkpt lat="42.602498" lon="-8.651331">
        <ele>19.3</ele>
        <time>2020-09-10T07:42:53Z</time>
      </trkpt>
      <trkpt lat="42.602563" lon="-8.651314">
        <ele>19.5</ele>
        <time>2020-09-10T07:42:55Z</time>
      </trkpt>
      <trkpt lat="42.602624" lon="-8.651294">
        <ele>19.7</ele>
        <time>2020-09-10T07:42:57Z</time>
      </trkpt>
      <trkpt lat="42.602682" lon="-8.651273">
        <ele>19.8</ele>
        <time>2020-09-10T07:42:58Z</time>
      </trkpt>
      <trkpt lat="42.602738" lon="-8.651252">
        <ele>19.9</ele>
        <time>2020-09-10T07:43:00Z</time>
      </trkpt>
      <trkpt lat="42.602792" lon="-8.651234">
        <ele>19.9</ele>
        <time>2020-09-10T07:43:01Z</time>
      </trkpt>
      <trkpt lat="42.602850" lon="-8.651220">
        <ele>19.9</ele>
        <time>2020-09-10T07:43:03Z</time>
      </trkpt>
      <trkpt lat="42.602908" lon="-8.651207">
        <ele>19.9</ele>
        <time>2020-09-10T07:43:04Z</time>
      </trkpt>
      <trkpt lat="42.602968" lon="-8.651191">
        <ele>20.0</ele>
        <time>2020-09-10T07:43:06Z</time>
      </trkpt>
      <trkpt lat="42.603029" lon="-8.651180">
        <ele>20.1</ele>
        <time>2020-09-10T07:43:08Z</time>
      </trkpt>
      <trkpt lat="42.603090" lon="-8.651170">
        <ele>20.2</ele>
        <time>2020-09-10T07:43:09Z</time>
      </trkpt>
      <trkpt lat="42.603150" lon="-8.651160">
        <ele>20.3</ele>
        <time>2020-09-10T07:43:11Z</time>
      </trkpt>
      <trkpt lat="42.603212" lon="-8.651152">
        <ele>20.4</ele>
        <time>2020-09-10T07:43:13Z</time>
      </trkpt>
      <trkpt lat="42.603273" lon="-8.651144">
        <ele>20.5</ele>
        <time>2020-09-10T07:43:14Z</time>
      </trkpt>
      <trkpt lat="42.603332" lon="-8.651132">
        <ele>20.6</ele>
        <time>2020-09-10T07:43:16Z</time>
      </trkpt>
      <trkpt lat="42.603394" lon="-8.651120">
        <ele>20.7</ele>
        <time>2020-09-10T07:43:18Z</time>
      </trkpt>
      <trkpt lat="42.603454" lon="-8.651108">
        <ele>20.8</ele>
        <time>2020-09-10T07:43:19Z</time>
      </trkpt>
      <trkpt lat="42.603514" lon="-8.651096">
        <ele>20.9</ele>
        <time>2020-09-10T07:43:21Z</time>
      </trkpt>
      <trkpt lat="42.603573" lon="-8.651087">
        <ele>21.0</ele>
        <time>2020-09-10T07:43:22Z</time>
      </trkpt>
      <trkpt lat="42.603631" lon="-8.651082">
        <ele>21.0</ele>
        <time>2020-09-10T07:43:24Z</time>
      </trkpt>
      <trkpt lat="42.603690" lon="-8.651078">
        <ele>21.0</ele>
        <time>2020-09-10T07:43:25Z</time>
      </trkpt>
      <trkpt lat="42.603744" lon="-8.651072">
        <ele>21.0</ele>
        <time>2020-09-10T07:43:27Z</time>
      </trkpt>
      <trkpt lat="42.603796" lon="-8.651064">
        <ele>21.0</ele>
        <time>2020-09-10T07:43:28Z</time>
      </trkpt>
      <trkpt lat="42.603849" lon="-8.651049">
        <ele>21.1</ele>
        <time>2020-09-10T07:43:30Z</time>
      </trkpt>
      <trkpt lat="42.603896" lon="-8.651017">
        <ele>21.1</ele>
        <time>2020-09-10T07:43:31Z</time>
      </trkpt>
      <trkpt lat="42.603932" lon="-8.650970">
        <ele>21.2</ele>
        <time>2020-09-10T07:43:32Z</time>
      </trkpt>
      <trkpt lat="42.603964" lon="-8.650916">
        <ele>21.2</ele>
        <time>2020-09-10T07:43:34Z</time>
      </trkpt>
      <trkpt lat="42.603993" lon="-8.650851">
        <ele>21.3</ele>
        <time>2020-09-10T07:43:35Z</time>
      </trkpt>
      <trkpt lat="42.604017" lon="-8.650782">
        <ele>21.3</ele>
        <time>2020-09-10T07:43:37Z</time>
      </trkpt>
      <trkpt lat="42.604038" lon="-8.650707">
        <ele>21.5</ele>
        <time>2020-09-10T07:43:38Z</time>
      </trkpt>
      <trkpt lat="42.604058" lon="-8.650629">
        <ele>21.6</ele>
        <time>2020-09-10T07:43:40Z</time>
      </trkpt>
      <trkpt lat="42.604075" lon="-8.650550">
        <ele>21.8</ele>
        <time>2020-09-10T07:43:42Z</time>
      </trkpt>
      <trkpt lat="42.604099" lon="-8.650471">
        <ele>22.0</ele>
        <time>2020-09-10T07:43:43Z</time>
      </trkpt>
      <trkpt lat="42.604119" lon="-8.650386">
        <ele>22.2</ele>
        <time>2020-09-10T07:43:45Z</time>
      </trkpt>
      <trkpt lat="42.604137" lon="-8.650304">
        <ele>22.3</ele>
        <time>2020-09-10T07:43:47Z</time>
      </trkpt>
      <trkpt lat="42.604157" lon="-8.650216">
        <ele>22.3</ele>
        <time>2020-09-10T07:43:49Z</time>
      </trkpt>
      <trkpt lat="42.604177" lon="-8.650127">
        <ele>22.3</ele>
        <time>2020-09-10T07:43:50Z</time>
      </trkpt>
      <trkpt lat="42.604198" lon="-8.650037">
        <ele>22.3</ele>
        <time>2020-09-10T07:43:52Z</time>
      </trkpt>
      <trkpt lat="42.604222" lon="-8.649946">
        <ele>22.3</ele>
        <time>2020-09-10T07:43:54Z</time>
      </trkpt>
      <trkpt lat="42.604246" lon="-8.649858">
        <ele>22.4</ele>
        <time>2020-09-10T07:43:56Z</time>
      </trkpt>
      <trkpt lat="42.604266" lon="-8.649767">
        <ele>22.3</ele>
        <time>2020-09-10T07:43:58Z</time>
      </trkpt>
      <trkpt lat="42.604285" lon="-8.649671">
        <ele>22.3</ele>
        <time>2020-09-10T07:44:00Z</time>
      </trkpt>
      <trkpt lat="42.604298" lon="-8.649571">
        <ele>22.1</ele>
        <time>2020-09-10T07:44:02Z</time>
      </trkpt>
      <trkpt lat="42.604304" lon="-8.649466">
        <ele>21.9</ele>
        <time>2020-09-10T07:44:04Z</time>
      </trkpt>
      <trkpt lat="42.604310" lon="-8.649362">
        <ele>21.8</ele>
        <time>2020-09-10T07:44:06Z</time>
      </trkpt>
      <trkpt lat="42.604312" lon="-8.649257">
        <ele>21.8</ele>
        <time>2020-09-10T07:44:08Z</time>
      </trkpt>
      <trkpt lat="42.604314" lon="-8.649154">
        <ele>21.7</ele>
        <time>2020-09-10T07:44:10Z</time>
      </trkpt>
      <trkpt lat="42.604316" lon="-8.649053">
        <ele>21.6</ele>
        <time>2020-09-10T07:44:12Z</time>
      </trkpt>
      <trkpt lat="42.604311" lon="-8.648950">
        <ele>21.4</ele>
        <time>2020-09-10T07:44:14Z</time>
      </trkpt>
      <trkpt lat="42.604306" lon="-8.648845">
        <ele>21.2</ele>
        <time>2020-09-10T07:44:16Z</time>
      </trkpt>
      <trkpt lat="42.604301" lon="-8.648742">
        <ele>21.1</ele>
        <time>2020-09-10T07:44:18Z</time>
      </trkpt>
      <trkpt lat="42.604294" lon="-8.648637">
        <ele>21.0</ele>
        <time>2020-09-10T07:44:20Z</time>
      </trkpt>
      <trkpt lat="42.604283" lon="-8.648533">
        <ele>21.0</ele>
        <time>2020-09-10T07:44:22Z</time>
      </trkpt>
      <trkpt lat="42.604270" lon="-8.648430">
        <ele>21.0</ele>
        <time>2020-09-10T07:44:24Z</time>
      </trkpt>
      <trkpt lat="42.604255" lon="-8.648328">
        <ele>21.0</ele>
        <time>2020-09-10T07:44:26Z</time>
      </trkpt>
      <trkpt lat="42.604237" lon="-8.648225">
        <ele>20.8</ele>
        <time>2020-09-10T07:44:28Z</time>
      </trkpt>
      <trkpt lat="42.604218" lon="-8.648124">
        <ele>20.7</ele>
        <time>2020-09-10T07:44:30Z</time>
      </trkpt>
      <trkpt lat="42.604199" lon="-8.648023">
        <ele>20.5</ele>
        <time>2020-09-10T07:44:33Z</time>
      </trkpt>
      <trkpt lat="42.604180" lon="-8.647922">
        <ele>20.5</ele>
        <time>2020-09-10T07:44:35Z</time>
      </trkpt>
      <trkpt lat="42.604161" lon="-8.647820">
        <ele>20.4</ele>
        <time>2020-09-10T07:44:37Z</time>
      </trkpt>
      <trkpt lat="42.604143" lon="-8.647720">
        <ele>20.5</ele>
        <time>2020-09-10T07:44:39Z</time>
      </trkpt>
      <trkpt lat="42.604126" lon="-8.647619">
        <ele>20.6</ele>
        <time>2020-09-10T07:44:41Z</time>
      </trkpt>
      <trkpt lat="42.604110" lon="-8.647518">
        <ele>20.5</ele>
        <time>2020-09-10T07:44:43Z</time>
      </trkpt>
      <trkpt lat="42.604093" lon="-8.647418">
        <ele>20.3</ele>
        <time>2020-09-10T07:44:45Z</time>
      </trkpt>
      <trkpt lat="42.604078" lon="-8.647319">
        <ele>20.1</ele>
        <time>2020-09-10T07:44:47Z</time>
      </trkpt>
      <trkpt lat="42.604069" lon="-8.647226">
        <ele>20.1</ele>
        <time>2020-09-10T07:44:49Z</time>
      </trkpt>
      <trkpt lat="42.604061" lon="-8.647129">
        <ele>20.1</ele>
        <time>2020-09-10T07:44:50Z</time>
      </trkpt>
      <trkpt lat="42.604047" lon="-8.647030">
        <ele>20.1</ele>
        <time>2020-09-10T07:44:52Z</time>
      </trkpt>
      <trkpt lat="42.604033" lon="-8.646935">
        <ele>20.1</ele>
        <time>2020-09-10T07:44:54Z</time>
      </trkpt>
      <trkpt lat="42.604020" lon="-8.646840">
        <ele>20.1</ele>
        <time>2020-09-10T07:44:56Z</time>
      </trkpt>
      <trkpt lat="42.604009" lon="-8.646742">
        <ele>20.1</ele>
        <time>2020-09-10T07:44:58Z</time>
      </trkpt>
      <trkpt lat="42.603998" lon="-8.646648">
        <ele>20.1</ele>
        <time>2020-09-10T07:45:00Z</time>
      </trkpt>
      <trkpt lat="42.603990" lon="-8.646556">
        <ele>20.2</ele>
        <time>2020-09-10T07:45:02Z</time>
      </trkpt>
      <trkpt lat="42.603984" lon="-8.646466">
        <ele>20.3</ele>
        <time>2020-09-10T07:45:04Z</time>
      </trkpt>
      <trkpt lat="42.603986" lon="-8.646376">
        <ele>20.5</ele>
        <time>2020-09-10T07:45:05Z</time>
      </trkpt>
      <trkpt lat="42.603992" lon="-8.646285">
        <ele>20.7</ele>
        <time>2020-09-10T07:45:07Z</time>
      </trkpt>
      <trkpt lat="42.604009" lon="-8.646200">
        <ele>20.9</ele>
        <time>2020-09-10T07:45:09Z</time>
      </trkpt>
      <trkpt lat="42.604036" lon="-8.646124">
        <ele>21.0</ele>
        <time>2020-09-10T07:45:11Z</time>
      </trkpt>
      <trkpt lat="42.604065" lon="-8.646055">
        <ele>21.1</ele>
        <time>2020-09-10T07:45:12Z</time>
      </trkpt>
      <trkpt lat="42.604100" lon="-8.645989">
        <ele>21.1</ele>
        <time>2020-09-10T07:45:14Z</time>
      </trkpt>
      <trkpt lat="42.604136" lon="-8.645925">
        <ele>21.2</ele>
        <time>2020-09-10T07:45:15Z</time>
      </trkpt>
      <trkpt lat="42.604168" lon="-8.645860">
        <ele>21.2</ele>
        <time>2020-09-10T07:45:17Z</time>
      </trkpt>
      <trkpt lat="42.604199" lon="-8.645796">
        <ele>21.1</ele>
        <time>2020-09-10T07:45:18Z</time>
      </trkpt>
      <trkpt lat="42.604230" lon="-8.645734">
        <ele>21.0</ele>
        <time>2020-09-10T07:45:20Z</time>
      </trkpt>
      <trkpt lat="42.604259" lon="-8.645674">
        <ele>21.0</ele>
        <time>2020-09-10T07:45:21Z</time>
      </trkpt>
      <trkpt lat="42.604287" lon="-8.645615">
        <ele>21.0</ele>
        <time>2020-09-10T07:45:23Z</time>
      </trkpt>
      <trkpt lat="42.604314" lon="-8.645559">
        <ele>21.1</ele>
        <time>2020-09-10T07:45:24Z</time>
      </trkpt>
      <trkpt lat="42.604345" lon="-8.645507">
        <ele>21.1</ele>
        <time>2020-09-10T07:45:25Z</time>
      </trkpt>
      <trkpt lat="42.604377" lon="-8.645466">
        <ele>21.1</ele>
        <time>2020-09-10T07:45:26Z</time>
      </trkpt>
      <trkpt lat="42.604405" lon="-8.645426">
        <ele>21.2</ele>
        <time>2020-09-10T07:45:28Z</time>
      </trkpt>
      <trkpt lat="42.604430" lon="-8.645383">
        <ele>21.3</ele>
        <time>2020-09-10T07:45:29Z</time>
      </trkpt>
      <trkpt lat="42.604455" lon="-8.645343">
        <ele>21.4</ele>
        <time>2020-09-10T07:45:30Z</time>
      </trkpt>
      <trkpt lat="42.604480" lon="-8.645305">
        <ele>21.5</ele>
        <time>2020-09-10T07:45:31Z</time>
      </trkpt>
      <trkpt lat="42.604502" lon="-8.645270">
        <ele>21.6</ele>
        <time>2020-09-10T07:45:32Z</time>
      </trkpt>
      <trkpt lat="42.604520" lon="-8.645239">
        <ele>21.6</ele>
        <time>2020-09-10T07:45:32Z</time>
      </trkpt>
      <trkpt lat="42.604532" lon="-8.645213">
        <ele>21.6</ele>
        <time>2020-09-10T07:45:33Z</time>
      </trkpt>
      <trkpt lat="42.604543" lon="-8.645191">
        <ele>21.5</ele>
        <time>2020-09-10T07:45:33Z</time>
      </trkpt>
      <trkpt lat="42.604553" lon="-8.645175">
        <ele>21.5</ele>
        <time>2020-09-10T07:45:34Z</time>
      </trkpt>
      <trkpt lat="42.604561" lon="-8.645160">
        <ele>21.5</ele>
        <time>2020-09-10T07:45:34Z</time>
      </trkpt>
      <trkpt lat="42.604566" lon="-8.645145">
        <ele>21.5</ele>
        <time>2020-09-10T07:45:35Z</time>
      </trkpt>
      <trkpt lat="42.604572" lon="-8.645129">
        <ele>21.5</ele>
        <time>2020-09-10T07:45:35Z</time>
      </trkpt>
      <trkpt lat="42.604573" lon="-8.645112">
        <ele>21.5</ele>
        <time>2020-09-10T07:45:35Z</time>
      </trkpt>
      <trkpt lat="42.604574" lon="-8.645094">
        <ele>21.5</ele>
        <time>2020-09-10T07:45:36Z</time>
      </trkpt>
      <trkpt lat="42.604576" lon="-8.645076">
        <ele>21.4</ele>
        <time>2020-09-10T07:45:36Z</time>
      </trkpt>
      <trkpt lat="42.604579" lon="-8.645060">
        <ele>21.4</ele>
        <time>2020-09-10T07:45:36Z</time>
      </trkpt>
      <trkpt lat="42.604584" lon="-8.645039">
        <ele>21.4</ele>
        <time>2020-09-10T07:45:37Z</time>
      </trkpt>
      <trkpt lat="42.604588" lon="-8.645013">
        <ele>21.4</ele>
        <time>2020-09-10T07:45:37Z</time>
      </trkpt>
      <trkpt lat="42.605264" lon="-8.643714">
        <ele>21.7</ele>
        <time>2020-09-10T07:46:08Z</time>
      </trkpt>
      <trkpt lat="42.605270" lon="-8.643658">
        <ele>21.8</ele>
        <time>2020-09-10T07:46:10Z</time>
      </trkpt>
      <trkpt lat="42.605287" lon="-8.643625">
        <ele>21.9</ele>
        <time>2020-09-10T07:46:10Z</time>
      </trkpt>
      <trkpt lat="42.605303" lon="-8.643601">
        <ele>22.0</ele>
        <time>2020-09-10T07:46:11Z</time>
      </trkpt>
      <trkpt lat="42.605313" lon="-8.643569">
        <ele>22.1</ele>
        <time>2020-09-10T07:46:12Z</time>
      </trkpt>
      <trkpt lat="42.605327" lon="-8.643541">
        <ele>22.1</ele>
        <time>2020-09-10T07:46:12Z</time>
      </trkpt>
      <trkpt lat="42.605342" lon="-8.643514">
        <ele>22.2</ele>
        <time>2020-09-10T07:46:13Z</time>
      </trkpt>
      <trkpt lat="42.605356" lon="-8.643486">
        <ele>22.3</ele>
        <time>2020-09-10T07:46:14Z</time>
      </trkpt>
      <trkpt lat="42.605377" lon="-8.643452">
        <ele>22.4</ele>
        <time>2020-09-10T07:46:15Z</time>
      </trkpt>
      <trkpt lat="42.605396" lon="-8.643424">
        <ele>22.5</ele>
        <time>2020-09-10T07:46:15Z</time>
      </trkpt>
      <trkpt lat="42.605415" lon="-8.643399">
        <ele>22.5</ele>
        <time>2020-09-10T07:46:16Z</time>
      </trkpt>
      <trkpt lat="42.605430" lon="-8.643377">
        <ele>22.6</ele>
        <time>2020-09-10T07:46:17Z</time>
      </trkpt>
      <trkpt lat="42.605446" lon="-8.643336">
        <ele>22.7</ele>
        <time>2020-09-10T07:46:18Z</time>
      </trkpt>
      <trkpt lat="42.605447" lon="-8.643290">
        <ele>22.8</ele>
        <time>2020-09-10T07:46:18Z</time>
      </trkpt>
      <trkpt lat="42.605432" lon="-8.643250">
        <ele>22.8</ele>
        <time>2020-09-10T07:46:19Z</time>
      </trkpt>
      <trkpt lat="42.605406" lon="-8.643224">
        <ele>22.8</ele>
        <time>2020-09-10T07:46:20Z</time>
      </trkpt>
      <trkpt lat="42.605380" lon="-8.643209">
        <ele>22.8</ele>
        <time>2020-09-10T07:46:21Z</time>
      </trkpt>
      <trkpt lat="42.605348" lon="-8.643188">
        <ele>22.8</ele>
        <time>2020-09-10T07:46:22Z</time>
      </trkpt>
      <trkpt lat="42.605311" lon="-8.643160">
        <ele>22.8</ele>
        <time>2020-09-10T07:46:23Z</time>
      </trkpt>
      <trkpt lat="42.605285" lon="-8.643135">
        <ele>22.8</ele>
        <time>2020-09-10T07:46:24Z</time>
      </trkpt>
      <trkpt lat="42.605265" lon="-8.643117">
        <ele>22.8</ele>
        <time>2020-09-10T07:46:24Z</time>
      </trkpt>
      <trkpt lat="42.605250" lon="-8.643105">
        <ele>22.8</ele>
        <time>2020-09-10T07:46:25Z</time>
      </trkpt>
      <trkpt lat="42.605228" lon="-8.643078">
        <ele>22.8</ele>
        <time>2020-09-10T07:46:26Z</time>
      </trkpt>
      <trkpt lat="42.605203" lon="-8.643044">
        <ele>22.8</ele>
        <time>2020-09-10T07:46:27Z</time>
      </trkpt>
      <trkpt lat="42.605179" lon="-8.643020">
        <ele>22.8</ele>
        <time>2020-09-10T07:46:27Z</time>
      </trkpt>
      <trkpt lat="42.605149" lon="-8.643005">
        <ele>22.8</ele>
        <time>2020-09-10T07:46:28Z</time>
      </trkpt>
      <trkpt lat="42.605124" lon="-8.642986">
        <ele>22.8</ele>
        <time>2020-09-10T07:46:29Z</time>
      </trkpt>
      <trkpt lat="42.605104" lon="-8.642965">
        <ele>22.9</ele>
        <time>2020-09-10T07:46:30Z</time>
      </trkpt>
      <trkpt lat="42.605087" lon="-8.642944">
        <ele>22.9</ele>
        <time>2020-09-10T07:46:30Z</time>
      </trkpt>
      <trkpt lat="42.605067" lon="-8.642922">
        <ele>23.0</ele>
        <time>2020-09-10T07:46:31Z</time>
      </trkpt>
      <trkpt lat="42.605050" lon="-8.642902">
        <ele>23.0</ele>
        <time>2020-09-10T07:46:32Z</time>
      </trkpt>
      <trkpt lat="42.605029" lon="-8.642877">
        <ele>23.0</ele>
        <time>2020-09-10T07:46:32Z</time>
      </trkpt>
      <trkpt lat="42.605011" lon="-8.642855">
        <ele>23.0</ele>
        <time>2020-09-10T07:46:33Z</time>
      </trkpt>
      <trkpt lat="42.604983" lon="-8.642837">
        <ele>23.0</ele>
        <time>2020-09-10T07:46:34Z</time>
      </trkpt>
      <trkpt lat="42.604959" lon="-8.642818">
        <ele>23.1</ele>
        <time>2020-09-10T07:46:35Z</time>
      </trkpt>
      <trkpt lat="42.604938" lon="-8.642798">
        <ele>23.2</ele>
        <time>2020-09-10T07:46:35Z</time>
      </trkpt>
      <trkpt lat="42.604915" lon="-8.642780">
        <ele>23.3</ele>
        <time>2020-09-10T07:46:36Z</time>
      </trkpt>
      <trkpt lat="42.604898" lon="-8.642758">
        <ele>23.3</ele>
        <time>2020-09-10T07:46:37Z</time>
      </trkpt>
      <trkpt lat="42.604884" lon="-8.642742">
        <ele>23.4</ele>
        <time>2020-09-10T07:46:37Z</time>
      </trkpt>
      <trkpt lat="42.604872" lon="-8.642730">
        <ele>23.5</ele>
        <time>2020-09-10T07:46:38Z</time>
      </trkpt>
      <trkpt lat="42.604855" lon="-8.642714">
        <ele>23.5</ele>
        <time>2020-09-10T07:46:38Z</time>
      </trkpt>
      <trkpt lat="42.604838" lon="-8.642698">
        <ele>23.6</ele>
        <time>2020-09-10T07:46:39Z</time>
      </trkpt>
      <trkpt lat="42.604821" lon="-8.642684">
        <ele>23.6</ele>
        <time>2020-09-10T07:46:39Z</time>
      </trkpt>
      <trkpt lat="42.604805" lon="-8.642669">
        <ele>23.7</ele>
        <time>2020-09-10T07:46:40Z</time>
      </trkpt>
      <trkpt lat="42.604787" lon="-8.642647">
        <ele>23.7</ele>
        <time>2020-09-10T07:46:40Z</time>
      </trkpt>
      <trkpt lat="42.604771" lon="-8.642626">
        <ele>23.7</ele>
        <time>2020-09-10T07:46:41Z</time>
      </trkpt>
      <trkpt lat="42.604761" lon="-8.642609">
        <ele>23.8</ele>
        <time>2020-09-10T07:46:41Z</time>
      </trkpt>
      <trkpt lat="42.604739" lon="-8.642583">
        <ele>23.8</ele>
        <time>2020-09-10T07:46:42Z</time>
      </trkpt>
      <trkpt lat="42.604721" lon="-8.642561">
        <ele>23.7</ele>
        <time>2020-09-10T07:46:43Z</time>
      </trkpt>
      <trkpt lat="42.604700" lon="-8.642538">
        <ele>23.7</ele>
        <time>2020-09-10T07:46:43Z</time>
      </trkpt>
      <trkpt lat="42.604672" lon="-8.642514">
        <ele>23.6</ele>
        <time>2020-09-10T07:46:44Z</time>
      </trkpt>
      <trkpt lat="42.604642" lon="-8.642492">
        <ele>23.5</ele>
        <time>2020-09-10T07:46:45Z</time>
      </trkpt>
      <trkpt lat="42.604614" lon="-8.642469">
        <ele>23.4</ele>
        <time>2020-09-10T07:46:46Z</time>
      </trkpt>
      <trkpt lat="42.604584" lon="-8.642447">
        <ele>23.4</ele>
        <time>2020-09-10T07:46:47Z</time>
      </trkpt>
      <trkpt lat="42.604554" lon="-8.642430">
        <ele>23.3</ele>
        <time>2020-09-10T07:46:48Z</time>
      </trkpt>
      <trkpt lat="42.604530" lon="-8.642417">
        <ele>23.2</ele>
        <time>2020-09-10T07:46:49Z</time>
      </trkpt>
      <trkpt lat="42.604513" lon="-8.642409">
        <ele>23.2</ele>
        <time>2020-09-10T07:46:49Z</time>
      </trkpt>
      <trkpt lat="42.604498" lon="-8.642398">
        <ele>23.2</ele>
        <time>2020-09-10T07:46:50Z</time>
      </trkpt>
      <trkpt lat="42.604479" lon="-8.642388">
        <ele>23.1</ele>
        <time>2020-09-10T07:46:50Z</time>
      </trkpt>
      <trkpt lat="42.604460" lon="-8.642370">
        <ele>23.1</ele>
        <time>2020-09-10T07:46:51Z</time>
      </trkpt>
      <trkpt lat="42.604437" lon="-8.642353">
        <ele>23.1</ele>
        <time>2020-09-10T07:46:51Z</time>
      </trkpt>
      <trkpt lat="42.604412" lon="-8.642323">
        <ele>23.1</ele>
        <time>2020-09-10T07:46:52Z</time>
      </trkpt>
      <trkpt lat="42.604383" lon="-8.642297">
        <ele>23.2</ele>
        <time>2020-09-10T07:46:53Z</time>
      </trkpt>
      <trkpt lat="42.604357" lon="-8.642278">
        <ele>23.2</ele>
        <time>2020-09-10T07:46:54Z</time>
      </trkpt>
      <trkpt lat="42.604327" lon="-8.642267">
        <ele>23.2</ele>
        <time>2020-09-10T07:46:55Z</time>
      </trkpt>
      <trkpt lat="42.604297" lon="-8.642251">
        <ele>23.2</ele>
        <time>2020-09-10T07:46:56Z</time>
      </trkpt>
      <trkpt lat="42.604269" lon="-8.642238">
        <ele>23.2</ele>
        <time>2020-09-10T07:46:56Z</time>
      </trkpt>
      <trkpt lat="42.604245" lon="-8.642222">
        <ele>23.2</ele>
        <time>2020-09-10T07:46:57Z</time>
      </trkpt>
      <trkpt lat="42.604227" lon="-8.642199">
        <ele>23.2</ele>
        <time>2020-09-10T07:46:58Z</time>
      </trkpt>
      <trkpt lat="42.604201" lon="-8.642152">
        <ele>23.2</ele>
        <time>2020-09-10T07:46:59Z</time>
      </trkpt>
      <trkpt lat="42.604161" lon="-8.642100">
        <ele>23.2</ele>
        <time>2020-09-10T07:47:00Z</time>
      </trkpt>
      <trkpt lat="42.604124" lon="-8.642064">
        <ele>23.2</ele>
        <time>2020-09-10T07:47:02Z</time>
      </trkpt>
      <trkpt lat="42.604076" lon="-8.642047">
        <ele>23.2</ele>
        <time>2020-09-10T07:47:03Z</time>
      </trkpt>
      <trkpt lat="42.604030" lon="-8.642041">
        <ele>23.1</ele>
        <time>2020-09-10T07:47:04Z</time>
      </trkpt>
      <trkpt lat="42.603815" lon="-8.642124">
        <ele>22.2</ele>
        <time>2020-09-10T07:47:10Z</time>
      </trkpt>
      <trkpt lat="42.603525" lon="-8.642318">
        <ele>20.8</ele>
        <time>2020-09-10T07:47:19Z</time>
      </trkpt>
      <trkpt lat="42.603299" lon="-8.642405">
        <ele>19.8</ele>
        <time>2020-09-10T07:47:25Z</time>
      </trkpt>
      <trkpt lat="42.603223" lon="-8.642461">
        <ele>19.2</ele>
        <time>2020-09-10T07:47:27Z</time>
      </trkpt>
      <trkpt lat="42.603165" lon="-8.642471">
        <ele>18.8</ele>
        <time>2020-09-10T07:47:29Z</time>
      </trkpt>
      <trkpt lat="42.603106" lon="-8.642480">
        <ele>18.5</ele>
        <time>2020-09-10T07:47:31Z</time>
      </trkpt>
      <trkpt lat="42.603049" lon="-8.642487">
        <ele>18.3</ele>
        <time>2020-09-10T07:47:32Z</time>
      </trkpt>
      <trkpt lat="42.602992" lon="-8.642491">
        <ele>18.0</ele>
        <time>2020-09-10T07:47:34Z</time>
      </trkpt>
      <trkpt lat="42.602936" lon="-8.642495">
        <ele>17.8</ele>
        <time>2020-09-10T07:47:35Z</time>
      </trkpt>
      <trkpt lat="42.602876" lon="-8.642500">
        <ele>17.9</ele>
        <time>2020-09-10T07:47:37Z</time>
      </trkpt>
      <trkpt lat="42.602826" lon="-8.642504">
        <ele>18.3</ele>
        <time>2020-09-10T07:47:38Z</time>
      </trkpt>
      <trkpt lat="42.602751" lon="-8.642511">
        <ele>18.9</ele>
        <time>2020-09-10T07:47:40Z</time>
      </trkpt>
      <trkpt lat="42.602687" lon="-8.642518">
        <ele>19.3</ele>
        <time>2020-09-10T07:47:42Z</time>
      </trkpt>
      <trkpt lat="42.602619" lon="-8.642523">
        <ele>19.8</ele>
        <time>2020-09-10T07:47:44Z</time>
      </trkpt>
      <trkpt lat="42.602566" lon="-8.642527">
        <ele>20.0</ele>
        <time>2020-09-10T07:47:45Z</time>
      </trkpt>
      <trkpt lat="42.602489" lon="-8.642537">
        <ele>20.4</ele>
        <time>2020-09-10T07:47:47Z</time>
      </trkpt>
      <trkpt lat="42.602427" lon="-8.642547">
        <ele>20.7</ele>
        <time>2020-09-10T07:47:49Z</time>
      </trkpt>
      <trkpt lat="42.602364" lon="-8.642557">
        <ele>20.8</ele>
        <time>2020-09-10T07:47:50Z</time>
      </trkpt>
      <trkpt lat="42.602304" lon="-8.642561">
        <ele>20.9</ele>
        <time>2020-09-10T07:47:52Z</time>
      </trkpt>
      <trkpt lat="42.602250" lon="-8.642565">
        <ele>21.0</ele>
        <time>2020-09-10T07:47:53Z</time>
      </trkpt>
      <trkpt lat="42.602201" lon="-8.642576">
        <ele>21.0</ele>
        <time>2020-09-10T07:47:55Z</time>
      </trkpt>
      <trkpt lat="42.602146" lon="-8.642583">
        <ele>21.1</ele>
        <time>2020-09-10T07:47:56Z</time>
      </trkpt>
      <trkpt lat="42.602105" lon="-8.642584">
        <ele>21.2</ele>
        <time>2020-09-10T07:47:57Z</time>
      </trkpt>
      <trkpt lat="42.602078" lon="-8.642579">
        <ele>21.2</ele>
        <time>2020-09-10T07:47:58Z</time>
      </trkpt>
      <trkpt lat="42.602071" lon="-8.642576">
        <ele>21.3</ele>
        <time>2020-09-10T07:47:58Z</time>
      </trkpt>
      <trkpt lat="42.602075" lon="-8.642566">
        <ele>21.2</ele>
        <time>2020-09-10T07:47:58Z</time>
      </trkpt>
      <trkpt lat="42.602077" lon="-8.642526">
        <ele>21.2</ele>
        <time>2020-09-10T07:47:59Z</time>
      </trkpt>
      <trkpt lat="42.602081" lon="-8.642484">
        <ele>21.2</ele>
        <time>2020-09-10T07:48:00Z</time>
      </trkpt>
      <trkpt lat="42.602076" lon="-8.642454">
        <ele>21.2</ele>
        <time>2020-09-10T07:48:01Z</time>
      </trkpt>
      <trkpt lat="42.602074" lon="-8.642440">
        <ele>21.2</ele>
        <time>2020-09-10T07:48:01Z</time>
      </trkpt>
      <trkpt lat="42.602070" lon="-8.642429">
        <ele>21.1</ele>
        <time>2020-09-10T07:48:01Z</time>
      </trkpt>
      <trkpt lat="42.602060" lon="-8.642407">
        <ele>21.1</ele>
        <time>2020-09-10T07:48:02Z</time>
      </trkpt>
      <trkpt lat="42.602050" lon="-8.642380">
        <ele>21.1</ele>
        <time>2020-09-10T07:48:02Z</time>
      </trkpt>
      <trkpt lat="42.602035" lon="-8.642348">
        <ele>21.1</ele>
        <time>2020-09-10T07:48:03Z</time>
      </trkpt>
      <trkpt lat="42.602024" lon="-8.642309">
        <ele>21.1</ele>
        <time>2020-09-10T07:48:04Z</time>
      </trkpt>
      <trkpt lat="42.602010" lon="-8.642262">
        <ele>21.0</ele>
        <time>2020-09-10T07:48:05Z</time>
      </trkpt>
      <trkpt lat="42.601993" lon="-8.642214">
        <ele>21.0</ele>
        <time>2020-09-10T07:48:06Z</time>
      </trkpt>
      <trkpt lat="42.601966" lon="-8.642154">
        <ele>21.1</ele>
        <time>2020-09-10T07:48:07Z</time>
      </trkpt>
      <trkpt lat="42.601944" lon="-8.642107">
        <ele>21.2</ele>
        <time>2020-09-10T07:48:08Z</time>
      </trkpt>
      <trkpt lat="42.601921" lon="-8.642057">
        <ele>21.3</ele>
        <time>2020-09-10T07:48:10Z</time>
      </trkpt>
      <trkpt lat="42.601894" lon="-8.642003">
        <ele>21.4</ele>
        <time>2020-09-10T07:48:11Z</time>
      </trkpt>
      <trkpt lat="42.601867" lon="-8.641975">
        <ele>21.5</ele>
        <time>2020-09-10T07:48:12Z</time>
      </trkpt>
      <trkpt lat="42.601808" lon="-8.641916">
        <ele>21.7</ele>
        <time>2020-09-10T07:48:14Z</time>
      </trkpt>
      <trkpt lat="42.601760" lon="-8.641847">
        <ele>21.9</ele>
        <time>2020-09-10T07:48:16Z</time>
      </trkpt>
      <trkpt lat="42.601725" lon="-8.641784">
        <ele>21.8</ele>
        <time>2020-09-10T07:48:17Z</time>
      </trkpt>
      <trkpt lat="42.601711" lon="-8.641735">
        <ele>21.7</ele>
        <time>2020-09-10T07:48:18Z</time>
      </trkpt>
      <trkpt lat="42.601689" lon="-8.641661">
        <ele>21.5</ele>
        <time>2020-09-10T07:48:20Z</time>
      </trkpt>
      <trkpt lat="42.601674" lon="-8.641602">
        <ele>21.4</ele>
        <time>2020-09-10T07:48:21Z</time>
      </trkpt>
      <trkpt lat="42.601663" lon="-8.641544">
        <ele>21.4</ele>
        <time>2020-09-10T07:48:22Z</time>
      </trkpt>
      <trkpt lat="42.601654" lon="-8.641495">
        <ele>21.4</ele>
        <time>2020-09-10T07:48:23Z</time>
      </trkpt>
      <trkpt lat="42.601630" lon="-8.641428">
        <ele>21.5</ele>
        <time>2020-09-10T07:48:25Z</time>
      </trkpt>
      <trkpt lat="42.601602" lon="-8.641362">
        <ele>21.6</ele>
        <time>2020-09-10T07:48:26Z</time>
      </trkpt>
      <trkpt lat="42.601569" lon="-8.641296">
        <ele>21.7</ele>
        <time>2020-09-10T07:48:28Z</time>
      </trkpt>
      <trkpt lat="42.601540" lon="-8.641236">
        <ele>21.8</ele>
        <time>2020-09-10T07:48:29Z</time>
      </trkpt>
      <trkpt lat="42.601513" lon="-8.641181">
        <ele>22.0</ele>
        <time>2020-09-10T07:48:30Z</time>
      </trkpt>
      <trkpt lat="42.601479" lon="-8.641123">
        <ele>22.1</ele>
        <time>2020-09-10T07:48:32Z</time>
      </trkpt>
      <trkpt lat="42.601455" lon="-8.641069">
        <ele>22.1</ele>
        <time>2020-09-10T07:48:33Z</time>
      </trkpt>
      <trkpt lat="42.601428" lon="-8.641000">
        <ele>22.2</ele>
        <time>2020-09-10T07:48:35Z</time>
      </trkpt>
      <trkpt lat="42.601404" lon="-8.640942">
        <ele>22.4</ele>
        <time>2020-09-10T07:48:36Z</time>
      </trkpt>
      <trkpt lat="42.601376" lon="-8.640885">
        <ele>22.6</ele>
        <time>2020-09-10T07:48:37Z</time>
      </trkpt>
      <trkpt lat="42.601346" lon="-8.640829">
        <ele>22.8</ele>
        <time>2020-09-10T07:48:39Z</time>
      </trkpt>
      <trkpt lat="42.601314" lon="-8.640774">
        <ele>23.1</ele>
        <time>2020-09-10T07:48:40Z</time>
      </trkpt>
      <trkpt lat="42.601286" lon="-8.640724">
        <ele>23.4</ele>
        <time>2020-09-10T07:48:41Z</time>
      </trkpt>
      <trkpt lat="42.601262" lon="-8.640672">
        <ele>23.9</ele>
        <time>2020-09-10T07:48:42Z</time>
      </trkpt>
      <trkpt lat="42.601238" lon="-8.640618">
        <ele>24.2</ele>
        <time>2020-09-10T07:48:44Z</time>
      </trkpt>
      <trkpt lat="42.601206" lon="-8.640571">
        <ele>24.6</ele>
        <time>2020-09-10T07:48:45Z</time>
      </trkpt>
      <trkpt lat="42.601173" lon="-8.640530">
        <ele>24.9</ele>
        <time>2020-09-10T07:48:46Z</time>
      </trkpt>
      <trkpt lat="42.601139" lon="-8.640499">
        <ele>25.2</ele>
        <time>2020-09-10T07:48:47Z</time>
      </trkpt>
      <trkpt lat="42.601103" lon="-8.640474">
        <ele>25.6</ele>
        <time>2020-09-10T07:48:48Z</time>
      </trkpt>
      <trkpt lat="42.601065" lon="-8.640455">
        <ele>25.9</ele>
        <time>2020-09-10T07:48:49Z</time>
      </trkpt>
      <trkpt lat="42.601029" lon="-8.640439">
        <ele>26.3</ele>
        <time>2020-09-10T07:48:50Z</time>
      </trkpt>
      <trkpt lat="42.600994" lon="-8.640425">
        <ele>26.6</ele>
        <time>2020-09-10T07:48:51Z</time>
      </trkpt>
      <trkpt lat="42.600958" lon="-8.640411">
        <ele>27.0</ele>
        <time>2020-09-10T07:48:52Z</time>
      </trkpt>
      <trkpt lat="42.600921" lon="-8.640396">
        <ele>27.4</ele>
        <time>2020-09-10T07:48:53Z</time>
      </trkpt>
      <trkpt lat="42.600886" lon="-8.640379">
        <ele>27.7</ele>
        <time>2020-09-10T07:48:54Z</time>
      </trkpt>
      <trkpt lat="42.600850" lon="-8.640356">
        <ele>28.0</ele>
        <time>2020-09-10T07:48:55Z</time>
      </trkpt>
      <trkpt lat="42.600815" lon="-8.640329">
        <ele>28.2</ele>
        <time>2020-09-10T07:48:57Z</time>
      </trkpt>
      <trkpt lat="42.600790" lon="-8.640301">
        <ele>28.4</ele>
        <time>2020-09-10T07:48:57Z</time>
      </trkpt>
      <trkpt lat="42.600768" lon="-8.640269">
        <ele>28.6</ele>
        <time>2020-09-10T07:48:58Z</time>
      </trkpt>
      <trkpt lat="42.600754" lon="-8.640233">
        <ele>28.7</ele>
        <time>2020-09-10T07:48:59Z</time>
      </trkpt>
      <trkpt lat="42.600744" lon="-8.640192">
        <ele>28.7</ele>
        <time>2020-09-10T07:49:00Z</time>
      </trkpt>
      <trkpt lat="42.600735" lon="-8.640155">
        <ele>28.8</ele>
        <time>2020-09-10T07:49:01Z</time>
      </trkpt>
      <trkpt lat="42.600716" lon="-8.640096">
        <ele>29.0</ele>
        <time>2020-09-10T07:49:02Z</time>
      </trkpt>
      <trkpt lat="42.600697" lon="-8.640043">
        <ele>29.3</ele>
        <time>2020-09-10T07:49:03Z</time>
      </trkpt>
      <trkpt lat="42.600682" lon="-8.639990">
        <ele>29.6</ele>
        <time>2020-09-10T07:49:04Z</time>
      </trkpt>
      <trkpt lat="42.600668" lon="-8.639939">
        <ele>29.8</ele>
        <time>2020-09-10T07:49:05Z</time>
      </trkpt>
      <trkpt lat="42.600653" lon="-8.639890">
        <ele>30.2</ele>
        <time>2020-09-10T07:49:06Z</time>
      </trkpt>
      <trkpt lat="42.600637" lon="-8.639842">
        <ele>30.5</ele>
        <time>2020-09-10T07:49:07Z</time>
      </trkpt>
      <trkpt lat="42.600623" lon="-8.639795">
        <ele>30.7</ele>
        <time>2020-09-10T07:49:08Z</time>
      </trkpt>
      <trkpt lat="42.600608" lon="-8.639747">
        <ele>31.0</ele>
        <time>2020-09-10T07:49:09Z</time>
      </trkpt>
      <trkpt lat="42.600591" lon="-8.639698">
        <ele>31.3</ele>
        <time>2020-09-10T07:49:10Z</time>
      </trkpt>
      <trkpt lat="42.600574" lon="-8.639648">
        <ele>31.6</ele>
        <time>2020-09-10T07:49:11Z</time>
      </trkpt>
      <trkpt lat="42.600560" lon="-8.639596">
        <ele>31.8</ele>
        <time>2020-09-10T07:49:13Z</time>
      </trkpt>
      <trkpt lat="42.600547" lon="-8.639543">
        <ele>32.0</ele>
        <time>2020-09-10T07:49:14Z</time>
      </trkpt>
      <trkpt lat="42.600535" lon="-8.639490">
        <ele>32.1</ele>
        <time>2020-09-10T07:49:15Z</time>
      </trkpt>
      <trkpt lat="42.600524" lon="-8.639437">
        <ele>32.2</ele>
        <time>2020-09-10T07:49:16Z</time>
      </trkpt>
      <trkpt lat="42.600517" lon="-8.639385">
        <ele>32.2</ele>
        <time>2020-09-10T07:49:17Z</time>
      </trkpt>
      <trkpt lat="42.600505" lon="-8.639333">
        <ele>32.4</ele>
        <time>2020-09-10T07:49:18Z</time>
      </trkpt>
      <trkpt lat="42.600496" lon="-8.639282">
        <ele>32.4</ele>
        <time>2020-09-10T07:49:19Z</time>
      </trkpt>
      <trkpt lat="42.600492" lon="-8.639227">
        <ele>32.6</ele>
        <time>2020-09-10T07:49:20Z</time>
      </trkpt>
      <trkpt lat="42.600488" lon="-8.639170">
        <ele>32.8</ele>
        <time>2020-09-10T07:49:21Z</time>
      </trkpt>
      <trkpt lat="42.600485" lon="-8.639113">
        <ele>33.0</ele>
        <time>2020-09-10T07:49:22Z</time>
      </trkpt>
      <trkpt lat="42.600486" lon="-8.639056">
        <ele>33.1</ele>
        <time>2020-09-10T07:49:23Z</time>
      </trkpt>
      <trkpt lat="42.600486" lon="-8.638998">
        <ele>33.4</ele>
        <time>2020-09-10T07:49:25Z</time>
      </trkpt>
      <trkpt lat="42.600483" lon="-8.638943">
        <ele>33.8</ele>
        <time>2020-09-10T07:49:26Z</time>
      </trkpt>
      <trkpt lat="42.600480" lon="-8.638889">
        <ele>34.3</ele>
        <time>2020-09-10T07:49:27Z</time>
      </trkpt>
      <trkpt lat="42.600479" lon="-8.638834">
        <ele>34.6</ele>
        <time>2020-09-10T07:49:28Z</time>
      </trkpt>
      <trkpt lat="42.600479" lon="-8.638784">
        <ele>34.9</ele>
        <time>2020-09-10T07:49:29Z</time>
      </trkpt>
      <trkpt lat="42.600474" lon="-8.638738">
        <ele>35.3</ele>
        <time>2020-09-10T07:49:30Z</time>
      </trkpt>
      <trkpt lat="42.600468" lon="-8.638695">
        <ele>35.8</ele>
        <time>2020-09-10T07:49:31Z</time>
      </trkpt>
      <trkpt lat="42.600461" lon="-8.638651">
        <ele>36.3</ele>
        <time>2020-09-10T07:49:31Z</time>
      </trkpt>
      <trkpt lat="42.600453" lon="-8.638607">
        <ele>36.8</ele>
        <time>2020-09-10T07:49:32Z</time>
      </trkpt>
      <trkpt lat="42.600447" lon="-8.638559">
        <ele>37.2</ele>
        <time>2020-09-10T07:49:33Z</time>
      </trkpt>
      <trkpt lat="42.600442" lon="-8.638510">
        <ele>37.7</ele>
        <time>2020-09-10T07:49:34Z</time>
      </trkpt>
      <trkpt lat="42.600441" lon="-8.638458">
        <ele>37.9</ele>
        <time>2020-09-10T07:49:35Z</time>
      </trkpt>
      <trkpt lat="42.600436" lon="-8.638407">
        <ele>38.4</ele>
        <time>2020-09-10T07:49:36Z</time>
      </trkpt>
      <trkpt lat="42.600437" lon="-8.638367">
        <ele>38.5</ele>
        <time>2020-09-10T07:49:37Z</time>
      </trkpt>
      <trkpt lat="42.600437" lon="-8.638332">
        <ele>38.7</ele>
        <time>2020-09-10T07:49:38Z</time>
      </trkpt>
      <trkpt lat="42.600439" lon="-8.638298">
        <ele>38.9</ele>
        <time>2020-09-10T07:49:38Z</time>
      </trkpt>
      <trkpt lat="42.600442" lon="-8.638265">
        <ele>39.0</ele>
        <time>2020-09-10T07:49:39Z</time>
      </trkpt>
      <trkpt lat="42.600447" lon="-8.638231">
        <ele>39.0</ele>
        <time>2020-09-10T07:49:40Z</time>
      </trkpt>
      <trkpt lat="42.600455" lon="-8.638190">
        <ele>38.9</ele>
        <time>2020-09-10T07:49:41Z</time>
      </trkpt>
      <trkpt lat="42.600457" lon="-8.638153">
        <ele>39.0</ele>
        <time>2020-09-10T07:49:41Z</time>
      </trkpt>
      <trkpt lat="42.600471" lon="-8.638112">
        <ele>38.6</ele>
        <time>2020-09-10T07:49:42Z</time>
      </trkpt>
      <trkpt lat="42.600500" lon="-8.638074">
        <ele>37.5</ele>
        <time>2020-09-10T07:49:43Z</time>
      </trkpt>
      <trkpt lat="42.600524" lon="-8.638032">
        <ele>36.5</ele>
        <time>2020-09-10T07:49:44Z</time>
      </trkpt>
      <trkpt lat="42.600551" lon="-8.637991">
        <ele>35.3</ele>
        <time>2020-09-10T07:49:45Z</time>
      </trkpt>
      <trkpt lat="42.600561" lon="-8.637952">
        <ele>35.0</ele>
        <time>2020-09-10T07:49:46Z</time>
      </trkpt>
      <trkpt lat="42.600565" lon="-8.637915">
        <ele>34.9</ele>
        <time>2020-09-10T07:49:47Z</time>
      </trkpt>
      <trkpt lat="42.600558" lon="-8.637879">
        <ele>35.3</ele>
        <time>2020-09-10T07:49:48Z</time>
      </trkpt>
      <trkpt lat="42.600544" lon="-8.637850">
        <ele>35.9</ele>
        <time>2020-09-10T07:49:48Z</time>
      </trkpt>
      <trkpt lat="42.600521" lon="-8.637827">
        <ele>36.9</ele>
        <time>2020-09-10T07:49:49Z</time>
      </trkpt>
      <trkpt lat="42.600499" lon="-8.637801">
        <ele>37.8</ele>
        <time>2020-09-10T07:49:50Z</time>
      </trkpt>
      <trkpt lat="42.600468" lon="-8.637777">
        <ele>39.0</ele>
        <time>2020-09-10T07:49:51Z</time>
      </trkpt>
      <trkpt lat="42.600444" lon="-8.637758">
        <ele>39.9</ele>
        <time>2020-09-10T07:49:52Z</time>
      </trkpt>
      <trkpt lat="42.600417" lon="-8.637741">
        <ele>40.8</ele>
        <time>2020-09-10T07:49:52Z</time>
      </trkpt>
      <trkpt lat="42.600398" lon="-8.637724">
        <ele>41.4</ele>
        <time>2020-09-10T07:49:53Z</time>
      </trkpt>
      <trkpt lat="42.600382" lon="-8.637705">
        <ele>41.8</ele>
        <time>2020-09-10T07:49:54Z</time>
      </trkpt>
      <trkpt lat="42.600361" lon="-8.637681">
        <ele>42.3</ele>
        <time>2020-09-10T07:49:54Z</time>
      </trkpt>
      <trkpt lat="42.600329" lon="-8.637657">
        <ele>43.6</ele>
        <time>2020-09-10T07:49:55Z</time>
      </trkpt>
      <trkpt lat="42.600317" lon="-8.637636">
        <ele>43.9</ele>
        <time>2020-09-10T07:49:56Z</time>
      </trkpt>
      <trkpt lat="42.600310" lon="-8.637610">
        <ele>43.9</ele>
        <time>2020-09-10T07:49:56Z</time>
      </trkpt>
      <trkpt lat="42.600303" lon="-8.637586">
        <ele>43.9</ele>
        <time>2020-09-10T07:49:57Z</time>
      </trkpt>
      <trkpt lat="42.600274" lon="-8.637576">
        <ele>45.1</ele>
        <time>2020-09-10T07:49:58Z</time>
      </trkpt>
      <trkpt lat="42.600263" lon="-8.637572">
        <ele>45.6</ele>
        <time>2020-09-10T07:49:58Z</time>
      </trkpt>
      <trkpt lat="42.600252" lon="-8.637556">
        <ele>45.9</ele>
        <time>2020-09-10T07:49:58Z</time>
      </trkpt>
      <trkpt lat="42.600245" lon="-8.637543">
        <ele>46.0</ele>
        <time>2020-09-10T07:49:59Z</time>
      </trkpt>
      <trkpt lat="42.600240" lon="-8.637530">
        <ele>46.1</ele>
        <time>2020-09-10T07:49:59Z</time>
      </trkpt>
      <trkpt lat="42.600222" lon="-8.637514">
        <ele>46.7</ele>
        <time>2020-09-10T07:50:00Z</time>
      </trkpt>
      <trkpt lat="42.600216" lon="-8.637494">
        <ele>46.6</ele>
        <time>2020-09-10T07:50:00Z</time>
      </trkpt>
      <trkpt lat="42.600208" lon="-8.637471">
        <ele>46.6</ele>
        <time>2020-09-10T07:50:00Z</time>
      </trkpt>
      <trkpt lat="42.600205" lon="-8.637438">
        <ele>46.3</ele>
        <time>2020-09-10T07:50:01Z</time>
      </trkpt>
      <trkpt lat="42.600194" lon="-8.637409">
        <ele>46.0</ele>
        <time>2020-09-10T07:50:02Z</time>
      </trkpt>
      <trkpt lat="42.600178" lon="-8.637389">
        <ele>46.2</ele>
        <time>2020-09-10T07:50:02Z</time>
      </trkpt>
      <trkpt lat="42.600161" lon="-8.637375">
        <ele>46.5</ele>
        <time>2020-09-10T07:50:03Z</time>
      </trkpt>
      <trkpt lat="42.600141" lon="-8.637367">
        <ele>47.0</ele>
        <time>2020-09-10T07:50:03Z</time>
      </trkpt>
      <trkpt lat="42.600121" lon="-8.637361">
        <ele>47.6</ele>
        <time>2020-09-10T07:50:04Z</time>
      </trkpt>
      <trkpt lat="42.600102" lon="-8.637370">
        <ele>48.4</ele>
        <time>2020-09-10T07:50:05Z</time>
      </trkpt>
      <trkpt lat="42.600080" lon="-8.637370">
        <ele>49.1</ele>
        <time>2020-09-10T07:50:05Z</time>
      </trkpt>
      <trkpt lat="42.600051" lon="-8.637368">
        <ele>49.9</ele>
        <time>2020-09-10T07:50:06Z</time>
      </trkpt>
      <trkpt lat="42.600022" lon="-8.637358">
        <ele>50.6</ele>
        <time>2020-09-10T07:50:07Z</time>
      </trkpt>
      <trkpt lat="42.599991" lon="-8.637331">
        <ele>50.7</ele>
        <time>2020-09-10T07:50:08Z</time>
      </trkpt>
      <trkpt lat="42.599974" lon="-8.637304">
        <ele>50.3</ele>
        <time>2020-09-10T07:50:08Z</time>
      </trkpt>
      <trkpt lat="42.599961" lon="-8.637291">
        <ele>50.2</ele>
        <time>2020-09-10T07:50:09Z</time>
      </trkpt>
      <trkpt lat="42.599955" lon="-8.637291">
        <ele>50.4</ele>
        <time>2020-09-10T07:50:09Z</time>
      </trkpt>
      <trkpt lat="42.599951" lon="-8.637291">
        <ele>50.5</ele>
        <time>2020-09-10T07:50:09Z</time>
      </trkpt>
      <trkpt lat="42.599946" lon="-8.637286">
        <ele>50.5</ele>
        <time>2020-09-10T07:50:09Z</time>
      </trkpt>
      <trkpt lat="42.599925" lon="-8.637284">
        <ele>51.0</ele>
        <time>2020-09-10T07:50:10Z</time>
      </trkpt>
      <trkpt lat="42.599896" lon="-8.637274">
        <ele>51.5</ele>
        <time>2020-09-10T07:50:11Z</time>
      </trkpt>
      <trkpt lat="42.599879" lon="-8.637265">
        <ele>51.8</ele>
        <time>2020-09-10T07:50:11Z</time>
      </trkpt>
      <trkpt lat="42.599865" lon="-8.637258">
        <ele>52.0</ele>
        <time>2020-09-10T07:50:11Z</time>
      </trkpt>
      <trkpt lat="42.599851" lon="-8.637255">
        <ele>52.4</ele>
        <time>2020-09-10T07:50:12Z</time>
      </trkpt>
      <trkpt lat="42.599833" lon="-8.637254">
        <ele>52.9</ele>
        <time>2020-09-10T07:50:12Z</time>
      </trkpt>
      <trkpt lat="42.599821" lon="-8.637253">
        <ele>53.3</ele>
        <time>2020-09-10T07:50:13Z</time>
      </trkpt>
      <trkpt lat="42.599807" lon="-8.637254">
        <ele>53.8</ele>
        <time>2020-09-10T07:50:13Z</time>
      </trkpt>
      <trkpt lat="42.599795" lon="-8.637254">
        <ele>54.2</ele>
        <time>2020-09-10T07:50:13Z</time>
      </trkpt>
      <trkpt lat="42.599785" lon="-8.637250">
        <ele>54.4</ele>
        <time>2020-09-10T07:50:14Z</time>
      </trkpt>
      <trkpt lat="42.599775" lon="-8.637242">
        <ele>54.5</ele>
        <time>2020-09-10T07:50:14Z</time>
      </trkpt>
      <trkpt lat="42.599766" lon="-8.637234">
        <ele>54.5</ele>
        <time>2020-09-10T07:50:14Z</time>
      </trkpt>
      <trkpt lat="42.599759" lon="-8.637235">
        <ele>54.8</ele>
        <time>2020-09-10T07:50:14Z</time>
      </trkpt>
      <trkpt lat="42.599747" lon="-8.637228">
        <ele>55.0</ele>
        <time>2020-09-10T07:50:15Z</time>
      </trkpt>
      <trkpt lat="42.599736" lon="-8.637219">
        <ele>55.1</ele>
        <time>2020-09-10T07:50:15Z</time>
      </trkpt>
      <trkpt lat="42.599723" lon="-8.637213">
        <ele>55.4</ele>
        <time>2020-09-10T07:50:15Z</time>
      </trkpt>
      <trkpt lat="42.599696" lon="-8.637203">
        <ele>56.0</ele>
        <time>2020-09-10T07:50:16Z</time>
      </trkpt>
      <trkpt lat="42.599690" lon="-8.637200">
        <ele>56.2</ele>
        <time>2020-09-10T07:50:16Z</time>
      </trkpt>
      <trkpt lat="42.599675" lon="-8.637202">
        <ele>56.7</ele>
        <time>2020-09-10T07:50:17Z</time>
      </trkpt>
      <trkpt lat="42.599661" lon="-8.637197">
        <ele>57.1</ele>
        <time>2020-09-10T07:50:17Z</time>
      </trkpt>
      <trkpt lat="42.599645" lon="-8.637187">
        <ele>57.4</ele>
        <time>2020-09-10T07:50:18Z</time>
      </trkpt>
      <trkpt lat="42.599631" lon="-8.637177">
        <ele>57.6</ele>
        <time>2020-09-10T07:50:18Z</time>
      </trkpt>
      <trkpt lat="42.599616" lon="-8.637167">
        <ele>57.9</ele>
        <time>2020-09-10T07:50:18Z</time>
      </trkpt>
      <trkpt lat="42.599594" lon="-8.637154">
        <ele>58.4</ele>
        <time>2020-09-10T07:50:19Z</time>
      </trkpt>
      <trkpt lat="42.599578" lon="-8.637138">
        <ele>58.6</ele>
        <time>2020-09-10T07:50:20Z</time>
      </trkpt>
      <trkpt lat="42.599573" lon="-8.637120">
        <ele>58.3</ele>
        <time>2020-09-10T07:50:20Z</time>
      </trkpt>
      <trkpt lat="42.599562" lon="-8.637111">
        <ele>58.6</ele>
        <time>2020-09-10T07:50:20Z</time>
      </trkpt>
      <trkpt lat="42.599544" lon="-8.637095">
        <ele>58.8</ele>
        <time>2020-09-10T07:50:21Z</time>
      </trkpt>
      <trkpt lat="42.599526" lon="-8.637076">
        <ele>59.1</ele>
        <time>2020-09-10T07:50:22Z</time>
      </trkpt>
      <trkpt lat="42.599503" lon="-8.637064">
        <ele>59.6</ele>
        <time>2020-09-10T07:50:22Z</time>
      </trkpt>
      <trkpt lat="42.599482" lon="-8.637051">
        <ele>60.1</ele>
        <time>2020-09-10T07:50:23Z</time>
      </trkpt>
      <trkpt lat="42.599456" lon="-8.637035">
        <ele>60.7</ele>
        <time>2020-09-10T07:50:24Z</time>
      </trkpt>
      <trkpt lat="42.599434" lon="-8.637022">
        <ele>61.2</ele>
        <time>2020-09-10T07:50:24Z</time>
      </trkpt>
      <trkpt lat="42.599393" lon="-8.636996">
        <ele>62.4</ele>
        <time>2020-09-10T07:50:25Z</time>
      </trkpt>
      <trkpt lat="42.599377" lon="-8.636980">
        <ele>62.7</ele>
        <time>2020-09-10T07:50:26Z</time>
      </trkpt>
      <trkpt lat="42.599355" lon="-8.636961">
        <ele>63.2</ele>
        <time>2020-09-10T07:50:27Z</time>
      </trkpt>
      <trkpt lat="42.599339" lon="-8.636938">
        <ele>63.4</ele>
        <time>2020-09-10T07:50:27Z</time>
      </trkpt>
      <trkpt lat="42.599300" lon="-8.636896">
        <ele>64.0</ele>
        <time>2020-09-10T07:50:29Z</time>
      </trkpt>
      <trkpt lat="42.599262" lon="-8.636863">
        <ele>64.8</ele>
        <time>2020-09-10T07:50:30Z</time>
      </trkpt>
      <trkpt lat="42.599252" lon="-8.636852">
        <ele>65.0</ele>
        <time>2020-09-10T07:50:30Z</time>
      </trkpt>
      <trkpt lat="42.599240" lon="-8.636844">
        <ele>65.3</ele>
        <time>2020-09-10T07:50:31Z</time>
      </trkpt>
      <trkpt lat="42.599224" lon="-8.636837">
        <ele>65.8</ele>
        <time>2020-09-10T07:50:31Z</time>
      </trkpt>
      <trkpt lat="42.599211" lon="-8.636833">
        <ele>66.2</ele>
        <time>2020-09-10T07:50:31Z</time>
      </trkpt>
      <trkpt lat="42.599193" lon="-8.636824">
        <ele>66.5</ele>
        <time>2020-09-10T07:50:32Z</time>
      </trkpt>
      <trkpt lat="42.599172" lon="-8.636817">
        <ele>66.8</ele>
        <time>2020-09-10T07:50:32Z</time>
      </trkpt>
      <trkpt lat="42.599152" lon="-8.636810">
        <ele>67.2</ele>
        <time>2020-09-10T07:50:33Z</time>
      </trkpt>
      <trkpt lat="42.599127" lon="-8.636798">
        <ele>67.5</ele>
        <time>2020-09-10T07:50:34Z</time>
      </trkpt>
      <trkpt lat="42.599112" lon="-8.636795">
        <ele>67.7</ele>
        <time>2020-09-10T07:50:34Z</time>
      </trkpt>
      <trkpt lat="42.599093" lon="-8.636796">
        <ele>68.2</ele>
        <time>2020-09-10T07:50:35Z</time>
      </trkpt>
      <trkpt lat="42.599075" lon="-8.636790">
        <ele>68.5</ele>
        <time>2020-09-10T07:50:35Z</time>
      </trkpt>
      <trkpt lat="42.599052" lon="-8.636779">
        <ele>68.7</ele>
        <time>2020-09-10T07:50:36Z</time>
      </trkpt>
      <trkpt lat="42.599033" lon="-8.636771">
        <ele>68.9</ele>
        <time>2020-09-10T07:50:36Z</time>
      </trkpt>
      <trkpt lat="42.599013" lon="-8.636766">
        <ele>69.1</ele>
        <time>2020-09-10T07:50:37Z</time>
      </trkpt>
      <trkpt lat="42.598997" lon="-8.636762">
        <ele>69.4</ele>
        <time>2020-09-10T07:50:37Z</time>
      </trkpt>
      <trkpt lat="42.598976" lon="-8.636770">
        <ele>70.1</ele>
        <time>2020-09-10T07:50:38Z</time>
      </trkpt>
      <trkpt lat="42.598961" lon="-8.636773">
        <ele>70.4</ele>
        <time>2020-09-10T07:50:38Z</time>
      </trkpt>
      <trkpt lat="42.598947" lon="-8.636776">
        <ele>70.8</ele>
        <time>2020-09-10T07:50:39Z</time>
      </trkpt>
      <trkpt lat="42.598924" lon="-8.636775">
        <ele>71.1</ele>
        <time>2020-09-10T07:50:39Z</time>
      </trkpt>
      <trkpt lat="42.598903" lon="-8.636765">
        <ele>71.1</ele>
        <time>2020-09-10T07:50:40Z</time>
      </trkpt>
      <trkpt lat="42.598882" lon="-8.636758">
        <ele>71.2</ele>
        <time>2020-09-10T07:50:40Z</time>
      </trkpt>
      <trkpt lat="42.598861" lon="-8.636754">
        <ele>71.4</ele>
        <time>2020-09-10T07:50:41Z</time>
      </trkpt>
      <trkpt lat="42.598846" lon="-8.636752">
        <ele>71.6</ele>
        <time>2020-09-10T07:50:41Z</time>
      </trkpt>
      <trkpt lat="42.598837" lon="-8.636752">
        <ele>71.7</ele>
        <time>2020-09-10T07:50:42Z</time>
      </trkpt>
      <trkpt lat="42.598819" lon="-8.636753">
        <ele>72.0</ele>
        <time>2020-09-10T07:50:42Z</time>
      </trkpt>
      <trkpt lat="42.598805" lon="-8.636766">
        <ele>72.7</ele>
        <time>2020-09-10T07:50:43Z</time>
      </trkpt>
      <trkpt lat="42.598788" lon="-8.636777">
        <ele>73.4</ele>
        <time>2020-09-10T07:50:43Z</time>
      </trkpt>
      <trkpt lat="42.598774" lon="-8.636787">
        <ele>74.0</ele>
        <time>2020-09-10T07:50:43Z</time>
      </trkpt>
      <trkpt lat="42.598764" lon="-8.636796">
        <ele>74.5</ele>
        <time>2020-09-10T07:50:44Z</time>
      </trkpt>
      <trkpt lat="42.598750" lon="-8.636800">
        <ele>74.9</ele>
        <time>2020-09-10T07:50:44Z</time>
      </trkpt>
      <trkpt lat="42.598733" lon="-8.636804">
        <ele>75.2</ele>
        <time>2020-09-10T07:50:45Z</time>
      </trkpt>
      <trkpt lat="42.598713" lon="-8.636813">
        <ele>75.7</ele>
        <time>2020-09-10T07:50:45Z</time>
      </trkpt>
      <trkpt lat="42.598698" lon="-8.636822">
        <ele>76.2</ele>
        <time>2020-09-10T07:50:46Z</time>
      </trkpt>
      <trkpt lat="42.598679" lon="-8.636832">
        <ele>76.7</ele>
        <time>2020-09-10T07:50:46Z</time>
      </trkpt>
      <trkpt lat="42.598664" lon="-8.636839">
        <ele>77.0</ele>
        <time>2020-09-10T07:50:47Z</time>
      </trkpt>
      <trkpt lat="42.598644" lon="-8.636838">
        <ele>77.1</ele>
        <time>2020-09-10T07:50:47Z</time>
      </trkpt>
      <trkpt lat="42.598622" lon="-8.636839">
        <ele>77.3</ele>
        <time>2020-09-10T07:50:48Z</time>
      </trkpt>
      <trkpt lat="42.598604" lon="-8.636843">
        <ele>77.6</ele>
        <time>2020-09-10T07:50:48Z</time>
      </trkpt>
      <trkpt lat="42.598586" lon="-8.636849">
        <ele>77.9</ele>
        <time>2020-09-10T07:50:49Z</time>
      </trkpt>
      <trkpt lat="42.598563" lon="-8.636854">
        <ele>78.2</ele>
        <time>2020-09-10T07:50:49Z</time>
      </trkpt>
      <trkpt lat="42.598544" lon="-8.636857">
        <ele>78.5</ele>
        <time>2020-09-10T07:50:50Z</time>
      </trkpt>
      <trkpt lat="42.598527" lon="-8.636858">
        <ele>78.6</ele>
        <time>2020-09-10T07:50:50Z</time>
      </trkpt>
      <trkpt lat="42.598509" lon="-8.636864">
        <ele>78.9</ele>
        <time>2020-09-10T07:50:51Z</time>
      </trkpt>
      <trkpt lat="42.598492" lon="-8.636868">
        <ele>78.9</ele>
        <time>2020-09-10T07:50:51Z</time>
      </trkpt>
      <trkpt lat="42.598475" lon="-8.636873">
        <ele>78.9</ele>
        <time>2020-09-10T07:50:52Z</time>
      </trkpt>
      <trkpt lat="42.598453" lon="-8.636888">
        <ele>79.3</ele>
        <time>2020-09-10T07:50:52Z</time>
      </trkpt>
      <trkpt lat="42.598431" lon="-8.636906">
        <ele>79.7</ele>
        <time>2020-09-10T07:50:53Z</time>
      </trkpt>
      <trkpt lat="42.598413" lon="-8.636922">
        <ele>80.0</ele>
        <time>2020-09-10T07:50:54Z</time>
      </trkpt>
      <trkpt lat="42.598393" lon="-8.636942">
        <ele>80.5</ele>
        <time>2020-09-10T07:50:54Z</time>
      </trkpt>
      <trkpt lat="42.598369" lon="-8.636964">
        <ele>80.9</ele>
        <time>2020-09-10T07:50:55Z</time>
      </trkpt>
      <trkpt lat="42.598343" lon="-8.636990">
        <ele>81.3</ele>
        <time>2020-09-10T07:50:56Z</time>
      </trkpt>
      <trkpt lat="42.598323" lon="-8.637021">
        <ele>81.8</ele>
        <time>2020-09-10T07:50:57Z</time>
      </trkpt>
      <trkpt lat="42.598311" lon="-8.637051">
        <ele>82.2</ele>
        <time>2020-09-10T07:50:57Z</time>
      </trkpt>
      <trkpt lat="42.598290" lon="-8.637077">
        <ele>82.4</ele>
        <time>2020-09-10T07:50:58Z</time>
      </trkpt>
      <trkpt lat="42.598276" lon="-8.637101">
        <ele>82.7</ele>
        <time>2020-09-10T07:50:59Z</time>
      </trkpt>
      <trkpt lat="42.598262" lon="-8.637123">
        <ele>83.1</ele>
        <time>2020-09-10T07:50:59Z</time>
      </trkpt>
      <trkpt lat="42.598244" lon="-8.637138">
        <ele>83.2</ele>
        <time>2020-09-10T07:51:00Z</time>
      </trkpt>
      <trkpt lat="42.598221" lon="-8.637149">
        <ele>83.3</ele>
        <time>2020-09-10T07:51:00Z</time>
      </trkpt>
      <trkpt lat="42.598200" lon="-8.637163">
        <ele>83.4</ele>
        <time>2020-09-10T07:51:01Z</time>
      </trkpt>
      <trkpt lat="42.598176" lon="-8.637179">
        <ele>83.5</ele>
        <time>2020-09-10T07:51:02Z</time>
      </trkpt>
      <trkpt lat="42.598152" lon="-8.637190">
        <ele>83.6</ele>
        <time>2020-09-10T07:51:02Z</time>
      </trkpt>
      <trkpt lat="42.598125" lon="-8.637200">
        <ele>83.6</ele>
        <time>2020-09-10T07:51:03Z</time>
      </trkpt>
      <trkpt lat="42.598095" lon="-8.637210">
        <ele>83.5</ele>
        <time>2020-09-10T07:51:04Z</time>
      </trkpt>
      <trkpt lat="42.598066" lon="-8.637217">
        <ele>83.3</ele>
        <time>2020-09-10T07:51:05Z</time>
      </trkpt>
      <trkpt lat="42.598042" lon="-8.637217">
        <ele>83.4</ele>
        <time>2020-09-10T07:51:05Z</time>
      </trkpt>
      <trkpt lat="42.598015" lon="-8.637211">
        <ele>83.8</ele>
        <time>2020-09-10T07:51:06Z</time>
      </trkpt>
      <trkpt lat="42.597990" lon="-8.637204">
        <ele>84.1</ele>
        <time>2020-09-10T07:51:07Z</time>
      </trkpt>
      <trkpt lat="42.597973" lon="-8.637199">
        <ele>84.3</ele>
        <time>2020-09-10T07:51:07Z</time>
      </trkpt>
      <trkpt lat="42.597959" lon="-8.637192">
        <ele>84.4</ele>
        <time>2020-09-10T07:51:08Z</time>
      </trkpt>
      <trkpt lat="42.597945" lon="-8.637186">
        <ele>84.5</ele>
        <time>2020-09-10T07:51:08Z</time>
      </trkpt>
      <trkpt lat="42.597928" lon="-8.637179">
        <ele>84.7</ele>
        <time>2020-09-10T07:51:09Z</time>
      </trkpt>
      <trkpt lat="42.597911" lon="-8.637168">
        <ele>84.8</ele>
        <time>2020-09-10T07:51:09Z</time>
      </trkpt>
      <trkpt lat="42.597893" lon="-8.637152">
        <ele>84.8</ele>
        <time>2020-09-10T07:51:10Z</time>
      </trkpt>
      <trkpt lat="42.597873" lon="-8.637137">
        <ele>84.9</ele>
        <time>2020-09-10T07:51:10Z</time>
      </trkpt>
      <trkpt lat="42.597855" lon="-8.637124">
        <ele>85.0</ele>
        <time>2020-09-10T07:51:11Z</time>
      </trkpt>
      <trkpt lat="42.597838" lon="-8.637111">
        <ele>85.1</ele>
        <time>2020-09-10T07:51:11Z</time>
      </trkpt>
      <trkpt lat="42.597818" lon="-8.637097">
        <ele>85.2</ele>
        <time>2020-09-10T07:51:12Z</time>
      </trkpt>
      <trkpt lat="42.597792" lon="-8.637076">
        <ele>85.4</ele>
        <time>2020-09-10T07:51:13Z</time>
      </trkpt>
      <trkpt lat="42.597765" lon="-8.637055">
        <ele>85.5</ele>
        <time>2020-09-10T07:51:14Z</time>
      </trkpt>
      <trkpt lat="42.597739" lon="-8.637031">
        <ele>85.6</ele>
        <time>2020-09-10T07:51:14Z</time>
      </trkpt>
      <trkpt lat="42.597710" lon="-8.637008">
        <ele>85.7</ele>
        <time>2020-09-10T07:51:15Z</time>
      </trkpt>
      <trkpt lat="42.597683" lon="-8.636987">
        <ele>85.8</ele>
        <time>2020-09-10T07:51:16Z</time>
      </trkpt>
      <trkpt lat="42.597657" lon="-8.636966">
        <ele>85.8</ele>
        <time>2020-09-10T07:51:17Z</time>
      </trkpt>
      <trkpt lat="42.597633" lon="-8.636944">
        <ele>86.0</ele>
        <time>2020-09-10T07:51:18Z</time>
      </trkpt>
      <trkpt lat="42.597606" lon="-8.636918">
        <ele>86.1</ele>
        <time>2020-09-10T07:51:19Z</time>
      </trkpt>
      <trkpt lat="42.597577" lon="-8.636885">
        <ele>86.4</ele>
        <time>2020-09-10T07:51:20Z</time>
      </trkpt>
      <trkpt lat="42.597538" lon="-8.636850">
        <ele>86.8</ele>
        <time>2020-09-10T07:51:21Z</time>
      </trkpt>
      <trkpt lat="42.597492" lon="-8.636813">
        <ele>87.2</ele>
        <time>2020-09-10T07:51:22Z</time>
      </trkpt>
      <trkpt lat="42.597447" lon="-8.636775">
        <ele>87.6</ele>
        <time>2020-09-10T07:51:24Z</time>
      </trkpt>
      <trkpt lat="42.597402" lon="-8.636731">
        <ele>88.0</ele>
        <time>2020-09-10T07:51:25Z</time>
      </trkpt>
      <trkpt lat="42.597363" lon="-8.636683">
        <ele>88.7</ele>
        <time>2020-09-10T07:51:27Z</time>
      </trkpt>
      <trkpt lat="42.597331" lon="-8.636638">
        <ele>89.3</ele>
        <time>2020-09-10T07:51:28Z</time>
      </trkpt>
      <trkpt lat="42.597311" lon="-8.636597">
        <ele>89.5</ele>
        <time>2020-09-10T07:51:29Z</time>
      </trkpt>
      <trkpt lat="42.597302" lon="-8.636552">
        <ele>89.6</ele>
        <time>2020-09-10T07:51:30Z</time>
      </trkpt>
      <trkpt lat="42.597284" lon="-8.636496">
        <ele>89.9</ele>
        <time>2020-09-10T07:51:31Z</time>
      </trkpt>
      <trkpt lat="42.597254" lon="-8.636443">
        <ele>90.6</ele>
        <time>2020-09-10T07:51:32Z</time>
      </trkpt>
      <trkpt lat="42.597232" lon="-8.636403">
        <ele>91.0</ele>
        <time>2020-09-10T07:51:33Z</time>
      </trkpt>
      <trkpt lat="42.597210" lon="-8.636360">
        <ele>91.3</ele>
        <time>2020-09-10T07:51:34Z</time>
      </trkpt>
      <trkpt lat="42.597199" lon="-8.636318">
        <ele>91.5</ele>
        <time>2020-09-10T07:51:35Z</time>
      </trkpt>
      <trkpt lat="42.597193" lon="-8.636272">
        <ele>91.7</ele>
        <time>2020-09-10T07:51:36Z</time>
      </trkpt>
      <trkpt lat="42.597190" lon="-8.636232">
        <ele>91.8</ele>
        <time>2020-09-10T07:51:37Z</time>
      </trkpt>
      <trkpt lat="42.597178" lon="-8.636173">
        <ele>91.9</ele>
        <time>2020-09-10T07:51:38Z</time>
      </trkpt>
      <trkpt lat="42.597177" lon="-8.636118">
        <ele>92.0</ele>
        <time>2020-09-10T07:51:39Z</time>
      </trkpt>
      <trkpt lat="42.597171" lon="-8.636065">
        <ele>92.1</ele>
        <time>2020-09-10T07:51:40Z</time>
      </trkpt>
      <trkpt lat="42.597162" lon="-8.636017">
        <ele>92.1</ele>
        <time>2020-09-10T07:51:41Z</time>
      </trkpt>
      <trkpt lat="42.597166" lon="-8.635967">
        <ele>92.1</ele>
        <time>2020-09-10T07:51:42Z</time>
      </trkpt>
      <trkpt lat="42.597168" lon="-8.635918">
        <ele>92.1</ele>
        <time>2020-09-10T07:51:43Z</time>
      </trkpt>
      <trkpt lat="42.597175" lon="-8.635858">
        <ele>92.1</ele>
        <time>2020-09-10T07:51:44Z</time>
      </trkpt>
      <trkpt lat="42.597188" lon="-8.635796">
        <ele>91.9</ele>
        <time>2020-09-10T07:51:46Z</time>
      </trkpt>
      <trkpt lat="42.597195" lon="-8.635723">
        <ele>91.6</ele>
        <time>2020-09-10T07:51:47Z</time>
      </trkpt>
      <trkpt lat="42.597195" lon="-8.635637">
        <ele>91.3</ele>
        <time>2020-09-10T07:51:49Z</time>
      </trkpt>
      <trkpt lat="42.597200" lon="-8.635555">
        <ele>90.9</ele>
        <time>2020-09-10T07:51:50Z</time>
      </trkpt>
      <trkpt lat="42.597193" lon="-8.635484">
        <ele>90.6</ele>
        <time>2020-09-10T07:51:52Z</time>
      </trkpt>
      <trkpt lat="42.597158" lon="-8.635416">
        <ele>90.5</ele>
        <time>2020-09-10T07:51:53Z</time>
      </trkpt>
      <trkpt lat="42.597122" lon="-8.635355">
        <ele>90.6</ele>
        <time>2020-09-10T07:51:55Z</time>
      </trkpt>
      <trkpt lat="42.597083" lon="-8.635316">
        <ele>90.6</ele>
        <time>2020-09-10T07:51:56Z</time>
      </trkpt>
      <trkpt lat="42.597033" lon="-8.635293">
        <ele>90.8</ele>
        <time>2020-09-10T07:51:58Z</time>
      </trkpt>
      <trkpt lat="42.596987" lon="-8.635287">
        <ele>91.0</ele>
        <time>2020-09-10T07:51:59Z</time>
      </trkpt>
      <trkpt lat="42.596948" lon="-8.635279">
        <ele>91.2</ele>
        <time>2020-09-10T07:52:00Z</time>
      </trkpt>
      <trkpt lat="42.596909" lon="-8.635273">
        <ele>91.4</ele>
        <time>2020-09-10T07:52:01Z</time>
      </trkpt>
      <trkpt lat="42.596871" lon="-8.635273">
        <ele>91.7</ele>
        <time>2020-09-10T07:52:02Z</time>
      </trkpt>
      <trkpt lat="42.596832" lon="-8.635273">
        <ele>91.9</ele>
        <time>2020-09-10T07:52:03Z</time>
      </trkpt>
      <trkpt lat="42.596790" lon="-8.635273">
        <ele>92.2</ele>
        <time>2020-09-10T07:52:04Z</time>
      </trkpt>
      <trkpt lat="42.596750" lon="-8.635274">
        <ele>92.5</ele>
        <time>2020-09-10T07:52:05Z</time>
      </trkpt>
      <trkpt lat="42.596709" lon="-8.635273">
        <ele>92.8</ele>
        <time>2020-09-10T07:52:06Z</time>
      </trkpt>
      <trkpt lat="42.596671" lon="-8.635273">
        <ele>93.1</ele>
        <time>2020-09-10T07:52:07Z</time>
      </trkpt>
      <trkpt lat="42.596636" lon="-8.635276">
        <ele>93.4</ele>
        <time>2020-09-10T07:52:08Z</time>
      </trkpt>
      <trkpt lat="42.596602" lon="-8.635282">
        <ele>93.8</ele>
        <time>2020-09-10T07:52:09Z</time>
      </trkpt>
      <trkpt lat="42.596566" lon="-8.635287">
        <ele>94.3</ele>
        <time>2020-09-10T07:52:10Z</time>
      </trkpt>
      <trkpt lat="42.596532" lon="-8.635292">
        <ele>94.7</ele>
        <time>2020-09-10T07:52:11Z</time>
      </trkpt>
      <trkpt lat="42.596498" lon="-8.635299">
        <ele>95.1</ele>
        <time>2020-09-10T07:52:12Z</time>
      </trkpt>
      <trkpt lat="42.596463" lon="-8.635308">
        <ele>95.5</ele>
        <time>2020-09-10T07:52:13Z</time>
      </trkpt>
      <trkpt lat="42.596428" lon="-8.635326">
        <ele>96.0</ele>
        <time>2020-09-10T07:52:14Z</time>
      </trkpt>
      <trkpt lat="42.596398" lon="-8.635345">
        <ele>96.5</ele>
        <time>2020-09-10T07:52:15Z</time>
      </trkpt>
      <trkpt lat="42.596371" lon="-8.635373">
        <ele>97.0</ele>
        <time>2020-09-10T07:52:16Z</time>
      </trkpt>
      <trkpt lat="42.596345" lon="-8.635407">
        <ele>97.5</ele>
        <time>2020-09-10T07:52:17Z</time>
      </trkpt>
      <trkpt lat="42.596321" lon="-8.635442">
        <ele>97.9</ele>
        <time>2020-09-10T07:52:18Z</time>
      </trkpt>
      <trkpt lat="42.596297" lon="-8.635476">
        <ele>98.3</ele>
        <time>2020-09-10T07:52:18Z</time>
      </trkpt>
      <trkpt lat="42.596275" lon="-8.635509">
        <ele>98.8</ele>
        <time>2020-09-10T07:52:19Z</time>
      </trkpt>
      <trkpt lat="42.596250" lon="-8.635544">
        <ele>99.2</ele>
        <time>2020-09-10T07:52:20Z</time>
      </trkpt>
      <trkpt lat="42.596226" lon="-8.635577">
        <ele>99.7</ele>
        <time>2020-09-10T07:52:21Z</time>
      </trkpt>
      <trkpt lat="42.596198" lon="-8.635609">
        <ele>100.1</ele>
        <time>2020-09-10T07:52:22Z</time>
      </trkpt>
      <trkpt lat="42.596171" lon="-8.635641">
        <ele>100.4</ele>
        <time>2020-09-10T07:52:23Z</time>
      </trkpt>
      <trkpt lat="42.596145" lon="-8.635673">
        <ele>100.7</ele>
        <time>2020-09-10T07:52:24Z</time>
      </trkpt>
      <trkpt lat="42.596120" lon="-8.635704">
        <ele>100.9</ele>
        <time>2020-09-10T07:52:25Z</time>
      </trkpt>
      <trkpt lat="42.596091" lon="-8.635737">
        <ele>101.2</ele>
        <time>2020-09-10T07:52:26Z</time>
      </trkpt>
      <trkpt lat="42.596059" lon="-8.635776">
        <ele>101.6</ele>
        <time>2020-09-10T07:52:27Z</time>
      </trkpt>
      <trkpt lat="42.596012" lon="-8.635827">
        <ele>102.0</ele>
        <time>2020-09-10T07:52:29Z</time>
      </trkpt>
      <trkpt lat="42.595977" lon="-8.635855">
        <ele>102.2</ele>
        <time>2020-09-10T07:52:30Z</time>
      </trkpt>
      <trkpt lat="42.595940" lon="-8.635897">
        <ele>102.2</ele>
        <time>2020-09-10T07:52:31Z</time>
      </trkpt>
      <trkpt lat="42.595907" lon="-8.635947">
        <ele>102.2</ele>
        <time>2020-09-10T07:52:32Z</time>
      </trkpt>
      <trkpt lat="42.595873" lon="-8.635996">
        <ele>102.2</ele>
        <time>2020-09-10T07:52:34Z</time>
      </trkpt>
      <trkpt lat="42.595837" lon="-8.636040">
        <ele>102.2</ele>
        <time>2020-09-10T07:52:35Z</time>
      </trkpt>
      <trkpt lat="42.595801" lon="-8.636082">
        <ele>102.2</ele>
        <time>2020-09-10T07:52:36Z</time>
      </trkpt>
      <trkpt lat="42.595764" lon="-8.636125">
        <ele>102.2</ele>
        <time>2020-09-10T07:52:38Z</time>
      </trkpt>
      <trkpt lat="42.595727" lon="-8.636167">
        <ele>102.2</ele>
        <time>2020-09-10T07:52:39Z</time>
      </trkpt>
      <trkpt lat="42.595693" lon="-8.636214">
        <ele>102.0</ele>
        <time>2020-09-10T07:52:40Z</time>
      </trkpt>
      <trkpt lat="42.595650" lon="-8.636257">
        <ele>102.0</ele>
        <time>2020-09-10T07:52:42Z</time>
      </trkpt>
      <trkpt lat="42.595600" lon="-8.636298">
        <ele>102.0</ele>
        <time>2020-09-10T07:52:43Z</time>
      </trkpt>
      <trkpt lat="42.595549" lon="-8.636344">
        <ele>101.8</ele>
        <time>2020-09-10T07:52:45Z</time>
      </trkpt>
      <trkpt lat="42.595500" lon="-8.636392">
        <ele>101.6</ele>
        <time>2020-09-10T07:52:46Z</time>
      </trkpt>
      <trkpt lat="42.595446" lon="-8.636441">
        <ele>101.5</ele>
        <time>2020-09-10T07:52:48Z</time>
      </trkpt>
      <trkpt lat="42.595398" lon="-8.636483">
        <ele>101.4</ele>
        <time>2020-09-10T07:52:50Z</time>
      </trkpt>
      <trkpt lat="42.595355" lon="-8.636526">
        <ele>101.4</ele>
        <time>2020-09-10T07:52:51Z</time>
      </trkpt>
      <trkpt lat="42.595314" lon="-8.636574">
        <ele>101.3</ele>
        <time>2020-09-10T07:52:53Z</time>
      </trkpt>
      <trkpt lat="42.595270" lon="-8.636624">
        <ele>101.1</ele>
        <time>2020-09-10T07:52:54Z</time>
      </trkpt>
      <trkpt lat="42.595220" lon="-8.636676">
        <ele>100.8</ele>
        <time>2020-09-10T07:52:56Z</time>
      </trkpt>
      <trkpt lat="42.595167" lon="-8.636731">
        <ele>100.5</ele>
        <time>2020-09-10T07:52:58Z</time>
      </trkpt>
      <trkpt lat="42.595111" lon="-8.636800">
        <ele>100.2</ele>
        <time>2020-09-10T07:53:00Z</time>
      </trkpt>
      <trkpt lat="42.595059" lon="-8.636878">
        <ele>99.9</ele>
        <time>2020-09-10T07:53:02Z</time>
      </trkpt>
      <trkpt lat="42.595005" lon="-8.636959">
        <ele>99.7</ele>
        <time>2020-09-10T07:53:04Z</time>
      </trkpt>
      <trkpt lat="42.594954" lon="-8.637047">
        <ele>99.4</ele>
        <time>2020-09-10T07:53:06Z</time>
      </trkpt>
      <trkpt lat="42.594909" lon="-8.637138">
        <ele>98.9</ele>
        <time>2020-09-10T07:53:08Z</time>
      </trkpt>
      <trkpt lat="42.594872" lon="-8.637229">
        <ele>98.4</ele>
        <time>2020-09-10T07:53:10Z</time>
      </trkpt>
      <trkpt lat="42.594842" lon="-8.637325">
        <ele>97.9</ele>
        <time>2020-09-10T07:53:12Z</time>
      </trkpt>
      <trkpt lat="42.594820" lon="-8.637423">
        <ele>97.3</ele>
        <time>2020-09-10T07:53:14Z</time>
      </trkpt>
      <trkpt lat="42.594802" lon="-8.637527">
        <ele>97.0</ele>
        <time>2020-09-10T07:53:16Z</time>
      </trkpt>
      <trkpt lat="42.594799" lon="-8.637640">
        <ele>96.5</ele>
        <time>2020-09-10T07:53:19Z</time>
      </trkpt>
      <trkpt lat="42.594792" lon="-8.637734">
        <ele>96.2</ele>
        <time>2020-09-10T07:53:20Z</time>
      </trkpt>
      <trkpt lat="42.594790" lon="-8.637817">
        <ele>95.9</ele>
        <time>2020-09-10T07:53:22Z</time>
      </trkpt>
      <trkpt lat="42.594798" lon="-8.637905">
        <ele>95.6</ele>
        <time>2020-09-10T07:53:24Z</time>
      </trkpt>
      <trkpt lat="42.594819" lon="-8.637989">
        <ele>95.6</ele>
        <time>2020-09-10T07:53:26Z</time>
      </trkpt>
      <trkpt lat="42.594846" lon="-8.638075">
        <ele>95.4</ele>
        <time>2020-09-10T07:53:27Z</time>
      </trkpt>
      <trkpt lat="42.594870" lon="-8.638156">
        <ele>95.2</ele>
        <time>2020-09-10T07:53:29Z</time>
      </trkpt>
      <trkpt lat="42.594895" lon="-8.638222">
        <ele>94.8</ele>
        <time>2020-09-10T07:53:31Z</time>
      </trkpt>
      <trkpt lat="42.594910" lon="-8.638283">
        <ele>94.5</ele>
        <time>2020-09-10T07:53:32Z</time>
      </trkpt>
      <trkpt lat="42.594905" lon="-8.638352">
        <ele>94.5</ele>
        <time>2020-09-10T07:53:33Z</time>
      </trkpt>
      <trkpt lat="42.594896" lon="-8.638421">
        <ele>94.3</ele>
        <time>2020-09-10T07:53:34Z</time>
      </trkpt>
      <trkpt lat="42.594881" lon="-8.638491">
        <ele>94.2</ele>
        <time>2020-09-10T07:53:36Z</time>
      </trkpt>
      <trkpt lat="42.594848" lon="-8.638538">
        <ele>94.4</ele>
        <time>2020-09-10T07:53:37Z</time>
      </trkpt>
      <trkpt lat="42.594814" lon="-8.638567">
        <ele>94.7</ele>
        <time>2020-09-10T07:53:38Z</time>
      </trkpt>
      <trkpt lat="42.594778" lon="-8.638585">
        <ele>94.9</ele>
        <time>2020-09-10T07:53:39Z</time>
      </trkpt>
      <trkpt lat="42.594747" lon="-8.638593">
        <ele>95.2</ele>
        <time>2020-09-10T07:53:40Z</time>
      </trkpt>
      <trkpt lat="42.594717" lon="-8.638599">
        <ele>95.4</ele>
        <time>2020-09-10T07:53:41Z</time>
      </trkpt>
      <trkpt lat="42.594683" lon="-8.638593">
        <ele>95.8</ele>
        <time>2020-09-10T07:53:42Z</time>
      </trkpt>
      <trkpt lat="42.594639" lon="-8.638581">
        <ele>96.3</ele>
        <time>2020-09-10T07:53:43Z</time>
      </trkpt>
      <trkpt lat="42.594589" lon="-8.638571">
        <ele>96.8</ele>
        <time>2020-09-10T07:53:44Z</time>
      </trkpt>
      <trkpt lat="42.594550" lon="-8.638563">
        <ele>97.1</ele>
        <time>2020-09-10T07:53:45Z</time>
      </trkpt>
      <trkpt lat="42.594507" lon="-8.638558">
        <ele>97.5</ele>
        <time>2020-09-10T07:53:47Z</time>
      </trkpt>
      <trkpt lat="42.594478" lon="-8.638557">
        <ele>97.8</ele>
        <time>2020-09-10T07:53:47Z</time>
      </trkpt>
      <trkpt lat="42.594453" lon="-8.638555">
        <ele>98.1</ele>
        <time>2020-09-10T07:53:48Z</time>
      </trkpt>
      <trkpt lat="42.594426" lon="-8.638541">
        <ele>98.3</ele>
        <time>2020-09-10T07:53:49Z</time>
      </trkpt>
      <trkpt lat="42.594394" lon="-8.638521">
        <ele>98.7</ele>
        <time>2020-09-10T07:53:50Z</time>
      </trkpt>
      <trkpt lat="42.594354" lon="-8.638515">
        <ele>99.0</ele>
        <time>2020-09-10T07:53:51Z</time>
      </trkpt>
      <trkpt lat="42.594328" lon="-8.638507">
        <ele>99.3</ele>
        <time>2020-09-10T07:53:52Z</time>
      </trkpt>
      <trkpt lat="42.594295" lon="-8.638501">
        <ele>99.6</ele>
        <time>2020-09-10T07:53:52Z</time>
      </trkpt>
      <trkpt lat="42.594260" lon="-8.638494">
        <ele>99.9</ele>
        <time>2020-09-10T07:53:53Z</time>
      </trkpt>
      <trkpt lat="42.594242" lon="-8.638490">
        <ele>100.1</ele>
        <time>2020-09-10T07:53:54Z</time>
      </trkpt>
      <trkpt lat="42.594216" lon="-8.638486">
        <ele>100.3</ele>
        <time>2020-09-10T07:53:55Z</time>
      </trkpt>
      <trkpt lat="42.594188" lon="-8.638463">
        <ele>100.6</ele>
        <time>2020-09-10T07:53:55Z</time>
      </trkpt>
      <trkpt lat="42.594164" lon="-8.638454">
        <ele>100.8</ele>
        <time>2020-09-10T07:53:56Z</time>
      </trkpt>
      <trkpt lat="42.594154" lon="-8.638452">
        <ele>100.9</ele>
        <time>2020-09-10T07:53:56Z</time>
      </trkpt>
      <trkpt lat="42.594136" lon="-8.638450">
        <ele>101.1</ele>
        <time>2020-09-10T07:53:57Z</time>
      </trkpt>
      <trkpt lat="42.594101" lon="-8.638439">
        <ele>101.2</ele>
        <time>2020-09-10T07:53:58Z</time>
      </trkpt>
      <trkpt lat="42.594064" lon="-8.638411">
        <ele>101.5</ele>
        <time>2020-09-10T07:53:59Z</time>
      </trkpt>
      <trkpt lat="42.594023" lon="-8.638389">
        <ele>101.7</ele>
        <time>2020-09-10T07:54:00Z</time>
      </trkpt>
      <trkpt lat="42.593980" lon="-8.638367">
        <ele>102.0</ele>
        <time>2020-09-10T07:54:01Z</time>
      </trkpt>
      <trkpt lat="42.593926" lon="-8.638350">
        <ele>102.2</ele>
        <time>2020-09-10T07:54:03Z</time>
      </trkpt>
      <trkpt lat="42.593869" lon="-8.638333">
        <ele>102.2</ele>
        <time>2020-09-10T07:54:04Z</time>
      </trkpt>
      <trkpt lat="42.593819" lon="-8.638313">
        <ele>102.1</ele>
        <time>2020-09-10T07:54:06Z</time>
      </trkpt>
      <trkpt lat="42.593751" lon="-8.638296">
        <ele>102.0</ele>
        <time>2020-09-10T07:54:08Z</time>
      </trkpt>
      <trkpt lat="42.593676" lon="-8.638282">
        <ele>102.0</ele>
        <time>2020-09-10T07:54:10Z</time>
      </trkpt>
      <trkpt lat="42.593624" lon="-8.638269">
        <ele>101.7</ele>
        <time>2020-09-10T07:54:11Z</time>
      </trkpt>
      <trkpt lat="42.593567" lon="-8.638259">
        <ele>101.4</ele>
        <time>2020-09-10T07:54:13Z</time>
      </trkpt>
      <trkpt lat="42.593498" lon="-8.638249">
        <ele>101.0</ele>
        <time>2020-09-10T07:54:14Z</time>
      </trkpt>
      <trkpt lat="42.593440" lon="-8.638235">
        <ele>100.8</ele>
        <time>2020-09-10T07:54:16Z</time>
      </trkpt>
      <trkpt lat="42.593395" lon="-8.638214">
        <ele>100.7</ele>
        <time>2020-09-10T07:54:17Z</time>
      </trkpt>
      <trkpt lat="42.593345" lon="-8.638192">
        <ele>100.6</ele>
        <time>2020-09-10T07:54:19Z</time>
      </trkpt>
      <trkpt lat="42.593310" lon="-8.638185">
        <ele>100.4</ele>
        <time>2020-09-10T07:54:20Z</time>
      </trkpt>
      <trkpt lat="42.593267" lon="-8.638177">
        <ele>100.3</ele>
        <time>2020-09-10T07:54:21Z</time>
      </trkpt>
      <trkpt lat="42.593243" lon="-8.638181">
        <ele>100.2</ele>
        <time>2020-09-10T07:54:21Z</time>
      </trkpt>
      <trkpt lat="42.593194" lon="-8.638163">
        <ele>99.9</ele>
        <time>2020-09-10T07:54:23Z</time>
      </trkpt>
      <trkpt lat="42.593106" lon="-8.638122">
        <ele>98.7</ele>
        <time>2020-09-10T07:54:25Z</time>
      </trkpt>
      <trkpt lat="42.593016" lon="-8.638131">
        <ele>97.5</ele>
        <time>2020-09-10T07:54:28Z</time>
      </trkpt>
      <trkpt lat="42.592964" lon="-8.638144">
        <ele>96.9</ele>
        <time>2020-09-10T07:54:29Z</time>
      </trkpt>
      <trkpt lat="42.592889" lon="-8.638148">
        <ele>96.7</ele>
        <time>2020-09-10T07:54:31Z</time>
      </trkpt>
      <trkpt lat="42.592834" lon="-8.638124">
        <ele>96.3</ele>
        <time>2020-09-10T07:54:33Z</time>
      </trkpt>
      <trkpt lat="42.592788" lon="-8.638086">
        <ele>95.6</ele>
        <time>2020-09-10T07:54:34Z</time>
      </trkpt>
      <trkpt lat="42.592736" lon="-8.638042">
        <ele>94.9</ele>
        <time>2020-09-10T07:54:36Z</time>
      </trkpt>
      <trkpt lat="42.592663" lon="-8.637991">
        <ele>94.4</ele>
        <time>2020-09-10T07:54:38Z</time>
      </trkpt>
      <trkpt lat="42.592598" lon="-8.637944">
        <ele>93.6</ele>
        <time>2020-09-10T07:54:40Z</time>
      </trkpt>
      <trkpt lat="42.592533" lon="-8.637904">
        <ele>92.8</ele>
        <time>2020-09-10T07:54:42Z</time>
      </trkpt>
      <trkpt lat="42.592462" lon="-8.637865">
        <ele>91.7</ele>
        <time>2020-09-10T07:54:44Z</time>
      </trkpt>
      <trkpt lat="42.592393" lon="-8.637823">
        <ele>90.5</ele>
        <time>2020-09-10T07:54:46Z</time>
      </trkpt>
      <trkpt lat="42.592306" lon="-8.637781">
        <ele>89.1</ele>
        <time>2020-09-10T07:54:48Z</time>
      </trkpt>
      <trkpt lat="42.592204" lon="-8.637752">
        <ele>88.3</ele>
        <time>2020-09-10T07:54:51Z</time>
      </trkpt>
      <trkpt lat="42.592134" lon="-8.637738">
        <ele>87.9</ele>
        <time>2020-09-10T07:54:53Z</time>
      </trkpt>
      <trkpt lat="42.592058" lon="-8.637715">
        <ele>87.3</ele>
        <time>2020-09-10T07:54:55Z</time>
      </trkpt>
      <trkpt lat="42.591976" lon="-8.637686">
        <ele>85.7</ele>
        <time>2020-09-10T07:54:57Z</time>
      </trkpt>
      <trkpt lat="42.591903" lon="-8.637672">
        <ele>84.6</ele>
        <time>2020-09-10T07:54:59Z</time>
      </trkpt>
      <trkpt lat="42.591823" lon="-8.637661">
        <ele>83.6</ele>
        <time>2020-09-10T07:55:01Z</time>
      </trkpt>
      <trkpt lat="42.591759" lon="-8.637656">
        <ele>82.6</ele>
        <time>2020-09-10T07:55:03Z</time>
      </trkpt>
      <trkpt lat="42.591686" lon="-8.637655">
        <ele>81.5</ele>
        <time>2020-09-10T07:55:05Z</time>
      </trkpt>
      <trkpt lat="42.591643" lon="-8.637650">
        <ele>80.8</ele>
        <time>2020-09-10T07:55:06Z</time>
      </trkpt>
      <trkpt lat="42.591606" lon="-8.637647">
        <ele>80.2</ele>
        <time>2020-09-10T07:55:07Z</time>
      </trkpt>
      <trkpt lat="42.591590" lon="-8.637622">
        <ele>79.4</ele>
        <time>2020-09-10T07:55:08Z</time>
      </trkpt>
      <trkpt lat="42.591584" lon="-8.637593">
        <ele>78.7</ele>
        <time>2020-09-10T07:55:08Z</time>
      </trkpt>
      <trkpt lat="42.591589" lon="-8.637569">
        <ele>78.3</ele>
        <time>2020-09-10T07:55:09Z</time>
      </trkpt>
      <trkpt lat="42.591603" lon="-8.637541">
        <ele>77.9</ele>
        <time>2020-09-10T07:55:10Z</time>
      </trkpt>
      <trkpt lat="42.591625" lon="-8.637515">
        <ele>77.6</ele>
        <time>2020-09-10T07:55:10Z</time>
      </trkpt>
      <trkpt lat="42.591655" lon="-8.637484">
        <ele>77.4</ele>
        <time>2020-09-10T07:55:11Z</time>
      </trkpt>
      <trkpt lat="42.591688" lon="-8.637455">
        <ele>77.2</ele>
        <time>2020-09-10T07:55:12Z</time>
      </trkpt>
      <trkpt lat="42.591723" lon="-8.637423">
        <ele>77.1</ele>
        <time>2020-09-10T07:55:14Z</time>
      </trkpt>
      <trkpt lat="42.591763" lon="-8.637393">
        <ele>77.4</ele>
        <time>2020-09-10T07:55:15Z</time>
      </trkpt>
      <trkpt lat="42.591806" lon="-8.637363">
        <ele>77.7</ele>
        <time>2020-09-10T07:55:16Z</time>
      </trkpt>
      <trkpt lat="42.591845" lon="-8.637331">
        <ele>77.8</ele>
        <time>2020-09-10T07:55:17Z</time>
      </trkpt>
      <trkpt lat="42.591867" lon="-8.637281">
        <ele>77.4</ele>
        <time>2020-09-10T07:55:18Z</time>
      </trkpt>
      <trkpt lat="42.591873" lon="-8.637226">
        <ele>77.0</ele>
        <time>2020-09-10T07:55:20Z</time>
      </trkpt>
      <trkpt lat="42.591865" lon="-8.637172">
        <ele>76.8</ele>
        <time>2020-09-10T07:55:21Z</time>
      </trkpt>
      <trkpt lat="42.591851" lon="-8.637115">
        <ele>76.8</ele>
        <time>2020-09-10T07:55:22Z</time>
      </trkpt>
      <trkpt lat="42.591836" lon="-8.637050">
        <ele>76.8</ele>
        <time>2020-09-10T07:55:23Z</time>
      </trkpt>
      <trkpt lat="42.591823" lon="-8.636992">
        <ele>76.7</ele>
        <time>2020-09-10T07:55:24Z</time>
      </trkpt>
      <trkpt lat="42.591807" lon="-8.636940">
        <ele>76.8</ele>
        <time>2020-09-10T07:55:25Z</time>
      </trkpt>
      <trkpt lat="42.591787" lon="-8.636880">
        <ele>76.9</ele>
        <time>2020-09-10T07:55:27Z</time>
      </trkpt>
      <trkpt lat="42.591765" lon="-8.636820">
        <ele>77.1</ele>
        <time>2020-09-10T07:55:28Z</time>
      </trkpt>
      <trkpt lat="42.591753" lon="-8.636765">
        <ele>77.3</ele>
        <time>2020-09-10T07:55:29Z</time>
      </trkpt>
      <trkpt lat="42.591745" lon="-8.636715">
        <ele>77.8</ele>
        <time>2020-09-10T07:55:30Z</time>
      </trkpt>
      <trkpt lat="42.591730" lon="-8.636661">
        <ele>78.3</ele>
        <time>2020-09-10T07:55:31Z</time>
      </trkpt>
      <trkpt lat="42.591720" lon="-8.636607">
        <ele>78.9</ele>
        <time>2020-09-10T07:55:32Z</time>
      </trkpt>
      <trkpt lat="42.591714" lon="-8.636558">
        <ele>79.4</ele>
        <time>2020-09-10T07:55:33Z</time>
      </trkpt>
      <trkpt lat="42.591710" lon="-8.636509">
        <ele>80.0</ele>
        <time>2020-09-10T07:55:34Z</time>
      </trkpt>
      <trkpt lat="42.591700" lon="-8.636451">
        <ele>80.3</ele>
        <time>2020-09-10T07:55:35Z</time>
      </trkpt>
      <trkpt lat="42.591689" lon="-8.636374">
        <ele>80.6</ele>
        <time>2020-09-10T07:55:37Z</time>
      </trkpt>
      <trkpt lat="42.591688" lon="-8.636301">
        <ele>81.3</ele>
        <time>2020-09-10T07:55:38Z</time>
      </trkpt>
      <trkpt lat="42.591679" lon="-8.636231">
        <ele>81.1</ele>
        <time>2020-09-10T07:55:40Z</time>
      </trkpt>
      <trkpt lat="42.591668" lon="-8.636171">
        <ele>80.7</ele>
        <time>2020-09-10T07:55:41Z</time>
      </trkpt>
      <trkpt lat="42.591660" lon="-8.636110">
        <ele>80.3</ele>
        <time>2020-09-10T07:55:42Z</time>
      </trkpt>
      <trkpt lat="42.591659" lon="-8.636028">
        <ele>80.0</ele>
        <time>2020-09-10T07:55:44Z</time>
      </trkpt>
      <trkpt lat="42.591671" lon="-8.635930">
        <ele>79.7</ele>
        <time>2020-09-10T07:55:46Z</time>
      </trkpt>
      <trkpt lat="42.591711" lon="-8.635861">
        <ele>80.3</ele>
        <time>2020-09-10T07:55:48Z</time>
      </trkpt>
      <trkpt lat="42.591763" lon="-8.635792">
        <ele>80.9</ele>
        <time>2020-09-10T07:55:50Z</time>
      </trkpt>
      <trkpt lat="42.591823" lon="-8.635711">
        <ele>80.7</ele>
        <time>2020-09-10T07:55:52Z</time>
      </trkpt>
      <trkpt lat="42.591871" lon="-8.635629">
        <ele>80.1</ele>
        <time>2020-09-10T07:55:54Z</time>
      </trkpt>
      <trkpt lat="42.591914" lon="-8.635555">
        <ele>79.4</ele>
        <time>2020-09-10T07:55:56Z</time>
      </trkpt>
      <trkpt lat="42.591965" lon="-8.635489">
        <ele>78.9</ele>
        <time>2020-09-10T07:55:58Z</time>
      </trkpt>
      <trkpt lat="42.592021" lon="-8.635431">
        <ele>78.7</ele>
        <time>2020-09-10T07:55:59Z</time>
      </trkpt>
      <trkpt lat="42.592065" lon="-8.635388">
        <ele>78.5</ele>
        <time>2020-09-10T07:56:01Z</time>
      </trkpt>
      <trkpt lat="42.592101" lon="-8.635347">
        <ele>77.8</ele>
        <time>2020-09-10T07:56:02Z</time>
      </trkpt>
      <trkpt lat="42.592120" lon="-8.635296">
        <ele>76.7</ele>
        <time>2020-09-10T07:56:03Z</time>
      </trkpt>
      <trkpt lat="42.592146" lon="-8.635261">
        <ele>76.2</ele>
        <time>2020-09-10T07:56:04Z</time>
      </trkpt>
      <trkpt lat="42.592171" lon="-8.635232">
        <ele>75.8</ele>
        <time>2020-09-10T07:56:05Z</time>
      </trkpt>
      <trkpt lat="42.592189" lon="-8.635196">
        <ele>75.2</ele>
        <time>2020-09-10T07:56:06Z</time>
      </trkpt>
      <trkpt lat="42.592201" lon="-8.635138">
        <ele>74.0</ele>
        <time>2020-09-10T07:56:07Z</time>
      </trkpt>
      <trkpt lat="42.592201" lon="-8.635068">
        <ele>72.9</ele>
        <time>2020-09-10T07:56:09Z</time>
      </trkpt>
      <trkpt lat="42.592193" lon="-8.634991">
        <ele>71.6</ele>
        <time>2020-09-10T07:56:10Z</time>
      </trkpt>
      <trkpt lat="42.592177" lon="-8.634901">
        <ele>70.1</ele>
        <time>2020-09-10T07:56:12Z</time>
      </trkpt>
      <trkpt lat="42.592168" lon="-8.634809">
        <ele>70.0</ele>
        <time>2020-09-10T07:56:14Z</time>
      </trkpt>
      <trkpt lat="42.592154" lon="-8.634705">
        <ele>69.9</ele>
        <time>2020-09-10T07:56:16Z</time>
      </trkpt>
      <trkpt lat="42.592139" lon="-8.634594">
        <ele>69.5</ele>
        <time>2020-09-10T07:56:18Z</time>
      </trkpt>
      <trkpt lat="42.592114" lon="-8.634485">
        <ele>69.0</ele>
        <time>2020-09-10T07:56:20Z</time>
      </trkpt>
      <trkpt lat="42.592084" lon="-8.634385">
        <ele>68.6</ele>
        <time>2020-09-10T07:56:22Z</time>
      </trkpt>
      <trkpt lat="42.592043" lon="-8.634299">
        <ele>68.2</ele>
        <time>2020-09-10T07:56:24Z</time>
      </trkpt>
      <trkpt lat="42.591990" lon="-8.634232">
        <ele>67.8</ele>
        <time>2020-09-10T07:56:26Z</time>
      </trkpt>
      <trkpt lat="42.591929" lon="-8.634180">
        <ele>67.7</ele>
        <time>2020-09-10T07:56:28Z</time>
      </trkpt>
      <trkpt lat="42.591867" lon="-8.634152">
        <ele>67.7</ele>
        <time>2020-09-10T07:56:30Z</time>
      </trkpt>
      <trkpt lat="42.591808" lon="-8.634155">
        <ele>67.6</ele>
        <time>2020-09-10T07:56:32Z</time>
      </trkpt>
      <trkpt lat="42.591749" lon="-8.634185">
        <ele>67.3</ele>
        <time>2020-09-10T07:56:33Z</time>
      </trkpt>
      <trkpt lat="42.591694" lon="-8.634230">
        <ele>67.0</ele>
        <time>2020-09-10T07:56:35Z</time>
      </trkpt>
      <trkpt lat="42.591649" lon="-8.634276">
        <ele>66.7</ele>
        <time>2020-09-10T07:56:36Z</time>
      </trkpt>
      <trkpt lat="42.591604" lon="-8.634310">
        <ele>66.4</ele>
        <time>2020-09-10T07:56:38Z</time>
      </trkpt>
      <trkpt lat="42.591557" lon="-8.634342">
        <ele>65.9</ele>
        <time>2020-09-10T07:56:39Z</time>
      </trkpt>
      <trkpt lat="42.591500" lon="-8.634381">
        <ele>65.4</ele>
        <time>2020-09-10T07:56:41Z</time>
      </trkpt>
      <trkpt lat="42.591436" lon="-8.634426">
        <ele>64.9</ele>
        <time>2020-09-10T07:56:43Z</time>
      </trkpt>
      <trkpt lat="42.591374" lon="-8.634466">
        <ele>64.6</ele>
        <time>2020-09-10T07:56:45Z</time>
      </trkpt>
      <trkpt lat="42.591329" lon="-8.634497">
        <ele>64.5</ele>
        <time>2020-09-10T07:56:46Z</time>
      </trkpt>
      <trkpt lat="42.591287" lon="-8.634521">
        <ele>64.4</ele>
        <time>2020-09-10T07:56:47Z</time>
      </trkpt>
      <trkpt lat="42.591243" lon="-8.634552">
        <ele>64.3</ele>
        <time>2020-09-10T07:56:49Z</time>
      </trkpt>
      <trkpt lat="42.591197" lon="-8.634589">
        <ele>64.1</ele>
        <time>2020-09-10T07:56:50Z</time>
      </trkpt>
      <trkpt lat="42.591153" lon="-8.634629">
        <ele>63.9</ele>
        <time>2020-09-10T07:56:51Z</time>
      </trkpt>
      <trkpt lat="42.591110" lon="-8.634667">
        <ele>63.7</ele>
        <time>2020-09-10T07:56:53Z</time>
      </trkpt>
      <trkpt lat="42.591067" lon="-8.634704">
        <ele>63.6</ele>
        <time>2020-09-10T07:56:54Z</time>
      </trkpt>
      <trkpt lat="42.591023" lon="-8.634741">
        <ele>63.5</ele>
        <time>2020-09-10T07:56:55Z</time>
      </trkpt>
      <trkpt lat="42.590978" lon="-8.634773">
        <ele>63.3</ele>
        <time>2020-09-10T07:56:57Z</time>
      </trkpt>
      <trkpt lat="42.590931" lon="-8.634797">
        <ele>63.2</ele>
        <time>2020-09-10T07:56:58Z</time>
      </trkpt>
      <trkpt lat="42.590885" lon="-8.634816">
        <ele>63.2</ele>
        <time>2020-09-10T07:56:59Z</time>
      </trkpt>
      <trkpt lat="42.590840" lon="-8.634821">
        <ele>63.3</ele>
        <time>2020-09-10T07:57:01Z</time>
      </trkpt>
      <trkpt lat="42.590801" lon="-8.634828">
        <ele>63.4</ele>
        <time>2020-09-10T07:57:02Z</time>
      </trkpt>
      <trkpt lat="42.590763" lon="-8.634850">
        <ele>63.4</ele>
        <time>2020-09-10T07:57:03Z</time>
      </trkpt>
      <trkpt lat="42.590714" lon="-8.634899">
        <ele>63.3</ele>
        <time>2020-09-10T07:57:04Z</time>
      </trkpt>
      <trkpt lat="42.590665" lon="-8.634944">
        <ele>63.4</ele>
        <time>2020-09-10T07:57:06Z</time>
      </trkpt>
      <trkpt lat="42.590625" lon="-8.634981">
        <ele>63.9</ele>
        <time>2020-09-10T07:57:07Z</time>
      </trkpt>
      <trkpt lat="42.590591" lon="-8.635016">
        <ele>64.2</ele>
        <time>2020-09-10T07:57:08Z</time>
      </trkpt>
      <trkpt lat="42.590558" lon="-8.635058">
        <ele>64.6</ele>
        <time>2020-09-10T07:57:10Z</time>
      </trkpt>
      <trkpt lat="42.590537" lon="-8.635110">
        <ele>64.6</ele>
        <time>2020-09-10T07:57:11Z</time>
      </trkpt>
      <trkpt lat="42.590515" lon="-8.635159">
        <ele>64.7</ele>
        <time>2020-09-10T07:57:12Z</time>
      </trkpt>
      <trkpt lat="42.590496" lon="-8.635222">
        <ele>64.7</ele>
        <time>2020-09-10T07:57:13Z</time>
      </trkpt>
      <trkpt lat="42.590469" lon="-8.635285">
        <ele>64.8</ele>
        <time>2020-09-10T07:57:15Z</time>
      </trkpt>
      <trkpt lat="42.590435" lon="-8.635337">
        <ele>65.1</ele>
        <time>2020-09-10T07:57:16Z</time>
      </trkpt>
      <trkpt lat="42.590397" lon="-8.635385">
        <ele>65.3</ele>
        <time>2020-09-10T07:57:17Z</time>
      </trkpt>
      <trkpt lat="42.590356" lon="-8.635431">
        <ele>65.3</ele>
        <time>2020-09-10T07:57:19Z</time>
      </trkpt>
      <trkpt lat="42.590313" lon="-8.635477">
        <ele>65.3</ele>
        <time>2020-09-10T07:57:20Z</time>
      </trkpt>
      <trkpt lat="42.590268" lon="-8.635518">
        <ele>65.4</ele>
        <time>2020-09-10T07:57:22Z</time>
      </trkpt>
      <trkpt lat="42.590222" lon="-8.635560">
        <ele>65.5</ele>
        <time>2020-09-10T07:57:23Z</time>
      </trkpt>
      <trkpt lat="42.590175" lon="-8.635601">
        <ele>65.6</ele>
        <time>2020-09-10T07:57:25Z</time>
      </trkpt>
      <trkpt lat="42.590128" lon="-8.635640">
        <ele>65.6</ele>
        <time>2020-09-10T07:57:26Z</time>
      </trkpt>
      <trkpt lat="42.590080" lon="-8.635676">
        <ele>65.7</ele>
        <time>2020-09-10T07:57:28Z</time>
      </trkpt>
      <trkpt lat="42.590030" lon="-8.635708">
        <ele>65.8</ele>
        <time>2020-09-10T07:57:29Z</time>
      </trkpt>
      <trkpt lat="42.589977" lon="-8.635738">
        <ele>66.0</ele>
        <time>2020-09-10T07:57:31Z</time>
      </trkpt>
      <trkpt lat="42.589926" lon="-8.635764">
        <ele>66.2</ele>
        <time>2020-09-10T07:57:32Z</time>
      </trkpt>
      <trkpt lat="42.589877" lon="-8.635789">
        <ele>66.4</ele>
        <time>2020-09-10T07:57:34Z</time>
      </trkpt>
      <trkpt lat="42.589828" lon="-8.635817">
        <ele>66.5</ele>
        <time>2020-09-10T07:57:35Z</time>
      </trkpt>
      <trkpt lat="42.589779" lon="-8.635845">
        <ele>66.6</ele>
        <time>2020-09-10T07:57:36Z</time>
      </trkpt>
      <trkpt lat="42.589728" lon="-8.635870">
        <ele>66.7</ele>
        <time>2020-09-10T07:57:38Z</time>
      </trkpt>
      <trkpt lat="42.589676" lon="-8.635889">
        <ele>66.6</ele>
        <time>2020-09-10T07:57:39Z</time>
      </trkpt>
      <trkpt lat="42.589622" lon="-8.635895">
        <ele>66.9</ele>
        <time>2020-09-10T07:57:41Z</time>
      </trkpt>
      <trkpt lat="42.589567" lon="-8.635890">
        <ele>67.2</ele>
        <time>2020-09-10T07:57:42Z</time>
      </trkpt>
      <trkpt lat="42.589512" lon="-8.635880">
        <ele>67.7</ele>
        <time>2020-09-10T07:57:44Z</time>
      </trkpt>
      <trkpt lat="42.589463" lon="-8.635869">
        <ele>67.9</ele>
        <time>2020-09-10T07:57:45Z</time>
      </trkpt>
      <trkpt lat="42.589417" lon="-8.635859">
        <ele>68.2</ele>
        <time>2020-09-10T07:57:46Z</time>
      </trkpt>
      <trkpt lat="42.589370" lon="-8.635853">
        <ele>68.3</ele>
        <time>2020-09-10T07:57:47Z</time>
      </trkpt>
      <trkpt lat="42.589321" lon="-8.635848">
        <ele>68.5</ele>
        <time>2020-09-10T07:57:49Z</time>
      </trkpt>
      <trkpt lat="42.589273" lon="-8.635844">
        <ele>68.7</ele>
        <time>2020-09-10T07:57:50Z</time>
      </trkpt>
      <trkpt lat="42.589223" lon="-8.635845">
        <ele>68.9</ele>
        <time>2020-09-10T07:57:51Z</time>
      </trkpt>
      <trkpt lat="42.589174" lon="-8.635848">
        <ele>69.1</ele>
        <time>2020-09-10T07:57:53Z</time>
      </trkpt>
      <trkpt lat="42.589125" lon="-8.635852">
        <ele>69.3</ele>
        <time>2020-09-10T07:57:54Z</time>
      </trkpt>
      <trkpt lat="42.589073" lon="-8.635857">
        <ele>69.5</ele>
        <time>2020-09-10T07:57:55Z</time>
      </trkpt>
      <trkpt lat="42.589020" lon="-8.635865">
        <ele>69.7</ele>
        <time>2020-09-10T07:57:57Z</time>
      </trkpt>
      <trkpt lat="42.588973" lon="-8.635877">
        <ele>69.9</ele>
        <time>2020-09-10T07:57:58Z</time>
      </trkpt>
      <trkpt lat="42.588924" lon="-8.635887">
        <ele>70.0</ele>
        <time>2020-09-10T07:57:59Z</time>
      </trkpt>
      <trkpt lat="42.588872" lon="-8.635897">
        <ele>70.2</ele>
        <time>2020-09-10T07:58:01Z</time>
      </trkpt>
      <trkpt lat="42.588820" lon="-8.635912">
        <ele>70.2</ele>
        <time>2020-09-10T07:58:02Z</time>
      </trkpt>
      <trkpt lat="42.588766" lon="-8.635930">
        <ele>70.1</ele>
        <time>2020-09-10T07:58:04Z</time>
      </trkpt>
      <trkpt lat="42.588711" lon="-8.635941">
        <ele>70.1</ele>
        <time>2020-09-10T07:58:05Z</time>
      </trkpt>
      <trkpt lat="42.588655" lon="-8.635951">
        <ele>70.2</ele>
        <time>2020-09-10T07:58:07Z</time>
      </trkpt>
      <trkpt lat="42.588599" lon="-8.635962">
        <ele>70.1</ele>
        <time>2020-09-10T07:58:08Z</time>
      </trkpt>
      <trkpt lat="42.588543" lon="-8.635976">
        <ele>70.1</ele>
        <time>2020-09-10T07:58:10Z</time>
      </trkpt>
      <trkpt lat="42.588485" lon="-8.635990">
        <ele>70.0</ele>
        <time>2020-09-10T07:58:11Z</time>
      </trkpt>
      <trkpt lat="42.588427" lon="-8.636003">
        <ele>69.9</ele>
        <time>2020-09-10T07:58:13Z</time>
      </trkpt>
      <trkpt lat="42.588368" lon="-8.636015">
        <ele>69.8</ele>
        <time>2020-09-10T07:58:14Z</time>
      </trkpt>
      <trkpt lat="42.588307" lon="-8.636029">
        <ele>69.4</ele>
        <time>2020-09-10T07:58:16Z</time>
      </trkpt>
      <trkpt lat="42.588248" lon="-8.636042">
        <ele>69.1</ele>
        <time>2020-09-10T07:58:18Z</time>
      </trkpt>
      <trkpt lat="42.588187" lon="-8.636054">
        <ele>68.7</ele>
        <time>2020-09-10T07:58:19Z</time>
      </trkpt>
      <trkpt lat="42.588125" lon="-8.636059">
        <ele>68.5</ele>
        <time>2020-09-10T07:58:21Z</time>
      </trkpt>
      <trkpt lat="42.588064" lon="-8.636063">
        <ele>68.2</ele>
        <time>2020-09-10T07:58:23Z</time>
      </trkpt>
      <trkpt lat="42.588002" lon="-8.636061">
        <ele>68.0</ele>
        <time>2020-09-10T07:58:24Z</time>
      </trkpt>
      <trkpt lat="42.587939" lon="-8.636058">
        <ele>67.8</ele>
        <time>2020-09-10T07:58:26Z</time>
      </trkpt>
      <trkpt lat="42.587873" lon="-8.636052">
        <ele>67.5</ele>
        <time>2020-09-10T07:58:28Z</time>
      </trkpt>
      <trkpt lat="42.587803" lon="-8.636044">
        <ele>67.1</ele>
        <time>2020-09-10T07:58:30Z</time>
      </trkpt>
      <trkpt lat="42.587729" lon="-8.636037">
        <ele>66.7</ele>
        <time>2020-09-10T07:58:32Z</time>
      </trkpt>
      <trkpt lat="42.587653" lon="-8.636029">
        <ele>66.3</ele>
        <time>2020-09-10T07:58:34Z</time>
      </trkpt>
      <trkpt lat="42.587574" lon="-8.636020">
        <ele>65.7</ele>
        <time>2020-09-10T07:58:36Z</time>
      </trkpt>
      <trkpt lat="42.587492" lon="-8.636012">
        <ele>65.0</ele>
        <time>2020-09-10T07:58:38Z</time>
      </trkpt>
      <trkpt lat="42.587408" lon="-8.636012">
        <ele>64.2</ele>
        <time>2020-09-10T07:58:40Z</time>
      </trkpt>
      <trkpt lat="42.587324" lon="-8.636021">
        <ele>63.1</ele>
        <time>2020-09-10T07:58:42Z</time>
      </trkpt>
      <trkpt lat="42.587245" lon="-8.636043">
        <ele>62.0</ele>
        <time>2020-09-10T07:58:45Z</time>
      </trkpt>
      <trkpt lat="42.587164" lon="-8.636066">
        <ele>60.7</ele>
        <time>2020-09-10T07:58:47Z</time>
      </trkpt>
      <trkpt lat="42.587085" lon="-8.636077">
        <ele>59.4</ele>
        <time>2020-09-10T07:58:49Z</time>
      </trkpt>
      <trkpt lat="42.587016" lon="-8.636074">
        <ele>58.2</ele>
        <time>2020-09-10T07:58:51Z</time>
      </trkpt>
      <trkpt lat="42.586962" lon="-8.636059">
        <ele>57.3</ele>
        <time>2020-09-10T07:58:52Z</time>
      </trkpt>
      <trkpt lat="42.586920" lon="-8.636046">
        <ele>56.8</ele>
        <time>2020-09-10T07:58:53Z</time>
      </trkpt>
      <trkpt lat="42.586879" lon="-8.636039">
        <ele>56.3</ele>
        <time>2020-09-10T07:58:54Z</time>
      </trkpt>
      <trkpt lat="42.586840" lon="-8.636038">
        <ele>55.8</ele>
        <time>2020-09-10T07:58:56Z</time>
      </trkpt>
      <trkpt lat="42.586806" lon="-8.636050">
        <ele>55.3</ele>
        <time>2020-09-10T07:58:56Z</time>
      </trkpt>
      <trkpt lat="42.586781" lon="-8.636078">
        <ele>54.9</ele>
        <time>2020-09-10T07:58:57Z</time>
      </trkpt>
      <trkpt lat="42.586760" lon="-8.636120">
        <ele>54.7</ele>
        <time>2020-09-10T07:58:58Z</time>
      </trkpt>
      <trkpt lat="42.586739" lon="-8.636175">
        <ele>54.4</ele>
        <time>2020-09-10T07:59:00Z</time>
      </trkpt>
      <trkpt lat="42.586708" lon="-8.636231">
        <ele>54.1</ele>
        <time>2020-09-10T07:59:01Z</time>
      </trkpt>
      <trkpt lat="42.586662" lon="-8.636281">
        <ele>53.5</ele>
        <time>2020-09-10T07:59:03Z</time>
      </trkpt>
      <trkpt lat="42.586613" lon="-8.636329">
        <ele>53.1</ele>
        <time>2020-09-10T07:59:04Z</time>
      </trkpt>
      <trkpt lat="42.586555" lon="-8.636373">
        <ele>52.3</ele>
        <time>2020-09-10T07:59:06Z</time>
      </trkpt>
      <trkpt lat="42.586490" lon="-8.636405">
        <ele>51.4</ele>
        <time>2020-09-10T07:59:08Z</time>
      </trkpt>
      <trkpt lat="42.586420" lon="-8.636434">
        <ele>50.6</ele>
        <time>2020-09-10T07:59:10Z</time>
      </trkpt>
      <trkpt lat="42.586343" lon="-8.636453">
        <ele>49.6</ele>
        <time>2020-09-10T07:59:12Z</time>
      </trkpt>
      <trkpt lat="42.586261" lon="-8.636469">
        <ele>48.6</ele>
        <time>2020-09-10T07:59:14Z</time>
      </trkpt>
      <trkpt lat="42.586181" lon="-8.636478">
        <ele>47.9</ele>
        <time>2020-09-10T07:59:16Z</time>
      </trkpt>
      <trkpt lat="42.586101" lon="-8.636477">
        <ele>47.1</ele>
        <time>2020-09-10T07:59:18Z</time>
      </trkpt>
      <trkpt lat="42.586029" lon="-8.636462">
        <ele>46.6</ele>
        <time>2020-09-10T07:59:20Z</time>
      </trkpt>
      <trkpt lat="42.585963" lon="-8.636423">
        <ele>46.3</ele>
        <time>2020-09-10T07:59:22Z</time>
      </trkpt>
      <trkpt lat="42.585903" lon="-8.636372">
        <ele>46.0</ele>
        <time>2020-09-10T07:59:24Z</time>
      </trkpt>
      <trkpt lat="42.585844" lon="-8.636318">
        <ele>45.5</ele>
        <time>2020-09-10T07:59:26Z</time>
      </trkpt>
      <trkpt lat="42.585790" lon="-8.636261">
        <ele>45.3</ele>
        <time>2020-09-10T07:59:28Z</time>
      </trkpt>
      <trkpt lat="42.585739" lon="-8.636207">
        <ele>45.2</ele>
        <time>2020-09-10T07:59:29Z</time>
      </trkpt>
      <trkpt lat="42.585686" lon="-8.636149">
        <ele>45.1</ele>
        <time>2020-09-10T07:59:31Z</time>
      </trkpt>
      <trkpt lat="42.585633" lon="-8.636092">
        <ele>44.9</ele>
        <time>2020-09-10T07:59:33Z</time>
      </trkpt>
      <trkpt lat="42.585582" lon="-8.636038">
        <ele>44.8</ele>
        <time>2020-09-10T07:59:35Z</time>
      </trkpt>
      <trkpt lat="42.585531" lon="-8.635987">
        <ele>44.9</ele>
        <time>2020-09-10T07:59:36Z</time>
      </trkpt>
      <trkpt lat="42.585481" lon="-8.635940">
        <ele>44.9</ele>
        <time>2020-09-10T07:59:38Z</time>
      </trkpt>
      <trkpt lat="42.585437" lon="-8.635895">
        <ele>44.9</ele>
        <time>2020-09-10T07:59:40Z</time>
      </trkpt>
      <trkpt lat="42.585392" lon="-8.635848">
        <ele>44.8</ele>
        <time>2020-09-10T07:59:41Z</time>
      </trkpt>
      <trkpt lat="42.585346" lon="-8.635797">
        <ele>44.8</ele>
        <time>2020-09-10T07:59:43Z</time>
      </trkpt>
      <trkpt lat="42.585298" lon="-8.635745">
        <ele>44.6</ele>
        <time>2020-09-10T07:59:44Z</time>
      </trkpt>
      <trkpt lat="42.585250" lon="-8.635690">
        <ele>44.4</ele>
        <time>2020-09-10T07:59:46Z</time>
      </trkpt>
      <trkpt lat="42.585203" lon="-8.635633">
        <ele>44.1</ele>
        <time>2020-09-10T07:59:48Z</time>
      </trkpt>
      <trkpt lat="42.585158" lon="-8.635572">
        <ele>43.9</ele>
        <time>2020-09-10T07:59:49Z</time>
      </trkpt>
      <trkpt lat="42.585118" lon="-8.635503">
        <ele>43.8</ele>
        <time>2020-09-10T07:59:51Z</time>
      </trkpt>
      <trkpt lat="42.585077" lon="-8.635431">
        <ele>43.7</ele>
        <time>2020-09-10T07:59:53Z</time>
      </trkpt>
      <trkpt lat="42.585040" lon="-8.635353">
        <ele>43.6</ele>
        <time>2020-09-10T07:59:55Z</time>
      </trkpt>
      <trkpt lat="42.585008" lon="-8.635267">
        <ele>43.6</ele>
        <time>2020-09-10T07:59:57Z</time>
      </trkpt>
      <trkpt lat="42.584979" lon="-8.635177">
        <ele>43.7</ele>
        <time>2020-09-10T07:59:59Z</time>
      </trkpt>
      <trkpt lat="42.584954" lon="-8.635088">
        <ele>43.7</ele>
        <time>2020-09-10T08:00:00Z</time>
      </trkpt>
      <trkpt lat="42.584933" lon="-8.635000">
        <ele>43.5</ele>
        <time>2020-09-10T08:00:02Z</time>
      </trkpt>
      <trkpt lat="42.584910" lon="-8.634914">
        <ele>43.3</ele>
        <time>2020-09-10T08:00:04Z</time>
      </trkpt>
      <trkpt lat="42.584875" lon="-8.634835">
        <ele>43.3</ele>
        <time>2020-09-10T08:00:06Z</time>
      </trkpt>
      <trkpt lat="42.584826" lon="-8.634775">
        <ele>43.2</ele>
        <time>2020-09-10T08:00:08Z</time>
      </trkpt>
      <trkpt lat="42.584770" lon="-8.634742">
        <ele>43.0</ele>
        <time>2020-09-10T08:00:09Z</time>
      </trkpt>
      <trkpt lat="42.584705" lon="-8.634729">
        <ele>42.7</ele>
        <time>2020-09-10T08:00:11Z</time>
      </trkpt>
      <trkpt lat="42.584638" lon="-8.634729">
        <ele>42.6</ele>
        <time>2020-09-10T08:00:13Z</time>
      </trkpt>
      <trkpt lat="42.584571" lon="-8.634728">
        <ele>42.7</ele>
        <time>2020-09-10T08:00:15Z</time>
      </trkpt>
      <trkpt lat="42.584504" lon="-8.634718">
        <ele>42.9</ele>
        <time>2020-09-10T08:00:16Z</time>
      </trkpt>
      <trkpt lat="42.584439" lon="-8.634704">
        <ele>43.1</ele>
        <time>2020-09-10T08:00:18Z</time>
      </trkpt>
      <trkpt lat="42.584372" lon="-8.634683">
        <ele>43.7</ele>
        <time>2020-09-10T08:00:20Z</time>
      </trkpt>
      <trkpt lat="42.584309" lon="-8.634657">
        <ele>44.3</ele>
        <time>2020-09-10T08:00:22Z</time>
      </trkpt>
      <trkpt lat="42.584247" lon="-8.634627">
        <ele>45.0</ele>
        <time>2020-09-10T08:00:23Z</time>
      </trkpt>
      <trkpt lat="42.584190" lon="-8.634596">
        <ele>45.8</ele>
        <time>2020-09-10T08:00:25Z</time>
      </trkpt>
      <trkpt lat="42.584137" lon="-8.634571">
        <ele>46.9</ele>
        <time>2020-09-10T08:00:27Z</time>
      </trkpt>
      <trkpt lat="42.584088" lon="-8.634558">
        <ele>47.8</ele>
        <time>2020-09-10T08:00:28Z</time>
      </trkpt>
      <trkpt lat="42.584041" lon="-8.634553">
        <ele>48.5</ele>
        <time>2020-09-10T08:00:29Z</time>
      </trkpt>
      <trkpt lat="42.583998" lon="-8.634553">
        <ele>49.2</ele>
        <time>2020-09-10T08:00:30Z</time>
      </trkpt>
      <trkpt lat="42.583954" lon="-8.634554">
        <ele>49.7</ele>
        <time>2020-09-10T08:00:31Z</time>
      </trkpt>
      <trkpt lat="42.583900" lon="-8.634551">
        <ele>50.2</ele>
        <time>2020-09-10T08:00:33Z</time>
      </trkpt>
      <trkpt lat="42.583847" lon="-8.634552">
        <ele>50.7</ele>
        <time>2020-09-10T08:00:34Z</time>
      </trkpt>
      <trkpt lat="42.583796" lon="-8.634559">
        <ele>51.1</ele>
        <time>2020-09-10T08:00:36Z</time>
      </trkpt>
      <trkpt lat="42.583744" lon="-8.634568">
        <ele>51.4</ele>
        <time>2020-09-10T08:00:37Z</time>
      </trkpt>
      <trkpt lat="42.583698" lon="-8.634573">
        <ele>51.6</ele>
        <time>2020-09-10T08:00:38Z</time>
      </trkpt>
      <trkpt lat="42.583652" lon="-8.634581">
        <ele>51.8</ele>
        <time>2020-09-10T08:00:40Z</time>
      </trkpt>
      <trkpt lat="42.583602" lon="-8.634592">
        <ele>52.0</ele>
        <time>2020-09-10T08:00:41Z</time>
      </trkpt>
      <trkpt lat="42.583565" lon="-8.634602">
        <ele>52.1</ele>
        <time>2020-09-10T08:00:42Z</time>
      </trkpt>
      <trkpt lat="42.583546" lon="-8.634605">
        <ele>52.2</ele>
        <time>2020-09-10T08:00:42Z</time>
      </trkpt>
      <trkpt lat="42.583534" lon="-8.634590">
        <ele>52.5</ele>
        <time>2020-09-10T08:00:43Z</time>
      </trkpt>
      <trkpt lat="42.583527" lon="-8.634566">
        <ele>52.8</ele>
        <time>2020-09-10T08:00:43Z</time>
      </trkpt>
      <trkpt lat="42.583526" lon="-8.634544">
        <ele>53.1</ele>
        <time>2020-09-10T08:00:44Z</time>
      </trkpt>
      <trkpt lat="42.583523" lon="-8.634521">
        <ele>53.5</ele>
        <time>2020-09-10T08:00:44Z</time>
      </trkpt>
      <trkpt lat="42.583517" lon="-8.634495">
        <ele>53.8</ele>
        <time>2020-09-10T08:00:45Z</time>
      </trkpt>
      <trkpt lat="42.583520" lon="-8.634474">
        <ele>54.1</ele>
        <time>2020-09-10T08:00:45Z</time>
      </trkpt>
      <trkpt lat="42.583526" lon="-8.634454">
        <ele>54.3</ele>
        <time>2020-09-10T08:00:46Z</time>
      </trkpt>
      <trkpt lat="42.583535" lon="-8.634441">
        <ele>54.4</ele>
        <time>2020-09-10T08:00:46Z</time>
      </trkpt>
      <trkpt lat="42.583543" lon="-8.634430">
        <ele>54.6</ele>
        <time>2020-09-10T08:00:46Z</time>
      </trkpt>
      <trkpt lat="42.583551" lon="-8.634416">
        <ele>54.8</ele>
        <time>2020-09-10T08:00:47Z</time>
      </trkpt>
      <trkpt lat="42.583555" lon="-8.634394">
        <ele>55.1</ele>
        <time>2020-09-10T08:00:47Z</time>
      </trkpt>
      <trkpt lat="42.583556" lon="-8.634375">
        <ele>55.5</ele>
        <time>2020-09-10T08:00:47Z</time>
      </trkpt>
      <trkpt lat="42.583554" lon="-8.634355">
        <ele>55.9</ele>
        <time>2020-09-10T08:00:48Z</time>
      </trkpt>
      <trkpt lat="42.583552" lon="-8.634331">
        <ele>56.3</ele>
        <time>2020-09-10T08:00:48Z</time>
      </trkpt>
      <trkpt lat="42.583554" lon="-8.634309">
        <ele>56.7</ele>
        <time>2020-09-10T08:00:49Z</time>
      </trkpt>
      <trkpt lat="42.583558" lon="-8.634292">
        <ele>56.9</ele>
        <time>2020-09-10T08:00:49Z</time>
      </trkpt>
      <trkpt lat="42.583560" lon="-8.634274">
        <ele>57.2</ele>
        <time>2020-09-10T08:00:49Z</time>
      </trkpt>
      <trkpt lat="42.583566" lon="-8.634255">
        <ele>57.5</ele>
        <time>2020-09-10T08:00:50Z</time>
      </trkpt>
      <trkpt lat="42.583571" lon="-8.634233">
        <ele>57.9</ele>
        <time>2020-09-10T08:00:50Z</time>
      </trkpt>
      <trkpt lat="42.583576" lon="-8.634213">
        <ele>58.2</ele>
        <time>2020-09-10T08:00:51Z</time>
      </trkpt>
      <trkpt lat="42.583580" lon="-8.634194">
        <ele>58.4</ele>
        <time>2020-09-10T08:00:51Z</time>
      </trkpt>
      <trkpt lat="42.583581" lon="-8.634177">
        <ele>58.6</ele>
        <time>2020-09-10T08:00:51Z</time>
      </trkpt>
      <trkpt lat="42.583589" lon="-8.634158">
        <ele>58.8</ele>
        <time>2020-09-10T08:00:52Z</time>
      </trkpt>
      <trkpt lat="42.583597" lon="-8.634136">
        <ele>58.9</ele>
        <time>2020-09-10T08:00:52Z</time>
      </trkpt>
      <trkpt lat="42.583601" lon="-8.634115">
        <ele>59.2</ele>
        <time>2020-09-10T08:00:53Z</time>
      </trkpt>
      <trkpt lat="42.583605" lon="-8.634093">
        <ele>59.4</ele>
        <time>2020-09-10T08:00:53Z</time>
      </trkpt>
      <trkpt lat="42.583615" lon="-8.634082">
        <ele>59.5</ele>
        <time>2020-09-10T08:00:54Z</time>
      </trkpt>
      <trkpt lat="42.583622" lon="-8.634065">
        <ele>59.6</ele>
        <time>2020-09-10T08:00:54Z</time>
      </trkpt>
      <trkpt lat="42.583628" lon="-8.634047">
        <ele>59.7</ele>
        <time>2020-09-10T08:00:54Z</time>
      </trkpt>
      <trkpt lat="42.583634" lon="-8.634034">
        <ele>59.8</ele>
        <time>2020-09-10T08:00:55Z</time>
      </trkpt>
      <trkpt lat="42.583640" lon="-8.634024">
        <ele>59.9</ele>
        <time>2020-09-10T08:00:55Z</time>
      </trkpt>
      <trkpt lat="42.583645" lon="-8.634008">
        <ele>60.0</ele>
        <time>2020-09-10T08:00:55Z</time>
      </trkpt>
      <trkpt lat="42.583651" lon="-8.633992">
        <ele>60.2</ele>
        <time>2020-09-10T08:00:56Z</time>
      </trkpt>
      <trkpt lat="42.583655" lon="-8.633972">
        <ele>60.3</ele>
        <time>2020-09-10T08:00:56Z</time>
      </trkpt>
      <trkpt lat="42.583655" lon="-8.633952">
        <ele>60.4</ele>
        <time>2020-09-10T08:00:56Z</time>
      </trkpt>
      <trkpt lat="42.583656" lon="-8.633932">
        <ele>60.4</ele>
        <time>2020-09-10T08:00:57Z</time>
      </trkpt>
      <trkpt lat="42.583659" lon="-8.633910">
        <ele>60.4</ele>
        <time>2020-09-10T08:00:57Z</time>
      </trkpt>
      <trkpt lat="42.583660" lon="-8.633882">
        <ele>60.5</ele>
        <time>2020-09-10T08:00:58Z</time>
      </trkpt>
      <trkpt lat="42.583665" lon="-8.633844">
        <ele>60.5</ele>
        <time>2020-09-10T08:00:59Z</time>
      </trkpt>
      <trkpt lat="42.583669" lon="-8.633799">
        <ele>60.6</ele>
        <time>2020-09-10T08:00:59Z</time>
      </trkpt>
      <trkpt lat="42.583674" lon="-8.633759">
        <ele>60.6</ele>
        <time>2020-09-10T08:01:00Z</time>
      </trkpt>
      <trkpt lat="42.583682" lon="-8.633718">
        <ele>60.4</ele>
        <time>2020-09-10T08:01:01Z</time>
      </trkpt>
      <trkpt lat="42.583687" lon="-8.633666">
        <ele>59.9</ele>
        <time>2020-09-10T08:01:02Z</time>
      </trkpt>
      <trkpt lat="42.583684" lon="-8.633611">
        <ele>59.4</ele>
        <time>2020-09-10T08:01:03Z</time>
      </trkpt>
      <trkpt lat="42.583679" lon="-8.633551">
        <ele>58.9</ele>
        <time>2020-09-10T08:01:04Z</time>
      </trkpt>
      <trkpt lat="42.583670" lon="-8.633488">
        <ele>58.6</ele>
        <time>2020-09-10T08:01:06Z</time>
      </trkpt>
      <trkpt lat="42.583661" lon="-8.633425">
        <ele>58.6</ele>
        <time>2020-09-10T08:01:07Z</time>
      </trkpt>
      <trkpt lat="42.583655" lon="-8.633359">
        <ele>58.5</ele>
        <time>2020-09-10T08:01:08Z</time>
      </trkpt>
      <trkpt lat="42.583649" lon="-8.633295">
        <ele>58.5</ele>
        <time>2020-09-10T08:01:09Z</time>
      </trkpt>
      <trkpt lat="42.583646" lon="-8.633234">
        <ele>58.6</ele>
        <time>2020-09-10T08:01:11Z</time>
      </trkpt>
      <trkpt lat="42.583647" lon="-8.633172">
        <ele>58.8</ele>
        <time>2020-09-10T08:01:12Z</time>
      </trkpt>
      <trkpt lat="42.583649" lon="-8.633114">
        <ele>58.9</ele>
        <time>2020-09-10T08:01:13Z</time>
      </trkpt>
      <trkpt lat="42.583658" lon="-8.633059">
        <ele>59.1</ele>
        <time>2020-09-10T08:01:14Z</time>
      </trkpt>
      <trkpt lat="42.583662" lon="-8.633008">
        <ele>59.3</ele>
        <time>2020-09-10T08:01:15Z</time>
      </trkpt>
      <trkpt lat="42.583658" lon="-8.632956">
        <ele>59.7</ele>
        <time>2020-09-10T08:01:16Z</time>
      </trkpt>
      <trkpt lat="42.583643" lon="-8.632902">
        <ele>60.0</ele>
        <time>2020-09-10T08:01:17Z</time>
      </trkpt>
      <trkpt lat="42.583628" lon="-8.632855">
        <ele>60.3</ele>
        <time>2020-09-10T08:01:18Z</time>
      </trkpt>
      <trkpt lat="42.583609" lon="-8.632814">
        <ele>60.6</ele>
        <time>2020-09-10T08:01:19Z</time>
      </trkpt>
      <trkpt lat="42.583590" lon="-8.632776">
        <ele>60.8</ele>
        <time>2020-09-10T08:01:20Z</time>
      </trkpt>
      <trkpt lat="42.583561" lon="-8.632742">
        <ele>61.1</ele>
        <time>2020-09-10T08:01:21Z</time>
      </trkpt>
      <trkpt lat="42.583529" lon="-8.632699">
        <ele>61.5</ele>
        <time>2020-09-10T08:01:22Z</time>
      </trkpt>
      <trkpt lat="42.583497" lon="-8.632660">
        <ele>61.8</ele>
        <time>2020-09-10T08:01:24Z</time>
      </trkpt>
      <trkpt lat="42.583462" lon="-8.632606">
        <ele>62.2</ele>
        <time>2020-09-10T08:01:25Z</time>
      </trkpt>
      <trkpt lat="42.583436" lon="-8.632560">
        <ele>62.6</ele>
        <time>2020-09-10T08:01:26Z</time>
      </trkpt>
      <trkpt lat="42.583408" lon="-8.632512">
        <ele>63.1</ele>
        <time>2020-09-10T08:01:27Z</time>
      </trkpt>
      <trkpt lat="42.583387" lon="-8.632469">
        <ele>63.5</ele>
        <time>2020-09-10T08:01:28Z</time>
      </trkpt>
      <trkpt lat="42.583375" lon="-8.632420">
        <ele>64.0</ele>
        <time>2020-09-10T08:01:29Z</time>
      </trkpt>
      <trkpt lat="42.583369" lon="-8.632362">
        <ele>64.6</ele>
        <time>2020-09-10T08:01:30Z</time>
      </trkpt>
      <trkpt lat="42.583369" lon="-8.632310">
        <ele>65.0</ele>
        <time>2020-09-10T08:01:31Z</time>
      </trkpt>
      <trkpt lat="42.583377" lon="-8.632264">
        <ele>65.3</ele>
        <time>2020-09-10T08:01:32Z</time>
      </trkpt>
      <trkpt lat="42.583386" lon="-8.632231">
        <ele>65.5</ele>
        <time>2020-09-10T08:01:33Z</time>
      </trkpt>
      <trkpt lat="42.583393" lon="-8.632198">
        <ele>65.7</ele>
        <time>2020-09-10T08:01:34Z</time>
      </trkpt>
      <trkpt lat="42.583397" lon="-8.632158">
        <ele>66.0</ele>
        <time>2020-09-10T08:01:35Z</time>
      </trkpt>
      <trkpt lat="42.583400" lon="-8.632114">
        <ele>66.4</ele>
        <time>2020-09-10T08:01:35Z</time>
      </trkpt>
      <trkpt lat="42.583404" lon="-8.632071">
        <ele>67.0</ele>
        <time>2020-09-10T08:01:36Z</time>
      </trkpt>
      <trkpt lat="42.583411" lon="-8.632029">
        <ele>67.6</ele>
        <time>2020-09-10T08:01:37Z</time>
      </trkpt>
      <trkpt lat="42.583418" lon="-8.631983">
        <ele>68.2</ele>
        <time>2020-09-10T08:01:38Z</time>
      </trkpt>
      <trkpt lat="42.583426" lon="-8.631936">
        <ele>68.8</ele>
        <time>2020-09-10T08:01:39Z</time>
      </trkpt>
      <trkpt lat="42.583444" lon="-8.631895">
        <ele>69.3</ele>
        <time>2020-09-10T08:01:40Z</time>
      </trkpt>
      <trkpt lat="42.583462" lon="-8.631858">
        <ele>69.7</ele>
        <time>2020-09-10T08:01:41Z</time>
      </trkpt>
      <trkpt lat="42.583484" lon="-8.631829">
        <ele>70.0</ele>
        <time>2020-09-10T08:01:42Z</time>
      </trkpt>
      <trkpt lat="42.583508" lon="-8.631809">
        <ele>70.1</ele>
        <time>2020-09-10T08:01:42Z</time>
      </trkpt>
      <trkpt lat="42.583529" lon="-8.631791">
        <ele>70.1</ele>
        <time>2020-09-10T08:01:43Z</time>
      </trkpt>
      <trkpt lat="42.583550" lon="-8.631775">
        <ele>70.3</ele>
        <time>2020-09-10T08:01:44Z</time>
      </trkpt>
      <trkpt lat="42.583579" lon="-8.631760">
        <ele>70.3</ele>
        <time>2020-09-10T08:01:44Z</time>
      </trkpt>
      <trkpt lat="42.583606" lon="-8.631743">
        <ele>70.4</ele>
        <time>2020-09-10T08:01:45Z</time>
      </trkpt>
      <trkpt lat="42.583635" lon="-8.631735">
        <ele>70.4</ele>
        <time>2020-09-10T08:01:46Z</time>
      </trkpt>
      <trkpt lat="42.583665" lon="-8.631733">
        <ele>70.2</ele>
        <time>2020-09-10T08:01:47Z</time>
      </trkpt>
      <trkpt lat="42.583692" lon="-8.631739">
        <ele>70.0</ele>
        <time>2020-09-10T08:01:48Z</time>
      </trkpt>
      <trkpt lat="42.583720" lon="-8.631750">
        <ele>69.7</ele>
        <time>2020-09-10T08:01:48Z</time>
      </trkpt>
      <trkpt lat="42.583753" lon="-8.631763">
        <ele>69.4</ele>
        <time>2020-09-10T08:01:49Z</time>
      </trkpt>
      <trkpt lat="42.583791" lon="-8.631767">
        <ele>69.1</ele>
        <time>2020-09-10T08:01:50Z</time>
      </trkpt>
      <trkpt lat="42.583835" lon="-8.631771">
        <ele>68.7</ele>
        <time>2020-09-10T08:01:51Z</time>
      </trkpt>
      <trkpt lat="42.583884" lon="-8.631774">
        <ele>68.2</ele>
        <time>2020-09-10T08:01:53Z</time>
      </trkpt>
      <trkpt lat="42.583940" lon="-8.631783">
        <ele>67.6</ele>
        <time>2020-09-10T08:01:54Z</time>
      </trkpt>
      <trkpt lat="42.583995" lon="-8.631792">
        <ele>67.0</ele>
        <time>2020-09-10T08:01:56Z</time>
      </trkpt>
      <trkpt lat="42.584054" lon="-8.631798">
        <ele>66.2</ele>
        <time>2020-09-10T08:01:57Z</time>
      </trkpt>
      <trkpt lat="42.584115" lon="-8.631794">
        <ele>65.6</ele>
        <time>2020-09-10T08:01:59Z</time>
      </trkpt>
      <trkpt lat="42.584175" lon="-8.631792">
        <ele>65.0</ele>
        <time>2020-09-10T08:02:01Z</time>
      </trkpt>
      <trkpt lat="42.584233" lon="-8.631784">
        <ele>64.7</ele>
        <time>2020-09-10T08:02:02Z</time>
      </trkpt>
      <trkpt lat="42.584291" lon="-8.631759">
        <ele>65.1</ele>
        <time>2020-09-10T08:02:04Z</time>
      </trkpt>
      <trkpt lat="42.584351" lon="-8.631725">
        <ele>65.4</ele>
        <time>2020-09-10T08:02:06Z</time>
      </trkpt>
      <trkpt lat="42.584413" lon="-8.631699">
        <ele>65.5</ele>
        <time>2020-09-10T08:02:07Z</time>
      </trkpt>
      <trkpt lat="42.584464" lon="-8.631693">
        <ele>65.9</ele>
        <time>2020-09-10T08:02:09Z</time>
      </trkpt>
      <trkpt lat="42.584498" lon="-8.631705">
        <ele>66.7</ele>
        <time>2020-09-10T08:02:10Z</time>
      </trkpt>
      <trkpt lat="42.584527" lon="-8.631722">
        <ele>67.3</ele>
        <time>2020-09-10T08:02:10Z</time>
      </trkpt>
      <trkpt lat="42.584553" lon="-8.631743">
        <ele>67.8</ele>
        <time>2020-09-10T08:02:11Z</time>
      </trkpt>
      <trkpt lat="42.584577" lon="-8.631762">
        <ele>68.3</ele>
        <time>2020-09-10T08:02:12Z</time>
      </trkpt>
      <trkpt lat="42.584597" lon="-8.631772">
        <ele>68.7</ele>
        <time>2020-09-10T08:02:12Z</time>
      </trkpt>
      <trkpt lat="42.584612" lon="-8.631776">
        <ele>69.0</ele>
        <time>2020-09-10T08:02:13Z</time>
      </trkpt>
      <trkpt lat="42.584629" lon="-8.631786">
        <ele>69.3</ele>
        <time>2020-09-10T08:02:13Z</time>
      </trkpt>
      <trkpt lat="42.584651" lon="-8.631798">
        <ele>69.7</ele>
        <time>2020-09-10T08:02:14Z</time>
      </trkpt>
      <trkpt lat="42.584674" lon="-8.631808">
        <ele>70.2</ele>
        <time>2020-09-10T08:02:15Z</time>
      </trkpt>
      <trkpt lat="42.584689" lon="-8.631807">
        <ele>70.4</ele>
        <time>2020-09-10T08:02:15Z</time>
      </trkpt>
      <trkpt lat="42.584705" lon="-8.631798">
        <ele>70.6</ele>
        <time>2020-09-10T08:02:16Z</time>
      </trkpt>
      <trkpt lat="42.584730" lon="-8.631788">
        <ele>71.0</ele>
        <time>2020-09-10T08:02:16Z</time>
      </trkpt>
      <trkpt lat="42.584768" lon="-8.631787">
        <ele>71.5</ele>
        <time>2020-09-10T08:02:17Z</time>
      </trkpt>
      <trkpt lat="42.584796" lon="-8.631787">
        <ele>71.8</ele>
        <time>2020-09-10T08:02:18Z</time>
      </trkpt>
      <trkpt lat="42.584828" lon="-8.631786">
        <ele>72.2</ele>
        <time>2020-09-10T08:02:19Z</time>
      </trkpt>
      <trkpt lat="42.584854" lon="-8.631782">
        <ele>72.6</ele>
        <time>2020-09-10T08:02:20Z</time>
      </trkpt>
      <trkpt lat="42.584875" lon="-8.631774">
        <ele>72.9</ele>
        <time>2020-09-10T08:02:20Z</time>
      </trkpt>
      <trkpt lat="42.584898" lon="-8.631770">
        <ele>73.2</ele>
        <time>2020-09-10T08:02:21Z</time>
      </trkpt>
      <trkpt lat="42.584924" lon="-8.631771">
        <ele>73.4</ele>
        <time>2020-09-10T08:02:21Z</time>
      </trkpt>
      <trkpt lat="42.584966" lon="-8.631780">
        <ele>73.4</ele>
        <time>2020-09-10T08:02:23Z</time>
      </trkpt>
      <trkpt lat="42.584991" lon="-8.631776">
        <ele>73.6</ele>
        <time>2020-09-10T08:02:23Z</time>
      </trkpt>
      <trkpt lat="42.585011" lon="-8.631771">
        <ele>73.7</ele>
        <time>2020-09-10T08:02:24Z</time>
      </trkpt>
      <trkpt lat="42.585037" lon="-8.631759">
        <ele>74.0</ele>
        <time>2020-09-10T08:02:25Z</time>
      </trkpt>
      <trkpt lat="42.585068" lon="-8.631744">
        <ele>74.3</ele>
        <time>2020-09-10T08:02:25Z</time>
      </trkpt>
      <trkpt lat="42.585104" lon="-8.631738">
        <ele>74.6</ele>
        <time>2020-09-10T08:02:26Z</time>
      </trkpt>
      <trkpt lat="42.585135" lon="-8.631727">
        <ele>74.9</ele>
        <time>2020-09-10T08:02:27Z</time>
      </trkpt>
      <trkpt lat="42.585163" lon="-8.631716">
        <ele>75.0</ele>
        <time>2020-09-10T08:02:28Z</time>
      </trkpt>
      <trkpt lat="42.585183" lon="-8.631703">
        <ele>75.2</ele>
        <time>2020-09-10T08:02:29Z</time>
      </trkpt>
      <trkpt lat="42.585207" lon="-8.631688">
        <ele>75.5</ele>
        <time>2020-09-10T08:02:29Z</time>
      </trkpt>
      <trkpt lat="42.585232" lon="-8.631668">
        <ele>75.8</ele>
        <time>2020-09-10T08:02:30Z</time>
      </trkpt>
      <trkpt lat="42.585248" lon="-8.631654">
        <ele>76.0</ele>
        <time>2020-09-10T08:02:31Z</time>
      </trkpt>
      <trkpt lat="42.585278" lon="-8.631634">
        <ele>76.4</ele>
        <time>2020-09-10T08:02:31Z</time>
      </trkpt>
      <trkpt lat="42.585310" lon="-8.631615">
        <ele>76.8</ele>
        <time>2020-09-10T08:02:32Z</time>
      </trkpt>
      <trkpt lat="42.585330" lon="-8.631596">
        <ele>77.1</ele>
        <time>2020-09-10T08:02:33Z</time>
      </trkpt>
      <trkpt lat="42.585344" lon="-8.631577">
        <ele>77.5</ele>
        <time>2020-09-10T08:02:34Z</time>
      </trkpt>
      <trkpt lat="42.585358" lon="-8.631563">
        <ele>77.9</ele>
        <time>2020-09-10T08:02:34Z</time>
      </trkpt>
      <trkpt lat="42.585370" lon="-8.631551">
        <ele>78.1</ele>
        <time>2020-09-10T08:02:34Z</time>
      </trkpt>
      <trkpt lat="42.585388" lon="-8.631539">
        <ele>78.3</ele>
        <time>2020-09-10T08:02:35Z</time>
      </trkpt>
      <trkpt lat="42.585409" lon="-8.631536">
        <ele>78.3</ele>
        <time>2020-09-10T08:02:36Z</time>
      </trkpt>
      <trkpt lat="42.585434" lon="-8.631527">
        <ele>78.4</ele>
        <time>2020-09-10T08:02:36Z</time>
      </trkpt>
      <trkpt lat="42.585462" lon="-8.631518">
        <ele>78.4</ele>
        <time>2020-09-10T08:02:37Z</time>
      </trkpt>
      <trkpt lat="42.585483" lon="-8.631514">
        <ele>78.4</ele>
        <time>2020-09-10T08:02:38Z</time>
      </trkpt>
      <trkpt lat="42.585500" lon="-8.631512">
        <ele>78.4</ele>
        <time>2020-09-10T08:02:38Z</time>
      </trkpt>
      <trkpt lat="42.585518" lon="-8.631511">
        <ele>78.4</ele>
        <time>2020-09-10T08:02:38Z</time>
      </trkpt>
      <trkpt lat="42.585527" lon="-8.631509">
        <ele>78.4</ele>
        <time>2020-09-10T08:02:39Z</time>
      </trkpt>
      <trkpt lat="42.585539" lon="-8.631497">
        <ele>78.6</ele>
        <time>2020-09-10T08:02:39Z</time>
      </trkpt>
      <trkpt lat="42.585558" lon="-8.631478">
        <ele>78.9</ele>
        <time>2020-09-10T08:02:40Z</time>
      </trkpt>
      <trkpt lat="42.585596" lon="-8.631450">
        <ele>79.3</ele>
        <time>2020-09-10T08:02:41Z</time>
      </trkpt>
      <trkpt lat="42.585635" lon="-8.631433">
        <ele>79.4</ele>
        <time>2020-09-10T08:02:42Z</time>
      </trkpt>
      <trkpt lat="42.585675" lon="-8.631424">
        <ele>79.2</ele>
        <time>2020-09-10T08:02:43Z</time>
      </trkpt>
      <trkpt lat="42.585722" lon="-8.631422">
        <ele>78.8</ele>
        <time>2020-09-10T08:02:44Z</time>
      </trkpt>
      <trkpt lat="42.585787" lon="-8.631429">
        <ele>78.0</ele>
        <time>2020-09-10T08:02:46Z</time>
      </trkpt>
      <trkpt lat="42.585838" lon="-8.631437">
        <ele>77.4</ele>
        <time>2020-09-10T08:02:47Z</time>
      </trkpt>
      <trkpt lat="42.585889" lon="-8.631444">
        <ele>77.1</ele>
        <time>2020-09-10T08:02:49Z</time>
      </trkpt>
      <trkpt lat="42.585935" lon="-8.631444">
        <ele>76.9</ele>
        <time>2020-09-10T08:02:50Z</time>
      </trkpt>
      <trkpt lat="42.585981" lon="-8.631441">
        <ele>76.8</ele>
        <time>2020-09-10T08:02:51Z</time>
      </trkpt>
      <trkpt lat="42.586023" lon="-8.631436">
        <ele>76.7</ele>
        <time>2020-09-10T08:02:52Z</time>
      </trkpt>
      <trkpt lat="42.586093" lon="-8.631431">
        <ele>76.6</ele>
        <time>2020-09-10T08:02:54Z</time>
      </trkpt>
      <trkpt lat="42.586178" lon="-8.631412">
        <ele>76.8</ele>
        <time>2020-09-10T08:02:57Z</time>
      </trkpt>
      <trkpt lat="42.586229" lon="-8.631403">
        <ele>76.9</ele>
        <time>2020-09-10T08:02:58Z</time>
      </trkpt>
      <trkpt lat="42.586270" lon="-8.631403">
        <ele>76.8</ele>
        <time>2020-09-10T08:02:59Z</time>
      </trkpt>
      <trkpt lat="42.586337" lon="-8.631420">
        <ele>76.4</ele>
        <time>2020-09-10T08:03:01Z</time>
      </trkpt>
      <trkpt lat="42.586396" lon="-8.631412">
        <ele>76.7</ele>
        <time>2020-09-10T08:03:02Z</time>
      </trkpt>
      <trkpt lat="42.586456" lon="-8.631391">
        <ele>77.4</ele>
        <time>2020-09-10T08:03:04Z</time>
      </trkpt>
      <trkpt lat="42.586503" lon="-8.631365">
        <ele>78.1</ele>
        <time>2020-09-10T08:03:05Z</time>
      </trkpt>
      <trkpt lat="42.586539" lon="-8.631343">
        <ele>78.8</ele>
        <time>2020-09-10T08:03:06Z</time>
      </trkpt>
      <trkpt lat="42.586598" lon="-8.631321">
        <ele>79.4</ele>
        <time>2020-09-10T08:03:08Z</time>
      </trkpt>
      <trkpt lat="42.586634" lon="-8.631316">
        <ele>79.6</ele>
        <time>2020-09-10T08:03:09Z</time>
      </trkpt>
      <trkpt lat="42.586702" lon="-8.631325">
        <ele>79.5</ele>
        <time>2020-09-10T08:03:11Z</time>
      </trkpt>
      <trkpt lat="42.586742" lon="-8.631330">
        <ele>79.4</ele>
        <time>2020-09-10T08:03:12Z</time>
      </trkpt>
      <trkpt lat="42.586778" lon="-8.631340">
        <ele>79.1</ele>
        <time>2020-09-10T08:03:13Z</time>
      </trkpt>
      <trkpt lat="42.586813" lon="-8.631342">
        <ele>78.9</ele>
        <time>2020-09-10T08:03:14Z</time>
      </trkpt>
      <trkpt lat="42.586863" lon="-8.631365">
        <ele>78.1</ele>
        <time>2020-09-10T08:03:15Z</time>
      </trkpt>
      <trkpt lat="42.586928" lon="-8.631406">
        <ele>76.9</ele>
        <time>2020-09-10T08:03:17Z</time>
      </trkpt>
      <trkpt lat="42.586964" lon="-8.631454">
        <ele>75.6</ele>
        <time>2020-09-10T08:03:19Z</time>
      </trkpt>
      <trkpt lat="42.587029" lon="-8.631524">
        <ele>73.6</ele>
        <time>2020-09-10T08:03:21Z</time>
      </trkpt>
      <trkpt lat="42.587120" lon="-8.631609">
        <ele>71.2</ele>
        <time>2020-09-10T08:03:24Z</time>
      </trkpt>
      <trkpt lat="42.587190" lon="-8.631661">
        <ele>69.8</ele>
        <time>2020-09-10T08:03:26Z</time>
      </trkpt>
      <trkpt lat="42.587286" lon="-8.631698">
        <ele>68.7</ele>
        <time>2020-09-10T08:03:29Z</time>
      </trkpt>
      <trkpt lat="42.587362" lon="-8.631706">
        <ele>68.3</ele>
        <time>2020-09-10T08:03:31Z</time>
      </trkpt>
      <trkpt lat="42.587453" lon="-8.631691">
        <ele>68.3</ele>
        <time>2020-09-10T08:03:33Z</time>
      </trkpt>
      <trkpt lat="42.587528" lon="-8.631689">
        <ele>68.6</ele>
        <time>2020-09-10T08:03:35Z</time>
      </trkpt>
      <trkpt lat="42.587580" lon="-8.631686">
        <ele>68.8</ele>
        <time>2020-09-10T08:03:36Z</time>
      </trkpt>
      <trkpt lat="42.587663" lon="-8.631659">
        <ele>69.3</ele>
        <time>2020-09-10T08:03:39Z</time>
      </trkpt>
      <trkpt lat="42.587712" lon="-8.631694">
        <ele>69.6</ele>
        <time>2020-09-10T08:03:40Z</time>
      </trkpt>
      <trkpt lat="42.587742" lon="-8.631754">
        <ele>69.8</ele>
        <time>2020-09-10T08:03:42Z</time>
      </trkpt>
      <trkpt lat="42.587747" lon="-8.631812">
        <ele>69.7</ele>
        <time>2020-09-10T08:03:43Z</time>
      </trkpt>
      <trkpt lat="42.587739" lon="-8.631883">
        <ele>69.3</ele>
        <time>2020-09-10T08:03:44Z</time>
      </trkpt>
      <trkpt lat="42.587727" lon="-8.631938">
        <ele>69.1</ele>
        <time>2020-09-10T08:03:45Z</time>
      </trkpt>
      <trkpt lat="42.587713" lon="-8.631989">
        <ele>68.8</ele>
        <time>2020-09-10T08:03:46Z</time>
      </trkpt>
      <trkpt lat="42.587699" lon="-8.632033">
        <ele>68.5</ele>
        <time>2020-09-10T08:03:47Z</time>
      </trkpt>
      <trkpt lat="42.587683" lon="-8.632077">
        <ele>68.1</ele>
        <time>2020-09-10T08:03:48Z</time>
      </trkpt>
      <trkpt lat="42.587675" lon="-8.632114">
        <ele>67.9</ele>
        <time>2020-09-10T08:03:49Z</time>
      </trkpt>
      <trkpt lat="42.587669" lon="-8.632162">
        <ele>68.0</ele>
        <time>2020-09-10T08:03:50Z</time>
      </trkpt>
      <trkpt lat="42.587665" lon="-8.632200">
        <ele>68.0</ele>
        <time>2020-09-10T08:03:51Z</time>
      </trkpt>
      <trkpt lat="42.587655" lon="-8.632238">
        <ele>68.0</ele>
        <time>2020-09-10T08:03:51Z</time>
      </trkpt>
      <trkpt lat="42.587634" lon="-8.632272">
        <ele>67.6</ele>
        <time>2020-09-10T08:03:52Z</time>
      </trkpt>
      <trkpt lat="42.587608" lon="-8.632313">
        <ele>67.2</ele>
        <time>2020-09-10T08:03:53Z</time>
      </trkpt>
      <trkpt lat="42.587571" lon="-8.632393">
        <ele>66.7</ele>
        <time>2020-09-10T08:03:55Z</time>
      </trkpt>
      <trkpt lat="42.587539" lon="-8.632470">
        <ele>66.5</ele>
        <time>2020-09-10T08:03:57Z</time>
      </trkpt>
      <trkpt lat="42.587504" lon="-8.632541">
        <ele>66.2</ele>
        <time>2020-09-10T08:03:59Z</time>
      </trkpt>
      <trkpt lat="42.587473" lon="-8.632597">
        <ele>66.1</ele>
        <time>2020-09-10T08:04:00Z</time>
      </trkpt>
      <trkpt lat="42.587432" lon="-8.632654">
        <ele>66.0</ele>
        <time>2020-09-10T08:04:02Z</time>
      </trkpt>
      <trkpt lat="42.587374" lon="-8.632705">
        <ele>65.8</ele>
        <time>2020-09-10T08:04:03Z</time>
      </trkpt>
      <trkpt lat="42.587329" lon="-8.632750">
        <ele>65.8</ele>
        <time>2020-09-10T08:04:05Z</time>
      </trkpt>
      <trkpt lat="42.587286" lon="-8.632798">
        <ele>65.8</ele>
        <time>2020-09-10T08:04:06Z</time>
      </trkpt>
      <trkpt lat="42.587245" lon="-8.632844">
        <ele>65.8</ele>
        <time>2020-09-10T08:04:08Z</time>
      </trkpt>
      <trkpt lat="42.587218" lon="-8.632901">
        <ele>66.1</ele>
        <time>2020-09-10T08:04:09Z</time>
      </trkpt>
      <trkpt lat="42.587204" lon="-8.632964">
        <ele>66.5</ele>
        <time>2020-09-10T08:04:10Z</time>
      </trkpt>
      <trkpt lat="42.587202" lon="-8.633023">
        <ele>67.1</ele>
        <time>2020-09-10T08:04:12Z</time>
      </trkpt>
      <trkpt lat="42.587210" lon="-8.633083">
        <ele>67.7</ele>
        <time>2020-09-10T08:04:13Z</time>
      </trkpt>
      <trkpt lat="42.587216" lon="-8.633144">
        <ele>68.1</ele>
        <time>2020-09-10T08:04:14Z</time>
      </trkpt>
      <trkpt lat="42.587226" lon="-8.633204">
        <ele>68.4</ele>
        <time>2020-09-10T08:04:15Z</time>
      </trkpt>
      <trkpt lat="42.587233" lon="-8.633272">
        <ele>68.8</ele>
        <time>2020-09-10T08:04:17Z</time>
      </trkpt>
      <trkpt lat="42.587240" lon="-8.633338">
        <ele>68.6</ele>
        <time>2020-09-10T08:04:18Z</time>
      </trkpt>
      <trkpt lat="42.587257" lon="-8.633398">
        <ele>68.5</ele>
        <time>2020-09-10T08:04:19Z</time>
      </trkpt>
      <trkpt lat="42.587275" lon="-8.633432">
        <ele>68.6</ele>
        <time>2020-09-10T08:04:20Z</time>
      </trkpt>
      <trkpt lat="42.587317" lon="-8.633452">
        <ele>69.0</ele>
        <time>2020-09-10T08:04:21Z</time>
      </trkpt>
      <trkpt lat="42.587351" lon="-8.633450">
        <ele>69.5</ele>
        <time>2020-09-10T08:04:22Z</time>
      </trkpt>
      <trkpt lat="42.587387" lon="-8.633446">
        <ele>70.0</ele>
        <time>2020-09-10T08:04:23Z</time>
      </trkpt>
      <trkpt lat="42.587423" lon="-8.633441">
        <ele>70.4</ele>
        <time>2020-09-10T08:04:24Z</time>
      </trkpt>
      <trkpt lat="42.587461" lon="-8.633434">
        <ele>70.9</ele>
        <time>2020-09-10T08:04:25Z</time>
      </trkpt>
      <trkpt lat="42.587500" lon="-8.633431">
        <ele>71.4</ele>
        <time>2020-09-10T08:04:26Z</time>
      </trkpt>
      <trkpt lat="42.587535" lon="-8.633426">
        <ele>71.9</ele>
        <time>2020-09-10T08:04:27Z</time>
      </trkpt>
      <trkpt lat="42.587573" lon="-8.633423">
        <ele>72.4</ele>
        <time>2020-09-10T08:04:28Z</time>
      </trkpt>
      <trkpt lat="42.587610" lon="-8.633422">
        <ele>72.8</ele>
        <time>2020-09-10T08:04:29Z</time>
      </trkpt>
      <trkpt lat="42.587645" lon="-8.633427">
        <ele>73.3</ele>
        <time>2020-09-10T08:04:30Z</time>
      </trkpt>
      <trkpt lat="42.587678" lon="-8.633434">
        <ele>73.7</ele>
        <time>2020-09-10T08:04:31Z</time>
      </trkpt>
      <trkpt lat="42.587710" lon="-8.633439">
        <ele>74.2</ele>
        <time>2020-09-10T08:04:32Z</time>
      </trkpt>
      <trkpt lat="42.587743" lon="-8.633439">
        <ele>74.7</ele>
        <time>2020-09-10T08:04:33Z</time>
      </trkpt>
      <trkpt lat="42.587778" lon="-8.633436">
        <ele>75.1</ele>
        <time>2020-09-10T08:04:34Z</time>
      </trkpt>
      <trkpt lat="42.587810" lon="-8.633434">
        <ele>75.6</ele>
        <time>2020-09-10T08:04:34Z</time>
      </trkpt>
      <trkpt lat="42.587841" lon="-8.633438">
        <ele>76.1</ele>
        <time>2020-09-10T08:04:35Z</time>
      </trkpt>
      <trkpt lat="42.587870" lon="-8.633446">
        <ele>76.5</ele>
        <time>2020-09-10T08:04:36Z</time>
      </trkpt>
      <trkpt lat="42.587896" lon="-8.633452">
        <ele>76.9</ele>
        <time>2020-09-10T08:04:37Z</time>
      </trkpt>
      <trkpt lat="42.587924" lon="-8.633455">
        <ele>77.4</ele>
        <time>2020-09-10T08:04:37Z</time>
      </trkpt>
      <trkpt lat="42.587953" lon="-8.633454">
        <ele>77.9</ele>
        <time>2020-09-10T08:04:38Z</time>
      </trkpt>
      <trkpt lat="42.587982" lon="-8.633458">
        <ele>78.4</ele>
        <time>2020-09-10T08:04:39Z</time>
      </trkpt>
      <trkpt lat="42.588013" lon="-8.633463">
        <ele>78.9</ele>
        <time>2020-09-10T08:04:40Z</time>
      </trkpt>
      <trkpt lat="42.588042" lon="-8.633460">
        <ele>79.4</ele>
        <time>2020-09-10T08:04:41Z</time>
      </trkpt>
      <trkpt lat="42.588068" lon="-8.633457">
        <ele>79.8</ele>
        <time>2020-09-10T08:04:41Z</time>
      </trkpt>
      <trkpt lat="42.588095" lon="-8.633456">
        <ele>80.2</ele>
        <time>2020-09-10T08:04:42Z</time>
      </trkpt>
      <trkpt lat="42.588123" lon="-8.633456">
        <ele>80.7</ele>
        <time>2020-09-10T08:04:43Z</time>
      </trkpt>
      <trkpt lat="42.588149" lon="-8.633452">
        <ele>81.1</ele>
        <time>2020-09-10T08:04:43Z</time>
      </trkpt>
      <trkpt lat="42.588175" lon="-8.633450">
        <ele>81.6</ele>
        <time>2020-09-10T08:04:44Z</time>
      </trkpt>
      <trkpt lat="42.588201" lon="-8.633448">
        <ele>82.1</ele>
        <time>2020-09-10T08:04:45Z</time>
      </trkpt>
      <trkpt lat="42.588228" lon="-8.633450">
        <ele>82.6</ele>
        <time>2020-09-10T08:04:46Z</time>
      </trkpt>
      <trkpt lat="42.588253" lon="-8.633450">
        <ele>83.1</ele>
        <time>2020-09-10T08:04:46Z</time>
      </trkpt>
      <trkpt lat="42.588275" lon="-8.633444">
        <ele>83.4</ele>
        <time>2020-09-10T08:04:47Z</time>
      </trkpt>
      <trkpt lat="42.588297" lon="-8.633436">
        <ele>83.8</ele>
        <time>2020-09-10T08:04:47Z</time>
      </trkpt>
      <trkpt lat="42.588319" lon="-8.633429">
        <ele>84.1</ele>
        <time>2020-09-10T08:04:48Z</time>
      </trkpt>
      <trkpt lat="42.588339" lon="-8.633425">
        <ele>84.5</ele>
        <time>2020-09-10T08:04:49Z</time>
      </trkpt>
      <trkpt lat="42.588358" lon="-8.633424">
        <ele>84.8</ele>
        <time>2020-09-10T08:04:49Z</time>
      </trkpt>
      <trkpt lat="42.588377" lon="-8.633427">
        <ele>85.2</ele>
        <time>2020-09-10T08:04:50Z</time>
      </trkpt>
      <trkpt lat="42.588395" lon="-8.633428">
        <ele>85.6</ele>
        <time>2020-09-10T08:04:50Z</time>
      </trkpt>
      <trkpt lat="42.588417" lon="-8.633422">
        <ele>86.0</ele>
        <time>2020-09-10T08:04:51Z</time>
      </trkpt>
      <trkpt lat="42.588437" lon="-8.633414">
        <ele>86.3</ele>
        <time>2020-09-10T08:04:51Z</time>
      </trkpt>
      <trkpt lat="42.588456" lon="-8.633407">
        <ele>86.6</ele>
        <time>2020-09-10T08:04:52Z</time>
      </trkpt>
      <trkpt lat="42.588476" lon="-8.633400">
        <ele>86.9</ele>
        <time>2020-09-10T08:04:52Z</time>
      </trkpt>
      <trkpt lat="42.588498" lon="-8.633398">
        <ele>87.3</ele>
        <time>2020-09-10T08:04:53Z</time>
      </trkpt>
      <trkpt lat="42.588520" lon="-8.633397">
        <ele>87.7</ele>
        <time>2020-09-10T08:04:54Z</time>
      </trkpt>
      <trkpt lat="42.588541" lon="-8.633392">
        <ele>88.1</ele>
        <time>2020-09-10T08:04:54Z</time>
      </trkpt>
      <trkpt lat="42.588557" lon="-8.633385">
        <ele>88.3</ele>
        <time>2020-09-10T08:04:55Z</time>
      </trkpt>
      <trkpt lat="42.588570" lon="-8.633374">
        <ele>88.5</ele>
        <time>2020-09-10T08:04:55Z</time>
      </trkpt>
      <trkpt lat="42.588589" lon="-8.633361">
        <ele>88.7</ele>
        <time>2020-09-10T08:04:55Z</time>
      </trkpt>
      <trkpt lat="42.588608" lon="-8.633346">
        <ele>88.9</ele>
        <time>2020-09-10T08:04:56Z</time>
      </trkpt>
      <trkpt lat="42.588625" lon="-8.633336">
        <ele>89.1</ele>
        <time>2020-09-10T08:04:57Z</time>
      </trkpt>
      <trkpt lat="42.588647" lon="-8.633333">
        <ele>89.4</ele>
        <time>2020-09-10T08:04:57Z</time>
      </trkpt>
      <trkpt lat="42.588669" lon="-8.633329">
        <ele>89.7</ele>
        <time>2020-09-10T08:04:58Z</time>
      </trkpt>
      <trkpt lat="42.588692" lon="-8.633324">
        <ele>90.1</ele>
        <time>2020-09-10T08:04:58Z</time>
      </trkpt>
      <trkpt lat="42.588713" lon="-8.633317">
        <ele>90.4</ele>
        <time>2020-09-10T08:04:59Z</time>
      </trkpt>
      <trkpt lat="42.588738" lon="-8.633307">
        <ele>90.7</ele>
        <time>2020-09-10T08:05:00Z</time>
      </trkpt>
      <trkpt lat="42.588767" lon="-8.633296">
        <ele>91.1</ele>
        <time>2020-09-10T08:05:00Z</time>
      </trkpt>
      <trkpt lat="42.588793" lon="-8.633287">
        <ele>91.5</ele>
        <time>2020-09-10T08:05:01Z</time>
      </trkpt>
      <trkpt lat="42.588825" lon="-8.633271">
        <ele>92.1</ele>
        <time>2020-09-10T08:05:02Z</time>
      </trkpt>
      <trkpt lat="42.588844" lon="-8.633259">
        <ele>92.3</ele>
        <time>2020-09-10T08:05:03Z</time>
      </trkpt>
      <trkpt lat="42.588867" lon="-8.633242">
        <ele>92.5</ele>
        <time>2020-09-10T08:05:03Z</time>
      </trkpt>
      <trkpt lat="42.588880" lon="-8.633228">
        <ele>92.6</ele>
        <time>2020-09-10T08:05:04Z</time>
      </trkpt>
      <trkpt lat="42.588891" lon="-8.633214">
        <ele>92.7</ele>
        <time>2020-09-10T08:05:04Z</time>
      </trkpt>
      <trkpt lat="42.588908" lon="-8.633195">
        <ele>92.9</ele>
        <time>2020-09-10T08:05:05Z</time>
      </trkpt>
      <trkpt lat="42.588930" lon="-8.633167">
        <ele>93.1</ele>
        <time>2020-09-10T08:05:06Z</time>
      </trkpt>
      <trkpt lat="42.588959" lon="-8.633126">
        <ele>93.5</ele>
        <time>2020-09-10T08:05:07Z</time>
      </trkpt>
      <trkpt lat="42.588987" lon="-8.633092">
        <ele>93.7</ele>
        <time>2020-09-10T08:05:08Z</time>
      </trkpt>
      <trkpt lat="42.589015" lon="-8.633073">
        <ele>93.9</ele>
        <time>2020-09-10T08:05:09Z</time>
      </trkpt>
      <trkpt lat="42.589036" lon="-8.633052">
        <ele>94.1</ele>
        <time>2020-09-10T08:05:09Z</time>
      </trkpt>
      <trkpt lat="42.589054" lon="-8.633024">
        <ele>94.5</ele>
        <time>2020-09-10T08:05:10Z</time>
      </trkpt>
      <trkpt lat="42.589070" lon="-8.632996">
        <ele>94.7</ele>
        <time>2020-09-10T08:05:11Z</time>
      </trkpt>
      <trkpt lat="42.589082" lon="-8.632968">
        <ele>95.0</ele>
        <time>2020-09-10T08:05:11Z</time>
      </trkpt>
      <trkpt lat="42.589097" lon="-8.632935">
        <ele>95.2</ele>
        <time>2020-09-10T08:05:12Z</time>
      </trkpt>
      <trkpt lat="42.589120" lon="-8.632900">
        <ele>95.4</ele>
        <time>2020-09-10T08:05:13Z</time>
      </trkpt>
      <trkpt lat="42.589142" lon="-8.632874">
        <ele>95.6</ele>
        <time>2020-09-10T08:05:14Z</time>
      </trkpt>
      <trkpt lat="42.589157" lon="-8.632839">
        <ele>95.8</ele>
        <time>2020-09-10T08:05:15Z</time>
      </trkpt>
      <trkpt lat="42.589175" lon="-8.632793">
        <ele>96.3</ele>
        <time>2020-09-10T08:05:16Z</time>
      </trkpt>
      <trkpt lat="42.589207" lon="-8.632743">
        <ele>96.8</ele>
        <time>2020-09-10T08:05:17Z</time>
      </trkpt>
      <trkpt lat="42.589243" lon="-8.632700">
        <ele>97.1</ele>
        <time>2020-09-10T08:05:18Z</time>
      </trkpt>
      <trkpt lat="42.589257" lon="-8.632669">
        <ele>97.4</ele>
        <time>2020-09-10T08:05:19Z</time>
      </trkpt>
      <trkpt lat="42.589289" lon="-8.632643">
        <ele>97.5</ele>
        <time>2020-09-10T08:05:20Z</time>
      </trkpt>
      <trkpt lat="42.589309" lon="-8.632610">
        <ele>97.7</ele>
        <time>2020-09-10T08:05:21Z</time>
      </trkpt>
      <trkpt lat="42.589334" lon="-8.632567">
        <ele>98.0</ele>
        <time>2020-09-10T08:05:22Z</time>
      </trkpt>
      <trkpt lat="42.589348" lon="-8.632525">
        <ele>98.5</ele>
        <time>2020-09-10T08:05:23Z</time>
      </trkpt>
      <trkpt lat="42.589371" lon="-8.632489">
        <ele>98.8</ele>
        <time>2020-09-10T08:05:24Z</time>
      </trkpt>
      <trkpt lat="42.589391" lon="-8.632447">
        <ele>99.2</ele>
        <time>2020-09-10T08:05:25Z</time>
      </trkpt>
      <trkpt lat="42.589408" lon="-8.632407">
        <ele>99.7</ele>
        <time>2020-09-10T08:05:25Z</time>
      </trkpt>
      <trkpt lat="42.589432" lon="-8.632372">
        <ele>100.1</ele>
        <time>2020-09-10T08:05:26Z</time>
      </trkpt>
      <trkpt lat="42.589448" lon="-8.632352">
        <ele>100.3</ele>
        <time>2020-09-10T08:05:27Z</time>
      </trkpt>
      <trkpt lat="42.589459" lon="-8.632332">
        <ele>100.5</ele>
        <time>2020-09-10T08:05:28Z</time>
      </trkpt>
      <trkpt lat="42.589474" lon="-8.632314">
        <ele>100.7</ele>
        <time>2020-09-10T08:05:28Z</time>
      </trkpt>
      <trkpt lat="42.589480" lon="-8.632293">
        <ele>101.0</ele>
        <time>2020-09-10T08:05:28Z</time>
      </trkpt>
      <trkpt lat="42.589487" lon="-8.632275">
        <ele>101.2</ele>
        <time>2020-09-10T08:05:29Z</time>
      </trkpt>
      <trkpt lat="42.589503" lon="-8.632260">
        <ele>101.4</ele>
        <time>2020-09-10T08:05:29Z</time>
      </trkpt>
      <trkpt lat="42.589520" lon="-8.632250">
        <ele>101.5</ele>
        <time>2020-09-10T08:05:30Z</time>
      </trkpt>
      <trkpt lat="42.589543" lon="-8.632230">
        <ele>101.7</ele>
        <time>2020-09-10T08:05:31Z</time>
      </trkpt>
      <trkpt lat="42.589566" lon="-8.632211">
        <ele>101.9</ele>
        <time>2020-09-10T08:05:31Z</time>
      </trkpt>
      <trkpt lat="42.589585" lon="-8.632191">
        <ele>102.2</ele>
        <time>2020-09-10T08:05:32Z</time>
      </trkpt>
      <trkpt lat="42.589603" lon="-8.632171">
        <ele>102.5</ele>
        <time>2020-09-10T08:05:33Z</time>
      </trkpt>
      <trkpt lat="42.589621" lon="-8.632147">
        <ele>102.9</ele>
        <time>2020-09-10T08:05:33Z</time>
      </trkpt>
      <trkpt lat="42.589634" lon="-8.632118">
        <ele>103.4</ele>
        <time>2020-09-10T08:05:34Z</time>
      </trkpt>
      <trkpt lat="42.589649" lon="-8.632092">
        <ele>103.9</ele>
        <time>2020-09-10T08:05:35Z</time>
      </trkpt>
      <trkpt lat="42.589672" lon="-8.632064">
        <ele>104.3</ele>
        <time>2020-09-10T08:05:35Z</time>
      </trkpt>
      <trkpt lat="42.589691" lon="-8.632043">
        <ele>104.7</ele>
        <time>2020-09-10T08:05:36Z</time>
      </trkpt>
      <trkpt lat="42.589703" lon="-8.632023">
        <ele>105.1</ele>
        <time>2020-09-10T08:05:37Z</time>
      </trkpt>
      <trkpt lat="42.589722" lon="-8.632004">
        <ele>105.4</ele>
        <time>2020-09-10T08:05:37Z</time>
      </trkpt>
      <trkpt lat="42.589742" lon="-8.631979">
        <ele>105.9</ele>
        <time>2020-09-10T08:05:38Z</time>
      </trkpt>
      <trkpt lat="42.589756" lon="-8.631959">
        <ele>106.2</ele>
        <time>2020-09-10T08:05:38Z</time>
      </trkpt>
      <trkpt lat="42.589773" lon="-8.631939">
        <ele>106.6</ele>
        <time>2020-09-10T08:05:39Z</time>
      </trkpt>
      <trkpt lat="42.589792" lon="-8.631924">
        <ele>106.8</ele>
        <time>2020-09-10T08:05:40Z</time>
      </trkpt>
      <trkpt lat="42.589806" lon="-8.631908">
        <ele>107.1</ele>
        <time>2020-09-10T08:05:40Z</time>
      </trkpt>
      <trkpt lat="42.589814" lon="-8.631886">
        <ele>107.5</ele>
        <time>2020-09-10T08:05:41Z</time>
      </trkpt>
      <trkpt lat="42.589824" lon="-8.631860">
        <ele>107.9</ele>
        <time>2020-09-10T08:05:41Z</time>
      </trkpt>
      <trkpt lat="42.589839" lon="-8.631835">
        <ele>108.4</ele>
        <time>2020-09-10T08:05:42Z</time>
      </trkpt>
      <trkpt lat="42.589856" lon="-8.631818">
        <ele>108.7</ele>
        <time>2020-09-10T08:05:42Z</time>
      </trkpt>
      <trkpt lat="42.589874" lon="-8.631805">
        <ele>108.9</ele>
        <time>2020-09-10T08:05:43Z</time>
      </trkpt>
      <trkpt lat="42.589889" lon="-8.631785">
        <ele>109.3</ele>
        <time>2020-09-10T08:05:43Z</time>
      </trkpt>
      <trkpt lat="42.589897" lon="-8.631760">
        <ele>109.8</ele>
        <time>2020-09-10T08:05:44Z</time>
      </trkpt>
      <trkpt lat="42.589903" lon="-8.631735">
        <ele>110.2</ele>
        <time>2020-09-10T08:05:45Z</time>
      </trkpt>
      <trkpt lat="42.589912" lon="-8.631715">
        <ele>110.6</ele>
        <time>2020-09-10T08:05:45Z</time>
      </trkpt>
      <trkpt lat="42.589918" lon="-8.631703">
        <ele>110.8</ele>
        <time>2020-09-10T08:05:45Z</time>
      </trkpt>
      <trkpt lat="42.589925" lon="-8.631685">
        <ele>111.2</ele>
        <time>2020-09-10T08:05:46Z</time>
      </trkpt>
      <trkpt lat="42.589939" lon="-8.631656">
        <ele>111.7</ele>
        <time>2020-09-10T08:05:46Z</time>
      </trkpt>
      <trkpt lat="42.589973" lon="-8.631614">
        <ele>112.4</ele>
        <time>2020-09-10T08:05:48Z</time>
      </trkpt>
      <trkpt lat="42.589980" lon="-8.631580">
        <ele>113.0</ele>
        <time>2020-09-10T08:05:48Z</time>
      </trkpt>
      <trkpt lat="42.589982" lon="-8.631545">
        <ele>113.5</ele>
        <time>2020-09-10T08:05:49Z</time>
      </trkpt>
      <trkpt lat="42.589983" lon="-8.631508">
        <ele>114.1</ele>
        <time>2020-09-10T08:05:50Z</time>
      </trkpt>
      <trkpt lat="42.589997" lon="-8.631469">
        <ele>114.6</ele>
        <time>2020-09-10T08:05:51Z</time>
      </trkpt>
      <trkpt lat="42.590015" lon="-8.631431">
        <ele>114.9</ele>
        <time>2020-09-10T08:05:51Z</time>
      </trkpt>
      <trkpt lat="42.590043" lon="-8.631399">
        <ele>115.1</ele>
        <time>2020-09-10T08:05:52Z</time>
      </trkpt>
      <trkpt lat="42.590061" lon="-8.631363">
        <ele>115.5</ele>
        <time>2020-09-10T08:05:53Z</time>
      </trkpt>
      <trkpt lat="42.590093" lon="-8.631338">
        <ele>115.5</ele>
        <time>2020-09-10T08:05:54Z</time>
      </trkpt>
      <trkpt lat="42.590113" lon="-8.631304">
        <ele>115.8</ele>
        <time>2020-09-10T08:05:55Z</time>
      </trkpt>
      <trkpt lat="42.590121" lon="-8.631267">
        <ele>116.4</ele>
        <time>2020-09-10T08:05:56Z</time>
      </trkpt>
      <trkpt lat="42.590142" lon="-8.631245">
        <ele>116.5</ele>
        <time>2020-09-10T08:05:57Z</time>
      </trkpt>
      <trkpt lat="42.590146" lon="-8.631217">
        <ele>116.9</ele>
        <time>2020-09-10T08:05:57Z</time>
      </trkpt>
      <trkpt lat="42.590145" lon="-8.631186">
        <ele>117.4</ele>
        <time>2020-09-10T08:05:58Z</time>
      </trkpt>
      <trkpt lat="42.590152" lon="-8.631142">
        <ele>118.0</ele>
        <time>2020-09-10T08:05:59Z</time>
      </trkpt>
      <trkpt lat="42.590148" lon="-8.631107">
        <ele>118.6</ele>
        <time>2020-09-10T08:05:59Z</time>
      </trkpt>
      <trkpt lat="42.590155" lon="-8.631072">
        <ele>119.1</ele>
        <time>2020-09-10T08:06:00Z</time>
      </trkpt>
      <trkpt lat="42.590169" lon="-8.631038">
        <ele>119.6</ele>
        <time>2020-09-10T08:06:01Z</time>
      </trkpt>
      <trkpt lat="42.590192" lon="-8.631009">
        <ele>120.0</ele>
        <time>2020-09-10T08:06:02Z</time>
      </trkpt>
      <trkpt lat="42.590213" lon="-8.630985">
        <ele>120.3</ele>
        <time>2020-09-10T08:06:02Z</time>
      </trkpt>
      <trkpt lat="42.590225" lon="-8.630950">
        <ele>120.5</ele>
        <time>2020-09-10T08:06:03Z</time>
      </trkpt>
      <trkpt lat="42.590233" lon="-8.630924">
        <ele>120.5</ele>
        <time>2020-09-10T08:06:04Z</time>
      </trkpt>
      <trkpt lat="42.590245" lon="-8.630895">
        <ele>120.7</ele>
        <time>2020-09-10T08:06:04Z</time>
      </trkpt>
      <trkpt lat="42.590275" lon="-8.630864">
        <ele>120.8</ele>
        <time>2020-09-10T08:06:05Z</time>
      </trkpt>
      <trkpt lat="42.590297" lon="-8.630831">
        <ele>121.0</ele>
        <time>2020-09-10T08:06:06Z</time>
      </trkpt>
      <trkpt lat="42.590311" lon="-8.630812">
        <ele>121.2</ele>
        <time>2020-09-10T08:06:07Z</time>
      </trkpt>
      <trkpt lat="42.590331" lon="-8.630798">
        <ele>121.3</ele>
        <time>2020-09-10T08:06:07Z</time>
      </trkpt>
      <trkpt lat="42.590350" lon="-8.630766">
        <ele>121.7</ele>
        <time>2020-09-10T08:06:08Z</time>
      </trkpt>
      <trkpt lat="42.590376" lon="-8.630725">
        <ele>122.1</ele>
        <time>2020-09-10T08:06:09Z</time>
      </trkpt>
      <trkpt lat="42.590386" lon="-8.630687">
        <ele>122.3</ele>
        <time>2020-09-10T08:06:10Z</time>
      </trkpt>
      <trkpt lat="42.590388" lon="-8.630653">
        <ele>122.5</ele>
        <time>2020-09-10T08:06:11Z</time>
      </trkpt>
      <trkpt lat="42.590395" lon="-8.630626">
        <ele>122.6</ele>
        <time>2020-09-10T08:06:11Z</time>
      </trkpt>
      <trkpt lat="42.590421" lon="-8.630582">
        <ele>123.1</ele>
        <time>2020-09-10T08:06:12Z</time>
      </trkpt>
      <trkpt lat="42.590432" lon="-8.630550">
        <ele>123.4</ele>
        <time>2020-09-10T08:06:13Z</time>
      </trkpt>
      <trkpt lat="42.590440" lon="-8.630536">
        <ele>123.6</ele>
        <time>2020-09-10T08:06:13Z</time>
      </trkpt>
      <trkpt lat="42.590441" lon="-8.630513">
        <ele>123.7</ele>
        <time>2020-09-10T08:06:14Z</time>
      </trkpt>
      <trkpt lat="42.590457" lon="-8.630475">
        <ele>124.1</ele>
        <time>2020-09-10T08:06:15Z</time>
      </trkpt>
      <trkpt lat="42.590470" lon="-8.630440">
        <ele>124.3</ele>
        <time>2020-09-10T08:06:15Z</time>
      </trkpt>
      <trkpt lat="42.590465" lon="-8.630401">
        <ele>124.6</ele>
        <time>2020-09-10T08:06:16Z</time>
      </trkpt>
      <trkpt lat="42.590463" lon="-8.630385">
        <ele>124.7</ele>
        <time>2020-09-10T08:06:17Z</time>
      </trkpt>
      <trkpt lat="42.590474" lon="-8.630368">
        <ele>124.8</ele>
        <time>2020-09-10T08:06:17Z</time>
      </trkpt>
      <trkpt lat="42.590487" lon="-8.630347">
        <ele>125.0</ele>
        <time>2020-09-10T08:06:18Z</time>
      </trkpt>
      <trkpt lat="42.590498" lon="-8.630314">
        <ele>125.3</ele>
        <time>2020-09-10T08:06:18Z</time>
      </trkpt>
      <trkpt lat="42.590506" lon="-8.630287">
        <ele>125.5</ele>
        <time>2020-09-10T08:06:19Z</time>
      </trkpt>
      <trkpt lat="42.590516" lon="-8.630257">
        <ele>125.8</ele>
        <time>2020-09-10T08:06:20Z</time>
      </trkpt>
      <trkpt lat="42.590521" lon="-8.630223">
        <ele>126.1</ele>
        <time>2020-09-10T08:06:20Z</time>
      </trkpt>
      <trkpt lat="42.590527" lon="-8.630192">
        <ele>126.4</ele>
        <time>2020-09-10T08:06:21Z</time>
      </trkpt>
      <trkpt lat="42.590543" lon="-8.630161">
        <ele>126.7</ele>
        <time>2020-09-10T08:06:22Z</time>
      </trkpt>
      <trkpt lat="42.590558" lon="-8.630119">
        <ele>127.2</ele>
        <time>2020-09-10T08:06:23Z</time>
      </trkpt>
      <trkpt lat="42.590568" lon="-8.630086">
        <ele>127.5</ele>
        <time>2020-09-10T08:06:23Z</time>
      </trkpt>
      <trkpt lat="42.590579" lon="-8.630056">
        <ele>127.9</ele>
        <time>2020-09-10T08:06:24Z</time>
      </trkpt>
      <trkpt lat="42.590582" lon="-8.630023">
        <ele>128.2</ele>
        <time>2020-09-10T08:06:25Z</time>
      </trkpt>
      <trkpt lat="42.590583" lon="-8.629972">
        <ele>128.8</ele>
        <time>2020-09-10T08:06:26Z</time>
      </trkpt>
      <trkpt lat="42.590591" lon="-8.629936">
        <ele>129.2</ele>
        <time>2020-09-10T08:06:26Z</time>
      </trkpt>
      <trkpt lat="42.590598" lon="-8.629902">
        <ele>129.6</ele>
        <time>2020-09-10T08:06:27Z</time>
      </trkpt>
      <trkpt lat="42.590612" lon="-8.629874">
        <ele>130.0</ele>
        <time>2020-09-10T08:06:28Z</time>
      </trkpt>
      <trkpt lat="42.590627" lon="-8.629844">
        <ele>130.4</ele>
        <time>2020-09-10T08:06:28Z</time>
      </trkpt>
      <trkpt lat="42.590645" lon="-8.629806">
        <ele>131.0</ele>
        <time>2020-09-10T08:06:29Z</time>
      </trkpt>
      <trkpt lat="42.590662" lon="-8.629772">
        <ele>131.4</ele>
        <time>2020-09-10T08:06:30Z</time>
      </trkpt>
      <trkpt lat="42.590678" lon="-8.629744">
        <ele>131.8</ele>
        <time>2020-09-10T08:06:31Z</time>
      </trkpt>
      <trkpt lat="42.590693" lon="-8.629711">
        <ele>132.2</ele>
        <time>2020-09-10T08:06:31Z</time>
      </trkpt>
      <trkpt lat="42.590690" lon="-8.629681">
        <ele>132.4</ele>
        <time>2020-09-10T08:06:32Z</time>
      </trkpt>
      <trkpt lat="42.590679" lon="-8.629646">
        <ele>132.5</ele>
        <time>2020-09-10T08:06:33Z</time>
      </trkpt>
      <trkpt lat="42.590662" lon="-8.629609">
        <ele>132.8</ele>
        <time>2020-09-10T08:06:34Z</time>
      </trkpt>
      <trkpt lat="42.590674" lon="-8.629576">
        <ele>133.3</ele>
        <time>2020-09-10T08:06:34Z</time>
      </trkpt>
      <trkpt lat="42.590698" lon="-8.629540">
        <ele>134.3</ele>
        <time>2020-09-10T08:06:35Z</time>
      </trkpt>
      <trkpt lat="42.590727" lon="-8.629521">
        <ele>134.9</ele>
        <time>2020-09-10T08:06:36Z</time>
      </trkpt>
      <trkpt lat="42.590753" lon="-8.629511">
        <ele>135.3</ele>
        <time>2020-09-10T08:06:37Z</time>
      </trkpt>
      <trkpt lat="42.590784" lon="-8.629497">
        <ele>135.8</ele>
        <time>2020-09-10T08:06:38Z</time>
      </trkpt>
      <trkpt lat="42.590822" lon="-8.629488">
        <ele>136.3</ele>
        <time>2020-09-10T08:06:39Z</time>
      </trkpt>
      <trkpt lat="42.590852" lon="-8.629477">
        <ele>136.7</ele>
        <time>2020-09-10T08:06:40Z</time>
      </trkpt>
      <trkpt lat="42.590872" lon="-8.629461">
        <ele>137.0</ele>
        <time>2020-09-10T08:06:40Z</time>
      </trkpt>
      <trkpt lat="42.590885" lon="-8.629446">
        <ele>137.3</ele>
        <time>2020-09-10T08:06:41Z</time>
      </trkpt>
      <trkpt lat="42.590899" lon="-8.629440">
        <ele>137.4</ele>
        <time>2020-09-10T08:06:41Z</time>
      </trkpt>
      <trkpt lat="42.590923" lon="-8.629428">
        <ele>137.8</ele>
        <time>2020-09-10T08:06:42Z</time>
      </trkpt>
      <trkpt lat="42.590942" lon="-8.629416">
        <ele>138.1</ele>
        <time>2020-09-10T08:06:42Z</time>
      </trkpt>
      <trkpt lat="42.590960" lon="-8.629406">
        <ele>138.4</ele>
        <time>2020-09-10T08:06:43Z</time>
      </trkpt>
      <trkpt lat="42.590980" lon="-8.629398">
        <ele>138.7</ele>
        <time>2020-09-10T08:06:43Z</time>
      </trkpt>
      <trkpt lat="42.590996" lon="-8.629393">
        <ele>138.9</ele>
        <time>2020-09-10T08:06:44Z</time>
      </trkpt>
      <trkpt lat="42.591007" lon="-8.629386">
        <ele>139.1</ele>
        <time>2020-09-10T08:06:44Z</time>
      </trkpt>
      <trkpt lat="42.591022" lon="-8.629380">
        <ele>139.3</ele>
        <time>2020-09-10T08:06:45Z</time>
      </trkpt>
      <trkpt lat="42.591037" lon="-8.629368">
        <ele>139.6</ele>
        <time>2020-09-10T08:06:45Z</time>
      </trkpt>
      <trkpt lat="42.591052" lon="-8.629362">
        <ele>139.8</ele>
        <time>2020-09-10T08:06:45Z</time>
      </trkpt>
      <trkpt lat="42.591068" lon="-8.629356">
        <ele>140.0</ele>
        <time>2020-09-10T08:06:46Z</time>
      </trkpt>
      <trkpt lat="42.591083" lon="-8.629348">
        <ele>140.3</ele>
        <time>2020-09-10T08:06:46Z</time>
      </trkpt>
      <trkpt lat="42.591098" lon="-8.629331">
        <ele>140.6</ele>
        <time>2020-09-10T08:06:47Z</time>
      </trkpt>
      <trkpt lat="42.591112" lon="-8.629315">
        <ele>141.0</ele>
        <time>2020-09-10T08:06:47Z</time>
      </trkpt>
      <trkpt lat="42.591125" lon="-8.629299">
        <ele>141.3</ele>
        <time>2020-09-10T08:06:48Z</time>
      </trkpt>
      <trkpt lat="42.591137" lon="-8.629282">
        <ele>141.6</ele>
        <time>2020-09-10T08:06:48Z</time>
      </trkpt>
      <trkpt lat="42.591150" lon="-8.629269">
        <ele>141.8</ele>
        <time>2020-09-10T08:06:49Z</time>
      </trkpt>
      <trkpt lat="42.591161" lon="-8.629255">
        <ele>142.0</ele>
        <time>2020-09-10T08:06:49Z</time>
      </trkpt>
      <trkpt lat="42.591167" lon="-8.629235">
        <ele>142.2</ele>
        <time>2020-09-10T08:06:50Z</time>
      </trkpt>
      <trkpt lat="42.591182" lon="-8.629209">
        <ele>142.6</ele>
        <time>2020-09-10T08:06:50Z</time>
      </trkpt>
      <trkpt lat="42.591206" lon="-8.629180">
        <ele>142.9</ele>
        <time>2020-09-10T08:06:51Z</time>
      </trkpt>
      <trkpt lat="42.591216" lon="-8.629158">
        <ele>143.2</ele>
        <time>2020-09-10T08:06:52Z</time>
      </trkpt>
      <trkpt lat="42.591226" lon="-8.629133">
        <ele>143.4</ele>
        <time>2020-09-10T08:06:52Z</time>
      </trkpt>
      <trkpt lat="42.591239" lon="-8.629105">
        <ele>143.8</ele>
        <time>2020-09-10T08:06:53Z</time>
      </trkpt>
      <trkpt lat="42.591266" lon="-8.629074">
        <ele>144.2</ele>
        <time>2020-09-10T08:06:54Z</time>
      </trkpt>
      <trkpt lat="42.591280" lon="-8.629050">
        <ele>144.5</ele>
        <time>2020-09-10T08:06:54Z</time>
      </trkpt>
      <trkpt lat="42.591290" lon="-8.629027">
        <ele>144.8</ele>
        <time>2020-09-10T08:06:55Z</time>
      </trkpt>
      <trkpt lat="42.591332" lon="-8.628983">
        <ele>145.3</ele>
        <time>2020-09-10T08:06:56Z</time>
      </trkpt>
      <trkpt lat="42.591348" lon="-8.628957">
        <ele>145.6</ele>
        <time>2020-09-10T08:06:57Z</time>
      </trkpt>
      <trkpt lat="42.591363" lon="-8.628924">
        <ele>146.0</ele>
        <time>2020-09-10T08:06:58Z</time>
      </trkpt>
      <trkpt lat="42.591375" lon="-8.628899">
        <ele>146.2</ele>
        <time>2020-09-10T08:06:58Z</time>
      </trkpt>
      <trkpt lat="42.591388" lon="-8.628878">
        <ele>146.5</ele>
        <time>2020-09-10T08:06:59Z</time>
      </trkpt>
      <trkpt lat="42.591410" lon="-8.628838">
        <ele>146.9</ele>
        <time>2020-09-10T08:07:00Z</time>
      </trkpt>
      <trkpt lat="42.591430" lon="-8.628804">
        <ele>147.3</ele>
        <time>2020-09-10T08:07:01Z</time>
      </trkpt>
      <trkpt lat="42.591440" lon="-8.628785">
        <ele>147.5</ele>
        <time>2020-09-10T08:07:01Z</time>
      </trkpt>
      <trkpt lat="42.591463" lon="-8.628776">
        <ele>147.4</ele>
        <time>2020-09-10T08:07:02Z</time>
      </trkpt>
      <trkpt lat="42.591474" lon="-8.628753">
        <ele>147.7</ele>
        <time>2020-09-10T08:07:02Z</time>
      </trkpt>
      <trkpt lat="42.591481" lon="-8.628728">
        <ele>148.1</ele>
        <time>2020-09-10T08:07:03Z</time>
      </trkpt>
      <trkpt lat="42.591503" lon="-8.628706">
        <ele>148.3</ele>
        <time>2020-09-10T08:07:04Z</time>
      </trkpt>
      <trkpt lat="42.591527" lon="-8.628680">
        <ele>148.5</ele>
        <time>2020-09-10T08:07:04Z</time>
      </trkpt>
      <trkpt lat="42.591528" lon="-8.628666">
        <ele>148.8</ele>
        <time>2020-09-10T08:07:05Z</time>
      </trkpt>
      <trkpt lat="42.591528" lon="-8.628650">
        <ele>149.1</ele>
        <time>2020-09-10T08:07:05Z</time>
      </trkpt>
      <trkpt lat="42.591524" lon="-8.628624">
        <ele>149.7</ele>
        <time>2020-09-10T08:07:05Z</time>
      </trkpt>
      <trkpt lat="42.591548" lon="-8.628590">
        <ele>150.1</ele>
        <time>2020-09-10T08:07:06Z</time>
      </trkpt>
      <trkpt lat="42.591559" lon="-8.628564">
        <ele>150.5</ele>
        <time>2020-09-10T08:07:07Z</time>
      </trkpt>
      <trkpt lat="42.591562" lon="-8.628537">
        <ele>151.0</ele>
        <time>2020-09-10T08:07:08Z</time>
      </trkpt>
      <trkpt lat="42.591559" lon="-8.628500">
        <ele>151.8</ele>
        <time>2020-09-10T08:07:08Z</time>
      </trkpt>
      <trkpt lat="42.591563" lon="-8.628468">
        <ele>152.4</ele>
        <time>2020-09-10T08:07:09Z</time>
      </trkpt>
      <trkpt lat="42.591570" lon="-8.628444">
        <ele>152.9</ele>
        <time>2020-09-10T08:07:09Z</time>
      </trkpt>
      <trkpt lat="42.591580" lon="-8.628435">
        <ele>153.0</ele>
        <time>2020-09-10T08:07:10Z</time>
      </trkpt>
      <trkpt lat="42.591608" lon="-8.628417">
        <ele>152.9</ele>
        <time>2020-09-10T08:07:11Z</time>
      </trkpt>
      <trkpt lat="42.591603" lon="-8.628398">
        <ele>153.4</ele>
        <time>2020-09-10T08:07:11Z</time>
      </trkpt>
      <trkpt lat="42.591607" lon="-8.628373">
        <ele>153.8</ele>
        <time>2020-09-10T08:07:11Z</time>
      </trkpt>
      <trkpt lat="42.591608" lon="-8.628346">
        <ele>154.3</ele>
        <time>2020-09-10T08:07:12Z</time>
      </trkpt>
      <trkpt lat="42.591599" lon="-8.628315">
        <ele>155.0</ele>
        <time>2020-09-10T08:07:13Z</time>
      </trkpt>
      <trkpt lat="42.591604" lon="-8.628295">
        <ele>155.3</ele>
        <time>2020-09-10T08:07:13Z</time>
      </trkpt>
      <trkpt lat="42.591606" lon="-8.628278">
        <ele>155.6</ele>
        <time>2020-09-10T08:07:13Z</time>
      </trkpt>
      <trkpt lat="42.591609" lon="-8.628262">
        <ele>155.8</ele>
        <time>2020-09-10T08:07:14Z</time>
      </trkpt>
      <trkpt lat="42.591614" lon="-8.628243">
        <ele>156.1</ele>
        <time>2020-09-10T08:07:14Z</time>
      </trkpt>
      <trkpt lat="42.591617" lon="-8.628221">
        <ele>156.5</ele>
        <time>2020-09-10T08:07:15Z</time>
      </trkpt>
      <trkpt lat="42.591621" lon="-8.628203">
        <ele>156.8</ele>
        <time>2020-09-10T08:07:15Z</time>
      </trkpt>
      <trkpt lat="42.591628" lon="-8.628182">
        <ele>157.1</ele>
        <time>2020-09-10T08:07:15Z</time>
      </trkpt>
      <trkpt lat="42.591630" lon="-8.628162">
        <ele>157.5</ele>
        <time>2020-09-10T08:07:16Z</time>
      </trkpt>
      <trkpt lat="42.591634" lon="-8.628138">
        <ele>158.0</ele>
        <time>2020-09-10T08:07:16Z</time>
      </trkpt>
      <trkpt lat="42.591643" lon="-8.628114">
        <ele>158.4</ele>
        <time>2020-09-10T08:07:17Z</time>
      </trkpt>
      <trkpt lat="42.591658" lon="-8.628088">
        <ele>158.8</ele>
        <time>2020-09-10T08:07:17Z</time>
      </trkpt>
      <trkpt lat="42.591664" lon="-8.628071">
        <ele>159.1</ele>
        <time>2020-09-10T08:07:18Z</time>
      </trkpt>
      <trkpt lat="42.591665" lon="-8.628054">
        <ele>159.5</ele>
        <time>2020-09-10T08:07:18Z</time>
      </trkpt>
      <trkpt lat="42.591675" lon="-8.628020">
        <ele>160.1</ele>
        <time>2020-09-10T08:07:19Z</time>
      </trkpt>
      <trkpt lat="42.591685" lon="-8.627987">
        <ele>160.7</ele>
        <time>2020-09-10T08:07:20Z</time>
      </trkpt>
      <trkpt lat="42.591692" lon="-8.627955">
        <ele>161.3</ele>
        <time>2020-09-10T08:07:20Z</time>
      </trkpt>
      <trkpt lat="42.591706" lon="-8.627928">
        <ele>161.7</ele>
        <time>2020-09-10T08:07:21Z</time>
      </trkpt>
      <trkpt lat="42.591722" lon="-8.627902">
        <ele>162.0</ele>
        <time>2020-09-10T08:07:21Z</time>
      </trkpt>
      <trkpt lat="42.591740" lon="-8.627877">
        <ele>162.3</ele>
        <time>2020-09-10T08:07:22Z</time>
      </trkpt>
      <trkpt lat="42.591758" lon="-8.627852">
        <ele>162.6</ele>
        <time>2020-09-10T08:07:23Z</time>
      </trkpt>
      <trkpt lat="42.591772" lon="-8.627831">
        <ele>162.9</ele>
        <time>2020-09-10T08:07:23Z</time>
      </trkpt>
      <trkpt lat="42.591789" lon="-8.627817">
        <ele>163.0</ele>
        <time>2020-09-10T08:07:24Z</time>
      </trkpt>
      <trkpt lat="42.591811" lon="-8.627808">
        <ele>163.0</ele>
        <time>2020-09-10T08:07:25Z</time>
      </trkpt>
      <trkpt lat="42.591830" lon="-8.627798">
        <ele>163.0</ele>
        <time>2020-09-10T08:07:25Z</time>
      </trkpt>
      <trkpt lat="42.591847" lon="-8.627788">
        <ele>163.2</ele>
        <time>2020-09-10T08:07:26Z</time>
      </trkpt>
      <trkpt lat="42.591867" lon="-8.627776">
        <ele>163.4</ele>
        <time>2020-09-10T08:07:26Z</time>
      </trkpt>
      <trkpt lat="42.591892" lon="-8.627768">
        <ele>163.5</ele>
        <time>2020-09-10T08:07:27Z</time>
      </trkpt>
      <trkpt lat="42.591912" lon="-8.627765">
        <ele>163.5</ele>
        <time>2020-09-10T08:07:27Z</time>
      </trkpt>
      <trkpt lat="42.591930" lon="-8.627760">
        <ele>163.6</ele>
        <time>2020-09-10T08:07:28Z</time>
      </trkpt>
      <trkpt lat="42.591947" lon="-8.627751">
        <ele>163.8</ele>
        <time>2020-09-10T08:07:28Z</time>
      </trkpt>
      <trkpt lat="42.591966" lon="-8.627745">
        <ele>163.9</ele>
        <time>2020-09-10T08:07:29Z</time>
      </trkpt>
      <trkpt lat="42.591988" lon="-8.627739">
        <ele>164.0</ele>
        <time>2020-09-10T08:07:30Z</time>
      </trkpt>
      <trkpt lat="42.592011" lon="-8.627730">
        <ele>164.1</ele>
        <time>2020-09-10T08:07:30Z</time>
      </trkpt>
      <trkpt lat="42.592035" lon="-8.627723">
        <ele>164.3</ele>
        <time>2020-09-10T08:07:31Z</time>
      </trkpt>
      <trkpt lat="42.592059" lon="-8.627715">
        <ele>164.4</ele>
        <time>2020-09-10T08:07:31Z</time>
      </trkpt>
      <trkpt lat="42.592082" lon="-8.627702">
        <ele>164.6</ele>
        <time>2020-09-10T08:07:32Z</time>
      </trkpt>
      <trkpt lat="42.592105" lon="-8.627684">
        <ele>165.0</ele>
        <time>2020-09-10T08:07:33Z</time>
      </trkpt>
      <trkpt lat="42.592125" lon="-8.627663">
        <ele>165.4</ele>
        <time>2020-09-10T08:07:33Z</time>
      </trkpt>
      <trkpt lat="42.592147" lon="-8.627649">
        <ele>165.8</ele>
        <time>2020-09-10T08:07:34Z</time>
      </trkpt>
      <trkpt lat="42.592167" lon="-8.627634">
        <ele>166.1</ele>
        <time>2020-09-10T08:07:35Z</time>
      </trkpt>
      <trkpt lat="42.592186" lon="-8.627618">
        <ele>166.5</ele>
        <time>2020-09-10T08:07:35Z</time>
      </trkpt>
      <trkpt lat="42.592204" lon="-8.627598">
        <ele>167.1</ele>
        <time>2020-09-10T08:07:36Z</time>
      </trkpt>
      <trkpt lat="42.592232" lon="-8.627579">
        <ele>167.6</ele>
        <time>2020-09-10T08:07:37Z</time>
      </trkpt>
      <trkpt lat="42.592265" lon="-8.627562">
        <ele>168.1</ele>
        <time>2020-09-10T08:07:38Z</time>
      </trkpt>
      <trkpt lat="42.592303" lon="-8.627548">
        <ele>168.4</ele>
        <time>2020-09-10T08:07:39Z</time>
      </trkpt>
      <trkpt lat="42.592337" lon="-8.627536">
        <ele>168.4</ele>
        <time>2020-09-10T08:07:40Z</time>
      </trkpt>
      <trkpt lat="42.592367" lon="-8.627523">
        <ele>168.4</ele>
        <time>2020-09-10T08:07:41Z</time>
      </trkpt>
      <trkpt lat="42.592403" lon="-8.627509">
        <ele>168.4</ele>
        <time>2020-09-10T08:07:42Z</time>
      </trkpt>
      <trkpt lat="42.592433" lon="-8.627498">
        <ele>168.4</ele>
        <time>2020-09-10T08:07:42Z</time>
      </trkpt>
      <trkpt lat="42.592464" lon="-8.627486">
        <ele>168.4</ele>
        <time>2020-09-10T08:07:43Z</time>
      </trkpt>
      <trkpt lat="42.592495" lon="-8.627476">
        <ele>168.3</ele>
        <time>2020-09-10T08:07:44Z</time>
      </trkpt>
      <trkpt lat="42.592515" lon="-8.627460">
        <ele>168.5</ele>
        <time>2020-09-10T08:07:45Z</time>
      </trkpt>
      <trkpt lat="42.592529" lon="-8.627436">
        <ele>169.1</ele>
        <time>2020-09-10T08:07:45Z</time>
      </trkpt>
      <trkpt lat="42.592544" lon="-8.627411">
        <ele>169.7</ele>
        <time>2020-09-10T08:07:46Z</time>
      </trkpt>
      <trkpt lat="42.592554" lon="-8.627387">
        <ele>170.4</ele>
        <time>2020-09-10T08:07:47Z</time>
      </trkpt>
      <trkpt lat="42.592564" lon="-8.627369">
        <ele>170.8</ele>
        <time>2020-09-10T08:07:47Z</time>
      </trkpt>
      <trkpt lat="42.592582" lon="-8.627349">
        <ele>171.2</ele>
        <time>2020-09-10T08:07:48Z</time>
      </trkpt>
      <trkpt lat="42.592607" lon="-8.627329">
        <ele>171.6</ele>
        <time>2020-09-10T08:07:48Z</time>
      </trkpt>
      <trkpt lat="42.592637" lon="-8.627307">
        <ele>171.9</ele>
        <time>2020-09-10T08:07:49Z</time>
      </trkpt>
      <trkpt lat="42.592670" lon="-8.627292">
        <ele>172.0</ele>
        <time>2020-09-10T08:07:50Z</time>
      </trkpt>
      <trkpt lat="42.592703" lon="-8.627287">
        <ele>171.8</ele>
        <time>2020-09-10T08:07:51Z</time>
      </trkpt>
      <trkpt lat="42.592734" lon="-8.627283">
        <ele>171.6</ele>
        <time>2020-09-10T08:07:52Z</time>
      </trkpt>
      <trkpt lat="42.592771" lon="-8.627280">
        <ele>171.5</ele>
        <time>2020-09-10T08:07:53Z</time>
      </trkpt>
      <trkpt lat="42.592806" lon="-8.627282">
        <ele>171.6</ele>
        <time>2020-09-10T08:07:54Z</time>
      </trkpt>
      <trkpt lat="42.592839" lon="-8.627284">
        <ele>171.6</ele>
        <time>2020-09-10T08:07:55Z</time>
      </trkpt>
      <trkpt lat="42.592871" lon="-8.627285">
        <ele>171.7</ele>
        <time>2020-09-10T08:07:56Z</time>
      </trkpt>
      <trkpt lat="42.592904" lon="-8.627285">
        <ele>171.8</ele>
        <time>2020-09-10T08:07:56Z</time>
      </trkpt>
      <trkpt lat="42.592934" lon="-8.627287">
        <ele>171.8</ele>
        <time>2020-09-10T08:07:57Z</time>
      </trkpt>
      <trkpt lat="42.592954" lon="-8.627281">
        <ele>172.0</ele>
        <time>2020-09-10T08:07:58Z</time>
      </trkpt>
      <trkpt lat="42.592964" lon="-8.627261">
        <ele>172.5</ele>
        <time>2020-09-10T08:07:58Z</time>
      </trkpt>
      <trkpt lat="42.592974" lon="-8.627238">
        <ele>173.0</ele>
        <time>2020-09-10T08:07:59Z</time>
      </trkpt>
      <trkpt lat="42.592990" lon="-8.627214">
        <ele>173.7</ele>
        <time>2020-09-10T08:07:59Z</time>
      </trkpt>
      <trkpt lat="42.593008" lon="-8.627193">
        <ele>174.4</ele>
        <time>2020-09-10T08:08:00Z</time>
      </trkpt>
      <trkpt lat="42.593023" lon="-8.627176">
        <ele>174.9</ele>
        <time>2020-09-10T08:08:01Z</time>
      </trkpt>
      <trkpt lat="42.593044" lon="-8.627150">
        <ele>175.8</ele>
        <time>2020-09-10T08:08:01Z</time>
      </trkpt>
      <trkpt lat="42.593056" lon="-8.627128">
        <ele>176.4</ele>
        <time>2020-09-10T08:08:02Z</time>
      </trkpt>
      <trkpt lat="42.593070" lon="-8.627108">
        <ele>177.0</ele>
        <time>2020-09-10T08:08:02Z</time>
      </trkpt>
      <trkpt lat="42.593085" lon="-8.627088">
        <ele>177.6</ele>
        <time>2020-09-10T08:08:03Z</time>
      </trkpt>
      <trkpt lat="42.593101" lon="-8.627078">
        <ele>178.0</ele>
        <time>2020-09-10T08:08:03Z</time>
      </trkpt>
      <trkpt lat="42.593114" lon="-8.627067">
        <ele>178.4</ele>
        <time>2020-09-10T08:08:04Z</time>
      </trkpt>
      <trkpt lat="42.593122" lon="-8.627047">
        <ele>179.0</ele>
        <time>2020-09-10T08:08:04Z</time>
      </trkpt>
      <trkpt lat="42.593128" lon="-8.627039">
        <ele>179.2</ele>
        <time>2020-09-10T08:08:04Z</time>
      </trkpt>
      <trkpt lat="42.593140" lon="-8.627039">
        <ele>179.4</ele>
        <time>2020-09-10T08:08:05Z</time>
      </trkpt>
      <trkpt lat="42.593156" lon="-8.627028">
        <ele>179.8</ele>
        <time>2020-09-10T08:08:05Z</time>
      </trkpt>
      <trkpt lat="42.593177" lon="-8.627024">
        <ele>180.1</ele>
        <time>2020-09-10T08:08:06Z</time>
      </trkpt>
      <trkpt lat="42.593197" lon="-8.627019">
        <ele>180.5</ele>
        <time>2020-09-10T08:08:06Z</time>
      </trkpt>
      <trkpt lat="42.593217" lon="-8.626984">
        <ele>181.4</ele>
        <time>2020-09-10T08:08:07Z</time>
      </trkpt>
      <trkpt lat="42.593239" lon="-8.626976">
        <ele>181.6</ele>
        <time>2020-09-10T08:08:08Z</time>
      </trkpt>
      <trkpt lat="42.593265" lon="-8.626966">
        <ele>181.8</ele>
        <time>2020-09-10T08:08:09Z</time>
      </trkpt>
      <trkpt lat="42.593281" lon="-8.626950">
        <ele>182.2</ele>
        <time>2020-09-10T08:08:09Z</time>
      </trkpt>
      <trkpt lat="42.593324" lon="-8.626928">
        <ele>182.7</ele>
        <time>2020-09-10T08:08:10Z</time>
      </trkpt>
      <trkpt lat="42.593351" lon="-8.626916">
        <ele>183.0</ele>
        <time>2020-09-10T08:08:11Z</time>
      </trkpt>
      <trkpt lat="42.593374" lon="-8.626889">
        <ele>183.6</ele>
        <time>2020-09-10T08:08:12Z</time>
      </trkpt>
      <trkpt lat="42.593396" lon="-8.626872">
        <ele>184.0</ele>
        <time>2020-09-10T08:08:13Z</time>
      </trkpt>
      <trkpt lat="42.593410" lon="-8.626859">
        <ele>184.3</ele>
        <time>2020-09-10T08:08:13Z</time>
      </trkpt>
      <trkpt lat="42.593422" lon="-8.626849">
        <ele>184.5</ele>
        <time>2020-09-10T08:08:13Z</time>
      </trkpt>
      <trkpt lat="42.593446" lon="-8.626841">
        <ele>184.7</ele>
        <time>2020-09-10T08:08:14Z</time>
      </trkpt>
      <trkpt lat="42.593458" lon="-8.626842">
        <ele>184.5</ele>
        <time>2020-09-10T08:08:14Z</time>
      </trkpt>
      <trkpt lat="42.593470" lon="-8.626834">
        <ele>184.6</ele>
        <time>2020-09-10T08:08:15Z</time>
      </trkpt>
      <trkpt lat="42.593479" lon="-8.626815">
        <ele>184.9</ele>
        <time>2020-09-10T08:08:15Z</time>
      </trkpt>
      <trkpt lat="42.593495" lon="-8.626800">
        <ele>185.2</ele>
        <time>2020-09-10T08:08:16Z</time>
      </trkpt>
      <trkpt lat="42.593506" lon="-8.626783">
        <ele>185.5</ele>
        <time>2020-09-10T08:08:16Z</time>
      </trkpt>
      <trkpt lat="42.593514" lon="-8.626771">
        <ele>185.8</ele>
        <time>2020-09-10T08:08:16Z</time>
      </trkpt>
      <trkpt lat="42.593528" lon="-8.626760">
        <ele>185.9</ele>
        <time>2020-09-10T08:08:17Z</time>
      </trkpt>
      <trkpt lat="42.593546" lon="-8.626750">
        <ele>186.1</ele>
        <time>2020-09-10T08:08:17Z</time>
      </trkpt>
      <trkpt lat="42.593561" lon="-8.626737">
        <ele>186.3</ele>
        <time>2020-09-10T08:08:18Z</time>
      </trkpt>
      <trkpt lat="42.593574" lon="-8.626722">
        <ele>186.6</ele>
        <time>2020-09-10T08:08:18Z</time>
      </trkpt>
      <trkpt lat="42.593591" lon="-8.626707">
        <ele>186.9</ele>
        <time>2020-09-10T08:08:19Z</time>
      </trkpt>
      <trkpt lat="42.593609" lon="-8.626691">
        <ele>187.2</ele>
        <time>2020-09-10T08:08:19Z</time>
      </trkpt>
      <trkpt lat="42.593628" lon="-8.626675">
        <ele>187.5</ele>
        <time>2020-09-10T08:08:20Z</time>
      </trkpt>
      <trkpt lat="42.593644" lon="-8.626658">
        <ele>187.9</ele>
        <time>2020-09-10T08:08:21Z</time>
      </trkpt>
      <trkpt lat="42.593663" lon="-8.626646">
        <ele>188.2</ele>
        <time>2020-09-10T08:08:21Z</time>
      </trkpt>
      <trkpt lat="42.593679" lon="-8.626640">
        <ele>188.2</ele>
        <time>2020-09-10T08:08:22Z</time>
      </trkpt>
      <trkpt lat="42.593697" lon="-8.626624">
        <ele>188.5</ele>
        <time>2020-09-10T08:08:22Z</time>
      </trkpt>
      <trkpt lat="42.593717" lon="-8.626604">
        <ele>188.9</ele>
        <time>2020-09-10T08:08:23Z</time>
      </trkpt>
      <trkpt lat="42.593742" lon="-8.626586">
        <ele>189.2</ele>
        <time>2020-09-10T08:08:24Z</time>
      </trkpt>
      <trkpt lat="42.593758" lon="-8.626561">
        <ele>189.8</ele>
        <time>2020-09-10T08:08:24Z</time>
      </trkpt>
      <trkpt lat="42.593770" lon="-8.626531">
        <ele>190.6</ele>
        <time>2020-09-10T08:08:25Z</time>
      </trkpt>
      <trkpt lat="42.593780" lon="-8.626503">
        <ele>191.4</ele>
        <time>2020-09-10T08:08:26Z</time>
      </trkpt>
      <trkpt lat="42.593781" lon="-8.626477">
        <ele>192.2</ele>
        <time>2020-09-10T08:08:26Z</time>
      </trkpt>
      <trkpt lat="42.593773" lon="-8.626458">
        <ele>192.8</ele>
        <time>2020-09-10T08:08:26Z</time>
      </trkpt>
      <trkpt lat="42.593756" lon="-8.626446">
        <ele>193.3</ele>
        <time>2020-09-10T08:08:27Z</time>
      </trkpt>
      <trkpt lat="42.593740" lon="-8.626440">
        <ele>193.6</ele>
        <time>2020-09-10T08:08:27Z</time>
      </trkpt>
      <trkpt lat="42.593731" lon="-8.626441">
        <ele>193.6</ele>
        <time>2020-09-10T08:08:28Z</time>
      </trkpt>
      <trkpt lat="42.593715" lon="-8.626439">
        <ele>193.8</ele>
        <time>2020-09-10T08:08:28Z</time>
      </trkpt>
      <trkpt lat="42.593701" lon="-8.626434">
        <ele>194.1</ele>
        <time>2020-09-10T08:08:28Z</time>
      </trkpt>
      <trkpt lat="42.593684" lon="-8.626425">
        <ele>194.4</ele>
        <time>2020-09-10T08:08:29Z</time>
      </trkpt>
      <trkpt lat="42.593670" lon="-8.626419">
        <ele>194.7</ele>
        <time>2020-09-10T08:08:29Z</time>
      </trkpt>
      <trkpt lat="42.593658" lon="-8.626412">
        <ele>194.9</ele>
        <time>2020-09-10T08:08:30Z</time>
      </trkpt>
      <trkpt lat="42.593643" lon="-8.626404">
        <ele>195.2</ele>
        <time>2020-09-10T08:08:30Z</time>
      </trkpt>
      <trkpt lat="42.593630" lon="-8.626398">
        <ele>195.4</ele>
        <time>2020-09-10T08:08:31Z</time>
      </trkpt>
      <trkpt lat="42.593621" lon="-8.626391">
        <ele>195.6</ele>
        <time>2020-09-10T08:08:31Z</time>
      </trkpt>
      <trkpt lat="42.593615" lon="-8.626383">
        <ele>195.8</ele>
        <time>2020-09-10T08:08:31Z</time>
      </trkpt>
      <trkpt lat="42.593607" lon="-8.626375">
        <ele>196.0</ele>
        <time>2020-09-10T08:08:31Z</time>
      </trkpt>
      <trkpt lat="42.593585" lon="-8.626356">
        <ele>196.5</ele>
        <time>2020-09-10T08:08:32Z</time>
      </trkpt>
      <trkpt lat="42.593569" lon="-8.626347">
        <ele>196.8</ele>
        <time>2020-09-10T08:08:32Z</time>
      </trkpt>
      <trkpt lat="42.593548" lon="-8.626341">
        <ele>196.9</ele>
        <time>2020-09-10T08:08:33Z</time>
      </trkpt>
      <trkpt lat="42.593528" lon="-8.626333">
        <ele>197.1</ele>
        <time>2020-09-10T08:08:34Z</time>
      </trkpt>
      <trkpt lat="42.593508" lon="-8.626326">
        <ele>197.3</ele>
        <time>2020-09-10T08:08:34Z</time>
      </trkpt>
      <trkpt lat="42.593490" lon="-8.626320">
        <ele>197.4</ele>
        <time>2020-09-10T08:08:35Z</time>
      </trkpt>
      <trkpt lat="42.593473" lon="-8.626307">
        <ele>197.7</ele>
        <time>2020-09-10T08:08:35Z</time>
      </trkpt>
      <trkpt lat="42.593441" lon="-8.626290">
        <ele>198.2</ele>
        <time>2020-09-10T08:08:36Z</time>
      </trkpt>
      <trkpt lat="42.593425" lon="-8.626278">
        <ele>198.4</ele>
        <time>2020-09-10T08:08:37Z</time>
      </trkpt>
      <trkpt lat="42.593409" lon="-8.626261">
        <ele>198.7</ele>
        <time>2020-09-10T08:08:37Z</time>
      </trkpt>
      <trkpt lat="42.593395" lon="-8.626235">
        <ele>199.2</ele>
        <time>2020-09-10T08:08:38Z</time>
      </trkpt>
      <trkpt lat="42.593393" lon="-8.626202">
        <ele>200.0</ele>
        <time>2020-09-10T08:08:38Z</time>
      </trkpt>
      <trkpt lat="42.593401" lon="-8.626187">
        <ele>200.5</ele>
        <time>2020-09-10T08:08:39Z</time>
      </trkpt>
      <trkpt lat="42.593419" lon="-8.626181">
        <ele>200.7</ele>
        <time>2020-09-10T08:08:39Z</time>
      </trkpt>
      <trkpt lat="42.593437" lon="-8.626175">
        <ele>201.0</ele>
        <time>2020-09-10T08:08:40Z</time>
      </trkpt>
      <trkpt lat="42.593465" lon="-8.626174">
        <ele>201.1</ele>
        <time>2020-09-10T08:08:40Z</time>
      </trkpt>
      <trkpt lat="42.593497" lon="-8.626178">
        <ele>201.1</ele>
        <time>2020-09-10T08:08:41Z</time>
      </trkpt>
      <trkpt lat="42.593533" lon="-8.626182">
        <ele>201.0</ele>
        <time>2020-09-10T08:08:42Z</time>
      </trkpt>
      <trkpt lat="42.593569" lon="-8.626178">
        <ele>201.1</ele>
        <time>2020-09-10T08:08:43Z</time>
      </trkpt>
      <trkpt lat="42.593602" lon="-8.626172">
        <ele>201.3</ele>
        <time>2020-09-10T08:08:44Z</time>
      </trkpt>
      <trkpt lat="42.593638" lon="-8.626167">
        <ele>201.5</ele>
        <time>2020-09-10T08:08:45Z</time>
      </trkpt>
      <trkpt lat="42.593673" lon="-8.626160">
        <ele>201.7</ele>
        <time>2020-09-10T08:08:46Z</time>
      </trkpt>
      <trkpt lat="42.593708" lon="-8.626154">
        <ele>201.7</ele>
        <time>2020-09-10T08:08:47Z</time>
      </trkpt>
      <trkpt lat="42.593746" lon="-8.626153">
        <ele>201.6</ele>
        <time>2020-09-10T08:08:48Z</time>
      </trkpt>
      <trkpt lat="42.593787" lon="-8.626148">
        <ele>201.5</ele>
        <time>2020-09-10T08:08:49Z</time>
      </trkpt>
      <trkpt lat="42.593830" lon="-8.626151">
        <ele>201.3</ele>
        <time>2020-09-10T08:08:50Z</time>
      </trkpt>
      <trkpt lat="42.593872" lon="-8.626149">
        <ele>201.2</ele>
        <time>2020-09-10T08:08:51Z</time>
      </trkpt>
      <trkpt lat="42.593912" lon="-8.626143">
        <ele>201.1</ele>
        <time>2020-09-10T08:08:52Z</time>
      </trkpt>
      <trkpt lat="42.593952" lon="-8.626138">
        <ele>201.0</ele>
        <time>2020-09-10T08:08:54Z</time>
      </trkpt>
      <trkpt lat="42.593993" lon="-8.626132">
        <ele>200.8</ele>
        <time>2020-09-10T08:08:55Z</time>
      </trkpt>
      <trkpt lat="42.594032" lon="-8.626125">
        <ele>200.7</ele>
        <time>2020-09-10T08:08:56Z</time>
      </trkpt>
      <trkpt lat="42.594073" lon="-8.626119">
        <ele>200.4</ele>
        <time>2020-09-10T08:08:57Z</time>
      </trkpt>
      <trkpt lat="42.594113" lon="-8.626112">
        <ele>200.3</ele>
        <time>2020-09-10T08:08:58Z</time>
      </trkpt>
      <trkpt lat="42.594159" lon="-8.626105">
        <ele>200.2</ele>
        <time>2020-09-10T08:08:59Z</time>
      </trkpt>
      <trkpt lat="42.594198" lon="-8.626096">
        <ele>200.3</ele>
        <time>2020-09-10T08:09:00Z</time>
      </trkpt>
      <trkpt lat="42.594258" lon="-8.626086">
        <ele>200.3</ele>
        <time>2020-09-10T08:09:02Z</time>
      </trkpt>
      <trkpt lat="42.594313" lon="-8.626087">
        <ele>200.2</ele>
        <time>2020-09-10T08:09:03Z</time>
      </trkpt>
      <trkpt lat="42.594365" lon="-8.626093">
        <ele>199.9</ele>
        <time>2020-09-10T08:09:05Z</time>
      </trkpt>
      <trkpt lat="42.594416" lon="-8.626115">
        <ele>199.8</ele>
        <time>2020-09-10T08:09:06Z</time>
      </trkpt>
      <trkpt lat="42.594471" lon="-8.626152">
        <ele>199.5</ele>
        <time>2020-09-10T08:09:08Z</time>
      </trkpt>
      <trkpt lat="42.594529" lon="-8.626197">
        <ele>199.0</ele>
        <time>2020-09-10T08:09:09Z</time>
      </trkpt>
      <trkpt lat="42.594583" lon="-8.626251">
        <ele>198.5</ele>
        <time>2020-09-10T08:09:11Z</time>
      </trkpt>
      <trkpt lat="42.594644" lon="-8.626323">
        <ele>197.9</ele>
        <time>2020-09-10T08:09:13Z</time>
      </trkpt>
      <trkpt lat="42.594704" lon="-8.626403">
        <ele>197.2</ele>
        <time>2020-09-10T08:09:16Z</time>
      </trkpt>
      <trkpt lat="42.594769" lon="-8.626488">
        <ele>196.4</ele>
        <time>2020-09-10T08:09:18Z</time>
      </trkpt>
      <trkpt lat="42.594835" lon="-8.626574">
        <ele>195.5</ele>
        <time>2020-09-10T08:09:20Z</time>
      </trkpt>
      <trkpt lat="42.594902" lon="-8.626657">
        <ele>194.9</ele>
        <time>2020-09-10T08:09:23Z</time>
      </trkpt>
      <trkpt lat="42.594976" lon="-8.626738">
        <ele>194.3</ele>
        <time>2020-09-10T08:09:25Z</time>
      </trkpt>
      <trkpt lat="42.595050" lon="-8.626812">
        <ele>193.7</ele>
        <time>2020-09-10T08:09:28Z</time>
      </trkpt>
      <trkpt lat="42.595117" lon="-8.626869">
        <ele>193.1</ele>
        <time>2020-09-10T08:09:30Z</time>
      </trkpt>
      <trkpt lat="42.595183" lon="-8.626922">
        <ele>192.6</ele>
        <time>2020-09-10T08:09:32Z</time>
      </trkpt>
      <trkpt lat="42.595245" lon="-8.626975">
        <ele>191.9</ele>
        <time>2020-09-10T08:09:34Z</time>
      </trkpt>
      <trkpt lat="42.595304" lon="-8.627040">
        <ele>191.3</ele>
        <time>2020-09-10T08:09:36Z</time>
      </trkpt>
      <trkpt lat="42.595348" lon="-8.627132">
        <ele>190.5</ele>
        <time>2020-09-10T08:09:38Z</time>
      </trkpt>
      <trkpt lat="42.595374" lon="-8.627241">
        <ele>189.2</ele>
        <time>2020-09-10T08:09:40Z</time>
      </trkpt>
      <trkpt lat="42.595390" lon="-8.627333">
        <ele>188.2</ele>
        <time>2020-09-10T08:09:42Z</time>
      </trkpt>
      <trkpt lat="42.595398" lon="-8.627470">
        <ele>186.5</ele>
        <time>2020-09-10T08:09:45Z</time>
      </trkpt>
      <trkpt lat="42.595394" lon="-8.627581">
        <ele>184.8</ele>
        <time>2020-09-10T08:09:47Z</time>
      </trkpt>
      <trkpt lat="42.595392" lon="-8.627700">
        <ele>183.0</ele>
        <time>2020-09-10T08:09:49Z</time>
      </trkpt>
      <trkpt lat="42.595389" lon="-8.627793">
        <ele>181.6</ele>
        <time>2020-09-10T08:09:51Z</time>
      </trkpt>
      <trkpt lat="42.595370" lon="-8.627930">
        <ele>179.2</ele>
        <time>2020-09-10T08:09:54Z</time>
      </trkpt>
      <trkpt lat="42.595352" lon="-8.628039">
        <ele>177.4</ele>
        <time>2020-09-10T08:09:56Z</time>
      </trkpt>
      <trkpt lat="42.595337" lon="-8.628158">
        <ele>176.1</ele>
        <time>2020-09-10T08:09:59Z</time>
      </trkpt>
      <trkpt lat="42.595318" lon="-8.628270">
        <ele>174.7</ele>
        <time>2020-09-10T08:10:01Z</time>
      </trkpt>
      <trkpt lat="42.595290" lon="-8.628373">
        <ele>173.3</ele>
        <time>2020-09-10T08:10:03Z</time>
      </trkpt>
      <trkpt lat="42.595274" lon="-8.628479">
        <ele>171.8</ele>
        <time>2020-09-10T08:10:05Z</time>
      </trkpt>
      <trkpt lat="42.595277" lon="-8.628580">
        <ele>170.3</ele>
        <time>2020-09-10T08:10:07Z</time>
      </trkpt>
      <trkpt lat="42.595296" lon="-8.628667">
        <ele>169.4</ele>
        <time>2020-09-10T08:10:09Z</time>
      </trkpt>
      <trkpt lat="42.595333" lon="-8.628742">
        <ele>168.8</ele>
        <time>2020-09-10T08:10:11Z</time>
      </trkpt>
      <trkpt lat="42.595382" lon="-8.628797">
        <ele>168.8</ele>
        <time>2020-09-10T08:10:12Z</time>
      </trkpt>
      <trkpt lat="42.595441" lon="-8.628850">
        <ele>168.9</ele>
        <time>2020-09-10T08:10:14Z</time>
      </trkpt>
      <trkpt lat="42.595505" lon="-8.628909">
        <ele>168.8</ele>
        <time>2020-09-10T08:10:16Z</time>
      </trkpt>
      <trkpt lat="42.595569" lon="-8.628966">
        <ele>168.3</ele>
        <time>2020-09-10T08:10:18Z</time>
      </trkpt>
      <trkpt lat="42.595634" lon="-8.629028">
        <ele>167.7</ele>
        <time>2020-09-10T08:10:21Z</time>
      </trkpt>
      <trkpt lat="42.595700" lon="-8.629099">
        <ele>166.9</ele>
        <time>2020-09-10T08:10:23Z</time>
      </trkpt>
      <trkpt lat="42.595762" lon="-8.629190">
        <ele>165.9</ele>
        <time>2020-09-10T08:10:25Z</time>
      </trkpt>
      <trkpt lat="42.595809" lon="-8.629281">
        <ele>164.8</ele>
        <time>2020-09-10T08:10:27Z</time>
      </trkpt>
      <trkpt lat="42.595855" lon="-8.629372">
        <ele>163.9</ele>
        <time>2020-09-10T08:10:30Z</time>
      </trkpt>
      <trkpt lat="42.595867" lon="-8.629491">
        <ele>162.9</ele>
        <time>2020-09-10T08:10:32Z</time>
      </trkpt>
      <trkpt lat="42.595836" lon="-8.629599">
        <ele>161.5</ele>
        <time>2020-09-10T08:10:34Z</time>
      </trkpt>
      <trkpt lat="42.595780" lon="-8.629701">
        <ele>160.5</ele>
        <time>2020-09-10T08:10:37Z</time>
      </trkpt>
      <trkpt lat="42.595721" lon="-8.629805">
        <ele>159.6</ele>
        <time>2020-09-10T08:10:39Z</time>
      </trkpt>
      <trkpt lat="42.595649" lon="-8.629883">
        <ele>158.7</ele>
        <time>2020-09-10T08:10:42Z</time>
      </trkpt>
      <trkpt lat="42.595563" lon="-8.629939">
        <ele>157.7</ele>
        <time>2020-09-10T08:10:44Z</time>
      </trkpt>
      <trkpt lat="42.595480" lon="-8.629987">
        <ele>156.7</ele>
        <time>2020-09-10T08:10:47Z</time>
      </trkpt>
      <trkpt lat="42.595396" lon="-8.630027">
        <ele>155.5</ele>
        <time>2020-09-10T08:10:49Z</time>
      </trkpt>
      <trkpt lat="42.595316" lon="-8.630058">
        <ele>154.4</ele>
        <time>2020-09-10T08:10:51Z</time>
      </trkpt>
      <trkpt lat="42.595254" lon="-8.630081">
        <ele>153.4</ele>
        <time>2020-09-10T08:10:53Z</time>
      </trkpt>
      <trkpt lat="42.595178" lon="-8.630120">
        <ele>152.3</ele>
        <time>2020-09-10T08:10:55Z</time>
      </trkpt>
      <trkpt lat="42.595103" lon="-8.630172">
        <ele>151.2</ele>
        <time>2020-09-10T08:10:57Z</time>
      </trkpt>
      <trkpt lat="42.595030" lon="-8.630233">
        <ele>150.2</ele>
        <time>2020-09-10T08:11:00Z</time>
      </trkpt>
      <trkpt lat="42.594952" lon="-8.630317">
        <ele>148.7</ele>
        <time>2020-09-10T08:11:02Z</time>
      </trkpt>
      <trkpt lat="42.594897" lon="-8.630401">
        <ele>147.3</ele>
        <time>2020-09-10T08:11:05Z</time>
      </trkpt>
      <trkpt lat="42.594870" lon="-8.630478">
        <ele>146.5</ele>
        <time>2020-09-10T08:11:06Z</time>
      </trkpt>
      <trkpt lat="42.594856" lon="-8.630589">
        <ele>145.3</ele>
        <time>2020-09-10T08:11:08Z</time>
      </trkpt>
      <trkpt lat="42.594870" lon="-8.630702">
        <ele>144.4</ele>
        <time>2020-09-10T08:11:11Z</time>
      </trkpt>
      <trkpt lat="42.594894" lon="-8.630806">
        <ele>143.7</ele>
        <time>2020-09-10T08:11:13Z</time>
      </trkpt>
      <trkpt lat="42.594935" lon="-8.630927">
        <ele>143.1</ele>
        <time>2020-09-10T08:11:15Z</time>
      </trkpt>
      <trkpt lat="42.594970" lon="-8.631003">
        <ele>142.9</ele>
        <time>2020-09-10T08:11:17Z</time>
      </trkpt>
      <trkpt lat="42.595019" lon="-8.631085">
        <ele>142.5</ele>
        <time>2020-09-10T08:11:19Z</time>
      </trkpt>
      <trkpt lat="42.595081" lon="-8.631147">
        <ele>142.4</ele>
        <time>2020-09-10T08:11:21Z</time>
      </trkpt>
      <trkpt lat="42.595165" lon="-8.631196">
        <ele>142.4</ele>
        <time>2020-09-10T08:11:24Z</time>
      </trkpt>
      <trkpt lat="42.595223" lon="-8.631223">
        <ele>142.6</ele>
        <time>2020-09-10T08:11:25Z</time>
      </trkpt>
      <trkpt lat="42.595284" lon="-8.631267">
        <ele>142.5</ele>
        <time>2020-09-10T08:11:27Z</time>
      </trkpt>
      <trkpt lat="42.595333" lon="-8.631329">
        <ele>141.6</ele>
        <time>2020-09-10T08:11:29Z</time>
      </trkpt>
      <trkpt lat="42.595368" lon="-8.631424">
        <ele>140.2</ele>
        <time>2020-09-10T08:11:31Z</time>
      </trkpt>
      <trkpt lat="42.595374" lon="-8.631495">
        <ele>139.5</ele>
        <time>2020-09-10T08:11:33Z</time>
      </trkpt>
      <trkpt lat="42.595367" lon="-8.631601">
        <ele>138.4</ele>
        <time>2020-09-10T08:11:35Z</time>
      </trkpt>
      <trkpt lat="42.595364" lon="-8.631669">
        <ele>137.8</ele>
        <time>2020-09-10T08:11:36Z</time>
      </trkpt>
      <trkpt lat="42.595362" lon="-8.631738">
        <ele>137.4</ele>
        <time>2020-09-10T08:11:37Z</time>
      </trkpt>
      <trkpt lat="42.595363" lon="-8.631784">
        <ele>137.1</ele>
        <time>2020-09-10T08:11:38Z</time>
      </trkpt>
      <trkpt lat="42.595378" lon="-8.631813">
        <ele>137.1</ele>
        <time>2020-09-10T08:11:39Z</time>
      </trkpt>
      <trkpt lat="42.595404" lon="-8.631824">
        <ele>137.2</ele>
        <time>2020-09-10T08:11:40Z</time>
      </trkpt>
      <trkpt lat="42.595431" lon="-8.631815">
        <ele>137.4</ele>
        <time>2020-09-10T08:11:40Z</time>
      </trkpt>
      <trkpt lat="42.595455" lon="-8.631796">
        <ele>137.7</ele>
        <time>2020-09-10T08:11:41Z</time>
      </trkpt>
      <trkpt lat="42.595487" lon="-8.631770">
        <ele>138.1</ele>
        <time>2020-09-10T08:11:42Z</time>
      </trkpt>
      <trkpt lat="42.595519" lon="-8.631746">
        <ele>138.5</ele>
        <time>2020-09-10T08:11:43Z</time>
      </trkpt>
      <trkpt lat="42.595554" lon="-8.631722">
        <ele>138.9</ele>
        <time>2020-09-10T08:11:44Z</time>
      </trkpt>
      <trkpt lat="42.595582" lon="-8.631697">
        <ele>139.2</ele>
        <time>2020-09-10T08:11:45Z</time>
      </trkpt>
      <trkpt lat="42.595623" lon="-8.631673">
        <ele>139.7</ele>
        <time>2020-09-10T08:11:46Z</time>
      </trkpt>
      <trkpt lat="42.595671" lon="-8.631641">
        <ele>140.3</ele>
        <time>2020-09-10T08:11:48Z</time>
      </trkpt>
      <trkpt lat="42.595701" lon="-8.631621">
        <ele>140.7</ele>
        <time>2020-09-10T08:11:49Z</time>
      </trkpt>
      <trkpt lat="42.595741" lon="-8.631592">
        <ele>141.2</ele>
        <time>2020-09-10T08:11:50Z</time>
      </trkpt>
      <trkpt lat="42.595768" lon="-8.631572">
        <ele>141.4</ele>
        <time>2020-09-10T08:11:51Z</time>
      </trkpt>
      <trkpt lat="42.595793" lon="-8.631525">
        <ele>141.8</ele>
        <time>2020-09-10T08:11:52Z</time>
      </trkpt>
      <trkpt lat="42.595841" lon="-8.631500">
        <ele>142.0</ele>
        <time>2020-09-10T08:11:53Z</time>
      </trkpt>
      <trkpt lat="42.595899" lon="-8.631478">
        <ele>142.1</ele>
        <time>2020-09-10T08:11:55Z</time>
      </trkpt>
      <trkpt lat="42.595936" lon="-8.631458">
        <ele>142.2</ele>
        <time>2020-09-10T08:11:56Z</time>
      </trkpt>
      <trkpt lat="42.595954" lon="-8.631439">
        <ele>142.4</ele>
        <time>2020-09-10T08:11:56Z</time>
      </trkpt>
      <trkpt lat="42.595977" lon="-8.631408">
        <ele>142.8</ele>
        <time>2020-09-10T08:11:57Z</time>
      </trkpt>
      <trkpt lat="42.595995" lon="-8.631382">
        <ele>142.9</ele>
        <time>2020-09-10T08:11:58Z</time>
      </trkpt>
      <trkpt lat="42.596031" lon="-8.631349">
        <ele>143.0</ele>
        <time>2020-09-10T08:11:59Z</time>
      </trkpt>
      <trkpt lat="42.596054" lon="-8.631325">
        <ele>143.1</ele>
        <time>2020-09-10T08:12:00Z</time>
      </trkpt>
      <trkpt lat="42.596074" lon="-8.631301">
        <ele>143.2</ele>
        <time>2020-09-10T08:12:01Z</time>
      </trkpt>
      <trkpt lat="42.596101" lon="-8.631274">
        <ele>143.4</ele>
        <time>2020-09-10T08:12:01Z</time>
      </trkpt>
      <trkpt lat="42.596135" lon="-8.631245">
        <ele>143.4</ele>
        <time>2020-09-10T08:12:03Z</time>
      </trkpt>
      <trkpt lat="42.596171" lon="-8.631214">
        <ele>143.5</ele>
        <time>2020-09-10T08:12:04Z</time>
      </trkpt>
      <trkpt lat="42.596198" lon="-8.631185">
        <ele>143.8</ele>
        <time>2020-09-10T08:12:05Z</time>
      </trkpt>
      <trkpt lat="42.596218" lon="-8.631162">
        <ele>144.1</ele>
        <time>2020-09-10T08:12:05Z</time>
      </trkpt>
      <trkpt lat="42.596251" lon="-8.631126">
        <ele>144.4</ele>
        <time>2020-09-10T08:12:06Z</time>
      </trkpt>
      <trkpt lat="42.596279" lon="-8.631101">
        <ele>144.5</ele>
        <time>2020-09-10T08:12:07Z</time>
      </trkpt>
      <trkpt lat="42.596311" lon="-8.631080">
        <ele>144.5</ele>
        <time>2020-09-10T08:12:08Z</time>
      </trkpt>
      <trkpt lat="42.596333" lon="-8.631057">
        <ele>144.7</ele>
        <time>2020-09-10T08:12:09Z</time>
      </trkpt>
      <trkpt lat="42.596343" lon="-8.631032">
        <ele>145.1</ele>
        <time>2020-09-10T08:12:10Z</time>
      </trkpt>
      <trkpt lat="42.596357" lon="-8.631002">
        <ele>145.6</ele>
        <time>2020-09-10T08:12:10Z</time>
      </trkpt>
      <trkpt lat="42.596377" lon="-8.630970">
        <ele>146.0</ele>
        <time>2020-09-10T08:12:11Z</time>
      </trkpt>
      <trkpt lat="42.596397" lon="-8.630944">
        <ele>146.5</ele>
        <time>2020-09-10T08:12:12Z</time>
      </trkpt>
      <trkpt lat="42.596416" lon="-8.630921">
        <ele>146.8</ele>
        <time>2020-09-10T08:12:12Z</time>
      </trkpt>
      <trkpt lat="42.596434" lon="-8.630901">
        <ele>147.1</ele>
        <time>2020-09-10T08:12:13Z</time>
      </trkpt>
      <trkpt lat="42.596465" lon="-8.630887">
        <ele>147.1</ele>
        <time>2020-09-10T08:12:14Z</time>
      </trkpt>
      <trkpt lat="42.596504" lon="-8.630869">
        <ele>147.2</ele>
        <time>2020-09-10T08:12:15Z</time>
      </trkpt>
      <trkpt lat="42.596548" lon="-8.630840">
        <ele>147.6</ele>
        <time>2020-09-10T08:12:16Z</time>
      </trkpt>
      <trkpt lat="42.596585" lon="-8.630826">
        <ele>147.6</ele>
        <time>2020-09-10T08:12:17Z</time>
      </trkpt>
      <trkpt lat="42.596618" lon="-8.630812">
        <ele>147.7</ele>
        <time>2020-09-10T08:12:18Z</time>
      </trkpt>
      <trkpt lat="42.596652" lon="-8.630807">
        <ele>147.6</ele>
        <time>2020-09-10T08:12:19Z</time>
      </trkpt>
      <trkpt lat="42.596699" lon="-8.630791">
        <ele>147.8</ele>
        <time>2020-09-10T08:12:21Z</time>
      </trkpt>
      <trkpt lat="42.596742" lon="-8.630781">
        <ele>148.1</ele>
        <time>2020-09-10T08:12:22Z</time>
      </trkpt>
      <trkpt lat="42.596783" lon="-8.630771">
        <ele>148.3</ele>
        <time>2020-09-10T08:12:23Z</time>
      </trkpt>
      <trkpt lat="42.596817" lon="-8.630765">
        <ele>148.4</ele>
        <time>2020-09-10T08:12:24Z</time>
      </trkpt>
      <trkpt lat="42.596852" lon="-8.630756">
        <ele>148.6</ele>
        <time>2020-09-10T08:12:25Z</time>
      </trkpt>
      <trkpt lat="42.596892" lon="-8.630749">
        <ele>148.7</ele>
        <time>2020-09-10T08:12:26Z</time>
      </trkpt>
      <trkpt lat="42.596941" lon="-8.630729">
        <ele>149.0</ele>
        <time>2020-09-10T08:12:27Z</time>
      </trkpt>
      <trkpt lat="42.596975" lon="-8.630709">
        <ele>149.2</ele>
        <time>2020-09-10T08:12:28Z</time>
      </trkpt>
      <trkpt lat="42.596998" lon="-8.630688">
        <ele>149.4</ele>
        <time>2020-09-10T08:12:29Z</time>
      </trkpt>
      <trkpt lat="42.597021" lon="-8.630660">
        <ele>149.7</ele>
        <time>2020-09-10T08:12:30Z</time>
      </trkpt>
      <trkpt lat="42.597040" lon="-8.630631">
        <ele>150.0</ele>
        <time>2020-09-10T08:12:30Z</time>
      </trkpt>
      <trkpt lat="42.597069" lon="-8.630589">
        <ele>150.3</ele>
        <time>2020-09-10T08:12:32Z</time>
      </trkpt>
      <trkpt lat="42.597092" lon="-8.630545">
        <ele>150.7</ele>
        <time>2020-09-10T08:12:33Z</time>
      </trkpt>
      <trkpt lat="42.597131" lon="-8.630511">
        <ele>150.6</ele>
        <time>2020-09-10T08:12:34Z</time>
      </trkpt>
      <trkpt lat="42.597168" lon="-8.630477">
        <ele>150.8</ele>
        <time>2020-09-10T08:12:35Z</time>
      </trkpt>
      <trkpt lat="42.597221" lon="-8.630440">
        <ele>150.9</ele>
        <time>2020-09-10T08:12:37Z</time>
      </trkpt>
      <trkpt lat="42.597263" lon="-8.630423">
        <ele>150.8</ele>
        <time>2020-09-10T08:12:38Z</time>
      </trkpt>
      <trkpt lat="42.597302" lon="-8.630431">
        <ele>150.5</ele>
        <time>2020-09-10T08:12:39Z</time>
      </trkpt>
      <trkpt lat="42.597323" lon="-8.630467">
        <ele>150.1</ele>
        <time>2020-09-10T08:12:40Z</time>
      </trkpt>
      <trkpt lat="42.597343" lon="-8.630501">
        <ele>149.8</ele>
        <time>2020-09-10T08:12:41Z</time>
      </trkpt>
      <trkpt lat="42.597351" lon="-8.630537">
        <ele>149.6</ele>
        <time>2020-09-10T08:12:41Z</time>
      </trkpt>
      <trkpt lat="42.597362" lon="-8.630569">
        <ele>149.5</ele>
        <time>2020-09-10T08:12:42Z</time>
      </trkpt>
      <trkpt lat="42.597378" lon="-8.630600">
        <ele>149.6</ele>
        <time>2020-09-10T08:12:43Z</time>
      </trkpt>
      <trkpt lat="42.597382" lon="-8.630631">
        <ele>149.6</ele>
        <time>2020-09-10T08:12:43Z</time>
      </trkpt>
      <trkpt lat="42.597386" lon="-8.630662">
        <ele>149.6</ele>
        <time>2020-09-10T08:12:44Z</time>
      </trkpt>
      <trkpt lat="42.597400" lon="-8.630700">
        <ele>149.6</ele>
        <time>2020-09-10T08:12:45Z</time>
      </trkpt>
      <trkpt lat="42.597424" lon="-8.630736">
        <ele>149.9</ele>
        <time>2020-09-10T08:12:46Z</time>
      </trkpt>
      <trkpt lat="42.597456" lon="-8.630743">
        <ele>150.3</ele>
        <time>2020-09-10T08:12:47Z</time>
      </trkpt>
      <trkpt lat="42.597486" lon="-8.630740">
        <ele>150.7</ele>
        <time>2020-09-10T08:12:47Z</time>
      </trkpt>
      <trkpt lat="42.597522" lon="-8.630739">
        <ele>151.2</ele>
        <time>2020-09-10T08:12:48Z</time>
      </trkpt>
      <trkpt lat="42.597567" lon="-8.630721">
        <ele>151.8</ele>
        <time>2020-09-10T08:12:50Z</time>
      </trkpt>
      <trkpt lat="42.597616" lon="-8.630721">
        <ele>152.3</ele>
        <time>2020-09-10T08:12:51Z</time>
      </trkpt>
      <trkpt lat="42.597639" lon="-8.630717">
        <ele>152.6</ele>
        <time>2020-09-10T08:12:52Z</time>
      </trkpt>
      <trkpt lat="42.597674" lon="-8.630715">
        <ele>152.9</ele>
        <time>2020-09-10T08:12:53Z</time>
      </trkpt>
      <trkpt lat="42.597695" lon="-8.630709">
        <ele>153.1</ele>
        <time>2020-09-10T08:12:53Z</time>
      </trkpt>
      <trkpt lat="42.597716" lon="-8.630686">
        <ele>153.4</ele>
        <time>2020-09-10T08:12:54Z</time>
      </trkpt>
      <trkpt lat="42.597748" lon="-8.630656">
        <ele>153.8</ele>
        <time>2020-09-10T08:12:55Z</time>
      </trkpt>
      <trkpt lat="42.597766" lon="-8.630629">
        <ele>154.1</ele>
        <time>2020-09-10T08:12:56Z</time>
      </trkpt>
      <trkpt lat="42.597788" lon="-8.630601">
        <ele>154.4</ele>
        <time>2020-09-10T08:12:56Z</time>
      </trkpt>
      <trkpt lat="42.597805" lon="-8.630583">
        <ele>154.7</ele>
        <time>2020-09-10T08:12:57Z</time>
      </trkpt>
      <trkpt lat="42.597829" lon="-8.630559">
        <ele>155.0</ele>
        <time>2020-09-10T08:12:58Z</time>
      </trkpt>
      <trkpt lat="42.597851" lon="-8.630523">
        <ele>155.1</ele>
        <time>2020-09-10T08:12:59Z</time>
      </trkpt>
      <trkpt lat="42.597860" lon="-8.630483">
        <ele>155.3</ele>
        <time>2020-09-10T08:13:00Z</time>
      </trkpt>
      <trkpt lat="42.597877" lon="-8.630452">
        <ele>155.4</ele>
        <time>2020-09-10T08:13:00Z</time>
      </trkpt>
      <trkpt lat="42.597899" lon="-8.630422">
        <ele>155.6</ele>
        <time>2020-09-10T08:13:01Z</time>
      </trkpt>
      <trkpt lat="42.597926" lon="-8.630394">
        <ele>155.7</ele>
        <time>2020-09-10T08:13:02Z</time>
      </trkpt>
      <trkpt lat="42.597948" lon="-8.630358">
        <ele>155.9</ele>
        <time>2020-09-10T08:13:03Z</time>
      </trkpt>
      <trkpt lat="42.597964" lon="-8.630329">
        <ele>156.0</ele>
        <time>2020-09-10T08:13:04Z</time>
      </trkpt>
      <trkpt lat="42.597965" lon="-8.630293">
        <ele>156.2</ele>
        <time>2020-09-10T08:13:04Z</time>
      </trkpt>
      <trkpt lat="42.597958" lon="-8.630267">
        <ele>156.4</ele>
        <time>2020-09-10T08:13:05Z</time>
      </trkpt>
      <trkpt lat="42.597948" lon="-8.630238">
        <ele>156.6</ele>
        <time>2020-09-10T08:13:06Z</time>
      </trkpt>
      <trkpt lat="42.597933" lon="-8.630206">
        <ele>156.7</ele>
        <time>2020-09-10T08:13:06Z</time>
      </trkpt>
      <trkpt lat="42.597915" lon="-8.630177">
        <ele>156.8</ele>
        <time>2020-09-10T08:13:07Z</time>
      </trkpt>
      <trkpt lat="42.597901" lon="-8.630149">
        <ele>156.9</ele>
        <time>2020-09-10T08:13:08Z</time>
      </trkpt>
      <trkpt lat="42.597890" lon="-8.630115">
        <ele>157.1</ele>
        <time>2020-09-10T08:13:08Z</time>
      </trkpt>
      <trkpt lat="42.597882" lon="-8.630088">
        <ele>157.2</ele>
        <time>2020-09-10T08:13:09Z</time>
      </trkpt>
      <trkpt lat="42.597866" lon="-8.630057">
        <ele>157.2</ele>
        <time>2020-09-10T08:13:10Z</time>
      </trkpt>
      <trkpt lat="42.597851" lon="-8.630024">
        <ele>157.3</ele>
        <time>2020-09-10T08:13:10Z</time>
      </trkpt>
      <trkpt lat="42.597835" lon="-8.629979">
        <ele>157.5</ele>
        <time>2020-09-10T08:13:11Z</time>
      </trkpt>
      <trkpt lat="42.597821" lon="-8.629939">
        <ele>157.5</ele>
        <time>2020-09-10T08:13:12Z</time>
      </trkpt>
      <trkpt lat="42.597804" lon="-8.629899">
        <ele>157.5</ele>
        <time>2020-09-10T08:13:13Z</time>
      </trkpt>
      <trkpt lat="42.597794" lon="-8.629874">
        <ele>157.4</ele>
        <time>2020-09-10T08:13:14Z</time>
      </trkpt>
      <trkpt lat="42.597786" lon="-8.629840">
        <ele>157.5</ele>
        <time>2020-09-10T08:13:14Z</time>
      </trkpt>
      <trkpt lat="42.597784" lon="-8.629791">
        <ele>157.8</ele>
        <time>2020-09-10T08:13:15Z</time>
      </trkpt>
      <trkpt lat="42.597778" lon="-8.629744">
        <ele>158.2</ele>
        <time>2020-09-10T08:13:16Z</time>
      </trkpt>
      <trkpt lat="42.597773" lon="-8.629699">
        <ele>158.6</ele>
        <time>2020-09-10T08:13:17Z</time>
      </trkpt>
      <trkpt lat="42.597769" lon="-8.629657">
        <ele>158.9</ele>
        <time>2020-09-10T08:13:18Z</time>
      </trkpt>
      <trkpt lat="42.597761" lon="-8.629600">
        <ele>159.4</ele>
        <time>2020-09-10T08:13:19Z</time>
      </trkpt>
      <trkpt lat="42.597754" lon="-8.629549">
        <ele>159.8</ele>
        <time>2020-09-10T08:13:20Z</time>
      </trkpt>
      <trkpt lat="42.597743" lon="-8.629499">
        <ele>160.2</ele>
        <time>2020-09-10T08:13:21Z</time>
      </trkpt>
      <trkpt lat="42.597739" lon="-8.629461">
        <ele>160.5</ele>
        <time>2020-09-10T08:13:22Z</time>
      </trkpt>
      <trkpt lat="42.597739" lon="-8.629417">
        <ele>161.0</ele>
        <time>2020-09-10T08:13:23Z</time>
      </trkpt>
      <trkpt lat="42.597739" lon="-8.629377">
        <ele>161.4</ele>
        <time>2020-09-10T08:13:24Z</time>
      </trkpt>
      <trkpt lat="42.597737" lon="-8.629327">
        <ele>161.9</ele>
        <time>2020-09-10T08:13:25Z</time>
      </trkpt>
      <trkpt lat="42.597739" lon="-8.629290">
        <ele>162.3</ele>
        <time>2020-09-10T08:13:25Z</time>
      </trkpt>
      <trkpt lat="42.597742" lon="-8.629244">
        <ele>162.8</ele>
        <time>2020-09-10T08:13:26Z</time>
      </trkpt>
      <trkpt lat="42.597745" lon="-8.629191">
        <ele>163.4</ele>
        <time>2020-09-10T08:13:27Z</time>
      </trkpt>
      <trkpt lat="42.597771" lon="-8.629157">
        <ele>164.2</ele>
        <time>2020-09-10T08:13:28Z</time>
      </trkpt>
      <trkpt lat="42.597786" lon="-8.629117">
        <ele>164.9</ele>
        <time>2020-09-10T08:13:29Z</time>
      </trkpt>
      <trkpt lat="42.597785" lon="-8.629075">
        <ele>165.2</ele>
        <time>2020-09-10T08:13:30Z</time>
      </trkpt>
      <trkpt lat="42.597794" lon="-8.629036">
        <ele>165.6</ele>
        <time>2020-09-10T08:13:31Z</time>
      </trkpt>
      <trkpt lat="42.597808" lon="-8.628994">
        <ele>166.1</ele>
        <time>2020-09-10T08:13:32Z</time>
      </trkpt>
      <trkpt lat="42.597821" lon="-8.628949">
        <ele>166.7</ele>
        <time>2020-09-10T08:13:33Z</time>
      </trkpt>
      <trkpt lat="42.597828" lon="-8.628910">
        <ele>167.1</ele>
        <time>2020-09-10T08:13:33Z</time>
      </trkpt>
      <trkpt lat="42.597839" lon="-8.628873">
        <ele>167.6</ele>
        <time>2020-09-10T08:13:34Z</time>
      </trkpt>
      <trkpt lat="42.597852" lon="-8.628842">
        <ele>168.2</ele>
        <time>2020-09-10T08:13:35Z</time>
      </trkpt>
      <trkpt lat="42.597859" lon="-8.628802">
        <ele>168.6</ele>
        <time>2020-09-10T08:13:36Z</time>
      </trkpt>
      <trkpt lat="42.597868" lon="-8.628776">
        <ele>169.0</ele>
        <time>2020-09-10T08:13:36Z</time>
      </trkpt>
      <trkpt lat="42.597872" lon="-8.628738">
        <ele>169.3</ele>
        <time>2020-09-10T08:13:37Z</time>
      </trkpt>
      <trkpt lat="42.597875" lon="-8.628700">
        <ele>169.6</ele>
        <time>2020-09-10T08:13:38Z</time>
      </trkpt>
      <trkpt lat="42.597880" lon="-8.628665">
        <ele>169.9</ele>
        <time>2020-09-10T08:13:39Z</time>
      </trkpt>
      <trkpt lat="42.597901" lon="-8.628628">
        <ele>170.7</ele>
        <time>2020-09-10T08:13:39Z</time>
      </trkpt>
      <trkpt lat="42.597910" lon="-8.628588">
        <ele>171.2</ele>
        <time>2020-09-10T08:13:40Z</time>
      </trkpt>
      <trkpt lat="42.597902" lon="-8.628550">
        <ele>171.3</ele>
        <time>2020-09-10T08:13:41Z</time>
      </trkpt>
      <trkpt lat="42.597906" lon="-8.628523">
        <ele>171.5</ele>
        <time>2020-09-10T08:13:42Z</time>
      </trkpt>
      <trkpt lat="42.597908" lon="-8.628504">
        <ele>171.7</ele>
        <time>2020-09-10T08:13:42Z</time>
      </trkpt>
      <trkpt lat="42.597912" lon="-8.628479">
        <ele>171.9</ele>
        <time>2020-09-10T08:13:42Z</time>
      </trkpt>
      <trkpt lat="42.597914" lon="-8.628460">
        <ele>172.1</ele>
        <time>2020-09-10T08:13:43Z</time>
      </trkpt>
      <trkpt lat="42.597917" lon="-8.628439">
        <ele>172.3</ele>
        <time>2020-09-10T08:13:43Z</time>
      </trkpt>
      <trkpt lat="42.597918" lon="-8.628416">
        <ele>172.7</ele>
        <time>2020-09-10T08:13:44Z</time>
      </trkpt>
      <trkpt lat="42.597916" lon="-8.628391">
        <ele>173.0</ele>
        <time>2020-09-10T08:13:44Z</time>
      </trkpt>
      <trkpt lat="42.597913" lon="-8.628360">
        <ele>173.4</ele>
        <time>2020-09-10T08:13:45Z</time>
      </trkpt>
      <trkpt lat="42.597913" lon="-8.628327">
        <ele>173.9</ele>
        <time>2020-09-10T08:13:45Z</time>
      </trkpt>
      <trkpt lat="42.597918" lon="-8.628298">
        <ele>174.5</ele>
        <time>2020-09-10T08:13:46Z</time>
      </trkpt>
      <trkpt lat="42.597924" lon="-8.628275">
        <ele>174.9</ele>
        <time>2020-09-10T08:13:47Z</time>
      </trkpt>
      <trkpt lat="42.597935" lon="-8.628250">
        <ele>175.5</ele>
        <time>2020-09-10T08:13:47Z</time>
      </trkpt>
      <trkpt lat="42.597945" lon="-8.628230">
        <ele>176.0</ele>
        <time>2020-09-10T08:13:48Z</time>
      </trkpt>
      <trkpt lat="42.597953" lon="-8.628207">
        <ele>176.5</ele>
        <time>2020-09-10T08:13:48Z</time>
      </trkpt>
      <trkpt lat="42.597964" lon="-8.628189">
        <ele>176.9</ele>
        <time>2020-09-10T08:13:49Z</time>
      </trkpt>
      <trkpt lat="42.597972" lon="-8.628166">
        <ele>177.4</ele>
        <time>2020-09-10T08:13:49Z</time>
      </trkpt>
      <trkpt lat="42.597974" lon="-8.628140">
        <ele>177.8</ele>
        <time>2020-09-10T08:13:50Z</time>
      </trkpt>
      <trkpt lat="42.597973" lon="-8.628115">
        <ele>178.1</ele>
        <time>2020-09-10T08:13:50Z</time>
      </trkpt>
      <trkpt lat="42.597968" lon="-8.628088">
        <ele>178.5</ele>
        <time>2020-09-10T08:13:51Z</time>
      </trkpt>
      <trkpt lat="42.597967" lon="-8.628065">
        <ele>178.8</ele>
        <time>2020-09-10T08:13:51Z</time>
      </trkpt>
      <trkpt lat="42.597968" lon="-8.628044">
        <ele>179.1</ele>
        <time>2020-09-10T08:13:51Z</time>
      </trkpt>
      <trkpt lat="42.597967" lon="-8.628020">
        <ele>179.4</ele>
        <time>2020-09-10T08:13:52Z</time>
      </trkpt>
      <trkpt lat="42.597969" lon="-8.627997">
        <ele>179.8</ele>
        <time>2020-09-10T08:13:52Z</time>
      </trkpt>
      <trkpt lat="42.597974" lon="-8.627970">
        <ele>180.2</ele>
        <time>2020-09-10T08:13:53Z</time>
      </trkpt>
      <trkpt lat="42.597976" lon="-8.627940">
        <ele>180.8</ele>
        <time>2020-09-10T08:13:53Z</time>
      </trkpt>
      <trkpt lat="42.597981" lon="-8.627910">
        <ele>181.3</ele>
        <time>2020-09-10T08:13:54Z</time>
      </trkpt>
      <trkpt lat="42.597984" lon="-8.627886">
        <ele>181.7</ele>
        <time>2020-09-10T08:13:55Z</time>
      </trkpt>
      <trkpt lat="42.597986" lon="-8.627867">
        <ele>182.1</ele>
        <time>2020-09-10T08:13:55Z</time>
      </trkpt>
      <trkpt lat="42.597990" lon="-8.627852">
        <ele>182.3</ele>
        <time>2020-09-10T08:13:55Z</time>
      </trkpt>
      <trkpt lat="42.597992" lon="-8.627833">
        <ele>182.7</ele>
        <time>2020-09-10T08:13:56Z</time>
      </trkpt>
      <trkpt lat="42.598008" lon="-8.627813">
        <ele>183.2</ele>
        <time>2020-09-10T08:13:56Z</time>
      </trkpt>
      <trkpt lat="42.598018" lon="-8.627792">
        <ele>183.6</ele>
        <time>2020-09-10T08:13:57Z</time>
      </trkpt>
      <trkpt lat="42.598023" lon="-8.627765">
        <ele>184.1</ele>
        <time>2020-09-10T08:13:57Z</time>
      </trkpt>
      <trkpt lat="42.598028" lon="-8.627743">
        <ele>184.5</ele>
        <time>2020-09-10T08:13:58Z</time>
      </trkpt>
      <trkpt lat="42.598030" lon="-8.627720">
        <ele>185.1</ele>
        <time>2020-09-10T08:13:58Z</time>
      </trkpt>
      <trkpt lat="42.598032" lon="-8.627701">
        <ele>185.5</ele>
        <time>2020-09-10T08:13:59Z</time>
      </trkpt>
      <trkpt lat="42.598044" lon="-8.627692">
        <ele>185.8</ele>
        <time>2020-09-10T08:13:59Z</time>
      </trkpt>
      <trkpt lat="42.598068" lon="-8.627692">
        <ele>186.3</ele>
        <time>2020-09-10T08:14:00Z</time>
      </trkpt>
      <trkpt lat="42.598093" lon="-8.627691">
        <ele>186.9</ele>
        <time>2020-09-10T08:14:00Z</time>
      </trkpt>
      <trkpt lat="42.598114" lon="-8.627691">
        <ele>187.5</ele>
        <time>2020-09-10T08:14:01Z</time>
      </trkpt>
      <trkpt lat="42.598134" lon="-8.627691">
        <ele>188.0</ele>
        <time>2020-09-10T08:14:01Z</time>
      </trkpt>
      <trkpt lat="42.598150" lon="-8.627693">
        <ele>188.4</ele>
        <time>2020-09-10T08:14:02Z</time>
      </trkpt>
      <trkpt lat="42.598164" lon="-8.627696">
        <ele>188.7</ele>
        <time>2020-09-10T08:14:02Z</time>
      </trkpt>
      <trkpt lat="42.598181" lon="-8.627706">
        <ele>189.0</ele>
        <time>2020-09-10T08:14:03Z</time>
      </trkpt>
      <trkpt lat="42.598197" lon="-8.627712">
        <ele>189.3</ele>
        <time>2020-09-10T08:14:03Z</time>
      </trkpt>
      <trkpt lat="42.598210" lon="-8.627719">
        <ele>189.5</ele>
        <time>2020-09-10T08:14:03Z</time>
      </trkpt>
      <trkpt lat="42.598228" lon="-8.627725">
        <ele>189.9</ele>
        <time>2020-09-10T08:14:04Z</time>
      </trkpt>
      <trkpt lat="42.598248" lon="-8.627737">
        <ele>190.2</ele>
        <time>2020-09-10T08:14:04Z</time>
      </trkpt>
      <trkpt lat="42.598260" lon="-8.627750">
        <ele>190.4</ele>
        <time>2020-09-10T08:14:05Z</time>
      </trkpt>
      <trkpt lat="42.598270" lon="-8.627761">
        <ele>190.5</ele>
        <time>2020-09-10T08:14:05Z</time>
      </trkpt>
      <trkpt lat="42.598284" lon="-8.627772">
        <ele>190.7</ele>
        <time>2020-09-10T08:14:06Z</time>
      </trkpt>
      <trkpt lat="42.598304" lon="-8.627780">
        <ele>191.1</ele>
        <time>2020-09-10T08:14:06Z</time>
      </trkpt>
      <trkpt lat="42.598318" lon="-8.627787">
        <ele>191.3</ele>
        <time>2020-09-10T08:14:07Z</time>
      </trkpt>
      <trkpt lat="42.598334" lon="-8.627789">
        <ele>191.7</ele>
        <time>2020-09-10T08:14:07Z</time>
      </trkpt>
      <trkpt lat="42.598350" lon="-8.627791">
        <ele>192.0</ele>
        <time>2020-09-10T08:14:07Z</time>
      </trkpt>
      <trkpt lat="42.598362" lon="-8.627787">
        <ele>192.4</ele>
        <time>2020-09-10T08:14:08Z</time>
      </trkpt>
      <trkpt lat="42.598373" lon="-8.627783">
        <ele>192.7</ele>
        <time>2020-09-10T08:14:08Z</time>
      </trkpt>
      <trkpt lat="42.598383" lon="-8.627773">
        <ele>193.1</ele>
        <time>2020-09-10T08:14:08Z</time>
      </trkpt>
      <trkpt lat="42.598390" lon="-8.627756">
        <ele>193.5</ele>
        <time>2020-09-10T08:14:09Z</time>
      </trkpt>
      <trkpt lat="42.598393" lon="-8.627736">
        <ele>193.8</ele>
        <time>2020-09-10T08:14:09Z</time>
      </trkpt>
      <trkpt lat="42.598394" lon="-8.627703">
        <ele>194.3</ele>
        <time>2020-09-10T08:14:10Z</time>
      </trkpt>
      <trkpt lat="42.598394" lon="-8.627677">
        <ele>194.6</ele>
        <time>2020-09-10T08:14:10Z</time>
      </trkpt>
      <trkpt lat="42.598394" lon="-8.627652">
        <ele>194.9</ele>
        <time>2020-09-10T08:14:11Z</time>
      </trkpt>
      <trkpt lat="42.598394" lon="-8.627625">
        <ele>195.3</ele>
        <time>2020-09-10T08:14:11Z</time>
      </trkpt>
      <trkpt lat="42.598396" lon="-8.627602">
        <ele>195.6</ele>
        <time>2020-09-10T08:14:12Z</time>
      </trkpt>
      <trkpt lat="42.598401" lon="-8.627574">
        <ele>196.0</ele>
        <time>2020-09-10T08:14:12Z</time>
      </trkpt>
      <trkpt lat="42.598402" lon="-8.627539">
        <ele>196.5</ele>
        <time>2020-09-10T08:14:13Z</time>
      </trkpt>
      <trkpt lat="42.598402" lon="-8.627502">
        <ele>197.0</ele>
        <time>2020-09-10T08:14:14Z</time>
      </trkpt>
      <trkpt lat="42.598403" lon="-8.627471">
        <ele>197.4</ele>
        <time>2020-09-10T08:14:14Z</time>
      </trkpt>
      <trkpt lat="42.598409" lon="-8.627441">
        <ele>197.9</ele>
        <time>2020-09-10T08:14:15Z</time>
      </trkpt>
      <trkpt lat="42.598413" lon="-8.627411">
        <ele>198.4</ele>
        <time>2020-09-10T08:14:16Z</time>
      </trkpt>
      <trkpt lat="42.598421" lon="-8.627386">
        <ele>198.8</ele>
        <time>2020-09-10T08:14:16Z</time>
      </trkpt>
      <trkpt lat="42.598428" lon="-8.627359">
        <ele>199.2</ele>
        <time>2020-09-10T08:14:17Z</time>
      </trkpt>
      <trkpt lat="42.598438" lon="-8.627329">
        <ele>199.7</ele>
        <time>2020-09-10T08:14:17Z</time>
      </trkpt>
      <trkpt lat="42.598448" lon="-8.627306">
        <ele>200.1</ele>
        <time>2020-09-10T08:14:18Z</time>
      </trkpt>
      <trkpt lat="42.598455" lon="-8.627274">
        <ele>200.6</ele>
        <time>2020-09-10T08:14:19Z</time>
      </trkpt>
      <trkpt lat="42.598469" lon="-8.627256">
        <ele>200.9</ele>
        <time>2020-09-10T08:14:19Z</time>
      </trkpt>
      <trkpt lat="42.598485" lon="-8.627238">
        <ele>201.2</ele>
        <time>2020-09-10T08:14:20Z</time>
      </trkpt>
      <trkpt lat="42.598496" lon="-8.627210">
        <ele>201.6</ele>
        <time>2020-09-10T08:14:20Z</time>
      </trkpt>
      <trkpt lat="42.598499" lon="-8.627191">
        <ele>201.8</ele>
        <time>2020-09-10T08:14:21Z</time>
      </trkpt>
      <trkpt lat="42.598513" lon="-8.627166">
        <ele>202.1</ele>
        <time>2020-09-10T08:14:21Z</time>
      </trkpt>
      <trkpt lat="42.598528" lon="-8.627144">
        <ele>202.4</ele>
        <time>2020-09-10T08:14:22Z</time>
      </trkpt>
      <trkpt lat="42.598532" lon="-8.627124">
        <ele>202.6</ele>
        <time>2020-09-10T08:14:22Z</time>
      </trkpt>
      <trkpt lat="42.598536" lon="-8.627098">
        <ele>202.8</ele>
        <time>2020-09-10T08:14:23Z</time>
      </trkpt>
      <trkpt lat="42.598531" lon="-8.627070">
        <ele>203.0</ele>
        <time>2020-09-10T08:14:23Z</time>
      </trkpt>
      <trkpt lat="42.598532" lon="-8.627046">
        <ele>203.1</ele>
        <time>2020-09-10T08:14:24Z</time>
      </trkpt>
      <trkpt lat="42.598539" lon="-8.627022">
        <ele>203.3</ele>
        <time>2020-09-10T08:14:24Z</time>
      </trkpt>
      <trkpt lat="42.598547" lon="-8.626996">
        <ele>203.5</ele>
        <time>2020-09-10T08:14:25Z</time>
      </trkpt>
      <trkpt lat="42.598553" lon="-8.626970">
        <ele>203.6</ele>
        <time>2020-09-10T08:14:25Z</time>
      </trkpt>
      <trkpt lat="42.598566" lon="-8.626946">
        <ele>203.7</ele>
        <time>2020-09-10T08:14:26Z</time>
      </trkpt>
      <trkpt lat="42.598583" lon="-8.626926">
        <ele>203.8</ele>
        <time>2020-09-10T08:14:27Z</time>
      </trkpt>
      <trkpt lat="42.598604" lon="-8.626894">
        <ele>203.9</ele>
        <time>2020-09-10T08:14:27Z</time>
      </trkpt>
      <trkpt lat="42.598620" lon="-8.626868">
        <ele>204.0</ele>
        <time>2020-09-10T08:14:28Z</time>
      </trkpt>
      <trkpt lat="42.598643" lon="-8.626831">
        <ele>204.0</ele>
        <time>2020-09-10T08:14:29Z</time>
      </trkpt>
      <trkpt lat="42.598657" lon="-8.626800">
        <ele>204.0</ele>
        <time>2020-09-10T08:14:30Z</time>
      </trkpt>
      <trkpt lat="42.598672" lon="-8.626761">
        <ele>204.0</ele>
        <time>2020-09-10T08:14:31Z</time>
      </trkpt>
      <trkpt lat="42.598689" lon="-8.626711">
        <ele>203.9</ele>
        <time>2020-09-10T08:14:32Z</time>
      </trkpt>
      <trkpt lat="42.598697" lon="-8.626671">
        <ele>203.9</ele>
        <time>2020-09-10T08:14:33Z</time>
      </trkpt>
      <trkpt lat="42.598700" lon="-8.626619">
        <ele>203.9</ele>
        <time>2020-09-10T08:14:34Z</time>
      </trkpt>
      <trkpt lat="42.598691" lon="-8.626563">
        <ele>203.9</ele>
        <time>2020-09-10T08:14:35Z</time>
      </trkpt>
      <trkpt lat="42.598683" lon="-8.626509">
        <ele>203.9</ele>
        <time>2020-09-10T08:14:36Z</time>
      </trkpt>
      <trkpt lat="42.598666" lon="-8.626443">
        <ele>204.1</ele>
        <time>2020-09-10T08:14:37Z</time>
      </trkpt>
      <trkpt lat="42.598651" lon="-8.626384">
        <ele>204.3</ele>
        <time>2020-09-10T08:14:38Z</time>
      </trkpt>
      <trkpt lat="42.598644" lon="-8.626337">
        <ele>204.5</ele>
        <time>2020-09-10T08:14:39Z</time>
      </trkpt>
      <trkpt lat="42.598638" lon="-8.626285">
        <ele>204.7</ele>
        <time>2020-09-10T08:14:40Z</time>
      </trkpt>
      <trkpt lat="42.598628" lon="-8.626237">
        <ele>205.0</ele>
        <time>2020-09-10T08:14:41Z</time>
      </trkpt>
      <trkpt lat="42.598612" lon="-8.626185">
        <ele>205.3</ele>
        <time>2020-09-10T08:14:42Z</time>
      </trkpt>
      <trkpt lat="42.598604" lon="-8.626159">
        <ele>205.5</ele>
        <time>2020-09-10T08:14:43Z</time>
      </trkpt>
      <trkpt lat="42.598589" lon="-8.626122">
        <ele>205.8</ele>
        <time>2020-09-10T08:14:44Z</time>
      </trkpt>
      <trkpt lat="42.598578" lon="-8.626084">
        <ele>206.0</ele>
        <time>2020-09-10T08:14:45Z</time>
      </trkpt>
      <trkpt lat="42.598568" lon="-8.626045">
        <ele>206.2</ele>
        <time>2020-09-10T08:14:45Z</time>
      </trkpt>
      <trkpt lat="42.598562" lon="-8.626006">
        <ele>206.3</ele>
        <time>2020-09-10T08:14:46Z</time>
      </trkpt>
      <trkpt lat="42.598553" lon="-8.625960">
        <ele>206.5</ele>
        <time>2020-09-10T08:14:47Z</time>
      </trkpt>
      <trkpt lat="42.598541" lon="-8.625892">
        <ele>206.7</ele>
        <time>2020-09-10T08:14:49Z</time>
      </trkpt>
      <trkpt lat="42.598545" lon="-8.625836">
        <ele>206.5</ele>
        <time>2020-09-10T08:14:50Z</time>
      </trkpt>
      <trkpt lat="42.598548" lon="-8.625763">
        <ele>206.3</ele>
        <time>2020-09-10T08:14:51Z</time>
      </trkpt>
      <trkpt lat="42.598540" lon="-8.625672">
        <ele>206.1</ele>
        <time>2020-09-10T08:14:53Z</time>
      </trkpt>
      <trkpt lat="42.598545" lon="-8.625608">
        <ele>205.7</ele>
        <time>2020-09-10T08:14:54Z</time>
      </trkpt>
      <trkpt lat="42.598558" lon="-8.625519">
        <ele>205.1</ele>
        <time>2020-09-10T08:14:56Z</time>
      </trkpt>
      <trkpt lat="42.598565" lon="-8.625425">
        <ele>204.5</ele>
        <time>2020-09-10T08:14:58Z</time>
      </trkpt>
      <trkpt lat="42.598567" lon="-8.625324">
        <ele>204.2</ele>
        <time>2020-09-10T08:15:00Z</time>
      </trkpt>
      <trkpt lat="42.598565" lon="-8.625209">
        <ele>204.0</ele>
        <time>2020-09-10T08:15:02Z</time>
      </trkpt>
      <trkpt lat="42.598570" lon="-8.625109">
        <ele>203.7</ele>
        <time>2020-09-10T08:15:04Z</time>
      </trkpt>
      <trkpt lat="42.598583" lon="-8.625011">
        <ele>203.1</ele>
        <time>2020-09-10T08:15:06Z</time>
      </trkpt>
      <trkpt lat="42.598586" lon="-8.624929">
        <ele>202.8</ele>
        <time>2020-09-10T08:15:08Z</time>
      </trkpt>
      <trkpt lat="42.598589" lon="-8.624848">
        <ele>202.6</ele>
        <time>2020-09-10T08:15:09Z</time>
      </trkpt>
      <trkpt lat="42.598600" lon="-8.624751">
        <ele>202.2</ele>
        <time>2020-09-10T08:15:11Z</time>
      </trkpt>
      <trkpt lat="42.598607" lon="-8.624658">
        <ele>202.0</ele>
        <time>2020-09-10T08:15:13Z</time>
      </trkpt>
      <trkpt lat="42.598612" lon="-8.624563">
        <ele>201.9</ele>
        <time>2020-09-10T08:15:15Z</time>
      </trkpt>
      <trkpt lat="42.598612" lon="-8.624467">
        <ele>201.6</ele>
        <time>2020-09-10T08:15:17Z</time>
      </trkpt>
      <trkpt lat="42.598604" lon="-8.624376">
        <ele>201.4</ele>
        <time>2020-09-10T08:15:18Z</time>
      </trkpt>
      <trkpt lat="42.598593" lon="-8.624300">
        <ele>201.3</ele>
        <time>2020-09-10T08:15:20Z</time>
      </trkpt>
      <trkpt lat="42.598586" lon="-8.624255">
        <ele>201.1</ele>
        <time>2020-09-10T08:15:21Z</time>
      </trkpt>
      <trkpt lat="42.598575" lon="-8.624234">
        <ele>201.1</ele>
        <time>2020-09-10T08:15:21Z</time>
      </trkpt>
      <trkpt lat="42.598563" lon="-8.624242">
        <ele>201.4</ele>
        <time>2020-09-10T08:15:22Z</time>
      </trkpt>
      <trkpt lat="42.598548" lon="-8.624257">
        <ele>201.8</ele>
        <time>2020-09-10T08:15:22Z</time>
      </trkpt>
      <trkpt lat="42.598532" lon="-8.624274">
        <ele>202.3</ele>
        <time>2020-09-10T08:15:23Z</time>
      </trkpt>
      <trkpt lat="42.598512" lon="-8.624288">
        <ele>202.7</ele>
        <time>2020-09-10T08:15:23Z</time>
      </trkpt>
      <trkpt lat="42.598483" lon="-8.624306">
        <ele>203.3</ele>
        <time>2020-09-10T08:15:24Z</time>
      </trkpt>
      <trkpt lat="42.598469" lon="-8.624323">
        <ele>203.6</ele>
        <time>2020-09-10T08:15:25Z</time>
      </trkpt>
      <trkpt lat="42.598448" lon="-8.624338">
        <ele>204.1</ele>
        <time>2020-09-10T08:15:25Z</time>
      </trkpt>
      <trkpt lat="42.598426" lon="-8.624352">
        <ele>204.5</ele>
        <time>2020-09-10T08:15:26Z</time>
      </trkpt>
      <trkpt lat="42.598401" lon="-8.624370">
        <ele>205.1</ele>
        <time>2020-09-10T08:15:27Z</time>
      </trkpt>
      <trkpt lat="42.598380" lon="-8.624378">
        <ele>205.5</ele>
        <time>2020-09-10T08:15:27Z</time>
      </trkpt>
      <trkpt lat="42.598353" lon="-8.624384">
        <ele>206.0</ele>
        <time>2020-09-10T08:15:28Z</time>
      </trkpt>
      <trkpt lat="42.598325" lon="-8.624391">
        <ele>206.6</ele>
        <time>2020-09-10T08:15:29Z</time>
      </trkpt>
      <trkpt lat="42.598293" lon="-8.624399">
        <ele>207.2</ele>
        <time>2020-09-10T08:15:30Z</time>
      </trkpt>
      <trkpt lat="42.598254" lon="-8.624408">
        <ele>207.8</ele>
        <time>2020-09-10T08:15:31Z</time>
      </trkpt>
      <trkpt lat="42.598225" lon="-8.624421">
        <ele>208.2</ele>
        <time>2020-09-10T08:15:32Z</time>
      </trkpt>
      <trkpt lat="42.598208" lon="-8.624432">
        <ele>208.6</ele>
        <time>2020-09-10T08:15:32Z</time>
      </trkpt>
      <trkpt lat="42.598185" lon="-8.624441">
        <ele>208.9</ele>
        <time>2020-09-10T08:15:33Z</time>
      </trkpt>
      <trkpt lat="42.598165" lon="-8.624454">
        <ele>209.3</ele>
        <time>2020-09-10T08:15:33Z</time>
      </trkpt>
      <trkpt lat="42.598138" lon="-8.624463">
        <ele>209.8</ele>
        <time>2020-09-10T08:15:34Z</time>
      </trkpt>
      <trkpt lat="42.598115" lon="-8.624468">
        <ele>210.2</ele>
        <time>2020-09-10T08:15:35Z</time>
      </trkpt>
      <trkpt lat="42.598100" lon="-8.624477">
        <ele>210.5</ele>
        <time>2020-09-10T08:15:35Z</time>
      </trkpt>
      <trkpt lat="42.598087" lon="-8.624493">
        <ele>210.9</ele>
        <time>2020-09-10T08:15:36Z</time>
      </trkpt>
      <trkpt lat="42.598062" lon="-8.624509">
        <ele>211.6</ele>
        <time>2020-09-10T08:15:36Z</time>
      </trkpt>
      <trkpt lat="42.598036" lon="-8.624518">
        <ele>211.9</ele>
        <time>2020-09-10T08:15:37Z</time>
      </trkpt>
      <trkpt lat="42.598001" lon="-8.624524">
        <ele>212.3</ele>
        <time>2020-09-10T08:15:38Z</time>
      </trkpt>
      <trkpt lat="42.597973" lon="-8.624531">
        <ele>212.7</ele>
        <time>2020-09-10T08:15:39Z</time>
      </trkpt>
      <trkpt lat="42.597945" lon="-8.624540">
        <ele>213.0</ele>
        <time>2020-09-10T08:15:39Z</time>
      </trkpt>
      <trkpt lat="42.597911" lon="-8.624553">
        <ele>213.5</ele>
        <time>2020-09-10T08:15:40Z</time>
      </trkpt>
      <trkpt lat="42.597875" lon="-8.624570">
        <ele>214.1</ele>
        <time>2020-09-10T08:15:41Z</time>
      </trkpt>
      <trkpt lat="42.597847" lon="-8.624585">
        <ele>214.7</ele>
        <time>2020-09-10T08:15:42Z</time>
      </trkpt>
      <trkpt lat="42.597820" lon="-8.624604">
        <ele>215.2</ele>
        <time>2020-09-10T08:15:43Z</time>
      </trkpt>
      <trkpt lat="42.597787" lon="-8.624621">
        <ele>215.5</ele>
        <time>2020-09-10T08:15:44Z</time>
      </trkpt>
      <trkpt lat="42.597758" lon="-8.624636">
        <ele>215.8</ele>
        <time>2020-09-10T08:15:45Z</time>
      </trkpt>
      <trkpt lat="42.597727" lon="-8.624649">
        <ele>216.1</ele>
        <time>2020-09-10T08:15:46Z</time>
      </trkpt>
      <trkpt lat="42.597688" lon="-8.624666">
        <ele>216.4</ele>
        <time>2020-09-10T08:15:47Z</time>
      </trkpt>
      <trkpt lat="42.597661" lon="-8.624680">
        <ele>216.6</ele>
        <time>2020-09-10T08:15:48Z</time>
      </trkpt>
      <trkpt lat="42.597621" lon="-8.624700">
        <ele>217.0</ele>
        <time>2020-09-10T08:15:49Z</time>
      </trkpt>
      <trkpt lat="42.597585" lon="-8.624720">
        <ele>217.4</ele>
        <time>2020-09-10T08:15:50Z</time>
      </trkpt>
      <trkpt lat="42.597547" lon="-8.624744">
        <ele>217.7</ele>
        <time>2020-09-10T08:15:51Z</time>
      </trkpt>
      <trkpt lat="42.597518" lon="-8.624766">
        <ele>218.0</ele>
        <time>2020-09-10T08:15:52Z</time>
      </trkpt>
      <trkpt lat="42.597486" lon="-8.624782">
        <ele>218.1</ele>
        <time>2020-09-10T08:15:53Z</time>
      </trkpt>
      <trkpt lat="42.597451" lon="-8.624794">
        <ele>218.2</ele>
        <time>2020-09-10T08:15:54Z</time>
      </trkpt>
      <trkpt lat="42.597419" lon="-8.624813">
        <ele>218.4</ele>
        <time>2020-09-10T08:15:55Z</time>
      </trkpt>
      <trkpt lat="42.597379" lon="-8.624834">
        <ele>218.6</ele>
        <time>2020-09-10T08:15:56Z</time>
      </trkpt>
      <trkpt lat="42.597353" lon="-8.624856">
        <ele>218.8</ele>
        <time>2020-09-10T08:15:56Z</time>
      </trkpt>
      <trkpt lat="42.597327" lon="-8.624871">
        <ele>219.0</ele>
        <time>2020-09-10T08:15:57Z</time>
      </trkpt>
      <trkpt lat="42.597300" lon="-8.624887">
        <ele>219.2</ele>
        <time>2020-09-10T08:15:58Z</time>
      </trkpt>
      <trkpt lat="42.597268" lon="-8.624899">
        <ele>219.3</ele>
        <time>2020-09-10T08:15:59Z</time>
      </trkpt>
      <trkpt lat="42.597229" lon="-8.624900">
        <ele>219.3</ele>
        <time>2020-09-10T08:16:00Z</time>
      </trkpt>
      <trkpt lat="42.597182" lon="-8.624892">
        <ele>219.1</ele>
        <time>2020-09-10T08:16:01Z</time>
      </trkpt>
      <trkpt lat="42.597148" lon="-8.624882">
        <ele>218.9</ele>
        <time>2020-09-10T08:16:02Z</time>
      </trkpt>
      <trkpt lat="42.597104" lon="-8.624870">
        <ele>218.6</ele>
        <time>2020-09-10T08:16:03Z</time>
      </trkpt>
      <trkpt lat="42.597056" lon="-8.624861">
        <ele>218.3</ele>
        <time>2020-09-10T08:16:05Z</time>
      </trkpt>
      <trkpt lat="42.597004" lon="-8.624854">
        <ele>218.1</ele>
        <time>2020-09-10T08:16:06Z</time>
      </trkpt>
      <trkpt lat="42.596933" lon="-8.624853">
        <ele>217.8</ele>
        <time>2020-09-10T08:16:08Z</time>
      </trkpt>
      <trkpt lat="42.596882" lon="-8.624854">
        <ele>217.6</ele>
        <time>2020-09-10T08:16:09Z</time>
      </trkpt>
      <trkpt lat="42.596821" lon="-8.624861">
        <ele>217.5</ele>
        <time>2020-09-10T08:16:11Z</time>
      </trkpt>
      <trkpt lat="42.596759" lon="-8.624865">
        <ele>217.4</ele>
        <time>2020-09-10T08:16:13Z</time>
      </trkpt>
      <trkpt lat="42.596699" lon="-8.624867">
        <ele>217.2</ele>
        <time>2020-09-10T08:16:14Z</time>
      </trkpt>
      <trkpt lat="42.596630" lon="-8.624873">
        <ele>217.3</ele>
        <time>2020-09-10T08:16:16Z</time>
      </trkpt>
      <trkpt lat="42.596582" lon="-8.624881">
        <ele>217.4</ele>
        <time>2020-09-10T08:16:17Z</time>
      </trkpt>
      <trkpt lat="42.596523" lon="-8.624884">
        <ele>217.5</ele>
        <time>2020-09-10T08:16:19Z</time>
      </trkpt>
      <trkpt lat="42.596467" lon="-8.624874">
        <ele>217.6</ele>
        <time>2020-09-10T08:16:20Z</time>
      </trkpt>
      <trkpt lat="42.596404" lon="-8.624850">
        <ele>217.8</ele>
        <time>2020-09-10T08:16:22Z</time>
      </trkpt>
      <trkpt lat="42.596364" lon="-8.624828">
        <ele>218.0</ele>
        <time>2020-09-10T08:16:23Z</time>
      </trkpt>
      <trkpt lat="42.596304" lon="-8.624791">
        <ele>218.3</ele>
        <time>2020-09-10T08:16:25Z</time>
      </trkpt>
      <trkpt lat="42.596270" lon="-8.624767">
        <ele>218.5</ele>
        <time>2020-09-10T08:16:26Z</time>
      </trkpt>
      <trkpt lat="42.596229" lon="-8.624732">
        <ele>218.7</ele>
        <time>2020-09-10T08:16:27Z</time>
      </trkpt>
      <trkpt lat="42.596190" lon="-8.624695">
        <ele>219.0</ele>
        <time>2020-09-10T08:16:29Z</time>
      </trkpt>
      <trkpt lat="42.596143" lon="-8.624648">
        <ele>219.3</ele>
        <time>2020-09-10T08:16:30Z</time>
      </trkpt>
      <trkpt lat="42.596109" lon="-8.624608">
        <ele>219.5</ele>
        <time>2020-09-10T08:16:31Z</time>
      </trkpt>
      <trkpt lat="42.596084" lon="-8.624577">
        <ele>219.6</ele>
        <time>2020-09-10T08:16:32Z</time>
      </trkpt>
      <trkpt lat="42.596050" lon="-8.624536">
        <ele>219.8</ele>
        <time>2020-09-10T08:16:33Z</time>
      </trkpt>
      <trkpt lat="42.596019" lon="-8.624495">
        <ele>220.1</ele>
        <time>2020-09-10T08:16:35Z</time>
      </trkpt>
      <trkpt lat="42.595997" lon="-8.624456">
        <ele>220.4</ele>
        <time>2020-09-10T08:16:36Z</time>
      </trkpt>
      <trkpt lat="42.595980" lon="-8.624420">
        <ele>220.7</ele>
        <time>2020-09-10T08:16:36Z</time>
      </trkpt>
      <trkpt lat="42.595960" lon="-8.624382">
        <ele>220.9</ele>
        <time>2020-09-10T08:16:37Z</time>
      </trkpt>
      <trkpt lat="42.595939" lon="-8.624341">
        <ele>221.1</ele>
        <time>2020-09-10T08:16:38Z</time>
      </trkpt>
      <trkpt lat="42.595924" lon="-8.624296">
        <ele>221.3</ele>
        <time>2020-09-10T08:16:39Z</time>
      </trkpt>
      <trkpt lat="42.595910" lon="-8.624244">
        <ele>221.7</ele>
        <time>2020-09-10T08:16:40Z</time>
      </trkpt>
      <trkpt lat="42.595894" lon="-8.624183">
        <ele>222.1</ele>
        <time>2020-09-10T08:16:42Z</time>
      </trkpt>
      <trkpt lat="42.595889" lon="-8.624149">
        <ele>222.3</ele>
        <time>2020-09-10T08:16:42Z</time>
      </trkpt>
      <trkpt lat="42.595881" lon="-8.624103">
        <ele>222.6</ele>
        <time>2020-09-10T08:16:43Z</time>
      </trkpt>
      <trkpt lat="42.595873" lon="-8.624047">
        <ele>222.9</ele>
        <time>2020-09-10T08:16:44Z</time>
      </trkpt>
      <trkpt lat="42.595867" lon="-8.624007">
        <ele>223.1</ele>
        <time>2020-09-10T08:16:45Z</time>
      </trkpt>
      <trkpt lat="42.595859" lon="-8.623952">
        <ele>223.4</ele>
        <time>2020-09-10T08:16:46Z</time>
      </trkpt>
      <trkpt lat="42.595854" lon="-8.623915">
        <ele>223.5</ele>
        <time>2020-09-10T08:16:47Z</time>
      </trkpt>
      <trkpt lat="42.595847" lon="-8.623867">
        <ele>223.7</ele>
        <time>2020-09-10T08:16:48Z</time>
      </trkpt>
      <trkpt lat="42.595837" lon="-8.623813">
        <ele>223.9</ele>
        <time>2020-09-10T08:16:49Z</time>
      </trkpt>
      <trkpt lat="42.595833" lon="-8.623767">
        <ele>224.1</ele>
        <time>2020-09-10T08:16:50Z</time>
      </trkpt>
      <trkpt lat="42.595833" lon="-8.623722">
        <ele>224.4</ele>
        <time>2020-09-10T08:16:51Z</time>
      </trkpt>
      <trkpt lat="42.595834" lon="-8.623663">
        <ele>224.8</ele>
        <time>2020-09-10T08:16:52Z</time>
      </trkpt>
      <trkpt lat="42.595836" lon="-8.623613">
        <ele>225.1</ele>
        <time>2020-09-10T08:16:53Z</time>
      </trkpt>
      <trkpt lat="42.595834" lon="-8.623560">
        <ele>225.3</ele>
        <time>2020-09-10T08:16:54Z</time>
      </trkpt>
      <trkpt lat="42.595836" lon="-8.623524">
        <ele>225.5</ele>
        <time>2020-09-10T08:16:55Z</time>
      </trkpt>
      <trkpt lat="42.595831" lon="-8.623470">
        <ele>225.6</ele>
        <time>2020-09-10T08:16:56Z</time>
      </trkpt>
      <trkpt lat="42.595823" lon="-8.623402">
        <ele>225.8</ele>
        <time>2020-09-10T08:16:57Z</time>
      </trkpt>
      <trkpt lat="42.595820" lon="-8.623330">
        <ele>225.9</ele>
        <time>2020-09-10T08:16:59Z</time>
      </trkpt>
      <trkpt lat="42.595816" lon="-8.623241">
        <ele>226.0</ele>
        <time>2020-09-10T08:17:00Z</time>
      </trkpt>
      <trkpt lat="42.595808" lon="-8.623175">
        <ele>225.9</ele>
        <time>2020-09-10T08:17:02Z</time>
      </trkpt>
      <trkpt lat="42.595805" lon="-8.623091">
        <ele>226.0</ele>
        <time>2020-09-10T08:17:03Z</time>
      </trkpt>
      <trkpt lat="42.595805" lon="-8.623038">
        <ele>226.1</ele>
        <time>2020-09-10T08:17:04Z</time>
      </trkpt>
      <trkpt lat="42.595794" lon="-8.622962">
        <ele>226.1</ele>
        <time>2020-09-10T08:17:06Z</time>
      </trkpt>
      <trkpt lat="42.595780" lon="-8.622870">
        <ele>226.2</ele>
        <time>2020-09-10T08:17:08Z</time>
      </trkpt>
      <trkpt lat="42.595767" lon="-8.622806">
        <ele>226.5</ele>
        <time>2020-09-10T08:17:09Z</time>
      </trkpt>
      <trkpt lat="42.595758" lon="-8.622723">
        <ele>226.9</ele>
        <time>2020-09-10T08:17:11Z</time>
      </trkpt>
      <trkpt lat="42.595760" lon="-8.622669">
        <ele>227.3</ele>
        <time>2020-09-10T08:17:12Z</time>
      </trkpt>
      <trkpt lat="42.595765" lon="-8.622602">
        <ele>227.8</ele>
        <time>2020-09-10T08:17:13Z</time>
      </trkpt>
      <trkpt lat="42.595762" lon="-8.622527">
        <ele>228.2</ele>
        <time>2020-09-10T08:17:15Z</time>
      </trkpt>
      <trkpt lat="42.595758" lon="-8.622460">
        <ele>228.6</ele>
        <time>2020-09-10T08:17:16Z</time>
      </trkpt>
      <trkpt lat="42.595758" lon="-8.622381">
        <ele>229.0</ele>
        <time>2020-09-10T08:17:17Z</time>
      </trkpt>
      <trkpt lat="42.595772" lon="-8.622321">
        <ele>229.5</ele>
        <time>2020-09-10T08:17:19Z</time>
      </trkpt>
      <trkpt lat="42.595778" lon="-8.622262">
        <ele>229.9</ele>
        <time>2020-09-10T08:17:20Z</time>
      </trkpt>
      <trkpt lat="42.595774" lon="-8.622198">
        <ele>230.2</ele>
        <time>2020-09-10T08:17:21Z</time>
      </trkpt>
      <trkpt lat="42.595775" lon="-8.622135">
        <ele>230.6</ele>
        <time>2020-09-10T08:17:22Z</time>
      </trkpt>
      <trkpt lat="42.595767" lon="-8.622072">
        <ele>230.9</ele>
        <time>2020-09-10T08:17:24Z</time>
      </trkpt>
      <trkpt lat="42.595746" lon="-8.622016">
        <ele>231.1</ele>
        <time>2020-09-10T08:17:25Z</time>
      </trkpt>
      <trkpt lat="42.595721" lon="-8.621976">
        <ele>231.3</ele>
        <time>2020-09-10T08:17:26Z</time>
      </trkpt>
      <trkpt lat="42.595694" lon="-8.621945">
        <ele>231.6</ele>
        <time>2020-09-10T08:17:27Z</time>
      </trkpt>
      <trkpt lat="42.595666" lon="-8.621919">
        <ele>231.9</ele>
        <time>2020-09-10T08:17:28Z</time>
      </trkpt>
      <trkpt lat="42.595634" lon="-8.621894">
        <ele>232.1</ele>
        <time>2020-09-10T08:17:29Z</time>
      </trkpt>
      <trkpt lat="42.595607" lon="-8.621873">
        <ele>232.3</ele>
        <time>2020-09-10T08:17:30Z</time>
      </trkpt>
      <trkpt lat="42.595578" lon="-8.621849">
        <ele>232.6</ele>
        <time>2020-09-10T08:17:30Z</time>
      </trkpt>
      <trkpt lat="42.595549" lon="-8.621821">
        <ele>232.9</ele>
        <time>2020-09-10T08:17:31Z</time>
      </trkpt>
      <trkpt lat="42.595523" lon="-8.621797">
        <ele>233.2</ele>
        <time>2020-09-10T08:17:32Z</time>
      </trkpt>
      <trkpt lat="42.595497" lon="-8.621772">
        <ele>233.4</ele>
        <time>2020-09-10T08:17:33Z</time>
      </trkpt>
      <trkpt lat="42.595473" lon="-8.621741">
        <ele>233.8</ele>
        <time>2020-09-10T08:17:34Z</time>
      </trkpt>
      <trkpt lat="42.595452" lon="-8.621710">
        <ele>234.2</ele>
        <time>2020-09-10T08:17:35Z</time>
      </trkpt>
      <trkpt lat="42.595433" lon="-8.621678">
        <ele>234.7</ele>
        <time>2020-09-10T08:17:36Z</time>
      </trkpt>
      <trkpt lat="42.595411" lon="-8.621649">
        <ele>235.1</ele>
        <time>2020-09-10T08:17:36Z</time>
      </trkpt>
      <trkpt lat="42.595391" lon="-8.621626">
        <ele>235.4</ele>
        <time>2020-09-10T08:17:37Z</time>
      </trkpt>
      <trkpt lat="42.595366" lon="-8.621606">
        <ele>235.7</ele>
        <time>2020-09-10T08:17:38Z</time>
      </trkpt>
      <trkpt lat="42.595347" lon="-8.621587">
        <ele>235.9</ele>
        <time>2020-09-10T08:17:39Z</time>
      </trkpt>
      <trkpt lat="42.595317" lon="-8.621551">
        <ele>236.4</ele>
        <time>2020-09-10T08:17:40Z</time>
      </trkpt>
      <trkpt lat="42.595291" lon="-8.621515">
        <ele>236.9</ele>
        <time>2020-09-10T08:17:41Z</time>
      </trkpt>
      <trkpt lat="42.595268" lon="-8.621478">
        <ele>237.4</ele>
        <time>2020-09-10T08:17:42Z</time>
      </trkpt>
      <trkpt lat="42.595249" lon="-8.621446">
        <ele>237.8</ele>
        <time>2020-09-10T08:17:42Z</time>
      </trkpt>
      <trkpt lat="42.595238" lon="-8.621423">
        <ele>238.0</ele>
        <time>2020-09-10T08:17:43Z</time>
      </trkpt>
      <trkpt lat="42.595221" lon="-8.621391">
        <ele>238.4</ele>
        <time>2020-09-10T08:17:44Z</time>
      </trkpt>
      <trkpt lat="42.595198" lon="-8.621354">
        <ele>238.7</ele>
        <time>2020-09-10T08:17:45Z</time>
      </trkpt>
      <trkpt lat="42.595180" lon="-8.621331">
        <ele>238.9</ele>
        <time>2020-09-10T08:17:45Z</time>
      </trkpt>
      <trkpt lat="42.595167" lon="-8.621302">
        <ele>239.2</ele>
        <time>2020-09-10T08:17:46Z</time>
      </trkpt>
      <trkpt lat="42.595160" lon="-8.621281">
        <ele>239.4</ele>
        <time>2020-09-10T08:17:46Z</time>
      </trkpt>
      <trkpt lat="42.595144" lon="-8.621251">
        <ele>239.6</ele>
        <time>2020-09-10T08:17:47Z</time>
      </trkpt>
      <trkpt lat="42.595120" lon="-8.621212">
        <ele>239.9</ele>
        <time>2020-09-10T08:17:48Z</time>
      </trkpt>
      <trkpt lat="42.595098" lon="-8.621176">
        <ele>240.1</ele>
        <time>2020-09-10T08:17:49Z</time>
      </trkpt>
      <trkpt lat="42.595072" lon="-8.621145">
        <ele>240.2</ele>
        <time>2020-09-10T08:17:50Z</time>
      </trkpt>
      <trkpt lat="42.595045" lon="-8.621123">
        <ele>240.3</ele>
        <time>2020-09-10T08:17:51Z</time>
      </trkpt>
      <trkpt lat="42.595008" lon="-8.621099">
        <ele>240.6</ele>
        <time>2020-09-10T08:17:52Z</time>
      </trkpt>
      <trkpt lat="42.594966" lon="-8.621080">
        <ele>240.7</ele>
        <time>2020-09-10T08:17:53Z</time>
      </trkpt>
      <trkpt lat="42.594933" lon="-8.621069">
        <ele>240.8</ele>
        <time>2020-09-10T08:17:54Z</time>
      </trkpt>
      <trkpt lat="42.594900" lon="-8.621062">
        <ele>240.9</ele>
        <time>2020-09-10T08:17:55Z</time>
      </trkpt>
      <trkpt lat="42.594879" lon="-8.621061">
        <ele>240.8</ele>
        <time>2020-09-10T08:17:55Z</time>
      </trkpt>
      <trkpt lat="42.594847" lon="-8.621058">
        <ele>240.8</ele>
        <time>2020-09-10T08:17:56Z</time>
      </trkpt>
      <trkpt lat="42.594806" lon="-8.621054">
        <ele>240.9</ele>
        <time>2020-09-10T08:17:57Z</time>
      </trkpt>
      <trkpt lat="42.594774" lon="-8.621049">
        <ele>241.0</ele>
        <time>2020-09-10T08:17:58Z</time>
      </trkpt>
      <trkpt lat="42.594738" lon="-8.621044">
        <ele>241.2</ele>
        <time>2020-09-10T08:17:59Z</time>
      </trkpt>
      <trkpt lat="42.594711" lon="-8.621032">
        <ele>241.4</ele>
        <time>2020-09-10T08:18:00Z</time>
      </trkpt>
      <trkpt lat="42.594674" lon="-8.621029">
        <ele>241.5</ele>
        <time>2020-09-10T08:18:01Z</time>
      </trkpt>
      <trkpt lat="42.594534" lon="-8.621111">
        <ele>240.9</ele>
        <time>2020-09-10T08:18:05Z</time>
      </trkpt>
      <trkpt lat="42.594384" lon="-8.621217">
        <ele>240.1</ele>
        <time>2020-09-10T08:18:09Z</time>
      </trkpt>
      <trkpt lat="42.594293" lon="-8.621343">
        <ele>239.4</ele>
        <time>2020-09-10T08:18:13Z</time>
      </trkpt>
      <trkpt lat="42.594206" lon="-8.621439">
        <ele>239.0</ele>
        <time>2020-09-10T08:18:16Z</time>
      </trkpt>
      <trkpt lat="42.594098" lon="-8.621491">
        <ele>238.9</ele>
        <time>2020-09-10T08:18:19Z</time>
      </trkpt>
      <trkpt lat="42.594052" lon="-8.621534">
        <ele>238.7</ele>
        <time>2020-09-10T08:18:21Z</time>
      </trkpt>
      <trkpt lat="42.594041" lon="-8.621552">
        <ele>238.6</ele>
        <time>2020-09-10T08:18:21Z</time>
      </trkpt>
      <trkpt lat="42.594025" lon="-8.621566">
        <ele>238.6</ele>
        <time>2020-09-10T08:18:21Z</time>
      </trkpt>
      <trkpt lat="42.594004" lon="-8.621582">
        <ele>238.5</ele>
        <time>2020-09-10T08:18:22Z</time>
      </trkpt>
      <trkpt lat="42.593976" lon="-8.621596">
        <ele>238.5</ele>
        <time>2020-09-10T08:18:23Z</time>
      </trkpt>
      <trkpt lat="42.593976" lon="-8.621596">
        <ele>238.5</ele>
        <time>2020-09-10T08:18:23Z</time>
      </trkpt>
      <trkpt lat="42.593861" lon="-8.621609">
        <ele>238.1</ele>
        <time>2020-09-10T08:18:26Z</time>
      </trkpt>
      <trkpt lat="42.593829" lon="-8.621635">
        <ele>237.7</ele>
        <time>2020-09-10T08:18:27Z</time>
      </trkpt>
      <trkpt lat="42.593829" lon="-8.621635">
        <ele>237.7</ele>
        <time>2020-09-10T08:18:27Z</time>
      </trkpt>
      <trkpt lat="42.593727" lon="-8.621686">
        <ele>236.7</ele>
        <time>2020-09-10T08:18:30Z</time>
      </trkpt>
      <trkpt lat="42.593671" lon="-8.621695">
        <ele>236.3</ele>
        <time>2020-09-10T08:18:31Z</time>
      </trkpt>
      <trkpt lat="42.593591" lon="-8.621708">
        <ele>235.3</ele>
        <time>2020-09-10T08:18:34Z</time>
      </trkpt>
      <trkpt lat="42.593506" lon="-8.621709">
        <ele>234.4</ele>
        <time>2020-09-10T08:18:36Z</time>
      </trkpt>
      <trkpt lat="42.593421" lon="-8.621703">
        <ele>233.7</ele>
        <time>2020-09-10T08:18:38Z</time>
      </trkpt>
      <trkpt lat="42.593330" lon="-8.621704">
        <ele>233.1</ele>
        <time>2020-09-10T08:18:41Z</time>
      </trkpt>
      <trkpt lat="42.593330" lon="-8.621704">
        <ele>233.1</ele>
        <time>2020-09-10T08:18:41Z</time>
      </trkpt>
      <trkpt lat="42.593159" lon="-8.621751">
        <ele>231.5</ele>
        <time>2020-09-10T08:18:45Z</time>
      </trkpt>
      <trkpt lat="42.593058" lon="-8.621792">
        <ele>231.0</ele>
        <time>2020-09-10T08:18:48Z</time>
      </trkpt>
      <trkpt lat="42.592961" lon="-8.621831">
        <ele>230.7</ele>
        <time>2020-09-10T08:18:51Z</time>
      </trkpt>
      <trkpt lat="42.592863" lon="-8.621879">
        <ele>230.8</ele>
        <time>2020-09-10T08:18:53Z</time>
      </trkpt>
      <trkpt lat="42.592863" lon="-8.621879">
        <ele>230.8</ele>
        <time>2020-09-10T08:18:53Z</time>
      </trkpt>
      <trkpt lat="42.592715" lon="-8.622012">
        <ele>229.1</ele>
        <time>2020-09-10T08:18:58Z</time>
      </trkpt>
      <trkpt lat="42.592646" lon="-8.622068">
        <ele>228.1</ele>
        <time>2020-09-10T08:19:00Z</time>
      </trkpt>
      <trkpt lat="42.592568" lon="-8.622121">
        <ele>227.2</ele>
        <time>2020-09-10T08:19:03Z</time>
      </trkpt>
      <trkpt lat="42.592491" lon="-8.622181">
        <ele>226.0</ele>
        <time>2020-09-10T08:19:05Z</time>
      </trkpt>
      <trkpt lat="42.592413" lon="-8.622240">
        <ele>224.9</ele>
        <time>2020-09-10T08:19:07Z</time>
      </trkpt>
      <trkpt lat="42.592330" lon="-8.622295">
        <ele>224.2</ele>
        <time>2020-09-10T08:19:10Z</time>
      </trkpt>
      <trkpt lat="42.592249" lon="-8.622346">
        <ele>223.3</ele>
        <time>2020-09-10T08:19:12Z</time>
      </trkpt>
      <trkpt lat="42.592152" lon="-8.622392">
        <ele>222.3</ele>
        <time>2020-09-10T08:19:15Z</time>
      </trkpt>
      <trkpt lat="42.592063" lon="-8.622431">
        <ele>221.2</ele>
        <time>2020-09-10T08:19:17Z</time>
      </trkpt>
      <trkpt lat="42.591970" lon="-8.622463">
        <ele>220.4</ele>
        <time>2020-09-10T08:19:20Z</time>
      </trkpt>
      <trkpt lat="42.591877" lon="-8.622491">
        <ele>219.8</ele>
        <time>2020-09-10T08:19:23Z</time>
      </trkpt>
      <trkpt lat="42.591791" lon="-8.622519">
        <ele>219.3</ele>
        <time>2020-09-10T08:19:25Z</time>
      </trkpt>
      <trkpt lat="42.591707" lon="-8.622557">
        <ele>218.8</ele>
        <time>2020-09-10T08:19:27Z</time>
      </trkpt>
      <trkpt lat="42.591707" lon="-8.622557">
        <ele>218.8</ele>
        <time>2020-09-10T08:19:27Z</time>
      </trkpt>
      <trkpt lat="42.591554" lon="-8.622683">
        <ele>217.4</ele>
        <time>2020-09-10T08:19:32Z</time>
      </trkpt>
      <trkpt lat="42.591484" lon="-8.622761">
        <ele>216.8</ele>
        <time>2020-09-10T08:19:34Z</time>
      </trkpt>
      <trkpt lat="42.591416" lon="-8.622841">
        <ele>216.3</ele>
        <time>2020-09-10T08:19:37Z</time>
      </trkpt>
      <trkpt lat="42.591345" lon="-8.622921">
        <ele>215.9</ele>
        <time>2020-09-10T08:19:39Z</time>
      </trkpt>
      <trkpt lat="42.591272" lon="-8.623003">
        <ele>214.9</ele>
        <time>2020-09-10T08:19:42Z</time>
      </trkpt>
      <trkpt lat="42.591201" lon="-8.623084">
        <ele>214.0</ele>
        <time>2020-09-10T08:19:44Z</time>
      </trkpt>
      <trkpt lat="42.591201" lon="-8.623084">
        <ele>214.0</ele>
        <time>2020-09-10T08:19:44Z</time>
      </trkpt>
      <trkpt lat="42.591053" lon="-8.623253">
        <ele>212.6</ele>
        <time>2020-09-10T08:19:50Z</time>
      </trkpt>
      <trkpt lat="42.591053" lon="-8.623253">
        <ele>212.6</ele>
        <time>2020-09-10T08:19:50Z</time>
      </trkpt>
      <trkpt lat="42.590972" lon="-8.623339">
        <ele>212.1</ele>
        <time>2020-09-10T08:19:52Z</time>
      </trkpt>
      <trkpt lat="42.590823" lon="-8.623497">
        <ele>211.5</ele>
        <time>2020-09-10T08:19:57Z</time>
      </trkpt>
      <trkpt lat="42.590823" lon="-8.623497">
        <ele>211.5</ele>
        <time>2020-09-10T08:19:57Z</time>
      </trkpt>
      <trkpt lat="42.590719" lon="-8.623595">
        <ele>210.8</ele>
        <time>2020-09-10T08:20:01Z</time>
      </trkpt>
      <trkpt lat="42.590694" lon="-8.623611">
        <ele>210.6</ele>
        <time>2020-09-10T08:20:01Z</time>
      </trkpt>
      <trkpt lat="42.590694" lon="-8.623611">
        <ele>210.6</ele>
        <time>2020-09-10T08:20:01Z</time>
      </trkpt>
      <trkpt lat="42.590686" lon="-8.623615">
        <ele>210.6</ele>
        <time>2020-09-10T08:20:02Z</time>
      </trkpt>
      <trkpt lat="42.590667" lon="-8.623616">
        <ele>210.5</ele>
        <time>2020-09-10T08:20:02Z</time>
      </trkpt>
      <trkpt lat="42.590644" lon="-8.623614">
        <ele>210.4</ele>
        <time>2020-09-10T08:20:03Z</time>
      </trkpt>
      <trkpt lat="42.590613" lon="-8.623605">
        <ele>210.3</ele>
        <time>2020-09-10T08:20:04Z</time>
      </trkpt>
      <trkpt lat="42.590581" lon="-8.623589">
        <ele>210.3</ele>
        <time>2020-09-10T08:20:05Z</time>
      </trkpt>
      <trkpt lat="42.590543" lon="-8.623565">
        <ele>210.3</ele>
        <time>2020-09-10T08:20:06Z</time>
      </trkpt>
      <trkpt lat="42.590500" lon="-8.623538">
        <ele>210.4</ele>
        <time>2020-09-10T08:20:07Z</time>
      </trkpt>
      <trkpt lat="42.590455" lon="-8.623515">
        <ele>210.4</ele>
        <time>2020-09-10T08:20:08Z</time>
      </trkpt>
      <trkpt lat="42.590408" lon="-8.623495">
        <ele>210.3</ele>
        <time>2020-09-10T08:20:10Z</time>
      </trkpt>
      <trkpt lat="42.590356" lon="-8.623483">
        <ele>210.0</ele>
        <time>2020-09-10T08:20:11Z</time>
      </trkpt>
      <trkpt lat="42.590356" lon="-8.623483">
        <ele>210.0</ele>
        <time>2020-09-10T08:20:11Z</time>
      </trkpt>
      <trkpt lat="42.590243" lon="-8.623474">
        <ele>209.3</ele>
        <time>2020-09-10T08:20:14Z</time>
      </trkpt>
      <trkpt lat="42.590180" lon="-8.623471">
        <ele>208.9</ele>
        <time>2020-09-10T08:20:16Z</time>
      </trkpt>
      <trkpt lat="42.590121" lon="-8.623445">
        <ele>208.4</ele>
        <time>2020-09-10T08:20:17Z</time>
      </trkpt>
      <trkpt lat="42.590082" lon="-8.623396">
        <ele>208.2</ele>
        <time>2020-09-10T08:20:19Z</time>
      </trkpt>
      <trkpt lat="42.590082" lon="-8.623396">
        <ele>208.2</ele>
        <time>2020-09-10T08:20:19Z</time>
      </trkpt>
      <trkpt lat="42.590063" lon="-8.623249">
        <ele>207.7</ele>
        <time>2020-09-10T08:20:22Z</time>
      </trkpt>
      <trkpt lat="42.590077" lon="-8.623165">
        <ele>207.6</ele>
        <time>2020-09-10T08:20:23Z</time>
      </trkpt>
      <trkpt lat="42.590099" lon="-8.623080">
        <ele>207.6</ele>
        <time>2020-09-10T08:20:25Z</time>
      </trkpt>
      <trkpt lat="42.590124" lon="-8.622995">
        <ele>207.6</ele>
        <time>2020-09-10T08:20:27Z</time>
      </trkpt>
      <trkpt lat="42.590124" lon="-8.622995">
        <ele>207.6</ele>
        <time>2020-09-10T08:20:27Z</time>
      </trkpt>
      <trkpt lat="42.590173" lon="-8.622823">
        <ele>207.7</ele>
        <time>2020-09-10T08:20:31Z</time>
      </trkpt>
      <trkpt lat="42.590192" lon="-8.622735">
        <ele>207.6</ele>
        <time>2020-09-10T08:20:32Z</time>
      </trkpt>
      <trkpt lat="42.590201" lon="-8.622647">
        <ele>207.5</ele>
        <time>2020-09-10T08:20:34Z</time>
      </trkpt>
      <trkpt lat="42.590190" lon="-8.622567">
        <ele>207.6</ele>
        <time>2020-09-10T08:20:36Z</time>
      </trkpt>
      <trkpt lat="42.590157" lon="-8.622504">
        <ele>207.6</ele>
        <time>2020-09-10T08:20:37Z</time>
      </trkpt>
      <trkpt lat="42.590107" lon="-8.622470">
        <ele>207.6</ele>
        <time>2020-09-10T08:20:39Z</time>
      </trkpt>
      <trkpt lat="42.590052" lon="-8.622470">
        <ele>207.4</ele>
        <time>2020-09-10T08:20:40Z</time>
      </trkpt>
      <trkpt lat="42.589996" lon="-8.622496">
        <ele>207.0</ele>
        <time>2020-09-10T08:20:42Z</time>
      </trkpt>
      <trkpt lat="42.589941" lon="-8.622540">
        <ele>206.6</ele>
        <time>2020-09-10T08:20:43Z</time>
      </trkpt>
      <trkpt lat="42.589880" lon="-8.622580">
        <ele>206.2</ele>
        <time>2020-09-10T08:20:45Z</time>
      </trkpt>
      <trkpt lat="42.589816" lon="-8.622605">
        <ele>206.0</ele>
        <time>2020-09-10T08:20:47Z</time>
      </trkpt>
      <trkpt lat="42.589746" lon="-8.622618">
        <ele>205.9</ele>
        <time>2020-09-10T08:20:49Z</time>
      </trkpt>
      <trkpt lat="42.589686" lon="-8.622622">
        <ele>206.0</ele>
        <time>2020-09-10T08:20:50Z</time>
      </trkpt>
      <trkpt lat="42.589627" lon="-8.622619">
        <ele>206.2</ele>
        <time>2020-09-10T08:20:52Z</time>
      </trkpt>
      <trkpt lat="42.589567" lon="-8.622612">
        <ele>206.5</ele>
        <time>2020-09-10T08:20:54Z</time>
      </trkpt>
      <trkpt lat="42.589567" lon="-8.622612">
        <ele>206.5</ele>
        <time>2020-09-10T08:20:54Z</time>
      </trkpt>
      <trkpt lat="42.589507" lon="-8.622605">
        <ele>206.7</ele>
        <time>2020-09-10T08:20:55Z</time>
      </trkpt>
      <trkpt lat="42.589390" lon="-8.622597">
        <ele>206.4</ele>
        <time>2020-09-10T08:20:58Z</time>
      </trkpt>
      <trkpt lat="42.589390" lon="-8.622597">
        <ele>206.4</ele>
        <time>2020-09-10T08:20:58Z</time>
      </trkpt>
      <trkpt lat="42.589266" lon="-8.622583">
        <ele>206.0</ele>
        <time>2020-09-10T08:21:02Z</time>
      </trkpt>
      <trkpt lat="42.589202" lon="-8.622579">
        <ele>205.5</ele>
        <time>2020-09-10T08:21:03Z</time>
      </trkpt>
      <trkpt lat="42.589137" lon="-8.622575">
        <ele>205.0</ele>
        <time>2020-09-10T08:21:05Z</time>
      </trkpt>
      <trkpt lat="42.589071" lon="-8.622563">
        <ele>204.6</ele>
        <time>2020-09-10T08:21:07Z</time>
      </trkpt>
      <trkpt lat="42.589071" lon="-8.622563">
        <ele>204.6</ele>
        <time>2020-09-10T08:21:07Z</time>
      </trkpt>
      <trkpt lat="42.588940" lon="-8.622488">
        <ele>203.9</ele>
        <time>2020-09-10T08:21:11Z</time>
      </trkpt>
      <trkpt lat="42.588940" lon="-8.622488">
        <ele>203.9</ele>
        <time>2020-09-10T08:21:11Z</time>
      </trkpt>
      <trkpt lat="42.588843" lon="-8.622342">
        <ele>203.7</ele>
        <time>2020-09-10T08:21:15Z</time>
      </trkpt>
      <trkpt lat="42.588805" lon="-8.622257">
        <ele>203.8</ele>
        <time>2020-09-10T08:21:17Z</time>
      </trkpt>
      <trkpt lat="42.588805" lon="-8.622257">
        <ele>203.8</ele>
        <time>2020-09-10T08:21:17Z</time>
      </trkpt>
      <trkpt lat="42.588729" lon="-8.622086">
        <ele>203.9</ele>
        <time>2020-09-10T08:21:20Z</time>
      </trkpt>
      <trkpt lat="42.588677" lon="-8.622016">
        <ele>203.7</ele>
        <time>2020-09-10T08:21:22Z</time>
      </trkpt>
      <trkpt lat="42.588613" lon="-8.621966">
        <ele>203.1</ele>
        <time>2020-09-10T08:21:24Z</time>
      </trkpt>
      <trkpt lat="42.588544" lon="-8.621942">
        <ele>203.0</ele>
        <time>2020-09-10T08:21:26Z</time>
      </trkpt>
      <trkpt lat="42.588544" lon="-8.621942">
        <ele>203.0</ele>
        <time>2020-09-10T08:21:26Z</time>
      </trkpt>
      <trkpt lat="42.588403" lon="-8.621943">
        <ele>202.6</ele>
        <time>2020-09-10T08:21:30Z</time>
      </trkpt>
      <trkpt lat="42.588403" lon="-8.621943">
        <ele>202.6</ele>
        <time>2020-09-10T08:21:30Z</time>
      </trkpt>
      <trkpt lat="42.588271" lon="-8.621968">
        <ele>202.5</ele>
        <time>2020-09-10T08:21:34Z</time>
      </trkpt>
      <trkpt lat="42.588207" lon="-8.621981">
        <ele>202.6</ele>
        <time>2020-09-10T08:21:35Z</time>
      </trkpt>
      <trkpt lat="42.588207" lon="-8.621981">
        <ele>202.6</ele>
        <time>2020-09-10T08:21:35Z</time>
      </trkpt>
      <trkpt lat="42.588077" lon="-8.622015">
        <ele>203.0</ele>
        <time>2020-09-10T08:21:39Z</time>
      </trkpt>
      <trkpt lat="42.588013" lon="-8.622035">
        <ele>203.3</ele>
        <time>2020-09-10T08:21:41Z</time>
      </trkpt>
      <trkpt lat="42.587949" lon="-8.622060">
        <ele>203.4</ele>
        <time>2020-09-10T08:21:42Z</time>
      </trkpt>
      <trkpt lat="42.587949" lon="-8.622060">
        <ele>203.4</ele>
        <time>2020-09-10T08:21:42Z</time>
      </trkpt>
      <trkpt lat="42.587829" lon="-8.622122">
        <ele>203.4</ele>
        <time>2020-09-10T08:21:46Z</time>
      </trkpt>
      <trkpt lat="42.587771" lon="-8.622152">
        <ele>203.5</ele>
        <time>2020-09-10T08:21:47Z</time>
      </trkpt>
      <trkpt lat="42.587713" lon="-8.622183">
        <ele>203.5</ele>
        <time>2020-09-10T08:21:49Z</time>
      </trkpt>
      <trkpt lat="42.587655" lon="-8.622214">
        <ele>203.5</ele>
        <time>2020-09-10T08:21:51Z</time>
      </trkpt>
      <trkpt lat="42.587596" lon="-8.622245">
        <ele>203.5</ele>
        <time>2020-09-10T08:21:52Z</time>
      </trkpt>
      <trkpt lat="42.587534" lon="-8.622277">
        <ele>203.6</ele>
        <time>2020-09-10T08:21:54Z</time>
      </trkpt>
      <trkpt lat="42.587469" lon="-8.622311">
        <ele>203.6</ele>
        <time>2020-09-10T08:21:56Z</time>
      </trkpt>
      <trkpt lat="42.587406" lon="-8.622346">
        <ele>203.4</ele>
        <time>2020-09-10T08:21:58Z</time>
      </trkpt>
      <trkpt lat="42.587345" lon="-8.622382">
        <ele>203.2</ele>
        <time>2020-09-10T08:22:00Z</time>
      </trkpt>
      <trkpt lat="42.587285" lon="-8.622418">
        <ele>203.1</ele>
        <time>2020-09-10T08:22:01Z</time>
      </trkpt>
      <trkpt lat="42.587223" lon="-8.622449">
        <ele>203.1</ele>
        <time>2020-09-10T08:22:03Z</time>
      </trkpt>
      <trkpt lat="42.587156" lon="-8.622483">
        <ele>202.9</ele>
        <time>2020-09-10T08:22:05Z</time>
      </trkpt>
      <trkpt lat="42.587092" lon="-8.622514">
        <ele>202.8</ele>
        <time>2020-09-10T08:22:07Z</time>
      </trkpt>
      <trkpt lat="42.587039" lon="-8.622536">
        <ele>202.9</ele>
        <time>2020-09-10T08:22:08Z</time>
      </trkpt>
      <trkpt lat="42.586737" lon="-8.622769">
        <ele>201.0</ele>
        <time>2020-09-10T08:22:18Z</time>
      </trkpt>
      <trkpt lat="42.586333" lon="-8.623107">
        <ele>197.8</ele>
        <time>2020-09-10T08:22:30Z</time>
      </trkpt>
      <trkpt lat="42.586245" lon="-8.622959">
        <ele>200.4</ele>
        <time>2020-09-10T08:22:34Z</time>
      </trkpt>
      <trkpt lat="42.586204" lon="-8.622940">
        <ele>200.9</ele>
        <time>2020-09-10T08:22:35Z</time>
      </trkpt>
      <trkpt lat="42.586175" lon="-8.622901">
        <ele>201.4</ele>
        <time>2020-09-10T08:22:36Z</time>
      </trkpt>
      <trkpt lat="42.586155" lon="-8.622883">
        <ele>201.7</ele>
        <time>2020-09-10T08:22:37Z</time>
      </trkpt>
      <trkpt lat="42.586155" lon="-8.622883">
        <ele>201.7</ele>
        <time>2020-09-10T08:22:37Z</time>
      </trkpt>
      <trkpt lat="42.586130" lon="-8.622865">
        <ele>202.0</ele>
        <time>2020-09-10T08:22:38Z</time>
      </trkpt>
      <trkpt lat="42.586107" lon="-8.622844">
        <ele>202.4</ele>
        <time>2020-09-10T08:22:38Z</time>
      </trkpt>
      <trkpt lat="42.586073" lon="-8.622804">
        <ele>202.9</ele>
        <time>2020-09-10T08:22:40Z</time>
      </trkpt>
      <trkpt lat="42.586057" lon="-8.622783">
        <ele>203.3</ele>
        <time>2020-09-10T08:22:40Z</time>
      </trkpt>
      <trkpt lat="42.586045" lon="-8.622759">
        <ele>203.7</ele>
        <time>2020-09-10T08:22:41Z</time>
      </trkpt>
      <trkpt lat="42.586031" lon="-8.622731">
        <ele>204.2</ele>
        <time>2020-09-10T08:22:42Z</time>
      </trkpt>
      <trkpt lat="42.586020" lon="-8.622701">
        <ele>204.6</ele>
        <time>2020-09-10T08:22:42Z</time>
      </trkpt>
      <trkpt lat="42.586009" lon="-8.622669">
        <ele>205.1</ele>
        <time>2020-09-10T08:22:43Z</time>
      </trkpt>
      <trkpt lat="42.585998" lon="-8.622633">
        <ele>205.6</ele>
        <time>2020-09-10T08:22:44Z</time>
      </trkpt>
      <trkpt lat="42.585987" lon="-8.622598">
        <ele>206.1</ele>
        <time>2020-09-10T08:22:44Z</time>
      </trkpt>
      <trkpt lat="42.585974" lon="-8.622561">
        <ele>206.6</ele>
        <time>2020-09-10T08:22:45Z</time>
      </trkpt>
      <trkpt lat="42.585965" lon="-8.622527">
        <ele>207.0</ele>
        <time>2020-09-10T08:22:46Z</time>
      </trkpt>
      <trkpt lat="42.585954" lon="-8.622497">
        <ele>207.4</ele>
        <time>2020-09-10T08:22:47Z</time>
      </trkpt>
      <trkpt lat="42.585944" lon="-8.622469">
        <ele>207.8</ele>
        <time>2020-09-10T08:22:47Z</time>
      </trkpt>
      <trkpt lat="42.585933" lon="-8.622438">
        <ele>208.2</ele>
        <time>2020-09-10T08:22:48Z</time>
      </trkpt>
      <trkpt lat="42.585933" lon="-8.622438">
        <ele>208.2</ele>
        <time>2020-09-10T08:22:48Z</time>
      </trkpt>
      <trkpt lat="42.585916" lon="-8.622371">
        <ele>209.0</ele>
        <time>2020-09-10T08:22:49Z</time>
      </trkpt>
      <trkpt lat="42.585912" lon="-8.622337">
        <ele>209.4</ele>
        <time>2020-09-10T08:22:50Z</time>
      </trkpt>
      <trkpt lat="42.585906" lon="-8.622300">
        <ele>209.9</ele>
        <time>2020-09-10T08:22:51Z</time>
      </trkpt>
      <trkpt lat="42.585903" lon="-8.622267">
        <ele>210.2</ele>
        <time>2020-09-10T08:22:51Z</time>
      </trkpt>
      <trkpt lat="42.585903" lon="-8.622237">
        <ele>210.6</ele>
        <time>2020-09-10T08:22:52Z</time>
      </trkpt>
      <trkpt lat="42.585896" lon="-8.622202">
        <ele>210.9</ele>
        <time>2020-09-10T08:22:53Z</time>
      </trkpt>
      <trkpt lat="42.585885" lon="-8.622168">
        <ele>211.2</ele>
        <time>2020-09-10T08:22:53Z</time>
      </trkpt>
      <trkpt lat="42.585879" lon="-8.622146">
        <ele>211.4</ele>
        <time>2020-09-10T08:22:54Z</time>
      </trkpt>
      <trkpt lat="42.585875" lon="-8.622119">
        <ele>211.6</ele>
        <time>2020-09-10T08:22:54Z</time>
      </trkpt>
      <trkpt lat="42.585873" lon="-8.622082">
        <ele>211.9</ele>
        <time>2020-09-10T08:22:55Z</time>
      </trkpt>
      <trkpt lat="42.585869" lon="-8.622045">
        <ele>212.2</ele>
        <time>2020-09-10T08:22:56Z</time>
      </trkpt>
      <trkpt lat="42.585865" lon="-8.622010">
        <ele>212.4</ele>
        <time>2020-09-10T08:22:56Z</time>
      </trkpt>
      <trkpt lat="42.585854" lon="-8.621972">
        <ele>212.6</ele>
        <time>2020-09-10T08:22:57Z</time>
      </trkpt>
      <trkpt lat="42.585854" lon="-8.621972">
        <ele>212.6</ele>
        <time>2020-09-10T08:22:57Z</time>
      </trkpt>
      <trkpt lat="42.585834" lon="-8.621903">
        <ele>212.8</ele>
        <time>2020-09-10T08:22:59Z</time>
      </trkpt>
      <trkpt lat="42.585822" lon="-8.621871">
        <ele>212.9</ele>
        <time>2020-09-10T08:22:59Z</time>
      </trkpt>
      <trkpt lat="42.585810" lon="-8.621834">
        <ele>213.0</ele>
        <time>2020-09-10T08:23:00Z</time>
      </trkpt>
      <trkpt lat="42.585806" lon="-8.621794">
        <ele>213.1</ele>
        <time>2020-09-10T08:23:01Z</time>
      </trkpt>
      <trkpt lat="42.585806" lon="-8.621757">
        <ele>213.2</ele>
        <time>2020-09-10T08:23:02Z</time>
      </trkpt>
      <trkpt lat="42.585805" lon="-8.621707">
        <ele>213.1</ele>
        <time>2020-09-10T08:23:03Z</time>
      </trkpt>
      <trkpt lat="42.585803" lon="-8.621644">
        <ele>212.9</ele>
        <time>2020-09-10T08:23:04Z</time>
      </trkpt>
      <trkpt lat="42.585817" lon="-8.621574">
        <ele>212.8</ele>
        <time>2020-09-10T08:23:05Z</time>
      </trkpt>
      <trkpt lat="42.585828" lon="-8.621501">
        <ele>212.5</ele>
        <time>2020-09-10T08:23:07Z</time>
      </trkpt>
      <trkpt lat="42.585832" lon="-8.621418">
        <ele>211.3</ele>
        <time>2020-09-10T08:23:09Z</time>
      </trkpt>
      <trkpt lat="42.585835" lon="-8.621340">
        <ele>210.2</ele>
        <time>2020-09-10T08:23:10Z</time>
      </trkpt>
      <trkpt lat="42.585824" lon="-8.621266">
        <ele>209.0</ele>
        <time>2020-09-10T08:23:12Z</time>
      </trkpt>
      <trkpt lat="42.585806" lon="-8.621199">
        <ele>208.1</ele>
        <time>2020-09-10T08:23:13Z</time>
      </trkpt>
      <trkpt lat="42.585791" lon="-8.621163">
        <ele>207.6</ele>
        <time>2020-09-10T08:23:14Z</time>
      </trkpt>
      <trkpt lat="42.585751" lon="-8.621130">
        <ele>207.2</ele>
        <time>2020-09-10T08:23:15Z</time>
      </trkpt>
      <trkpt lat="42.585700" lon="-8.621104">
        <ele>206.8</ele>
        <time>2020-09-10T08:23:16Z</time>
      </trkpt>
      <trkpt lat="42.585645" lon="-8.621085">
        <ele>206.6</ele>
        <time>2020-09-10T08:23:18Z</time>
      </trkpt>
      <trkpt lat="42.585594" lon="-8.621077">
        <ele>206.5</ele>
        <time>2020-09-10T08:23:19Z</time>
      </trkpt>
      <trkpt lat="42.585547" lon="-8.621076">
        <ele>206.8</ele>
        <time>2020-09-10T08:23:21Z</time>
      </trkpt>
      <trkpt lat="42.585504" lon="-8.621082">
        <ele>207.0</ele>
        <time>2020-09-10T08:23:22Z</time>
      </trkpt>
      <trkpt lat="42.585456" lon="-8.621097">
        <ele>207.4</ele>
        <time>2020-09-10T08:23:23Z</time>
      </trkpt>
      <trkpt lat="42.585435" lon="-8.621118">
        <ele>207.6</ele>
        <time>2020-09-10T08:23:24Z</time>
      </trkpt>
      <trkpt lat="42.585403" lon="-8.621135">
        <ele>207.9</ele>
        <time>2020-09-10T08:23:25Z</time>
      </trkpt>
      <trkpt lat="42.585371" lon="-8.621148">
        <ele>208.1</ele>
        <time>2020-09-10T08:23:26Z</time>
      </trkpt>
      <trkpt lat="42.585344" lon="-8.621156">
        <ele>208.3</ele>
        <time>2020-09-10T08:23:26Z</time>
      </trkpt>
      <trkpt lat="42.585317" lon="-8.621158">
        <ele>208.4</ele>
        <time>2020-09-10T08:23:27Z</time>
      </trkpt>
      <trkpt lat="42.585284" lon="-8.621166">
        <ele>208.6</ele>
        <time>2020-09-10T08:23:28Z</time>
      </trkpt>
      <trkpt lat="42.585247" lon="-8.621180">
        <ele>208.8</ele>
        <time>2020-09-10T08:23:29Z</time>
      </trkpt>
      <trkpt lat="42.585205" lon="-8.621192">
        <ele>209.1</ele>
        <time>2020-09-10T08:23:30Z</time>
      </trkpt>
      <trkpt lat="42.585167" lon="-8.621195">
        <ele>209.3</ele>
        <time>2020-09-10T08:23:31Z</time>
      </trkpt>
      <trkpt lat="42.585133" lon="-8.621197">
        <ele>209.4</ele>
        <time>2020-09-10T08:23:32Z</time>
      </trkpt>
      <trkpt lat="42.585096" lon="-8.621204">
        <ele>209.5</ele>
        <time>2020-09-10T08:23:33Z</time>
      </trkpt>
      <trkpt lat="42.585051" lon="-8.621211">
        <ele>209.6</ele>
        <time>2020-09-10T08:23:34Z</time>
      </trkpt>
      <trkpt lat="42.585004" lon="-8.621214">
        <ele>209.7</ele>
        <time>2020-09-10T08:23:35Z</time>
      </trkpt>
      <trkpt lat="42.584954" lon="-8.621222">
        <ele>209.9</ele>
        <time>2020-09-10T08:23:37Z</time>
      </trkpt>
      <trkpt lat="42.584906" lon="-8.621235">
        <ele>210.0</ele>
        <time>2020-09-10T08:23:38Z</time>
      </trkpt>
      <trkpt lat="42.584856" lon="-8.621254">
        <ele>209.9</ele>
        <time>2020-09-10T08:23:39Z</time>
      </trkpt>
      <trkpt lat="42.584794" lon="-8.621282">
        <ele>209.8</ele>
        <time>2020-09-10T08:23:41Z</time>
      </trkpt>
      <trkpt lat="42.584728" lon="-8.621311">
        <ele>209.7</ele>
        <time>2020-09-10T08:23:43Z</time>
      </trkpt>
      <trkpt lat="42.584662" lon="-8.621343">
        <ele>209.5</ele>
        <time>2020-09-10T08:23:45Z</time>
      </trkpt>
      <trkpt lat="42.584600" lon="-8.621385">
        <ele>209.3</ele>
        <time>2020-09-10T08:23:47Z</time>
      </trkpt>
      <trkpt lat="42.584545" lon="-8.621428">
        <ele>209.2</ele>
        <time>2020-09-10T08:23:49Z</time>
      </trkpt>
      <trkpt lat="42.584488" lon="-8.621468">
        <ele>209.1</ele>
        <time>2020-09-10T08:23:50Z</time>
      </trkpt>
      <trkpt lat="42.584448" lon="-8.621506">
        <ele>209.0</ele>
        <time>2020-09-10T08:23:52Z</time>
      </trkpt>
      <trkpt lat="42.584405" lon="-8.621544">
        <ele>208.9</ele>
        <time>2020-09-10T08:23:53Z</time>
      </trkpt>
      <trkpt lat="42.584364" lon="-8.621589">
        <ele>208.8</ele>
        <time>2020-09-10T08:23:54Z</time>
      </trkpt>
      <trkpt lat="42.584326" lon="-8.621628">
        <ele>208.9</ele>
        <time>2020-09-10T08:23:56Z</time>
      </trkpt>
      <trkpt lat="42.584246" lon="-8.621679">
        <ele>208.9</ele>
        <time>2020-09-10T08:23:58Z</time>
      </trkpt>
      <trkpt lat="42.584178" lon="-8.621730">
        <ele>208.9</ele>
        <time>2020-09-10T08:24:00Z</time>
      </trkpt>
      <trkpt lat="42.584141" lon="-8.621777">
        <ele>209.1</ele>
        <time>2020-09-10T08:24:01Z</time>
      </trkpt>
      <trkpt lat="42.584110" lon="-8.621819">
        <ele>209.3</ele>
        <time>2020-09-10T08:24:03Z</time>
      </trkpt>
      <trkpt lat="42.584058" lon="-8.621858">
        <ele>209.3</ele>
        <time>2020-09-10T08:24:04Z</time>
      </trkpt>
      <trkpt lat="42.583995" lon="-8.621889">
        <ele>209.1</ele>
        <time>2020-09-10T08:24:06Z</time>
      </trkpt>
      <trkpt lat="42.583925" lon="-8.621912">
        <ele>208.5</ele>
        <time>2020-09-10T08:24:08Z</time>
      </trkpt>
      <trkpt lat="42.583874" lon="-8.621931">
        <ele>208.0</ele>
        <time>2020-09-10T08:24:09Z</time>
      </trkpt>
      <trkpt lat="42.583804" lon="-8.621951">
        <ele>207.3</ele>
        <time>2020-09-10T08:24:11Z</time>
      </trkpt>
      <trkpt lat="42.583717" lon="-8.621982">
        <ele>206.4</ele>
        <time>2020-09-10T08:24:14Z</time>
      </trkpt>
      <trkpt lat="42.583652" lon="-8.622024">
        <ele>206.0</ele>
        <time>2020-09-10T08:24:15Z</time>
      </trkpt>
      <trkpt lat="42.583587" lon="-8.622066">
        <ele>205.4</ele>
        <time>2020-09-10T08:24:17Z</time>
      </trkpt>
      <trkpt lat="42.583499" lon="-8.622110">
        <ele>204.3</ele>
        <time>2020-09-10T08:24:20Z</time>
      </trkpt>
      <trkpt lat="42.583420" lon="-8.622147">
        <ele>203.7</ele>
        <time>2020-09-10T08:24:22Z</time>
      </trkpt>
      <trkpt lat="42.583347" lon="-8.622186">
        <ele>203.0</ele>
        <time>2020-09-10T08:24:24Z</time>
      </trkpt>
      <trkpt lat="42.583276" lon="-8.622216">
        <ele>202.3</ele>
        <time>2020-09-10T08:24:26Z</time>
      </trkpt>
      <trkpt lat="42.583202" lon="-8.622252">
        <ele>201.9</ele>
        <time>2020-09-10T08:24:28Z</time>
      </trkpt>
      <trkpt lat="42.583118" lon="-8.622307">
        <ele>201.3</ele>
        <time>2020-09-10T08:24:31Z</time>
      </trkpt>
      <trkpt lat="42.583062" lon="-8.622384">
        <ele>200.6</ele>
        <time>2020-09-10T08:24:33Z</time>
      </trkpt>
      <trkpt lat="42.582973" lon="-8.622460">
        <ele>199.9</ele>
        <time>2020-09-10T08:24:36Z</time>
      </trkpt>
      <trkpt lat="42.582907" lon="-8.622529">
        <ele>198.9</ele>
        <time>2020-09-10T08:24:38Z</time>
      </trkpt>
      <trkpt lat="42.582845" lon="-8.622593">
        <ele>197.6</ele>
        <time>2020-09-10T08:24:40Z</time>
      </trkpt>
      <trkpt lat="42.582787" lon="-8.622658">
        <ele>196.7</ele>
        <time>2020-09-10T08:24:42Z</time>
      </trkpt>
      <trkpt lat="42.582787" lon="-8.622658">
        <ele>196.7</ele>
        <time>2020-09-10T08:24:42Z</time>
      </trkpt>
      <trkpt lat="42.582678" lon="-8.622808">
        <ele>194.5</ele>
        <time>2020-09-10T08:24:46Z</time>
      </trkpt>
      <trkpt lat="42.582639" lon="-8.622889">
        <ele>193.0</ele>
        <time>2020-09-10T08:24:48Z</time>
      </trkpt>
      <trkpt lat="42.582599" lon="-8.622966">
        <ele>191.8</ele>
        <time>2020-09-10T08:24:50Z</time>
      </trkpt>
      <trkpt lat="42.582555" lon="-8.623040">
        <ele>190.8</ele>
        <time>2020-09-10T08:24:52Z</time>
      </trkpt>
      <trkpt lat="42.582506" lon="-8.623098">
        <ele>189.7</ele>
        <time>2020-09-10T08:24:53Z</time>
      </trkpt>
      <trkpt lat="42.582452" lon="-8.623138">
        <ele>188.6</ele>
        <time>2020-09-10T08:24:55Z</time>
      </trkpt>
      <trkpt lat="42.582420" lon="-8.623180">
        <ele>188.0</ele>
        <time>2020-09-10T08:24:56Z</time>
      </trkpt>
      <trkpt lat="42.582379" lon="-8.623206">
        <ele>187.3</ele>
        <time>2020-09-10T08:24:58Z</time>
      </trkpt>
      <trkpt lat="42.582322" lon="-8.623220">
        <ele>186.7</ele>
        <time>2020-09-10T08:24:59Z</time>
      </trkpt>
      <trkpt lat="42.582280" lon="-8.623244">
        <ele>186.0</ele>
        <time>2020-09-10T08:25:00Z</time>
      </trkpt>
      <trkpt lat="42.582227" lon="-8.623270">
        <ele>185.2</ele>
        <time>2020-09-10T08:25:02Z</time>
      </trkpt>
      <trkpt lat="42.582164" lon="-8.623307">
        <ele>184.0</ele>
        <time>2020-09-10T08:25:04Z</time>
      </trkpt>
      <trkpt lat="42.582094" lon="-8.623353">
        <ele>182.9</ele>
        <time>2020-09-10T08:25:06Z</time>
      </trkpt>
      <trkpt lat="42.582038" lon="-8.623411">
        <ele>182.2</ele>
        <time>2020-09-10T08:25:08Z</time>
      </trkpt>
      <trkpt lat="42.581974" lon="-8.623472">
        <ele>181.3</ele>
        <time>2020-09-10T08:25:10Z</time>
      </trkpt>
      <trkpt lat="42.581920" lon="-8.623548">
        <ele>180.2</ele>
        <time>2020-09-10T08:25:12Z</time>
      </trkpt>
      <trkpt lat="42.581864" lon="-8.623625">
        <ele>179.1</ele>
        <time>2020-09-10T08:25:14Z</time>
      </trkpt>
      <trkpt lat="42.581809" lon="-8.623696">
        <ele>178.1</ele>
        <time>2020-09-10T08:25:16Z</time>
      </trkpt>
      <trkpt lat="42.581751" lon="-8.623763">
        <ele>177.1</ele>
        <time>2020-09-10T08:25:18Z</time>
      </trkpt>
      <trkpt lat="42.581714" lon="-8.623829">
        <ele>176.3</ele>
        <time>2020-09-10T08:25:20Z</time>
      </trkpt>
      <trkpt lat="42.581657" lon="-8.623886">
        <ele>175.6</ele>
        <time>2020-09-10T08:25:21Z</time>
      </trkpt>
      <trkpt lat="42.581584" lon="-8.623943">
        <ele>175.0</ele>
        <time>2020-09-10T08:25:24Z</time>
      </trkpt>
      <trkpt lat="42.581513" lon="-8.624006">
        <ele>174.3</ele>
        <time>2020-09-10T08:25:26Z</time>
      </trkpt>
      <trkpt lat="42.581444" lon="-8.624068">
        <ele>173.6</ele>
        <time>2020-09-10T08:25:28Z</time>
      </trkpt>
      <trkpt lat="42.581379" lon="-8.624123">
        <ele>172.9</ele>
        <time>2020-09-10T08:25:30Z</time>
      </trkpt>
      <trkpt lat="42.581318" lon="-8.624182">
        <ele>172.0</ele>
        <time>2020-09-10T08:25:32Z</time>
      </trkpt>
      <trkpt lat="42.581252" lon="-8.624247">
        <ele>170.8</ele>
        <time>2020-09-10T08:25:34Z</time>
      </trkpt>
      <trkpt lat="42.581186" lon="-8.624317">
        <ele>170.0</ele>
        <time>2020-09-10T08:25:37Z</time>
      </trkpt>
      <trkpt lat="42.581121" lon="-8.624382">
        <ele>169.8</ele>
        <time>2020-09-10T08:25:39Z</time>
      </trkpt>
      <trkpt lat="42.581066" lon="-8.624451">
        <ele>169.7</ele>
        <time>2020-09-10T08:25:41Z</time>
      </trkpt>
      <trkpt lat="42.581019" lon="-8.624509">
        <ele>169.6</ele>
        <time>2020-09-10T08:25:42Z</time>
      </trkpt>
      <trkpt lat="42.580965" lon="-8.624564">
        <ele>170.0</ele>
        <time>2020-09-10T08:25:44Z</time>
      </trkpt>
      <trkpt lat="42.580921" lon="-8.624602">
        <ele>170.3</ele>
        <time>2020-09-10T08:25:46Z</time>
      </trkpt>
      <trkpt lat="42.580886" lon="-8.624632">
        <ele>170.6</ele>
        <time>2020-09-10T08:25:47Z</time>
      </trkpt>
      <trkpt lat="42.580858" lon="-8.624672">
        <ele>170.9</ele>
        <time>2020-09-10T08:25:48Z</time>
      </trkpt>
      <trkpt lat="42.580831" lon="-8.624712">
        <ele>171.3</ele>
        <time>2020-09-10T08:25:49Z</time>
      </trkpt>
      <trkpt lat="42.580807" lon="-8.624750">
        <ele>171.6</ele>
        <time>2020-09-10T08:25:50Z</time>
      </trkpt>
      <trkpt lat="42.580781" lon="-8.624784">
        <ele>172.0</ele>
        <time>2020-09-10T08:25:51Z</time>
      </trkpt>
      <trkpt lat="42.580756" lon="-8.624816">
        <ele>172.3</ele>
        <time>2020-09-10T08:25:52Z</time>
      </trkpt>
      <trkpt lat="42.580726" lon="-8.624847">
        <ele>172.5</ele>
        <time>2020-09-10T08:25:53Z</time>
      </trkpt>
      <trkpt lat="42.580699" lon="-8.624885">
        <ele>172.7</ele>
        <time>2020-09-10T08:25:54Z</time>
      </trkpt>
      <trkpt lat="42.580657" lon="-8.624917">
        <ele>172.6</ele>
        <time>2020-09-10T08:25:55Z</time>
      </trkpt>
      <trkpt lat="42.580629" lon="-8.624940">
        <ele>172.6</ele>
        <time>2020-09-10T08:25:56Z</time>
      </trkpt>
      <trkpt lat="42.580615" lon="-8.624965">
        <ele>172.6</ele>
        <time>2020-09-10T08:25:57Z</time>
      </trkpt>
      <trkpt lat="42.580583" lon="-8.624979">
        <ele>172.4</ele>
        <time>2020-09-10T08:25:57Z</time>
      </trkpt>
      <trkpt lat="42.580565" lon="-8.624981">
        <ele>172.1</ele>
        <time>2020-09-10T08:25:58Z</time>
      </trkpt>
      <trkpt lat="42.580539" lon="-8.625018">
        <ele>172.1</ele>
        <time>2020-09-10T08:25:59Z</time>
      </trkpt>
      <trkpt lat="42.580508" lon="-8.625060">
        <ele>172.1</ele>
        <time>2020-09-10T08:26:00Z</time>
      </trkpt>
      <trkpt lat="42.580494" lon="-8.625089">
        <ele>172.2</ele>
        <time>2020-09-10T08:26:01Z</time>
      </trkpt>
      <trkpt lat="42.580464" lon="-8.625130">
        <ele>172.2</ele>
        <time>2020-09-10T08:26:02Z</time>
      </trkpt>
      <trkpt lat="42.580389" lon="-8.625178">
        <ele>171.7</ele>
        <time>2020-09-10T08:26:04Z</time>
      </trkpt>
      <trkpt lat="42.580389" lon="-8.625178">
        <ele>171.7</ele>
        <time>2020-09-10T08:26:04Z</time>
      </trkpt>
      <trkpt lat="42.580277" lon="-8.625298">
        <ele>170.6</ele>
        <time>2020-09-10T08:26:08Z</time>
      </trkpt>
      <trkpt lat="42.580233" lon="-8.625356">
        <ele>170.3</ele>
        <time>2020-09-10T08:26:10Z</time>
      </trkpt>
      <trkpt lat="42.580198" lon="-8.625398">
        <ele>170.0</ele>
        <time>2020-09-10T08:26:11Z</time>
      </trkpt>
      <trkpt lat="42.580179" lon="-8.625429">
        <ele>169.8</ele>
        <time>2020-09-10T08:26:12Z</time>
      </trkpt>
      <trkpt lat="42.580163" lon="-8.625450">
        <ele>169.6</ele>
        <time>2020-09-10T08:26:12Z</time>
      </trkpt>
      <trkpt lat="42.580153" lon="-8.625471">
        <ele>169.4</ele>
        <time>2020-09-10T08:26:13Z</time>
      </trkpt>
      <trkpt lat="42.580147" lon="-8.625487">
        <ele>169.2</ele>
        <time>2020-09-10T08:26:13Z</time>
      </trkpt>
      <trkpt lat="42.580134" lon="-8.625500">
        <ele>169.0</ele>
        <time>2020-09-10T08:26:13Z</time>
      </trkpt>
      <trkpt lat="42.580125" lon="-8.625501">
        <ele>168.9</ele>
        <time>2020-09-10T08:26:14Z</time>
      </trkpt>
      <trkpt lat="42.580111" lon="-8.625507">
        <ele>168.7</ele>
        <time>2020-09-10T08:26:14Z</time>
      </trkpt>
      <trkpt lat="42.580092" lon="-8.625519">
        <ele>168.4</ele>
        <time>2020-09-10T08:26:15Z</time>
      </trkpt>
      <trkpt lat="42.580074" lon="-8.625533">
        <ele>168.0</ele>
        <time>2020-09-10T08:26:15Z</time>
      </trkpt>
      <trkpt lat="42.580056" lon="-8.625545">
        <ele>167.7</ele>
        <time>2020-09-10T08:26:16Z</time>
      </trkpt>
      <trkpt lat="42.580034" lon="-8.625554">
        <ele>167.4</ele>
        <time>2020-09-10T08:26:16Z</time>
      </trkpt>
      <trkpt lat="42.580011" lon="-8.625563">
        <ele>167.2</ele>
        <time>2020-09-10T08:26:17Z</time>
      </trkpt>
      <trkpt lat="42.579987" lon="-8.625574">
        <ele>166.8</ele>
        <time>2020-09-10T08:26:18Z</time>
      </trkpt>
      <trkpt lat="42.579962" lon="-8.625583">
        <ele>166.5</ele>
        <time>2020-09-10T08:26:18Z</time>
      </trkpt>
      <trkpt lat="42.579938" lon="-8.625589">
        <ele>166.3</ele>
        <time>2020-09-10T08:26:19Z</time>
      </trkpt>
      <trkpt lat="42.579918" lon="-8.625589">
        <ele>166.1</ele>
        <time>2020-09-10T08:26:20Z</time>
      </trkpt>
      <trkpt lat="42.579902" lon="-8.625584">
        <ele>166.0</ele>
        <time>2020-09-10T08:26:20Z</time>
      </trkpt>
      <trkpt lat="42.579882" lon="-8.625579">
        <ele>165.9</ele>
        <time>2020-09-10T08:26:21Z</time>
      </trkpt>
      <trkpt lat="42.579862" lon="-8.625574">
        <ele>165.8</ele>
        <time>2020-09-10T08:26:21Z</time>
      </trkpt>
      <trkpt lat="42.579842" lon="-8.625571">
        <ele>165.7</ele>
        <time>2020-09-10T08:26:22Z</time>
      </trkpt>
      <trkpt lat="42.579823" lon="-8.625567">
        <ele>165.5</ele>
        <time>2020-09-10T08:26:22Z</time>
      </trkpt>
      <trkpt lat="42.579805" lon="-8.625563">
        <ele>165.2</ele>
        <time>2020-09-10T08:26:23Z</time>
      </trkpt>
      <trkpt lat="42.579789" lon="-8.625558">
        <ele>164.9</ele>
        <time>2020-09-10T08:26:23Z</time>
      </trkpt>
      <trkpt lat="42.579776" lon="-8.625550">
        <ele>164.8</ele>
        <time>2020-09-10T08:26:23Z</time>
      </trkpt>
      <trkpt lat="42.579763" lon="-8.625543">
        <ele>164.5</ele>
        <time>2020-09-10T08:26:24Z</time>
      </trkpt>
      <trkpt lat="42.579748" lon="-8.625536">
        <ele>164.3</ele>
        <time>2020-09-10T08:26:24Z</time>
      </trkpt>
      <trkpt lat="42.579734" lon="-8.625524">
        <ele>164.1</ele>
        <time>2020-09-10T08:26:25Z</time>
      </trkpt>
      <trkpt lat="42.579721" lon="-8.625507">
        <ele>164.0</ele>
        <time>2020-09-10T08:26:25Z</time>
      </trkpt>
      <trkpt lat="42.579712" lon="-8.625487">
        <ele>164.0</ele>
        <time>2020-09-10T08:26:26Z</time>
      </trkpt>
      <trkpt lat="42.579702" lon="-8.625464">
        <ele>164.0</ele>
        <time>2020-09-10T08:26:26Z</time>
      </trkpt>
      <trkpt lat="42.579690" lon="-8.625443">
        <ele>163.9</ele>
        <time>2020-09-10T08:26:27Z</time>
      </trkpt>
      <trkpt lat="42.579679" lon="-8.625423">
        <ele>163.8</ele>
        <time>2020-09-10T08:26:27Z</time>
      </trkpt>
      <trkpt lat="42.579668" lon="-8.625403">
        <ele>163.6</ele>
        <time>2020-09-10T08:26:28Z</time>
      </trkpt>
      <trkpt lat="42.579654" lon="-8.625374">
        <ele>163.4</ele>
        <time>2020-09-10T08:26:28Z</time>
      </trkpt>
      <trkpt lat="42.579643" lon="-8.625352">
        <ele>163.2</ele>
        <time>2020-09-10T08:26:29Z</time>
      </trkpt>
      <trkpt lat="42.579637" lon="-8.625326">
        <ele>163.1</ele>
        <time>2020-09-10T08:26:29Z</time>
      </trkpt>
      <trkpt lat="42.579631" lon="-8.625294">
        <ele>163.1</ele>
        <time>2020-09-10T08:26:30Z</time>
      </trkpt>
      <trkpt lat="42.579631" lon="-8.625294">
        <ele>163.1</ele>
        <time>2020-09-10T08:26:30Z</time>
      </trkpt>
      <trkpt lat="42.579608" lon="-8.625221">
        <ele>162.9</ele>
        <time>2020-09-10T08:26:32Z</time>
      </trkpt>
      <trkpt lat="42.579601" lon="-8.625179">
        <ele>162.8</ele>
        <time>2020-09-10T08:26:32Z</time>
      </trkpt>
      <trkpt lat="42.579598" lon="-8.625145">
        <ele>162.6</ele>
        <time>2020-09-10T08:26:33Z</time>
      </trkpt>
      <trkpt lat="42.579595" lon="-8.625120">
        <ele>162.5</ele>
        <time>2020-09-10T08:26:34Z</time>
      </trkpt>
      <trkpt lat="42.579594" lon="-8.625087">
        <ele>162.5</ele>
        <time>2020-09-10T08:26:34Z</time>
      </trkpt>
      <trkpt lat="42.579594" lon="-8.625051">
        <ele>162.5</ele>
        <time>2020-09-10T08:26:35Z</time>
      </trkpt>
      <trkpt lat="42.579593" lon="-8.625009">
        <ele>162.4</ele>
        <time>2020-09-10T08:26:36Z</time>
      </trkpt>
      <trkpt lat="42.579590" lon="-8.624967">
        <ele>162.3</ele>
        <time>2020-09-10T08:26:37Z</time>
      </trkpt>
      <trkpt lat="42.579592" lon="-8.624931">
        <ele>162.4</ele>
        <time>2020-09-10T08:26:37Z</time>
      </trkpt>
      <trkpt lat="42.579595" lon="-8.624890">
        <ele>162.4</ele>
        <time>2020-09-10T08:26:38Z</time>
      </trkpt>
      <trkpt lat="42.579595" lon="-8.624859">
        <ele>162.4</ele>
        <time>2020-09-10T08:26:39Z</time>
      </trkpt>
      <trkpt lat="42.579591" lon="-8.624823">
        <ele>162.2</ele>
        <time>2020-09-10T08:26:39Z</time>
      </trkpt>
      <trkpt lat="42.579588" lon="-8.624797">
        <ele>162.1</ele>
        <time>2020-09-10T08:26:40Z</time>
      </trkpt>
      <trkpt lat="42.579588" lon="-8.624772">
        <ele>162.0</ele>
        <time>2020-09-10T08:26:40Z</time>
      </trkpt>
      <trkpt lat="42.579588" lon="-8.624741">
        <ele>162.0</ele>
        <time>2020-09-10T08:26:41Z</time>
      </trkpt>
      <trkpt lat="42.579589" lon="-8.624710">
        <ele>162.0</ele>
        <time>2020-09-10T08:26:42Z</time>
      </trkpt>
      <trkpt lat="42.579598" lon="-8.624685">
        <ele>162.3</ele>
        <time>2020-09-10T08:26:42Z</time>
      </trkpt>
      <trkpt lat="42.579603" lon="-8.624652">
        <ele>162.4</ele>
        <time>2020-09-10T08:26:43Z</time>
      </trkpt>
      <trkpt lat="42.579611" lon="-8.624619">
        <ele>162.5</ele>
        <time>2020-09-10T08:26:44Z</time>
      </trkpt>
      <trkpt lat="42.579616" lon="-8.624575">
        <ele>162.5</ele>
        <time>2020-09-10T08:26:44Z</time>
      </trkpt>
      <trkpt lat="42.579617" lon="-8.624513">
        <ele>162.4</ele>
        <time>2020-09-10T08:26:46Z</time>
      </trkpt>
      <trkpt lat="42.579617" lon="-8.624513">
        <ele>162.4</ele>
        <time>2020-09-10T08:26:46Z</time>
      </trkpt>
      <trkpt lat="42.579619" lon="-8.624399">
        <ele>162.3</ele>
        <time>2020-09-10T08:26:48Z</time>
      </trkpt>
      <trkpt lat="42.579629" lon="-8.624367">
        <ele>162.4</ele>
        <time>2020-09-10T08:26:49Z</time>
      </trkpt>
      <trkpt lat="42.579644" lon="-8.624345">
        <ele>162.6</ele>
        <time>2020-09-10T08:26:49Z</time>
      </trkpt>
      <trkpt lat="42.579656" lon="-8.624300">
        <ele>162.7</ele>
        <time>2020-09-10T08:26:50Z</time>
      </trkpt>
      <trkpt lat="42.579658" lon="-8.624249">
        <ele>162.6</ele>
        <time>2020-09-10T08:26:51Z</time>
      </trkpt>
      <trkpt lat="42.579666" lon="-8.624214">
        <ele>162.6</ele>
        <time>2020-09-10T08:26:52Z</time>
      </trkpt>
      <trkpt lat="42.579680" lon="-8.624187">
        <ele>162.8</ele>
        <time>2020-09-10T08:26:53Z</time>
      </trkpt>
      <trkpt lat="42.579702" lon="-8.624172">
        <ele>163.1</ele>
        <time>2020-09-10T08:26:53Z</time>
      </trkpt>
      <trkpt lat="42.579721" lon="-8.624151">
        <ele>163.3</ele>
        <time>2020-09-10T08:26:54Z</time>
      </trkpt>
      <trkpt lat="42.579738" lon="-8.624136">
        <ele>163.5</ele>
        <time>2020-09-10T08:26:54Z</time>
      </trkpt>
      <trkpt lat="42.579782" lon="-8.624109">
        <ele>164.0</ele>
        <time>2020-09-10T08:26:56Z</time>
      </trkpt>
      <trkpt lat="42.579785" lon="-8.624073">
        <ele>164.0</ele>
        <time>2020-09-10T08:26:56Z</time>
      </trkpt>
      <trkpt lat="42.579785" lon="-8.624073">
        <ele>164.0</ele>
        <time>2020-09-10T08:26:56Z</time>
      </trkpt>
      <trkpt lat="42.579832" lon="-8.623988">
        <ele>164.1</ele>
        <time>2020-09-10T08:26:58Z</time>
      </trkpt>
      <trkpt lat="42.579850" lon="-8.623949">
        <ele>164.0</ele>
        <time>2020-09-10T08:26:59Z</time>
      </trkpt>
      <trkpt lat="42.579850" lon="-8.623949">
        <ele>164.0</ele>
        <time>2020-09-10T08:26:59Z</time>
      </trkpt>
      <trkpt lat="42.579891" lon="-8.623885">
        <ele>164.0</ele>
        <time>2020-09-10T08:27:01Z</time>
      </trkpt>
      <trkpt lat="42.579910" lon="-8.623851">
        <ele>163.9</ele>
        <time>2020-09-10T08:27:02Z</time>
      </trkpt>
      <trkpt lat="42.579926" lon="-8.623815">
        <ele>163.8</ele>
        <time>2020-09-10T08:27:03Z</time>
      </trkpt>
      <trkpt lat="42.579948" lon="-8.623773">
        <ele>163.7</ele>
        <time>2020-09-10T08:27:04Z</time>
      </trkpt>
      <trkpt lat="42.579964" lon="-8.623736">
        <ele>163.6</ele>
        <time>2020-09-10T08:27:05Z</time>
      </trkpt>
      <trkpt lat="42.579986" lon="-8.623698">
        <ele>163.5</ele>
        <time>2020-09-10T08:27:05Z</time>
      </trkpt>
      <trkpt lat="42.580011" lon="-8.623640">
        <ele>163.3</ele>
        <time>2020-09-10T08:27:07Z</time>
      </trkpt>
      <trkpt lat="42.580024" lon="-8.623592">
        <ele>163.0</ele>
        <time>2020-09-10T08:27:08Z</time>
      </trkpt>
      <trkpt lat="42.580045" lon="-8.623538">
        <ele>162.8</ele>
        <time>2020-09-10T08:27:09Z</time>
      </trkpt>
      <trkpt lat="42.580062" lon="-8.623500">
        <ele>162.6</ele>
        <time>2020-09-10T08:27:10Z</time>
      </trkpt>
      <trkpt lat="42.580069" lon="-8.623472">
        <ele>162.4</ele>
        <time>2020-09-10T08:27:10Z</time>
      </trkpt>
      <trkpt lat="42.580081" lon="-8.623447">
        <ele>162.2</ele>
        <time>2020-09-10T08:27:11Z</time>
      </trkpt>
      <trkpt lat="42.580091" lon="-8.623412">
        <ele>161.9</ele>
        <time>2020-09-10T08:27:12Z</time>
      </trkpt>
      <trkpt lat="42.580103" lon="-8.623376">
        <ele>161.7</ele>
        <time>2020-09-10T08:27:13Z</time>
      </trkpt>
      <trkpt lat="42.580141" lon="-8.623326">
        <ele>161.4</ele>
        <time>2020-09-10T08:27:14Z</time>
      </trkpt>
      <trkpt lat="42.580174" lon="-8.623282">
        <ele>161.2</ele>
        <time>2020-09-10T08:27:15Z</time>
      </trkpt>
      <trkpt lat="42.580196" lon="-8.623235">
        <ele>161.0</ele>
        <time>2020-09-10T08:27:16Z</time>
      </trkpt>
      <trkpt lat="42.580196" lon="-8.623205">
        <ele>160.8</ele>
        <time>2020-09-10T08:27:17Z</time>
      </trkpt>
      <trkpt lat="42.580190" lon="-8.623183">
        <ele>160.7</ele>
        <time>2020-09-10T08:27:17Z</time>
      </trkpt>
      <trkpt lat="42.580192" lon="-8.623149">
        <ele>160.5</ele>
        <time>2020-09-10T08:27:18Z</time>
      </trkpt>
      <trkpt lat="42.580181" lon="-8.623086">
        <ele>160.3</ele>
        <time>2020-09-10T08:27:19Z</time>
      </trkpt>
      <trkpt lat="42.580166" lon="-8.623019">
        <ele>160.2</ele>
        <time>2020-09-10T08:27:21Z</time>
      </trkpt>
      <trkpt lat="42.580154" lon="-8.622969">
        <ele>160.0</ele>
        <time>2020-09-10T08:27:22Z</time>
      </trkpt>
      <trkpt lat="42.580143" lon="-8.622944">
        <ele>160.0</ele>
        <time>2020-09-10T08:27:22Z</time>
      </trkpt>
      <trkpt lat="42.580133" lon="-8.622934">
        <ele>159.9</ele>
        <time>2020-09-10T08:27:23Z</time>
      </trkpt>
      <trkpt lat="42.580114" lon="-8.622935">
        <ele>159.8</ele>
        <time>2020-09-10T08:27:23Z</time>
      </trkpt>
      <trkpt lat="42.580090" lon="-8.622941">
        <ele>159.6</ele>
        <time>2020-09-10T08:27:24Z</time>
      </trkpt>
      <trkpt lat="42.580058" lon="-8.622936">
        <ele>159.5</ele>
        <time>2020-09-10T08:27:25Z</time>
      </trkpt>
      <trkpt lat="42.580021" lon="-8.622943">
        <ele>159.9</ele>
        <time>2020-09-10T08:27:26Z</time>
      </trkpt>
      <trkpt lat="42.579991" lon="-8.622966">
        <ele>160.2</ele>
        <time>2020-09-10T08:27:27Z</time>
      </trkpt>
      <trkpt lat="42.579977" lon="-8.622995">
        <ele>160.2</ele>
        <time>2020-09-10T08:27:27Z</time>
      </trkpt>
      <trkpt lat="42.579967" lon="-8.623018">
        <ele>160.2</ele>
        <time>2020-09-10T08:27:28Z</time>
      </trkpt>
      <trkpt lat="42.579956" lon="-8.623039">
        <ele>160.2</ele>
        <time>2020-09-10T08:27:28Z</time>
      </trkpt>
      <trkpt lat="42.579949" lon="-8.623057">
        <ele>160.1</ele>
        <time>2020-09-10T08:27:29Z</time>
      </trkpt>
      <trkpt lat="42.579952" lon="-8.623087">
        <ele>159.9</ele>
        <time>2020-09-10T08:27:29Z</time>
      </trkpt>
      <trkpt lat="42.579932" lon="-8.623125">
        <ele>159.8</ele>
        <time>2020-09-10T08:27:30Z</time>
      </trkpt>
      <trkpt lat="42.579866" lon="-8.623163">
        <ele>160.0</ele>
        <time>2020-09-10T08:27:32Z</time>
      </trkpt>
      <trkpt lat="42.579805" lon="-8.623199">
        <ele>160.5</ele>
        <time>2020-09-10T08:27:34Z</time>
      </trkpt>
      <trkpt lat="42.579805" lon="-8.623199">
        <ele>160.5</ele>
        <time>2020-09-10T08:27:34Z</time>
      </trkpt>
      <trkpt lat="42.579744" lon="-8.623270">
        <ele>161.0</ele>
        <time>2020-09-10T08:27:36Z</time>
      </trkpt>
      <trkpt lat="42.579711" lon="-8.623314">
        <ele>161.0</ele>
        <time>2020-09-10T08:27:37Z</time>
      </trkpt>
      <trkpt lat="42.579669" lon="-8.623356">
        <ele>160.8</ele>
        <time>2020-09-10T08:27:39Z</time>
      </trkpt>
      <trkpt lat="42.579629" lon="-8.623399">
        <ele>160.7</ele>
        <time>2020-09-10T08:27:40Z</time>
      </trkpt>
      <trkpt lat="42.579586" lon="-8.623440">
        <ele>160.7</ele>
        <time>2020-09-10T08:27:41Z</time>
      </trkpt>
      <trkpt lat="42.579544" lon="-8.623478">
        <ele>161.2</ele>
        <time>2020-09-10T08:27:43Z</time>
      </trkpt>
      <trkpt lat="42.579503" lon="-8.623503">
        <ele>161.6</ele>
        <time>2020-09-10T08:27:44Z</time>
      </trkpt>
      <trkpt lat="42.579489" lon="-8.623542">
        <ele>161.4</ele>
        <time>2020-09-10T08:27:45Z</time>
      </trkpt>
      <trkpt lat="42.579484" lon="-8.623591">
        <ele>160.9</ele>
        <time>2020-09-10T08:27:46Z</time>
      </trkpt>
      <trkpt lat="42.579477" lon="-8.623647">
        <ele>160.7</ele>
        <time>2020-09-10T08:27:47Z</time>
      </trkpt>
      <trkpt lat="42.579441" lon="-8.623703">
        <ele>160.6</ele>
        <time>2020-09-10T08:27:48Z</time>
      </trkpt>
      <trkpt lat="42.579411" lon="-8.623761">
        <ele>160.3</ele>
        <time>2020-09-10T08:27:50Z</time>
      </trkpt>
      <trkpt lat="42.579411" lon="-8.623761">
        <ele>160.3</ele>
        <time>2020-09-10T08:27:50Z</time>
      </trkpt>
      <trkpt lat="42.579310" lon="-8.623908">
        <ele>160.1</ele>
        <time>2020-09-10T08:27:54Z</time>
      </trkpt>
      <trkpt lat="42.579270" lon="-8.623996">
        <ele>159.7</ele>
        <time>2020-09-10T08:27:56Z</time>
      </trkpt>
      <trkpt lat="42.579216" lon="-8.624081">
        <ele>159.1</ele>
        <time>2020-09-10T08:27:58Z</time>
      </trkpt>
      <trkpt lat="42.579175" lon="-8.624168">
        <ele>158.3</ele>
        <time>2020-09-10T08:28:00Z</time>
      </trkpt>
      <trkpt lat="42.579134" lon="-8.624245">
        <ele>157.3</ele>
        <time>2020-09-10T08:28:02Z</time>
      </trkpt>
      <trkpt lat="42.579097" lon="-8.624312">
        <ele>156.9</ele>
        <time>2020-09-10T08:28:03Z</time>
      </trkpt>
      <trkpt lat="42.579056" lon="-8.624380">
        <ele>156.5</ele>
        <time>2020-09-10T08:28:05Z</time>
      </trkpt>
      <trkpt lat="42.579018" lon="-8.624445">
        <ele>156.0</ele>
        <time>2020-09-10T08:28:07Z</time>
      </trkpt>
      <trkpt lat="42.578982" lon="-8.624511">
        <ele>155.3</ele>
        <time>2020-09-10T08:28:08Z</time>
      </trkpt>
      <trkpt lat="42.578953" lon="-8.624570">
        <ele>154.7</ele>
        <time>2020-09-10T08:28:10Z</time>
      </trkpt>
      <trkpt lat="42.578920" lon="-8.624616">
        <ele>154.3</ele>
        <time>2020-09-10T08:28:11Z</time>
      </trkpt>
      <trkpt lat="42.578894" lon="-8.624652">
        <ele>154.1</ele>
        <time>2020-09-10T08:28:12Z</time>
      </trkpt>
      <trkpt lat="42.578894" lon="-8.624652">
        <ele>154.1</ele>
        <time>2020-09-10T08:28:12Z</time>
      </trkpt>
      <trkpt lat="42.578841" lon="-8.624705">
        <ele>154.5</ele>
        <time>2020-09-10T08:28:14Z</time>
      </trkpt>
      <trkpt lat="42.578825" lon="-8.624715">
        <ele>154.7</ele>
        <time>2020-09-10T08:28:14Z</time>
      </trkpt>
      <trkpt lat="42.578819" lon="-8.624715">
        <ele>154.8</ele>
        <time>2020-09-10T08:28:14Z</time>
      </trkpt>
      <trkpt lat="42.578818" lon="-8.624709">
        <ele>154.9</ele>
        <time>2020-09-10T08:28:15Z</time>
      </trkpt>
      <trkpt lat="42.578821" lon="-8.624694">
        <ele>155.0</ele>
        <time>2020-09-10T08:28:15Z</time>
      </trkpt>
      <trkpt lat="42.578820" lon="-8.624669">
        <ele>155.4</ele>
        <time>2020-09-10T08:28:15Z</time>
      </trkpt>
      <trkpt lat="42.578822" lon="-8.624642">
        <ele>155.7</ele>
        <time>2020-09-10T08:28:16Z</time>
      </trkpt>
      <trkpt lat="42.578826" lon="-8.624613">
        <ele>156.0</ele>
        <time>2020-09-10T08:28:16Z</time>
      </trkpt>
      <trkpt lat="42.578832" lon="-8.624578">
        <ele>156.4</ele>
        <time>2020-09-10T08:28:17Z</time>
      </trkpt>
      <trkpt lat="42.578844" lon="-8.624544">
        <ele>156.6</ele>
        <time>2020-09-10T08:28:18Z</time>
      </trkpt>
      <trkpt lat="42.578859" lon="-8.624515">
        <ele>156.8</ele>
        <time>2020-09-10T08:28:19Z</time>
      </trkpt>
      <trkpt lat="42.578875" lon="-8.624488">
        <ele>156.9</ele>
        <time>2020-09-10T08:28:19Z</time>
      </trkpt>
      <trkpt lat="42.578889" lon="-8.624463">
        <ele>157.1</ele>
        <time>2020-09-10T08:28:20Z</time>
      </trkpt>
      <trkpt lat="42.578901" lon="-8.624433">
        <ele>157.4</ele>
        <time>2020-09-10T08:28:21Z</time>
      </trkpt>
      <trkpt lat="42.578915" lon="-8.624404">
        <ele>157.7</ele>
        <time>2020-09-10T08:28:21Z</time>
      </trkpt>
      <trkpt lat="42.578915" lon="-8.624404">
        <ele>157.7</ele>
        <time>2020-09-10T08:28:21Z</time>
      </trkpt>
      <trkpt lat="42.578940" lon="-8.624347">
        <ele>158.4</ele>
        <time>2020-09-10T08:28:23Z</time>
      </trkpt>
      <trkpt lat="42.578952" lon="-8.624317">
        <ele>158.7</ele>
        <time>2020-09-10T08:28:23Z</time>
      </trkpt>
      <trkpt lat="42.578952" lon="-8.624317">
        <ele>158.7</ele>
        <time>2020-09-10T08:28:23Z</time>
      </trkpt>
      <trkpt lat="42.578977" lon="-8.624257">
        <ele>159.3</ele>
        <time>2020-09-10T08:28:25Z</time>
      </trkpt>
      <trkpt lat="42.578989" lon="-8.624228">
        <ele>159.6</ele>
        <time>2020-09-10T08:28:25Z</time>
      </trkpt>
      <trkpt lat="42.578989" lon="-8.624228">
        <ele>159.6</ele>
        <time>2020-09-10T08:28:25Z</time>
      </trkpt>
      <trkpt lat="42.579010" lon="-8.624161">
        <ele>160.4</ele>
        <time>2020-09-10T08:28:27Z</time>
      </trkpt>
      <trkpt lat="42.579018" lon="-8.624128">
        <ele>160.8</ele>
        <time>2020-09-10T08:28:27Z</time>
      </trkpt>
      <trkpt lat="42.579028" lon="-8.624097">
        <ele>161.1</ele>
        <time>2020-09-10T08:28:28Z</time>
      </trkpt>
      <trkpt lat="42.579035" lon="-8.624075">
        <ele>161.3</ele>
        <time>2020-09-10T08:28:28Z</time>
      </trkpt>
      <trkpt lat="42.579036" lon="-8.624068">
        <ele>161.3</ele>
        <time>2020-09-10T08:28:29Z</time>
      </trkpt>
      <trkpt lat="42.579037" lon="-8.624057">
        <ele>161.5</ele>
        <time>2020-09-10T08:28:29Z</time>
      </trkpt>
      <trkpt lat="42.579039" lon="-8.624034">
        <ele>161.9</ele>
        <time>2020-09-10T08:28:29Z</time>
      </trkpt>
      <trkpt lat="42.579049" lon="-8.624012">
        <ele>162.2</ele>
        <time>2020-09-10T08:28:30Z</time>
      </trkpt>
      <trkpt lat="42.579059" lon="-8.623984">
        <ele>162.5</ele>
        <time>2020-09-10T08:28:30Z</time>
      </trkpt>
      <trkpt lat="42.579069" lon="-8.623953">
        <ele>163.0</ele>
        <time>2020-09-10T08:28:31Z</time>
      </trkpt>
      <trkpt lat="42.579077" lon="-8.623922">
        <ele>163.4</ele>
        <time>2020-09-10T08:28:32Z</time>
      </trkpt>
      <trkpt lat="42.579085" lon="-8.623891">
        <ele>163.9</ele>
        <time>2020-09-10T08:28:32Z</time>
      </trkpt>
      <trkpt lat="42.579091" lon="-8.623859">
        <ele>164.4</ele>
        <time>2020-09-10T08:28:33Z</time>
      </trkpt>
      <trkpt lat="42.579102" lon="-8.623828">
        <ele>164.7</ele>
        <time>2020-09-10T08:28:34Z</time>
      </trkpt>
      <trkpt lat="42.579113" lon="-8.623798">
        <ele>165.1</ele>
        <time>2020-09-10T08:28:34Z</time>
      </trkpt>
      <trkpt lat="42.579125" lon="-8.623770">
        <ele>165.3</ele>
        <time>2020-09-10T08:28:35Z</time>
      </trkpt>
      <trkpt lat="42.579137" lon="-8.623744">
        <ele>165.6</ele>
        <time>2020-09-10T08:28:36Z</time>
      </trkpt>
      <trkpt lat="42.579146" lon="-8.623714">
        <ele>166.0</ele>
        <time>2020-09-10T08:28:36Z</time>
      </trkpt>
      <trkpt lat="42.579153" lon="-8.623685">
        <ele>166.3</ele>
        <time>2020-09-10T08:28:37Z</time>
      </trkpt>
      <trkpt lat="42.579158" lon="-8.623655">
        <ele>166.7</ele>
        <time>2020-09-10T08:28:37Z</time>
      </trkpt>
      <trkpt lat="42.579167" lon="-8.623626">
        <ele>167.0</ele>
        <time>2020-09-10T08:28:38Z</time>
      </trkpt>
      <trkpt lat="42.579177" lon="-8.623597">
        <ele>167.3</ele>
        <time>2020-09-10T08:28:39Z</time>
      </trkpt>
      <trkpt lat="42.579187" lon="-8.623571">
        <ele>167.5</ele>
        <time>2020-09-10T08:28:39Z</time>
      </trkpt>
      <trkpt lat="42.579200" lon="-8.623545">
        <ele>167.7</ele>
        <time>2020-09-10T08:28:40Z</time>
      </trkpt>
      <trkpt lat="42.579211" lon="-8.623519">
        <ele>167.9</ele>
        <time>2020-09-10T08:28:40Z</time>
      </trkpt>
      <trkpt lat="42.579226" lon="-8.623495">
        <ele>167.9</ele>
        <time>2020-09-10T08:28:41Z</time>
      </trkpt>
      <trkpt lat="42.579241" lon="-8.623467">
        <ele>168.0</ele>
        <time>2020-09-10T08:28:42Z</time>
      </trkpt>
      <trkpt lat="42.579253" lon="-8.623436">
        <ele>168.2</ele>
        <time>2020-09-10T08:28:42Z</time>
      </trkpt>
      <trkpt lat="42.579255" lon="-8.623414">
        <ele>168.6</ele>
        <time>2020-09-10T08:28:43Z</time>
      </trkpt>
      <trkpt lat="42.579251" lon="-8.623388">
        <ele>169.2</ele>
        <time>2020-09-10T08:28:43Z</time>
      </trkpt>
      <trkpt lat="42.579251" lon="-8.623388">
        <ele>169.2</ele>
        <time>2020-09-10T08:28:43Z</time>
      </trkpt>
      <trkpt lat="42.579249" lon="-8.623342">
        <ele>170.1</ele>
        <time>2020-09-10T08:28:44Z</time>
      </trkpt>
      <trkpt lat="42.579253" lon="-8.623319">
        <ele>170.5</ele>
        <time>2020-09-10T08:28:45Z</time>
      </trkpt>
      <trkpt lat="42.579256" lon="-8.623295">
        <ele>170.9</ele>
        <time>2020-09-10T08:28:45Z</time>
      </trkpt>
      <trkpt lat="42.579255" lon="-8.623264">
        <ele>171.5</ele>
        <time>2020-09-10T08:28:46Z</time>
      </trkpt>
      <trkpt lat="42.579256" lon="-8.623235">
        <ele>172.0</ele>
        <time>2020-09-10T08:28:46Z</time>
      </trkpt>
      <trkpt lat="42.579256" lon="-8.623235">
        <ele>172.0</ele>
        <time>2020-09-10T08:28:46Z</time>
      </trkpt>
      <trkpt lat="42.579269" lon="-8.623176">
        <ele>172.8</ele>
        <time>2020-09-10T08:28:48Z</time>
      </trkpt>
      <trkpt lat="42.579281" lon="-8.623145">
        <ele>173.1</ele>
        <time>2020-09-10T08:28:48Z</time>
      </trkpt>
      <trkpt lat="42.579295" lon="-8.623115">
        <ele>173.3</ele>
        <time>2020-09-10T08:28:49Z</time>
      </trkpt>
      <trkpt lat="42.579306" lon="-8.623080">
        <ele>173.7</ele>
        <time>2020-09-10T08:28:50Z</time>
      </trkpt>
      <trkpt lat="42.579312" lon="-8.623048">
        <ele>174.1</ele>
        <time>2020-09-10T08:28:50Z</time>
      </trkpt>
      <trkpt lat="42.579314" lon="-8.623015">
        <ele>174.6</ele>
        <time>2020-09-10T08:28:51Z</time>
      </trkpt>
      <trkpt lat="42.579315" lon="-8.622987">
        <ele>175.2</ele>
        <time>2020-09-10T08:28:52Z</time>
      </trkpt>
      <trkpt lat="42.579315" lon="-8.622946">
        <ele>175.9</ele>
        <time>2020-09-10T08:28:52Z</time>
      </trkpt>
      <trkpt lat="42.579319" lon="-8.622910">
        <ele>176.5</ele>
        <time>2020-09-10T08:28:53Z</time>
      </trkpt>
      <trkpt lat="42.579325" lon="-8.622877">
        <ele>176.9</ele>
        <time>2020-09-10T08:28:54Z</time>
      </trkpt>
      <trkpt lat="42.579327" lon="-8.622831">
        <ele>177.5</ele>
        <time>2020-09-10T08:28:55Z</time>
      </trkpt>
      <trkpt lat="42.579331" lon="-8.622792">
        <ele>177.9</ele>
        <time>2020-09-10T08:28:55Z</time>
      </trkpt>
      <trkpt lat="42.579334" lon="-8.622753">
        <ele>178.4</ele>
        <time>2020-09-10T08:28:56Z</time>
      </trkpt>
      <trkpt lat="42.579339" lon="-8.622719">
        <ele>178.8</ele>
        <time>2020-09-10T08:28:57Z</time>
      </trkpt>
      <trkpt lat="42.579347" lon="-8.622689">
        <ele>179.0</ele>
        <time>2020-09-10T08:28:58Z</time>
      </trkpt>
      <trkpt lat="42.579351" lon="-8.622658">
        <ele>179.4</ele>
        <time>2020-09-10T08:28:58Z</time>
      </trkpt>
      <trkpt lat="42.579359" lon="-8.622626">
        <ele>179.7</ele>
        <time>2020-09-10T08:28:59Z</time>
      </trkpt>
      <trkpt lat="42.579372" lon="-8.622594">
        <ele>179.9</ele>
        <time>2020-09-10T08:29:00Z</time>
      </trkpt>
      <trkpt lat="42.579388" lon="-8.622566">
        <ele>179.9</ele>
        <time>2020-09-10T08:29:00Z</time>
      </trkpt>
      <trkpt lat="42.579404" lon="-8.622540">
        <ele>179.9</ele>
        <time>2020-09-10T08:29:01Z</time>
      </trkpt>
      <trkpt lat="42.579414" lon="-8.622502">
        <ele>180.2</ele>
        <time>2020-09-10T08:29:02Z</time>
      </trkpt>
      <trkpt lat="42.579422" lon="-8.622464">
        <ele>180.6</ele>
        <time>2020-09-10T08:29:02Z</time>
      </trkpt>
      <trkpt lat="42.579424" lon="-8.622433">
        <ele>181.1</ele>
        <time>2020-09-10T08:29:03Z</time>
      </trkpt>
      <trkpt lat="42.579419" lon="-8.622403">
        <ele>181.7</ele>
        <time>2020-09-10T08:29:04Z</time>
      </trkpt>
      <trkpt lat="42.579420" lon="-8.622386">
        <ele>182.0</ele>
        <time>2020-09-10T08:29:04Z</time>
      </trkpt>
      <trkpt lat="42.579425" lon="-8.622367">
        <ele>182.1</ele>
        <time>2020-09-10T08:29:04Z</time>
      </trkpt>
      <trkpt lat="42.579441" lon="-8.622328">
        <ele>182.4</ele>
        <time>2020-09-10T08:29:05Z</time>
      </trkpt>
      <trkpt lat="42.579464" lon="-8.622294">
        <ele>182.4</ele>
        <time>2020-09-10T08:29:06Z</time>
      </trkpt>
      <trkpt lat="42.579484" lon="-8.622258">
        <ele>182.5</ele>
        <time>2020-09-10T08:29:07Z</time>
      </trkpt>
      <trkpt lat="42.579507" lon="-8.622220">
        <ele>182.6</ele>
        <time>2020-09-10T08:29:08Z</time>
      </trkpt>
      <trkpt lat="42.579535" lon="-8.622180">
        <ele>182.5</ele>
        <time>2020-09-10T08:29:09Z</time>
      </trkpt>
      <trkpt lat="42.579535" lon="-8.622180">
        <ele>182.5</ele>
        <time>2020-09-10T08:29:09Z</time>
      </trkpt>
      <trkpt lat="42.579550" lon="-8.622111">
        <ele>183.2</ele>
        <time>2020-09-10T08:29:11Z</time>
      </trkpt>
      <trkpt lat="42.579552" lon="-8.622077">
        <ele>183.6</ele>
        <time>2020-09-10T08:29:11Z</time>
      </trkpt>
      <trkpt lat="42.579561" lon="-8.622042">
        <ele>183.9</ele>
        <time>2020-09-10T08:29:12Z</time>
      </trkpt>
      <trkpt lat="42.579573" lon="-8.622007">
        <ele>184.1</ele>
        <time>2020-09-10T08:29:13Z</time>
      </trkpt>
      <trkpt lat="42.579584" lon="-8.621972">
        <ele>184.3</ele>
        <time>2020-09-10T08:29:13Z</time>
      </trkpt>
      <trkpt lat="42.579589" lon="-8.621935">
        <ele>184.6</ele>
        <time>2020-09-10T08:29:14Z</time>
      </trkpt>
      <trkpt lat="42.579597" lon="-8.621897">
        <ele>184.8</ele>
        <time>2020-09-10T08:29:15Z</time>
      </trkpt>
      <trkpt lat="42.579600" lon="-8.621862">
        <ele>185.1</ele>
        <time>2020-09-10T08:29:16Z</time>
      </trkpt>
      <trkpt lat="42.579604" lon="-8.621825">
        <ele>185.4</ele>
        <time>2020-09-10T08:29:16Z</time>
      </trkpt>
      <trkpt lat="42.579604" lon="-8.621788">
        <ele>185.8</ele>
        <time>2020-09-10T08:29:17Z</time>
      </trkpt>
      <trkpt lat="42.579604" lon="-8.621746">
        <ele>186.2</ele>
        <time>2020-09-10T08:29:18Z</time>
      </trkpt>
      <trkpt lat="42.579602" lon="-8.621704">
        <ele>186.5</ele>
        <time>2020-09-10T08:29:19Z</time>
      </trkpt>
      <trkpt lat="42.579598" lon="-8.621651">
        <ele>186.9</ele>
        <time>2020-09-10T08:29:20Z</time>
      </trkpt>
      <trkpt lat="42.579605" lon="-8.621591">
        <ele>187.0</ele>
        <time>2020-09-10T08:29:21Z</time>
      </trkpt>
      <trkpt lat="42.579603" lon="-8.621540">
        <ele>187.3</ele>
        <time>2020-09-10T08:29:22Z</time>
      </trkpt>
      <trkpt lat="42.579595" lon="-8.621489">
        <ele>187.6</ele>
        <time>2020-09-10T08:29:23Z</time>
      </trkpt>
      <trkpt lat="42.579588" lon="-8.621441">
        <ele>187.8</ele>
        <time>2020-09-10T08:29:24Z</time>
      </trkpt>
      <trkpt lat="42.579585" lon="-8.621398">
        <ele>188.0</ele>
        <time>2020-09-10T08:29:25Z</time>
      </trkpt>
      <trkpt lat="42.579585" lon="-8.621356">
        <ele>188.0</ele>
        <time>2020-09-10T08:29:26Z</time>
      </trkpt>
      <trkpt lat="42.579585" lon="-8.621301">
        <ele>187.9</ele>
        <time>2020-09-10T08:29:27Z</time>
      </trkpt>
      <trkpt lat="42.579584" lon="-8.621260">
        <ele>188.1</ele>
        <time>2020-09-10T08:29:28Z</time>
      </trkpt>
      <trkpt lat="42.579593" lon="-8.621204">
        <ele>188.1</ele>
        <time>2020-09-10T08:29:29Z</time>
      </trkpt>
      <trkpt lat="42.579610" lon="-8.621157">
        <ele>187.9</ele>
        <time>2020-09-10T08:29:30Z</time>
      </trkpt>
      <trkpt lat="42.579638" lon="-8.621107">
        <ele>187.6</ele>
        <time>2020-09-10T08:29:31Z</time>
      </trkpt>
      <trkpt lat="42.579654" lon="-8.621061">
        <ele>187.6</ele>
        <time>2020-09-10T08:29:32Z</time>
      </trkpt>
      <trkpt lat="42.579661" lon="-8.621009">
        <ele>188.3</ele>
        <time>2020-09-10T08:29:33Z</time>
      </trkpt>
      <trkpt lat="42.579675" lon="-8.620971">
        <ele>188.6</ele>
        <time>2020-09-10T08:29:34Z</time>
      </trkpt>
      <trkpt lat="42.579685" lon="-8.620930">
        <ele>189.1</ele>
        <time>2020-09-10T08:29:35Z</time>
      </trkpt>
      <trkpt lat="42.579696" lon="-8.620903">
        <ele>189.4</ele>
        <time>2020-09-10T08:29:35Z</time>
      </trkpt>
      <trkpt lat="42.579716" lon="-8.620881">
        <ele>189.5</ele>
        <time>2020-09-10T08:29:36Z</time>
      </trkpt>
      <trkpt lat="42.579739" lon="-8.620843">
        <ele>189.8</ele>
        <time>2020-09-10T08:29:37Z</time>
      </trkpt>
      <trkpt lat="42.579757" lon="-8.620815">
        <ele>190.0</ele>
        <time>2020-09-10T08:29:38Z</time>
      </trkpt>
      <trkpt lat="42.579764" lon="-8.620787">
        <ele>190.3</ele>
        <time>2020-09-10T08:29:38Z</time>
      </trkpt>
      <trkpt lat="42.579765" lon="-8.620759">
        <ele>190.7</ele>
        <time>2020-09-10T08:29:39Z</time>
      </trkpt>
      <trkpt lat="42.579765" lon="-8.620733">
        <ele>191.2</ele>
        <time>2020-09-10T08:29:39Z</time>
      </trkpt>
      <trkpt lat="42.579762" lon="-8.620699">
        <ele>191.8</ele>
        <time>2020-09-10T08:29:40Z</time>
      </trkpt>
      <trkpt lat="42.579767" lon="-8.620659">
        <ele>192.3</ele>
        <time>2020-09-10T08:29:41Z</time>
      </trkpt>
      <trkpt lat="42.579768" lon="-8.620621">
        <ele>192.9</ele>
        <time>2020-09-10T08:29:41Z</time>
      </trkpt>
      <trkpt lat="42.579773" lon="-8.620587">
        <ele>193.3</ele>
        <time>2020-09-10T08:29:42Z</time>
      </trkpt>
      <trkpt lat="42.579773" lon="-8.620551">
        <ele>193.7</ele>
        <time>2020-09-10T08:29:43Z</time>
      </trkpt>
      <trkpt lat="42.579770" lon="-8.620521">
        <ele>194.1</ele>
        <time>2020-09-10T08:29:43Z</time>
      </trkpt>
      <trkpt lat="42.579769" lon="-8.620490">
        <ele>194.4</ele>
        <time>2020-09-10T08:29:44Z</time>
      </trkpt>
      <trkpt lat="42.579767" lon="-8.620460">
        <ele>194.8</ele>
        <time>2020-09-10T08:29:45Z</time>
      </trkpt>
      <trkpt lat="42.579763" lon="-8.620437">
        <ele>195.1</ele>
        <time>2020-09-10T08:29:45Z</time>
      </trkpt>
      <trkpt lat="42.579758" lon="-8.620411">
        <ele>195.5</ele>
        <time>2020-09-10T08:29:46Z</time>
      </trkpt>
      <trkpt lat="42.579757" lon="-8.620382">
        <ele>195.8</ele>
        <time>2020-09-10T08:29:46Z</time>
      </trkpt>
      <trkpt lat="42.579752" lon="-8.620360">
        <ele>196.1</ele>
        <time>2020-09-10T08:29:47Z</time>
      </trkpt>
      <trkpt lat="42.579748" lon="-8.620335">
        <ele>196.5</ele>
        <time>2020-09-10T08:29:47Z</time>
      </trkpt>
      <trkpt lat="42.579752" lon="-8.620309">
        <ele>196.8</ele>
        <time>2020-09-10T08:29:48Z</time>
      </trkpt>
      <trkpt lat="42.579762" lon="-8.620283">
        <ele>196.9</ele>
        <time>2020-09-10T08:29:48Z</time>
      </trkpt>
      <trkpt lat="42.579794" lon="-8.620218">
        <ele>197.2</ele>
        <time>2020-09-10T08:29:50Z</time>
      </trkpt>
      <trkpt lat="42.579813" lon="-8.620172">
        <ele>197.4</ele>
        <time>2020-09-10T08:29:51Z</time>
      </trkpt>
      <trkpt lat="42.579843" lon="-8.620078">
        <ele>198.1</ele>
        <time>2020-09-10T08:29:53Z</time>
      </trkpt>
      <trkpt lat="42.579867" lon="-8.620031">
        <ele>198.4</ele>
        <time>2020-09-10T08:29:54Z</time>
      </trkpt>
      <trkpt lat="42.579886" lon="-8.619993">
        <ele>198.7</ele>
        <time>2020-09-10T08:29:55Z</time>
      </trkpt>
      <trkpt lat="42.579908" lon="-8.619954">
        <ele>198.9</ele>
        <time>2020-09-10T08:29:56Z</time>
      </trkpt>
      <trkpt lat="42.579929" lon="-8.619913">
        <ele>199.2</ele>
        <time>2020-09-10T08:29:57Z</time>
      </trkpt>
      <trkpt lat="42.579929" lon="-8.619913">
        <ele>199.2</ele>
        <time>2020-09-10T08:29:57Z</time>
      </trkpt>
      <trkpt lat="42.579961" lon="-8.619829">
        <ele>199.9</ele>
        <time>2020-09-10T08:29:59Z</time>
      </trkpt>
      <trkpt lat="42.579992" lon="-8.619794">
        <ele>200.1</ele>
        <time>2020-09-10T08:30:00Z</time>
      </trkpt>
      <trkpt lat="42.580011" lon="-8.619760">
        <ele>200.3</ele>
        <time>2020-09-10T08:30:01Z</time>
      </trkpt>
      <trkpt lat="42.580028" lon="-8.619726">
        <ele>200.6</ele>
        <time>2020-09-10T08:30:01Z</time>
      </trkpt>
      <trkpt lat="42.580059" lon="-8.619683">
        <ele>200.8</ele>
        <time>2020-09-10T08:30:03Z</time>
      </trkpt>
      <trkpt lat="42.580059" lon="-8.619631">
        <ele>201.6</ele>
        <time>2020-09-10T08:30:04Z</time>
      </trkpt>
      <trkpt lat="42.580059" lon="-8.619599">
        <ele>202.0</ele>
        <time>2020-09-10T08:30:04Z</time>
      </trkpt>
      <trkpt lat="42.580060" lon="-8.619562">
        <ele>202.6</ele>
        <time>2020-09-10T08:30:05Z</time>
      </trkpt>
      <trkpt lat="42.580059" lon="-8.619520">
        <ele>203.2</ele>
        <time>2020-09-10T08:30:06Z</time>
      </trkpt>
      <trkpt lat="42.580047" lon="-8.619469">
        <ele>204.1</ele>
        <time>2020-09-10T08:30:07Z</time>
      </trkpt>
      <trkpt lat="42.580047" lon="-8.619430">
        <ele>204.7</ele>
        <time>2020-09-10T08:30:08Z</time>
      </trkpt>
      <trkpt lat="42.580044" lon="-8.619399">
        <ele>205.2</ele>
        <time>2020-09-10T08:30:08Z</time>
      </trkpt>
      <trkpt lat="42.580039" lon="-8.619353">
        <ele>205.9</ele>
        <time>2020-09-10T08:30:09Z</time>
      </trkpt>
      <trkpt lat="42.580052" lon="-8.619324">
        <ele>206.1</ele>
        <time>2020-09-10T08:30:10Z</time>
      </trkpt>
      <trkpt lat="42.580052" lon="-8.619324">
        <ele>206.1</ele>
        <time>2020-09-10T08:30:10Z</time>
      </trkpt>
      <trkpt lat="42.580111" lon="-8.619234">
        <ele>206.8</ele>
        <time>2020-09-10T08:30:12Z</time>
      </trkpt>
      <trkpt lat="42.580116" lon="-8.619207">
        <ele>207.2</ele>
        <time>2020-09-10T08:30:13Z</time>
      </trkpt>
      <trkpt lat="42.580119" lon="-8.619177">
        <ele>207.5</ele>
        <time>2020-09-10T08:30:13Z</time>
      </trkpt>
      <trkpt lat="42.580116" lon="-8.619150">
        <ele>207.9</ele>
        <time>2020-09-10T08:30:14Z</time>
      </trkpt>
      <trkpt lat="42.580111" lon="-8.619122">
        <ele>208.4</ele>
        <time>2020-09-10T08:30:14Z</time>
      </trkpt>
      <trkpt lat="42.580106" lon="-8.619087">
        <ele>208.9</ele>
        <time>2020-09-10T08:30:15Z</time>
      </trkpt>
      <trkpt lat="42.580102" lon="-8.619049">
        <ele>209.4</ele>
        <time>2020-09-10T08:30:16Z</time>
      </trkpt>
      <trkpt lat="42.580110" lon="-8.619027">
        <ele>209.7</ele>
        <time>2020-09-10T08:30:16Z</time>
      </trkpt>
      <trkpt lat="42.580110" lon="-8.618997">
        <ele>210.1</ele>
        <time>2020-09-10T08:30:17Z</time>
      </trkpt>
      <trkpt lat="42.580110" lon="-8.618960">
        <ele>210.5</ele>
        <time>2020-09-10T08:30:18Z</time>
      </trkpt>
      <trkpt lat="42.580107" lon="-8.618925">
        <ele>211.0</ele>
        <time>2020-09-10T08:30:18Z</time>
      </trkpt>
      <trkpt lat="42.580107" lon="-8.618896">
        <ele>211.3</ele>
        <time>2020-09-10T08:30:19Z</time>
      </trkpt>
      <trkpt lat="42.580113" lon="-8.618863">
        <ele>211.6</ele>
        <time>2020-09-10T08:30:20Z</time>
      </trkpt>
      <trkpt lat="42.580130" lon="-8.618835">
        <ele>211.7</ele>
        <time>2020-09-10T08:30:20Z</time>
      </trkpt>
      <trkpt lat="42.580152" lon="-8.618810">
        <ele>211.7</ele>
        <time>2020-09-10T08:30:21Z</time>
      </trkpt>
      <trkpt lat="42.580169" lon="-8.618781">
        <ele>211.8</ele>
        <time>2020-09-10T08:30:22Z</time>
      </trkpt>
      <trkpt lat="42.580180" lon="-8.618750">
        <ele>212.0</ele>
        <time>2020-09-10T08:30:22Z</time>
      </trkpt>
      <trkpt lat="42.580187" lon="-8.618716">
        <ele>212.1</ele>
        <time>2020-09-10T08:30:23Z</time>
      </trkpt>
      <trkpt lat="42.580187" lon="-8.618716">
        <ele>212.1</ele>
        <time>2020-09-10T08:30:23Z</time>
      </trkpt>
      <trkpt lat="42.580228" lon="-8.618658">
        <ele>211.9</ele>
        <time>2020-09-10T08:30:25Z</time>
      </trkpt>
      <trkpt lat="42.580252" lon="-8.618627">
        <ele>211.8</ele>
        <time>2020-09-10T08:30:26Z</time>
      </trkpt>
      <trkpt lat="42.580269" lon="-8.618588">
        <ele>211.8</ele>
        <time>2020-09-10T08:30:27Z</time>
      </trkpt>
      <trkpt lat="42.580288" lon="-8.618544">
        <ele>211.8</ele>
        <time>2020-09-10T08:30:28Z</time>
      </trkpt>
      <trkpt lat="42.580299" lon="-8.618503">
        <ele>211.9</ele>
        <time>2020-09-10T08:30:28Z</time>
      </trkpt>
      <trkpt lat="42.580317" lon="-8.618474">
        <ele>211.8</ele>
        <time>2020-09-10T08:30:29Z</time>
      </trkpt>
      <trkpt lat="42.580332" lon="-8.618454">
        <ele>211.7</ele>
        <time>2020-09-10T08:30:30Z</time>
      </trkpt>
      <trkpt lat="42.580338" lon="-8.618418">
        <ele>211.7</ele>
        <time>2020-09-10T08:30:30Z</time>
      </trkpt>
      <trkpt lat="42.580347" lon="-8.618374">
        <ele>211.8</ele>
        <time>2020-09-10T08:30:31Z</time>
      </trkpt>
      <trkpt lat="42.580376" lon="-8.618321">
        <ele>211.6</ele>
        <time>2020-09-10T08:30:33Z</time>
      </trkpt>
      <trkpt lat="42.580409" lon="-8.618264">
        <ele>211.4</ele>
        <time>2020-09-10T08:30:34Z</time>
      </trkpt>
      <trkpt lat="42.580444" lon="-8.618181">
        <ele>211.2</ele>
        <time>2020-09-10T08:30:36Z</time>
      </trkpt>
      <trkpt lat="42.580479" lon="-8.618080">
        <ele>211.2</ele>
        <time>2020-09-10T08:30:38Z</time>
      </trkpt>
      <trkpt lat="42.580506" lon="-8.618019">
        <ele>211.2</ele>
        <time>2020-09-10T08:30:39Z</time>
      </trkpt>
      <trkpt lat="42.580533" lon="-8.617954">
        <ele>211.4</ele>
        <time>2020-09-10T08:30:41Z</time>
      </trkpt>
      <trkpt lat="42.580567" lon="-8.617854">
        <ele>211.9</ele>
        <time>2020-09-10T08:30:43Z</time>
      </trkpt>
      <trkpt lat="42.580590" lon="-8.617785">
        <ele>211.9</ele>
        <time>2020-09-10T08:30:45Z</time>
      </trkpt>
      <trkpt lat="42.580602" lon="-8.617720">
        <ele>212.0</ele>
        <time>2020-09-10T08:30:46Z</time>
      </trkpt>
      <trkpt lat="42.580602" lon="-8.617640">
        <ele>212.1</ele>
        <time>2020-09-10T08:30:48Z</time>
      </trkpt>
      <trkpt lat="42.580598" lon="-8.617561">
        <ele>212.1</ele>
        <time>2020-09-10T08:30:49Z</time>
      </trkpt>
      <trkpt lat="42.580583" lon="-8.617478">
        <ele>211.8</ele>
        <time>2020-09-10T08:30:51Z</time>
      </trkpt>
      <trkpt lat="42.580570" lon="-8.617393">
        <ele>211.5</ele>
        <time>2020-09-10T08:30:52Z</time>
      </trkpt>
      <trkpt lat="42.580570" lon="-8.617319">
        <ele>211.0</ele>
        <time>2020-09-10T08:30:54Z</time>
      </trkpt>
      <trkpt lat="42.580585" lon="-8.617251">
        <ele>210.5</ele>
        <time>2020-09-10T08:30:55Z</time>
      </trkpt>
      <trkpt lat="42.580611" lon="-8.617198">
        <ele>210.0</ele>
        <time>2020-09-10T08:30:57Z</time>
      </trkpt>
      <trkpt lat="42.580668" lon="-8.617178">
        <ele>209.8</ele>
        <time>2020-09-10T08:30:58Z</time>
      </trkpt>
      <trkpt lat="42.580720" lon="-8.617160">
        <ele>209.6</ele>
        <time>2020-09-10T08:31:00Z</time>
      </trkpt>
      <trkpt lat="42.580783" lon="-8.617163">
        <ele>209.6</ele>
        <time>2020-09-10T08:31:01Z</time>
      </trkpt>
      <trkpt lat="42.580838" lon="-8.617168">
        <ele>209.6</ele>
        <time>2020-09-10T08:31:03Z</time>
      </trkpt>
      <trkpt lat="42.580895" lon="-8.617178">
        <ele>209.7</ele>
        <time>2020-09-10T08:31:04Z</time>
      </trkpt>
      <trkpt lat="42.580953" lon="-8.617185">
        <ele>209.7</ele>
        <time>2020-09-10T08:31:06Z</time>
      </trkpt>
      <trkpt lat="42.581012" lon="-8.617194">
        <ele>209.7</ele>
        <time>2020-09-10T08:31:07Z</time>
      </trkpt>
      <trkpt lat="42.581068" lon="-8.617200">
        <ele>209.6</ele>
        <time>2020-09-10T08:31:09Z</time>
      </trkpt>
      <trkpt lat="42.581122" lon="-8.617206">
        <ele>209.5</ele>
        <time>2020-09-10T08:31:10Z</time>
      </trkpt>
      <trkpt lat="42.581174" lon="-8.617209">
        <ele>209.4</ele>
        <time>2020-09-10T08:31:12Z</time>
      </trkpt>
      <trkpt lat="42.581174" lon="-8.617209">
        <ele>209.4</ele>
        <time>2020-09-10T08:31:12Z</time>
      </trkpt>
      <trkpt lat="42.581286" lon="-8.617215">
        <ele>208.7</ele>
        <time>2020-09-10T08:31:15Z</time>
      </trkpt>
      <trkpt lat="42.581337" lon="-8.617220">
        <ele>208.3</ele>
        <time>2020-09-10T08:31:16Z</time>
      </trkpt>
      <trkpt lat="42.581385" lon="-8.617240">
        <ele>207.9</ele>
        <time>2020-09-10T08:31:17Z</time>
      </trkpt>
      <trkpt lat="42.581436" lon="-8.617274">
        <ele>207.3</ele>
        <time>2020-09-10T08:31:19Z</time>
      </trkpt>
      <trkpt lat="42.581492" lon="-8.617316">
        <ele>206.6</ele>
        <time>2020-09-10T08:31:21Z</time>
      </trkpt>
      <trkpt lat="42.581555" lon="-8.617369">
        <ele>205.7</ele>
        <time>2020-09-10T08:31:23Z</time>
      </trkpt>
      <trkpt lat="42.581627" lon="-8.617430">
        <ele>204.8</ele>
        <time>2020-09-10T08:31:25Z</time>
      </trkpt>
      <trkpt lat="42.581709" lon="-8.617504">
        <ele>203.9</ele>
        <time>2020-09-10T08:31:28Z</time>
      </trkpt>
      <trkpt lat="42.581794" lon="-8.617576">
        <ele>203.3</ele>
        <time>2020-09-10T08:31:30Z</time>
      </trkpt>
      <trkpt lat="42.581876" lon="-8.617637">
        <ele>202.5</ele>
        <time>2020-09-10T08:31:33Z</time>
      </trkpt>
      <trkpt lat="42.581959" lon="-8.617689">
        <ele>202.1</ele>
        <time>2020-09-10T08:31:35Z</time>
      </trkpt>
      <trkpt lat="42.582044" lon="-8.617730">
        <ele>201.8</ele>
        <time>2020-09-10T08:31:38Z</time>
      </trkpt>
      <trkpt lat="42.582128" lon="-8.617765">
        <ele>201.5</ele>
        <time>2020-09-10T08:31:40Z</time>
      </trkpt>
      <trkpt lat="42.582206" lon="-8.617811">
        <ele>201.1</ele>
        <time>2020-09-10T08:31:42Z</time>
      </trkpt>
      <trkpt lat="42.582274" lon="-8.617871">
        <ele>200.6</ele>
        <time>2020-09-10T08:31:44Z</time>
      </trkpt>
      <trkpt lat="42.582333" lon="-8.617944">
        <ele>200.1</ele>
        <time>2020-09-10T08:31:46Z</time>
      </trkpt>
      <trkpt lat="42.582386" lon="-8.618024">
        <ele>199.5</ele>
        <time>2020-09-10T08:31:49Z</time>
      </trkpt>
      <trkpt lat="42.582443" lon="-8.618114">
        <ele>199.2</ele>
        <time>2020-09-10T08:31:51Z</time>
      </trkpt>
      <trkpt lat="42.582500" lon="-8.618211">
        <ele>199.1</ele>
        <time>2020-09-10T08:31:53Z</time>
      </trkpt>
      <trkpt lat="42.582559" lon="-8.618298">
        <ele>199.0</ele>
        <time>2020-09-10T08:31:56Z</time>
      </trkpt>
      <trkpt lat="42.582600" lon="-8.618366">
        <ele>199.2</ele>
        <time>2020-09-10T08:31:57Z</time>
      </trkpt>
      <trkpt lat="42.582659" lon="-8.618424">
        <ele>199.5</ele>
        <time>2020-09-10T08:31:59Z</time>
      </trkpt>
      <trkpt lat="42.582721" lon="-8.618462">
        <ele>199.9</ele>
        <time>2020-09-10T08:32:01Z</time>
      </trkpt>
      <trkpt lat="42.582783" lon="-8.618478">
        <ele>200.2</ele>
        <time>2020-09-10T08:32:03Z</time>
      </trkpt>
      <trkpt lat="42.582840" lon="-8.618469">
        <ele>200.3</ele>
        <time>2020-09-10T08:32:04Z</time>
      </trkpt>
      <trkpt lat="42.582897" lon="-8.618457">
        <ele>200.2</ele>
        <time>2020-09-10T08:32:06Z</time>
      </trkpt>
      <trkpt lat="42.582959" lon="-8.618454">
        <ele>200.2</ele>
        <time>2020-09-10T08:32:08Z</time>
      </trkpt>
      <trkpt lat="42.583017" lon="-8.618462">
        <ele>200.2</ele>
        <time>2020-09-10T08:32:09Z</time>
      </trkpt>
      <trkpt lat="42.583071" lon="-8.618467">
        <ele>200.3</ele>
        <time>2020-09-10T08:32:11Z</time>
      </trkpt>
      <trkpt lat="42.583112" lon="-8.618471">
        <ele>200.2</ele>
        <time>2020-09-10T08:32:12Z</time>
      </trkpt>
      <trkpt lat="42.583112" lon="-8.618471">
        <ele>200.2</ele>
        <time>2020-09-10T08:32:12Z</time>
      </trkpt>
      <trkpt lat="42.583185" lon="-8.618501">
        <ele>200.3</ele>
        <time>2020-09-10T08:32:14Z</time>
      </trkpt>
      <trkpt lat="42.583343" lon="-8.618680">
        <ele>200.3</ele>
        <time>2020-09-10T08:32:19Z</time>
      </trkpt>
      <trkpt lat="42.583511" lon="-8.618820">
        <ele>198.5</ele>
        <time>2020-09-10T08:32:24Z</time>
      </trkpt>
      <trkpt lat="42.583674" lon="-8.618901">
        <ele>196.9</ele>
        <time>2020-09-10T08:32:29Z</time>
      </trkpt>
      <trkpt lat="42.583920" lon="-8.618813">
        <ele>194.6</ele>
        <time>2020-09-10T08:32:36Z</time>
      </trkpt>
      <trkpt lat="42.584160" lon="-8.618776">
        <ele>193.2</ele>
        <time>2020-09-10T08:32:42Z</time>
      </trkpt>
      <trkpt lat="42.584436" lon="-8.618791">
        <ele>193.1</ele>
        <time>2020-09-10T08:32:50Z</time>
      </trkpt>
      <trkpt lat="42.584550" lon="-8.618734">
        <ele>192.4</ele>
        <time>2020-09-10T08:32:53Z</time>
      </trkpt>
      <trkpt lat="42.584754" lon="-8.618542">
        <ele>190.7</ele>
        <time>2020-09-10T08:32:59Z</time>
      </trkpt>
      <trkpt lat="42.584943" lon="-8.618521">
        <ele>190.3</ele>
        <time>2020-09-10T08:33:05Z</time>
      </trkpt>
      <trkpt lat="42.585206" lon="-8.618578">
        <ele>190.1</ele>
        <time>2020-09-10T08:33:12Z</time>
      </trkpt>
      <trkpt lat="42.585488" lon="-8.618688">
        <ele>189.3</ele>
        <time>2020-09-10T08:33:19Z</time>
      </trkpt>
      <trkpt lat="42.586211" lon="-8.618739">
        <ele>191.1</ele>
        <time>2020-09-10T08:33:39Z</time>
      </trkpt>
      <trkpt lat="42.586563" lon="-8.618687">
        <ele>194.1</ele>
        <time>2020-09-10T08:33:48Z</time>
      </trkpt>
      <trkpt lat="42.586759" lon="-8.618607">
        <ele>195.5</ele>
        <time>2020-09-10T08:33:54Z</time>
      </trkpt>
      <trkpt lat="42.587074" lon="-8.618563">
        <ele>198.1</ele>
        <time>2020-09-10T08:34:02Z</time>
      </trkpt>
      <trkpt lat="42.587004" lon="-8.618630">
        <ele>198.4</ele>
        <time>2020-09-10T08:34:04Z</time>
      </trkpt>
      <trkpt lat="42.587110" lon="-8.618683">
        <ele>200.2</ele>
        <time>2020-09-10T08:34:07Z</time>
      </trkpt>
      <trkpt lat="42.587275" lon="-8.618644">
        <ele>201.5</ele>
        <time>2020-09-10T08:34:12Z</time>
      </trkpt>
      <trkpt lat="42.587297" lon="-8.618621">
        <ele>201.4</ele>
        <time>2020-09-10T08:34:13Z</time>
      </trkpt>
      <trkpt lat="42.587322" lon="-8.618598">
        <ele>201.4</ele>
        <time>2020-09-10T08:34:13Z</time>
      </trkpt>
      <trkpt lat="42.587351" lon="-8.618575">
        <ele>201.4</ele>
        <time>2020-09-10T08:34:14Z</time>
      </trkpt>
      <trkpt lat="42.587379" lon="-8.618550">
        <ele>201.3</ele>
        <time>2020-09-10T08:34:15Z</time>
      </trkpt>
      <trkpt lat="42.587407" lon="-8.618534">
        <ele>201.5</ele>
        <time>2020-09-10T08:34:16Z</time>
      </trkpt>
      <trkpt lat="42.587436" lon="-8.618520">
        <ele>201.6</ele>
        <time>2020-09-10T08:34:17Z</time>
      </trkpt>
      <trkpt lat="42.587469" lon="-8.618502">
        <ele>201.7</ele>
        <time>2020-09-10T08:34:18Z</time>
      </trkpt>
      <trkpt lat="42.587503" lon="-8.618482">
        <ele>201.7</ele>
        <time>2020-09-10T08:34:19Z</time>
      </trkpt>
      <trkpt lat="42.587537" lon="-8.618463">
        <ele>201.7</ele>
        <time>2020-09-10T08:34:20Z</time>
      </trkpt>
      <trkpt lat="42.587559" lon="-8.618441">
        <ele>201.5</ele>
        <time>2020-09-10T08:34:21Z</time>
      </trkpt>
      <trkpt lat="42.587582" lon="-8.618418">
        <ele>201.3</ele>
        <time>2020-09-10T08:34:21Z</time>
      </trkpt>
      <trkpt lat="42.587616" lon="-8.618400">
        <ele>201.3</ele>
        <time>2020-09-10T08:34:22Z</time>
      </trkpt>
      <trkpt lat="42.587654" lon="-8.618389">
        <ele>201.5</ele>
        <time>2020-09-10T08:34:23Z</time>
      </trkpt>
      <trkpt lat="42.587695" lon="-8.618380">
        <ele>201.7</ele>
        <time>2020-09-10T08:34:24Z</time>
      </trkpt>
      <trkpt lat="42.587734" lon="-8.618376">
        <ele>201.8</ele>
        <time>2020-09-10T08:34:25Z</time>
      </trkpt>
      <trkpt lat="42.587772" lon="-8.618378">
        <ele>202.0</ele>
        <time>2020-09-10T08:34:27Z</time>
      </trkpt>
      <trkpt lat="42.587809" lon="-8.618388">
        <ele>202.4</ele>
        <time>2020-09-10T08:34:27Z</time>
      </trkpt>
      <trkpt lat="42.587844" lon="-8.618394">
        <ele>202.6</ele>
        <time>2020-09-10T08:34:28Z</time>
      </trkpt>
      <trkpt lat="42.587877" lon="-8.618397">
        <ele>202.8</ele>
        <time>2020-09-10T08:34:29Z</time>
      </trkpt>
      <trkpt lat="42.587877" lon="-8.618397">
        <ele>202.8</ele>
        <time>2020-09-10T08:34:29Z</time>
      </trkpt>
      <trkpt lat="42.587943" lon="-8.618396">
        <ele>203.2</ele>
        <time>2020-09-10T08:34:31Z</time>
      </trkpt>
      <trkpt lat="42.587979" lon="-8.618398">
        <ele>203.4</ele>
        <time>2020-09-10T08:34:32Z</time>
      </trkpt>
      <trkpt lat="42.588017" lon="-8.618406">
        <ele>203.7</ele>
        <time>2020-09-10T08:34:33Z</time>
      </trkpt>
      <trkpt lat="42.588052" lon="-8.618419">
        <ele>204.1</ele>
        <time>2020-09-10T08:34:34Z</time>
      </trkpt>
      <trkpt lat="42.588091" lon="-8.618433">
        <ele>204.5</ele>
        <time>2020-09-10T08:34:35Z</time>
      </trkpt>
      <trkpt lat="42.588132" lon="-8.618445">
        <ele>204.9</ele>
        <time>2020-09-10T08:34:36Z</time>
      </trkpt>
      <trkpt lat="42.588175" lon="-8.618458">
        <ele>205.4</ele>
        <time>2020-09-10T08:34:37Z</time>
      </trkpt>
      <trkpt lat="42.588210" lon="-8.618469">
        <ele>205.7</ele>
        <time>2020-09-10T08:34:38Z</time>
      </trkpt>
      <trkpt lat="42.588245" lon="-8.618483">
        <ele>206.1</ele>
        <time>2020-09-10T08:34:39Z</time>
      </trkpt>
      <trkpt lat="42.588278" lon="-8.618495">
        <ele>206.5</ele>
        <time>2020-09-10T08:34:40Z</time>
      </trkpt>
      <trkpt lat="42.588311" lon="-8.618508">
        <ele>206.8</ele>
        <time>2020-09-10T08:34:41Z</time>
      </trkpt>
      <trkpt lat="42.588342" lon="-8.618521">
        <ele>207.1</ele>
        <time>2020-09-10T08:34:42Z</time>
      </trkpt>
      <trkpt lat="42.588373" lon="-8.618531">
        <ele>207.4</ele>
        <time>2020-09-10T08:34:43Z</time>
      </trkpt>
      <trkpt lat="42.588405" lon="-8.618544">
        <ele>207.7</ele>
        <time>2020-09-10T08:34:44Z</time>
      </trkpt>
      <trkpt lat="42.588438" lon="-8.618556">
        <ele>208.0</ele>
        <time>2020-09-10T08:34:45Z</time>
      </trkpt>
      <trkpt lat="42.588466" lon="-8.618564">
        <ele>208.2</ele>
        <time>2020-09-10T08:34:45Z</time>
      </trkpt>
      <trkpt lat="42.588493" lon="-8.618573">
        <ele>208.4</ele>
        <time>2020-09-10T08:34:46Z</time>
      </trkpt>
      <trkpt lat="42.588523" lon="-8.618579">
        <ele>208.6</ele>
        <time>2020-09-10T08:34:47Z</time>
      </trkpt>
      <trkpt lat="42.588550" lon="-8.618580">
        <ele>208.8</ele>
        <time>2020-09-10T08:34:48Z</time>
      </trkpt>
      <trkpt lat="42.588578" lon="-8.618577">
        <ele>208.9</ele>
        <time>2020-09-10T08:34:48Z</time>
      </trkpt>
      <trkpt lat="42.588608" lon="-8.618576">
        <ele>209.0</ele>
        <time>2020-09-10T08:34:49Z</time>
      </trkpt>
      <trkpt lat="42.588640" lon="-8.618578">
        <ele>209.3</ele>
        <time>2020-09-10T08:34:50Z</time>
      </trkpt>
      <trkpt lat="42.588670" lon="-8.618575">
        <ele>209.4</ele>
        <time>2020-09-10T08:34:51Z</time>
      </trkpt>
      <trkpt lat="42.588700" lon="-8.618567">
        <ele>209.5</ele>
        <time>2020-09-10T08:34:52Z</time>
      </trkpt>
      <trkpt lat="42.588724" lon="-8.618552">
        <ele>209.6</ele>
        <time>2020-09-10T08:34:52Z</time>
      </trkpt>
      <trkpt lat="42.588874" lon="-8.618631">
        <ele>210.7</ele>
        <time>2020-09-10T08:34:57Z</time>
      </trkpt>
      <trkpt lat="42.589062" lon="-8.618729">
        <ele>211.9</ele>
        <time>2020-09-10T08:35:02Z</time>
      </trkpt>
      <trkpt lat="42.589219" lon="-8.618733">
        <ele>212.4</ele>
        <time>2020-09-10T08:35:06Z</time>
      </trkpt>
      <trkpt lat="42.589403" lon="-8.618592">
        <ele>213.2</ele>
        <time>2020-09-10T08:35:12Z</time>
      </trkpt>
      <trkpt lat="42.589552" lon="-8.618254">
        <ele>212.4</ele>
        <time>2020-09-10T08:35:20Z</time>
      </trkpt>
      <trkpt lat="42.589687" lon="-8.618069">
        <ele>212.7</ele>
        <time>2020-09-10T08:35:25Z</time>
      </trkpt>
      <trkpt lat="42.589821" lon="-8.617918">
        <ele>212.7</ele>
        <time>2020-09-10T08:35:29Z</time>
      </trkpt>
      <trkpt lat="42.590028" lon="-8.617949">
        <ele>215.5</ele>
        <time>2020-09-10T08:35:35Z</time>
      </trkpt>
      <trkpt lat="42.590228" lon="-8.617979">
        <ele>216.8</ele>
        <time>2020-09-10T08:35:40Z</time>
      </trkpt>
      <trkpt lat="42.590328" lon="-8.618084">
        <ele>217.6</ele>
        <time>2020-09-10T08:35:44Z</time>
      </trkpt>
      <trkpt lat="42.590368" lon="-8.618189">
        <ele>219.0</ele>
        <time>2020-09-10T08:35:46Z</time>
      </trkpt>
      <trkpt lat="42.590390" lon="-8.618215">
        <ele>219.2</ele>
        <time>2020-09-10T08:35:47Z</time>
      </trkpt>
      <trkpt lat="42.590415" lon="-8.618241">
        <ele>219.5</ele>
        <time>2020-09-10T08:35:48Z</time>
      </trkpt>
      <trkpt lat="42.590444" lon="-8.618271">
        <ele>219.7</ele>
        <time>2020-09-10T08:35:49Z</time>
      </trkpt>
      <trkpt lat="42.590472" lon="-8.618304">
        <ele>219.9</ele>
        <time>2020-09-10T08:35:50Z</time>
      </trkpt>
      <trkpt lat="42.590492" lon="-8.618343">
        <ele>220.3</ele>
        <time>2020-09-10T08:35:51Z</time>
      </trkpt>
      <trkpt lat="42.590508" lon="-8.618384">
        <ele>220.7</ele>
        <time>2020-09-10T08:35:51Z</time>
      </trkpt>
      <trkpt lat="42.590531" lon="-8.618419">
        <ele>221.0</ele>
        <time>2020-09-10T08:35:52Z</time>
      </trkpt>
      <trkpt lat="42.590562" lon="-8.618457">
        <ele>221.1</ele>
        <time>2020-09-10T08:35:54Z</time>
      </trkpt>
      <trkpt lat="42.590601" lon="-8.618487">
        <ele>221.0</ele>
        <time>2020-09-10T08:35:55Z</time>
      </trkpt>
      <trkpt lat="42.590639" lon="-8.618510">
        <ele>220.7</ele>
        <time>2020-09-10T08:35:56Z</time>
      </trkpt>
      <trkpt lat="42.590666" lon="-8.618539">
        <ele>220.8</ele>
        <time>2020-09-10T08:35:57Z</time>
      </trkpt>
      <trkpt lat="42.590669" lon="-8.618547">
        <ele>220.9</ele>
        <time>2020-09-10T08:35:57Z</time>
      </trkpt>
      <trkpt lat="42.590669" lon="-8.618547">
        <ele>220.9</ele>
        <time>2020-09-10T08:35:57Z</time>
      </trkpt>
      <trkpt lat="42.590696" lon="-8.618546">
        <ele>220.6</ele>
        <time>2020-09-10T08:35:58Z</time>
      </trkpt>
      <trkpt lat="42.590750" lon="-8.618569">
        <ele>220.5</ele>
        <time>2020-09-10T08:35:59Z</time>
      </trkpt>
      <trkpt lat="42.590780" lon="-8.618584">
        <ele>220.5</ele>
        <time>2020-09-10T08:36:00Z</time>
      </trkpt>
      <trkpt lat="42.590805" lon="-8.618610">
        <ele>220.7</ele>
        <time>2020-09-10T08:36:01Z</time>
      </trkpt>
      <trkpt lat="42.590822" lon="-8.618626">
        <ele>220.8</ele>
        <time>2020-09-10T08:36:01Z</time>
      </trkpt>
      <trkpt lat="42.590828" lon="-8.618626">
        <ele>220.8</ele>
        <time>2020-09-10T08:36:02Z</time>
      </trkpt>
      <trkpt lat="42.590867" lon="-8.618629">
        <ele>220.4</ele>
        <time>2020-09-10T08:36:03Z</time>
      </trkpt>
      <trkpt lat="42.590902" lon="-8.618646">
        <ele>220.4</ele>
        <time>2020-09-10T08:36:04Z</time>
      </trkpt>
      <trkpt lat="42.590932" lon="-8.618657">
        <ele>220.4</ele>
        <time>2020-09-10T08:36:04Z</time>
      </trkpt>
      <trkpt lat="42.590960" lon="-8.618664">
        <ele>220.3</ele>
        <time>2020-09-10T08:36:05Z</time>
      </trkpt>
      <trkpt lat="42.590979" lon="-8.618674">
        <ele>220.3</ele>
        <time>2020-09-10T08:36:06Z</time>
      </trkpt>
      <trkpt lat="42.590988" lon="-8.618692">
        <ele>220.5</ele>
        <time>2020-09-10T08:36:06Z</time>
      </trkpt>
      <trkpt lat="42.591007" lon="-8.618713">
        <ele>220.7</ele>
        <time>2020-09-10T08:36:07Z</time>
      </trkpt>
      <trkpt lat="42.591042" lon="-8.618733">
        <ele>220.7</ele>
        <time>2020-09-10T08:36:08Z</time>
      </trkpt>
      <trkpt lat="42.591071" lon="-8.618746">
        <ele>220.6</ele>
        <time>2020-09-10T08:36:09Z</time>
      </trkpt>
      <trkpt lat="42.591104" lon="-8.618762">
        <ele>220.5</ele>
        <time>2020-09-10T08:36:10Z</time>
      </trkpt>
      <trkpt lat="42.591127" lon="-8.618777">
        <ele>220.4</ele>
        <time>2020-09-10T08:36:10Z</time>
      </trkpt>
      <trkpt lat="42.591142" lon="-8.618784">
        <ele>220.4</ele>
        <time>2020-09-10T08:36:11Z</time>
      </trkpt>
      <trkpt lat="42.591148" lon="-8.618790">
        <ele>220.4</ele>
        <time>2020-09-10T08:36:11Z</time>
      </trkpt>
      <trkpt lat="42.591167" lon="-8.618802">
        <ele>220.5</ele>
        <time>2020-09-10T08:36:11Z</time>
      </trkpt>
      <trkpt lat="42.591185" lon="-8.618814">
        <ele>220.5</ele>
        <time>2020-09-10T08:36:12Z</time>
      </trkpt>
      <trkpt lat="42.591201" lon="-8.618828">
        <ele>220.5</ele>
        <time>2020-09-10T08:36:12Z</time>
      </trkpt>
      <trkpt lat="42.591202" lon="-8.618832">
        <ele>220.6</ele>
        <time>2020-09-10T08:36:13Z</time>
      </trkpt>
      <trkpt lat="42.591206" lon="-8.618838">
        <ele>220.6</ele>
        <time>2020-09-10T08:36:13Z</time>
      </trkpt>
      <trkpt lat="42.591213" lon="-8.618839">
        <ele>220.6</ele>
        <time>2020-09-10T08:36:13Z</time>
      </trkpt>
      <trkpt lat="42.591214" lon="-8.618842">
        <ele>220.6</ele>
        <time>2020-09-10T08:36:13Z</time>
      </trkpt>
      <trkpt lat="42.591216" lon="-8.618848">
        <ele>220.6</ele>
        <time>2020-09-10T08:36:13Z</time>
      </trkpt>
      <trkpt lat="42.591234" lon="-8.618903">
        <ele>220.9</ele>
        <time>2020-09-10T08:36:14Z</time>
      </trkpt>
      <trkpt lat="42.591247" lon="-8.618923">
        <ele>221.0</ele>
        <time>2020-09-10T08:36:15Z</time>
      </trkpt>
      <trkpt lat="42.591262" lon="-8.618939">
        <ele>221.0</ele>
        <time>2020-09-10T08:36:15Z</time>
      </trkpt>
      <trkpt lat="42.591279" lon="-8.618957">
        <ele>220.9</ele>
        <time>2020-09-10T08:36:16Z</time>
      </trkpt>
      <trkpt lat="42.591301" lon="-8.618983">
        <ele>220.8</ele>
        <time>2020-09-10T08:36:17Z</time>
      </trkpt>
      <trkpt lat="42.591319" lon="-8.619009">
        <ele>220.8</ele>
        <time>2020-09-10T08:36:17Z</time>
      </trkpt>
      <trkpt lat="42.591341" lon="-8.619040">
        <ele>220.7</ele>
        <time>2020-09-10T08:36:18Z</time>
      </trkpt>
      <trkpt lat="42.591365" lon="-8.619078">
        <ele>220.7</ele>
        <time>2020-09-10T08:36:19Z</time>
      </trkpt>
      <trkpt lat="42.591383" lon="-8.619109">
        <ele>220.8</ele>
        <time>2020-09-10T08:36:20Z</time>
      </trkpt>
      <trkpt lat="42.591403" lon="-8.619134">
        <ele>220.9</ele>
        <time>2020-09-10T08:36:21Z</time>
      </trkpt>
      <trkpt lat="42.591430" lon="-8.619156">
        <ele>220.9</ele>
        <time>2020-09-10T08:36:22Z</time>
      </trkpt>
      <trkpt lat="42.591459" lon="-8.619174">
        <ele>220.8</ele>
        <time>2020-09-10T08:36:22Z</time>
      </trkpt>
      <trkpt lat="42.591486" lon="-8.619182">
        <ele>220.7</ele>
        <time>2020-09-10T08:36:23Z</time>
      </trkpt>
      <trkpt lat="42.591514" lon="-8.619187">
        <ele>220.6</ele>
        <time>2020-09-10T08:36:24Z</time>
      </trkpt>
      <trkpt lat="42.591530" lon="-8.619186">
        <ele>220.5</ele>
        <time>2020-09-10T08:36:24Z</time>
      </trkpt>
      <trkpt lat="42.591551" lon="-8.619194">
        <ele>220.5</ele>
        <time>2020-09-10T08:36:25Z</time>
      </trkpt>
      <trkpt lat="42.591582" lon="-8.619218">
        <ele>220.5</ele>
        <time>2020-09-10T08:36:26Z</time>
      </trkpt>
      <trkpt lat="42.591622" lon="-8.619228">
        <ele>220.6</ele>
        <time>2020-09-10T08:36:27Z</time>
      </trkpt>
      <trkpt lat="42.591655" lon="-8.619241">
        <ele>220.9</ele>
        <time>2020-09-10T08:36:28Z</time>
      </trkpt>
      <trkpt lat="42.591669" lon="-8.619245">
        <ele>221.0</ele>
        <time>2020-09-10T08:36:28Z</time>
      </trkpt>
      <trkpt lat="42.591686" lon="-8.619246">
        <ele>221.1</ele>
        <time>2020-09-10T08:36:29Z</time>
      </trkpt>
      <trkpt lat="42.591706" lon="-8.619247">
        <ele>221.1</ele>
        <time>2020-09-10T08:36:29Z</time>
      </trkpt>
      <trkpt lat="42.591728" lon="-8.619239">
        <ele>221.2</ele>
        <time>2020-09-10T08:36:30Z</time>
      </trkpt>
      <trkpt lat="42.591759" lon="-8.619239">
        <ele>221.3</ele>
        <time>2020-09-10T08:36:31Z</time>
      </trkpt>
      <trkpt lat="42.591797" lon="-8.619242">
        <ele>221.5</ele>
        <time>2020-09-10T08:36:32Z</time>
      </trkpt>
      <trkpt lat="42.591838" lon="-8.619260">
        <ele>222.0</ele>
        <time>2020-09-10T08:36:33Z</time>
      </trkpt>
      <trkpt lat="42.591872" lon="-8.619261">
        <ele>222.4</ele>
        <time>2020-09-10T08:36:34Z</time>
      </trkpt>
      <trkpt lat="42.591893" lon="-8.619263">
        <ele>222.7</ele>
        <time>2020-09-10T08:36:34Z</time>
      </trkpt>
      <trkpt lat="42.591915" lon="-8.619262">
        <ele>222.9</ele>
        <time>2020-09-10T08:36:35Z</time>
      </trkpt>
      <trkpt lat="42.591936" lon="-8.619253">
        <ele>223.1</ele>
        <time>2020-09-10T08:36:35Z</time>
      </trkpt>
      <trkpt lat="42.591966" lon="-8.619236">
        <ele>223.2</ele>
        <time>2020-09-10T08:36:36Z</time>
      </trkpt>
      <trkpt lat="42.591997" lon="-8.619225">
        <ele>223.4</ele>
        <time>2020-09-10T08:36:37Z</time>
      </trkpt>
      <trkpt lat="42.592027" lon="-8.619211">
        <ele>223.6</ele>
        <time>2020-09-10T08:36:38Z</time>
      </trkpt>
      <trkpt lat="42.592047" lon="-8.619193">
        <ele>223.7</ele>
        <time>2020-09-10T08:36:39Z</time>
      </trkpt>
      <trkpt lat="42.592062" lon="-8.619172">
        <ele>223.6</ele>
        <time>2020-09-10T08:36:39Z</time>
      </trkpt>
      <trkpt lat="42.592078" lon="-8.619165">
        <ele>223.8</ele>
        <time>2020-09-10T08:36:40Z</time>
      </trkpt>
      <trkpt lat="42.592124" lon="-8.619150">
        <ele>224.4</ele>
        <time>2020-09-10T08:36:41Z</time>
      </trkpt>
      <trkpt lat="42.592145" lon="-8.619139">
        <ele>224.6</ele>
        <time>2020-09-10T08:36:42Z</time>
      </trkpt>
      <trkpt lat="42.592165" lon="-8.619135">
        <ele>224.9</ele>
        <time>2020-09-10T08:36:42Z</time>
      </trkpt>
      <trkpt lat="42.592186" lon="-8.619118">
        <ele>225.0</ele>
        <time>2020-09-10T08:36:43Z</time>
      </trkpt>
      <trkpt lat="42.592205" lon="-8.619096">
        <ele>225.0</ele>
        <time>2020-09-10T08:36:43Z</time>
      </trkpt>
      <trkpt lat="42.592224" lon="-8.619081">
        <ele>225.1</ele>
        <time>2020-09-10T08:36:44Z</time>
      </trkpt>
      <trkpt lat="42.592246" lon="-8.619064">
        <ele>225.2</ele>
        <time>2020-09-10T08:36:45Z</time>
      </trkpt>
      <trkpt lat="42.592269" lon="-8.619045">
        <ele>225.2</ele>
        <time>2020-09-10T08:36:45Z</time>
      </trkpt>
      <trkpt lat="42.592301" lon="-8.619014">
        <ele>225.2</ele>
        <time>2020-09-10T08:36:46Z</time>
      </trkpt>
      <trkpt lat="42.592320" lon="-8.618995">
        <ele>225.2</ele>
        <time>2020-09-10T08:36:47Z</time>
      </trkpt>
      <trkpt lat="42.592352" lon="-8.618969">
        <ele>225.3</ele>
        <time>2020-09-10T08:36:48Z</time>
      </trkpt>
      <trkpt lat="42.592405" lon="-8.618925">
        <ele>225.2</ele>
        <time>2020-09-10T08:36:50Z</time>
      </trkpt>
      <trkpt lat="42.592464" lon="-8.618878">
        <ele>225.1</ele>
        <time>2020-09-10T08:36:52Z</time>
      </trkpt>
      <trkpt lat="42.592525" lon="-8.618833">
        <ele>225.0</ele>
        <time>2020-09-10T08:36:53Z</time>
      </trkpt>
      <trkpt lat="42.592571" lon="-8.618795">
        <ele>224.9</ele>
        <time>2020-09-10T08:36:55Z</time>
      </trkpt>
      <trkpt lat="42.592603" lon="-8.618751">
        <ele>224.5</ele>
        <time>2020-09-10T08:36:56Z</time>
      </trkpt>
      <trkpt lat="42.592625" lon="-8.618717">
        <ele>224.3</ele>
        <time>2020-09-10T08:36:57Z</time>
      </trkpt>
      <trkpt lat="42.592633" lon="-8.618702">
        <ele>224.2</ele>
        <time>2020-09-10T08:36:57Z</time>
      </trkpt>
      <trkpt lat="42.592639" lon="-8.618696">
        <ele>224.2</ele>
        <time>2020-09-10T08:36:57Z</time>
      </trkpt>
      <trkpt lat="42.592640" lon="-8.618693">
        <ele>224.2</ele>
        <time>2020-09-10T08:36:58Z</time>
      </trkpt>
      <trkpt lat="42.592640" lon="-8.618693">
        <ele>224.2</ele>
        <time>2020-09-10T08:36:58Z</time>
      </trkpt>
      <trkpt lat="42.592640" lon="-8.618693">
        <ele>224.2</ele>
        <time>2020-09-10T08:36:58Z</time>
      </trkpt>
      <trkpt lat="42.592768" lon="-8.618663">
        <ele>225.0</ele>
        <time>2020-09-10T08:37:01Z</time>
      </trkpt>
      <trkpt lat="42.592778" lon="-8.618654">
        <ele>225.0</ele>
        <time>2020-09-10T08:37:01Z</time>
      </trkpt>
      <trkpt lat="42.592791" lon="-8.618642">
        <ele>224.9</ele>
        <time>2020-09-10T08:37:02Z</time>
      </trkpt>
      <trkpt lat="42.592814" lon="-8.618649">
        <ele>225.4</ele>
        <time>2020-09-10T08:37:02Z</time>
      </trkpt>
      <trkpt lat="42.592845" lon="-8.618659">
        <ele>226.0</ele>
        <time>2020-09-10T08:37:03Z</time>
      </trkpt>
      <trkpt lat="42.592874" lon="-8.618666">
        <ele>226.6</ele>
        <time>2020-09-10T08:37:04Z</time>
      </trkpt>
      <trkpt lat="42.592907" lon="-8.618646">
        <ele>226.5</ele>
        <time>2020-09-10T08:37:05Z</time>
      </trkpt>
      <trkpt lat="42.592931" lon="-8.618630">
        <ele>226.4</ele>
        <time>2020-09-10T08:37:06Z</time>
      </trkpt>
      <trkpt lat="42.592952" lon="-8.618613">
        <ele>226.2</ele>
        <time>2020-09-10T08:37:06Z</time>
      </trkpt>
      <trkpt lat="42.592980" lon="-8.618589">
        <ele>225.9</ele>
        <time>2020-09-10T08:37:07Z</time>
      </trkpt>
      <trkpt lat="42.593017" lon="-8.618603">
        <ele>226.9</ele>
        <time>2020-09-10T08:37:08Z</time>
      </trkpt>
      <trkpt lat="42.593041" lon="-8.618604">
        <ele>227.3</ele>
        <time>2020-09-10T08:37:09Z</time>
      </trkpt>
      <trkpt lat="42.593061" lon="-8.618615">
        <ele>228.0</ele>
        <time>2020-09-10T08:37:09Z</time>
      </trkpt>
      <trkpt lat="42.593080" lon="-8.618625">
        <ele>228.5</ele>
        <time>2020-09-10T08:37:10Z</time>
      </trkpt>
      <trkpt lat="42.593123" lon="-8.618648">
        <ele>229.8</ele>
        <time>2020-09-10T08:37:11Z</time>
      </trkpt>
      <trkpt lat="42.593155" lon="-8.618671">
        <ele>230.9</ele>
        <time>2020-09-10T08:37:12Z</time>
      </trkpt>
      <trkpt lat="42.593175" lon="-8.618684">
        <ele>231.5</ele>
        <time>2020-09-10T08:37:13Z</time>
      </trkpt>
      <trkpt lat="42.593207" lon="-8.618710">
        <ele>232.5</ele>
        <time>2020-09-10T08:37:14Z</time>
      </trkpt>
      <trkpt lat="42.593235" lon="-8.618720">
        <ele>233.0</ele>
        <time>2020-09-10T08:37:15Z</time>
      </trkpt>
      <trkpt lat="42.593272" lon="-8.618727">
        <ele>233.4</ele>
        <time>2020-09-10T08:37:16Z</time>
      </trkpt>
      <trkpt lat="42.593291" lon="-8.618727">
        <ele>233.6</ele>
        <time>2020-09-10T08:37:16Z</time>
      </trkpt>
      <trkpt lat="42.593308" lon="-8.618718">
        <ele>233.6</ele>
        <time>2020-09-10T08:37:17Z</time>
      </trkpt>
      <trkpt lat="42.593329" lon="-8.618712">
        <ele>233.7</ele>
        <time>2020-09-10T08:37:17Z</time>
      </trkpt>
      <trkpt lat="42.593344" lon="-8.618706">
        <ele>233.7</ele>
        <time>2020-09-10T08:37:18Z</time>
      </trkpt>
      <trkpt lat="42.593366" lon="-8.618713">
        <ele>234.0</ele>
        <time>2020-09-10T08:37:18Z</time>
      </trkpt>
      <trkpt lat="42.593392" lon="-8.618714">
        <ele>234.3</ele>
        <time>2020-09-10T08:37:19Z</time>
      </trkpt>
      <trkpt lat="42.593418" lon="-8.618724">
        <ele>234.6</ele>
        <time>2020-09-10T08:37:20Z</time>
      </trkpt>
      <trkpt lat="42.593436" lon="-8.618728">
        <ele>234.9</ele>
        <time>2020-09-10T08:37:20Z</time>
      </trkpt>
      <trkpt lat="42.593458" lon="-8.618729">
        <ele>235.0</ele>
        <time>2020-09-10T08:37:21Z</time>
      </trkpt>
      <trkpt lat="42.593479" lon="-8.618753">
        <ele>235.6</ele>
        <time>2020-09-10T08:37:21Z</time>
      </trkpt>
      <trkpt lat="42.593501" lon="-8.618770">
        <ele>236.0</ele>
        <time>2020-09-10T08:37:22Z</time>
      </trkpt>
      <trkpt lat="42.593523" lon="-8.618778">
        <ele>236.2</ele>
        <time>2020-09-10T08:37:23Z</time>
      </trkpt>
      <trkpt lat="42.593545" lon="-8.618787">
        <ele>236.5</ele>
        <time>2020-09-10T08:37:23Z</time>
      </trkpt>
      <trkpt lat="42.593563" lon="-8.618787">
        <ele>236.6</ele>
        <time>2020-09-10T08:37:24Z</time>
      </trkpt>
      <trkpt lat="42.593581" lon="-8.618802">
        <ele>236.9</ele>
        <time>2020-09-10T08:37:24Z</time>
      </trkpt>
      <trkpt lat="42.593604" lon="-8.618815">
        <ele>237.2</ele>
        <time>2020-09-10T08:37:25Z</time>
      </trkpt>
      <trkpt lat="42.593626" lon="-8.618823">
        <ele>237.4</ele>
        <time>2020-09-10T08:37:26Z</time>
      </trkpt>
      <trkpt lat="42.593640" lon="-8.618848">
        <ele>237.8</ele>
        <time>2020-09-10T08:37:26Z</time>
      </trkpt>
      <trkpt lat="42.593655" lon="-8.618865">
        <ele>238.1</ele>
        <time>2020-09-10T08:37:27Z</time>
      </trkpt>
      <trkpt lat="42.593669" lon="-8.618890">
        <ele>238.4</ele>
        <time>2020-09-10T08:37:27Z</time>
      </trkpt>
      <trkpt lat="42.593679" lon="-8.618911">
        <ele>238.8</ele>
        <time>2020-09-10T08:37:28Z</time>
      </trkpt>
      <trkpt lat="42.593689" lon="-8.618944">
        <ele>239.2</ele>
        <time>2020-09-10T08:37:29Z</time>
      </trkpt>
      <trkpt lat="42.593701" lon="-8.618989">
        <ele>239.8</ele>
        <time>2020-09-10T08:37:29Z</time>
      </trkpt>
      <trkpt lat="42.593720" lon="-8.619028">
        <ele>240.4</ele>
        <time>2020-09-10T08:37:30Z</time>
      </trkpt>
      <trkpt lat="42.593745" lon="-8.619064">
        <ele>241.0</ele>
        <time>2020-09-10T08:37:31Z</time>
      </trkpt>
      <trkpt lat="42.593765" lon="-8.619095">
        <ele>241.4</ele>
        <time>2020-09-10T08:37:32Z</time>
      </trkpt>
      <trkpt lat="42.593780" lon="-8.619126">
        <ele>241.8</ele>
        <time>2020-09-10T08:37:33Z</time>
      </trkpt>
      <trkpt lat="42.593791" lon="-8.619157">
        <ele>242.2</ele>
        <time>2020-09-10T08:37:34Z</time>
      </trkpt>
      <trkpt lat="42.593802" lon="-8.619181">
        <ele>242.4</ele>
        <time>2020-09-10T08:37:34Z</time>
      </trkpt>
      <trkpt lat="42.593810" lon="-8.619197">
        <ele>242.6</ele>
        <time>2020-09-10T08:37:34Z</time>
      </trkpt>
      <trkpt lat="42.593820" lon="-8.619208">
        <ele>242.8</ele>
        <time>2020-09-10T08:37:35Z</time>
      </trkpt>
      <trkpt lat="42.593826" lon="-8.619225">
        <ele>242.9</ele>
        <time>2020-09-10T08:37:35Z</time>
      </trkpt>
      <trkpt lat="42.593837" lon="-8.619245">
        <ele>243.1</ele>
        <time>2020-09-10T08:37:36Z</time>
      </trkpt>
      <trkpt lat="42.593852" lon="-8.619265">
        <ele>243.3</ele>
        <time>2020-09-10T08:37:36Z</time>
      </trkpt>
      <trkpt lat="42.593869" lon="-8.619290">
        <ele>243.6</ele>
        <time>2020-09-10T08:37:37Z</time>
      </trkpt>
      <trkpt lat="42.593895" lon="-8.619335">
        <ele>243.9</ele>
        <time>2020-09-10T08:37:38Z</time>
      </trkpt>
      <trkpt lat="42.593920" lon="-8.619372">
        <ele>244.3</ele>
        <time>2020-09-10T08:37:39Z</time>
      </trkpt>
      <trkpt lat="42.593934" lon="-8.619406">
        <ele>244.7</ele>
        <time>2020-09-10T08:37:40Z</time>
      </trkpt>
      <trkpt lat="42.593941" lon="-8.619431">
        <ele>244.9</ele>
        <time>2020-09-10T08:37:40Z</time>
      </trkpt>
      <trkpt lat="42.593953" lon="-8.619453">
        <ele>245.1</ele>
        <time>2020-09-10T08:37:41Z</time>
      </trkpt>
      <trkpt lat="42.593960" lon="-8.619481">
        <ele>245.3</ele>
        <time>2020-09-10T08:37:41Z</time>
      </trkpt>
      <trkpt lat="42.593972" lon="-8.619534">
        <ele>245.7</ele>
        <time>2020-09-10T08:37:43Z</time>
      </trkpt>
      <trkpt lat="42.593978" lon="-8.619564">
        <ele>245.8</ele>
        <time>2020-09-10T08:37:43Z</time>
      </trkpt>
      <trkpt lat="42.593991" lon="-8.619604">
        <ele>246.1</ele>
        <time>2020-09-10T08:37:44Z</time>
      </trkpt>
      <trkpt lat="42.594008" lon="-8.619644">
        <ele>246.3</ele>
        <time>2020-09-10T08:37:45Z</time>
      </trkpt>
      <trkpt lat="42.594022" lon="-8.619680">
        <ele>246.4</ele>
        <time>2020-09-10T08:37:46Z</time>
      </trkpt>
      <trkpt lat="42.594037" lon="-8.619713">
        <ele>246.5</ele>
        <time>2020-09-10T08:37:46Z</time>
      </trkpt>
      <trkpt lat="42.594032" lon="-8.619737">
        <ele>246.5</ele>
        <time>2020-09-10T08:37:47Z</time>
      </trkpt>
      <trkpt lat="42.594029" lon="-8.619773">
        <ele>246.5</ele>
        <time>2020-09-10T08:37:48Z</time>
      </trkpt>
      <trkpt lat="42.594038" lon="-8.619798">
        <ele>246.5</ele>
        <time>2020-09-10T08:37:48Z</time>
      </trkpt>
      <trkpt lat="42.594053" lon="-8.619810">
        <ele>246.5</ele>
        <time>2020-09-10T08:37:49Z</time>
      </trkpt>
      <trkpt lat="42.594064" lon="-8.619807">
        <ele>246.5</ele>
        <time>2020-09-10T08:37:49Z</time>
      </trkpt>
      <trkpt lat="42.594080" lon="-8.619798">
        <ele>246.5</ele>
        <time>2020-09-10T08:37:49Z</time>
      </trkpt>
      <trkpt lat="42.594091" lon="-8.619770">
        <ele>246.5</ele>
        <time>2020-09-10T08:37:50Z</time>
      </trkpt>
      <trkpt lat="42.594101" lon="-8.619740">
        <ele>246.5</ele>
        <time>2020-09-10T08:37:51Z</time>
      </trkpt>
      <trkpt lat="42.594111" lon="-8.619716">
        <ele>246.5</ele>
        <time>2020-09-10T08:37:51Z</time>
      </trkpt>
      <trkpt lat="42.594120" lon="-8.619694">
        <ele>246.5</ele>
        <time>2020-09-10T08:37:52Z</time>
      </trkpt>
      <trkpt lat="42.594137" lon="-8.619664">
        <ele>246.6</ele>
        <time>2020-09-10T08:37:52Z</time>
      </trkpt>
      <trkpt lat="42.594155" lon="-8.619641">
        <ele>246.7</ele>
        <time>2020-09-10T08:37:53Z</time>
      </trkpt>
      <trkpt lat="42.594168" lon="-8.619612">
        <ele>246.8</ele>
        <time>2020-09-10T08:37:54Z</time>
      </trkpt>
      <trkpt lat="42.594179" lon="-8.619583">
        <ele>246.8</ele>
        <time>2020-09-10T08:37:54Z</time>
      </trkpt>
      <trkpt lat="42.594194" lon="-8.619555">
        <ele>246.9</ele>
        <time>2020-09-10T08:37:55Z</time>
      </trkpt>
      <trkpt lat="42.594209" lon="-8.619527">
        <ele>247.1</ele>
        <time>2020-09-10T08:37:56Z</time>
      </trkpt>
      <trkpt lat="42.594227" lon="-8.619492">
        <ele>247.2</ele>
        <time>2020-09-10T08:37:57Z</time>
      </trkpt>
      <trkpt lat="42.594245" lon="-8.619453">
        <ele>247.4</ele>
        <time>2020-09-10T08:37:58Z</time>
      </trkpt>
      <trkpt lat="42.594259" lon="-8.619412">
        <ele>247.5</ele>
        <time>2020-09-10T08:37:58Z</time>
      </trkpt>
      <trkpt lat="42.594271" lon="-8.619367">
        <ele>247.6</ele>
        <time>2020-09-10T08:37:59Z</time>
      </trkpt>
      <trkpt lat="42.594280" lon="-8.619326">
        <ele>247.6</ele>
        <time>2020-09-10T08:38:00Z</time>
      </trkpt>
      <trkpt lat="42.594288" lon="-8.619281">
        <ele>247.7</ele>
        <time>2020-09-10T08:38:01Z</time>
      </trkpt>
      <trkpt lat="42.594296" lon="-8.619238">
        <ele>247.7</ele>
        <time>2020-09-10T08:38:02Z</time>
      </trkpt>
      <trkpt lat="42.594304" lon="-8.619199">
        <ele>247.8</ele>
        <time>2020-09-10T08:38:03Z</time>
      </trkpt>
      <trkpt lat="42.594310" lon="-8.619157">
        <ele>247.7</ele>
        <time>2020-09-10T08:38:04Z</time>
      </trkpt>
      <trkpt lat="42.594317" lon="-8.619118">
        <ele>247.6</ele>
        <time>2020-09-10T08:38:04Z</time>
      </trkpt>
      <trkpt lat="42.594331" lon="-8.619074">
        <ele>247.6</ele>
        <time>2020-09-10T08:38:05Z</time>
      </trkpt>
      <trkpt lat="42.594342" lon="-8.619030">
        <ele>247.6</ele>
        <time>2020-09-10T08:38:06Z</time>
      </trkpt>
      <trkpt lat="42.594361" lon="-8.618989">
        <ele>247.8</ele>
        <time>2020-09-10T08:38:07Z</time>
      </trkpt>
      <trkpt lat="42.594385" lon="-8.618946">
        <ele>247.8</ele>
        <time>2020-09-10T08:38:08Z</time>
      </trkpt>
      <trkpt lat="42.594406" lon="-8.618895">
        <ele>247.6</ele>
        <time>2020-09-10T08:38:09Z</time>
      </trkpt>
      <trkpt lat="42.594425" lon="-8.618844">
        <ele>247.4</ele>
        <time>2020-09-10T08:38:11Z</time>
      </trkpt>
      <trkpt lat="42.594436" lon="-8.618789">
        <ele>247.1</ele>
        <time>2020-09-10T08:38:12Z</time>
      </trkpt>
      <trkpt lat="42.594456" lon="-8.618729">
        <ele>246.7</ele>
        <time>2020-09-10T08:38:13Z</time>
      </trkpt>
      <trkpt lat="42.594489" lon="-8.618664">
        <ele>246.4</ele>
        <time>2020-09-10T08:38:14Z</time>
      </trkpt>
      <trkpt lat="42.594527" lon="-8.618568">
        <ele>245.7</ele>
        <time>2020-09-10T08:38:17Z</time>
      </trkpt>
      <trkpt lat="42.594548" lon="-8.618494">
        <ele>245.0</ele>
        <time>2020-09-10T08:38:18Z</time>
      </trkpt>
      <trkpt lat="42.594572" lon="-8.618426">
        <ele>244.4</ele>
        <time>2020-09-10T08:38:20Z</time>
      </trkpt>
      <trkpt lat="42.594597" lon="-8.618354">
        <ele>243.9</ele>
        <time>2020-09-10T08:38:21Z</time>
      </trkpt>
      <trkpt lat="42.594622" lon="-8.618278">
        <ele>243.2</ele>
        <time>2020-09-10T08:38:23Z</time>
      </trkpt>
      <trkpt lat="42.594642" lon="-8.618200">
        <ele>242.2</ele>
        <time>2020-09-10T08:38:25Z</time>
      </trkpt>
      <trkpt lat="42.594679" lon="-8.618114">
        <ele>241.4</ele>
        <time>2020-09-10T08:38:26Z</time>
      </trkpt>
      <trkpt lat="42.594715" lon="-8.618032">
        <ele>240.4</ele>
        <time>2020-09-10T08:38:28Z</time>
      </trkpt>
      <trkpt lat="42.594762" lon="-8.617960">
        <ele>239.8</ele>
        <time>2020-09-10T08:38:30Z</time>
      </trkpt>
      <trkpt lat="42.594791" lon="-8.617900">
        <ele>239.0</ele>
        <time>2020-09-10T08:38:32Z</time>
      </trkpt>
      <trkpt lat="42.594821" lon="-8.617867">
        <ele>238.8</ele>
        <time>2020-09-10T08:38:33Z</time>
      </trkpt>
      <trkpt lat="42.594867" lon="-8.617830">
        <ele>238.5</ele>
        <time>2020-09-10T08:38:34Z</time>
      </trkpt>
      <trkpt lat="42.594915" lon="-8.617803">
        <ele>238.3</ele>
        <time>2020-09-10T08:38:35Z</time>
      </trkpt>
      <trkpt lat="42.594951" lon="-8.617770">
        <ele>237.9</ele>
        <time>2020-09-10T08:38:37Z</time>
      </trkpt>
      <trkpt lat="42.594993" lon="-8.617744">
        <ele>237.6</ele>
        <time>2020-09-10T08:38:38Z</time>
      </trkpt>
      <trkpt lat="42.595038" lon="-8.617728">
        <ele>237.6</ele>
        <time>2020-09-10T08:38:39Z</time>
      </trkpt>
      <trkpt lat="42.595087" lon="-8.617715">
        <ele>237.5</ele>
        <time>2020-09-10T08:38:40Z</time>
      </trkpt>
      <trkpt lat="42.595137" lon="-8.617700">
        <ele>237.2</ele>
        <time>2020-09-10T08:38:42Z</time>
      </trkpt>
      <trkpt lat="42.595182" lon="-8.617693">
        <ele>237.1</ele>
        <time>2020-09-10T08:38:43Z</time>
      </trkpt>
      <trkpt lat="42.595214" lon="-8.617692">
        <ele>237.1</ele>
        <time>2020-09-10T08:38:44Z</time>
      </trkpt>
      <trkpt lat="42.595239" lon="-8.617693">
        <ele>237.2</ele>
        <time>2020-09-10T08:38:45Z</time>
      </trkpt>
      <trkpt lat="42.595280" lon="-8.617688">
        <ele>237.1</ele>
        <time>2020-09-10T08:38:46Z</time>
      </trkpt>
      <trkpt lat="42.595315" lon="-8.617689">
        <ele>237.0</ele>
        <time>2020-09-10T08:38:47Z</time>
      </trkpt>
      <trkpt lat="42.595347" lon="-8.617680">
        <ele>236.6</ele>
        <time>2020-09-10T08:38:47Z</time>
      </trkpt>
      <trkpt lat="42.595377" lon="-8.617665">
        <ele>236.0</ele>
        <time>2020-09-10T08:38:48Z</time>
      </trkpt>
      <trkpt lat="42.595417" lon="-8.617649">
        <ele>235.4</ele>
        <time>2020-09-10T08:38:49Z</time>
      </trkpt>
      <trkpt lat="42.595457" lon="-8.617638">
        <ele>234.9</ele>
        <time>2020-09-10T08:38:50Z</time>
      </trkpt>
      <trkpt lat="42.595499" lon="-8.617627">
        <ele>234.4</ele>
        <time>2020-09-10T08:38:52Z</time>
      </trkpt>
      <trkpt lat="42.595529" lon="-8.617623">
        <ele>234.1</ele>
        <time>2020-09-10T08:38:52Z</time>
      </trkpt>
      <trkpt lat="42.595562" lon="-8.617627">
        <ele>233.9</ele>
        <time>2020-09-10T08:38:53Z</time>
      </trkpt>
      <trkpt lat="42.595600" lon="-8.617625">
        <ele>233.5</ele>
        <time>2020-09-10T08:38:54Z</time>
      </trkpt>
      <trkpt lat="42.595635" lon="-8.617611">
        <ele>232.7</ele>
        <time>2020-09-10T08:38:55Z</time>
      </trkpt>
      <trkpt lat="42.595676" lon="-8.617598">
        <ele>232.0</ele>
        <time>2020-09-10T08:38:56Z</time>
      </trkpt>
      <trkpt lat="42.595719" lon="-8.617585">
        <ele>231.1</ele>
        <time>2020-09-10T08:38:58Z</time>
      </trkpt>
      <trkpt lat="42.595764" lon="-8.617562">
        <ele>229.9</ele>
        <time>2020-09-10T08:38:59Z</time>
      </trkpt>
      <trkpt lat="42.595817" lon="-8.617548">
        <ele>228.6</ele>
        <time>2020-09-10T08:39:00Z</time>
      </trkpt>
      <trkpt lat="42.595885" lon="-8.617572">
        <ele>228.3</ele>
        <time>2020-09-10T08:39:02Z</time>
      </trkpt>
      <trkpt lat="42.595956" lon="-8.617601">
        <ele>228.1</ele>
        <time>2020-09-10T08:39:04Z</time>
      </trkpt>
      <trkpt lat="42.596037" lon="-8.617646">
        <ele>227.8</ele>
        <time>2020-09-10T08:39:07Z</time>
      </trkpt>
      <trkpt lat="42.596111" lon="-8.617692">
        <ele>227.5</ele>
        <time>2020-09-10T08:39:09Z</time>
      </trkpt>
      <trkpt lat="42.596183" lon="-8.617733">
        <ele>227.0</ele>
        <time>2020-09-10T08:39:11Z</time>
      </trkpt>
      <trkpt lat="42.596256" lon="-8.617757">
        <ele>225.9</ele>
        <time>2020-09-10T08:39:13Z</time>
      </trkpt>
      <trkpt lat="42.596374" lon="-8.617789">
        <ele>223.7</ele>
        <time>2020-09-10T08:39:16Z</time>
      </trkpt>
      <trkpt lat="42.596487" lon="-8.617819">
        <ele>221.7</ele>
        <time>2020-09-10T08:39:19Z</time>
      </trkpt>
      <trkpt lat="42.596628" lon="-8.617898">
        <ele>219.7</ele>
        <time>2020-09-10T08:39:23Z</time>
      </trkpt>
      <trkpt lat="42.596706" lon="-8.617953">
        <ele>218.8</ele>
        <time>2020-09-10T08:39:25Z</time>
      </trkpt>
      <trkpt lat="42.596776" lon="-8.617957">
        <ele>217.7</ele>
        <time>2020-09-10T08:39:27Z</time>
      </trkpt>
      <trkpt lat="42.596827" lon="-8.617902">
        <ele>216.3</ele>
        <time>2020-09-10T08:39:29Z</time>
      </trkpt>
      <trkpt lat="42.596790" lon="-8.617809">
        <ele>216.0</ele>
        <time>2020-09-10T08:39:31Z</time>
      </trkpt>
      <trkpt lat="42.596732" lon="-8.617724">
        <ele>215.9</ele>
        <time>2020-09-10T08:39:33Z</time>
      </trkpt>
      <trkpt lat="42.596639" lon="-8.617603">
        <ele>215.8</ele>
        <time>2020-09-10T08:39:37Z</time>
      </trkpt>
      <trkpt lat="42.596591" lon="-8.617528">
        <ele>215.4</ele>
        <time>2020-09-10T08:39:39Z</time>
      </trkpt>
      <trkpt lat="42.596573" lon="-8.617500">
        <ele>215.2</ele>
        <time>2020-09-10T08:39:40Z</time>
      </trkpt>
      <trkpt lat="42.596567" lon="-8.617490">
        <ele>215.1</ele>
        <time>2020-09-10T08:39:40Z</time>
      </trkpt>
      <trkpt lat="42.596555" lon="-8.617477">
        <ele>215.1</ele>
        <time>2020-09-10T08:39:40Z</time>
      </trkpt>
      <trkpt lat="42.596539" lon="-8.617464">
        <ele>215.1</ele>
        <time>2020-09-10T08:39:41Z</time>
      </trkpt>
      <trkpt lat="42.596527" lon="-8.617454">
        <ele>215.1</ele>
        <time>2020-09-10T08:39:41Z</time>
      </trkpt>
      <trkpt lat="42.596520" lon="-8.617447">
        <ele>215.0</ele>
        <time>2020-09-10T08:39:41Z</time>
      </trkpt>
      <trkpt lat="42.596515" lon="-8.617437">
        <ele>214.9</ele>
        <time>2020-09-10T08:39:42Z</time>
      </trkpt>
      <trkpt lat="42.596509" lon="-8.617426">
        <ele>214.8</ele>
        <time>2020-09-10T08:39:42Z</time>
      </trkpt>
      <trkpt lat="42.596498" lon="-8.617411">
        <ele>214.7</ele>
        <time>2020-09-10T08:39:42Z</time>
      </trkpt>
      <trkpt lat="42.596484" lon="-8.617392">
        <ele>214.5</ele>
        <time>2020-09-10T08:39:43Z</time>
      </trkpt>
      <trkpt lat="42.596455" lon="-8.617377">
        <ele>214.6</ele>
        <time>2020-09-10T08:39:44Z</time>
      </trkpt>
      <trkpt lat="42.596426" lon="-8.617359">
        <ele>214.6</ele>
        <time>2020-09-10T08:39:44Z</time>
      </trkpt>
      <trkpt lat="42.596398" lon="-8.617336">
        <ele>214.5</ele>
        <time>2020-09-10T08:39:45Z</time>
      </trkpt>
      <trkpt lat="42.596370" lon="-8.617306">
        <ele>214.2</ele>
        <time>2020-09-10T08:39:46Z</time>
      </trkpt>
      <trkpt lat="42.596341" lon="-8.617274">
        <ele>213.8</ele>
        <time>2020-09-10T08:39:47Z</time>
      </trkpt>
      <trkpt lat="42.596323" lon="-8.617247">
        <ele>213.5</ele>
        <time>2020-09-10T08:39:48Z</time>
      </trkpt>
      <trkpt lat="42.596292" lon="-8.617220">
        <ele>213.2</ele>
        <time>2020-09-10T08:39:49Z</time>
      </trkpt>
      <trkpt lat="42.596249" lon="-8.617194">
        <ele>213.1</ele>
        <time>2020-09-10T08:39:50Z</time>
      </trkpt>
      <trkpt lat="42.596202" lon="-8.617164">
        <ele>212.8</ele>
        <time>2020-09-10T08:39:52Z</time>
      </trkpt>
      <trkpt lat="42.596159" lon="-8.617127">
        <ele>212.4</ele>
        <time>2020-09-10T08:39:53Z</time>
      </trkpt>
      <trkpt lat="42.596133" lon="-8.617101">
        <ele>212.0</ele>
        <time>2020-09-10T08:39:54Z</time>
      </trkpt>
      <trkpt lat="42.596119" lon="-8.617078">
        <ele>211.5</ele>
        <time>2020-09-10T08:39:54Z</time>
      </trkpt>
      <trkpt lat="42.596112" lon="-8.617049">
        <ele>210.8</ele>
        <time>2020-09-10T08:39:55Z</time>
      </trkpt>
      <trkpt lat="42.596101" lon="-8.617025">
        <ele>210.2</ele>
        <time>2020-09-10T08:39:56Z</time>
      </trkpt>
      <trkpt lat="42.596100" lon="-8.617020">
        <ele>210.1</ele>
        <time>2020-09-10T08:39:56Z</time>
      </trkpt>
      <trkpt lat="42.596100" lon="-8.617020">
        <ele>210.1</ele>
        <time>2020-09-10T08:39:56Z</time>
      </trkpt>
      <trkpt lat="42.596100" lon="-8.617020">
        <ele>210.1</ele>
        <time>2020-09-10T08:39:56Z</time>
      </trkpt>
      <trkpt lat="42.596100" lon="-8.617020">
        <ele>210.1</ele>
        <time>2020-09-10T08:39:56Z</time>
      </trkpt>
      <trkpt lat="42.596100" lon="-8.617020">
        <ele>210.1</ele>
        <time>2020-09-10T08:39:56Z</time>
      </trkpt>
      <trkpt lat="42.596128" lon="-8.617032">
        <ele>210.2</ele>
        <time>2020-09-10T08:39:56Z</time>
      </trkpt>
      <trkpt lat="42.596149" lon="-8.617037">
        <ele>210.1</ele>
        <time>2020-09-10T08:39:57Z</time>
      </trkpt>
      <trkpt lat="42.596173" lon="-8.617038">
        <ele>209.9</ele>
        <time>2020-09-10T08:39:58Z</time>
      </trkpt>
      <trkpt lat="42.596201" lon="-8.617025">
        <ele>209.4</ele>
        <time>2020-09-10T08:39:58Z</time>
      </trkpt>
      <trkpt lat="42.596228" lon="-8.617016">
        <ele>208.9</ele>
        <time>2020-09-10T08:39:59Z</time>
      </trkpt>
      <trkpt lat="42.596257" lon="-8.617003">
        <ele>208.4</ele>
        <time>2020-09-10T08:40:00Z</time>
      </trkpt>
      <trkpt lat="42.596285" lon="-8.616988">
        <ele>207.9</ele>
        <time>2020-09-10T08:40:01Z</time>
      </trkpt>
      <trkpt lat="42.596313" lon="-8.616976">
        <ele>207.4</ele>
        <time>2020-09-10T08:40:02Z</time>
      </trkpt>
      <trkpt lat="42.596338" lon="-8.616963">
        <ele>206.9</ele>
        <time>2020-09-10T08:40:02Z</time>
      </trkpt>
      <trkpt lat="42.596370" lon="-8.616944">
        <ele>206.3</ele>
        <time>2020-09-10T08:40:03Z</time>
      </trkpt>
      <trkpt lat="42.596409" lon="-8.616927">
        <ele>205.7</ele>
        <time>2020-09-10T08:40:04Z</time>
      </trkpt>
      <trkpt lat="42.596450" lon="-8.616911">
        <ele>205.2</ele>
        <time>2020-09-10T08:40:05Z</time>
      </trkpt>
      <trkpt lat="42.596493" lon="-8.616892">
        <ele>204.7</ele>
        <time>2020-09-10T08:40:07Z</time>
      </trkpt>
      <trkpt lat="42.596533" lon="-8.616869">
        <ele>204.1</ele>
        <time>2020-09-10T08:40:08Z</time>
      </trkpt>
      <trkpt lat="42.596564" lon="-8.616849">
        <ele>203.6</ele>
        <time>2020-09-10T08:40:09Z</time>
      </trkpt>
      <trkpt lat="42.596599" lon="-8.616825">
        <ele>203.1</ele>
        <time>2020-09-10T08:40:10Z</time>
      </trkpt>
      <trkpt lat="42.596647" lon="-8.616802">
        <ele>202.7</ele>
        <time>2020-09-10T08:40:11Z</time>
      </trkpt>
      <trkpt lat="42.596696" lon="-8.616788">
        <ele>202.3</ele>
        <time>2020-09-10T08:40:12Z</time>
      </trkpt>
      <trkpt lat="42.596762" lon="-8.616771">
        <ele>201.7</ele>
        <time>2020-09-10T08:40:14Z</time>
      </trkpt>
      <trkpt lat="42.596825" lon="-8.616766">
        <ele>201.3</ele>
        <time>2020-09-10T08:40:16Z</time>
      </trkpt>
      <trkpt lat="42.596878" lon="-8.616763">
        <ele>200.9</ele>
        <time>2020-09-10T08:40:17Z</time>
      </trkpt>
      <trkpt lat="42.596925" lon="-8.616760">
        <ele>200.5</ele>
        <time>2020-09-10T08:40:19Z</time>
      </trkpt>
      <trkpt lat="42.596965" lon="-8.616760">
        <ele>200.1</ele>
        <time>2020-09-10T08:40:20Z</time>
      </trkpt>
      <trkpt lat="42.597013" lon="-8.616758">
        <ele>199.6</ele>
        <time>2020-09-10T08:40:21Z</time>
      </trkpt>
      <trkpt lat="42.597061" lon="-8.616757">
        <ele>199.0</ele>
        <time>2020-09-10T08:40:22Z</time>
      </trkpt>
      <trkpt lat="42.597113" lon="-8.616747">
        <ele>198.3</ele>
        <time>2020-09-10T08:40:24Z</time>
      </trkpt>
      <trkpt lat="42.597171" lon="-8.616723">
        <ele>197.8</ele>
        <time>2020-09-10T08:40:25Z</time>
      </trkpt>
      <trkpt lat="42.597216" lon="-8.616693">
        <ele>197.4</ele>
        <time>2020-09-10T08:40:27Z</time>
      </trkpt>
      <trkpt lat="42.597257" lon="-8.616650">
        <ele>196.8</ele>
        <time>2020-09-10T08:40:28Z</time>
      </trkpt>
      <trkpt lat="42.597283" lon="-8.616625">
        <ele>196.4</ele>
        <time>2020-09-10T08:40:29Z</time>
      </trkpt>
      <trkpt lat="42.597312" lon="-8.616602">
        <ele>196.1</ele>
        <time>2020-09-10T08:40:30Z</time>
      </trkpt>
      <trkpt lat="42.597342" lon="-8.616576">
        <ele>195.8</ele>
        <time>2020-09-10T08:40:31Z</time>
      </trkpt>
      <trkpt lat="42.597374" lon="-8.616547">
        <ele>195.6</ele>
        <time>2020-09-10T08:40:32Z</time>
      </trkpt>
      <trkpt lat="42.597405" lon="-8.616508">
        <ele>195.4</ele>
        <time>2020-09-10T08:40:33Z</time>
      </trkpt>
      <trkpt lat="42.597424" lon="-8.616460">
        <ele>195.0</ele>
        <time>2020-09-10T08:40:34Z</time>
      </trkpt>
      <trkpt lat="42.597446" lon="-8.616405">
        <ele>194.3</ele>
        <time>2020-09-10T08:40:35Z</time>
      </trkpt>
      <trkpt lat="42.597458" lon="-8.616359">
        <ele>193.7</ele>
        <time>2020-09-10T08:40:36Z</time>
      </trkpt>
      <trkpt lat="42.597467" lon="-8.616323">
        <ele>193.1</ele>
        <time>2020-09-10T08:40:37Z</time>
      </trkpt>
      <trkpt lat="42.597474" lon="-8.616299">
        <ele>192.8</ele>
        <time>2020-09-10T08:40:37Z</time>
      </trkpt>
      <trkpt lat="42.597483" lon="-8.616278">
        <ele>192.5</ele>
        <time>2020-09-10T08:40:38Z</time>
      </trkpt>
      <trkpt lat="42.597494" lon="-8.616264">
        <ele>192.4</ele>
        <time>2020-09-10T08:40:38Z</time>
      </trkpt>
      <trkpt lat="42.597500" lon="-8.616249">
        <ele>192.2</ele>
        <time>2020-09-10T08:40:39Z</time>
      </trkpt>
      <trkpt lat="42.597514" lon="-8.616221">
        <ele>191.9</ele>
        <time>2020-09-10T08:40:39Z</time>
      </trkpt>
      <trkpt lat="42.597535" lon="-8.616191">
        <ele>191.4</ele>
        <time>2020-09-10T08:40:40Z</time>
      </trkpt>
      <trkpt lat="42.597560" lon="-8.616164">
        <ele>191.1</ele>
        <time>2020-09-10T08:40:41Z</time>
      </trkpt>
      <trkpt lat="42.597588" lon="-8.616145">
        <ele>190.9</ele>
        <time>2020-09-10T08:40:42Z</time>
      </trkpt>
      <trkpt lat="42.597620" lon="-8.616131">
        <ele>190.6</ele>
        <time>2020-09-10T08:40:43Z</time>
      </trkpt>
      <trkpt lat="42.597658" lon="-8.616116">
        <ele>190.2</ele>
        <time>2020-09-10T08:40:44Z</time>
      </trkpt>
      <trkpt lat="42.597702" lon="-8.616101">
        <ele>189.7</ele>
        <time>2020-09-10T08:40:45Z</time>
      </trkpt>
      <trkpt lat="42.597751" lon="-8.616087">
        <ele>189.2</ele>
        <time>2020-09-10T08:40:46Z</time>
      </trkpt>
      <trkpt lat="42.597802" lon="-8.616075">
        <ele>188.7</ele>
        <time>2020-09-10T08:40:48Z</time>
      </trkpt>
      <trkpt lat="42.597854" lon="-8.616059">
        <ele>187.9</ele>
        <time>2020-09-10T08:40:49Z</time>
      </trkpt>
      <trkpt lat="42.597910" lon="-8.616040">
        <ele>186.9</ele>
        <time>2020-09-10T08:40:51Z</time>
      </trkpt>
      <trkpt lat="42.597967" lon="-8.616029">
        <ele>186.0</ele>
        <time>2020-09-10T08:40:52Z</time>
      </trkpt>
      <trkpt lat="42.598020" lon="-8.616015">
        <ele>185.1</ele>
        <time>2020-09-10T08:40:54Z</time>
      </trkpt>
      <trkpt lat="42.598073" lon="-8.616000">
        <ele>184.2</ele>
        <time>2020-09-10T08:40:55Z</time>
      </trkpt>
      <trkpt lat="42.598122" lon="-8.615993">
        <ele>183.7</ele>
        <time>2020-09-10T08:40:56Z</time>
      </trkpt>
      <trkpt lat="42.598173" lon="-8.615987">
        <ele>183.2</ele>
        <time>2020-09-10T08:40:58Z</time>
      </trkpt>
      <trkpt lat="42.598229" lon="-8.615982">
        <ele>182.8</ele>
        <time>2020-09-10T08:40:59Z</time>
      </trkpt>
      <trkpt lat="42.598284" lon="-8.615971">
        <ele>182.4</ele>
        <time>2020-09-10T08:41:01Z</time>
      </trkpt>
      <trkpt lat="42.598338" lon="-8.615952">
        <ele>181.7</ele>
        <time>2020-09-10T08:41:02Z</time>
      </trkpt>
      <trkpt lat="42.598390" lon="-8.615927">
        <ele>181.0</ele>
        <time>2020-09-10T08:41:04Z</time>
      </trkpt>
      <trkpt lat="42.598436" lon="-8.615897">
        <ele>180.3</ele>
        <time>2020-09-10T08:41:05Z</time>
      </trkpt>
      <trkpt lat="42.598474" lon="-8.615863">
        <ele>179.6</ele>
        <time>2020-09-10T08:41:06Z</time>
      </trkpt>
      <trkpt lat="42.598504" lon="-8.615830">
        <ele>179.0</ele>
        <time>2020-09-10T08:41:07Z</time>
      </trkpt>
      <trkpt lat="42.598532" lon="-8.615796">
        <ele>178.3</ele>
        <time>2020-09-10T08:41:08Z</time>
      </trkpt>
      <trkpt lat="42.598557" lon="-8.615755">
        <ele>177.6</ele>
        <time>2020-09-10T08:41:09Z</time>
      </trkpt>
      <trkpt lat="42.598579" lon="-8.615711">
        <ele>177.0</ele>
        <time>2020-09-10T08:41:10Z</time>
      </trkpt>
      <trkpt lat="42.598599" lon="-8.615673">
        <ele>176.6</ele>
        <time>2020-09-10T08:41:11Z</time>
      </trkpt>
      <trkpt lat="42.598617" lon="-8.615641">
        <ele>176.3</ele>
        <time>2020-09-10T08:41:12Z</time>
      </trkpt>
      <trkpt lat="42.598631" lon="-8.615618">
        <ele>176.1</ele>
        <time>2020-09-10T08:41:13Z</time>
      </trkpt>
      <trkpt lat="42.598643" lon="-8.615604">
        <ele>175.9</ele>
        <time>2020-09-10T08:41:13Z</time>
      </trkpt>
      <trkpt lat="42.598656" lon="-8.615597">
        <ele>175.8</ele>
        <time>2020-09-10T08:41:13Z</time>
      </trkpt>
      <trkpt lat="42.598675" lon="-8.615606">
        <ele>175.8</ele>
        <time>2020-09-10T08:41:14Z</time>
      </trkpt>
      <trkpt lat="42.598693" lon="-8.615637">
        <ele>175.8</ele>
        <time>2020-09-10T08:41:15Z</time>
      </trkpt>
      <trkpt lat="42.598706" lon="-8.615680">
        <ele>175.8</ele>
        <time>2020-09-10T08:41:16Z</time>
      </trkpt>
      <trkpt lat="42.598718" lon="-8.615727">
        <ele>175.8</ele>
        <time>2020-09-10T08:41:17Z</time>
      </trkpt>
      <trkpt lat="42.598729" lon="-8.615778">
        <ele>175.9</ele>
        <time>2020-09-10T08:41:18Z</time>
      </trkpt>
      <trkpt lat="42.598738" lon="-8.615833">
        <ele>176.1</ele>
        <time>2020-09-10T08:41:19Z</time>
      </trkpt>
      <trkpt lat="42.598749" lon="-8.615887">
        <ele>176.2</ele>
        <time>2020-09-10T08:41:20Z</time>
      </trkpt>
      <trkpt lat="42.598763" lon="-8.615939">
        <ele>176.3</ele>
        <time>2020-09-10T08:41:21Z</time>
      </trkpt>
      <trkpt lat="42.598779" lon="-8.615992">
        <ele>176.4</ele>
        <time>2020-09-10T08:41:22Z</time>
      </trkpt>
      <trkpt lat="42.598796" lon="-8.616047">
        <ele>176.8</ele>
        <time>2020-09-10T08:41:23Z</time>
      </trkpt>
      <trkpt lat="42.598812" lon="-8.616104">
        <ele>177.1</ele>
        <time>2020-09-10T08:41:24Z</time>
      </trkpt>
      <trkpt lat="42.598827" lon="-8.616160">
        <ele>177.5</ele>
        <time>2020-09-10T08:41:26Z</time>
      </trkpt>
      <trkpt lat="42.598841" lon="-8.616220">
        <ele>177.8</ele>
        <time>2020-09-10T08:41:27Z</time>
      </trkpt>
      <trkpt lat="42.598855" lon="-8.616281">
        <ele>178.0</ele>
        <time>2020-09-10T08:41:28Z</time>
      </trkpt>
      <trkpt lat="42.598870" lon="-8.616344">
        <ele>178.2</ele>
        <time>2020-09-10T08:41:29Z</time>
      </trkpt>
      <trkpt lat="42.598883" lon="-8.616404">
        <ele>178.4</ele>
        <time>2020-09-10T08:41:31Z</time>
      </trkpt>
      <trkpt lat="42.598894" lon="-8.616462">
        <ele>178.7</ele>
        <time>2020-09-10T08:41:32Z</time>
      </trkpt>
      <trkpt lat="42.598908" lon="-8.616522">
        <ele>179.0</ele>
        <time>2020-09-10T08:41:33Z</time>
      </trkpt>
      <trkpt lat="42.598923" lon="-8.616581">
        <ele>179.2</ele>
        <time>2020-09-10T08:41:34Z</time>
      </trkpt>
      <trkpt lat="42.598940" lon="-8.616634">
        <ele>179.4</ele>
        <time>2020-09-10T08:41:35Z</time>
      </trkpt>
      <trkpt lat="42.598969" lon="-8.616683">
        <ele>179.2</ele>
        <time>2020-09-10T08:41:37Z</time>
      </trkpt>
      <trkpt lat="42.599005" lon="-8.616728">
        <ele>179.3</ele>
        <time>2020-09-10T08:41:38Z</time>
      </trkpt>
      <trkpt lat="42.599044" lon="-8.616768">
        <ele>179.4</ele>
        <time>2020-09-10T08:41:39Z</time>
      </trkpt>
      <trkpt lat="42.599087" lon="-8.616804">
        <ele>179.3</ele>
        <time>2020-09-10T08:41:41Z</time>
      </trkpt>
      <trkpt lat="42.599130" lon="-8.616841">
        <ele>179.2</ele>
        <time>2020-09-10T08:41:42Z</time>
      </trkpt>
      <trkpt lat="42.599173" lon="-8.616879">
        <ele>179.1</ele>
        <time>2020-09-10T08:41:43Z</time>
      </trkpt>
      <trkpt lat="42.599216" lon="-8.616919">
        <ele>179.0</ele>
        <time>2020-09-10T08:41:45Z</time>
      </trkpt>
      <trkpt lat="42.599258" lon="-8.616960">
        <ele>178.8</ele>
        <time>2020-09-10T08:41:46Z</time>
      </trkpt>
      <trkpt lat="42.599301" lon="-8.617000">
        <ele>178.6</ele>
        <time>2020-09-10T08:41:47Z</time>
      </trkpt>
      <trkpt lat="42.599342" lon="-8.617044">
        <ele>178.5</ele>
        <time>2020-09-10T08:41:49Z</time>
      </trkpt>
      <trkpt lat="42.599379" lon="-8.617090">
        <ele>178.3</ele>
        <time>2020-09-10T08:41:50Z</time>
      </trkpt>
      <trkpt lat="42.599410" lon="-8.617143">
        <ele>178.3</ele>
        <time>2020-09-10T08:41:52Z</time>
      </trkpt>
      <trkpt lat="42.599433" lon="-8.617203">
        <ele>178.3</ele>
        <time>2020-09-10T08:41:53Z</time>
      </trkpt>
      <trkpt lat="42.599451" lon="-8.617266">
        <ele>178.5</ele>
        <time>2020-09-10T08:41:54Z</time>
      </trkpt>
      <trkpt lat="42.599457" lon="-8.617331">
        <ele>178.9</ele>
        <time>2020-09-10T08:41:55Z</time>
      </trkpt>
      <trkpt lat="42.599461" lon="-8.617397">
        <ele>179.3</ele>
        <time>2020-09-10T08:41:57Z</time>
      </trkpt>
      <trkpt lat="42.599470" lon="-8.617464">
        <ele>179.7</ele>
        <time>2020-09-10T08:41:58Z</time>
      </trkpt>
      <trkpt lat="42.599479" lon="-8.617536">
        <ele>180.0</ele>
        <time>2020-09-10T08:42:00Z</time>
      </trkpt>
      <trkpt lat="42.599489" lon="-8.617604">
        <ele>180.2</ele>
        <time>2020-09-10T08:42:01Z</time>
      </trkpt>
      <trkpt lat="42.599504" lon="-8.617666">
        <ele>180.2</ele>
        <time>2020-09-10T08:42:02Z</time>
      </trkpt>
      <trkpt lat="42.599523" lon="-8.617726">
        <ele>180.1</ele>
        <time>2020-09-10T08:42:03Z</time>
      </trkpt>
      <trkpt lat="42.599540" lon="-8.617783">
        <ele>180.0</ele>
        <time>2020-09-10T08:42:05Z</time>
      </trkpt>
      <trkpt lat="42.599557" lon="-8.617835">
        <ele>179.9</ele>
        <time>2020-09-10T08:42:06Z</time>
      </trkpt>
      <trkpt lat="42.599578" lon="-8.617883">
        <ele>179.7</ele>
        <time>2020-09-10T08:42:07Z</time>
      </trkpt>
      <trkpt lat="42.599606" lon="-8.617926">
        <ele>179.3</ele>
        <time>2020-09-10T08:42:08Z</time>
      </trkpt>
      <trkpt lat="42.599645" lon="-8.617953">
        <ele>178.6</ele>
        <time>2020-09-10T08:42:09Z</time>
      </trkpt>
      <trkpt lat="42.599693" lon="-8.617970">
        <ele>178.0</ele>
        <time>2020-09-10T08:42:11Z</time>
      </trkpt>
      <trkpt lat="42.599747" lon="-8.617983">
        <ele>177.5</ele>
        <time>2020-09-10T08:42:12Z</time>
      </trkpt>
      <trkpt lat="42.599802" lon="-8.617998">
        <ele>177.0</ele>
        <time>2020-09-10T08:42:13Z</time>
      </trkpt>
      <trkpt lat="42.599854" lon="-8.618017">
        <ele>176.5</ele>
        <time>2020-09-10T08:42:15Z</time>
      </trkpt>
      <trkpt lat="42.599909" lon="-8.618030">
        <ele>176.0</ele>
        <time>2020-09-10T08:42:16Z</time>
      </trkpt>
      <trkpt lat="42.599959" lon="-8.618036">
        <ele>175.3</ele>
        <time>2020-09-10T08:42:18Z</time>
      </trkpt>
      <trkpt lat="42.600003" lon="-8.618036">
        <ele>174.8</ele>
        <time>2020-09-10T08:42:19Z</time>
      </trkpt>
      <trkpt lat="42.600042" lon="-8.618035">
        <ele>174.3</ele>
        <time>2020-09-10T08:42:20Z</time>
      </trkpt>
      <trkpt lat="42.600079" lon="-8.618028">
        <ele>173.8</ele>
        <time>2020-09-10T08:42:21Z</time>
      </trkpt>
      <trkpt lat="42.600113" lon="-8.618022">
        <ele>173.3</ele>
        <time>2020-09-10T08:42:22Z</time>
      </trkpt>
      <trkpt lat="42.600143" lon="-8.618025">
        <ele>172.9</ele>
        <time>2020-09-10T08:42:23Z</time>
      </trkpt>
      <trkpt lat="42.600172" lon="-8.618036">
        <ele>172.4</ele>
        <time>2020-09-10T08:42:23Z</time>
      </trkpt>
      <trkpt lat="42.600203" lon="-8.618045">
        <ele>172.0</ele>
        <time>2020-09-10T08:42:24Z</time>
      </trkpt>
      <trkpt lat="42.600225" lon="-8.618046">
        <ele>171.6</ele>
        <time>2020-09-10T08:42:25Z</time>
      </trkpt>
      <trkpt lat="42.600240" lon="-8.618032">
        <ele>171.4</ele>
        <time>2020-09-10T08:42:25Z</time>
      </trkpt>
      <trkpt lat="42.600254" lon="-8.618000">
        <ele>171.2</ele>
        <time>2020-09-10T08:42:26Z</time>
      </trkpt>
      <trkpt lat="42.600266" lon="-8.617957">
        <ele>171.0</ele>
        <time>2020-09-10T08:42:27Z</time>
      </trkpt>
      <trkpt lat="42.600279" lon="-8.617918">
        <ele>170.8</ele>
        <time>2020-09-10T08:42:28Z</time>
      </trkpt>
      <trkpt lat="42.600294" lon="-8.617878">
        <ele>170.6</ele>
        <time>2020-09-10T08:42:29Z</time>
      </trkpt>
      <trkpt lat="42.600316" lon="-8.617837">
        <ele>170.4</ele>
        <time>2020-09-10T08:42:30Z</time>
      </trkpt>
      <trkpt lat="42.600347" lon="-8.617793">
        <ele>170.0</ele>
        <time>2020-09-10T08:42:31Z</time>
      </trkpt>
      <trkpt lat="42.600380" lon="-8.617743">
        <ele>169.4</ele>
        <time>2020-09-10T08:42:32Z</time>
      </trkpt>
      <trkpt lat="42.600406" lon="-8.617706">
        <ele>169.0</ele>
        <time>2020-09-10T08:42:33Z</time>
      </trkpt>
      <trkpt lat="42.600429" lon="-8.617668">
        <ele>168.6</ele>
        <time>2020-09-10T08:42:34Z</time>
      </trkpt>
      <trkpt lat="42.600448" lon="-8.617622">
        <ele>168.4</ele>
        <time>2020-09-10T08:42:35Z</time>
      </trkpt>
      <trkpt lat="42.600465" lon="-8.617575">
        <ele>168.1</ele>
        <time>2020-09-10T08:42:36Z</time>
      </trkpt>
      <trkpt lat="42.600471" lon="-8.617525">
        <ele>168.0</ele>
        <time>2020-09-10T08:42:37Z</time>
      </trkpt>
      <trkpt lat="42.600471" lon="-8.617480">
        <ele>167.9</ele>
        <time>2020-09-10T08:42:38Z</time>
      </trkpt>
      <trkpt lat="42.600468" lon="-8.617439">
        <ele>167.9</ele>
        <time>2020-09-10T08:42:39Z</time>
      </trkpt>
      <trkpt lat="42.600465" lon="-8.617394">
        <ele>167.9</ele>
        <time>2020-09-10T08:42:40Z</time>
      </trkpt>
      <trkpt lat="42.600474" lon="-8.617344">
        <ele>167.8</ele>
        <time>2020-09-10T08:42:41Z</time>
      </trkpt>
      <trkpt lat="42.600477" lon="-8.617295">
        <ele>167.8</ele>
        <time>2020-09-10T08:42:42Z</time>
      </trkpt>
      <trkpt lat="42.600494" lon="-8.617237">
        <ele>167.7</ele>
        <time>2020-09-10T08:42:43Z</time>
      </trkpt>
      <trkpt lat="42.600495" lon="-8.617189">
        <ele>167.8</ele>
        <time>2020-09-10T08:42:44Z</time>
      </trkpt>
      <trkpt lat="42.600501" lon="-8.617138">
        <ele>167.8</ele>
        <time>2020-09-10T08:42:45Z</time>
      </trkpt>
      <trkpt lat="42.600513" lon="-8.617086">
        <ele>167.6</ele>
        <time>2020-09-10T08:42:46Z</time>
      </trkpt>
      <trkpt lat="42.600522" lon="-8.617026">
        <ele>167.4</ele>
        <time>2020-09-10T08:42:47Z</time>
      </trkpt>
      <trkpt lat="42.600532" lon="-8.616975">
        <ele>167.2</ele>
        <time>2020-09-10T08:42:48Z</time>
      </trkpt>
      <trkpt lat="42.600545" lon="-8.616919">
        <ele>166.9</ele>
        <time>2020-09-10T08:42:49Z</time>
      </trkpt>
      <trkpt lat="42.600553" lon="-8.616865">
        <ele>166.7</ele>
        <time>2020-09-10T08:42:51Z</time>
      </trkpt>
      <trkpt lat="42.600574" lon="-8.616799">
        <ele>166.2</ele>
        <time>2020-09-10T08:42:52Z</time>
      </trkpt>
      <trkpt lat="42.600556" lon="-8.616735">
        <ele>166.2</ele>
        <time>2020-09-10T08:42:53Z</time>
      </trkpt>
      <trkpt lat="42.600549" lon="-8.616671">
        <ele>166.1</ele>
        <time>2020-09-10T08:42:55Z</time>
      </trkpt>
      <trkpt lat="42.600543" lon="-8.616616">
        <ele>166.0</ele>
        <time>2020-09-10T08:42:56Z</time>
      </trkpt>
      <trkpt lat="42.600530" lon="-8.616558">
        <ele>166.0</ele>
        <time>2020-09-10T08:42:57Z</time>
      </trkpt>
      <trkpt lat="42.600515" lon="-8.616497">
        <ele>166.1</ele>
        <time>2020-09-10T08:42:58Z</time>
      </trkpt>
      <trkpt lat="42.600496" lon="-8.616440">
        <ele>166.2</ele>
        <time>2020-09-10T08:42:59Z</time>
      </trkpt>
      <trkpt lat="42.600490" lon="-8.616384">
        <ele>166.1</ele>
        <time>2020-09-10T08:43:00Z</time>
      </trkpt>
      <trkpt lat="42.600480" lon="-8.616334">
        <ele>166.1</ele>
        <time>2020-09-10T08:43:01Z</time>
      </trkpt>
      <trkpt lat="42.600474" lon="-8.616287">
        <ele>166.0</ele>
        <time>2020-09-10T08:43:02Z</time>
      </trkpt>
      <trkpt lat="42.600460" lon="-8.616248">
        <ele>166.1</ele>
        <time>2020-09-10T08:43:03Z</time>
      </trkpt>
      <trkpt lat="42.600440" lon="-8.616199">
        <ele>166.2</ele>
        <time>2020-09-10T08:43:04Z</time>
      </trkpt>
      <trkpt lat="42.600437" lon="-8.616148">
        <ele>165.9</ele>
        <time>2020-09-10T08:43:05Z</time>
      </trkpt>
      <trkpt lat="42.600439" lon="-8.616092">
        <ele>165.4</ele>
        <time>2020-09-10T08:43:06Z</time>
      </trkpt>
      <trkpt lat="42.600445" lon="-8.616027">
        <ele>164.9</ele>
        <time>2020-09-10T08:43:08Z</time>
      </trkpt>
      <trkpt lat="42.600446" lon="-8.615960">
        <ele>164.5</ele>
        <time>2020-09-10T08:43:09Z</time>
      </trkpt>
      <trkpt lat="42.600439" lon="-8.615899">
        <ele>164.5</ele>
        <time>2020-09-10T08:43:10Z</time>
      </trkpt>
      <trkpt lat="42.600431" lon="-8.615838">
        <ele>164.4</ele>
        <time>2020-09-10T08:43:12Z</time>
      </trkpt>
      <trkpt lat="42.600428" lon="-8.615777">
        <ele>164.3</ele>
        <time>2020-09-10T08:43:13Z</time>
      </trkpt>
      <trkpt lat="42.600434" lon="-8.615720">
        <ele>164.1</ele>
        <time>2020-09-10T08:43:14Z</time>
      </trkpt>
      <trkpt lat="42.600443" lon="-8.615667">
        <ele>163.9</ele>
        <time>2020-09-10T08:43:15Z</time>
      </trkpt>
      <trkpt lat="42.600448" lon="-8.615617">
        <ele>163.8</ele>
        <time>2020-09-10T08:43:16Z</time>
      </trkpt>
      <trkpt lat="42.600450" lon="-8.615576">
        <ele>163.8</ele>
        <time>2020-09-10T08:43:17Z</time>
      </trkpt>
      <trkpt lat="42.600452" lon="-8.615545">
        <ele>163.7</ele>
        <time>2020-09-10T08:43:17Z</time>
      </trkpt>
      <trkpt lat="42.600455" lon="-8.615517">
        <ele>163.6</ele>
        <time>2020-09-10T08:43:18Z</time>
      </trkpt>
      <trkpt lat="42.600461" lon="-8.615484">
        <ele>163.4</ele>
        <time>2020-09-10T08:43:19Z</time>
      </trkpt>
      <trkpt lat="42.600468" lon="-8.615439">
        <ele>163.0</ele>
        <time>2020-09-10T08:43:19Z</time>
      </trkpt>
      <trkpt lat="42.600473" lon="-8.615385">
        <ele>162.6</ele>
        <time>2020-09-10T08:43:21Z</time>
      </trkpt>
      <trkpt lat="42.600474" lon="-8.615327">
        <ele>162.2</ele>
        <time>2020-09-10T08:43:22Z</time>
      </trkpt>
      <trkpt lat="42.600476" lon="-8.615268">
        <ele>161.8</ele>
        <time>2020-09-10T08:43:23Z</time>
      </trkpt>
      <trkpt lat="42.600476" lon="-8.615209">
        <ele>161.2</ele>
        <time>2020-09-10T08:43:24Z</time>
      </trkpt>
      <trkpt lat="42.600471" lon="-8.615147">
        <ele>160.7</ele>
        <time>2020-09-10T08:43:25Z</time>
      </trkpt>
      <trkpt lat="42.600464" lon="-8.615083">
        <ele>160.2</ele>
        <time>2020-09-10T08:43:26Z</time>
      </trkpt>
      <trkpt lat="42.600468" lon="-8.615021">
        <ele>159.8</ele>
        <time>2020-09-10T08:43:28Z</time>
      </trkpt>
      <trkpt lat="42.600488" lon="-8.614960">
        <ele>159.3</ele>
        <time>2020-09-10T08:43:29Z</time>
      </trkpt>
      <trkpt lat="42.600517" lon="-8.614901">
        <ele>158.6</ele>
        <time>2020-09-10T08:43:30Z</time>
      </trkpt>
      <trkpt lat="42.600544" lon="-8.614840">
        <ele>157.8</ele>
        <time>2020-09-10T08:43:32Z</time>
      </trkpt>
      <trkpt lat="42.600566" lon="-8.614775">
        <ele>157.4</ele>
        <time>2020-09-10T08:43:33Z</time>
      </trkpt>
      <trkpt lat="42.600578" lon="-8.614710">
        <ele>157.2</ele>
        <time>2020-09-10T08:43:35Z</time>
      </trkpt>
      <trkpt lat="42.600583" lon="-8.614649">
        <ele>157.1</ele>
        <time>2020-09-10T08:43:36Z</time>
      </trkpt>
      <trkpt lat="42.600585" lon="-8.614597">
        <ele>157.1</ele>
        <time>2020-09-10T08:43:37Z</time>
      </trkpt>
      <trkpt lat="42.600581" lon="-8.614550">
        <ele>157.3</ele>
        <time>2020-09-10T08:43:38Z</time>
      </trkpt>
      <trkpt lat="42.600566" lon="-8.614510">
        <ele>157.6</ele>
        <time>2020-09-10T08:43:39Z</time>
      </trkpt>
      <trkpt lat="42.600547" lon="-8.614477">
        <ele>158.0</ele>
        <time>2020-09-10T08:43:39Z</time>
      </trkpt>
      <trkpt lat="42.600533" lon="-8.614449">
        <ele>158.2</ele>
        <time>2020-09-10T08:43:40Z</time>
      </trkpt>
      <trkpt lat="42.600524" lon="-8.614420">
        <ele>158.4</ele>
        <time>2020-09-10T08:43:41Z</time>
      </trkpt>
      <trkpt lat="42.600513" lon="-8.614387">
        <ele>158.6</ele>
        <time>2020-09-10T08:43:41Z</time>
      </trkpt>
      <trkpt lat="42.600503" lon="-8.614351">
        <ele>158.6</ele>
        <time>2020-09-10T08:43:42Z</time>
      </trkpt>
      <trkpt lat="42.600497" lon="-8.614314">
        <ele>158.5</ele>
        <time>2020-09-10T08:43:43Z</time>
      </trkpt>
      <trkpt lat="42.600492" lon="-8.614275">
        <ele>158.3</ele>
        <time>2020-09-10T08:43:44Z</time>
      </trkpt>
      <trkpt lat="42.600484" lon="-8.614228">
        <ele>158.1</ele>
        <time>2020-09-10T08:43:45Z</time>
      </trkpt>
      <trkpt lat="42.600479" lon="-8.614170">
        <ele>157.8</ele>
        <time>2020-09-10T08:43:46Z</time>
      </trkpt>
      <trkpt lat="42.600471" lon="-8.614110">
        <ele>157.3</ele>
        <time>2020-09-10T08:43:47Z</time>
      </trkpt>
      <trkpt lat="42.600463" lon="-8.614049">
        <ele>156.6</ele>
        <time>2020-09-10T08:43:48Z</time>
      </trkpt>
      <trkpt lat="42.600464" lon="-8.613987">
        <ele>156.0</ele>
        <time>2020-09-10T08:43:49Z</time>
      </trkpt>
      <trkpt lat="42.600479" lon="-8.613921">
        <ele>155.4</ele>
        <time>2020-09-10T08:43:51Z</time>
      </trkpt>
      <trkpt lat="42.600506" lon="-8.613850">
        <ele>155.0</ele>
        <time>2020-09-10T08:43:52Z</time>
      </trkpt>
      <trkpt lat="42.600540" lon="-8.613771">
        <ele>154.6</ele>
        <time>2020-09-10T08:43:54Z</time>
      </trkpt>
      <trkpt lat="42.600571" lon="-8.613690">
        <ele>154.3</ele>
        <time>2020-09-10T08:43:56Z</time>
      </trkpt>
      <trkpt lat="42.600596" lon="-8.613602">
        <ele>153.8</ele>
        <time>2020-09-10T08:43:58Z</time>
      </trkpt>
      <trkpt lat="42.600609" lon="-8.613506">
        <ele>153.1</ele>
        <time>2020-09-10T08:44:00Z</time>
      </trkpt>
      <trkpt lat="42.600617" lon="-8.613408">
        <ele>152.3</ele>
        <time>2020-09-10T08:44:02Z</time>
      </trkpt>
      <trkpt lat="42.600621" lon="-8.613307">
        <ele>151.4</ele>
        <time>2020-09-10T08:44:04Z</time>
      </trkpt>
      <trkpt lat="42.600618" lon="-8.613201">
        <ele>150.3</ele>
        <time>2020-09-10T08:44:06Z</time>
      </trkpt>
      <trkpt lat="42.600610" lon="-8.613085">
        <ele>149.4</ele>
        <time>2020-09-10T08:44:08Z</time>
      </trkpt>
      <trkpt lat="42.600605" lon="-8.612963">
        <ele>148.5</ele>
        <time>2020-09-10T08:44:10Z</time>
      </trkpt>
      <trkpt lat="42.600606" lon="-8.612845">
        <ele>147.6</ele>
        <time>2020-09-10T08:44:13Z</time>
      </trkpt>
      <trkpt lat="42.600604" lon="-8.612725">
        <ele>146.4</ele>
        <time>2020-09-10T08:44:15Z</time>
      </trkpt>
      <trkpt lat="42.600591" lon="-8.612593">
        <ele>144.7</ele>
        <time>2020-09-10T08:44:18Z</time>
      </trkpt>
      <trkpt lat="42.600572" lon="-8.612466">
        <ele>143.0</ele>
        <time>2020-09-10T08:44:20Z</time>
      </trkpt>
      <trkpt lat="42.600550" lon="-8.612348">
        <ele>141.6</ele>
        <time>2020-09-10T08:44:23Z</time>
      </trkpt>
      <trkpt lat="42.600532" lon="-8.612231">
        <ele>140.3</ele>
        <time>2020-09-10T08:44:25Z</time>
      </trkpt>
      <trkpt lat="42.600528" lon="-8.612120">
        <ele>139.0</ele>
        <time>2020-09-10T08:44:27Z</time>
      </trkpt>
      <trkpt lat="42.600533" lon="-8.612016">
        <ele>137.6</ele>
        <time>2020-09-10T08:44:29Z</time>
      </trkpt>
      <trkpt lat="42.600554" lon="-8.611914">
        <ele>135.9</ele>
        <time>2020-09-10T08:44:31Z</time>
      </trkpt>
      <trkpt lat="42.600587" lon="-8.611814">
        <ele>134.1</ele>
        <time>2020-09-10T08:44:33Z</time>
      </trkpt>
      <trkpt lat="42.600627" lon="-8.611717">
        <ele>132.8</ele>
        <time>2020-09-10T08:44:36Z</time>
      </trkpt>
      <trkpt lat="42.600668" lon="-8.611626">
        <ele>131.5</ele>
        <time>2020-09-10T08:44:38Z</time>
      </trkpt>
      <trkpt lat="42.600701" lon="-8.611550">
        <ele>130.8</ele>
        <time>2020-09-10T08:44:39Z</time>
      </trkpt>
      <trkpt lat="42.600727" lon="-8.611482">
        <ele>130.2</ele>
        <time>2020-09-10T08:44:41Z</time>
      </trkpt>
      <trkpt lat="42.600742" lon="-8.611427">
        <ele>129.7</ele>
        <time>2020-09-10T08:44:42Z</time>
      </trkpt>
      <trkpt lat="42.600757" lon="-8.611379">
        <ele>129.2</ele>
        <time>2020-09-10T08:44:43Z</time>
      </trkpt>
      <trkpt lat="42.600773" lon="-8.611339">
        <ele>128.9</ele>
        <time>2020-09-10T08:44:44Z</time>
      </trkpt>
      <trkpt lat="42.600791" lon="-8.611297">
        <ele>128.7</ele>
        <time>2020-09-10T08:44:45Z</time>
      </trkpt>
      <trkpt lat="42.600817" lon="-8.611254">
        <ele>128.5</ele>
        <time>2020-09-10T08:44:46Z</time>
      </trkpt>
      <trkpt lat="42.600840" lon="-8.611213">
        <ele>128.3</ele>
        <time>2020-09-10T08:44:47Z</time>
      </trkpt>
      <trkpt lat="42.600860" lon="-8.611179">
        <ele>128.2</ele>
        <time>2020-09-10T08:44:48Z</time>
      </trkpt>
      <trkpt lat="42.600867" lon="-8.611164">
        <ele>128.1</ele>
        <time>2020-09-10T08:44:48Z</time>
      </trkpt>
      <trkpt lat="42.600867" lon="-8.611164">
        <ele>128.1</ele>
        <time>2020-09-10T08:44:48Z</time>
      </trkpt>
      <trkpt lat="42.600867" lon="-8.611164">
        <ele>128.1</ele>
        <time>2020-09-10T08:44:48Z</time>
      </trkpt>
      <trkpt lat="42.600908" lon="-8.611107">
        <ele>128.0</ele>
        <time>2020-09-10T08:44:50Z</time>
      </trkpt>
      <trkpt lat="42.600925" lon="-8.611069">
        <ele>128.0</ele>
        <time>2020-09-10T08:44:51Z</time>
      </trkpt>
      <trkpt lat="42.600944" lon="-8.611022">
        <ele>128.0</ele>
        <time>2020-09-10T08:44:52Z</time>
      </trkpt>
      <trkpt lat="42.600972" lon="-8.610974">
        <ele>128.0</ele>
        <time>2020-09-10T08:44:53Z</time>
      </trkpt>
      <trkpt lat="42.601009" lon="-8.610922">
        <ele>128.0</ele>
        <time>2020-09-10T08:44:54Z</time>
      </trkpt>
      <trkpt lat="42.601045" lon="-8.610870">
        <ele>128.0</ele>
        <time>2020-09-10T08:44:56Z</time>
      </trkpt>
      <trkpt lat="42.601083" lon="-8.610819">
        <ele>127.9</ele>
        <time>2020-09-10T08:44:57Z</time>
      </trkpt>
      <trkpt lat="42.601123" lon="-8.610772">
        <ele>127.9</ele>
        <time>2020-09-10T08:44:59Z</time>
      </trkpt>
      <trkpt lat="42.601166" lon="-8.610729">
        <ele>127.9</ele>
        <time>2020-09-10T08:45:00Z</time>
      </trkpt>
      <trkpt lat="42.601208" lon="-8.610691">
        <ele>128.0</ele>
        <time>2020-09-10T08:45:01Z</time>
      </trkpt>
      <trkpt lat="42.601253" lon="-8.610653">
        <ele>128.1</ele>
        <time>2020-09-10T08:45:03Z</time>
      </trkpt>
      <trkpt lat="42.601299" lon="-8.610624">
        <ele>128.2</ele>
        <time>2020-09-10T08:45:04Z</time>
      </trkpt>
      <trkpt lat="42.601347" lon="-8.610601">
        <ele>128.4</ele>
        <time>2020-09-10T08:45:05Z</time>
      </trkpt>
      <trkpt lat="42.601397" lon="-8.610581">
        <ele>128.5</ele>
        <time>2020-09-10T08:45:07Z</time>
      </trkpt>
      <trkpt lat="42.601445" lon="-8.610570">
        <ele>128.6</ele>
        <time>2020-09-10T08:45:08Z</time>
      </trkpt>
      <trkpt lat="42.601495" lon="-8.610563">
        <ele>128.6</ele>
        <time>2020-09-10T08:45:09Z</time>
      </trkpt>
      <trkpt lat="42.601546" lon="-8.610554">
        <ele>128.7</ele>
        <time>2020-09-10T08:45:11Z</time>
      </trkpt>
      <trkpt lat="42.601596" lon="-8.610550">
        <ele>128.8</ele>
        <time>2020-09-10T08:45:12Z</time>
      </trkpt>
      <trkpt lat="42.601642" lon="-8.610546">
        <ele>128.8</ele>
        <time>2020-09-10T08:45:13Z</time>
      </trkpt>
      <trkpt lat="42.601692" lon="-8.610541">
        <ele>128.9</ele>
        <time>2020-09-10T08:45:15Z</time>
      </trkpt>
      <trkpt lat="42.601741" lon="-8.610536">
        <ele>128.9</ele>
        <time>2020-09-10T08:45:16Z</time>
      </trkpt>
      <trkpt lat="42.601791" lon="-8.610527">
        <ele>128.9</ele>
        <time>2020-09-10T08:45:17Z</time>
      </trkpt>
      <trkpt lat="42.601841" lon="-8.610520">
        <ele>128.9</ele>
        <time>2020-09-10T08:45:19Z</time>
      </trkpt>
      <trkpt lat="42.601893" lon="-8.610511">
        <ele>128.9</ele>
        <time>2020-09-10T08:45:20Z</time>
      </trkpt>
      <trkpt lat="42.601945" lon="-8.610498">
        <ele>128.9</ele>
        <time>2020-09-10T08:45:22Z</time>
      </trkpt>
      <trkpt lat="42.601996" lon="-8.610475">
        <ele>128.9</ele>
        <time>2020-09-10T08:45:23Z</time>
      </trkpt>
      <trkpt lat="42.602045" lon="-8.610444">
        <ele>128.7</ele>
        <time>2020-09-10T08:45:24Z</time>
      </trkpt>
      <trkpt lat="42.602084" lon="-8.610402">
        <ele>128.5</ele>
        <time>2020-09-10T08:45:26Z</time>
      </trkpt>
      <trkpt lat="42.602105" lon="-8.610345">
        <ele>128.3</ele>
        <time>2020-09-10T08:45:27Z</time>
      </trkpt>
      <trkpt lat="42.602104" lon="-8.610285">
        <ele>128.3</ele>
        <time>2020-09-10T08:45:28Z</time>
      </trkpt>
      <trkpt lat="42.602082" lon="-8.610229">
        <ele>128.4</ele>
        <time>2020-09-10T08:45:29Z</time>
      </trkpt>
      <trkpt lat="42.602051" lon="-8.610177">
        <ele>128.3</ele>
        <time>2020-09-10T08:45:31Z</time>
      </trkpt>
      <trkpt lat="42.602018" lon="-8.610126">
        <ele>128.2</ele>
        <time>2020-09-10T08:45:32Z</time>
      </trkpt>
      <trkpt lat="42.601981" lon="-8.610078">
        <ele>128.2</ele>
        <time>2020-09-10T08:45:33Z</time>
      </trkpt>
      <trkpt lat="42.601939" lon="-8.610032">
        <ele>128.2</ele>
        <time>2020-09-10T08:45:35Z</time>
      </trkpt>
      <trkpt lat="42.601895" lon="-8.609985">
        <ele>128.2</ele>
        <time>2020-09-10T08:45:36Z</time>
      </trkpt>
      <trkpt lat="42.601852" lon="-8.609933">
        <ele>128.0</ele>
        <time>2020-09-10T08:45:38Z</time>
      </trkpt>
      <trkpt lat="42.601809" lon="-8.609877">
        <ele>127.9</ele>
        <time>2020-09-10T08:45:40Z</time>
      </trkpt>
      <trkpt lat="42.601763" lon="-8.609824">
        <ele>128.0</ele>
        <time>2020-09-10T08:45:41Z</time>
      </trkpt>
      <trkpt lat="42.601716" lon="-8.609775">
        <ele>128.2</ele>
        <time>2020-09-10T08:45:43Z</time>
      </trkpt>
      <trkpt lat="42.601671" lon="-8.609735">
        <ele>128.5</ele>
        <time>2020-09-10T08:45:44Z</time>
      </trkpt>
      <trkpt lat="42.601626" lon="-8.609699">
        <ele>129.0</ele>
        <time>2020-09-10T08:45:46Z</time>
      </trkpt>
      <trkpt lat="42.601584" lon="-8.609660">
        <ele>129.6</ele>
        <time>2020-09-10T08:45:47Z</time>
      </trkpt>
      <trkpt lat="42.601552" lon="-8.609613">
        <ele>130.2</ele>
        <time>2020-09-10T08:45:48Z</time>
      </trkpt>
      <trkpt lat="42.601521" lon="-8.609563">
        <ele>130.8</ele>
        <time>2020-09-10T08:45:49Z</time>
      </trkpt>
      <trkpt lat="42.601505" lon="-8.609515">
        <ele>131.1</ele>
        <time>2020-09-10T08:45:50Z</time>
      </trkpt>
      <trkpt lat="42.601491" lon="-8.609470">
        <ele>131.1</ele>
        <time>2020-09-10T08:45:51Z</time>
      </trkpt>
      <trkpt lat="42.601474" lon="-8.609423">
        <ele>131.1</ele>
        <time>2020-09-10T08:45:52Z</time>
      </trkpt>
      <trkpt lat="42.601452" lon="-8.609378">
        <ele>131.2</ele>
        <time>2020-09-10T08:45:54Z</time>
      </trkpt>
      <trkpt lat="42.601424" lon="-8.609335">
        <ele>131.3</ele>
        <time>2020-09-10T08:45:55Z</time>
      </trkpt>
      <trkpt lat="42.601390" lon="-8.609302">
        <ele>131.5</ele>
        <time>2020-09-10T08:45:56Z</time>
      </trkpt>
      <trkpt lat="42.601346" lon="-8.609281">
        <ele>131.7</ele>
        <time>2020-09-10T08:45:57Z</time>
      </trkpt>
      <trkpt lat="42.601296" lon="-8.609269">
        <ele>132.0</ele>
        <time>2020-09-10T08:45:58Z</time>
      </trkpt>
      <trkpt lat="42.601246" lon="-8.609263">
        <ele>132.0</ele>
        <time>2020-09-10T08:46:00Z</time>
      </trkpt>
      <trkpt lat="42.601193" lon="-8.609262">
        <ele>132.1</ele>
        <time>2020-09-10T08:46:01Z</time>
      </trkpt>
      <trkpt lat="42.601138" lon="-8.609263">
        <ele>132.2</ele>
        <time>2020-09-10T08:46:03Z</time>
      </trkpt>
      <trkpt lat="42.601084" lon="-8.609266">
        <ele>132.3</ele>
        <time>2020-09-10T08:46:04Z</time>
      </trkpt>
      <trkpt lat="42.601028" lon="-8.609279">
        <ele>132.6</ele>
        <time>2020-09-10T08:46:06Z</time>
      </trkpt>
      <trkpt lat="42.600973" lon="-8.609295">
        <ele>132.9</ele>
        <time>2020-09-10T08:46:07Z</time>
      </trkpt>
      <trkpt lat="42.600921" lon="-8.609306">
        <ele>133.0</ele>
        <time>2020-09-10T08:46:08Z</time>
      </trkpt>
      <trkpt lat="42.600870" lon="-8.609309">
        <ele>133.0</ele>
        <time>2020-09-10T08:46:10Z</time>
      </trkpt>
      <trkpt lat="42.600820" lon="-8.609306">
        <ele>133.0</ele>
        <time>2020-09-10T08:46:11Z</time>
      </trkpt>
      <trkpt lat="42.600768" lon="-8.609301">
        <ele>133.1</ele>
        <time>2020-09-10T08:46:13Z</time>
      </trkpt>
      <trkpt lat="42.600715" lon="-8.609293">
        <ele>133.3</ele>
        <time>2020-09-10T08:46:14Z</time>
      </trkpt>
      <trkpt lat="42.600662" lon="-8.609286">
        <ele>133.4</ele>
        <time>2020-09-10T08:46:15Z</time>
      </trkpt>
      <trkpt lat="42.600610" lon="-8.609275">
        <ele>133.5</ele>
        <time>2020-09-10T08:46:17Z</time>
      </trkpt>
      <trkpt lat="42.600559" lon="-8.609265">
        <ele>133.5</ele>
        <time>2020-09-10T08:46:18Z</time>
      </trkpt>
      <trkpt lat="42.600507" lon="-8.609255">
        <ele>133.4</ele>
        <time>2020-09-10T08:46:20Z</time>
      </trkpt>
      <trkpt lat="42.600450" lon="-8.609253">
        <ele>133.5</ele>
        <time>2020-09-10T08:46:21Z</time>
      </trkpt>
      <trkpt lat="42.600395" lon="-8.609263">
        <ele>133.6</ele>
        <time>2020-09-10T08:46:23Z</time>
      </trkpt>
      <trkpt lat="42.600346" lon="-8.609294">
        <ele>133.7</ele>
        <time>2020-09-10T08:46:24Z</time>
      </trkpt>
      <trkpt lat="42.600308" lon="-8.609341">
        <ele>133.8</ele>
        <time>2020-09-10T08:46:25Z</time>
      </trkpt>
      <trkpt lat="42.600288" lon="-8.609407">
        <ele>134.0</ele>
        <time>2020-09-10T08:46:27Z</time>
      </trkpt>
      <trkpt lat="42.600276" lon="-8.609486">
        <ele>134.2</ele>
        <time>2020-09-10T08:46:28Z</time>
      </trkpt>
      <trkpt lat="42.600265" lon="-8.609563">
        <ele>134.4</ele>
        <time>2020-09-10T08:46:30Z</time>
      </trkpt>
      <trkpt lat="42.600250" lon="-8.609637">
        <ele>134.4</ele>
        <time>2020-09-10T08:46:31Z</time>
      </trkpt>
      <trkpt lat="42.600230" lon="-8.609704">
        <ele>134.4</ele>
        <time>2020-09-10T08:46:33Z</time>
      </trkpt>
      <trkpt lat="42.600209" lon="-8.609758">
        <ele>134.4</ele>
        <time>2020-09-10T08:46:34Z</time>
      </trkpt>
      <trkpt lat="42.600178" lon="-8.609789">
        <ele>134.3</ele>
        <time>2020-09-10T08:46:35Z</time>
      </trkpt>
      <trkpt lat="42.600138" lon="-8.609793">
        <ele>134.2</ele>
        <time>2020-09-10T08:46:36Z</time>
      </trkpt>
      <trkpt lat="42.600096" lon="-8.609784">
        <ele>134.0</ele>
        <time>2020-09-10T08:46:37Z</time>
      </trkpt>
      <trkpt lat="42.600050" lon="-8.609763">
        <ele>133.8</ele>
        <time>2020-09-10T08:46:39Z</time>
      </trkpt>
      <trkpt lat="42.600001" lon="-8.609731">
        <ele>133.5</ele>
        <time>2020-09-10T08:46:40Z</time>
      </trkpt>
      <trkpt lat="42.599961" lon="-8.609695">
        <ele>133.1</ele>
        <time>2020-09-10T08:46:41Z</time>
      </trkpt>
      <trkpt lat="42.599922" lon="-8.609649">
        <ele>132.6</ele>
        <time>2020-09-10T08:46:43Z</time>
      </trkpt>
      <trkpt lat="42.599865" lon="-8.609575">
        <ele>132.0</ele>
        <time>2020-09-10T08:46:45Z</time>
      </trkpt>
      <trkpt lat="42.599825" lon="-8.609491">
        <ele>131.5</ele>
        <time>2020-09-10T08:46:47Z</time>
      </trkpt>
      <trkpt lat="42.599778" lon="-8.609392">
        <ele>131.0</ele>
        <time>2020-09-10T08:46:49Z</time>
      </trkpt>
      <trkpt lat="42.599733" lon="-8.609304">
        <ele>130.4</ele>
        <time>2020-09-10T08:46:51Z</time>
      </trkpt>
      <trkpt lat="42.599695" lon="-8.609230">
        <ele>129.7</ele>
        <time>2020-09-10T08:46:53Z</time>
      </trkpt>
      <trkpt lat="42.599660" lon="-8.609144">
        <ele>129.0</ele>
        <time>2020-09-10T08:46:55Z</time>
      </trkpt>
      <trkpt lat="42.599631" lon="-8.609064">
        <ele>128.7</ele>
        <time>2020-09-10T08:46:57Z</time>
      </trkpt>
      <trkpt lat="42.599605" lon="-8.608980">
        <ele>128.4</ele>
        <time>2020-09-10T08:46:58Z</time>
      </trkpt>
      <trkpt lat="42.599587" lon="-8.608894">
        <ele>128.1</ele>
        <time>2020-09-10T08:47:00Z</time>
      </trkpt>
      <trkpt lat="42.599559" lon="-8.608817">
        <ele>128.1</ele>
        <time>2020-09-10T08:47:02Z</time>
      </trkpt>
      <trkpt lat="42.599525" lon="-8.608729">
        <ele>128.4</ele>
        <time>2020-09-10T08:47:04Z</time>
      </trkpt>
      <trkpt lat="42.599495" lon="-8.608663">
        <ele>128.7</ele>
        <time>2020-09-10T08:47:05Z</time>
      </trkpt>
      <trkpt lat="42.599463" lon="-8.608606">
        <ele>129.0</ele>
        <time>2020-09-10T08:47:07Z</time>
      </trkpt>
      <trkpt lat="42.599430" lon="-8.608555">
        <ele>129.6</ele>
        <time>2020-09-10T08:47:08Z</time>
      </trkpt>
      <trkpt lat="42.599396" lon="-8.608509">
        <ele>130.0</ele>
        <time>2020-09-10T08:47:09Z</time>
      </trkpt>
      <trkpt lat="42.599365" lon="-8.608461">
        <ele>130.3</ele>
        <time>2020-09-10T08:47:11Z</time>
      </trkpt>
      <trkpt lat="42.599328" lon="-8.608411">
        <ele>130.7</ele>
        <time>2020-09-10T08:47:12Z</time>
      </trkpt>
      <trkpt lat="42.599277" lon="-8.608353">
        <ele>131.2</ele>
        <time>2020-09-10T08:47:14Z</time>
      </trkpt>
      <trkpt lat="42.599242" lon="-8.608308">
        <ele>131.6</ele>
        <time>2020-09-10T08:47:15Z</time>
      </trkpt>
      <trkpt lat="42.599207" lon="-8.608263">
        <ele>131.9</ele>
        <time>2020-09-10T08:47:16Z</time>
      </trkpt>
      <trkpt lat="42.599179" lon="-8.608226">
        <ele>132.2</ele>
        <time>2020-09-10T08:47:17Z</time>
      </trkpt>
      <trkpt lat="42.599146" lon="-8.608183">
        <ele>132.4</ele>
        <time>2020-09-10T08:47:19Z</time>
      </trkpt>
      <trkpt lat="42.599119" lon="-8.608149">
        <ele>132.5</ele>
        <time>2020-09-10T08:47:20Z</time>
      </trkpt>
      <trkpt lat="42.599068" lon="-8.608101">
        <ele>132.2</ele>
        <time>2020-09-10T08:47:21Z</time>
      </trkpt>
      <trkpt lat="42.598995" lon="-8.608034">
        <ele>131.6</ele>
        <time>2020-09-10T08:47:24Z</time>
      </trkpt>
      <trkpt lat="42.598942" lon="-8.608005">
        <ele>131.5</ele>
        <time>2020-09-10T08:47:25Z</time>
      </trkpt>
      <trkpt lat="42.598876" lon="-8.607959">
        <ele>131.3</ele>
        <time>2020-09-10T08:47:27Z</time>
      </trkpt>
      <trkpt lat="42.598817" lon="-8.607912">
        <ele>131.1</ele>
        <time>2020-09-10T08:47:29Z</time>
      </trkpt>
      <trkpt lat="42.598755" lon="-8.607863">
        <ele>130.6</ele>
        <time>2020-09-10T08:47:31Z</time>
      </trkpt>
      <trkpt lat="42.598714" lon="-8.607804">
        <ele>130.3</ele>
        <time>2020-09-10T08:47:32Z</time>
      </trkpt>
      <trkpt lat="42.598674" lon="-8.607738">
        <ele>130.2</ele>
        <time>2020-09-10T08:47:34Z</time>
      </trkpt>
      <trkpt lat="42.598629" lon="-8.607675">
        <ele>130.3</ele>
        <time>2020-09-10T08:47:36Z</time>
      </trkpt>
      <trkpt lat="42.598592" lon="-8.607628">
        <ele>130.5</ele>
        <time>2020-09-10T08:47:37Z</time>
      </trkpt>
      <trkpt lat="42.598591" lon="-8.607585">
        <ele>130.3</ele>
        <time>2020-09-10T08:47:38Z</time>
      </trkpt>
      <trkpt lat="42.598627" lon="-8.607519">
        <ele>129.5</ele>
        <time>2020-09-10T08:47:40Z</time>
      </trkpt>
      <trkpt lat="42.598661" lon="-8.607450">
        <ele>128.7</ele>
        <time>2020-09-10T08:47:41Z</time>
      </trkpt>
      <trkpt lat="42.598717" lon="-8.607377">
        <ele>127.3</ele>
        <time>2020-09-10T08:47:43Z</time>
      </trkpt>
      <trkpt lat="42.598752" lon="-8.607286">
        <ele>125.8</ele>
        <time>2020-09-10T08:47:45Z</time>
      </trkpt>
      <trkpt lat="42.598756" lon="-8.607187">
        <ele>124.9</ele>
        <time>2020-09-10T08:47:47Z</time>
      </trkpt>
      <trkpt lat="42.598779" lon="-8.607058">
        <ele>123.5</ele>
        <time>2020-09-10T08:47:50Z</time>
      </trkpt>
      <trkpt lat="42.598791" lon="-8.606954">
        <ele>122.6</ele>
        <time>2020-09-10T08:47:52Z</time>
      </trkpt>
      <trkpt lat="42.598783" lon="-8.606862">
        <ele>122.4</ele>
        <time>2020-09-10T08:47:54Z</time>
      </trkpt>
      <trkpt lat="42.598767" lon="-8.606759">
        <ele>122.2</ele>
        <time>2020-09-10T08:47:56Z</time>
      </trkpt>
      <trkpt lat="42.598762" lon="-8.606649">
        <ele>121.7</ele>
        <time>2020-09-10T08:47:58Z</time>
      </trkpt>
      <trkpt lat="42.598748" lon="-8.606534">
        <ele>121.3</ele>
        <time>2020-09-10T08:48:00Z</time>
      </trkpt>
      <trkpt lat="42.598733" lon="-8.606421">
        <ele>120.8</ele>
        <time>2020-09-10T08:48:03Z</time>
      </trkpt>
      <trkpt lat="42.598730" lon="-8.606315">
        <ele>120.2</ele>
        <time>2020-09-10T08:48:05Z</time>
      </trkpt>
      <trkpt lat="42.598733" lon="-8.606204">
        <ele>119.9</ele>
        <time>2020-09-10T08:48:07Z</time>
      </trkpt>
      <trkpt lat="42.598740" lon="-8.606095">
        <ele>119.6</ele>
        <time>2020-09-10T08:48:09Z</time>
      </trkpt>
      <trkpt lat="42.598747" lon="-8.606004">
        <ele>119.6</ele>
        <time>2020-09-10T08:48:11Z</time>
      </trkpt>
      <trkpt lat="42.598743" lon="-8.605914">
        <ele>119.9</ele>
        <time>2020-09-10T08:48:13Z</time>
      </trkpt>
      <trkpt lat="42.598746" lon="-8.605826">
        <ele>120.2</ele>
        <time>2020-09-10T08:48:14Z</time>
      </trkpt>
      <trkpt lat="42.598749" lon="-8.605746">
        <ele>121.5</ele>
        <time>2020-09-10T08:48:16Z</time>
      </trkpt>
      <trkpt lat="42.598768" lon="-8.605669">
        <ele>122.7</ele>
        <time>2020-09-10T08:48:17Z</time>
      </trkpt>
      <trkpt lat="42.598802" lon="-8.605604">
        <ele>123.7</ele>
        <time>2020-09-10T08:48:19Z</time>
      </trkpt>
      <trkpt lat="42.598843" lon="-8.605563">
        <ele>124.8</ele>
        <time>2020-09-10T08:48:20Z</time>
      </trkpt>
      <trkpt lat="42.598893" lon="-8.605551">
        <ele>125.1</ele>
        <time>2020-09-10T08:48:22Z</time>
      </trkpt>
      <trkpt lat="42.598948" lon="-8.605545">
        <ele>125.2</ele>
        <time>2020-09-10T08:48:23Z</time>
      </trkpt>
      <trkpt lat="42.599002" lon="-8.605537">
        <ele>125.4</ele>
        <time>2020-09-10T08:48:25Z</time>
      </trkpt>
      <trkpt lat="42.599057" lon="-8.605528">
        <ele>125.6</ele>
        <time>2020-09-10T08:48:26Z</time>
      </trkpt>
      <trkpt lat="42.599114" lon="-8.605518">
        <ele>125.7</ele>
        <time>2020-09-10T08:48:28Z</time>
      </trkpt>
      <trkpt lat="42.599171" lon="-8.605508">
        <ele>125.9</ele>
        <time>2020-09-10T08:48:29Z</time>
      </trkpt>
      <trkpt lat="42.599226" lon="-8.605493">
        <ele>126.2</ele>
        <time>2020-09-10T08:48:31Z</time>
      </trkpt>
      <trkpt lat="42.599277" lon="-8.605472">
        <ele>126.4</ele>
        <time>2020-09-10T08:48:32Z</time>
      </trkpt>
      <trkpt lat="42.599327" lon="-8.605450">
        <ele>126.7</ele>
        <time>2020-09-10T08:48:33Z</time>
      </trkpt>
      <trkpt lat="42.599374" lon="-8.605426">
        <ele>127.1</ele>
        <time>2020-09-10T08:48:35Z</time>
      </trkpt>
      <trkpt lat="42.599420" lon="-8.605400">
        <ele>127.5</ele>
        <time>2020-09-10T08:48:36Z</time>
      </trkpt>
      <trkpt lat="42.599465" lon="-8.605369">
        <ele>128.0</ele>
        <time>2020-09-10T08:48:37Z</time>
      </trkpt>
      <trkpt lat="42.599506" lon="-8.605336">
        <ele>128.6</ele>
        <time>2020-09-10T08:48:39Z</time>
      </trkpt>
      <trkpt lat="42.599549" lon="-8.605307">
        <ele>129.0</ele>
        <time>2020-09-10T08:48:40Z</time>
      </trkpt>
      <trkpt lat="42.599593" lon="-8.605281">
        <ele>129.4</ele>
        <time>2020-09-10T08:48:41Z</time>
      </trkpt>
      <trkpt lat="42.599638" lon="-8.605269">
        <ele>129.5</ele>
        <time>2020-09-10T08:48:43Z</time>
      </trkpt>
      <trkpt lat="42.599682" lon="-8.605261">
        <ele>129.5</ele>
        <time>2020-09-10T08:48:44Z</time>
      </trkpt>
      <trkpt lat="42.599727" lon="-8.605252">
        <ele>129.6</ele>
        <time>2020-09-10T08:48:45Z</time>
      </trkpt>
      <trkpt lat="42.599772" lon="-8.605242">
        <ele>129.8</ele>
        <time>2020-09-10T08:48:46Z</time>
      </trkpt>
      <trkpt lat="42.599816" lon="-8.605229">
        <ele>130.1</ele>
        <time>2020-09-10T08:48:47Z</time>
      </trkpt>
      <trkpt lat="42.599862" lon="-8.605212">
        <ele>130.5</ele>
        <time>2020-09-10T08:48:49Z</time>
      </trkpt>
      <trkpt lat="42.599914" lon="-8.605195">
        <ele>130.7</ele>
        <time>2020-09-10T08:48:50Z</time>
      </trkpt>
      <trkpt lat="42.599967" lon="-8.605188">
        <ele>130.5</ele>
        <time>2020-09-10T08:48:51Z</time>
      </trkpt>
      <trkpt lat="42.600024" lon="-8.605187">
        <ele>130.0</ele>
        <time>2020-09-10T08:48:53Z</time>
      </trkpt>
      <trkpt lat="42.600083" lon="-8.605180">
        <ele>129.7</ele>
        <time>2020-09-10T08:48:55Z</time>
      </trkpt>
      <trkpt lat="42.600142" lon="-8.605163">
        <ele>129.5</ele>
        <time>2020-09-10T08:48:56Z</time>
      </trkpt>
      <trkpt lat="42.600199" lon="-8.605136">
        <ele>129.4</ele>
        <time>2020-09-10T08:48:58Z</time>
      </trkpt>
      <trkpt lat="42.600255" lon="-8.605104">
        <ele>129.5</ele>
        <time>2020-09-10T08:48:59Z</time>
      </trkpt>
      <trkpt lat="42.600307" lon="-8.605065">
        <ele>129.6</ele>
        <time>2020-09-10T08:49:01Z</time>
      </trkpt>
      <trkpt lat="42.600356" lon="-8.605016">
        <ele>129.8</ele>
        <time>2020-09-10T08:49:03Z</time>
      </trkpt>
      <trkpt lat="42.600405" lon="-8.604961">
        <ele>129.7</ele>
        <time>2020-09-10T08:49:04Z</time>
      </trkpt>
      <trkpt lat="42.600449" lon="-8.604905">
        <ele>129.7</ele>
        <time>2020-09-10T08:49:06Z</time>
      </trkpt>
      <trkpt lat="42.600494" lon="-8.604845">
        <ele>129.5</ele>
        <time>2020-09-10T08:49:08Z</time>
      </trkpt>
      <trkpt lat="42.600534" lon="-8.604784">
        <ele>129.3</ele>
        <time>2020-09-10T08:49:09Z</time>
      </trkpt>
      <trkpt lat="42.600565" lon="-8.604719">
        <ele>129.2</ele>
        <time>2020-09-10T08:49:11Z</time>
      </trkpt>
      <trkpt lat="42.600589" lon="-8.604651">
        <ele>129.2</ele>
        <time>2020-09-10T08:49:12Z</time>
      </trkpt>
      <trkpt lat="42.600609" lon="-8.604581">
        <ele>128.9</ele>
        <time>2020-09-10T08:49:14Z</time>
      </trkpt>
      <trkpt lat="42.600619" lon="-8.604510">
        <ele>128.9</ele>
        <time>2020-09-10T08:49:15Z</time>
      </trkpt>
      <trkpt lat="42.600622" lon="-8.604438">
        <ele>129.0</ele>
        <time>2020-09-10T08:49:17Z</time>
      </trkpt>
      <trkpt lat="42.600619" lon="-8.604366">
        <ele>129.1</ele>
        <time>2020-09-10T08:49:18Z</time>
      </trkpt>
      <trkpt lat="42.600608" lon="-8.604296">
        <ele>129.4</ele>
        <time>2020-09-10T08:49:19Z</time>
      </trkpt>
      <trkpt lat="42.600595" lon="-8.604227">
        <ele>129.8</ele>
        <time>2020-09-10T08:49:21Z</time>
      </trkpt>
      <trkpt lat="42.600581" lon="-8.604160">
        <ele>129.9</ele>
        <time>2020-09-10T08:49:22Z</time>
      </trkpt>
      <trkpt lat="42.600564" lon="-8.604094">
        <ele>130.3</ele>
        <time>2020-09-10T08:49:23Z</time>
      </trkpt>
      <trkpt lat="42.600549" lon="-8.604027">
        <ele>130.6</ele>
        <time>2020-09-10T08:49:25Z</time>
      </trkpt>
      <trkpt lat="42.600535" lon="-8.603965">
        <ele>130.9</ele>
        <time>2020-09-10T08:49:26Z</time>
      </trkpt>
      <trkpt lat="42.600520" lon="-8.603904">
        <ele>131.3</ele>
        <time>2020-09-10T08:49:27Z</time>
      </trkpt>
      <trkpt lat="42.600504" lon="-8.603840">
        <ele>131.7</ele>
        <time>2020-09-10T08:49:29Z</time>
      </trkpt>
      <trkpt lat="42.600489" lon="-8.603777">
        <ele>132.0</ele>
        <time>2020-09-10T08:49:30Z</time>
      </trkpt>
      <trkpt lat="42.600480" lon="-8.603713">
        <ele>132.0</ele>
        <time>2020-09-10T08:49:31Z</time>
      </trkpt>
      <trkpt lat="42.600470" lon="-8.603647">
        <ele>132.0</ele>
        <time>2020-09-10T08:49:33Z</time>
      </trkpt>
      <trkpt lat="42.600459" lon="-8.603582">
        <ele>131.9</ele>
        <time>2020-09-10T08:49:34Z</time>
      </trkpt>
      <trkpt lat="42.600450" lon="-8.603519">
        <ele>131.9</ele>
        <time>2020-09-10T08:49:35Z</time>
      </trkpt>
      <trkpt lat="42.600437" lon="-8.603456">
        <ele>131.9</ele>
        <time>2020-09-10T08:49:36Z</time>
      </trkpt>
      <trkpt lat="42.600421" lon="-8.603393">
        <ele>132.1</ele>
        <time>2020-09-10T08:49:38Z</time>
      </trkpt>
      <trkpt lat="42.600398" lon="-8.603331">
        <ele>132.5</ele>
        <time>2020-09-10T08:49:39Z</time>
      </trkpt>
      <trkpt lat="42.600372" lon="-8.603275">
        <ele>133.0</ele>
        <time>2020-09-10T08:49:40Z</time>
      </trkpt>
      <trkpt lat="42.600348" lon="-8.603217">
        <ele>133.1</ele>
        <time>2020-09-10T08:49:42Z</time>
      </trkpt>
      <trkpt lat="42.600327" lon="-8.603156">
        <ele>133.1</ele>
        <time>2020-09-10T08:49:43Z</time>
      </trkpt>
      <trkpt lat="42.600304" lon="-8.603092">
        <ele>133.1</ele>
        <time>2020-09-10T08:49:44Z</time>
      </trkpt>
      <trkpt lat="42.600278" lon="-8.603034">
        <ele>133.1</ele>
        <time>2020-09-10T08:49:46Z</time>
      </trkpt>
      <trkpt lat="42.600250" lon="-8.602977">
        <ele>133.2</ele>
        <time>2020-09-10T08:49:47Z</time>
      </trkpt>
      <trkpt lat="42.600218" lon="-8.602919">
        <ele>133.5</ele>
        <time>2020-09-10T08:49:49Z</time>
      </trkpt>
      <trkpt lat="42.600185" lon="-8.602865">
        <ele>133.9</ele>
        <time>2020-09-10T08:49:50Z</time>
      </trkpt>
      <trkpt lat="42.600150" lon="-8.602813">
        <ele>134.4</ele>
        <time>2020-09-10T08:49:51Z</time>
      </trkpt>
      <trkpt lat="42.600121" lon="-8.602758">
        <ele>134.7</ele>
        <time>2020-09-10T08:49:53Z</time>
      </trkpt>
      <trkpt lat="42.600088" lon="-8.602705">
        <ele>135.1</ele>
        <time>2020-09-10T08:49:54Z</time>
      </trkpt>
      <trkpt lat="42.600055" lon="-8.602652">
        <ele>135.5</ele>
        <time>2020-09-10T08:49:55Z</time>
      </trkpt>
      <trkpt lat="42.600022" lon="-8.602601">
        <ele>135.8</ele>
        <time>2020-09-10T08:49:57Z</time>
      </trkpt>
      <trkpt lat="42.599989" lon="-8.602547">
        <ele>136.2</ele>
        <time>2020-09-10T08:49:58Z</time>
      </trkpt>
      <trkpt lat="42.599956" lon="-8.602488">
        <ele>136.4</ele>
        <time>2020-09-10T08:50:00Z</time>
      </trkpt>
      <trkpt lat="42.599922" lon="-8.602423">
        <ele>136.6</ele>
        <time>2020-09-10T08:50:01Z</time>
      </trkpt>
      <trkpt lat="42.599888" lon="-8.602351">
        <ele>136.4</ele>
        <time>2020-09-10T08:50:03Z</time>
      </trkpt>
      <trkpt lat="42.599850" lon="-8.602275">
        <ele>135.9</ele>
        <time>2020-09-10T08:50:05Z</time>
      </trkpt>
      <trkpt lat="42.599809" lon="-8.602205">
        <ele>135.4</ele>
        <time>2020-09-10T08:50:06Z</time>
      </trkpt>
      <trkpt lat="42.599766" lon="-8.602137">
        <ele>134.8</ele>
        <time>2020-09-10T08:50:08Z</time>
      </trkpt>
      <trkpt lat="42.599723" lon="-8.602067">
        <ele>134.3</ele>
        <time>2020-09-10T08:50:10Z</time>
      </trkpt>
      <trkpt lat="42.599677" lon="-8.601998">
        <ele>133.8</ele>
        <time>2020-09-10T08:50:12Z</time>
      </trkpt>
      <trkpt lat="42.599637" lon="-8.601925">
        <ele>133.0</ele>
        <time>2020-09-10T08:50:14Z</time>
      </trkpt>
      <trkpt lat="42.599599" lon="-8.601844">
        <ele>132.8</ele>
        <time>2020-09-10T08:50:15Z</time>
      </trkpt>
      <trkpt lat="42.599569" lon="-8.601753">
        <ele>132.6</ele>
        <time>2020-09-10T08:50:17Z</time>
      </trkpt>
      <trkpt lat="42.599559" lon="-8.601664">
        <ele>132.4</ele>
        <time>2020-09-10T08:50:19Z</time>
      </trkpt>
      <trkpt lat="42.599577" lon="-8.601586">
        <ele>132.7</ele>
        <time>2020-09-10T08:50:21Z</time>
      </trkpt>
      <trkpt lat="42.599592" lon="-8.601522">
        <ele>132.9</ele>
        <time>2020-09-10T08:50:22Z</time>
      </trkpt>
      <trkpt lat="42.599610" lon="-8.601467">
        <ele>133.1</ele>
        <time>2020-09-10T08:50:23Z</time>
      </trkpt>
      <trkpt lat="42.599634" lon="-8.601415">
        <ele>133.4</ele>
        <time>2020-09-10T08:50:24Z</time>
      </trkpt>
      <trkpt lat="42.599663" lon="-8.601369">
        <ele>133.6</ele>
        <time>2020-09-10T08:50:26Z</time>
      </trkpt>
      <trkpt lat="42.599701" lon="-8.601325">
        <ele>133.5</ele>
        <time>2020-09-10T08:50:27Z</time>
      </trkpt>
      <trkpt lat="42.599744" lon="-8.601283">
        <ele>133.2</ele>
        <time>2020-09-10T08:50:28Z</time>
      </trkpt>
      <trkpt lat="42.599797" lon="-8.601243">
        <ele>132.5</ele>
        <time>2020-09-10T08:50:30Z</time>
      </trkpt>
      <trkpt lat="42.599857" lon="-8.601194">
        <ele>131.7</ele>
        <time>2020-09-10T08:50:32Z</time>
      </trkpt>
      <trkpt lat="42.599921" lon="-8.601130">
        <ele>130.9</ele>
        <time>2020-09-10T08:50:34Z</time>
      </trkpt>
      <trkpt lat="42.599975" lon="-8.601057">
        <ele>130.3</ele>
        <time>2020-09-10T08:50:36Z</time>
      </trkpt>
      <trkpt lat="42.600025" lon="-8.600971">
        <ele>129.6</ele>
        <time>2020-09-10T08:50:38Z</time>
      </trkpt>
      <trkpt lat="42.600063" lon="-8.600872">
        <ele>128.4</ele>
        <time>2020-09-10T08:50:40Z</time>
      </trkpt>
      <trkpt lat="42.600071" lon="-8.600765">
        <ele>128.0</ele>
        <time>2020-09-10T08:50:43Z</time>
      </trkpt>
      <trkpt lat="42.600043" lon="-8.600661">
        <ele>128.1</ele>
        <time>2020-09-10T08:50:45Z</time>
      </trkpt>
      <trkpt lat="42.600006" lon="-8.600569">
        <ele>128.5</ele>
        <time>2020-09-10T08:50:47Z</time>
      </trkpt>
      <trkpt lat="42.599956" lon="-8.600484">
        <ele>129.2</ele>
        <time>2020-09-10T08:50:49Z</time>
      </trkpt>
      <trkpt lat="42.599897" lon="-8.600404">
        <ele>130.1</ele>
        <time>2020-09-10T08:50:51Z</time>
      </trkpt>
      <trkpt lat="42.599844" lon="-8.600333">
        <ele>131.1</ele>
        <time>2020-09-10T08:50:53Z</time>
      </trkpt>
      <trkpt lat="42.599809" lon="-8.600261">
        <ele>131.6</ele>
        <time>2020-09-10T08:50:55Z</time>
      </trkpt>
      <trkpt lat="42.599790" lon="-8.600177">
        <ele>131.4</ele>
        <time>2020-09-10T08:50:56Z</time>
      </trkpt>
      <trkpt lat="42.599776" lon="-8.600086">
        <ele>131.1</ele>
        <time>2020-09-10T08:50:58Z</time>
      </trkpt>
      <trkpt lat="42.599745" lon="-8.599999">
        <ele>131.3</ele>
        <time>2020-09-10T08:51:00Z</time>
      </trkpt>
      <trkpt lat="42.599719" lon="-8.599920">
        <ele>131.4</ele>
        <time>2020-09-10T08:51:02Z</time>
      </trkpt>
      <trkpt lat="42.599707" lon="-8.599847">
        <ele>131.1</ele>
        <time>2020-09-10T08:51:03Z</time>
      </trkpt>
      <trkpt lat="42.599691" lon="-8.599765">
        <ele>131.0</ele>
        <time>2020-09-10T08:51:05Z</time>
      </trkpt>
      <trkpt lat="42.599657" lon="-8.599679">
        <ele>131.7</ele>
        <time>2020-09-10T08:51:07Z</time>
      </trkpt>
      <trkpt lat="42.599628" lon="-8.599603">
        <ele>132.1</ele>
        <time>2020-09-10T08:51:09Z</time>
      </trkpt>
      <trkpt lat="42.599602" lon="-8.599527">
        <ele>132.0</ele>
        <time>2020-09-10T08:51:10Z</time>
      </trkpt>
      <trkpt lat="42.599578" lon="-8.599454">
        <ele>131.9</ele>
        <time>2020-09-10T08:51:12Z</time>
      </trkpt>
      <trkpt lat="42.599555" lon="-8.599384">
        <ele>131.9</ele>
        <time>2020-09-10T08:51:13Z</time>
      </trkpt>
      <trkpt lat="42.599529" lon="-8.599317">
        <ele>131.9</ele>
        <time>2020-09-10T08:51:15Z</time>
      </trkpt>
      <trkpt lat="42.599496" lon="-8.599255">
        <ele>132.3</ele>
        <time>2020-09-10T08:51:16Z</time>
      </trkpt>
      <trkpt lat="42.599458" lon="-8.599193">
        <ele>132.8</ele>
        <time>2020-09-10T08:51:18Z</time>
      </trkpt>
      <trkpt lat="42.599419" lon="-8.599132">
        <ele>133.3</ele>
        <time>2020-09-10T08:51:20Z</time>
      </trkpt>
      <trkpt lat="42.599379" lon="-8.599073">
        <ele>133.7</ele>
        <time>2020-09-10T08:51:21Z</time>
      </trkpt>
      <trkpt lat="42.599340" lon="-8.599015">
        <ele>134.1</ele>
        <time>2020-09-10T08:51:23Z</time>
      </trkpt>
      <trkpt lat="42.599297" lon="-8.598959">
        <ele>134.7</ele>
        <time>2020-09-10T08:51:24Z</time>
      </trkpt>
      <trkpt lat="42.599253" lon="-8.598904">
        <ele>135.5</ele>
        <time>2020-09-10T08:51:26Z</time>
      </trkpt>
      <trkpt lat="42.599215" lon="-8.598846">
        <ele>135.8</ele>
        <time>2020-09-10T08:51:27Z</time>
      </trkpt>
      <trkpt lat="42.599182" lon="-8.598783">
        <ele>135.8</ele>
        <time>2020-09-10T08:51:29Z</time>
      </trkpt>
      <trkpt lat="42.599145" lon="-8.598719">
        <ele>136.0</ele>
        <time>2020-09-10T08:51:30Z</time>
      </trkpt>
      <trkpt lat="42.599099" lon="-8.598636">
        <ele>136.1</ele>
        <time>2020-09-10T08:51:33Z</time>
      </trkpt>
      <trkpt lat="42.599079" lon="-8.598585">
        <ele>135.8</ele>
        <time>2020-09-10T08:51:34Z</time>
      </trkpt>
      <trkpt lat="42.599041" lon="-8.598537">
        <ele>136.2</ele>
        <time>2020-09-10T08:51:35Z</time>
      </trkpt>
      <trkpt lat="42.598993" lon="-8.598486">
        <ele>136.7</ele>
        <time>2020-09-10T08:51:37Z</time>
      </trkpt>
      <trkpt lat="42.598956" lon="-8.598433">
        <ele>136.7</ele>
        <time>2020-09-10T08:51:38Z</time>
      </trkpt>
      <trkpt lat="42.598911" lon="-8.598388">
        <ele>137.1</ele>
        <time>2020-09-10T08:51:40Z</time>
      </trkpt>
      <trkpt lat="42.598865" lon="-8.598342">
        <ele>137.5</ele>
        <time>2020-09-10T08:51:41Z</time>
      </trkpt>
      <trkpt lat="42.598825" lon="-8.598301">
        <ele>137.8</ele>
        <time>2020-09-10T08:51:42Z</time>
      </trkpt>
      <trkpt lat="42.598784" lon="-8.598262">
        <ele>138.3</ele>
        <time>2020-09-10T08:51:44Z</time>
      </trkpt>
      <trkpt lat="42.598740" lon="-8.598226">
        <ele>138.9</ele>
        <time>2020-09-10T08:51:45Z</time>
      </trkpt>
      <trkpt lat="42.598685" lon="-8.598190">
        <ele>139.3</ele>
        <time>2020-09-10T08:51:47Z</time>
      </trkpt>
      <trkpt lat="42.598632" lon="-8.598161">
        <ele>139.9</ele>
        <time>2020-09-10T08:51:48Z</time>
      </trkpt>
      <trkpt lat="42.598583" lon="-8.598134">
        <ele>140.4</ele>
        <time>2020-09-10T08:51:50Z</time>
      </trkpt>
      <trkpt lat="42.598529" lon="-8.598095">
        <ele>140.7</ele>
        <time>2020-09-10T08:51:51Z</time>
      </trkpt>
      <trkpt lat="42.598480" lon="-8.598048">
        <ele>140.4</ele>
        <time>2020-09-10T08:51:53Z</time>
      </trkpt>
      <trkpt lat="42.598439" lon="-8.598005">
        <ele>140.1</ele>
        <time>2020-09-10T08:51:54Z</time>
      </trkpt>
      <trkpt lat="42.598386" lon="-8.597958">
        <ele>139.9</ele>
        <time>2020-09-10T08:51:56Z</time>
      </trkpt>
      <trkpt lat="42.598345" lon="-8.597928">
        <ele>139.9</ele>
        <time>2020-09-10T08:51:57Z</time>
      </trkpt>
      <trkpt lat="42.598318" lon="-8.597919">
        <ele>140.3</ele>
        <time>2020-09-10T08:51:58Z</time>
      </trkpt>
      <trkpt lat="42.598277" lon="-8.597891">
        <ele>140.3</ele>
        <time>2020-09-10T08:51:59Z</time>
      </trkpt>
      <trkpt lat="42.598212" lon="-8.597845">
        <ele>140.2</ele>
        <time>2020-09-10T08:52:01Z</time>
      </trkpt>
      <trkpt lat="42.598138" lon="-8.597803">
        <ele>140.6</ele>
        <time>2020-09-10T08:52:03Z</time>
      </trkpt>
      <trkpt lat="42.598078" lon="-8.597743">
        <ele>140.3</ele>
        <time>2020-09-10T08:52:05Z</time>
      </trkpt>
      <trkpt lat="42.598024" lon="-8.597719">
        <ele>140.9</ele>
        <time>2020-09-10T08:52:07Z</time>
      </trkpt>
      <trkpt lat="42.597981" lon="-8.597690">
        <ele>141.3</ele>
        <time>2020-09-10T08:52:08Z</time>
      </trkpt>
      <trkpt lat="42.597934" lon="-8.597655">
        <ele>141.7</ele>
        <time>2020-09-10T08:52:10Z</time>
      </trkpt>
      <trkpt lat="42.597863" lon="-8.597556">
        <ele>141.8</ele>
        <time>2020-09-10T08:52:12Z</time>
      </trkpt>
      <trkpt lat="42.597819" lon="-8.597485">
        <ele>142.3</ele>
        <time>2020-09-10T08:52:14Z</time>
      </trkpt>
      <trkpt lat="42.597792" lon="-8.597418">
        <ele>142.5</ele>
        <time>2020-09-10T08:52:16Z</time>
      </trkpt>
      <trkpt lat="42.597783" lon="-8.597348">
        <ele>142.1</ele>
        <time>2020-09-10T08:52:17Z</time>
      </trkpt>
      <trkpt lat="42.597777" lon="-8.597304">
        <ele>141.9</ele>
        <time>2020-09-10T08:52:18Z</time>
      </trkpt>
      <trkpt lat="42.597758" lon="-8.597232">
        <ele>141.4</ele>
        <time>2020-09-10T08:52:19Z</time>
      </trkpt>
      <trkpt lat="42.597727" lon="-8.597176">
        <ele>141.7</ele>
        <time>2020-09-10T08:52:21Z</time>
      </trkpt>
      <trkpt lat="42.597695" lon="-8.597120">
        <ele>142.1</ele>
        <time>2020-09-10T08:52:22Z</time>
      </trkpt>
      <trkpt lat="42.597657" lon="-8.597063">
        <ele>142.7</ele>
        <time>2020-09-10T08:52:24Z</time>
      </trkpt>
      <trkpt lat="42.597626" lon="-8.597013">
        <ele>142.7</ele>
        <time>2020-09-10T08:52:25Z</time>
      </trkpt>
      <trkpt lat="42.597590" lon="-8.596961">
        <ele>142.9</ele>
        <time>2020-09-10T08:52:26Z</time>
      </trkpt>
      <trkpt lat="42.597565" lon="-8.596882">
        <ele>141.7</ele>
        <time>2020-09-10T08:52:28Z</time>
      </trkpt>
      <trkpt lat="42.597524" lon="-8.596831">
        <ele>141.7</ele>
        <time>2020-09-10T08:52:29Z</time>
      </trkpt>
      <trkpt lat="42.597476" lon="-8.596780">
        <ele>142.0</ele>
        <time>2020-09-10T08:52:31Z</time>
      </trkpt>
      <trkpt lat="42.597439" lon="-8.596738">
        <ele>142.2</ele>
        <time>2020-09-10T08:52:32Z</time>
      </trkpt>
      <trkpt lat="42.597413" lon="-8.596696">
        <ele>142.0</ele>
        <time>2020-09-10T08:52:33Z</time>
      </trkpt>
      <trkpt lat="42.597388" lon="-8.596653">
        <ele>141.9</ele>
        <time>2020-09-10T08:52:35Z</time>
      </trkpt>
      <trkpt lat="42.597361" lon="-8.596619">
        <ele>142.0</ele>
        <time>2020-09-10T08:52:36Z</time>
      </trkpt>
      <trkpt lat="42.597331" lon="-8.596584">
        <ele>142.1</ele>
        <time>2020-09-10T08:52:37Z</time>
      </trkpt>
      <trkpt lat="42.597301" lon="-8.596546">
        <ele>142.1</ele>
        <time>2020-09-10T08:52:38Z</time>
      </trkpt>
      <trkpt lat="42.597267" lon="-8.596505">
        <ele>142.2</ele>
        <time>2020-09-10T08:52:39Z</time>
      </trkpt>
      <trkpt lat="42.597237" lon="-8.596462">
        <ele>142.2</ele>
        <time>2020-09-10T08:52:40Z</time>
      </trkpt>
      <trkpt lat="42.597198" lon="-8.596411">
        <ele>142.4</ele>
        <time>2020-09-10T08:52:42Z</time>
      </trkpt>
      <trkpt lat="42.597155" lon="-8.596367">
        <ele>142.9</ele>
        <time>2020-09-10T08:52:43Z</time>
      </trkpt>
      <trkpt lat="42.597113" lon="-8.596333">
        <ele>143.2</ele>
        <time>2020-09-10T08:52:44Z</time>
      </trkpt>
      <trkpt lat="42.597068" lon="-8.596300">
        <ele>143.2</ele>
        <time>2020-09-10T08:52:46Z</time>
      </trkpt>
      <trkpt lat="42.597021" lon="-8.596280">
        <ele>143.5</ele>
        <time>2020-09-10T08:52:47Z</time>
      </trkpt>
      <trkpt lat="42.596969" lon="-8.596265">
        <ele>144.0</ele>
        <time>2020-09-10T08:52:48Z</time>
      </trkpt>
      <trkpt lat="42.596923" lon="-8.596253">
        <ele>144.4</ele>
        <time>2020-09-10T08:52:50Z</time>
      </trkpt>
      <trkpt lat="42.596886" lon="-8.596245">
        <ele>144.7</ele>
        <time>2020-09-10T08:52:51Z</time>
      </trkpt>
      <trkpt lat="42.596845" lon="-8.596231">
        <ele>144.7</ele>
        <time>2020-09-10T08:52:52Z</time>
      </trkpt>
      <trkpt lat="42.596795" lon="-8.596216">
        <ele>144.7</ele>
        <time>2020-09-10T08:52:53Z</time>
      </trkpt>
      <trkpt lat="42.596744" lon="-8.596199">
        <ele>144.7</ele>
        <time>2020-09-10T08:52:54Z</time>
      </trkpt>
      <trkpt lat="42.596696" lon="-8.596180">
        <ele>144.8</ele>
        <time>2020-09-10T08:52:56Z</time>
      </trkpt>
      <trkpt lat="42.596647" lon="-8.596165">
        <ele>144.9</ele>
        <time>2020-09-10T08:52:57Z</time>
      </trkpt>
      <trkpt lat="42.596605" lon="-8.596155">
        <ele>145.1</ele>
        <time>2020-09-10T08:52:58Z</time>
      </trkpt>
      <trkpt lat="42.596567" lon="-8.596155">
        <ele>145.4</ele>
        <time>2020-09-10T08:52:59Z</time>
      </trkpt>
      <trkpt lat="42.596523" lon="-8.596149">
        <ele>145.7</ele>
        <time>2020-09-10T08:53:00Z</time>
      </trkpt>
      <trkpt lat="42.596479" lon="-8.596139">
        <ele>146.0</ele>
        <time>2020-09-10T08:53:02Z</time>
      </trkpt>
      <trkpt lat="42.596442" lon="-8.596126">
        <ele>146.3</ele>
        <time>2020-09-10T08:53:03Z</time>
      </trkpt>
      <trkpt lat="42.596405" lon="-8.596115">
        <ele>146.8</ele>
        <time>2020-09-10T08:53:04Z</time>
      </trkpt>
      <trkpt lat="42.596373" lon="-8.596106">
        <ele>147.3</ele>
        <time>2020-09-10T08:53:05Z</time>
      </trkpt>
      <trkpt lat="42.596342" lon="-8.596090">
        <ele>147.8</ele>
        <time>2020-09-10T08:53:05Z</time>
      </trkpt>
      <trkpt lat="42.596330" lon="-8.596069">
        <ele>148.0</ele>
        <time>2020-09-10T08:53:06Z</time>
      </trkpt>
      <trkpt lat="42.596334" lon="-8.596041">
        <ele>147.9</ele>
        <time>2020-09-10T08:53:07Z</time>
      </trkpt>
      <trkpt lat="42.596351" lon="-8.596001">
        <ele>147.6</ele>
        <time>2020-09-10T08:53:07Z</time>
      </trkpt>
      <trkpt lat="42.596357" lon="-8.595954">
        <ele>147.4</ele>
        <time>2020-09-10T08:53:08Z</time>
      </trkpt>
      <trkpt lat="42.596362" lon="-8.595880">
        <ele>147.3</ele>
        <time>2020-09-10T08:53:10Z</time>
      </trkpt>
      <trkpt lat="42.596353" lon="-8.595798">
        <ele>147.3</ele>
        <time>2020-09-10T08:53:11Z</time>
      </trkpt>
      <trkpt lat="42.596342" lon="-8.595712">
        <ele>147.4</ele>
        <time>2020-09-10T08:53:13Z</time>
      </trkpt>
      <trkpt lat="42.596310" lon="-8.595635">
        <ele>147.1</ele>
        <time>2020-09-10T08:53:15Z</time>
      </trkpt>
      <trkpt lat="42.596259" lon="-8.595567">
        <ele>146.8</ele>
        <time>2020-09-10T08:53:17Z</time>
      </trkpt>
      <trkpt lat="42.596195" lon="-8.595500">
        <ele>146.6</ele>
        <time>2020-09-10T08:53:19Z</time>
      </trkpt>
      <trkpt lat="42.596137" lon="-8.595433">
        <ele>146.0</ele>
        <time>2020-09-10T08:53:21Z</time>
      </trkpt>
      <trkpt lat="42.596064" lon="-8.595359">
        <ele>145.3</ele>
        <time>2020-09-10T08:53:23Z</time>
      </trkpt>
      <trkpt lat="42.595991" lon="-8.595294">
        <ele>145.1</ele>
        <time>2020-09-10T08:53:26Z</time>
      </trkpt>
      <trkpt lat="42.595923" lon="-8.595198">
        <ele>144.9</ele>
        <time>2020-09-10T08:53:28Z</time>
      </trkpt>
      <trkpt lat="42.595903" lon="-8.595118">
        <ele>144.9</ele>
        <time>2020-09-10T08:53:30Z</time>
      </trkpt>
      <trkpt lat="42.595890" lon="-8.595042">
        <ele>144.9</ele>
        <time>2020-09-10T08:53:32Z</time>
      </trkpt>
      <trkpt lat="42.595894" lon="-8.594983">
        <ele>144.8</ele>
        <time>2020-09-10T08:53:33Z</time>
      </trkpt>
      <trkpt lat="42.595914" lon="-8.594927">
        <ele>145.0</ele>
        <time>2020-09-10T08:53:34Z</time>
      </trkpt>
      <trkpt lat="42.595948" lon="-8.594856">
        <ele>145.1</ele>
        <time>2020-09-10T08:53:36Z</time>
      </trkpt>
      <trkpt lat="42.595957" lon="-8.594781">
        <ele>145.5</ele>
        <time>2020-09-10T08:53:37Z</time>
      </trkpt>
      <trkpt lat="42.595971" lon="-8.594705">
        <ele>146.1</ele>
        <time>2020-09-10T08:53:39Z</time>
      </trkpt>
      <trkpt lat="42.595970" lon="-8.594638">
        <ele>146.8</ele>
        <time>2020-09-10T08:53:40Z</time>
      </trkpt>
      <trkpt lat="42.595956" lon="-8.594567">
        <ele>147.6</ele>
        <time>2020-09-10T08:53:41Z</time>
      </trkpt>
      <trkpt lat="42.595940" lon="-8.594500">
        <ele>148.3</ele>
        <time>2020-09-10T08:53:43Z</time>
      </trkpt>
      <trkpt lat="42.595944" lon="-8.594428">
        <ele>148.6</ele>
        <time>2020-09-10T08:53:44Z</time>
      </trkpt>
      <trkpt lat="42.595937" lon="-8.594356">
        <ele>149.0</ele>
        <time>2020-09-10T08:53:46Z</time>
      </trkpt>
      <trkpt lat="42.595914" lon="-8.594285">
        <ele>149.5</ele>
        <time>2020-09-10T08:53:47Z</time>
      </trkpt>
      <trkpt lat="42.595887" lon="-8.594216">
        <ele>149.6</ele>
        <time>2020-09-10T08:53:49Z</time>
      </trkpt>
      <trkpt lat="42.595879" lon="-8.594144">
        <ele>149.7</ele>
        <time>2020-09-10T08:53:50Z</time>
      </trkpt>
      <trkpt lat="42.595889" lon="-8.594055">
        <ele>149.6</ele>
        <time>2020-09-10T08:53:52Z</time>
      </trkpt>
      <trkpt lat="42.595907" lon="-8.593972">
        <ele>149.9</ele>
        <time>2020-09-10T08:53:54Z</time>
      </trkpt>
      <trkpt lat="42.595932" lon="-8.593891">
        <ele>150.0</ele>
        <time>2020-09-10T08:53:55Z</time>
      </trkpt>
      <trkpt lat="42.595961" lon="-8.593807">
        <ele>150.2</ele>
        <time>2020-09-10T08:53:57Z</time>
      </trkpt>
      <trkpt lat="42.596000" lon="-8.593735">
        <ele>150.4</ele>
        <time>2020-09-10T08:53:59Z</time>
      </trkpt>
      <trkpt lat="42.596044" lon="-8.593675">
        <ele>150.7</ele>
        <time>2020-09-10T08:54:01Z</time>
      </trkpt>
      <trkpt lat="42.596090" lon="-8.593629">
        <ele>151.0</ele>
        <time>2020-09-10T08:54:02Z</time>
      </trkpt>
      <trkpt lat="42.596138" lon="-8.593594">
        <ele>151.3</ele>
        <time>2020-09-10T08:54:04Z</time>
      </trkpt>
      <trkpt lat="42.596193" lon="-8.593567">
        <ele>151.6</ele>
        <time>2020-09-10T08:54:05Z</time>
      </trkpt>
      <trkpt lat="42.596241" lon="-8.593546">
        <ele>151.7</ele>
        <time>2020-09-10T08:54:06Z</time>
      </trkpt>
      <trkpt lat="42.596283" lon="-8.593522">
        <ele>151.8</ele>
        <time>2020-09-10T08:54:08Z</time>
      </trkpt>
      <trkpt lat="42.596330" lon="-8.593488">
        <ele>152.0</ele>
        <time>2020-09-10T08:54:09Z</time>
      </trkpt>
      <trkpt lat="42.596377" lon="-8.593456">
        <ele>152.2</ele>
        <time>2020-09-10T08:54:11Z</time>
      </trkpt>
      <trkpt lat="42.596423" lon="-8.593421">
        <ele>152.5</ele>
        <time>2020-09-10T08:54:12Z</time>
      </trkpt>
      <trkpt lat="42.596464" lon="-8.593382">
        <ele>152.7</ele>
        <time>2020-09-10T08:54:13Z</time>
      </trkpt>
      <trkpt lat="42.596507" lon="-8.593336">
        <ele>152.6</ele>
        <time>2020-09-10T08:54:15Z</time>
      </trkpt>
      <trkpt lat="42.596552" lon="-8.593283">
        <ele>152.5</ele>
        <time>2020-09-10T08:54:16Z</time>
      </trkpt>
      <trkpt lat="42.596600" lon="-8.593227">
        <ele>152.6</ele>
        <time>2020-09-10T08:54:18Z</time>
      </trkpt>
      <trkpt lat="42.596655" lon="-8.593165">
        <ele>152.7</ele>
        <time>2020-09-10T08:54:20Z</time>
      </trkpt>
      <trkpt lat="42.596711" lon="-8.593097">
        <ele>152.6</ele>
        <time>2020-09-10T08:54:22Z</time>
      </trkpt>
      <trkpt lat="42.596766" lon="-8.593031">
        <ele>152.6</ele>
        <time>2020-09-10T08:54:24Z</time>
      </trkpt>
      <trkpt lat="42.596815" lon="-8.592970">
        <ele>152.7</ele>
        <time>2020-09-10T08:54:26Z</time>
      </trkpt>
      <trkpt lat="42.596869" lon="-8.592910">
        <ele>152.7</ele>
        <time>2020-09-10T08:54:27Z</time>
      </trkpt>
      <trkpt lat="42.596918" lon="-8.592849">
        <ele>152.6</ele>
        <time>2020-09-10T08:54:29Z</time>
      </trkpt>
      <trkpt lat="42.596966" lon="-8.592790">
        <ele>152.6</ele>
        <time>2020-09-10T08:54:31Z</time>
      </trkpt>
      <trkpt lat="42.597016" lon="-8.592732">
        <ele>152.4</ele>
        <time>2020-09-10T08:54:33Z</time>
      </trkpt>
      <trkpt lat="42.597062" lon="-8.592675">
        <ele>152.2</ele>
        <time>2020-09-10T08:54:34Z</time>
      </trkpt>
      <trkpt lat="42.597106" lon="-8.592618">
        <ele>151.5</ele>
        <time>2020-09-10T08:54:36Z</time>
      </trkpt>
      <trkpt lat="42.597152" lon="-8.592557">
        <ele>150.8</ele>
        <time>2020-09-10T08:54:38Z</time>
      </trkpt>
      <trkpt lat="42.597194" lon="-8.592493">
        <ele>150.1</ele>
        <time>2020-09-10T08:54:39Z</time>
      </trkpt>
      <trkpt lat="42.597243" lon="-8.592424">
        <ele>149.2</ele>
        <time>2020-09-10T08:54:41Z</time>
      </trkpt>
      <trkpt lat="42.597301" lon="-8.592348">
        <ele>148.2</ele>
        <time>2020-09-10T08:54:43Z</time>
      </trkpt>
      <trkpt lat="42.597361" lon="-8.592262">
        <ele>147.2</ele>
        <time>2020-09-10T08:54:46Z</time>
      </trkpt>
      <trkpt lat="42.597425" lon="-8.592168">
        <ele>146.4</ele>
        <time>2020-09-10T08:54:48Z</time>
      </trkpt>
      <trkpt lat="42.597486" lon="-8.592069">
        <ele>145.6</ele>
        <time>2020-09-10T08:54:51Z</time>
      </trkpt>
      <trkpt lat="42.597550" lon="-8.591966">
        <ele>144.8</ele>
        <time>2020-09-10T08:54:53Z</time>
      </trkpt>
      <trkpt lat="42.597616" lon="-8.591856">
        <ele>144.1</ele>
        <time>2020-09-10T08:54:56Z</time>
      </trkpt>
      <trkpt lat="42.597675" lon="-8.591745">
        <ele>143.2</ele>
        <time>2020-09-10T08:54:59Z</time>
      </trkpt>
      <trkpt lat="42.597735" lon="-8.591632">
        <ele>142.3</ele>
        <time>2020-09-10T08:55:02Z</time>
      </trkpt>
      <trkpt lat="42.597780" lon="-8.591526">
        <ele>141.4</ele>
        <time>2020-09-10T08:55:04Z</time>
      </trkpt>
      <trkpt lat="42.597826" lon="-8.591420">
        <ele>140.1</ele>
        <time>2020-09-10T08:55:07Z</time>
      </trkpt>
      <trkpt lat="42.597872" lon="-8.591326">
        <ele>138.8</ele>
        <time>2020-09-10T08:55:09Z</time>
      </trkpt>
      <trkpt lat="42.597922" lon="-8.591240">
        <ele>137.7</ele>
        <time>2020-09-10T08:55:11Z</time>
      </trkpt>
      <trkpt lat="42.597979" lon="-8.591154">
        <ele>136.7</ele>
        <time>2020-09-10T08:55:13Z</time>
      </trkpt>
      <trkpt lat="42.598031" lon="-8.591069">
        <ele>135.8</ele>
        <time>2020-09-10T08:55:15Z</time>
      </trkpt>
      <trkpt lat="42.598059" lon="-8.590994">
        <ele>134.9</ele>
        <time>2020-09-10T08:55:17Z</time>
      </trkpt>
      <trkpt lat="42.598090" lon="-8.590912">
        <ele>133.6</ele>
        <time>2020-09-10T08:55:19Z</time>
      </trkpt>
      <trkpt lat="42.598146" lon="-8.590825">
        <ele>132.2</ele>
        <time>2020-09-10T08:55:21Z</time>
      </trkpt>
      <trkpt lat="42.598191" lon="-8.590748">
        <ele>130.9</ele>
        <time>2020-09-10T08:55:23Z</time>
      </trkpt>
      <trkpt lat="42.598228" lon="-8.590686">
        <ele>129.9</ele>
        <time>2020-09-10T08:55:25Z</time>
      </trkpt>
      <trkpt lat="42.598239" lon="-8.590623">
        <ele>129.0</ele>
        <time>2020-09-10T08:55:26Z</time>
      </trkpt>
      <trkpt lat="42.598237" lon="-8.590568">
        <ele>128.6</ele>
        <time>2020-09-10T08:55:27Z</time>
      </trkpt>
      <trkpt lat="42.598221" lon="-8.590526">
        <ele>128.3</ele>
        <time>2020-09-10T08:55:28Z</time>
      </trkpt>
      <trkpt lat="42.598200" lon="-8.590491">
        <ele>128.2</ele>
        <time>2020-09-10T08:55:29Z</time>
      </trkpt>
      <trkpt lat="42.598187" lon="-8.590457">
        <ele>128.0</ele>
        <time>2020-09-10T08:55:29Z</time>
      </trkpt>
      <trkpt lat="42.598189" lon="-8.590422">
        <ele>127.7</ele>
        <time>2020-09-10T08:55:30Z</time>
      </trkpt>
      <trkpt lat="42.598202" lon="-8.590393">
        <ele>127.4</ele>
        <time>2020-09-10T08:55:31Z</time>
      </trkpt>
      <trkpt lat="42.598232" lon="-8.590384">
        <ele>127.2</ele>
        <time>2020-09-10T08:55:32Z</time>
      </trkpt>
      <trkpt lat="42.598263" lon="-8.590399">
        <ele>127.1</ele>
        <time>2020-09-10T08:55:33Z</time>
      </trkpt>
      <trkpt lat="42.598290" lon="-8.590425">
        <ele>127.1</ele>
        <time>2020-09-10T08:55:33Z</time>
      </trkpt>
      <trkpt lat="42.598315" lon="-8.590449">
        <ele>127.0</ele>
        <time>2020-09-10T08:55:34Z</time>
      </trkpt>
      <trkpt lat="42.598337" lon="-8.590464">
        <ele>126.9</ele>
        <time>2020-09-10T08:55:35Z</time>
      </trkpt>
      <trkpt lat="42.598352" lon="-8.590478">
        <ele>126.8</ele>
        <time>2020-09-10T08:55:35Z</time>
      </trkpt>
      <trkpt lat="42.598362" lon="-8.590494">
        <ele>126.8</ele>
        <time>2020-09-10T08:55:36Z</time>
      </trkpt>
      <trkpt lat="42.598365" lon="-8.590511">
        <ele>126.9</ele>
        <time>2020-09-10T08:55:36Z</time>
      </trkpt>
      <trkpt lat="42.598358" lon="-8.590529">
        <ele>127.1</ele>
        <time>2020-09-10T08:55:37Z</time>
      </trkpt>
      <trkpt lat="42.598341" lon="-8.590534">
        <ele>127.3</ele>
        <time>2020-09-10T08:55:37Z</time>
      </trkpt>
      <trkpt lat="42.598320" lon="-8.590527">
        <ele>127.5</ele>
        <time>2020-09-10T08:55:38Z</time>
      </trkpt>
      <trkpt lat="42.598298" lon="-8.590515">
        <ele>127.7</ele>
        <time>2020-09-10T08:55:38Z</time>
      </trkpt>
      <trkpt lat="42.598274" lon="-8.590501">
        <ele>127.8</ele>
        <time>2020-09-10T08:55:39Z</time>
      </trkpt>
      <trkpt lat="42.598248" lon="-8.590483">
        <ele>127.8</ele>
        <time>2020-09-10T08:55:40Z</time>
      </trkpt>
      <trkpt lat="42.598220" lon="-8.590462">
        <ele>127.8</ele>
        <time>2020-09-10T08:55:41Z</time>
      </trkpt>
      <trkpt lat="42.598188" lon="-8.590446">
        <ele>127.9</ele>
        <time>2020-09-10T08:55:41Z</time>
      </trkpt>
      <trkpt lat="42.598153" lon="-8.590433">
        <ele>128.0</ele>
        <time>2020-09-10T08:55:42Z</time>
      </trkpt>
      <trkpt lat="42.598115" lon="-8.590425">
        <ele>128.2</ele>
        <time>2020-09-10T08:55:43Z</time>
      </trkpt>
      <trkpt lat="42.598076" lon="-8.590420">
        <ele>128.4</ele>
        <time>2020-09-10T08:55:44Z</time>
      </trkpt>
      <trkpt lat="42.598034" lon="-8.590426">
        <ele>128.6</ele>
        <time>2020-09-10T08:55:46Z</time>
      </trkpt>
      <trkpt lat="42.597996" lon="-8.590438">
        <ele>128.5</ele>
        <time>2020-09-10T08:55:47Z</time>
      </trkpt>
      <trkpt lat="42.597962" lon="-8.590453">
        <ele>128.5</ele>
        <time>2020-09-10T08:55:48Z</time>
      </trkpt>
      <trkpt lat="42.597928" lon="-8.590471">
        <ele>128.5</ele>
        <time>2020-09-10T08:55:49Z</time>
      </trkpt>
      <trkpt lat="42.597889" lon="-8.590489">
        <ele>128.5</ele>
        <time>2020-09-10T08:55:50Z</time>
      </trkpt>
      <trkpt lat="42.597838" lon="-8.590509">
        <ele>128.4</ele>
        <time>2020-09-10T08:55:51Z</time>
      </trkpt>
      <trkpt lat="42.597788" lon="-8.590531">
        <ele>128.2</ele>
        <time>2020-09-10T08:55:52Z</time>
      </trkpt>
      <trkpt lat="42.597739" lon="-8.590552">
        <ele>127.9</ele>
        <time>2020-09-10T08:55:54Z</time>
      </trkpt>
      <trkpt lat="42.597692" lon="-8.590579">
        <ele>127.7</ele>
        <time>2020-09-10T08:55:55Z</time>
      </trkpt>
      <trkpt lat="42.597643" lon="-8.590611">
        <ele>127.5</ele>
        <time>2020-09-10T08:55:57Z</time>
      </trkpt>
      <trkpt lat="42.597591" lon="-8.590642">
        <ele>127.4</ele>
        <time>2020-09-10T08:55:58Z</time>
      </trkpt>
      <trkpt lat="42.597536" lon="-8.590672">
        <ele>127.1</ele>
        <time>2020-09-10T08:56:00Z</time>
      </trkpt>
      <trkpt lat="42.597478" lon="-8.590700">
        <ele>126.7</ele>
        <time>2020-09-10T08:56:01Z</time>
      </trkpt>
      <trkpt lat="42.597414" lon="-8.590724">
        <ele>126.2</ele>
        <time>2020-09-10T08:56:03Z</time>
      </trkpt>
      <trkpt lat="42.597349" lon="-8.590747">
        <ele>125.8</ele>
        <time>2020-09-10T08:56:05Z</time>
      </trkpt>
      <trkpt lat="42.597281" lon="-8.590772">
        <ele>125.6</ele>
        <time>2020-09-10T08:56:07Z</time>
      </trkpt>
      <trkpt lat="42.597209" lon="-8.590795">
        <ele>125.4</ele>
        <time>2020-09-10T08:56:09Z</time>
      </trkpt>
      <trkpt lat="42.597143" lon="-8.590817">
        <ele>125.1</ele>
        <time>2020-09-10T08:56:11Z</time>
      </trkpt>
      <trkpt lat="42.597071" lon="-8.590839">
        <ele>125.2</ele>
        <time>2020-09-10T08:56:13Z</time>
      </trkpt>
      <trkpt lat="42.597005" lon="-8.590862">
        <ele>125.3</ele>
        <time>2020-09-10T08:56:14Z</time>
      </trkpt>
      <trkpt lat="42.596944" lon="-8.590874">
        <ele>125.3</ele>
        <time>2020-09-10T08:56:16Z</time>
      </trkpt>
      <trkpt lat="42.596882" lon="-8.590884">
        <ele>125.3</ele>
        <time>2020-09-10T08:56:18Z</time>
      </trkpt>
      <trkpt lat="42.596822" lon="-8.590899">
        <ele>125.2</ele>
        <time>2020-09-10T08:56:19Z</time>
      </trkpt>
      <trkpt lat="42.596768" lon="-8.590931">
        <ele>125.3</ele>
        <time>2020-09-10T08:56:21Z</time>
      </trkpt>
      <trkpt lat="42.596714" lon="-8.590980">
        <ele>125.5</ele>
        <time>2020-09-10T08:56:23Z</time>
      </trkpt>
      <trkpt lat="42.596662" lon="-8.591016">
        <ele>125.6</ele>
        <time>2020-09-10T08:56:24Z</time>
      </trkpt>
      <trkpt lat="42.596605" lon="-8.591068">
        <ele>125.8</ele>
        <time>2020-09-10T08:56:26Z</time>
      </trkpt>
      <trkpt lat="42.596547" lon="-8.591139">
        <ele>126.1</ele>
        <time>2020-09-10T08:56:28Z</time>
      </trkpt>
      <trkpt lat="42.596495" lon="-8.591216">
        <ele>126.4</ele>
        <time>2020-09-10T08:56:30Z</time>
      </trkpt>
      <trkpt lat="42.596444" lon="-8.591282">
        <ele>126.6</ele>
        <time>2020-09-10T08:56:32Z</time>
      </trkpt>
      <trkpt lat="42.596397" lon="-8.591357">
        <ele>127.3</ele>
        <time>2020-09-10T08:56:34Z</time>
      </trkpt>
      <trkpt lat="42.596345" lon="-8.591419">
        <ele>127.7</ele>
        <time>2020-09-10T08:56:36Z</time>
      </trkpt>
      <trkpt lat="42.596289" lon="-8.591460">
        <ele>127.8</ele>
        <time>2020-09-10T08:56:38Z</time>
      </trkpt>
      <trkpt lat="42.596229" lon="-8.591501">
        <ele>127.8</ele>
        <time>2020-09-10T08:56:39Z</time>
      </trkpt>
      <trkpt lat="42.596150" lon="-8.591549">
        <ele>127.9</ele>
        <time>2020-09-10T08:56:42Z</time>
      </trkpt>
      <trkpt lat="42.596074" lon="-8.591581">
        <ele>127.8</ele>
        <time>2020-09-10T08:56:44Z</time>
      </trkpt>
      <trkpt lat="42.595998" lon="-8.591608">
        <ele>127.6</ele>
        <time>2020-09-10T08:56:46Z</time>
      </trkpt>
      <trkpt lat="42.595922" lon="-8.591633">
        <ele>127.6</ele>
        <time>2020-09-10T08:56:48Z</time>
      </trkpt>
      <trkpt lat="42.595854" lon="-8.591652">
        <ele>127.5</ele>
        <time>2020-09-10T08:56:50Z</time>
      </trkpt>
      <trkpt lat="42.595786" lon="-8.591655">
        <ele>127.3</ele>
        <time>2020-09-10T08:56:52Z</time>
      </trkpt>
      <trkpt lat="42.595713" lon="-8.591652">
        <ele>127.1</ele>
        <time>2020-09-10T08:56:54Z</time>
      </trkpt>
      <trkpt lat="42.595634" lon="-8.591630">
        <ele>127.0</ele>
        <time>2020-09-10T08:56:56Z</time>
      </trkpt>
      <trkpt lat="42.595559" lon="-8.591595">
        <ele>126.8</ele>
        <time>2020-09-10T08:56:58Z</time>
      </trkpt>
      <trkpt lat="42.595487" lon="-8.591526">
        <ele>126.4</ele>
        <time>2020-09-10T08:57:00Z</time>
      </trkpt>
      <trkpt lat="42.595421" lon="-8.591443">
        <ele>126.0</ele>
        <time>2020-09-10T08:57:03Z</time>
      </trkpt>
      <trkpt lat="42.595362" lon="-8.591382">
        <ele>125.9</ele>
        <time>2020-09-10T08:57:05Z</time>
      </trkpt>
      <trkpt lat="42.595308" lon="-8.591329">
        <ele>125.9</ele>
        <time>2020-09-10T08:57:06Z</time>
      </trkpt>
      <trkpt lat="42.595248" lon="-8.591266">
        <ele>126.0</ele>
        <time>2020-09-10T08:57:08Z</time>
      </trkpt>
      <trkpt lat="42.595197" lon="-8.591175">
        <ele>126.2</ele>
        <time>2020-09-10T08:57:11Z</time>
      </trkpt>
      <trkpt lat="42.595166" lon="-8.591073">
        <ele>126.4</ele>
        <time>2020-09-10T08:57:13Z</time>
      </trkpt>
      <trkpt lat="42.595145" lon="-8.590969">
        <ele>126.3</ele>
        <time>2020-09-10T08:57:15Z</time>
      </trkpt>
      <trkpt lat="42.595105" lon="-8.590878">
        <ele>126.6</ele>
        <time>2020-09-10T08:57:17Z</time>
      </trkpt>
      <trkpt lat="42.595062" lon="-8.590799">
        <ele>126.7</ele>
        <time>2020-09-10T08:57:19Z</time>
      </trkpt>
      <trkpt lat="42.595013" lon="-8.590731">
        <ele>126.8</ele>
        <time>2020-09-10T08:57:21Z</time>
      </trkpt>
      <trkpt lat="42.594961" lon="-8.590670">
        <ele>126.9</ele>
        <time>2020-09-10T08:57:23Z</time>
      </trkpt>
      <trkpt lat="42.594905" lon="-8.590622">
        <ele>127.2</ele>
        <time>2020-09-10T08:57:24Z</time>
      </trkpt>
      <trkpt lat="42.594843" lon="-8.590582">
        <ele>127.5</ele>
        <time>2020-09-10T08:57:26Z</time>
      </trkpt>
      <trkpt lat="42.594768" lon="-8.590559">
        <ele>128.1</ele>
        <time>2020-09-10T08:57:28Z</time>
      </trkpt>
      <trkpt lat="42.594701" lon="-8.590562">
        <ele>128.8</ele>
        <time>2020-09-10T08:57:30Z</time>
      </trkpt>
      <trkpt lat="42.594648" lon="-8.590584">
        <ele>129.5</ele>
        <time>2020-09-10T08:57:32Z</time>
      </trkpt>
      <trkpt lat="42.594605" lon="-8.590613">
        <ele>130.1</ele>
        <time>2020-09-10T08:57:33Z</time>
      </trkpt>
      <trkpt lat="42.594562" lon="-8.590648">
        <ele>130.7</ele>
        <time>2020-09-10T08:57:34Z</time>
      </trkpt>
      <trkpt lat="42.594518" lon="-8.590681">
        <ele>131.4</ele>
        <time>2020-09-10T08:57:35Z</time>
      </trkpt>
      <trkpt lat="42.594475" lon="-8.590716">
        <ele>131.9</ele>
        <time>2020-09-10T08:57:37Z</time>
      </trkpt>
      <trkpt lat="42.594436" lon="-8.590756">
        <ele>132.2</ele>
        <time>2020-09-10T08:57:38Z</time>
      </trkpt>
      <trkpt lat="42.594396" lon="-8.590798">
        <ele>132.5</ele>
        <time>2020-09-10T08:57:39Z</time>
      </trkpt>
      <trkpt lat="42.594358" lon="-8.590846">
        <ele>132.7</ele>
        <time>2020-09-10T08:57:41Z</time>
      </trkpt>
      <trkpt lat="42.594320" lon="-8.590896">
        <ele>133.2</ele>
        <time>2020-09-10T08:57:42Z</time>
      </trkpt>
      <trkpt lat="42.594281" lon="-8.590951">
        <ele>133.6</ele>
        <time>2020-09-10T08:57:44Z</time>
      </trkpt>
      <trkpt lat="42.594236" lon="-8.591006">
        <ele>133.9</ele>
        <time>2020-09-10T08:57:45Z</time>
      </trkpt>
      <trkpt lat="42.594189" lon="-8.591057">
        <ele>134.1</ele>
        <time>2020-09-10T08:57:47Z</time>
      </trkpt>
      <trkpt lat="42.594141" lon="-8.591108">
        <ele>134.2</ele>
        <time>2020-09-10T08:57:49Z</time>
      </trkpt>
      <trkpt lat="42.594093" lon="-8.591154">
        <ele>134.3</ele>
        <time>2020-09-10T08:57:50Z</time>
      </trkpt>
      <trkpt lat="42.594046" lon="-8.591197">
        <ele>134.4</ele>
        <time>2020-09-10T08:57:52Z</time>
      </trkpt>
      <trkpt lat="42.593994" lon="-8.591239">
        <ele>134.6</ele>
        <time>2020-09-10T08:57:53Z</time>
      </trkpt>
      <trkpt lat="42.593942" lon="-8.591277">
        <ele>134.6</ele>
        <time>2020-09-10T08:57:55Z</time>
      </trkpt>
      <trkpt lat="42.593893" lon="-8.591310">
        <ele>134.8</ele>
        <time>2020-09-10T08:57:56Z</time>
      </trkpt>
      <trkpt lat="42.593835" lon="-8.591342">
        <ele>135.2</ele>
        <time>2020-09-10T08:57:58Z</time>
      </trkpt>
      <trkpt lat="42.593784" lon="-8.591368">
        <ele>135.6</ele>
        <time>2020-09-10T08:57:59Z</time>
      </trkpt>
      <trkpt lat="42.593733" lon="-8.591391">
        <ele>136.1</ele>
        <time>2020-09-10T08:58:01Z</time>
      </trkpt>
      <trkpt lat="42.593679" lon="-8.591412">
        <ele>136.5</ele>
        <time>2020-09-10T08:58:02Z</time>
      </trkpt>
      <trkpt lat="42.593623" lon="-8.591432">
        <ele>137.1</ele>
        <time>2020-09-10T08:58:04Z</time>
      </trkpt>
      <trkpt lat="42.593565" lon="-8.591453">
        <ele>137.6</ele>
        <time>2020-09-10T08:58:06Z</time>
      </trkpt>
      <trkpt lat="42.593507" lon="-8.591476">
        <ele>138.1</ele>
        <time>2020-09-10T08:58:07Z</time>
      </trkpt>
      <trkpt lat="42.593465" lon="-8.591490">
        <ele>138.5</ele>
        <time>2020-09-10T08:58:08Z</time>
      </trkpt>
      <trkpt lat="42.593424" lon="-8.591497">
        <ele>139.0</ele>
        <time>2020-09-10T08:58:09Z</time>
      </trkpt>
      <trkpt lat="42.593377" lon="-8.591513">
        <ele>139.5</ele>
        <time>2020-09-10T08:58:11Z</time>
      </trkpt>
      <trkpt lat="42.593339" lon="-8.591519">
        <ele>139.9</ele>
        <time>2020-09-10T08:58:12Z</time>
      </trkpt>
      <trkpt lat="42.593301" lon="-8.591519">
        <ele>140.4</ele>
        <time>2020-09-10T08:58:13Z</time>
      </trkpt>
      <trkpt lat="42.593263" lon="-8.591520">
        <ele>140.9</ele>
        <time>2020-09-10T08:58:14Z</time>
      </trkpt>
      <trkpt lat="42.593232" lon="-8.591511">
        <ele>141.4</ele>
        <time>2020-09-10T08:58:15Z</time>
      </trkpt>
      <trkpt lat="42.593201" lon="-8.591502">
        <ele>141.9</ele>
        <time>2020-09-10T08:58:15Z</time>
      </trkpt>
      <trkpt lat="42.593164" lon="-8.591500">
        <ele>142.4</ele>
        <time>2020-09-10T08:58:16Z</time>
      </trkpt>
      <trkpt lat="42.593120" lon="-8.591501">
        <ele>142.9</ele>
        <time>2020-09-10T08:58:18Z</time>
      </trkpt>
      <trkpt lat="42.593078" lon="-8.591508">
        <ele>143.4</ele>
        <time>2020-09-10T08:58:19Z</time>
      </trkpt>
      <trkpt lat="42.593050" lon="-8.591515">
        <ele>143.7</ele>
        <time>2020-09-10T08:58:20Z</time>
      </trkpt>
      <trkpt lat="42.592986" lon="-8.591536">
        <ele>144.4</ele>
        <time>2020-09-10T08:58:21Z</time>
      </trkpt>
      <trkpt lat="42.592936" lon="-8.591554">
        <ele>144.9</ele>
        <time>2020-09-10T08:58:23Z</time>
      </trkpt>
      <trkpt lat="42.592897" lon="-8.591560">
        <ele>145.3</ele>
        <time>2020-09-10T08:58:24Z</time>
      </trkpt>
      <trkpt lat="42.592858" lon="-8.591564">
        <ele>145.7</ele>
        <time>2020-09-10T08:58:25Z</time>
      </trkpt>
      <trkpt lat="42.592800" lon="-8.591571">
        <ele>146.3</ele>
        <time>2020-09-10T08:58:26Z</time>
      </trkpt>
      <trkpt lat="42.592748" lon="-8.591578">
        <ele>146.9</ele>
        <time>2020-09-10T08:58:28Z</time>
      </trkpt>
      <trkpt lat="42.592697" lon="-8.591588">
        <ele>147.3</ele>
        <time>2020-09-10T08:58:29Z</time>
      </trkpt>
      <trkpt lat="42.592671" lon="-8.591569">
        <ele>147.5</ele>
        <time>2020-09-10T08:58:30Z</time>
      </trkpt>
      <trkpt lat="42.592621" lon="-8.591564">
        <ele>147.9</ele>
        <time>2020-09-10T08:58:31Z</time>
      </trkpt>
      <trkpt lat="42.592572" lon="-8.591570">
        <ele>148.3</ele>
        <time>2020-09-10T08:58:32Z</time>
      </trkpt>
      <trkpt lat="42.592538" lon="-8.591570">
        <ele>148.6</ele>
        <time>2020-09-10T08:58:33Z</time>
      </trkpt>
      <trkpt lat="42.592503" lon="-8.591566">
        <ele>148.8</ele>
        <time>2020-09-10T08:58:34Z</time>
      </trkpt>
      <trkpt lat="42.592470" lon="-8.591564">
        <ele>149.0</ele>
        <time>2020-09-10T08:58:35Z</time>
      </trkpt>
      <trkpt lat="42.592434" lon="-8.591561">
        <ele>149.2</ele>
        <time>2020-09-10T08:58:36Z</time>
      </trkpt>
      <trkpt lat="42.592395" lon="-8.591560">
        <ele>149.4</ele>
        <time>2020-09-10T08:58:37Z</time>
      </trkpt>
      <trkpt lat="42.592356" lon="-8.591559">
        <ele>149.6</ele>
        <time>2020-09-10T08:58:38Z</time>
      </trkpt>
      <trkpt lat="42.592321" lon="-8.591554">
        <ele>149.8</ele>
        <time>2020-09-10T08:58:39Z</time>
      </trkpt>
      <trkpt lat="42.592290" lon="-8.591554">
        <ele>149.9</ele>
        <time>2020-09-10T08:58:40Z</time>
      </trkpt>
      <trkpt lat="42.592261" lon="-8.591563">
        <ele>150.1</ele>
        <time>2020-09-10T08:58:41Z</time>
      </trkpt>
      <trkpt lat="42.592231" lon="-8.591576">
        <ele>150.2</ele>
        <time>2020-09-10T08:58:42Z</time>
      </trkpt>
      <trkpt lat="42.592192" lon="-8.591591">
        <ele>150.3</ele>
        <time>2020-09-10T08:58:43Z</time>
      </trkpt>
      <trkpt lat="42.592149" lon="-8.591602">
        <ele>150.5</ele>
        <time>2020-09-10T08:58:44Z</time>
      </trkpt>
      <trkpt lat="42.592107" lon="-8.591616">
        <ele>150.7</ele>
        <time>2020-09-10T08:58:45Z</time>
      </trkpt>
      <trkpt lat="42.592064" lon="-8.591629">
        <ele>150.8</ele>
        <time>2020-09-10T08:58:46Z</time>
      </trkpt>
      <trkpt lat="42.592019" lon="-8.591637">
        <ele>151.1</ele>
        <time>2020-09-10T08:58:47Z</time>
      </trkpt>
      <trkpt lat="42.591974" lon="-8.591644">
        <ele>151.3</ele>
        <time>2020-09-10T08:58:49Z</time>
      </trkpt>
      <trkpt lat="42.591928" lon="-8.591656">
        <ele>151.6</ele>
        <time>2020-09-10T08:58:50Z</time>
      </trkpt>
      <trkpt lat="42.591876" lon="-8.591674">
        <ele>151.8</ele>
        <time>2020-09-10T08:58:51Z</time>
      </trkpt>
      <trkpt lat="42.591829" lon="-8.591694">
        <ele>152.1</ele>
        <time>2020-09-10T08:58:53Z</time>
      </trkpt>
      <trkpt lat="42.591781" lon="-8.591713">
        <ele>152.2</ele>
        <time>2020-09-10T08:58:54Z</time>
      </trkpt>
      <trkpt lat="42.591734" lon="-8.591728">
        <ele>152.4</ele>
        <time>2020-09-10T08:58:55Z</time>
      </trkpt>
      <trkpt lat="42.591689" lon="-8.591744">
        <ele>152.6</ele>
        <time>2020-09-10T08:58:57Z</time>
      </trkpt>
      <trkpt lat="42.591647" lon="-8.591760">
        <ele>152.8</ele>
        <time>2020-09-10T08:58:58Z</time>
      </trkpt>
      <trkpt lat="42.591600" lon="-8.591775">
        <ele>152.9</ele>
        <time>2020-09-10T08:58:59Z</time>
      </trkpt>
      <trkpt lat="42.591555" lon="-8.591793">
        <ele>153.0</ele>
        <time>2020-09-10T08:59:00Z</time>
      </trkpt>
      <trkpt lat="42.591508" lon="-8.591815">
        <ele>153.1</ele>
        <time>2020-09-10T08:59:02Z</time>
      </trkpt>
      <trkpt lat="42.591458" lon="-8.591834">
        <ele>153.2</ele>
        <time>2020-09-10T08:59:03Z</time>
      </trkpt>
      <trkpt lat="42.591406" lon="-8.591843">
        <ele>153.3</ele>
        <time>2020-09-10T08:59:04Z</time>
      </trkpt>
      <trkpt lat="42.591355" lon="-8.591859">
        <ele>153.5</ele>
        <time>2020-09-10T08:59:06Z</time>
      </trkpt>
      <trkpt lat="42.591306" lon="-8.591866">
        <ele>153.7</ele>
        <time>2020-09-10T08:59:07Z</time>
      </trkpt>
      <trkpt lat="42.591259" lon="-8.591872">
        <ele>154.0</ele>
        <time>2020-09-10T08:59:08Z</time>
      </trkpt>
      <trkpt lat="42.591213" lon="-8.591884">
        <ele>154.2</ele>
        <time>2020-09-10T08:59:10Z</time>
      </trkpt>
      <trkpt lat="42.591165" lon="-8.591900">
        <ele>154.5</ele>
        <time>2020-09-10T08:59:11Z</time>
      </trkpt>
      <trkpt lat="42.591118" lon="-8.591922">
        <ele>154.7</ele>
        <time>2020-09-10T08:59:12Z</time>
      </trkpt>
      <trkpt lat="42.591071" lon="-8.591941">
        <ele>155.0</ele>
        <time>2020-09-10T08:59:13Z</time>
      </trkpt>
      <trkpt lat="42.591024" lon="-8.591956">
        <ele>155.3</ele>
        <time>2020-09-10T08:59:15Z</time>
      </trkpt>
      <trkpt lat="42.590976" lon="-8.591965">
        <ele>155.6</ele>
        <time>2020-09-10T08:59:16Z</time>
      </trkpt>
      <trkpt lat="42.590929" lon="-8.591969">
        <ele>155.9</ele>
        <time>2020-09-10T08:59:17Z</time>
      </trkpt>
      <trkpt lat="42.590880" lon="-8.591971">
        <ele>156.1</ele>
        <time>2020-09-10T08:59:19Z</time>
      </trkpt>
      <trkpt lat="42.590830" lon="-8.591969">
        <ele>156.3</ele>
        <time>2020-09-10T08:59:20Z</time>
      </trkpt>
      <trkpt lat="42.590781" lon="-8.591967">
        <ele>156.5</ele>
        <time>2020-09-10T08:59:21Z</time>
      </trkpt>
      <trkpt lat="42.590733" lon="-8.591965">
        <ele>156.7</ele>
        <time>2020-09-10T08:59:23Z</time>
      </trkpt>
      <trkpt lat="42.590688" lon="-8.591963">
        <ele>156.9</ele>
        <time>2020-09-10T08:59:24Z</time>
      </trkpt>
      <trkpt lat="42.590642" lon="-8.591964">
        <ele>156.9</ele>
        <time>2020-09-10T08:59:25Z</time>
      </trkpt>
      <trkpt lat="42.590594" lon="-8.591965">
        <ele>156.9</ele>
        <time>2020-09-10T08:59:26Z</time>
      </trkpt>
      <trkpt lat="42.590545" lon="-8.591961">
        <ele>156.9</ele>
        <time>2020-09-10T08:59:28Z</time>
      </trkpt>
      <trkpt lat="42.590495" lon="-8.591951">
        <ele>157.0</ele>
        <time>2020-09-10T08:59:29Z</time>
      </trkpt>
      <trkpt lat="42.590446" lon="-8.591944">
        <ele>157.0</ele>
        <time>2020-09-10T08:59:30Z</time>
      </trkpt>
      <trkpt lat="42.590389" lon="-8.591939">
        <ele>157.0</ele>
        <time>2020-09-10T08:59:32Z</time>
      </trkpt>
      <trkpt lat="42.590318" lon="-8.591937">
        <ele>157.0</ele>
        <time>2020-09-10T08:59:34Z</time>
      </trkpt>
      <trkpt lat="42.590253" lon="-8.591935">
        <ele>157.0</ele>
        <time>2020-09-10T08:59:35Z</time>
      </trkpt>
      <trkpt lat="42.590193" lon="-8.591928">
        <ele>156.9</ele>
        <time>2020-09-10T08:59:37Z</time>
      </trkpt>
      <trkpt lat="42.590136" lon="-8.591917">
        <ele>156.8</ele>
        <time>2020-09-10T08:59:39Z</time>
      </trkpt>
      <trkpt lat="42.590079" lon="-8.591913">
        <ele>156.7</ele>
        <time>2020-09-10T08:59:40Z</time>
      </trkpt>
      <trkpt lat="42.590019" lon="-8.591920">
        <ele>156.6</ele>
        <time>2020-09-10T08:59:42Z</time>
      </trkpt>
      <trkpt lat="42.589963" lon="-8.591919">
        <ele>156.6</ele>
        <time>2020-09-10T08:59:43Z</time>
      </trkpt>
      <trkpt lat="42.589906" lon="-8.591935">
        <ele>156.6</ele>
        <time>2020-09-10T08:59:45Z</time>
      </trkpt>
      <trkpt lat="42.589851" lon="-8.591947">
        <ele>156.6</ele>
        <time>2020-09-10T08:59:46Z</time>
      </trkpt>
      <trkpt lat="42.589785" lon="-8.591920">
        <ele>156.7</ele>
        <time>2020-09-10T08:59:48Z</time>
      </trkpt>
      <trkpt lat="42.589726" lon="-8.591876">
        <ele>156.9</ele>
        <time>2020-09-10T08:59:50Z</time>
      </trkpt>
      <trkpt lat="42.589688" lon="-8.591821">
        <ele>157.1</ele>
        <time>2020-09-10T08:59:51Z</time>
      </trkpt>
      <trkpt lat="42.589659" lon="-8.591758">
        <ele>157.2</ele>
        <time>2020-09-10T08:59:53Z</time>
      </trkpt>
      <trkpt lat="42.589627" lon="-8.591703">
        <ele>157.4</ele>
        <time>2020-09-10T08:59:54Z</time>
      </trkpt>
      <trkpt lat="42.589584" lon="-8.591654">
        <ele>157.7</ele>
        <time>2020-09-10T08:59:56Z</time>
      </trkpt>
      <trkpt lat="42.589549" lon="-8.591609">
        <ele>157.9</ele>
        <time>2020-09-10T08:59:57Z</time>
      </trkpt>
      <trkpt lat="42.589517" lon="-8.591562">
        <ele>158.1</ele>
        <time>2020-09-10T08:59:58Z</time>
      </trkpt>
      <trkpt lat="42.589489" lon="-8.591512">
        <ele>158.4</ele>
        <time>2020-09-10T08:59:59Z</time>
      </trkpt>
      <trkpt lat="42.589467" lon="-8.591470">
        <ele>158.5</ele>
        <time>2020-09-10T09:00:00Z</time>
      </trkpt>
      <trkpt lat="42.589452" lon="-8.591430">
        <ele>158.6</ele>
        <time>2020-09-10T09:00:01Z</time>
      </trkpt>
      <trkpt lat="42.589442" lon="-8.591390">
        <ele>158.6</ele>
        <time>2020-09-10T09:00:02Z</time>
      </trkpt>
      <trkpt lat="42.589441" lon="-8.591365">
        <ele>158.6</ele>
        <time>2020-09-10T09:00:03Z</time>
      </trkpt>
      <trkpt lat="42.589429" lon="-8.591335">
        <ele>158.7</ele>
        <time>2020-09-10T09:00:03Z</time>
      </trkpt>
      <trkpt lat="42.589409" lon="-8.591303">
        <ele>158.8</ele>
        <time>2020-09-10T09:00:04Z</time>
      </trkpt>
      <trkpt lat="42.589389" lon="-8.591281">
        <ele>158.9</ele>
        <time>2020-09-10T09:00:05Z</time>
      </trkpt>
      <trkpt lat="42.589369" lon="-8.591264">
        <ele>159.0</ele>
        <time>2020-09-10T09:00:05Z</time>
      </trkpt>
      <trkpt lat="42.589350" lon="-8.591228">
        <ele>159.1</ele>
        <time>2020-09-10T09:00:06Z</time>
      </trkpt>
      <trkpt lat="42.589328" lon="-8.591192">
        <ele>159.2</ele>
        <time>2020-09-10T09:00:07Z</time>
      </trkpt>
      <trkpt lat="42.589299" lon="-8.591157">
        <ele>159.4</ele>
        <time>2020-09-10T09:00:08Z</time>
      </trkpt>
      <trkpt lat="42.589273" lon="-8.591126">
        <ele>159.5</ele>
        <time>2020-09-10T09:00:09Z</time>
      </trkpt>
      <trkpt lat="42.589246" lon="-8.591096">
        <ele>159.6</ele>
        <time>2020-09-10T09:00:10Z</time>
      </trkpt>
      <trkpt lat="42.589221" lon="-8.591062">
        <ele>159.7</ele>
        <time>2020-09-10T09:00:11Z</time>
      </trkpt>
      <trkpt lat="42.589215" lon="-8.591013">
        <ele>159.7</ele>
        <time>2020-09-10T09:00:12Z</time>
      </trkpt>
      <trkpt lat="42.589232" lon="-8.590954">
        <ele>159.6</ele>
        <time>2020-09-10T09:00:13Z</time>
      </trkpt>
      <trkpt lat="42.589258" lon="-8.590894">
        <ele>159.5</ele>
        <time>2020-09-10T09:00:15Z</time>
      </trkpt>
      <trkpt lat="42.589299" lon="-8.590835">
        <ele>159.4</ele>
        <time>2020-09-10T09:00:16Z</time>
      </trkpt>
      <trkpt lat="42.589345" lon="-8.590775">
        <ele>159.2</ele>
        <time>2020-09-10T09:00:18Z</time>
      </trkpt>
      <trkpt lat="42.589393" lon="-8.590713">
        <ele>159.0</ele>
        <time>2020-09-10T09:00:20Z</time>
      </trkpt>
      <trkpt lat="42.589439" lon="-8.590649">
        <ele>158.9</ele>
        <time>2020-09-10T09:00:21Z</time>
      </trkpt>
      <trkpt lat="42.589487" lon="-8.590585">
        <ele>158.8</ele>
        <time>2020-09-10T09:00:23Z</time>
      </trkpt>
      <trkpt lat="42.589534" lon="-8.590519">
        <ele>158.8</ele>
        <time>2020-09-10T09:00:25Z</time>
      </trkpt>
      <trkpt lat="42.589581" lon="-8.590450">
        <ele>158.9</ele>
        <time>2020-09-10T09:00:27Z</time>
      </trkpt>
      <trkpt lat="42.589628" lon="-8.590380">
        <ele>159.0</ele>
        <time>2020-09-10T09:00:29Z</time>
      </trkpt>
      <trkpt lat="42.589687" lon="-8.590311">
        <ele>159.0</ele>
        <time>2020-09-10T09:00:31Z</time>
      </trkpt>
      <trkpt lat="42.589741" lon="-8.590243">
        <ele>158.9</ele>
        <time>2020-09-10T09:00:33Z</time>
      </trkpt>
      <trkpt lat="42.589793" lon="-8.590176">
        <ele>159.0</ele>
        <time>2020-09-10T09:00:35Z</time>
      </trkpt>
      <trkpt lat="42.589840" lon="-8.590111">
        <ele>159.3</ele>
        <time>2020-09-10T09:00:37Z</time>
      </trkpt>
      <trkpt lat="42.589886" lon="-8.590040">
        <ele>159.5</ele>
        <time>2020-09-10T09:00:38Z</time>
      </trkpt>
      <trkpt lat="42.589935" lon="-8.589971">
        <ele>159.6</ele>
        <time>2020-09-10T09:00:40Z</time>
      </trkpt>
      <trkpt lat="42.589993" lon="-8.589904">
        <ele>159.4</ele>
        <time>2020-09-10T09:00:42Z</time>
      </trkpt>
      <trkpt lat="42.590038" lon="-8.589843">
        <ele>159.4</ele>
        <time>2020-09-10T09:00:44Z</time>
      </trkpt>
      <trkpt lat="42.590068" lon="-8.589770">
        <ele>159.4</ele>
        <time>2020-09-10T09:00:46Z</time>
      </trkpt>
      <trkpt lat="42.590071" lon="-8.589692">
        <ele>159.7</ele>
        <time>2020-09-10T09:00:47Z</time>
      </trkpt>
      <trkpt lat="42.590059" lon="-8.589619">
        <ele>160.1</ele>
        <time>2020-09-10T09:00:49Z</time>
      </trkpt>
      <trkpt lat="42.590060" lon="-8.589539">
        <ele>160.4</ele>
        <time>2020-09-10T09:00:50Z</time>
      </trkpt>
      <trkpt lat="42.590054" lon="-8.589460">
        <ele>160.8</ele>
        <time>2020-09-10T09:00:52Z</time>
      </trkpt>
      <trkpt lat="42.590056" lon="-8.589378">
        <ele>160.8</ele>
        <time>2020-09-10T09:00:53Z</time>
      </trkpt>
      <trkpt lat="42.590032" lon="-8.589292">
        <ele>161.1</ele>
        <time>2020-09-10T09:00:55Z</time>
      </trkpt>
      <trkpt lat="42.590016" lon="-8.589227">
        <ele>161.3</ele>
        <time>2020-09-10T09:00:57Z</time>
      </trkpt>
      <trkpt lat="42.590009" lon="-8.589180">
        <ele>161.2</ele>
        <time>2020-09-10T09:00:57Z</time>
      </trkpt>
      <trkpt lat="42.590001" lon="-8.589124">
        <ele>161.1</ele>
        <time>2020-09-10T09:00:59Z</time>
      </trkpt>
      <trkpt lat="42.590000" lon="-8.589064">
        <ele>160.8</ele>
        <time>2020-09-10T09:01:00Z</time>
      </trkpt>
      <trkpt lat="42.589999" lon="-8.588998">
        <ele>160.5</ele>
        <time>2020-09-10T09:01:01Z</time>
      </trkpt>
      <trkpt lat="42.589993" lon="-8.588927">
        <ele>160.2</ele>
        <time>2020-09-10T09:01:02Z</time>
      </trkpt>
      <trkpt lat="42.589989" lon="-8.588857">
        <ele>159.8</ele>
        <time>2020-09-10T09:01:04Z</time>
      </trkpt>
      <trkpt lat="42.589990" lon="-8.588786">
        <ele>159.5</ele>
        <time>2020-09-10T09:01:05Z</time>
      </trkpt>
      <trkpt lat="42.589991" lon="-8.588713">
        <ele>159.4</ele>
        <time>2020-09-10T09:01:07Z</time>
      </trkpt>
      <trkpt lat="42.589990" lon="-8.588641">
        <ele>159.4</ele>
        <time>2020-09-10T09:01:08Z</time>
      </trkpt>
      <trkpt lat="42.589991" lon="-8.588570">
        <ele>159.4</ele>
        <time>2020-09-10T09:01:09Z</time>
      </trkpt>
      <trkpt lat="42.589996" lon="-8.588502">
        <ele>159.4</ele>
        <time>2020-09-10T09:01:11Z</time>
      </trkpt>
      <trkpt lat="42.590013" lon="-8.588439">
        <ele>159.5</ele>
        <time>2020-09-10T09:01:12Z</time>
      </trkpt>
      <trkpt lat="42.590042" lon="-8.588381">
        <ele>159.4</ele>
        <time>2020-09-10T09:01:14Z</time>
      </trkpt>
      <trkpt lat="42.590079" lon="-8.588335">
        <ele>159.2</ele>
        <time>2020-09-10T09:01:15Z</time>
      </trkpt>
      <trkpt lat="42.589980" lon="-8.588688">
        <ele>159.453</ele>
        <time>2020-08-14T07:00:00Z</time>
      </trkpt>
      <trkpt lat="42.589959" lon="-8.588364">
        <ele>160.004</ele>
        <time>2020-08-14T07:00:06Z</time>
      </trkpt>
      <trkpt lat="42.590884" lon="-8.588269">
        <ele>152.814</ele>
        <time>2020-08-14T07:00:32Z</time>
      </trkpt>
      <trkpt lat="42.592279" lon="-8.585864">
        <ele>146.208</ele>
        <time>2020-08-14T07:01:32Z</time>
      </trkpt>
      <trkpt lat="42.594726" lon="-8.584154">
        <ele>142.010</ele>
        <time>2020-08-14T07:02:46Z</time>
      </trkpt>
      <trkpt lat="42.595093" lon="-8.583388">
        <ele>140.770</ele>
        <time>2020-08-14T07:03:04Z</time>
      </trkpt>
      <trkpt lat="42.594863" lon="-8.583377">
        <ele>140.094</ele>
        <time>2020-08-14T07:03:11Z</time>
      </trkpt>
      <trkpt lat="42.594566" lon="-8.583001">
        <ele>139.911</ele>
        <time>2020-08-14T07:03:22Z</time>
      </trkpt>
      <trkpt lat="42.594482" lon="-8.582632">
        <ele>140.131</ele>
        <time>2020-08-14T07:03:29Z</time>
      </trkpt>
      <trkpt lat="42.594187" lon="-8.582566">
        <ele>140.797</ele>
        <time>2020-08-14T07:03:37Z</time>
      </trkpt>
      <trkpt lat="42.593681" lon="-8.582063">
        <ele>141.797</ele>
        <time>2020-08-14T07:03:54Z</time>
      </trkpt>
      <trkpt lat="42.592541" lon="-8.582264">
        <ele>142.966</ele>
        <time>2020-08-14T07:04:25Z</time>
      </trkpt>
      <trkpt lat="42.592472" lon="-8.581919">
        <ele>142.978</ele>
        <time>2020-08-14T07:04:33Z</time>
      </trkpt>
      <trkpt lat="42.591879" lon="-8.581183">
        <ele>144.333</ele>
        <time>2020-08-14T07:04:54Z</time>
      </trkpt>
      <trkpt lat="42.591086" lon="-8.581288">
        <ele>144.826</ele>
        <time>2020-08-14T07:05:16Z</time>
      </trkpt>
      <trkpt lat="42.590435" lon="-8.582195">
        <ele>145.208</ele>
        <time>2020-08-14T07:05:41Z</time>
      </trkpt>
      <trkpt lat="42.590114" lon="-8.581804">
        <ele>145.952</ele>
        <time>2020-08-14T07:05:53Z</time>
      </trkpt>
      <trkpt lat="42.589773" lon="-8.581838">
        <ele>146.032</ele>
        <time>2020-08-14T07:06:02Z</time>
      </trkpt>
      <trkpt lat="42.589530" lon="-8.582084">
        <ele>146.796</ele>
        <time>2020-08-14T07:06:10Z</time>
      </trkpt>
      <trkpt lat="42.589151" lon="-8.581865">
        <ele>147.113</ele>
        <time>2020-08-14T07:06:21Z</time>
      </trkpt>
      <trkpt lat="42.588860" lon="-8.581933">
        <ele>148.113</ele>
        <time>2020-08-14T07:06:29Z</time>
      </trkpt>
      <trkpt lat="42.588674" lon="-8.581630">
        <ele>147.939</ele>
        <time>2020-08-14T07:06:37Z</time>
      </trkpt>
      <trkpt lat="42.588255" lon="-8.581499">
        <ele>148.579</ele>
        <time>2020-08-14T07:06:49Z</time>
      </trkpt>
      <trkpt lat="42.588071" lon="-8.581141">
        <ele>148.758</ele>
        <time>2020-08-14T07:06:58Z</time>
      </trkpt>
      <trkpt lat="42.587359" lon="-8.581438">
        <ele>154.092</ele>
        <time>2020-08-14T07:07:19Z</time>
      </trkpt>
      <trkpt lat="42.586698" lon="-8.579860">
        <ele>151.673</ele>
        <time>2020-08-14T07:07:55Z</time>
      </trkpt>
      <trkpt lat="42.586386" lon="-8.579685">
        <ele>151.820</ele>
        <time>2020-08-14T07:08:04Z</time>
      </trkpt>
      <trkpt lat="42.586065" lon="-8.579252">
        <ele>152.208</ele>
        <time>2020-08-14T07:08:16Z</time>
      </trkpt>
      <trkpt lat="42.584677" lon="-8.579005">
        <ele>155.284</ele>
        <time>2020-08-14T07:08:54Z</time>
      </trkpt>
      <trkpt lat="42.584520" lon="-8.578848">
        <ele>156.494</ele>
        <time>2020-08-14T07:09:00Z</time>
      </trkpt>
      <trkpt lat="42.584237" lon="-8.578950">
        <ele>157.638</ele>
        <time>2020-08-14T07:09:08Z</time>
      </trkpt>
      <trkpt lat="42.583754" lon="-8.578585">
        <ele>157.945</ele>
        <time>2020-08-14T07:09:23Z</time>
      </trkpt>
      <trkpt lat="42.583592" lon="-8.578095">
        <ele>159.855</ele>
        <time>2020-08-14T07:09:34Z</time>
      </trkpt>
      <trkpt lat="42.583717" lon="-8.577912">
        <ele>160.171</ele>
        <time>2020-08-14T07:09:39Z</time>
      </trkpt>
      <trkpt lat="42.584478" lon="-8.577288">
        <ele>166.331</ele>
        <time>2020-08-14T07:10:03Z</time>
      </trkpt>
      <trkpt lat="42.584955" lon="-8.577120">
        <ele>167.990</ele>
        <time>2020-08-14T07:10:16Z</time>
      </trkpt>
      <trkpt lat="42.585310" lon="-8.576727">
        <ele>167.972</ele>
        <time>2020-08-14T07:10:30Z</time>
      </trkpt>
      <trkpt lat="42.584481" lon="-8.576457">
        <ele>183.213</ele>
        <time>2020-08-14T07:10:53Z</time>
      </trkpt>
      <trkpt lat="42.583405" lon="-8.576399">
        <ele>191.314</ele>
        <time>2020-08-14T07:11:22Z</time>
      </trkpt>
      <trkpt lat="42.583099" lon="-8.576515">
        <ele>191.008</ele>
        <time>2020-08-14T07:11:31Z</time>
      </trkpt>
      <trkpt lat="42.582545" lon="-8.576385">
        <ele>197.022</ele>
        <time>2020-08-14T07:11:46Z</time>
      </trkpt>
      <trkpt lat="42.581447" lon="-8.575471">
        <ele>203.372</ele>
        <time>2020-08-14T07:12:21Z</time>
      </trkpt>
      <trkpt lat="42.580611" lon="-8.575448">
        <ele>201.186</ele>
        <time>2020-08-14T07:12:44Z</time>
      </trkpt>
      <trkpt lat="42.579703" lon="-8.575976">
        <ele>203.113</ele>
        <time>2020-08-14T07:13:11Z</time>
      </trkpt>
      <trkpt lat="42.579890" lon="-8.574793">
        <ele>218.763</ele>
        <time>2020-08-14T07:13:36Z</time>
      </trkpt>
      <trkpt lat="42.580201" lon="-8.574219">
        <ele>220.779</ele>
        <time>2020-08-14T07:13:51Z</time>
      </trkpt>
      <trkpt lat="42.580252" lon="-8.573823">
        <ele>223.949</ele>
        <time>2020-08-14T07:13:59Z</time>
      </trkpt>
      <trkpt lat="42.580798" lon="-8.573478">
        <ele>225.778</ele>
        <time>2020-08-14T07:14:16Z</time>
      </trkpt>
      <trkpt lat="42.581165" lon="-8.572511">
        <ele>237.232</ele>
        <time>2020-08-14T07:14:38Z</time>
      </trkpt>
      <trkpt lat="42.581110" lon="-8.571892">
        <ele>244.592</ele>
        <time>2020-08-14T07:14:50Z</time>
      </trkpt>
      <trkpt lat="42.580960" lon="-8.571691">
        <ele>248.111</ele>
        <time>2020-08-14T07:14:56Z</time>
      </trkpt>
      <trkpt lat="42.578402" lon="-8.571324">
        <ele>264.508</ele>
        <time>2020-08-14T07:16:05Z</time>
      </trkpt>
      <trkpt lat="42.577811" lon="-8.571595">
        <ele>269.588</ele>
        <time>2020-08-14T07:16:22Z</time>
      </trkpt>
      <trkpt lat="42.577349" lon="-8.573179">
        <ele>273.528</ele>
        <time>2020-08-14T07:16:56Z</time>
      </trkpt>
      <trkpt lat="42.577045" lon="-8.573596">
        <ele>274.352</ele>
        <time>2020-08-14T07:17:08Z</time>
      </trkpt>
      <trkpt lat="42.576102" lon="-8.573388">
        <ele>280.659</ele>
        <time>2020-08-14T07:17:34Z</time>
      </trkpt>
      <trkpt lat="42.575588" lon="-8.573857">
        <ele>284.299</ele>
        <time>2020-08-14T07:17:51Z</time>
      </trkpt>
      <trkpt lat="42.575132" lon="-8.573918">
        <ele>285.865</ele>
        <time>2020-08-14T07:18:03Z</time>
      </trkpt>
      <trkpt lat="42.574928" lon="-8.573795">
        <ele>286.485</ele>
        <time>2020-08-14T07:18:09Z</time>
      </trkpt>
      <trkpt lat="42.574764" lon="-8.573133">
        <ele>292.024</ele>
        <time>2020-08-14T07:18:24Z</time>
      </trkpt>
      <trkpt lat="42.573782" lon="-8.572562">
        <ele>302.127</ele>
        <time>2020-08-14T07:18:53Z</time>
      </trkpt>
      <trkpt lat="42.573940" lon="-8.572229">
        <ele>307.068</ele>
        <time>2020-08-14T07:19:01Z</time>
      </trkpt>
      <trkpt lat="42.573957" lon="-8.571178">
        <ele>321.114</ele>
        <time>2020-08-14T07:19:23Z</time>
      </trkpt>
      <trkpt lat="42.574112" lon="-8.570566">
        <ele>325.608</ele>
        <time>2020-08-14T07:19:38Z</time>
      </trkpt>
      <trkpt lat="42.573971" lon="-8.570034">
        <ele>331.957</ele>
        <time>2020-08-14T07:19:49Z</time>
      </trkpt>
      <trkpt lat="42.573606" lon="-8.570125">
        <ele>336.747</ele>
        <time>2020-08-14T07:19:59Z</time>
      </trkpt>
      <trkpt lat="42.572204" lon="-8.571186">
        <ele>344.571</ele>
        <time>2020-08-14T07:20:43Z</time>
      </trkpt>
      <trkpt lat="42.570560" lon="-8.569541">
        <ele>350.588</ele>
        <time>2020-08-14T07:21:38Z</time>
      </trkpt>
      <trkpt lat="42.569755" lon="-8.569037">
        <ele>351.078</ele>
        <time>2020-08-14T07:22:02Z</time>
      </trkpt>
      <trkpt lat="42.569051" lon="-8.568238">
        <ele>352.274</ele>
        <time>2020-08-14T07:22:27Z</time>
      </trkpt>
      <trkpt lat="42.568253" lon="-8.568351">
        <ele>352.394</ele>
        <time>2020-08-14T07:22:48Z</time>
      </trkpt>
      <trkpt lat="42.567905" lon="-8.568616">
        <ele>349.733</ele>
        <time>2020-08-14T07:22:59Z</time>
      </trkpt>
      <trkpt lat="42.566719" lon="-8.568717">
        <ele>339.836</ele>
        <time>2020-08-14T07:23:31Z</time>
      </trkpt>
      <trkpt lat="42.565627" lon="-8.568097">
        <ele>329.917</ele>
        <time>2020-08-14T07:24:03Z</time>
      </trkpt>
      <trkpt lat="42.565209" lon="-8.568052">
        <ele>323.218</ele>
        <time>2020-08-14T07:24:14Z</time>
      </trkpt>
      <trkpt lat="42.564578" lon="-8.567519">
        <ele>321.808</ele>
        <time>2020-08-14T07:24:34Z</time>
      </trkpt>
      <trkpt lat="42.562407" lon="-8.568614">
        <ele>299.638</ele>
        <time>2020-08-14T07:25:37Z</time>
      </trkpt>
      <trkpt lat="42.561158" lon="-8.568519">
        <ele>294.028</ele>
        <time>2020-08-14T07:26:11Z</time>
      </trkpt>
      <trkpt lat="42.560833" lon="-8.570064">
        <ele>296.962</ele>
        <time>2020-08-14T07:26:43Z</time>
      </trkpt>
      <trkpt lat="42.559492" lon="-8.570155">
        <ele>287.519</ele>
        <time>2020-08-14T07:27:19Z</time>
      </trkpt>
      <trkpt lat="42.558848" lon="-8.569922">
        <ele>285.469</ele>
        <time>2020-08-14T07:27:37Z</time>
      </trkpt>
      <trkpt lat="42.558012" lon="-8.568431">
        <ele>289.525</ele>
        <time>2020-08-14T07:28:14Z</time>
      </trkpt>
      <trkpt lat="42.557309" lon="-8.567810">
        <ele>295.095</ele>
        <time>2020-08-14T07:28:37Z</time>
      </trkpt>
      <trkpt lat="42.557002" lon="-8.568027">
        <ele>298.424</ele>
        <time>2020-08-14T07:28:46Z</time>
      </trkpt>
      <trkpt lat="42.556857" lon="-8.568714">
        <ele>299.685</ele>
        <time>2020-08-14T07:29:01Z</time>
      </trkpt>
      <trkpt lat="42.556246" lon="-8.568827">
        <ele>301.289</ele>
        <time>2020-08-14T07:29:18Z</time>
      </trkpt>
      <trkpt lat="42.556257" lon="-8.568443">
        <ele>309.017</ele>
        <time>2020-08-14T07:29:26Z</time>
      </trkpt>
      <trkpt lat="42.556632" lon="-8.568072">
        <ele>312.708</ele>
        <time>2020-08-14T07:29:39Z</time>
      </trkpt>
      <trkpt lat="42.556678" lon="-8.567540">
        <ele>318.443</ele>
        <time>2020-08-14T07:29:50Z</time>
      </trkpt>
      <trkpt lat="42.555708" lon="-8.567179">
        <ele>336.223</ele>
        <time>2020-08-14T07:30:18Z</time>
      </trkpt>
      <trkpt lat="42.555298" lon="-8.566599">
        <ele>344.287</ele>
        <time>2020-08-14T07:30:34Z</time>
      </trkpt>
      <trkpt lat="42.554825" lon="-8.565470">
        <ele>356.864</ele>
        <time>2020-08-14T07:31:00Z</time>
      </trkpt>
      <trkpt lat="42.554102" lon="-8.564787">
        <ele>364.054</ele>
        <time>2020-08-14T07:31:24Z</time>
      </trkpt>
      <trkpt lat="42.553871" lon="-8.564259">
        <ele>366.920</ele>
        <time>2020-08-14T07:31:36Z</time>
      </trkpt>
      <trkpt lat="42.553356" lon="-8.565146">
        <ele>376.470</ele>
        <time>2020-08-14T07:32:00Z</time>
      </trkpt>
      <trkpt lat="42.553024" lon="-8.565364">
        <ele>380.619</ele>
        <time>2020-08-14T07:32:09Z</time>
      </trkpt>
      <trkpt lat="42.552548" lon="-8.565232">
        <ele>385.724</ele>
        <time>2020-08-14T07:32:23Z</time>
      </trkpt>
      <trkpt lat="42.551897" lon="-8.564492">
        <ele>393.004</ele>
        <time>2020-08-14T07:32:46Z</time>
      </trkpt>
      <trkpt lat="42.551372" lon="-8.564407">
        <ele>395.814</ele>
        <time>2020-08-14T07:33:00Z</time>
      </trkpt>
      <trkpt lat="42.549760" lon="-8.564783">
        <ele>403.108</ele>
        <time>2020-08-14T07:33:44Z</time>
      </trkpt>
      <trkpt lat="42.548266" lon="-8.565985">
        <ele>424.397</ele>
        <time>2020-08-14T07:34:30Z</time>
      </trkpt>
      <trkpt lat="42.547407" lon="-8.567605">
        <ele>417.847</ele>
        <time>2020-08-14T07:35:10Z</time>
      </trkpt>
      <trkpt lat="42.546917" lon="-8.567876">
        <ele>414.531</ele>
        <time>2020-08-14T07:35:25Z</time>
      </trkpt>
      <trkpt lat="42.546867" lon="-8.568433">
        <ele>407.268</ele>
        <time>2020-08-14T07:35:36Z</time>
      </trkpt>
      <trkpt lat="42.547037" lon="-8.569002">
        <ele>398.058</ele>
        <time>2020-08-14T07:35:48Z</time>
      </trkpt>
      <trkpt lat="42.546879" lon="-8.569407">
        <ele>397.344</ele>
        <time>2020-08-14T07:35:57Z</time>
      </trkpt>
      <trkpt lat="42.546021" lon="-8.570441">
        <ele>404.844</ele>
        <time>2020-08-14T07:36:28Z</time>
      </trkpt>
      <trkpt lat="42.545558" lon="-8.571795">
        <ele>410.143</ele>
        <time>2020-08-14T07:36:58Z</time>
      </trkpt>
      <trkpt lat="42.544939" lon="-8.572423">
        <ele>416.517</ele>
        <time>2020-08-14T07:37:19Z</time>
      </trkpt>
      <trkpt lat="42.544664" lon="-8.572307">
        <ele>417.487</ele>
        <time>2020-08-14T07:37:27Z</time>
      </trkpt>
      <trkpt lat="42.544358" lon="-8.571610">
        <ele>419.715</ele>
        <time>2020-08-14T07:37:43Z</time>
      </trkpt>
      <trkpt lat="42.543215" lon="-8.571220">
        <ele>421.908</ele>
        <time>2020-08-14T07:38:15Z</time>
      </trkpt>
      <trkpt lat="42.541551" lon="-8.571809">
        <ele>423.696</ele>
        <time>2020-08-14T07:39:01Z</time>
      </trkpt>
      <trkpt lat="42.540276" lon="-8.571735">
        <ele>427.266</ele>
        <time>2020-08-14T07:39:36Z</time>
      </trkpt>
      <trkpt lat="42.539416" lon="-8.571256">
        <ele>432.230</ele>
        <time>2020-08-14T07:40:00Z</time>
      </trkpt>
      <trkpt lat="42.538686" lon="-8.570277">
        <ele>440.357</ele>
        <time>2020-08-14T07:40:28Z</time>
      </trkpt>
      <trkpt lat="42.537700" lon="-8.570295">
        <ele>446.697</ele>
        <time>2020-08-14T07:40:55Z</time>
      </trkpt>
      <trkpt lat="42.535813" lon="-8.569205">
        <ele>452.093</ele>
        <time>2020-08-14T07:41:50Z</time>
      </trkpt>
      <trkpt lat="42.535050" lon="-8.570098">
        <ele>451.883</ele>
        <time>2020-08-14T07:42:18Z</time>
      </trkpt>
      <trkpt lat="42.533557" lon="-8.570842">
        <ele>453.882</ele>
        <time>2020-08-14T07:43:00Z</time>
      </trkpt>
      <trkpt lat="42.533364" lon="-8.570874">
        <ele>453.994</ele>
        <time>2020-08-14T07:43:05Z</time>
      </trkpt>
      <trkpt lat="42.532228" lon="-8.570344">
        <ele>457.357</ele>
        <time>2020-08-14T07:43:38Z</time>
      </trkpt>
      <trkpt lat="42.530445" lon="-8.571071">
        <ele>458.122</ele>
        <time>2020-08-14T07:44:28Z</time>
      </trkpt>
      <trkpt lat="42.530123" lon="-8.571326">
        <ele>461.008</ele>
        <time>2020-08-14T07:44:38Z</time>
      </trkpt>
      <trkpt lat="42.529922" lon="-8.571763">
        <ele>461.314</ele>
        <time>2020-08-14T07:44:48Z</time>
      </trkpt>
      <trkpt lat="42.529830" lon="-8.572695">
        <ele>459.234</ele>
        <time>2020-08-14T07:45:07Z</time>
      </trkpt>
      <trkpt lat="42.529180" lon="-8.573419">
        <ele>456.288</ele>
        <time>2020-08-14T07:45:29Z</time>
      </trkpt>
      <trkpt lat="42.528348" lon="-8.574886">
        <ele>446.095</ele>
        <time>2020-08-14T07:46:06Z</time>
      </trkpt>
      <trkpt lat="42.527244" lon="-8.575295">
        <ele>443.095</ele>
        <time>2020-08-14T07:46:37Z</time>
      </trkpt>
      <trkpt lat="42.526843" lon="-8.575141">
        <ele>444.021</ele>
        <time>2020-08-14T07:46:48Z</time>
      </trkpt>
      <trkpt lat="42.526511" lon="-8.574530">
        <ele>449.431</ele>
        <time>2020-08-14T07:47:03Z</time>
      </trkpt>
      <trkpt lat="42.525930" lon="-8.574533">
        <ele>451.560</ele>
        <time>2020-08-14T07:47:19Z</time>
      </trkpt>
      <trkpt lat="42.525527" lon="-8.575093">
        <ele>454.382</ele>
        <time>2020-08-14T07:47:35Z</time>
      </trkpt>
      <trkpt lat="42.524261" lon="-8.575417">
        <ele>455.943</ele>
        <time>2020-08-14T07:48:09Z</time>
      </trkpt>
      <trkpt lat="42.523755" lon="-8.576032">
        <ele>462.517</ele>
        <time>2020-08-14T07:48:28Z</time>
      </trkpt>
      <trkpt lat="42.521873" lon="-8.577459">
        <ele>464.908</ele>
        <time>2020-08-14T07:49:26Z</time>
      </trkpt>
      <trkpt lat="42.519697" lon="-8.578346">
        <ele>458.273</ele>
        <time>2020-08-14T07:50:27Z</time>
      </trkpt>
      <trkpt lat="42.518647" lon="-8.579852">
        <ele>451.793</ele>
        <time>2020-08-14T07:51:08Z</time>
      </trkpt>
      <trkpt lat="42.516656" lon="-8.579041">
        <ele>448.387</ele>
        <time>2020-08-14T07:52:04Z</time>
      </trkpt>
      <trkpt lat="42.515969" lon="-8.579772">
        <ele>444.324</ele>
        <time>2020-08-14T07:52:28Z</time>
      </trkpt>
      <trkpt lat="42.515740" lon="-8.580431">
        <ele>443.524</ele>
        <time>2020-08-14T07:52:42Z</time>
      </trkpt>
      <trkpt lat="42.514037" lon="-8.581657">
        <ele>447.690</ele>
        <time>2020-08-14T07:53:34Z</time>
      </trkpt>
      <trkpt lat="42.513709" lon="-8.581751">
        <ele>448.830</ele>
        <time>2020-08-14T07:53:43Z</time>
      </trkpt>
      <trkpt lat="42.513363" lon="-8.581546">
        <ele>446.419</ele>
        <time>2020-08-14T07:53:53Z</time>
      </trkpt>
      <trkpt lat="42.512482" lon="-8.581462">
        <ele>445.333</ele>
        <time>2020-08-14T07:54:17Z</time>
      </trkpt>
      <trkpt lat="42.510856" lon="-8.582267">
        <ele>441.223</ele>
        <time>2020-08-14T07:55:03Z</time>
      </trkpt>
      <trkpt lat="42.508388" lon="-8.582215">
        <ele>425.115</ele>
        <time>2020-08-14T07:56:09Z</time>
      </trkpt>
      <trkpt lat="42.507663" lon="-8.582410">
        <ele>424.608</ele>
        <time>2020-08-14T07:56:29Z</time>
      </trkpt>
      <trkpt lat="42.506976" lon="-8.582250">
        <ele>419.898</ele>
        <time>2020-08-14T07:56:48Z</time>
      </trkpt>
      <trkpt lat="42.505604" lon="-8.582304">
        <ele>418.868</ele>
        <time>2020-08-14T07:57:24Z</time>
      </trkpt>
      <trkpt lat="42.504616" lon="-8.581647">
        <ele>423.852</ele>
        <time>2020-08-14T07:57:54Z</time>
      </trkpt>
      <trkpt lat="42.502755" lon="-8.581104">
        <ele>418.689</ele>
        <time>2020-08-14T07:58:45Z</time>
      </trkpt>
      <trkpt lat="42.497886" lon="-8.581285">
        <ele>378.749</ele>
        <time>2020-08-14T08:00:55Z</time>
      </trkpt>
      <trkpt lat="42.497347" lon="-8.581531">
        <ele>372.125</ele>
        <time>2020-08-14T08:01:10Z</time>
      </trkpt>
      <trkpt lat="42.497059" lon="-8.581956">
        <ele>367.815</ele>
        <time>2020-08-14T08:01:22Z</time>
      </trkpt>
      <trkpt lat="42.496928" lon="-8.585049">
        <ele>370.934</ele>
        <time>2020-08-14T08:02:23Z</time>
      </trkpt>
      <trkpt lat="42.496848" lon="-8.585667">
        <ele>372.935</ele>
        <time>2020-08-14T08:02:35Z</time>
      </trkpt>
      <trkpt lat="42.496689" lon="-8.585901">
        <ele>372.886</ele>
        <time>2020-08-14T08:02:42Z</time>
      </trkpt>
      <trkpt lat="42.496395" lon="-8.586009">
        <ele>371.814</ele>
        <time>2020-08-14T08:02:50Z</time>
      </trkpt>
      <trkpt lat="42.495307" lon="-8.585350">
        <ele>369.108</ele>
        <time>2020-08-14T08:03:22Z</time>
      </trkpt>
      <trkpt lat="42.494385" lon="-8.585696">
        <ele>365.098</ele>
        <time>2020-08-14T08:03:48Z</time>
      </trkpt>
      <trkpt lat="42.492693" lon="-8.585346">
        <ele>349.818</ele>
        <time>2020-08-14T08:04:34Z</time>
      </trkpt>
      <trkpt lat="42.491954" lon="-8.585762">
        <ele>344.752</ele>
        <time>2020-08-14T08:04:56Z</time>
      </trkpt>
      <trkpt lat="42.491440" lon="-8.586266">
        <ele>340.739</ele>
        <time>2020-08-14T08:05:13Z</time>
      </trkpt>
      <trkpt lat="42.491031" lon="-8.587275">
        <ele>336.039</ele>
        <time>2020-08-14T08:05:35Z</time>
      </trkpt>
      <trkpt lat="42.490623" lon="-8.587562">
        <ele>333.075</ele>
        <time>2020-08-14T08:05:48Z</time>
      </trkpt>
      <trkpt lat="42.490249" lon="-8.587522">
        <ele>330.855</ele>
        <time>2020-08-14T08:05:58Z</time>
      </trkpt>
      <trkpt lat="42.489714" lon="-8.587214">
        <ele>329.074</ele>
        <time>2020-08-14T08:06:14Z</time>
      </trkpt>
      <trkpt lat="42.488877" lon="-8.585828">
        <ele>319.153</ele>
        <time>2020-08-14T08:06:49Z</time>
      </trkpt>
      <trkpt lat="42.487924" lon="-8.585326">
        <ele>312.504</ele>
        <time>2020-08-14T08:07:17Z</time>
      </trkpt>
      <trkpt lat="42.487493" lon="-8.583525">
        <ele>310.614</ele>
        <time>2020-08-14T08:07:55Z</time>
      </trkpt>
      <trkpt lat="42.486830" lon="-8.582894">
        <ele>307.208</ele>
        <time>2020-08-14T08:08:16Z</time>
      </trkpt>
      <trkpt lat="42.485828" lon="-8.581480">
        <ele>301.210</ele>
        <time>2020-08-14T08:08:55Z</time>
      </trkpt>
      <trkpt lat="42.485476" lon="-8.580136">
        <ele>295.290</ele>
        <time>2020-08-14T08:09:24Z</time>
      </trkpt>
      <trkpt lat="42.484838" lon="-8.579405">
        <ele>287.654</ele>
        <time>2020-08-14T08:09:46Z</time>
      </trkpt>
      <trkpt lat="42.483963" lon="-8.578933">
        <ele>281.961</ele>
        <time>2020-08-14T08:10:11Z</time>
      </trkpt>
      <trkpt lat="42.483277" lon="-8.578097">
        <ele>285.021</ele>
        <time>2020-08-14T08:10:36Z</time>
      </trkpt>
      <trkpt lat="42.482804" lon="-8.577818">
        <ele>282.437</ele>
        <time>2020-08-14T08:10:50Z</time>
      </trkpt>
      <trkpt lat="42.481721" lon="-8.577554">
        <ele>276.427</ele>
        <time>2020-08-14T08:11:20Z</time>
      </trkpt>
      <trkpt lat="42.481342" lon="-8.577618">
        <ele>273.666</ele>
        <time>2020-08-14T08:11:30Z</time>
      </trkpt>
      <trkpt lat="42.480787" lon="-8.578008">
        <ele>272.374</ele>
        <time>2020-08-14T08:11:47Z</time>
      </trkpt>
      <trkpt lat="42.479282" lon="-8.577405">
        <ele>270.056</ele>
        <time>2020-08-14T08:12:29Z</time>
      </trkpt>
      <trkpt lat="42.478672" lon="-8.577360">
        <ele>266.421</ele>
        <time>2020-08-14T08:12:45Z</time>
      </trkpt>
      <trkpt lat="42.477970" lon="-8.577078">
        <ele>258.208</ele>
        <time>2020-08-14T08:13:05Z</time>
      </trkpt>
      <trkpt lat="42.477114" lon="-8.577254">
        <ele>245.032</ele>
        <time>2020-08-14T08:13:28Z</time>
      </trkpt>
      <trkpt lat="42.476842" lon="-8.577647">
        <ele>238.812</ele>
        <time>2020-08-14T08:13:39Z</time>
      </trkpt>
      <trkpt lat="42.476851" lon="-8.578351">
        <ele>238.556</ele>
        <time>2020-08-14T08:13:53Z</time>
      </trkpt>
      <trkpt lat="42.476655" lon="-8.578974">
        <ele>236.233</ele>
        <time>2020-08-14T08:14:07Z</time>
      </trkpt>
      <trkpt lat="42.476006" lon="-8.579144">
        <ele>230.533</ele>
        <time>2020-08-14T08:14:25Z</time>
      </trkpt>
      <trkpt lat="42.475326" lon="-8.579596">
        <ele>224.239</ele>
        <time>2020-08-14T08:14:45Z</time>
      </trkpt>
      <trkpt lat="42.474859" lon="-8.580148">
        <ele>219.019</ele>
        <time>2020-08-14T08:15:02Z</time>
      </trkpt>
      <trkpt lat="42.473886" lon="-8.580877">
        <ele>206.718</ele>
        <time>2020-08-14T08:15:31Z</time>
      </trkpt>
      <trkpt lat="42.473642" lon="-8.581362">
        <ele>203.676</ele>
        <time>2020-08-14T08:15:43Z</time>
      </trkpt>
      <trkpt lat="42.472375" lon="-8.582436">
        <ele>188.590</ele>
        <time>2020-08-14T08:16:23Z</time>
      </trkpt>
      <trkpt lat="42.471843" lon="-8.583318">
        <ele>186.519</ele>
        <time>2020-08-14T08:16:46Z</time>
      </trkpt>
      <trkpt lat="42.471792" lon="-8.584374">
        <ele>188.208</ele>
        <time>2020-08-14T08:17:07Z</time>
      </trkpt>
      <trkpt lat="42.470900" lon="-8.585087">
        <ele>182.632</ele>
        <time>2020-08-14T08:17:35Z</time>
      </trkpt>
      <trkpt lat="42.470266" lon="-8.586176">
        <ele>185.132</ele>
        <time>2020-08-14T08:18:02Z</time>
      </trkpt>
      <trkpt lat="42.468637" lon="-8.588095">
        <ele>171.796</ele>
        <time>2020-08-14T08:19:01Z</time>
      </trkpt>
      <trkpt lat="42.468074" lon="-8.589114">
        <ele>167.193</ele>
        <time>2020-08-14T08:19:26Z</time>
      </trkpt>
      <trkpt lat="42.468140" lon="-8.589540">
        <ele>165.913</ele>
        <time>2020-08-14T08:19:35Z</time>
      </trkpt>
      <trkpt lat="42.468596" lon="-8.590215">
        <ele>159.689</ele>
        <time>2020-08-14T08:19:53Z</time>
      </trkpt>
      <trkpt lat="42.468820" lon="-8.591140">
        <ele>150.729</ele>
        <time>2020-08-14T08:20:12Z</time>
      </trkpt>
      <trkpt lat="42.468697" lon="-8.591765">
        <ele>149.448</ele>
        <time>2020-08-14T08:20:25Z</time>
      </trkpt>
      <trkpt lat="42.468788" lon="-8.592633">
        <ele>145.926</ele>
        <time>2020-08-14T08:20:43Z</time>
      </trkpt>
      <trkpt lat="42.468340" lon="-8.594506">
        <ele>148.647</ele>
        <time>2020-08-14T08:21:22Z</time>
      </trkpt>
      <trkpt lat="42.468397" lon="-8.595547">
        <ele>147.011</ele>
        <time>2020-08-14T08:21:43Z</time>
      </trkpt>
      <trkpt lat="42.468135" lon="-8.596665">
        <ele>137.108</ele>
        <time>2020-08-14T08:22:06Z</time>
      </trkpt>
      <trkpt lat="42.467031" lon="-8.596464">
        <ele>120.987</ele>
        <time>2020-08-14T08:22:36Z</time>
      </trkpt>
      <trkpt lat="42.466920" lon="-8.596684">
        <ele>115.037</ele>
        <time>2020-08-14T08:22:42Z</time>
      </trkpt>
      <trkpt lat="42.466581" lon="-8.596855">
        <ele>111.351</ele>
        <time>2020-08-14T08:22:52Z</time>
      </trkpt>
      <trkpt lat="42.466059" lon="-8.597635">
        <ele>104.758</ele>
        <time>2020-08-14T08:23:13Z</time>
      </trkpt>
      <trkpt lat="42.465561" lon="-8.597487">
        <ele>103.438</ele>
        <time>2020-08-14T08:23:27Z</time>
      </trkpt>
      <trkpt lat="42.464741" lon="-8.597585">
        <ele>94.884</ele>
        <time>2020-08-14T08:23:49Z</time>
      </trkpt>
      <trkpt lat="42.464110" lon="-8.598267">
        <ele>84.214</ele>
        <time>2020-08-14T08:24:11Z</time>
      </trkpt>
      <trkpt lat="42.463678" lon="-8.598320">
        <ele>82.653</ele>
        <time>2020-08-14T08:24:23Z</time>
      </trkpt>
      <trkpt lat="42.463454" lon="-8.598505">
        <ele>81.837</ele>
        <time>2020-08-14T08:24:30Z</time>
      </trkpt>
      <trkpt lat="42.463306" lon="-8.598761">
        <ele>81.049</ele>
        <time>2020-08-14T08:24:36Z</time>
      </trkpt>
      <trkpt lat="42.463032" lon="-8.600642">
        <ele>73.613</ele>
        <time>2020-08-14T08:25:15Z</time>
      </trkpt>
      <trkpt lat="42.462656" lon="-8.600958">
        <ele>74.008</ele>
        <time>2020-08-14T08:25:27Z</time>
      </trkpt>
      <trkpt lat="42.462243" lon="-8.601812">
        <ele>69.918</ele>
        <time>2020-08-14T08:25:47Z</time>
      </trkpt>
      <trkpt lat="42.460870" lon="-8.603077">
        <ele>62.228</ele>
        <time>2020-08-14T08:26:32Z</time>
      </trkpt>
      <trkpt lat="42.459580" lon="-8.602496">
        <ele>63.012</ele>
        <time>2020-08-14T08:27:09Z</time>
      </trkpt>
      <trkpt lat="42.458491" lon="-8.604073">
        <ele>70.229</ele>
        <time>2020-08-14T08:27:51Z</time>
      </trkpt>
      <trkpt lat="42.458235" lon="-8.605417">
        <ele>61.959</ele>
        <time>2020-08-14T08:28:19Z</time>
      </trkpt>
      <trkpt lat="42.457735" lon="-8.606543">
        <ele>47.765</ele>
        <time>2020-08-14T08:28:45Z</time>
      </trkpt>
      <trkpt lat="42.457281" lon="-8.606188">
        <ele>51.795</ele>
        <time>2020-08-14T08:29:00Z</time>
      </trkpt>
      <trkpt lat="42.457198" lon="-8.605207">
        <ele>60.794</ele>
        <time>2020-08-14T08:29:20Z</time>
      </trkpt>
      <trkpt lat="42.457004" lon="-8.605732">
        <ele>62.134</ele>
        <time>2020-08-14T08:29:33Z</time>
      </trkpt>
      <trkpt lat="42.456535" lon="-8.606159">
        <ele>65.455</ele>
        <time>2020-08-14T08:29:48Z</time>
      </trkpt>
      <trkpt lat="42.454875" lon="-8.606507">
        <ele>64.210</ele>
        <time>2020-08-14T08:30:33Z</time>
      </trkpt>
      <trkpt lat="42.454491" lon="-8.607126">
        <ele>62.508</ele>
        <time>2020-08-14T08:30:49Z</time>
      </trkpt>
      <trkpt lat="42.453700" lon="-8.608749">
        <ele>63.978</ele>
        <time>2020-08-14T08:31:28Z</time>
      </trkpt>
      <trkpt lat="42.453258" lon="-8.610086">
        <ele>50.888</ele>
        <time>2020-08-14T08:31:57Z</time>
      </trkpt>
      <trkpt lat="42.453295" lon="-8.612774">
        <ele>23.132</ele>
        <time>2020-08-14T08:32:51Z</time>
      </trkpt>
      <trkpt lat="42.453154" lon="-8.613376">
        <ele>14.659</ele>
        <time>2020-08-14T08:33:03Z</time>
      </trkpt>
      <trkpt lat="42.452617" lon="-8.613710">
        <ele>8.519</ele>
        <time>2020-08-14T08:33:19Z</time>
      </trkpt>
      <trkpt lat="42.452457" lon="-8.614661">
        <ele>9.735</ele>
        <time>2020-08-14T08:33:39Z</time>
      </trkpt>
      <trkpt lat="42.452281" lon="-8.614926">
        <ele>6.885</ele>
        <time>2020-08-14T08:33:46Z</time>
      </trkpt>
      <trkpt lat="42.452410" lon="-8.615399">
        <ele>10.734</ele>
        <time>2020-08-14T08:33:56Z</time>
      </trkpt>
      <trkpt lat="42.452145" lon="-8.617892">
        <ele>13.149</ele>
        <time>2020-08-14T08:34:47Z</time>
      </trkpt>
      <trkpt lat="42.451615" lon="-8.617918">
        <ele>11.802</ele>
        <time>2020-08-14T08:35:01Z</time>
      </trkpt>
      <trkpt lat="42.451633" lon="-8.618581">
        <ele>12.822</ele>
        <time>2020-08-14T08:35:15Z</time>
      </trkpt>
      <trkpt lat="42.452224" lon="-8.620095">
        <ele>13.008</ele>
        <time>2020-08-14T08:35:49Z</time>
      </trkpt>
      <trkpt lat="42.452287" lon="-8.620780">
        <ele>14.029</ele>
        <time>2020-08-14T08:36:03Z</time>
      </trkpt>
      <trkpt lat="42.451839" lon="-8.621289">
        <ele>12.119</ele>
        <time>2020-08-14T08:36:18Z</time>
      </trkpt>
      <trkpt lat="42.449540" lon="-8.622821">
        <ele>10.033</ele>
        <time>2020-08-14T08:37:27Z</time>
      </trkpt>
      <trkpt lat="42.448866" lon="-8.623655">
        <ele>13.130</ele>
        <time>2020-08-14T08:37:51Z</time>
      </trkpt>
      <trkpt lat="42.448366" lon="-8.625000">
        <ele>12.640</ele>
        <time>2020-08-14T08:38:21Z</time>
      </trkpt>
      <trkpt lat="42.447847" lon="-8.625718">
        <ele>17.086</ele>
        <time>2020-08-14T08:38:41Z</time>
      </trkpt>
      <trkpt lat="42.447094" lon="-8.626439">
        <ele>19.746</ele>
        <time>2020-08-14T08:39:06Z</time>
      </trkpt>
      <trkpt lat="42.446827" lon="-8.626504">
        <ele>23.625</ele>
        <time>2020-08-14T08:39:13Z</time>
      </trkpt>
      <trkpt lat="42.446047" lon="-8.627141">
        <ele>26.841</ele>
        <time>2020-08-14T08:39:38Z</time>
      </trkpt>
      <trkpt lat="42.445919" lon="-8.628162">
        <ele>25.081</ele>
        <time>2020-08-14T08:39:58Z</time>
      </trkpt>
      <trkpt lat="42.446167" lon="-8.630796">
        <ele>14.409</ele>
        <time>2020-08-14T08:40:50Z</time>
      </trkpt>
      <trkpt lat="42.446131" lon="-8.631240">
        <ele>13.008</ele>
        <time>2020-08-14T08:40:59Z</time>
      </trkpt>
      <trkpt lat="42.445863" lon="-8.631801">
        <ele>11.389</ele>
        <time>2020-08-14T08:41:12Z</time>
      </trkpt>
      <trkpt lat="42.444782" lon="-8.632532">
        <ele>7.429</ele>
        <time>2020-08-14T08:41:45Z</time>
      </trkpt>
      <trkpt lat="42.442166" lon="-8.632489">
        <ele>7.613</ele>
        <time>2020-08-14T08:42:55Z</time>
      </trkpt>
      <trkpt lat="42.441473" lon="-8.632242">
        <ele>7.520</ele>
        <time>2020-08-14T08:43:14Z</time>
      </trkpt>
      <trkpt lat="42.440500" lon="-8.632129">
        <ele>5.740</ele>
        <time>2020-08-14T08:43:40Z</time>
      </trkpt>
      <trkpt lat="42.438762" lon="-8.631494">
        <ele>4.196</ele>
        <time>2020-08-14T08:44:28Z</time>
      </trkpt>
      <trkpt lat="42.438206" lon="-8.631480">
        <ele>4.076</ele>
        <time>2020-08-14T08:44:43Z</time>
      </trkpt>
      <trkpt lat="42.435752" lon="-8.632784">
        <ele>2.835</ele>
        <time>2020-08-14T08:45:53Z</time>
      </trkpt>
      <trkpt lat="42.433480" lon="-8.636101">
        <ele>3.916</ele>
        <time>2020-08-14T08:47:23Z</time>
      </trkpt>
      <trkpt lat="42.435466" lon="-8.636603">
        <ele>3.276</ele>
        <time>2020-08-14T08:48:19Z</time>
      </trkpt>
      <trkpt lat="42.437358" lon="-8.640333">
        <ele>4.613</ele>
        <time>2020-08-14T08:49:48Z</time>
      </trkpt>
      <trkpt lat="42.437555" lon="-8.640374">
        <ele>4.808</ele>
        <time>2020-08-14T08:49:54Z</time>
      </trkpt>
      <trkpt lat="42.437461" lon="-8.640689">
        <ele>4.716</ele>
        <time>2020-08-14T08:50:01Z</time>
      </trkpt>
      <trkpt lat="42.436223" lon="-8.641233">
        <ele>3.226</ele>
        <time>2020-08-14T08:50:36Z</time>
      </trkpt>
      <trkpt lat="42.436644" lon="-8.644123">
        <ele>3.030</ele>
        <time>2020-08-14T08:51:34Z</time>
      </trkpt>
      <trkpt lat="42.437166" lon="-8.646181">
        <ele>2.427</ele>
        <time>2020-08-14T08:52:17Z</time>
      </trkpt>
      <trkpt lat="42.437294" lon="-8.648722">
        <ele>4.957</ele>
        <time>2020-08-14T08:53:09Z</time>
      </trkpt>
      <trkpt lat="42.436061" lon="-8.648192">
        <ele>1.393</ele>
        <time>2020-08-14T08:53:44Z</time>
      </trkpt>
      <trkpt lat="42.435872" lon="-8.648273">
        <ele>2.153</ele>
        <time>2020-08-14T08:53:49Z</time>
      </trkpt>
      <trkpt lat="42.435728" lon="-8.646854">
        <ele>2.962</ele>
        <time>2020-08-14T08:54:19Z</time>
      </trkpt>
      <trkpt lat="42.435033" lon="-8.646806">
        <ele>7.177</ele>
        <time>2020-08-14T08:54:38Z</time>
      </trkpt>
      <trkpt lat="42.434241" lon="-8.647946">
        <ele>9.661</ele>
        <time>2020-08-14T08:55:09Z</time>
      </trkpt>
      <trkpt lat="42.433901" lon="-8.648127">
        <ele>11.627</ele>
        <time>2020-08-14T08:55:19Z</time>
      </trkpt>
      <trkpt lat="42.432807" lon="-8.647898">
        <ele>17.408</ele>
        <time>2020-08-14T08:55:49Z</time>
      </trkpt>
      <trkpt lat="42.431686" lon="-8.647022">
        <ele>18.072</ele>
        <time>2020-08-14T08:56:23Z</time>
      </trkpt>
      <trkpt lat="42.431337" lon="-8.647319">
        <ele>18.332</ele>
        <time>2020-08-14T08:56:35Z</time>
      </trkpt>
    </trkseg>
  </trk>
</gpx>
